<?xml version='1.0' encoding='UTF-8'?><gpx version="1.1" creator="JPX - https://github.com/jenetics/jpx" xmlns="http://www.topografix.com/GPX/1/1"><trk><trkseg><trkpt lat="44.629050982705316" lon="10.555675104940132"><ele>153.0</ele><time>2026-04-12T07:31:20Z</time></trkpt><trkpt lat="44.62913084181591" lon="10.555786185992716"><ele>153.0</ele><time>2026-04-12T07:31:22Z</time></trkpt><trkpt lat="44.62903979123045" lon="10.555692739977278"><ele>153.0</ele><time>2026-04-12T07:31:23Z</time></trkpt><trkpt lat="44.628878453989074" lon="10.555507179844222"><ele>153.0</ele><time>2026-04-12T07:31:24Z</time></trkpt><trkpt lat="44.629183885486576" lon="10.555882027312643"><ele>153.0</ele><time>2026-04-12T07:31:31.814Z</time></trkpt><trkpt lat="44.62895536988337" lon="10.555622323080133"><ele>153.0</ele><time>2026-04-12T07:31:36Z</time></trkpt><trkpt lat="44.62883197871156" lon="10.555498089672154"><ele>153.0</ele><time>2026-04-12T07:31:40Z</time></trkpt><trkpt lat="44.62879623995766" lon="10.5554087522732"><ele>153.0</ele><time>2026-04-12T07:31:43Z</time></trkpt><trkpt lat="44.62875215969968" lon="10.555336100656485"><ele>153.0</ele><time>2026-04-12T07:31:46Z</time></trkpt><trkpt lat="44.62871506011663" lon="10.555261078738198"><ele>153.0</ele><time>2026-04-12T07:31:49Z</time></trkpt><trkpt lat="44.62872684377266" lon="10.55517204520559"><ele>153.0</ele><time>2026-04-12T07:31:52.001Z</time></trkpt><trkpt lat="44.62879597711406" lon="10.555175694693066"><ele>153.0</ele><time>2026-04-12T07:32:03.001Z</time></trkpt><trkpt lat="44.62876396822666" lon="10.555272449072596"><ele>153.0</ele><time>2026-04-12T07:33:46.001Z</time></trkpt><trkpt lat="44.62871687383383" lon="10.555354003423442"><ele>153.0</ele><time>2026-04-12T07:34:32.001Z</time></trkpt><trkpt lat="44.628625189752725" lon="10.555323834207568"><ele>153.0</ele><time>2026-04-12T07:39:16Z</time></trkpt><trkpt lat="44.62852836315936" lon="10.5553890373404"><ele>153.0</ele><time>2026-04-12T07:39:18Z</time></trkpt><trkpt lat="44.628492738816185" lon="10.555474143566446"><ele>153.0</ele><time>2026-04-12T07:39:19Z</time></trkpt><trkpt lat="44.62844914356051" lon="10.555572506394496"><ele>153.0</ele><time>2026-04-12T07:39:20Z</time></trkpt><trkpt lat="44.62839914922261" lon="10.555675539549823"><ele>153.0</ele><time>2026-04-12T07:39:22Z</time></trkpt><trkpt lat="44.62839621205286" lon="10.555782082902882"><ele>153.0</ele><time>2026-04-12T07:39:25Z</time></trkpt><trkpt lat="44.628450002697626" lon="10.555858615837632"><ele>153.0</ele><time>2026-04-12T07:39:26Z</time></trkpt><trkpt lat="44.628534402096086" lon="10.55592499567101"><ele>153.0</ele><time>2026-04-12T07:39:27Z</time></trkpt><trkpt lat="44.62862501160468" lon="10.555998135834598"><ele>153.0</ele><time>2026-04-12T07:39:28Z</time></trkpt><trkpt lat="44.62873985984107" lon="10.55610095218991"><ele>153.0</ele><time>2026-04-12T07:39:29Z</time></trkpt><trkpt lat="44.6288390048974" lon="10.556195577756064"><ele>153.0</ele><time>2026-04-12T07:39:30Z</time></trkpt><trkpt lat="44.62890543873737" lon="10.556256583261264"><ele>153.0</ele><time>2026-04-12T07:39:31Z</time></trkpt><trkpt lat="44.62898069215904" lon="10.556331816175152"><ele>153.0</ele><time>2026-04-12T07:39:33Z</time></trkpt><trkpt lat="44.62901632355338" lon="10.556425216491583"><ele>153.0</ele><time>2026-04-12T07:39:36Z</time></trkpt><trkpt lat="44.62901622954979" lon="10.5565692846843"><ele>153.0</ele><time>2026-04-12T07:39:37Z</time></trkpt><trkpt lat="44.6290028060467" lon="10.556711805054862"><ele>153.0</ele><time>2026-04-12T07:39:38Z</time></trkpt><trkpt lat="44.62898668276027" lon="10.556841905241672"><ele>153.0</ele><time>2026-04-12T07:39:39Z</time></trkpt><trkpt lat="44.628969656703184" lon="10.55697653156643"><ele>153.0</ele><time>2026-04-12T07:39:40Z</time></trkpt><trkpt lat="44.6289491497063" lon="10.557108307760583"><ele>153.0</ele><time>2026-04-12T07:39:41Z</time></trkpt><trkpt lat="44.62892311859411" lon="10.557250770649656"><ele>153.0</ele><time>2026-04-12T07:39:42Z</time></trkpt><trkpt lat="44.62888438914391" lon="10.557408374014196"><ele>153.0</ele><time>2026-04-12T07:39:43Z</time></trkpt><trkpt lat="44.62883109752815" lon="10.557584741783632"><ele>153.0</ele><time>2026-04-12T07:39:44Z</time></trkpt><trkpt lat="44.62876234378296" lon="10.557785778281536"><ele>153.0</ele><time>2026-04-12T07:39:45Z</time></trkpt><trkpt lat="44.62867637491894" lon="10.558000076320903"><ele>151.0</ele><time>2026-04-12T07:39:46Z</time></trkpt><trkpt lat="44.62857594389493" lon="10.558206634827732"><ele>149.0</ele><time>2026-04-12T07:39:47Z</time></trkpt><trkpt lat="44.628459311244804" lon="10.55840949363119"><ele>147.0</ele><time>2026-04-12T07:39:48Z</time></trkpt><trkpt lat="44.6283175188907" lon="10.558603711114607"><ele>146.0</ele><time>2026-04-12T07:39:49Z</time></trkpt><trkpt lat="44.62816016840456" lon="10.558792425885821"><ele>145.0</ele><time>2026-04-12T07:39:50Z</time></trkpt><trkpt lat="44.62799974918517" lon="10.558989515773566"><ele>144.0</ele><time>2026-04-12T07:39:51Z</time></trkpt><trkpt lat="44.627853895455665" lon="10.55918594109974"><ele>144.0</ele><time>2026-04-12T07:39:52Z</time></trkpt><trkpt lat="44.62772662903399" lon="10.559366039435922"><ele>144.0</ele><time>2026-04-12T07:39:53Z</time></trkpt><trkpt lat="44.62762178458106" lon="10.559538428156156"><ele>144.0</ele><time>2026-04-12T07:39:54Z</time></trkpt><trkpt lat="44.62753912890009" lon="10.559729634577398"><ele>144.66666666666666</ele><time>2026-04-12T07:39:55Z</time></trkpt><trkpt lat="44.62745954313024" lon="10.559946761418812"><ele>145.33333333333331</ele><time>2026-04-12T07:39:56Z</time></trkpt><trkpt lat="44.627384710210215" lon="10.560197300279695"><ele>146.0</ele><time>2026-04-12T07:39:57Z</time></trkpt><trkpt lat="44.62730395249711" lon="10.560493055684454"><ele>146.33333333333331</ele><time>2026-04-12T07:39:58Z</time></trkpt><trkpt lat="44.62722518031916" lon="10.560777695368003"><ele>146.66666666666666</ele><time>2026-04-12T07:39:59Z</time></trkpt><trkpt lat="44.62715898429679" lon="10.561014745317971"><ele>147.0</ele><time>2026-04-12T07:40:00Z</time></trkpt><trkpt lat="44.62710291547827" lon="10.561217995678005"><ele>147.0</ele><time>2026-04-12T07:40:01Z</time></trkpt><trkpt lat="44.62705193143513" lon="10.561400736347386"><ele>147.0</ele><time>2026-04-12T07:40:02Z</time></trkpt><trkpt lat="44.62700955647155" lon="10.561560183441582"><ele>147.0</ele><time>2026-04-12T07:40:03Z</time></trkpt><trkpt lat="44.62697349536326" lon="10.561696712927647"><ele>147.0</ele><time>2026-04-12T07:40:04Z</time></trkpt><trkpt lat="44.62694452752742" lon="10.56181258078837"><ele>147.0</ele><time>2026-04-12T07:40:05Z</time></trkpt><trkpt lat="44.62692105664195" lon="10.56190368804006"><ele>147.0</ele><time>2026-04-12T07:40:06Z</time></trkpt><trkpt lat="44.62688846866969" lon="10.562041272038469"><ele>147.0</ele><time>2026-04-12T07:40:08Z</time></trkpt><trkpt lat="44.62684402626437" lon="10.562142416837101"><ele>147.0</ele><time>2026-04-12T07:40:10Z</time></trkpt><trkpt lat="44.62691627012938" lon="10.562289196623789"><ele>147.0</ele><time>2026-04-12T07:40:12Z</time></trkpt><trkpt lat="44.62694913166156" lon="10.562376483863698"><ele>146.6</ele><time>2026-04-12T07:40:14Z</time></trkpt><trkpt lat="44.62691118363452" lon="10.562277858845283"><ele>146.2</ele><time>2026-04-12T07:41:41Z</time></trkpt><trkpt lat="44.62681880922992" lon="10.562330637507603"><ele>145.8</ele><time>2026-04-12T07:41:44Z</time></trkpt><trkpt lat="44.62677188505746" lon="10.562421575373486"><ele>145.4</ele><time>2026-04-12T07:41:45Z</time></trkpt><trkpt lat="44.626726960023284" lon="10.562559102211733"><ele>145.0</ele><time>2026-04-12T07:41:46Z</time></trkpt><trkpt lat="44.62668523955099" lon="10.56269934933078"><ele>145.0</ele><time>2026-04-12T07:41:47Z</time></trkpt><trkpt lat="44.62664010872186" lon="10.562809629814504"><ele>145.0</ele><time>2026-04-12T07:41:48Z</time></trkpt><trkpt lat="44.62659959967232" lon="10.562898414716491"><ele>145.0</ele><time>2026-04-12T07:41:49Z</time></trkpt><trkpt lat="44.62656167247766" lon="10.562981779830615"><ele>145.0</ele><time>2026-04-12T07:41:50Z</time></trkpt><trkpt lat="44.62652231001554" lon="10.563052120791777"><ele>145.0</ele><time>2026-04-12T07:41:51Z</time></trkpt><trkpt lat="44.626451401745605" lon="10.56310039481575"><ele>145.0</ele><time>2026-04-12T07:41:53Z</time></trkpt><trkpt lat="44.62637073089267" lon="10.56299472601382"><ele>145.0</ele><time>2026-04-12T07:41:55Z</time></trkpt><trkpt lat="44.62632943403981" lon="10.562880579373699"><ele>145.0</ele><time>2026-04-12T07:41:56Z</time></trkpt><trkpt lat="44.626282053169554" lon="10.562766440796798"><ele>145.0</ele><time>2026-04-12T07:41:57Z</time></trkpt><trkpt lat="44.62622317055807" lon="10.562653350567173"><ele>145.0</ele><time>2026-04-12T07:41:58Z</time></trkpt><trkpt lat="44.62615673778098" lon="10.562531633049165"><ele>145.0</ele><time>2026-04-12T07:41:59Z</time></trkpt><trkpt lat="44.62609121212054" lon="10.562391122048679"><ele>145.0</ele><time>2026-04-12T07:42:00Z</time></trkpt><trkpt lat="44.626016617775775" lon="10.562245609487713"><ele>145.0</ele><time>2026-04-12T07:42:01Z</time></trkpt><trkpt lat="44.625939808816156" lon="10.56206486193278"><ele>145.0</ele><time>2026-04-12T07:42:02Z</time></trkpt><trkpt lat="44.625864909121034" lon="10.561900123630732"><ele>145.0</ele><time>2026-04-12T07:42:03Z</time></trkpt><trkpt lat="44.62578590725426" lon="10.561742625761525"><ele>145.0</ele><time>2026-04-12T07:42:04Z</time></trkpt><trkpt lat="44.62569710651145" lon="10.561578870144059"><ele>145.0</ele><time>2026-04-12T07:42:05Z</time></trkpt><trkpt lat="44.62562069903909" lon="10.561379087721026"><ele>145.0</ele><time>2026-04-12T07:42:06Z</time></trkpt><trkpt lat="44.62550685723008" lon="10.561169006775673"><ele>145.0</ele><time>2026-04-12T07:42:07Z</time></trkpt><trkpt lat="44.62542846071385" lon="10.56095538229958"><ele>145.0</ele><time>2026-04-12T07:42:08Z</time></trkpt><trkpt lat="44.625345950347736" lon="10.560776275150655"><ele>145.0</ele><time>2026-04-12T07:42:09Z</time></trkpt><trkpt lat="44.62525756498044" lon="10.560583868992357"><ele>145.0</ele><time>2026-04-12T07:42:10Z</time></trkpt><trkpt lat="44.625172430821735" lon="10.560400235605991"><ele>145.0</ele><time>2026-04-12T07:42:11Z</time></trkpt><trkpt lat="44.625089376391195" lon="10.560221458827966"><ele>145.0</ele><time>2026-04-12T07:42:12Z</time></trkpt><trkpt lat="44.62500750686591" lon="10.560045232588884"><ele>145.66666666666669</ele><time>2026-04-12T07:42:13Z</time></trkpt><trkpt lat="44.62492517106091" lon="10.559868002670923"><ele>146.33333333333334</ele><time>2026-04-12T07:42:14Z</time></trkpt><trkpt lat="44.62484381397806" lon="10.55969287947397"><ele>147.0</ele><time>2026-04-12T07:42:15Z</time></trkpt><trkpt lat="44.62476229275781" lon="10.559515870890111"><ele>148.33333333333334</ele><time>2026-04-12T07:42:16Z</time></trkpt><trkpt lat="44.62468604183926" lon="10.559350236944274"><ele>149.66666666666669</ele><time>2026-04-12T07:42:17Z</time></trkpt><trkpt lat="44.62459389104561" lon="10.559192674616808"><ele>151.0</ele><time>2026-04-12T07:42:18Z</time></trkpt><trkpt lat="44.62450974763496" lon="10.558967287593921"><ele>150.66666666666669</ele><time>2026-04-12T07:42:19Z</time></trkpt><trkpt lat="44.62440488668054" lon="10.558739506212879"><ele>150.33333333333334</ele><time>2026-04-12T07:42:20Z</time></trkpt><trkpt lat="44.624292173963426" lon="10.558530726760706"><ele>150.0</ele><time>2026-04-12T07:42:21Z</time></trkpt><trkpt lat="44.624212062210404" lon="10.558320648459823"><ele>151.0</ele><time>2026-04-12T07:42:22Z</time></trkpt><trkpt lat="44.624140122231644" lon="10.558155572617421"><ele>152.0</ele><time>2026-04-12T07:42:23Z</time></trkpt><trkpt lat="44.624077561361055" lon="10.558002611689162"><ele>153.0</ele><time>2026-04-12T07:42:24Z</time></trkpt><trkpt lat="44.62403015373714" lon="10.557849478200973"><ele>154.0</ele><time>2026-04-12T07:42:25Z</time></trkpt><trkpt lat="44.62399756421151" lon="10.557701174167722"><ele>156.25</ele><time>2026-04-12T07:42:26Z</time></trkpt><trkpt lat="44.623980554872055" lon="10.55753498074985"><ele>158.5</ele><time>2026-04-12T07:42:27Z</time></trkpt><trkpt lat="44.6239721000808" lon="10.557345726499841"><ele>160.75</ele><time>2026-04-12T07:42:28Z</time></trkpt><trkpt lat="44.62395263506968" lon="10.5571464590179"><ele>163.0</ele><time>2026-04-12T07:42:29Z</time></trkpt><trkpt lat="44.62394342934535" lon="10.556936933816997"><ele>163.4</ele><time>2026-04-12T07:42:30Z</time></trkpt><trkpt lat="44.6239543987375" lon="10.556756469349832"><ele>163.8</ele><time>2026-04-12T07:42:31Z</time></trkpt><trkpt lat="44.62394559869487" lon="10.556604508876816"><ele>164.2</ele><time>2026-04-12T07:42:32Z</time></trkpt><trkpt lat="44.62392723472579" lon="10.556463537369844"><ele>164.6</ele><time>2026-04-12T07:42:33Z</time></trkpt><trkpt lat="44.623878882942954" lon="10.55633097143845"><ele>165.0</ele><time>2026-04-12T07:42:34Z</time></trkpt><trkpt lat="44.62378302899122" lon="10.55623318689085"><ele>165.75</ele><time>2026-04-12T07:42:35Z</time></trkpt><trkpt lat="44.62367806819199" lon="10.556190117808141"><ele>166.5</ele><time>2026-04-12T07:42:36Z</time></trkpt><trkpt lat="44.623564332116274" lon="10.556146186197449"><ele>167.25</ele><time>2026-04-12T07:42:37Z</time></trkpt><trkpt lat="44.62343084266032" lon="10.556099808297496"><ele>168.0</ele><time>2026-04-12T07:42:38Z</time></trkpt><trkpt lat="44.62330410720812" lon="10.556054887971873"><ele>170.5</ele><time>2026-04-12T07:42:39Z</time></trkpt><trkpt lat="44.62317924893816" lon="10.556010632989652"><ele>173.0</ele><time>2026-04-12T07:42:40Z</time></trkpt><trkpt lat="44.62303838037172" lon="10.55597891592852"><ele>175.5</ele><time>2026-04-12T07:42:41Z</time></trkpt><trkpt lat="44.62289002737745" lon="10.555923779290174"><ele>178.0</ele><time>2026-04-12T07:42:42Z</time></trkpt><trkpt lat="44.62274368169981" lon="10.555866622762489"><ele>181.0</ele><time>2026-04-12T07:42:43Z</time></trkpt><trkpt lat="44.62259472577355" lon="10.55581231180712"><ele>184.0</ele><time>2026-04-12T07:42:44Z</time></trkpt><trkpt lat="44.62243962109061" lon="10.555749306346533"><ele>187.0</ele><time>2026-04-12T07:42:45Z</time></trkpt><trkpt lat="44.622280247596926" lon="10.555690991631622"><ele>187.0</ele><time>2026-04-12T07:42:46Z</time></trkpt><trkpt lat="44.62213016864729" lon="10.55561098633032"><ele>187.0</ele><time>2026-04-12T07:42:47Z</time></trkpt><trkpt lat="44.62198492089209" lon="10.555546604999591"><ele>187.0</ele><time>2026-04-12T07:42:48Z</time></trkpt><trkpt lat="44.62185035790612" lon="10.555483667154611"><ele>185.75</ele><time>2026-04-12T07:42:49Z</time></trkpt><trkpt lat="44.62175235178185" lon="10.555370802133975"><ele>184.5</ele><time>2026-04-12T07:42:50Z</time></trkpt><trkpt lat="44.621663564171605" lon="10.555231997546478"><ele>183.25</ele><time>2026-04-12T07:42:51Z</time></trkpt><trkpt lat="44.62157690817276" lon="10.555054137156167"><ele>182.0</ele><time>2026-04-12T07:42:52Z</time></trkpt><trkpt lat="44.621496643241464" lon="10.554842627928135"><ele>190.33333333333331</ele><time>2026-04-12T07:42:53Z</time></trkpt><trkpt lat="44.62140600157886" lon="10.554634745803874"><ele>198.66666666666666</ele><time>2026-04-12T07:42:54Z</time></trkpt><trkpt lat="44.621310569617144" lon="10.554402744391355"><ele>207.0</ele><time>2026-04-12T07:42:55Z</time></trkpt><trkpt lat="44.62120734611069" lon="10.554179311745223"><ele>205.66666666666669</ele><time>2026-04-12T07:42:56Z</time></trkpt><trkpt lat="44.62111254549136" lon="10.553961333217146"><ele>204.33333333333334</ele><time>2026-04-12T07:42:57Z</time></trkpt><trkpt lat="44.62102132253071" lon="10.553752305022964"><ele>203.0</ele><time>2026-04-12T07:42:58Z</time></trkpt><trkpt lat="44.620939922599966" lon="10.553557904704066"><ele>205.2</ele><time>2026-04-12T07:42:59Z</time></trkpt><trkpt lat="44.62087340630057" lon="10.553404409518475"><ele>207.4</ele><time>2026-04-12T07:43:00Z</time></trkpt><trkpt lat="44.62082579777777" lon="10.553303219914104"><ele>209.59999999999997</ele><time>2026-04-12T07:43:01Z</time></trkpt><trkpt lat="44.620799009194904" lon="10.553219242282577"><ele>211.79999999999998</ele><time>2026-04-12T07:43:02Z</time></trkpt><trkpt lat="44.62083244842196" lon="10.553093687107385"><ele>214.0</ele><time>2026-04-12T07:43:04Z</time></trkpt><trkpt lat="44.620937022704375" lon="10.553034113325419"><ele>214.0</ele><time>2026-04-12T07:43:06Z</time></trkpt><trkpt lat="44.62092256222067" lon="10.552947967834541"><ele>214.0</ele><time>2026-04-12T07:43:58Z</time></trkpt><trkpt lat="44.620801863722704" lon="10.552788213350041"><ele>214.0</ele><time>2026-04-12T07:44:00Z</time></trkpt><trkpt lat="44.62067494498353" lon="10.552672067148157"><ele>214.0</ele><time>2026-04-12T07:44:01Z</time></trkpt><trkpt lat="44.620558676841156" lon="10.552511194707106"><ele>213.0</ele><time>2026-04-12T07:44:02Z</time></trkpt><trkpt lat="44.620454883684545" lon="10.552390506612547"><ele>212.0</ele><time>2026-04-12T07:44:03Z</time></trkpt><trkpt lat="44.62035762760751" lon="10.552289853735443"><ele>211.0</ele><time>2026-04-12T07:44:04Z</time></trkpt><trkpt lat="44.62025116573074" lon="10.552210578503397"><ele>210.0</ele><time>2026-04-12T07:44:05Z</time></trkpt><trkpt lat="44.620144861506304" lon="10.552123415224541"><ele>207.6</ele><time>2026-04-12T07:44:06Z</time></trkpt><trkpt lat="44.620049710070695" lon="10.552042046277275"><ele>205.2</ele><time>2026-04-12T07:44:07Z</time></trkpt><trkpt lat="44.619976532609144" lon="10.551979468416791"><ele>202.8</ele><time>2026-04-12T07:44:08Z</time></trkpt><trkpt lat="44.619891522247556" lon="10.551904297785287"><ele>200.4</ele><time>2026-04-12T07:44:10Z</time></trkpt><trkpt lat="44.619811637001575" lon="10.551826841262857"><ele>198.0</ele><time>2026-04-12T07:44:12Z</time></trkpt><trkpt lat="44.6197279746851" lon="10.551723559109412"><ele>198.0</ele><time>2026-04-12T07:44:14Z</time></trkpt><trkpt lat="44.61964830203057" lon="10.5516195552924"><ele>198.0</ele><time>2026-04-12T07:44:16Z</time></trkpt><trkpt lat="44.619574933239925" lon="10.55152854645637"><ele>198.0</ele><time>2026-04-12T07:44:18Z</time></trkpt><trkpt lat="44.619508522618744" lon="10.551447445132679"><ele>198.0</ele><time>2026-04-12T07:44:20Z</time></trkpt><trkpt lat="44.61943799543944" lon="10.55136465747831"><ele>198.0</ele><time>2026-04-12T07:44:22Z</time></trkpt><trkpt lat="44.61935399932895" lon="10.551273190768715"><ele>199.4</ele><time>2026-04-12T07:44:24Z</time></trkpt><trkpt lat="44.61925964280235" lon="10.551180210378913"><ele>200.8</ele><time>2026-04-12T07:44:26Z</time></trkpt><trkpt lat="44.61916586824479" lon="10.55108343540037"><ele>202.2</ele><time>2026-04-12T07:44:28Z</time></trkpt><trkpt lat="44.619072026910096" lon="10.550955570639072"><ele>203.6</ele><time>2026-04-12T07:44:30Z</time></trkpt><trkpt lat="44.619021747367135" lon="10.550878779090816"><ele>205.0</ele><time>2026-04-12T07:44:31Z</time></trkpt><trkpt lat="44.61896969635602" lon="10.550798880655284"><ele>204.99999999999997</ele><time>2026-04-12T07:44:32Z</time></trkpt><trkpt lat="44.618916455183054" lon="10.550717155315647"><ele>205.0</ele><time>2026-04-12T07:44:33Z</time></trkpt><trkpt lat="44.61886655699372" lon="10.550640561466372"><ele>205.0</ele><time>2026-04-12T07:44:34Z</time></trkpt><trkpt lat="44.618816905445804" lon="10.550560851869763"><ele>205.0</ele><time>2026-04-12T07:44:35Z</time></trkpt><trkpt lat="44.61876466886558" lon="10.550472798285035"><ele>204.99999999999997</ele><time>2026-04-12T07:44:36Z</time></trkpt><trkpt lat="44.61871254898114" lon="10.550381738258386"><ele>205.0</ele><time>2026-04-12T07:44:37Z</time></trkpt><trkpt lat="44.61865215570624" lon="10.55031326761695"><ele>204.4</ele><time>2026-04-12T07:44:38Z</time></trkpt><trkpt lat="44.618606302042735" lon="10.550243967754733"><ele>203.8</ele><time>2026-04-12T07:44:39Z</time></trkpt><trkpt lat="44.61851678171942" lon="10.550143815631925"><ele>203.2</ele><time>2026-04-12T07:44:41Z</time></trkpt><trkpt lat="44.61842640226307" lon="10.550067246161657"><ele>202.6</ele><time>2026-04-12T07:44:43Z</time></trkpt><trkpt lat="44.618321219359565" lon="10.5500003436032"><ele>202.0</ele><time>2026-04-12T07:44:45Z</time></trkpt><trkpt lat="44.6182262049635" lon="10.549947434100103"><ele>201.99999999999997</ele><time>2026-04-12T07:44:47Z</time></trkpt><trkpt lat="44.61813121641741" lon="10.549917778253231"><ele>202.0</ele><time>2026-04-12T07:44:49Z</time></trkpt><trkpt lat="44.618021499180244" lon="10.549856853294735"><ele>202.0</ele><time>2026-04-12T07:44:51Z</time></trkpt><trkpt lat="44.61795994969179" lon="10.549823975675327"><ele>202.0</ele><time>2026-04-12T07:44:52Z</time></trkpt><trkpt lat="44.61790013668017" lon="10.549791891358455"><ele>201.99999999999997</ele><time>2026-04-12T07:44:53Z</time></trkpt><trkpt lat="44.61782891943197" lon="10.549751707367825"><ele>202.0</ele><time>2026-04-12T07:44:54Z</time></trkpt><trkpt lat="44.617735062619595" lon="10.549701654670002"><ele>200.75</ele><time>2026-04-12T07:44:55Z</time></trkpt><trkpt lat="44.61760325958089" lon="10.549631374370819"><ele>199.5</ele><time>2026-04-12T07:44:56Z</time></trkpt><trkpt lat="44.61747878785106" lon="10.549563052563443"><ele>198.25</ele><time>2026-04-12T07:44:57Z</time></trkpt><trkpt lat="44.617375980557455" lon="10.549484247695789"><ele>197.0</ele><time>2026-04-12T07:44:58Z</time></trkpt><trkpt lat="44.6172736908822" lon="10.54942785790882"><ele>196.25</ele><time>2026-04-12T07:44:59Z</time></trkpt><trkpt lat="44.61715073554728" lon="10.549360075652716"><ele>195.5</ele><time>2026-04-12T07:45:00Z</time></trkpt><trkpt lat="44.61701800158284" lon="10.549309336054502"><ele>194.75</ele><time>2026-04-12T07:45:01Z</time></trkpt><trkpt lat="44.61689701671534" lon="10.549233488337391"><ele>194.0</ele><time>2026-04-12T07:45:02Z</time></trkpt><trkpt lat="44.616770376562435" lon="10.549164990058262"><ele>194.0</ele><time>2026-04-12T07:45:03Z</time></trkpt><trkpt lat="44.61664367486506" lon="10.549103859992318"><ele>194.0</ele><time>2026-04-12T07:45:04Z</time></trkpt><trkpt lat="44.61652926245156" lon="10.549049124716438"><ele>194.0</ele><time>2026-04-12T07:45:05Z</time></trkpt><trkpt lat="44.61644308172069" lon="10.548967182381205"><ele>194.0</ele><time>2026-04-12T07:45:06Z</time></trkpt><trkpt lat="44.61633129281314" lon="10.54889654605569"><ele>194.0</ele><time>2026-04-12T07:45:07Z</time></trkpt><trkpt lat="44.61619333468015" lon="10.548820248081594"><ele>194.0</ele><time>2026-04-12T07:45:08Z</time></trkpt><trkpt lat="44.61602216067929" lon="10.548751950936872"><ele>194.0</ele><time>2026-04-12T07:45:09Z</time></trkpt><trkpt lat="44.61583730093382" lon="10.548652083587397"><ele>195.0</ele><time>2026-04-12T07:45:10Z</time></trkpt><trkpt lat="44.61565069517368" lon="10.548534844646447"><ele>196.0</ele><time>2026-04-12T07:45:11Z</time></trkpt><trkpt lat="44.615496320338266" lon="10.548473221527026"><ele>197.0</ele><time>2026-04-12T07:45:12Z</time></trkpt><trkpt lat="44.61536171313905" lon="10.548404704089037"><ele>200.66666666666669</ele><time>2026-04-12T07:45:13Z</time></trkpt><trkpt lat="44.61521103026491" lon="10.54832076327893"><ele>204.33333333333331</ele><time>2026-04-12T07:45:14Z</time></trkpt><trkpt lat="44.6150518345133" lon="10.548231952774117"><ele>208.0</ele><time>2026-04-12T07:45:15Z</time></trkpt><trkpt lat="44.61489550417902" lon="10.548150147049"><ele>208.0</ele><time>2026-04-12T07:45:16Z</time></trkpt><trkpt lat="44.61475911948034" lon="10.548045491508894"><ele>208.0</ele><time>2026-04-12T07:45:17Z</time></trkpt><trkpt lat="44.614594262794114" lon="10.547975678680974"><ele>208.0</ele><time>2026-04-12T07:45:18Z</time></trkpt><trkpt lat="44.614424235482296" lon="10.54788071739024"><ele>210.0</ele><time>2026-04-12T07:45:19Z</time></trkpt><trkpt lat="44.6142757563961" lon="10.54778240949304"><ele>212.0</ele><time>2026-04-12T07:45:20Z</time></trkpt><trkpt lat="44.614164096279424" lon="10.54769672223087"><ele>214.0</ele><time>2026-04-12T07:45:21Z</time></trkpt><trkpt lat="44.61406989867819" lon="10.547622877324784"><ele>216.0</ele><time>2026-04-12T07:45:22Z</time></trkpt><trkpt lat="44.613962286206686" lon="10.54757719864628"><ele>216.0</ele><time>2026-04-12T07:45:23Z</time></trkpt><trkpt lat="44.61384563427477" lon="10.54750532611682"><ele>216.0</ele><time>2026-04-12T07:45:24Z</time></trkpt><trkpt lat="44.61373043566747" lon="10.54744713486046"><ele>216.0</ele><time>2026-04-12T07:45:25Z</time></trkpt><trkpt lat="44.61360856681654" lon="10.54738875673488"><ele>216.0</ele><time>2026-04-12T07:45:26Z</time></trkpt><trkpt lat="44.61352314555104" lon="10.54733203387598"><ele>215.5</ele><time>2026-04-12T07:45:27Z</time></trkpt><trkpt lat="44.613442034315604" lon="10.547267281976296"><ele>215.0</ele><time>2026-04-12T07:45:28Z</time></trkpt><trkpt lat="44.613360322161654" lon="10.54713555109238"><ele>214.5</ele><time>2026-04-12T07:45:29Z</time></trkpt><trkpt lat="44.613286271947636" lon="10.546970947481453"><ele>214.0</ele><time>2026-04-12T07:45:30Z</time></trkpt><trkpt lat="44.61322784965607" lon="10.54677587522875"><ele>215.0</ele><time>2026-04-12T07:45:31Z</time></trkpt><trkpt lat="44.61316699779207" lon="10.546583779288326"><ele>216.0</ele><time>2026-04-12T07:45:32Z</time></trkpt><trkpt lat="44.61310528978379" lon="10.546391215756543"><ele>217.0</ele><time>2026-04-12T07:45:33Z</time></trkpt><trkpt lat="44.61305190259673" lon="10.546217656396495"><ele>218.0</ele><time>2026-04-12T07:45:34Z</time></trkpt><trkpt lat="44.61301605676752" lon="10.546069742485464"><ele>218.0</ele><time>2026-04-12T07:45:35Z</time></trkpt><trkpt lat="44.61298942823812" lon="10.545975593188059"><ele>218.0</ele><time>2026-04-12T07:45:36Z</time></trkpt><trkpt lat="44.612975238183694" lon="10.545888274565675"><ele>218.0</ele><time>2026-04-12T07:45:37Z</time></trkpt><trkpt lat="44.61297251405902" lon="10.545792809525915"><ele>218.0</ele><time>2026-04-12T07:45:38Z</time></trkpt><trkpt lat="44.612977142969804" lon="10.545665854736379"><ele>218.0</ele><time>2026-04-12T07:45:39Z</time></trkpt><trkpt lat="44.612986804512445" lon="10.545563266828479"><ele>218.0</ele><time>2026-04-12T07:45:40Z</time></trkpt><trkpt lat="44.61298975977726" lon="10.54545780467508"><ele>218.0</ele><time>2026-04-12T07:45:41Z</time></trkpt><trkpt lat="44.61298303079212" lon="10.545356555794973"><ele>217.2</ele><time>2026-04-12T07:45:42Z</time></trkpt><trkpt lat="44.612957625597694" lon="10.545245650074046"><ele>216.4</ele><time>2026-04-12T07:45:43Z</time></trkpt><trkpt lat="44.61291787491948" lon="10.545131411166597"><ele>215.59999999999997</ele><time>2026-04-12T07:45:44Z</time></trkpt><trkpt lat="44.612860652846166" lon="10.54500202283507"><ele>214.79999999999998</ele><time>2026-04-12T07:45:45Z</time></trkpt><trkpt lat="44.6128159351873" lon="10.544879612008275"><ele>214.0</ele><time>2026-04-12T07:45:46Z</time></trkpt><trkpt lat="44.61281065693002" lon="10.544748101124537"><ele>213.99999999999997</ele><time>2026-04-12T07:45:47Z</time></trkpt><trkpt lat="44.61280701829768" lon="10.544626339424886"><ele>214.0</ele><time>2026-04-12T07:45:48Z</time></trkpt><trkpt lat="44.61279579191923" lon="10.54452294404925"><ele>214.0</ele><time>2026-04-12T07:45:49Z</time></trkpt><trkpt lat="44.612776034538946" lon="10.544420103447415"><ele>214.0</ele><time>2026-04-12T07:45:50Z</time></trkpt><trkpt lat="44.612744057168364" lon="10.544289703724699"><ele>213.99999999999997</ele><time>2026-04-12T07:45:51Z</time></trkpt><trkpt lat="44.61271138433709" lon="10.544143613771494"><ele>214.0</ele><time>2026-04-12T07:45:52Z</time></trkpt><trkpt lat="44.61268448305568" lon="10.543982853466202"><ele>215.6</ele><time>2026-04-12T07:45:53Z</time></trkpt><trkpt lat="44.61266058264478" lon="10.543861882873092"><ele>217.2</ele><time>2026-04-12T07:45:54Z</time></trkpt><trkpt lat="44.61262658025945" lon="10.543768206877369"><ele>218.79999999999998</ele><time>2026-04-12T07:45:55Z</time></trkpt><trkpt lat="44.61258565134567" lon="10.543661381834735"><ele>220.39999999999998</ele><time>2026-04-12T07:45:56Z</time></trkpt><trkpt lat="44.61258371723937" lon="10.543504288144984"><ele>222.0</ele><time>2026-04-12T07:45:57Z</time></trkpt><trkpt lat="44.61256516981711" lon="10.543364146612193"><ele>222.2</ele><time>2026-04-12T07:45:58Z</time></trkpt><trkpt lat="44.61255588932054" lon="10.543205566885804"><ele>222.39999999999998</ele><time>2026-04-12T07:45:59Z</time></trkpt><trkpt lat="44.61254917111389" lon="10.543046303050216"><ele>222.60000000000002</ele><time>2026-04-12T07:46:00Z</time></trkpt><trkpt lat="44.61252357360836" lon="10.54290327765444"><ele>222.8</ele><time>2026-04-12T07:46:01Z</time></trkpt><trkpt lat="44.61251751828767" lon="10.542791411754424"><ele>223.0</ele><time>2026-04-12T07:46:02Z</time></trkpt><trkpt lat="44.61248417294155" lon="10.542710194164851"><ele>223.0</ele><time>2026-04-12T07:46:03Z</time></trkpt><trkpt lat="44.61239439466893" lon="10.542676404499442"><ele>223.0</ele><time>2026-04-12T07:46:04Z</time></trkpt><trkpt lat="44.6122914628229" lon="10.542681029307227"><ele>223.0</ele><time>2026-04-12T07:46:05Z</time></trkpt><trkpt lat="44.612191066806936" lon="10.542727168951762"><ele>223.0</ele><time>2026-04-12T07:46:06Z</time></trkpt><trkpt lat="44.61208747394762" lon="10.54276267483305"><ele>223.0</ele><time>2026-04-12T07:46:07Z</time></trkpt><trkpt lat="44.61198916589952" lon="10.542787628069581"><ele>223.2</ele><time>2026-04-12T07:46:08Z</time></trkpt><trkpt lat="44.61188268060109" lon="10.542795703499163"><ele>223.4</ele><time>2026-04-12T07:46:09Z</time></trkpt><trkpt lat="44.61181470736285" lon="10.54275370826722"><ele>223.59999999999997</ele><time>2026-04-12T07:46:10Z</time></trkpt><trkpt lat="44.61173755561618" lon="10.542687203852859"><ele>223.79999999999998</ele><time>2026-04-12T07:46:11Z</time></trkpt><trkpt lat="44.611634205454024" lon="10.542613097783365"><ele>224.0</ele><time>2026-04-12T07:46:12Z</time></trkpt><trkpt lat="44.61153872804141" lon="10.542474638635342"><ele>224.0</ele><time>2026-04-12T07:46:13Z</time></trkpt><trkpt lat="44.61143972067139" lon="10.542323321375457"><ele>224.0</ele><time>2026-04-12T07:46:14Z</time></trkpt><trkpt lat="44.61135554004057" lon="10.542168271144345"><ele>224.0</ele><time>2026-04-12T07:46:15Z</time></trkpt><trkpt lat="44.611284704142456" lon="10.542003476455754"><ele>224.0</ele><time>2026-04-12T07:46:16Z</time></trkpt><trkpt lat="44.61121977360283" lon="10.5418448362124"><ele>222.75</ele><time>2026-04-12T07:46:17Z</time></trkpt><trkpt lat="44.61116785930577" lon="10.541672758989447"><ele>221.5</ele><time>2026-04-12T07:46:18Z</time></trkpt><trkpt lat="44.61112702712423" lon="10.541483906463034"><ele>220.25</ele><time>2026-04-12T07:46:19Z</time></trkpt><trkpt lat="44.61109242027995" lon="10.541266172530088"><ele>219.0</ele><time>2026-04-12T07:46:20Z</time></trkpt><trkpt lat="44.61105700455418" lon="10.540990657988367"><ele>219.0</ele><time>2026-04-12T07:46:21Z</time></trkpt><trkpt lat="44.611015641561785" lon="10.540717565555733"><ele>219.0</ele><time>2026-04-12T07:46:22Z</time></trkpt><trkpt lat="44.61097308100503" lon="10.540476754105224"><ele>219.0</ele><time>2026-04-12T07:46:23Z</time></trkpt><trkpt lat="44.61092620504949" lon="10.54027314908733"><ele>219.33333333333331</ele><time>2026-04-12T07:46:24Z</time></trkpt><trkpt lat="44.61086271386652" lon="10.540037745305538"><ele>219.66666666666666</ele><time>2026-04-12T07:46:25Z</time></trkpt><trkpt lat="44.610793352881366" lon="10.539803686363808"><ele>220.0</ele><time>2026-04-12T07:46:26Z</time></trkpt><trkpt lat="44.610736402936766" lon="10.539637757898708"><ele>219.49999999999997</ele><time>2026-04-12T07:46:27Z</time></trkpt><trkpt lat="44.61069131119729" lon="10.53950917966894"><ele>219.0</ele><time>2026-04-12T07:46:28Z</time></trkpt><trkpt lat="44.610650674559096" lon="10.539399730349892"><ele>218.5</ele><time>2026-04-12T07:46:29Z</time></trkpt><trkpt lat="44.610616005390476" lon="10.539293484961657"><ele>218.0</ele><time>2026-04-12T07:46:30Z</time></trkpt><trkpt lat="44.61058395496172" lon="10.539193025722492"><ele>217.49999999999997</ele><time>2026-04-12T07:46:31Z</time></trkpt><trkpt lat="44.61054797821647" lon="10.539096083006877"><ele>217.0</ele><time>2026-04-12T07:46:32Z</time></trkpt><trkpt lat="44.61051185590664" lon="10.539007619649974"><ele>216.99999999999997</ele><time>2026-04-12T07:46:33Z</time></trkpt><trkpt lat="44.61047097490254" lon="10.538930106098201"><ele>217.0</ele><time>2026-04-12T07:46:34Z</time></trkpt><trkpt lat="44.61042476681929" lon="10.53884353586715"><ele>217.0</ele><time>2026-04-12T07:46:35Z</time></trkpt><trkpt lat="44.61037718840542" lon="10.538744481907479"><ele>217.0</ele><time>2026-04-12T07:46:36Z</time></trkpt><trkpt lat="44.6103375108844" lon="10.538639269826422"><ele>216.99999999999997</ele><time>2026-04-12T07:46:37Z</time></trkpt><trkpt lat="44.610291835804475" lon="10.538503608441953"><ele>217.0</ele><time>2026-04-12T07:46:38Z</time></trkpt><trkpt lat="44.610247864437206" lon="10.538334136634742"><ele>217.25</ele><time>2026-04-12T07:46:39Z</time></trkpt><trkpt lat="44.61022212120427" lon="10.538153726889862"><ele>217.5</ele><time>2026-04-12T07:46:40Z</time></trkpt><trkpt lat="44.61021201747964" lon="10.537981258750873"><ele>217.75</ele><time>2026-04-12T07:46:41Z</time></trkpt><trkpt lat="44.6102191815002" lon="10.53781668929099"><ele>218.0</ele><time>2026-04-12T07:46:42Z</time></trkpt><trkpt lat="44.61026966766429" lon="10.537665205907771"><ele>219.60000000000002</ele><time>2026-04-12T07:46:43Z</time></trkpt><trkpt lat="44.61032692660038" lon="10.537523644901322"><ele>221.20000000000002</ele><time>2026-04-12T07:46:44Z</time></trkpt><trkpt lat="44.61036044410342" lon="10.537372566345402"><ele>222.8</ele><time>2026-04-12T07:46:45Z</time></trkpt><trkpt lat="44.61036588432141" lon="10.537234680410048"><ele>224.4</ele><time>2026-04-12T07:46:46Z</time></trkpt><trkpt lat="44.610367641452804" lon="10.537115587346628"><ele>226.0</ele><time>2026-04-12T07:46:47Z</time></trkpt><trkpt lat="44.610366789218226" lon="10.537014163019965"><ele>227.16666666666666</ele><time>2026-04-12T07:46:48Z</time></trkpt><trkpt lat="44.61038507266194" lon="10.536910439469137"><ele>228.33333333333331</ele><time>2026-04-12T07:46:49Z</time></trkpt><trkpt lat="44.61039007145496" lon="10.53679289457898"><ele>229.5</ele><time>2026-04-12T07:46:50Z</time></trkpt><trkpt lat="44.610394120355394" lon="10.53669768605595"><ele>230.66666666666669</ele><time>2026-04-12T07:46:51Z</time></trkpt><trkpt lat="44.61040079812561" lon="10.536540660603992"><ele>231.83333333333334</ele><time>2026-04-12T07:46:53Z</time></trkpt><trkpt lat="44.610404914892925" lon="10.536443856238916"><ele>233.0</ele><time>2026-04-12T07:46:54Z</time></trkpt><trkpt lat="44.610409280692146" lon="10.536345019798587"><ele>233.00000000000003</ele><time>2026-04-12T07:46:55Z</time></trkpt><trkpt lat="44.61041461169637" lon="10.536238750382635"><ele>233.0</ele><time>2026-04-12T07:46:56Z</time></trkpt><trkpt lat="44.610422361619754" lon="10.53612428593005"><ele>233.0</ele><time>2026-04-12T07:46:57Z</time></trkpt><trkpt lat="44.610433796296356" lon="10.535998917595338"><ele>233.0</ele><time>2026-04-12T07:46:58Z</time></trkpt><trkpt lat="44.610450036807315" lon="10.535880349799227"><ele>233.00000000000003</ele><time>2026-04-12T07:46:59Z</time></trkpt><trkpt lat="44.6104764394201" lon="10.535765046147883"><ele>233.0</ele><time>2026-04-12T07:47:00Z</time></trkpt><trkpt lat="44.61051374117034" lon="10.535646232600362"><ele>235.2</ele><time>2026-04-12T07:47:01Z</time></trkpt><trkpt lat="44.61056088811112" lon="10.53552051010682"><ele>237.4</ele><time>2026-04-12T07:47:02Z</time></trkpt><trkpt lat="44.61061966426241" lon="10.535382099509176"><ele>239.59999999999997</ele><time>2026-04-12T07:47:03Z</time></trkpt><trkpt lat="44.610666573151214" lon="10.535234967414917"><ele>241.79999999999998</ele><time>2026-04-12T07:47:04Z</time></trkpt><trkpt lat="44.61068063932719" lon="10.535088017627167"><ele>244.0</ele><time>2026-04-12T07:47:05Z</time></trkpt><trkpt lat="44.61071297564046" lon="10.534951823542636"><ele>247.0</ele><time>2026-04-12T07:47:06Z</time></trkpt><trkpt lat="44.61073431588086" lon="10.534804656782734"><ele>250.0</ele><time>2026-04-12T07:47:07Z</time></trkpt><trkpt lat="44.610751715688494" lon="10.534651289784334"><ele>253.0</ele><time>2026-04-12T07:47:08Z</time></trkpt><trkpt lat="44.610767642093904" lon="10.534468593309832"><ele>256.0</ele><time>2026-04-12T07:47:09Z</time></trkpt><trkpt lat="44.610773105023576" lon="10.534301674057996"><ele>257.5</ele><time>2026-04-12T07:47:10Z</time></trkpt><trkpt lat="44.61076190472564" lon="10.53417615754833"><ele>259.0</ele><time>2026-04-12T07:47:11Z</time></trkpt><trkpt lat="44.610778303846786" lon="10.534065000748528"><ele>260.5</ele><time>2026-04-12T07:47:12Z</time></trkpt><trkpt lat="44.610782142187055" lon="10.53395697284537"><ele>262.0</ele><time>2026-04-12T07:47:13Z</time></trkpt><trkpt lat="44.610786348578735" lon="10.533849466208656"><ele>263.5</ele><time>2026-04-12T07:47:14Z</time></trkpt><trkpt lat="44.610746476444675" lon="10.533744027715391"><ele>265.0</ele><time>2026-04-12T07:47:15Z</time></trkpt><trkpt lat="44.610762616008174" lon="10.53362933620207"><ele>265.6</ele><time>2026-04-12T07:47:16Z</time></trkpt><trkpt lat="44.610781336826115" lon="10.533518071144337"><ele>266.2</ele><time>2026-04-12T07:47:17Z</time></trkpt><trkpt lat="44.61083588424674" lon="10.533374627114592"><ele>266.8</ele><time>2026-04-12T07:47:19Z</time></trkpt><trkpt lat="44.61089463585195" lon="10.533227663087635"><ele>267.4</ele><time>2026-04-12T07:47:21Z</time></trkpt><trkpt lat="44.610929313868354" lon="10.533070459498441"><ele>268.0</ele><time>2026-04-12T07:47:23Z</time></trkpt><trkpt lat="44.61094716483321" lon="10.532957636565717"><ele>267.4</ele><time>2026-04-12T07:47:24Z</time></trkpt><trkpt lat="44.61097912509452" lon="10.532839156501872"><ele>266.8</ele><time>2026-04-12T07:47:25Z</time></trkpt><trkpt lat="44.61100707556101" lon="10.53271388337898"><ele>266.2</ele><time>2026-04-12T07:47:26Z</time></trkpt><trkpt lat="44.6110303135187" lon="10.532600329584957"><ele>265.6</ele><time>2026-04-12T07:47:27Z</time></trkpt><trkpt lat="44.611061799878534" lon="10.532478622397425"><ele>265.0</ele><time>2026-04-12T07:47:28Z</time></trkpt><trkpt lat="44.611088606382864" lon="10.532348577815545"><ele>265.0</ele><time>2026-04-12T07:47:29Z</time></trkpt><trkpt lat="44.611114976743636" lon="10.532211620138938"><ele>265.0</ele><time>2026-04-12T07:47:30Z</time></trkpt><trkpt lat="44.611145359758105" lon="10.532080626013853"><ele>265.0</ele><time>2026-04-12T07:47:31Z</time></trkpt><trkpt lat="44.611175249676684" lon="10.531954313761842"><ele>265.0</ele><time>2026-04-12T07:47:32Z</time></trkpt><trkpt lat="44.6112060429548" lon="10.531833428575021"><ele>265.0</ele><time>2026-04-12T07:47:33Z</time></trkpt><trkpt lat="44.61125823089331" lon="10.53170309769175"><ele>264.8</ele><time>2026-04-12T07:47:34Z</time></trkpt><trkpt lat="44.611316836657124" lon="10.531600556775494"><ele>264.6</ele><time>2026-04-12T07:47:35Z</time></trkpt><trkpt lat="44.61138525409388" lon="10.531503776624312"><ele>264.4</ele><time>2026-04-12T07:47:36Z</time></trkpt><trkpt lat="44.61145831087527" lon="10.531424509249499"><ele>264.2</ele><time>2026-04-12T07:47:37Z</time></trkpt><trkpt lat="44.611604170635935" lon="10.531349554277886"><ele>264.0</ele><time>2026-04-12T07:47:38Z</time></trkpt><trkpt lat="44.611736363776224" lon="10.53129718790959"><ele>264.0</ele><time>2026-04-12T07:47:39Z</time></trkpt><trkpt lat="44.6118551989455" lon="10.531251698487866"><ele>264.0</ele><time>2026-04-12T07:47:40Z</time></trkpt><trkpt lat="44.611954519547645" lon="10.531199262357026"><ele>264.0</ele><time>2026-04-12T07:47:41Z</time></trkpt><trkpt lat="44.612038550897125" lon="10.531149440085263"><ele>264.0</ele><time>2026-04-12T07:47:42Z</time></trkpt><trkpt lat="44.61210361423373" lon="10.531062615837708"><ele>264.0</ele><time>2026-04-12T07:47:43Z</time></trkpt><trkpt lat="44.61216627486508" lon="10.530961844280048"><ele>264.4</ele><time>2026-04-12T07:47:44Z</time></trkpt><trkpt lat="44.61222354660266" lon="10.530850817716308"><ele>264.79999999999995</ele><time>2026-04-12T07:47:45Z</time></trkpt><trkpt lat="44.612284350078" lon="10.530733619413347"><ele>265.20000000000005</ele><time>2026-04-12T07:47:46Z</time></trkpt><trkpt lat="44.61235243432482" lon="10.530616784634045"><ele>265.6</ele><time>2026-04-12T07:47:47Z</time></trkpt><trkpt lat="44.612425490708176" lon="10.530491587472254"><ele>266.0</ele><time>2026-04-12T07:47:48Z</time></trkpt><trkpt lat="44.61249829361005" lon="10.530358063452423"><ele>266.0</ele><time>2026-04-12T07:47:49Z</time></trkpt><trkpt lat="44.612564320022294" lon="10.530242088350219"><ele>266.0</ele><time>2026-04-12T07:47:50Z</time></trkpt><trkpt lat="44.612628089939854" lon="10.530148498603069"><ele>266.0</ele><time>2026-04-12T07:47:51Z</time></trkpt><trkpt lat="44.61269482859768" lon="10.530089541738082"><ele>266.0</ele><time>2026-04-12T07:47:53Z</time></trkpt><trkpt lat="44.61269863356929" lon="10.529908854384018"><ele>266.0</ele><time>2026-04-12T07:47:55Z</time></trkpt><trkpt lat="44.61270138076421" lon="10.5297183340736"><ele>265.6666666666667</ele><time>2026-04-12T07:47:56Z</time></trkpt><trkpt lat="44.61266446524404" lon="10.529500101303267"><ele>265.3333333333333</ele><time>2026-04-12T07:47:57Z</time></trkpt><trkpt lat="44.61262011670341" lon="10.529294299050004"><ele>265.0</ele><time>2026-04-12T07:47:58Z</time></trkpt><trkpt lat="44.61261583696384" lon="10.52907030427216"><ele>265.0</ele><time>2026-04-12T07:47:59Z</time></trkpt><trkpt lat="44.6125788161008" lon="10.528867286780764"><ele>265.0</ele><time>2026-04-12T07:48:00Z</time></trkpt><trkpt lat="44.612558539565995" lon="10.528663436234865"><ele>265.0</ele><time>2026-04-12T07:48:01Z</time></trkpt><trkpt lat="44.612526360313915" lon="10.528491239149975"><ele>265.0</ele><time>2026-04-12T07:48:02Z</time></trkpt><trkpt lat="44.612483662399214" lon="10.528325503105046"><ele>264.8</ele><time>2026-04-12T07:48:03Z</time></trkpt><trkpt lat="44.61244919461099" lon="10.52821202307589"><ele>264.6</ele><time>2026-04-12T07:48:04Z</time></trkpt><trkpt lat="44.612485549759334" lon="10.52811009451039"><ele>264.4</ele><time>2026-04-12T07:48:05Z</time></trkpt><trkpt lat="44.61246483014722" lon="10.527958179048007"><ele>264.2</ele><time>2026-04-12T07:48:07Z</time></trkpt><trkpt lat="44.612409680630606" lon="10.52789835459262"><ele>264.0</ele><time>2026-04-12T07:48:08Z</time></trkpt><trkpt lat="44.61232165366009" lon="10.527800874572243"><ele>263.8</ele><time>2026-04-12T07:48:09Z</time></trkpt><trkpt lat="44.61227712179549" lon="10.527662444839258"><ele>263.59999999999997</ele><time>2026-04-12T07:48:10Z</time></trkpt><trkpt lat="44.61222175384343" lon="10.52753285278569"><ele>263.4</ele><time>2026-04-12T07:48:11Z</time></trkpt><trkpt lat="44.61215188261274" lon="10.527416415852015"><ele>263.2</ele><time>2026-04-12T07:48:12Z</time></trkpt><trkpt lat="44.61206327334007" lon="10.527315462643612"><ele>263.0</ele><time>2026-04-12T07:48:13Z</time></trkpt><trkpt lat="44.611924943989" lon="10.527243242059653"><ele>264.0</ele><time>2026-04-12T07:48:14Z</time></trkpt><trkpt lat="44.61178523110627" lon="10.527139191122146"><ele>265.0</ele><time>2026-04-12T07:48:15Z</time></trkpt><trkpt lat="44.61166262782118" lon="10.52705747384742"><ele>266.0</ele><time>2026-04-12T07:48:16Z</time></trkpt><trkpt lat="44.61155962352845" lon="10.526970608185533"><ele>267.0</ele><time>2026-04-12T07:48:17Z</time></trkpt><trkpt lat="44.61144281380625" lon="10.526886691295925"><ele>267.0</ele><time>2026-04-12T07:48:18Z</time></trkpt><trkpt lat="44.611321619991095" lon="10.526801155985805"><ele>267.0</ele><time>2026-04-12T07:48:19Z</time></trkpt><trkpt lat="44.61121102430538" lon="10.526725649397111"><ele>267.0</ele><time>2026-04-12T07:48:20Z</time></trkpt><trkpt lat="44.61110097911714" lon="10.526651645243811"><ele>267.0</ele><time>2026-04-12T07:48:21Z</time></trkpt><trkpt lat="44.61099395210327" lon="10.526570213072683"><ele>267.0</ele><time>2026-04-12T07:48:22Z</time></trkpt><trkpt lat="44.61091506472387" lon="10.526481479178317"><ele>267.0</ele><time>2026-04-12T07:48:23Z</time></trkpt><trkpt lat="44.61082469910165" lon="10.526405413585607"><ele>267.0</ele><time>2026-04-12T07:48:24Z</time></trkpt><trkpt lat="44.610783393429585" lon="10.526267657927503"><ele>267.0</ele><time>2026-04-12T07:48:25Z</time></trkpt><trkpt lat="44.61074990320502" lon="10.526112782562134"><ele>267.0</ele><time>2026-04-12T07:48:26Z</time></trkpt><trkpt lat="44.61069300125198" lon="10.525941944711901"><ele>265.75</ele><time>2026-04-12T07:48:27Z</time></trkpt><trkpt lat="44.610630675692335" lon="10.525768859190471"><ele>264.5</ele><time>2026-04-12T07:48:28Z</time></trkpt><trkpt lat="44.61057903563392" lon="10.525581590690521"><ele>263.25</ele><time>2026-04-12T07:48:29Z</time></trkpt><trkpt lat="44.61053543239505" lon="10.525358319095306"><ele>262.0</ele><time>2026-04-12T07:48:30Z</time></trkpt><trkpt lat="44.61047676463419" lon="10.525109734525277"><ele>260.0</ele><time>2026-04-12T07:48:31Z</time></trkpt><trkpt lat="44.61042234640709" lon="10.52487860437523"><ele>258.0</ele><time>2026-04-12T07:48:32Z</time></trkpt><trkpt lat="44.610386332872906" lon="10.524682445750669"><ele>256.0</ele><time>2026-04-12T07:48:33Z</time></trkpt><trkpt lat="44.610345423969484" lon="10.524502771381197"><ele>255.5</ele><time>2026-04-12T07:48:34Z</time></trkpt><trkpt lat="44.610283439822076" lon="10.524338641728047"><ele>255.0</ele><time>2026-04-12T07:48:35Z</time></trkpt><trkpt lat="44.61021641422259" lon="10.524179790054314"><ele>254.5</ele><time>2026-04-12T07:48:36Z</time></trkpt><trkpt lat="44.61014964130695" lon="10.524022203045579"><ele>254.0</ele><time>2026-04-12T07:48:37Z</time></trkpt><trkpt lat="44.610091680387335" lon="10.523864205322669"><ele>254.39999999999998</ele><time>2026-04-12T07:48:38Z</time></trkpt><trkpt lat="44.61004901012469" lon="10.5237147644396"><ele>254.79999999999998</ele><time>2026-04-12T07:48:39Z</time></trkpt><trkpt lat="44.61000476077415" lon="10.523578232977103"><ele>255.20000000000002</ele><time>2026-04-12T07:48:40Z</time></trkpt><trkpt lat="44.609959568461086" lon="10.523452641341455"><ele>255.60000000000002</ele><time>2026-04-12T07:48:41Z</time></trkpt><trkpt lat="44.60991931690988" lon="10.523335831596281"><ele>256.0</ele><time>2026-04-12T07:48:42Z</time></trkpt><trkpt lat="44.60988519243504" lon="10.52321630564238"><ele>255.99999999999997</ele><time>2026-04-12T07:48:43Z</time></trkpt><trkpt lat="44.60985604418444" lon="10.523095586937472"><ele>256.0</ele><time>2026-04-12T07:48:44Z</time></trkpt><trkpt lat="44.609833652608664" lon="10.522979427475356"><ele>256.0</ele><time>2026-04-12T07:48:45Z</time></trkpt><trkpt lat="44.60981443226833" lon="10.522867111221496"><ele>256.0</ele><time>2026-04-12T07:48:46Z</time></trkpt><trkpt lat="44.60979306683315" lon="10.522773949896663"><ele>255.99999999999997</ele><time>2026-04-12T07:48:47Z</time></trkpt><trkpt lat="44.60977284277747" lon="10.522685084372261"><ele>256.0</ele><time>2026-04-12T07:48:48Z</time></trkpt><trkpt lat="44.60974931836948" lon="10.522590083645056"><ele>255.85714285714283</ele><time>2026-04-12T07:48:49Z</time></trkpt><trkpt lat="44.60972866083826" lon="10.52248795694143"><ele>255.7142857142857</ele><time>2026-04-12T07:48:50Z</time></trkpt><trkpt lat="44.60970740636299" lon="10.522390756654662"><ele>255.57142857142856</ele><time>2026-04-12T07:48:51Z</time></trkpt><trkpt lat="44.60968279654886" lon="10.522300850074448"><ele>255.42857142857144</ele><time>2026-04-12T07:48:52Z</time></trkpt><trkpt lat="44.60964872826095" lon="10.522215869176273"><ele>255.2857142857143</ele><time>2026-04-12T07:48:53Z</time></trkpt><trkpt lat="44.60960757859284" lon="10.522135138088263"><ele>255.14285714285717</ele><time>2026-04-12T07:48:54Z</time></trkpt><trkpt lat="44.60956257779947" lon="10.52205319006729"><ele>255.0</ele><time>2026-04-12T07:48:55Z</time></trkpt><trkpt lat="44.60951358360584" lon="10.521936208138563"><ele>253.2</ele><time>2026-04-12T07:48:56Z</time></trkpt><trkpt lat="44.60946043259366" lon="10.521792116820853"><ele>251.4</ele><time>2026-04-12T07:48:57Z</time></trkpt><trkpt lat="44.60941458911318" lon="10.521660793446369"><ele>249.60000000000002</ele><time>2026-04-12T07:48:58Z</time></trkpt><trkpt lat="44.609370356196386" lon="10.521543826372948"><ele>247.8</ele><time>2026-04-12T07:48:59Z</time></trkpt><trkpt lat="44.60931297805153" lon="10.521421936186663"><ele>246.0</ele><time>2026-04-12T07:49:00Z</time></trkpt><trkpt lat="44.609256110903" lon="10.521286944557097"><ele>247.25</ele><time>2026-04-12T07:49:01Z</time></trkpt><trkpt lat="44.60921191713053" lon="10.521129541434327"><ele>248.5</ele><time>2026-04-12T07:49:02Z</time></trkpt><trkpt lat="44.60917931518599" lon="10.520930349248308"><ele>249.75</ele><time>2026-04-12T07:49:03Z</time></trkpt><trkpt lat="44.60915704683329" lon="10.520706080221727"><ele>251.0</ele><time>2026-04-12T07:49:04Z</time></trkpt><trkpt lat="44.60909933983541" lon="10.5204978033008"><ele>252.75</ele><time>2026-04-12T07:49:05Z</time></trkpt><trkpt lat="44.60904548060057" lon="10.520296355311975"><ele>254.5</ele><time>2026-04-12T07:49:06Z</time></trkpt><trkpt lat="44.608995955137914" lon="10.52010537672743"><ele>256.25</ele><time>2026-04-12T07:49:07Z</time></trkpt><trkpt lat="44.60893767002629" lon="10.519944315293872"><ele>258.0</ele><time>2026-04-12T07:49:08Z</time></trkpt><trkpt lat="44.60887366858581" lon="10.519801988700243"><ele>258.0</ele><time>2026-04-12T07:49:09Z</time></trkpt><trkpt lat="44.6088101838583" lon="10.519688095430523"><ele>258.0</ele><time>2026-04-12T07:49:10Z</time></trkpt><trkpt lat="44.608753498109124" lon="10.519603903234556"><ele>258.0</ele><time>2026-04-12T07:49:11Z</time></trkpt><trkpt lat="44.608711687901646" lon="10.519530072292325"><ele>258.0</ele><time>2026-04-12T07:49:12Z</time></trkpt><trkpt lat="44.608696850186966" lon="10.519391968553233"><ele>258.0</ele><time>2026-04-12T07:49:14Z</time></trkpt><trkpt lat="44.608716678885344" lon="10.51930150747077"><ele>258.0</ele><time>2026-04-12T07:49:15Z</time></trkpt><trkpt lat="44.608731182190255" lon="10.51919948296314"><ele>258.3333333333333</ele><time>2026-04-12T07:49:16Z</time></trkpt><trkpt lat="44.60873306422443" lon="10.51908997996223"><ele>258.6666666666667</ele><time>2026-04-12T07:49:17Z</time></trkpt><trkpt lat="44.60872435725295" lon="10.518973547773518"><ele>259.0</ele><time>2026-04-12T07:49:18Z</time></trkpt><trkpt lat="44.608708613156544" lon="10.518861399072524"><ele>259.33333333333337</ele><time>2026-04-12T07:49:19Z</time></trkpt><trkpt lat="44.60870215045809" lon="10.518762134576392"><ele>259.6666666666667</ele><time>2026-04-12T07:49:20Z</time></trkpt><trkpt lat="44.60868196033214" lon="10.518648924347014"><ele>260.0</ele><time>2026-04-12T07:49:21Z</time></trkpt><trkpt lat="44.60866664942147" lon="10.518551056520069"><ele>261.42857142857144</ele><time>2026-04-12T07:49:22Z</time></trkpt><trkpt lat="44.608649009045024" lon="10.518452200824765"><ele>262.8571428571429</ele><time>2026-04-12T07:49:23Z</time></trkpt><trkpt lat="44.608629902406186" lon="10.518367261528228"><ele>264.2857142857143</ele><time>2026-04-12T07:49:24Z</time></trkpt><trkpt lat="44.60860703724294" lon="10.518281190790358"><ele>265.7142857142857</ele><time>2026-04-12T07:49:25Z</time></trkpt><trkpt lat="44.60857496587953" lon="10.518198557119943"><ele>267.1428571428571</ele><time>2026-04-12T07:49:26Z</time></trkpt><trkpt lat="44.608536230762894" lon="10.518106387149317"><ele>268.57142857142856</ele><time>2026-04-12T07:49:27Z</time></trkpt><trkpt lat="44.60849378114894" lon="10.518008777982207"><ele>270.0</ele><time>2026-04-12T07:49:28Z</time></trkpt><trkpt lat="44.6084389875288" lon="10.51788794867614"><ele>272.8</ele><time>2026-04-12T07:49:29Z</time></trkpt><trkpt lat="44.6083783021701" lon="10.517757228531154"><ele>275.6</ele><time>2026-04-12T07:49:30Z</time></trkpt><trkpt lat="44.60832187184605" lon="10.517622005460877"><ele>278.4</ele><time>2026-04-12T07:49:31Z</time></trkpt><trkpt lat="44.608273916587144" lon="10.517504350969329"><ele>281.2</ele><time>2026-04-12T07:49:32Z</time></trkpt><trkpt lat="44.60823054014327" lon="10.517390060018986"><ele>284.0</ele><time>2026-04-12T07:49:33Z</time></trkpt><trkpt lat="44.60818612927456" lon="10.5172640583088"><ele>284.0</ele><time>2026-04-12T07:49:34Z</time></trkpt><trkpt lat="44.60816139543552" lon="10.517154514072706"><ele>284.0</ele><time>2026-04-12T07:49:35Z</time></trkpt><trkpt lat="44.60817854634825" lon="10.517067758771347"><ele>284.0</ele><time>2026-04-12T07:49:36Z</time></trkpt><trkpt lat="44.60823781997497" lon="10.516994393824515"><ele>284.0</ele><time>2026-04-12T07:49:37Z</time></trkpt><trkpt lat="44.60831972624736" lon="10.516923501159116"><ele>284.0</ele><time>2026-04-12T07:49:38Z</time></trkpt><trkpt lat="44.60841115247465" lon="10.516885581744699"><ele>284.0</ele><time>2026-04-12T07:49:39Z</time></trkpt><trkpt lat="44.608497480468536" lon="10.516842294308715"><ele>285.0</ele><time>2026-04-12T07:49:40Z</time></trkpt><trkpt lat="44.60857259267332" lon="10.516768224859865"><ele>286.0</ele><time>2026-04-12T07:49:41Z</time></trkpt><trkpt lat="44.608637439561946" lon="10.51667107838906"><ele>287.0</ele><time>2026-04-12T07:49:42Z</time></trkpt><trkpt lat="44.608695210056226" lon="10.51653893506782"><ele>288.0</ele><time>2026-04-12T07:49:43Z</time></trkpt><trkpt lat="44.60875022986958" lon="10.516380345657295"><ele>289.0</ele><time>2026-04-12T07:49:44Z</time></trkpt><trkpt lat="44.60881307929316" lon="10.516177374716765"><ele>291.75</ele><time>2026-04-12T07:49:45Z</time></trkpt><trkpt lat="44.60888015254157" lon="10.51595454612407"><ele>294.5</ele><time>2026-04-12T07:49:46Z</time></trkpt><trkpt lat="44.60894368197528" lon="10.515795684886829"><ele>297.25</ele><time>2026-04-12T07:49:47Z</time></trkpt><trkpt lat="44.60899275809764" lon="10.515677306963774"><ele>300.0</ele><time>2026-04-12T07:49:48Z</time></trkpt><trkpt lat="44.609015370536746" lon="10.515583679770891"><ele>300.0</ele><time>2026-04-12T07:49:49Z</time></trkpt><trkpt lat="44.60902866362702" lon="10.515445410030495"><ele>300.0</ele><time>2026-04-12T07:49:50Z</time></trkpt><trkpt lat="44.60905007080541" lon="10.515262678782468"><ele>300.0</ele><time>2026-04-12T07:49:51Z</time></trkpt><trkpt lat="44.609105063740394" lon="10.515050037179737"><ele>300.0</ele><time>2026-04-12T07:49:52Z</time></trkpt><trkpt lat="44.60917203823214" lon="10.514802348778124"><ele>302.0</ele><time>2026-04-12T07:49:53Z</time></trkpt><trkpt lat="44.60923522602967" lon="10.51457532909132"><ele>304.0</ele><time>2026-04-12T07:49:54Z</time></trkpt><trkpt lat="44.60927696384811" lon="10.514420013245461"><ele>306.0</ele><time>2026-04-12T07:49:55Z</time></trkpt><trkpt lat="44.609299222532655" lon="10.51430548359615"><ele>308.0</ele><time>2026-04-12T07:49:56Z</time></trkpt><trkpt lat="44.60928530075482" lon="10.514197662808083"><ele>308.7142857142857</ele><time>2026-04-12T07:49:57Z</time></trkpt><trkpt lat="44.609264899474724" lon="10.514085625901524"><ele>309.42857142857144</ele><time>2026-04-12T07:49:58Z</time></trkpt><trkpt lat="44.609251043966296" lon="10.513997540917735"><ele>310.1428571428571</ele><time>2026-04-12T07:50:00Z</time></trkpt><trkpt lat="44.60924329854767" lon="10.513906880974083"><ele>310.8571428571429</ele><time>2026-04-12T07:50:22Z</time></trkpt><trkpt lat="44.60922508428234" lon="10.51381042823968"><ele>311.57142857142856</ele><time>2026-04-12T07:50:23Z</time></trkpt><trkpt lat="44.609211837088985" lon="10.513722840302908"><ele>312.2857142857143</ele><time>2026-04-12T07:50:24Z</time></trkpt><trkpt lat="44.60919768640197" lon="10.51360510178972"><ele>313.0</ele><time>2026-04-12T07:50:25Z</time></trkpt><trkpt lat="44.60915568456875" lon="10.513477256436957"><ele>313.0</ele><time>2026-04-12T07:50:26Z</time></trkpt><trkpt lat="44.60911075558768" lon="10.513365588633144"><ele>313.0</ele><time>2026-04-12T07:50:27Z</time></trkpt><trkpt lat="44.609067072988985" lon="10.513272244613153"><ele>313.0</ele><time>2026-04-12T07:50:28Z</time></trkpt><trkpt lat="44.609020861372066" lon="10.51315680843055"><ele>313.0</ele><time>2026-04-12T07:50:29Z</time></trkpt><trkpt lat="44.60898668985368" lon="10.513019415983702"><ele>313.0</ele><time>2026-04-12T07:50:30Z</time></trkpt><trkpt lat="44.60895617466613" lon="10.51290888091281"><ele>311.66666666666663</ele><time>2026-04-12T07:50:31Z</time></trkpt><trkpt lat="44.60892321271095" lon="10.512814395390095"><ele>310.3333333333333</ele><time>2026-04-12T07:50:32Z</time></trkpt><trkpt lat="44.60888823458358" lon="10.512728276327111"><ele>309.0</ele><time>2026-04-12T07:50:33Z</time></trkpt><trkpt lat="44.60885977313311" lon="10.512645063943943"><ele>307.6666666666667</ele><time>2026-04-12T07:50:34Z</time></trkpt><trkpt lat="44.6088073538872" lon="10.512552397915126"><ele>306.33333333333337</ele><time>2026-04-12T07:50:35Z</time></trkpt><trkpt lat="44.6087388691151" lon="10.512464062825726"><ele>305.0</ele><time>2026-04-12T07:50:36Z</time></trkpt><trkpt lat="44.608702595537956" lon="10.51238452882009"><ele>305.0</ele><time>2026-04-12T07:50:37Z</time></trkpt><trkpt lat="44.6086753688661" lon="10.512250397599823"><ele>305.0</ele><time>2026-04-12T07:50:39Z</time></trkpt><trkpt lat="44.608638260149746" lon="10.512122132632292"><ele>305.0</ele><time>2026-04-12T07:50:43Z</time></trkpt><trkpt lat="44.60855585188116" lon="10.512017433855501"><ele>305.0</ele><time>2026-04-12T07:50:45Z</time></trkpt><trkpt lat="44.60850781821509" lon="10.511949033224269"><ele>305.0</ele><time>2026-04-12T07:50:46Z</time></trkpt><trkpt lat="44.60846532332791" lon="10.511863416344266"><ele>307.8</ele><time>2026-04-12T07:50:47Z</time></trkpt><trkpt lat="44.608404050724396" lon="10.511801579980782"><ele>310.6</ele><time>2026-04-12T07:50:48Z</time></trkpt><trkpt lat="44.60831180159542" lon="10.511706119798259"><ele>313.4</ele><time>2026-04-12T07:50:50Z</time></trkpt><trkpt lat="44.60824784125371" lon="10.511615275956808"><ele>316.2</ele><time>2026-04-12T07:50:52Z</time></trkpt><trkpt lat="44.60820100882605" lon="10.51155038327011"><ele>319.0</ele><time>2026-04-12T07:50:55Z</time></trkpt><trkpt lat="44.60812014441225" lon="10.511419751359025"><ele>319.0</ele><time>2026-04-12T07:50:56Z</time></trkpt><trkpt lat="44.60805208442888" lon="10.511329931618357"><ele>319.0</ele><time>2026-04-12T07:50:58Z</time></trkpt><trkpt lat="44.608002776801136" lon="10.511227925165667"><ele>319.0</ele><time>2026-04-12T07:51:00Z</time></trkpt><trkpt lat="44.60797793265976" lon="10.511115530961765"><ele>319.0</ele><time>2026-04-12T07:51:02Z</time></trkpt><trkpt lat="44.6079361931936" lon="10.510953875938837"><ele>319.0</ele><time>2026-04-12T07:51:04Z</time></trkpt><trkpt lat="44.60786720677389" lon="10.510836442291044"><ele>321.5</ele><time>2026-04-12T07:51:06Z</time></trkpt><trkpt lat="44.60777785818565" lon="10.510716852201517"><ele>324.0</ele><time>2026-04-12T07:51:08Z</time></trkpt><trkpt lat="44.607746876766036" lon="10.510610313091309"><ele>326.5</ele><time>2026-04-12T07:51:09Z</time></trkpt><trkpt lat="44.607709002514895" lon="10.510509494537057"><ele>329.0</ele><time>2026-04-12T07:51:10Z</time></trkpt><trkpt lat="44.60767123597067" lon="10.510415587479782"><ele>331.5</ele><time>2026-04-12T07:51:11Z</time></trkpt><trkpt lat="44.60764386367683" lon="10.510334498369431"><ele>334.0</ele><time>2026-04-12T07:51:12Z</time></trkpt><trkpt lat="44.60759898397607" lon="10.510194334326677"><ele>336.0</ele><time>2026-04-12T07:51:14Z</time></trkpt><trkpt lat="44.60757859177819" lon="10.510084325263922"><ele>338.0</ele><time>2026-04-12T07:51:15Z</time></trkpt><trkpt lat="44.60753731536402" lon="10.509945224081969"><ele>340.0</ele><time>2026-04-12T07:51:16Z</time></trkpt><trkpt lat="44.607493272556425" lon="10.509808307394275"><ele>342.0</ele><time>2026-04-12T07:51:17Z</time></trkpt><trkpt lat="44.60745294643871" lon="10.509645422856277"><ele>344.0</ele><time>2026-04-12T07:51:18Z</time></trkpt><trkpt lat="44.607399482157305" lon="10.509491788616806"><ele>344.4</ele><time>2026-04-12T07:51:19Z</time></trkpt><trkpt lat="44.60735401642032" lon="10.509326963520355"><ele>344.79999999999995</ele><time>2026-04-12T07:51:20Z</time></trkpt><trkpt lat="44.60730090932159" lon="10.509159852502416"><ele>345.20000000000005</ele><time>2026-04-12T07:51:21Z</time></trkpt><trkpt lat="44.60725420945123" lon="10.509037180514296"><ele>345.6</ele><time>2026-04-12T07:51:22Z</time></trkpt><trkpt lat="44.60723422924924" lon="10.508946134310298"><ele>346.0</ele><time>2026-04-12T07:51:23Z</time></trkpt><trkpt lat="44.607263191597816" lon="10.508768138218313"><ele>347.20000000000005</ele><time>2026-04-12T07:51:25Z</time></trkpt><trkpt lat="44.60726513250918" lon="10.508676078679894"><ele>348.40000000000003</ele><time>2026-04-12T07:51:26Z</time></trkpt><trkpt lat="44.60721917405442" lon="10.508537955563863"><ele>349.6</ele><time>2026-04-12T07:51:28Z</time></trkpt><trkpt lat="44.60719426416375" lon="10.508399364167767"><ele>350.8</ele><time>2026-04-12T07:51:30Z</time></trkpt><trkpt lat="44.60716650096407" lon="10.508262202088803"><ele>352.0</ele><time>2026-04-12T07:51:32Z</time></trkpt><trkpt lat="44.60710552116324" lon="10.508110019142144"><ele>352.0</ele><time>2026-04-12T07:51:34Z</time></trkpt><trkpt lat="44.607062534627325" lon="10.507996277450994"><ele>352.0</ele><time>2026-04-12T07:51:35Z</time></trkpt><trkpt lat="44.60700687904552" lon="10.507897511103849"><ele>352.0</ele><time>2026-04-12T07:51:36Z</time></trkpt><trkpt lat="44.60694387684576" lon="10.507808503206256"><ele>352.0</ele><time>2026-04-12T07:51:37Z</time></trkpt><trkpt lat="44.6068704856259" lon="10.507717546524988"><ele>352.0</ele><time>2026-04-12T07:51:38Z</time></trkpt><trkpt lat="44.60680034050985" lon="10.507605595587803"><ele>353.0</ele><time>2026-04-12T07:51:39Z</time></trkpt><trkpt lat="44.606732749783966" lon="10.507456972420828"><ele>354.0</ele><time>2026-04-12T07:51:40Z</time></trkpt><trkpt lat="44.60662493672295" lon="10.507346014480351"><ele>355.0</ele><time>2026-04-12T07:51:41Z</time></trkpt><trkpt lat="44.606520291405594" lon="10.507274525357351"><ele>356.0</ele><time>2026-04-12T07:51:42Z</time></trkpt><trkpt lat="44.606426050708485" lon="10.507236213439068"><ele>356.0</ele><time>2026-04-12T07:51:43Z</time></trkpt><trkpt lat="44.60633861849631" lon="10.507212022800008"><ele>356.0</ele><time>2026-04-12T07:51:44Z</time></trkpt><trkpt lat="44.606241018319295" lon="10.507195818302645"><ele>356.0</ele><time>2026-04-12T07:51:45Z</time></trkpt><trkpt lat="44.60612726272013" lon="10.507202104180083"><ele>356.0</ele><time>2026-04-12T07:51:46Z</time></trkpt><trkpt lat="44.60603776330103" lon="10.507195596311561"><ele>356.0</ele><time>2026-04-12T07:51:47Z</time></trkpt><trkpt lat="44.60596277617418" lon="10.507191247742375"><ele>355.4</ele><time>2026-04-12T07:51:48Z</time></trkpt><trkpt lat="44.605896197748216" lon="10.50717885578669"><ele>354.8</ele><time>2026-04-12T07:51:49Z</time></trkpt><trkpt lat="44.60583986405031" lon="10.507130759365799"><ele>354.2</ele><time>2026-04-12T07:51:50Z</time></trkpt><trkpt lat="44.60579005893521" lon="10.507063490518453"><ele>353.59999999999997</ele><time>2026-04-12T07:51:51Z</time></trkpt><trkpt lat="44.60571927595061" lon="10.506879534572814"><ele>353.0</ele><time>2026-04-12T07:51:53Z</time></trkpt><trkpt lat="44.605669738026414" lon="10.506759349782236"><ele>352.1666666666667</ele><time>2026-04-12T07:51:54Z</time></trkpt><trkpt lat="44.60560778043493" lon="10.506669283345964"><ele>351.33333333333337</ele><time>2026-04-12T07:51:55Z</time></trkpt><trkpt lat="44.60553978426634" lon="10.506587332882345"><ele>350.5</ele><time>2026-04-12T07:51:56Z</time></trkpt><trkpt lat="44.60546675072366" lon="10.506516464547493"><ele>349.6666666666667</ele><time>2026-04-12T07:51:57Z</time></trkpt><trkpt lat="44.60536344737595" lon="10.506501779677166"><ele>348.8333333333333</ele><time>2026-04-12T07:51:58Z</time></trkpt><trkpt lat="44.60528786954453" lon="10.506492556586062"><ele>348.0</ele><time>2026-04-12T07:51:59Z</time></trkpt><trkpt lat="44.60523497230399" lon="10.506375970805024"><ele>347.1666666666667</ele><time>2026-04-12T07:52:02Z</time></trkpt><trkpt lat="44.605219336507474" lon="10.506288660624339"><ele>346.3333333333333</ele><time>2026-04-12T07:52:02.999Z</time></trkpt><trkpt lat="44.60519861049256" lon="10.506189524864839"><ele>345.5</ele><time>2026-04-12T07:52:03.999Z</time></trkpt><trkpt lat="44.60517310870435" lon="10.506084559402716"><ele>344.66666666666663</ele><time>2026-04-12T07:52:05Z</time></trkpt><trkpt lat="44.605149540004426" lon="10.505975450731748"><ele>343.8333333333333</ele><time>2026-04-12T07:52:06Z</time></trkpt><trkpt lat="44.60512354508839" lon="10.505863200388463"><ele>343.0</ele><time>2026-04-12T07:52:07Z</time></trkpt><trkpt lat="44.605089770511405" lon="10.505744803158944"><ele>342.59999999999997</ele><time>2026-04-12T07:52:08Z</time></trkpt><trkpt lat="44.60505408395438" lon="10.505627896898705"><ele>342.2</ele><time>2026-04-12T07:52:09Z</time></trkpt><trkpt lat="44.60501076649036" lon="10.505497107439625"><ele>341.8</ele><time>2026-04-12T07:52:10Z</time></trkpt><trkpt lat="44.60496198190277" lon="10.505363362008852"><ele>341.4</ele><time>2026-04-12T07:52:11Z</time></trkpt><trkpt lat="44.604907552746795" lon="10.5052491673572"><ele>341.0</ele><time>2026-04-12T07:52:12Z</time></trkpt><trkpt lat="44.60485470795305" lon="10.50513485944684"><ele>341.20000000000005</ele><time>2026-04-12T07:52:13Z</time></trkpt><trkpt lat="44.60480008660245" lon="10.505017304247279"><ele>341.40000000000003</ele><time>2026-04-12T07:52:14Z</time></trkpt><trkpt lat="44.60474558464365" lon="10.50487892433953"><ele>341.6</ele><time>2026-04-12T07:52:15Z</time></trkpt><trkpt lat="44.604683109454804" lon="10.504730892811375"><ele>341.8</ele><time>2026-04-12T07:52:16Z</time></trkpt><trkpt lat="44.60463529894392" lon="10.504595402614246"><ele>342.0</ele><time>2026-04-12T07:52:17Z</time></trkpt><trkpt lat="44.60458859382055" lon="10.504489191450237"><ele>342.0</ele><time>2026-04-12T07:52:18Z</time></trkpt><trkpt lat="44.60453167759057" lon="10.504431924021919"><ele>342.0</ele><time>2026-04-12T07:52:19Z</time></trkpt><trkpt lat="44.60444933590967" lon="10.504400278089024"><ele>342.0</ele><time>2026-04-12T07:52:20Z</time></trkpt><trkpt lat="44.60437857377148" lon="10.504359585841494"><ele>342.0</ele><time>2026-04-12T07:52:21Z</time></trkpt><trkpt lat="44.60430815621774" lon="10.50430436182335"><ele>342.0</ele><time>2026-04-12T07:52:22Z</time></trkpt><trkpt lat="44.60424465155079" lon="10.504253580555757"><ele>342.0</ele><time>2026-04-12T07:52:23Z</time></trkpt><trkpt lat="44.60416255858892" lon="10.504181208520675"><ele>343.6</ele><time>2026-04-12T07:52:24Z</time></trkpt><trkpt lat="44.60407423096165" lon="10.504107271893869"><ele>345.20000000000005</ele><time>2026-04-12T07:52:25Z</time></trkpt><trkpt lat="44.60397889907922" lon="10.504030166234477"><ele>346.8</ele><time>2026-04-12T07:52:26Z</time></trkpt><trkpt lat="44.60392052922438" lon="10.503950827099894"><ele>348.4</ele><time>2026-04-12T07:52:27Z</time></trkpt><trkpt lat="44.60387250133892" lon="10.503857183488982"><ele>350.0</ele><time>2026-04-12T07:52:28Z</time></trkpt><trkpt lat="44.60381925963056" lon="10.503750409044725"><ele>348.5</ele><time>2026-04-12T07:52:29Z</time></trkpt><trkpt lat="44.60376353564957" lon="10.503643574558895"><ele>347.0</ele><time>2026-04-12T07:52:30Z</time></trkpt><trkpt lat="44.603716374889736" lon="10.503533884183542"><ele>345.5</ele><time>2026-04-12T07:52:31Z</time></trkpt><trkpt lat="44.603678455810254" lon="10.503433958022216"><ele>344.0</ele><time>2026-04-12T07:52:32Z</time></trkpt><trkpt lat="44.60364806046444" lon="10.503339745561217"><ele>342.5</ele><time>2026-04-12T07:52:33Z</time></trkpt><trkpt lat="44.603616052236674" lon="10.50325259454361"><ele>341.0</ele><time>2026-04-12T07:52:34Z</time></trkpt><trkpt lat="44.603559639138695" lon="10.50310298610804"><ele>341.0</ele><time>2026-04-12T07:52:36Z</time></trkpt><trkpt lat="44.603529666373944" lon="10.503012695408321"><ele>341.0</ele><time>2026-04-12T07:52:38Z</time></trkpt><trkpt lat="44.60361933625866" lon="10.50304205680758"><ele>341.0</ele><time>2026-04-12T07:52:43Z</time></trkpt><trkpt lat="44.60365845748022" lon="10.50311443610757"><ele>341.0</ele><time>2026-04-12T07:52:44Z</time></trkpt><trkpt lat="44.60369843867305" lon="10.503247163651261"><ele>341.0</ele><time>2026-04-12T07:52:46Z</time></trkpt><trkpt lat="44.60374252968963" lon="10.503350123269973"><ele>341.0</ele><time>2026-04-12T07:52:47Z</time></trkpt><trkpt lat="44.60377758975073" lon="10.50343190315917"><ele>340.75</ele><time>2026-04-12T07:52:48Z</time></trkpt><trkpt lat="44.603855086558234" lon="10.503526963757281"><ele>340.5</ele><time>2026-04-12T07:52:50Z</time></trkpt><trkpt lat="44.60396249161179" lon="10.503551249079399"><ele>340.25</ele><time>2026-04-12T07:52:52Z</time></trkpt><trkpt lat="44.60410806104253" lon="10.503538714158758"><ele>340.0</ele><time>2026-04-12T07:52:55Z</time></trkpt><trkpt lat="44.604197306502165" lon="10.503587101400091"><ele>340.0</ele><time>2026-04-12T07:52:57Z</time></trkpt><trkpt lat="44.60430101466387" lon="10.503572495678934"><ele>340.0</ele><time>2026-04-12T07:52:59Z</time></trkpt><trkpt lat="44.604376351493606" lon="10.503573583827091"><ele>340.0</ele><time>2026-04-12T07:53:00Z</time></trkpt><trkpt lat="44.60447287019696" lon="10.503640672388299"><ele>340.0</ele><time>2026-04-12T07:53:02Z</time></trkpt><trkpt lat="44.60457049829752" lon="10.503631799408245"><ele>340.0</ele><time>2026-04-12T07:53:04Z</time></trkpt><trkpt lat="44.60464369062899" lon="10.503559887282437"><ele>337.66666666666663</ele><time>2026-04-12T07:53:06Z</time></trkpt><trkpt lat="44.60472794285525" lon="10.503478392513433"><ele>335.3333333333333</ele><time>2026-04-12T07:53:08Z</time></trkpt><trkpt lat="44.604809349123514" lon="10.503474375449843"><ele>333.0</ele><time>2026-04-12T07:53:10Z</time></trkpt><trkpt lat="44.60489233277025" lon="10.50352664004914"><ele>330.6666666666667</ele><time>2026-04-12T07:53:12Z</time></trkpt><trkpt lat="44.604979638195715" lon="10.503535751659664"><ele>328.33333333333337</ele><time>2026-04-12T07:53:14Z</time></trkpt><trkpt lat="44.60504750051808" lon="10.503531584019033"><ele>326.0</ele><time>2026-04-12T07:53:16Z</time></trkpt><trkpt lat="44.60511156706501" lon="10.503561458530031"><ele>326.0</ele><time>2026-04-12T07:53:18Z</time></trkpt><trkpt lat="44.60520378014384" lon="10.503581700481357"><ele>326.0</ele><time>2026-04-12T07:53:20Z</time></trkpt><trkpt lat="44.605301999809825" lon="10.503641103972745"><ele>326.0</ele><time>2026-04-12T07:53:22Z</time></trkpt><trkpt lat="44.605369403430196" lon="10.50366763397985"><ele>326.0</ele><time>2026-04-12T07:53:24Z</time></trkpt><trkpt lat="44.60545737782885" lon="10.50363472187217"><ele>326.0</ele><time>2026-04-12T07:53:26Z</time></trkpt><trkpt lat="44.60553229399188" lon="10.503625155349562"><ele>326.0</ele><time>2026-04-12T07:53:27Z</time></trkpt><trkpt lat="44.60559741833193" lon="10.503602159638751"><ele>323.0</ele><time>2026-04-12T07:53:28Z</time></trkpt><trkpt lat="44.60567295988092" lon="10.503485750663229"><ele>320.0</ele><time>2026-04-12T07:53:30Z</time></trkpt><trkpt lat="44.60582705426162" lon="10.503420667120993"><ele>317.0</ele><time>2026-04-12T07:53:33Z</time></trkpt><trkpt lat="44.60590725378185" lon="10.503427459286707"><ele>314.0</ele><time>2026-04-12T07:53:34Z</time></trkpt><trkpt lat="44.60599422611691" lon="10.503422934761083"><ele>311.0</ele><time>2026-04-12T07:53:35Z</time></trkpt><trkpt lat="44.606080740929485" lon="10.503402194768164"><ele>311.0</ele><time>2026-04-12T07:53:36Z</time></trkpt><trkpt lat="44.60614256889788" lon="10.503354733854287"><ele>311.0</ele><time>2026-04-12T07:53:37Z</time></trkpt><trkpt lat="44.606228984619506" lon="10.503341602729442"><ele>311.0</ele><time>2026-04-12T07:53:39Z</time></trkpt><trkpt lat="44.6063293536359" lon="10.503386838662003"><ele>311.0</ele><time>2026-04-12T07:53:41Z</time></trkpt><trkpt lat="44.60641922760012" lon="10.503408716057073"><ele>311.0</ele><time>2026-04-12T07:53:43Z</time></trkpt><trkpt lat="44.60650523450262" lon="10.503415862480436"><ele>311.0</ele><time>2026-04-12T07:53:45Z</time></trkpt><trkpt lat="44.60657990487146" lon="10.503442158636114"><ele>308.5</ele><time>2026-04-12T07:53:47Z</time></trkpt><trkpt lat="44.606658839829734" lon="10.503413441164135"><ele>306.0</ele><time>2026-04-12T07:53:50Z</time></trkpt><trkpt lat="44.606712915472414" lon="10.503336780025192"><ele>303.5</ele><time>2026-04-12T07:53:52Z</time></trkpt><trkpt lat="44.60682606905696" lon="10.50324782146602"><ele>301.0</ele><time>2026-04-12T07:53:54Z</time></trkpt><trkpt lat="44.6068954723834" lon="10.503203901075747"><ele>298.5</ele><time>2026-04-12T07:53:55Z</time></trkpt><trkpt lat="44.60696952289242" lon="10.503162768550766"><ele>296.0</ele><time>2026-04-12T07:53:55.999Z</time></trkpt><trkpt lat="44.60704477537337" lon="10.503124294890082"><ele>292.6666666666667</ele><time>2026-04-12T07:53:56.999Z</time></trkpt><trkpt lat="44.60712287472134" lon="10.503093877166698"><ele>289.33333333333337</ele><time>2026-04-12T07:53:57.999Z</time></trkpt><trkpt lat="44.607199637575846" lon="10.503086035873933"><ele>286.0</ele><time>2026-04-12T07:53:58.999Z</time></trkpt><trkpt lat="44.6072636187525" lon="10.503081795891188"><ele>282.6666666666667</ele><time>2026-04-12T07:53:59.999Z</time></trkpt><trkpt lat="44.60732985944225" lon="10.503075276528005"><ele>279.3333333333333</ele><time>2026-04-12T07:54:01.999Z</time></trkpt><trkpt lat="44.60735139387787" lon="10.50289043145298"><ele>276.0</ele><time>2026-04-12T07:54:03.999Z</time></trkpt><trkpt lat="44.60737634703357" lon="10.502770033868117"><ele>275.3333333333333</ele><time>2026-04-12T07:54:04.999Z</time></trkpt><trkpt lat="44.6074321800269" lon="10.502683947073868"><ele>274.6666666666667</ele><time>2026-04-12T07:54:05.999Z</time></trkpt><trkpt lat="44.607513081199514" lon="10.502586088799822"><ele>274.0</ele><time>2026-04-12T07:54:06.999Z</time></trkpt><trkpt lat="44.60759464546199" lon="10.502493250861589"><ele>273.33333333333337</ele><time>2026-04-12T07:54:07.999Z</time></trkpt><trkpt lat="44.60765431106662" lon="10.50242820356659"><ele>272.6666666666667</ele><time>2026-04-12T07:54:08.999Z</time></trkpt><trkpt lat="44.60769343874316" lon="10.502339844399406"><ele>272.0</ele><time>2026-04-12T07:54:09.999Z</time></trkpt><trkpt lat="44.60771617294669" lon="10.502218292597354"><ele>270.0</ele><time>2026-04-12T07:54:11Z</time></trkpt><trkpt lat="44.60773536845522" lon="10.502019982698897"><ele>268.0</ele><time>2026-04-12T07:54:12Z</time></trkpt><trkpt lat="44.6077508539569" lon="10.501846517414668"><ele>266.0</ele><time>2026-04-12T07:54:13Z</time></trkpt><trkpt lat="44.607751714995466" lon="10.501738504970394"><ele>264.0</ele><time>2026-04-12T07:54:14Z</time></trkpt><trkpt lat="44.60777653273181" lon="10.501636108802197"><ele>262.0</ele><time>2026-04-12T07:54:15Z</time></trkpt><trkpt lat="44.60783294926219" lon="10.501533096703657"><ele>259.4</ele><time>2026-04-12T07:54:16Z</time></trkpt><trkpt lat="44.60788433958988" lon="10.501417314320665"><ele>256.79999999999995</ele><time>2026-04-12T07:54:17Z</time></trkpt><trkpt lat="44.607942184429916" lon="10.50129057895568"><ele>254.2</ele><time>2026-04-12T07:54:18Z</time></trkpt><trkpt lat="44.60801063107072" lon="10.501181604800324"><ele>251.6</ele><time>2026-04-12T07:54:19Z</time></trkpt><trkpt lat="44.6080781247792" lon="10.501072216035071"><ele>249.0</ele><time>2026-04-12T07:54:20Z</time></trkpt><trkpt lat="44.60815731957331" lon="10.500955676251866"><ele>248.5</ele><time>2026-04-12T07:54:21Z</time></trkpt><trkpt lat="44.608248792576134" lon="10.500858147429232"><ele>248.0</ele><time>2026-04-12T07:54:22Z</time></trkpt><trkpt lat="44.608322880151235" lon="10.500769868516151"><ele>247.5</ele><time>2026-04-12T07:54:23Z</time></trkpt><trkpt lat="44.60838415941404" lon="10.500697632926018"><ele>247.0</ele><time>2026-04-12T07:54:24Z</time></trkpt><trkpt lat="44.60843869422658" lon="10.500635072365428"><ele>246.5</ele><time>2026-04-12T07:54:25Z</time></trkpt><trkpt lat="44.60849804355787" lon="10.500568065162513"><ele>246.0</ele><time>2026-04-12T07:54:27Z</time></trkpt><trkpt lat="44.608582028507925" lon="10.500685988835052"><ele>246.0</ele><time>2026-04-12T07:54:29Z</time></trkpt><trkpt lat="44.60865715153861" lon="10.500840649514842"><ele>246.00000000000003</ele><time>2026-04-12T07:54:31Z</time></trkpt><trkpt lat="44.608654258030576" lon="10.50093828820032"><ele>246.00000000000003</ele><time>2026-04-12T07:54:32Z</time></trkpt><trkpt lat="44.60865708973405" lon="10.501050390738483"><ele>246.0</ele><time>2026-04-12T07:54:33Z</time></trkpt><trkpt lat="44.60865425363158" lon="10.501144188347304"><ele>246.0</ele><time>2026-04-12T07:54:34Z</time></trkpt><trkpt lat="44.608651885786664" lon="10.501299564161465"><ele>246.5</ele><time>2026-04-12T07:54:36Z</time></trkpt><trkpt lat="44.60864987424827" lon="10.501397240609059"><ele>247.0</ele><time>2026-04-12T07:54:38Z</time></trkpt><trkpt lat="44.60871496323946" lon="10.501384781883337"><ele>247.5</ele><time>2026-04-12T07:54:39Z</time></trkpt><trkpt lat="44.608770558698964" lon="10.501303345491344"><ele>248.0</ele><time>2026-04-12T07:54:40Z</time></trkpt><trkpt lat="44.60885737482128" lon="10.501201912675388"><ele>248.5</ele><time>2026-04-12T07:54:42Z</time></trkpt><trkpt lat="44.608905646358885" lon="10.501114009854808"><ele>249.0</ele><time>2026-04-12T07:54:43Z</time></trkpt><trkpt lat="44.60894907694891" lon="10.501041538357038"><ele>245.5</ele><time>2026-04-12T07:54:44Z</time></trkpt><trkpt lat="44.608998333005005" lon="10.500957609315613"><ele>242.0</ele><time>2026-04-12T07:54:45Z</time></trkpt><trkpt lat="44.609049947696526" lon="10.500876660584458"><ele>238.5</ele><time>2026-04-12T07:54:46Z</time></trkpt><trkpt lat="44.609101026060515" lon="10.500796938643083"><ele>235.0</ele><time>2026-04-12T07:54:47Z</time></trkpt><trkpt lat="44.60914258498567" lon="10.50071059050553"><ele>231.5</ele><time>2026-04-12T07:54:48Z</time></trkpt><trkpt lat="44.60921022932058" lon="10.500577905642814"><ele>228.0</ele><time>2026-04-12T07:54:50Z</time></trkpt><trkpt lat="44.60926279936105" lon="10.500529069118263"><ele>228.0</ele><time>2026-04-12T07:54:51Z</time></trkpt><trkpt lat="44.609404228576786" lon="10.500392668394133"><ele>228.0</ele><time>2026-04-12T07:54:52Z</time></trkpt><trkpt lat="44.609476823398076" lon="10.500317206253355"><ele>228.0</ele><time>2026-04-12T07:54:53Z</time></trkpt><trkpt lat="44.60950969469831" lon="10.500227636557486"><ele>228.0</ele><time>2026-04-12T07:54:54Z</time></trkpt><trkpt lat="44.60953923174885" lon="10.500108870835472"><ele>228.0</ele><time>2026-04-12T07:54:55Z</time></trkpt><trkpt lat="44.60956018812393" lon="10.500018285625234"><ele>228.0</ele><time>2026-04-12T07:54:56Z</time></trkpt><trkpt lat="44.60957362847929" lon="10.499855049570701"><ele>228.0</ele><time>2026-04-12T07:54:58Z</time></trkpt><trkpt lat="44.60958978144137" lon="10.499761617871162"><ele>228.0</ele><time>2026-04-12T07:54:59Z</time></trkpt><trkpt lat="44.609574380904185" lon="10.49964758329527"><ele>228.0</ele><time>2026-04-12T07:55:05Z</time></trkpt><trkpt lat="44.609622089221546" lon="10.499545701880741"><ele>228.0</ele><time>2026-04-12T07:55:07Z</time></trkpt><trkpt lat="44.609682436171205" lon="10.49947004650553"><ele>228.0</ele><time>2026-04-12T07:55:08Z</time></trkpt><trkpt lat="44.60978234807368" lon="10.499384560862078"><ele>224.60000000000002</ele><time>2026-04-12T07:55:10Z</time></trkpt><trkpt lat="44.60985820166266" lon="10.499342700686219"><ele>221.20000000000002</ele><time>2026-04-12T07:55:11Z</time></trkpt><trkpt lat="44.60991275447416" lon="10.499225405300226"><ele>217.8</ele><time>2026-04-12T07:55:13Z</time></trkpt><trkpt lat="44.609945413220856" lon="10.499128544413237"><ele>214.4</ele><time>2026-04-12T07:55:14Z</time></trkpt><trkpt lat="44.60997475807353" lon="10.499036328432538"><ele>211.0</ele><time>2026-04-12T07:55:15Z</time></trkpt><trkpt lat="44.61008941426213" lon="10.498980034008781"><ele>210.99999999999997</ele><time>2026-04-12T07:55:17Z</time></trkpt><trkpt lat="44.61015117626947" lon="10.498867780837461"><ele>211.0</ele><time>2026-04-12T07:55:19Z</time></trkpt><trkpt lat="44.61018930579706" lon="10.498789397993951"><ele>211.0</ele><time>2026-04-12T07:55:21Z</time></trkpt><trkpt lat="44.610195008711514" lon="10.498700099630938"><ele>211.0</ele><time>2026-04-12T07:55:24Z</time></trkpt><trkpt lat="44.6101139193348" lon="10.498631943256937"><ele>210.99999999999997</ele><time>2026-04-12T07:57:22Z</time></trkpt><trkpt lat="44.61002753000328" lon="10.498565743864072"><ele>211.0</ele><time>2026-04-12T07:57:24Z</time></trkpt><trkpt lat="44.60999236793693" lon="10.498473877413549"><ele>210.33333333333331</ele><time>2026-04-12T07:57:26Z</time></trkpt><trkpt lat="44.60999127058969" lon="10.498355468273425"><ele>209.66666666666666</ele><time>2026-04-12T07:57:30Z</time></trkpt><trkpt lat="44.61001970584919" lon="10.498249401043452"><ele>209.0</ele><time>2026-04-12T07:57:33Z</time></trkpt><trkpt lat="44.610075523043506" lon="10.498167301016286"><ele>208.33333333333331</ele><time>2026-04-12T07:57:38Z</time></trkpt><trkpt lat="44.61015908825492" lon="10.498221209589088"><ele>207.66666666666666</ele><time>2026-04-12T07:57:39Z</time></trkpt><trkpt lat="44.610228413722055" lon="10.49825097855198"><ele>207.0</ele><time>2026-04-12T07:57:40Z</time></trkpt><trkpt lat="44.6102911717544" lon="10.498242038755675"><ele>206.16666666666666</ele><time>2026-04-12T07:57:41Z</time></trkpt><trkpt lat="44.61036029596582" lon="10.498209491489238"><ele>205.33333333333331</ele><time>2026-04-12T07:57:42Z</time></trkpt><trkpt lat="44.610444296161646" lon="10.498177987246448"><ele>204.5</ele><time>2026-04-12T07:57:43Z</time></trkpt><trkpt lat="44.6105459978111" lon="10.498128558413896"><ele>203.66666666666666</ele><time>2026-04-12T07:57:44Z</time></trkpt><trkpt lat="44.61062538393048" lon="10.498079240700665"><ele>202.83333333333331</ele><time>2026-04-12T07:57:45Z</time></trkpt><trkpt lat="44.61069700507386" lon="10.498028185830659"><ele>202.0</ele><time>2026-04-12T07:57:46Z</time></trkpt><trkpt lat="44.610772953983336" lon="10.49797139912695"><ele>203.2</ele><time>2026-04-12T07:57:47Z</time></trkpt><trkpt lat="44.610827590509565" lon="10.497900655933833"><ele>204.39999999999998</ele><time>2026-04-12T07:57:48Z</time></trkpt><trkpt lat="44.61092147121488" lon="10.497806912206853"><ele>205.60000000000002</ele><time>2026-04-12T07:57:50Z</time></trkpt><trkpt lat="44.61102102055139" lon="10.497790819621265"><ele>206.8</ele><time>2026-04-12T07:57:52Z</time></trkpt><trkpt lat="44.611115954257635" lon="10.497797503759598"><ele>208.0</ele><time>2026-04-12T07:57:54Z</time></trkpt><trkpt lat="44.61122608153055" lon="10.497799333457106"><ele>208.0</ele><time>2026-04-12T07:57:56Z</time></trkpt><trkpt lat="44.61132578921449" lon="10.497753717607834"><ele>208.0</ele><time>2026-04-12T07:57:58Z</time></trkpt><trkpt lat="44.6114042929186" lon="10.49766623539625"><ele>208.0</ele><time>2026-04-12T07:58:00Z</time></trkpt><trkpt lat="44.611459383114315" lon="10.497609093124776"><ele>208.0</ele><time>2026-04-12T07:58:03Z</time></trkpt><trkpt lat="44.611540312183116" lon="10.497592036608653"><ele>208.0</ele><time>2026-04-12T07:58:06Z</time></trkpt><trkpt lat="44.611681025195765" lon="10.497619657527746"><ele>208.0</ele><time>2026-04-12T07:58:07.999Z</time></trkpt><trkpt lat="44.61175596521505" lon="10.497686264362873"><ele>208.0</ele><time>2026-04-12T07:58:08.999Z</time></trkpt><trkpt lat="44.61181228061884" lon="10.497751856801894"><ele>208.0</ele><time>2026-04-12T07:58:09.999Z</time></trkpt><trkpt lat="44.61190845253415" lon="10.497835555354504"><ele>208.0</ele><time>2026-04-12T07:58:11.999Z</time></trkpt><trkpt lat="44.61202435372807" lon="10.49790845970553"><ele>208.0</ele><time>2026-04-12T07:58:13.999Z</time></trkpt><trkpt lat="44.612101732550464" lon="10.497959108619922"><ele>206.0</ele><time>2026-04-12T07:58:14.999Z</time></trkpt><trkpt lat="44.61217893635235" lon="10.498010050479404"><ele>204.0</ele><time>2026-04-12T07:58:15.999Z</time></trkpt><trkpt lat="44.61226968975756" lon="10.498067398801673"><ele>202.0</ele><time>2026-04-12T07:58:16.999Z</time></trkpt><trkpt lat="44.61238010952448" lon="10.498127606879242"><ele>200.0</ele><time>2026-04-12T07:58:17.999Z</time></trkpt><trkpt lat="44.61249746773506" lon="10.498178135226071"><ele>198.0</ele><time>2026-04-12T07:58:18.999Z</time></trkpt><trkpt lat="44.61259519716155" lon="10.498222636001143"><ele>198.0</ele><time>2026-04-12T07:58:19.999Z</time></trkpt><trkpt lat="44.61265968675415" lon="10.498292496451349"><ele>198.0</ele><time>2026-04-12T07:58:20.999Z</time></trkpt><trkpt lat="44.61270758751096" lon="10.4983666612067"><ele>198.0</ele><time>2026-04-12T07:58:22Z</time></trkpt><trkpt lat="44.61278756371188" lon="10.498407273691399"><ele>198.0</ele><time>2026-04-12T07:58:23Z</time></trkpt><trkpt lat="44.61287857773331" lon="10.498417961875004"><ele>198.0</ele><time>2026-04-12T07:58:24Z</time></trkpt><trkpt lat="44.61296458677252" lon="10.498380132172091"><ele>198.0</ele><time>2026-04-12T07:58:25Z</time></trkpt><trkpt lat="44.61303128484557" lon="10.498330638562217"><ele>197.60000000000002</ele><time>2026-04-12T07:58:26Z</time></trkpt><trkpt lat="44.613125869516864" lon="10.498277524031717"><ele>197.20000000000002</ele><time>2026-04-12T07:58:28Z</time></trkpt><trkpt lat="44.61319636976934" lon="10.498267095174938"><ele>196.8</ele><time>2026-04-12T07:58:29Z</time></trkpt><trkpt lat="44.61327446070527" lon="10.498274003488383"><ele>196.4</ele><time>2026-04-12T07:58:30Z</time></trkpt><trkpt lat="44.61338889621631" lon="10.498302699437895"><ele>196.0</ele><time>2026-04-12T07:58:31Z</time></trkpt><trkpt lat="44.613510625423466" lon="10.498334538606723"><ele>196.0</ele><time>2026-04-12T07:58:32Z</time></trkpt><trkpt lat="44.61364180226099" lon="10.498387801081948"><ele>196.0</ele><time>2026-04-12T07:58:33Z</time></trkpt><trkpt lat="44.613775569169896" lon="10.49846089581341"><ele>196.0</ele><time>2026-04-12T07:58:34Z</time></trkpt><trkpt lat="44.613878509527574" lon="10.498557275835244"><ele>196.0</ele><time>2026-04-12T07:58:35Z</time></trkpt><trkpt lat="44.6139772580423" lon="10.498681859824654"><ele>196.25</ele><time>2026-04-12T07:58:36Z</time></trkpt><trkpt lat="44.61408146655548" lon="10.498829767104885"><ele>196.5</ele><time>2026-04-12T07:58:37Z</time></trkpt><trkpt lat="44.614167701856296" lon="10.498951755379256"><ele>196.75</ele><time>2026-04-12T07:58:38Z</time></trkpt><trkpt lat="44.61424588312501" lon="10.499061486811122"><ele>197.0</ele><time>2026-04-12T07:58:39Z</time></trkpt><trkpt lat="44.61432128289219" lon="10.499160660986359"><ele>197.00000000000003</ele><time>2026-04-12T07:58:40Z</time></trkpt><trkpt lat="44.614375904502204" lon="10.499228348662271"><ele>197.0</ele><time>2026-04-12T07:58:41Z</time></trkpt><trkpt lat="44.61442489064415" lon="10.49928858501288"><ele>197.0</ele><time>2026-04-12T07:58:42Z</time></trkpt><trkpt lat="44.614505934835265" lon="10.49933543393553"><ele>197.0</ele><time>2026-04-12T07:58:44Z</time></trkpt><trkpt lat="44.614597261872056" lon="10.499251297426062"><ele>197.00000000000003</ele><time>2026-04-12T07:58:46Z</time></trkpt><trkpt lat="44.61465790233137" lon="10.499203836350732"><ele>197.0</ele><time>2026-04-12T07:58:47Z</time></trkpt><trkpt lat="44.61474731167371" lon="10.49914703885425"><ele>198.5</ele><time>2026-04-12T07:58:48Z</time></trkpt><trkpt lat="44.61485355816505" lon="10.499096534019412"><ele>200.0</ele><time>2026-04-12T07:58:49Z</time></trkpt><trkpt lat="44.61498029707844" lon="10.499023341767574"><ele>201.5</ele><time>2026-04-12T07:58:50Z</time></trkpt><trkpt lat="44.6151104472518" lon="10.498944984280541"><ele>203.0</ele><time>2026-04-12T07:58:51Z</time></trkpt><trkpt lat="44.615212231421935" lon="10.4989194413111"><ele>203.0</ele><time>2026-04-12T07:58:52Z</time></trkpt><trkpt lat="44.61531211965025" lon="10.498914240014456"><ele>203.0</ele><time>2026-04-12T07:58:53Z</time></trkpt><trkpt lat="44.61542903302682" lon="10.49888414015865"><ele>203.0</ele><time>2026-04-12T07:58:54Z</time></trkpt><trkpt lat="44.61555160194417" lon="10.498828854036452"><ele>203.0</ele><time>2026-04-12T07:58:55Z</time></trkpt><trkpt lat="44.615673227622224" lon="10.498770478062132"><ele>206.75</ele><time>2026-04-12T07:58:56Z</time></trkpt><trkpt lat="44.61576291244513" lon="10.498699052145122"><ele>210.5</ele><time>2026-04-12T07:58:57Z</time></trkpt><trkpt lat="44.6158485653056" lon="10.498637012539596"><ele>214.25</ele><time>2026-04-12T07:58:58Z</time></trkpt><trkpt lat="44.61595495531494" lon="10.498565699511781"><ele>218.0</ele><time>2026-04-12T07:58:59Z</time></trkpt><trkpt lat="44.61608136404467" lon="10.498495767518984"><ele>223.66666666666669</ele><time>2026-04-12T07:59:00Z</time></trkpt><trkpt lat="44.61622397533997" lon="10.498434079967023"><ele>229.33333333333331</ele><time>2026-04-12T07:59:01Z</time></trkpt><trkpt lat="44.61637584288645" lon="10.498358724413603"><ele>235.0</ele><time>2026-04-12T07:59:02Z</time></trkpt><trkpt lat="44.616544217177335" lon="10.498285197297303"><ele>235.0</ele><time>2026-04-12T07:59:03Z</time></trkpt><trkpt lat="44.61670466884747" lon="10.498204877951252"><ele>235.0</ele><time>2026-04-12T07:59:04Z</time></trkpt><trkpt lat="44.6168521672285" lon="10.498128007622652"><ele>235.0</ele><time>2026-04-12T07:59:05Z</time></trkpt><trkpt lat="44.61697896291193" lon="10.498045542718003"><ele>239.0</ele><time>2026-04-12T07:59:06Z</time></trkpt><trkpt lat="44.61707728652841" lon="10.497970399344798"><ele>243.0</ele><time>2026-04-12T07:59:07Z</time></trkpt><trkpt lat="44.617171347483875" lon="10.497896600242948"><ele>247.0</ele><time>2026-04-12T07:59:08Z</time></trkpt><trkpt lat="44.61725153410208" lon="10.497803849126784"><ele>251.0</ele><time>2026-04-12T07:59:09Z</time></trkpt><trkpt lat="44.617289619261605" lon="10.497693456622253"><ele>255.0</ele><time>2026-04-12T07:59:10Z</time></trkpt><trkpt lat="44.617311031175426" lon="10.497604006367526"><ele>255.33333333333334</ele><time>2026-04-12T07:59:11Z</time></trkpt><trkpt lat="44.61739280052761" lon="10.497511589680247"><ele>255.66666666666669</ele><time>2026-04-12T07:59:13Z</time></trkpt><trkpt lat="44.61748662269135" lon="10.497458399332645"><ele>256.0</ele><time>2026-04-12T07:59:15Z</time></trkpt><trkpt lat="44.61751475125183" lon="10.49733946795959"><ele>256.33333333333337</ele><time>2026-04-12T07:59:30Z</time></trkpt><trkpt lat="44.61751796115348" lon="10.497243532671202"><ele>256.6666666666667</ele><time>2026-04-12T07:59:31Z</time></trkpt><trkpt lat="44.61751595765083" lon="10.497146210339878"><ele>257.0</ele><time>2026-04-12T07:59:32Z</time></trkpt><trkpt lat="44.617536868608475" lon="10.49704343283106"><ele>259.4</ele><time>2026-04-12T07:59:34Z</time></trkpt><trkpt lat="44.617604316381374" lon="10.496900872998403"><ele>261.79999999999995</ele><time>2026-04-12T07:59:36Z</time></trkpt><trkpt lat="44.61763478640259" lon="10.496822717765719"><ele>264.2</ele><time>2026-04-12T07:59:37Z</time></trkpt><trkpt lat="44.617707973247434" lon="10.49672037956981"><ele>266.59999999999997</ele><time>2026-04-12T07:59:39Z</time></trkpt><trkpt lat="44.6177714035915" lon="10.496618524760512"><ele>269.0</ele><time>2026-04-12T07:59:41Z</time></trkpt><trkpt lat="44.617804091907274" lon="10.496535843778476"><ele>273.0</ele><time>2026-04-12T07:59:44Z</time></trkpt><trkpt lat="44.6179321691925" lon="10.496259031292048"><ele>277.0</ele><time>2026-04-12T07:59:47Z</time></trkpt><trkpt lat="44.61797216067289" lon="10.496190452775693"><ele>281.0</ele><time>2026-04-12T07:59:48Z</time></trkpt><trkpt lat="44.61805954031598" lon="10.496079812899204"><ele>285.0</ele><time>2026-04-12T07:59:50Z</time></trkpt><trkpt lat="44.61815039773675" lon="10.495985794817381"><ele>285.0</ele><time>2026-04-12T07:59:52Z</time></trkpt><trkpt lat="44.61825284587972" lon="10.495877113699072"><ele>285.0</ele><time>2026-04-12T07:59:54Z</time></trkpt><trkpt lat="44.61835600763365" lon="10.49577912915069"><ele>285.0</ele><time>2026-04-12T07:59:56Z</time></trkpt><trkpt lat="44.618400848242786" lon="10.49570979284512"><ele>285.0</ele><time>2026-04-12T07:59:57Z</time></trkpt><trkpt lat="44.618452018778314" lon="10.495644464723322"><ele>285.0</ele><time>2026-04-12T07:59:58Z</time></trkpt><trkpt lat="44.61851265502645" lon="10.49558454336423"><ele>285.0</ele><time>2026-04-12T07:59:59Z</time></trkpt><trkpt lat="44.61857222087983" lon="10.495515578796143"><ele>285.0</ele><time>2026-04-12T08:00:00Z</time></trkpt><trkpt lat="44.618615700128615" lon="10.495439694689075"><ele>285.0</ele><time>2026-04-12T08:00:01Z</time></trkpt><trkpt lat="44.618661288096035" lon="10.4953477885615"><ele>285.0</ele><time>2026-04-12T08:00:03Z</time></trkpt><trkpt lat="44.6186057829752" lon="10.495289275574722"><ele>285.0</ele><time>2026-04-12T08:00:05Z</time></trkpt><trkpt lat="44.61848245272762" lon="10.495288531478035"><ele>285.0</ele><time>2026-04-12T08:00:06Z</time></trkpt><trkpt lat="44.61841604971989" lon="10.495294815264407"><ele>287.5</ele><time>2026-04-12T08:00:08Z</time></trkpt><trkpt lat="44.61830017115612" lon="10.495331333432883"><ele>290.0</ele><time>2026-04-12T08:00:10Z</time></trkpt><trkpt lat="44.618252974045724" lon="10.495269434154405"><ele>292.5</ele><time>2026-04-12T08:00:12Z</time></trkpt><trkpt lat="44.61811494054378" lon="10.495227771004604"><ele>295.0</ele><time>2026-04-12T08:00:14.999Z</time></trkpt><trkpt lat="44.61800928566468" lon="10.495337270089173"><ele>295.0</ele><time>2026-04-12T08:00:16.999Z</time></trkpt><trkpt lat="44.6179461435772" lon="10.495415262858353"><ele>295.0</ele><time>2026-04-12T08:00:17.999Z</time></trkpt><trkpt lat="44.617904500980735" lon="10.495501872526663"><ele>295.0</ele><time>2026-04-12T08:00:18.999Z</time></trkpt><trkpt lat="44.617860469666" lon="10.49556961904396"><ele>295.0</ele><time>2026-04-12T08:00:19.999Z</time></trkpt><trkpt lat="44.61779949890042" lon="10.495644274721036"><ele>295.0</ele><time>2026-04-12T08:00:20.999Z</time></trkpt><trkpt lat="44.61773944444262" lon="10.495715000580335"><ele>295.0</ele><time>2026-04-12T08:00:21.999Z</time></trkpt><trkpt lat="44.61767181389058" lon="10.495798666280635"><ele>294.16666666666663</ele><time>2026-04-12T08:00:22.999Z</time></trkpt><trkpt lat="44.61760256245391" lon="10.495873409897316"><ele>293.3333333333333</ele><time>2026-04-12T08:00:23.999Z</time></trkpt><trkpt lat="44.61753033490146" lon="10.495952067218871"><ele>292.5</ele><time>2026-04-12T08:00:24.999Z</time></trkpt><trkpt lat="44.61746090620106" lon="10.496015685974294"><ele>291.6666666666667</ele><time>2026-04-12T08:00:25.999Z</time></trkpt><trkpt lat="44.61739292280939" lon="10.496085784555511"><ele>290.83333333333337</ele><time>2026-04-12T08:00:26.999Z</time></trkpt><trkpt lat="44.6173318213007" lon="10.496153144380786"><ele>290.0</ele><time>2026-04-12T08:00:28Z</time></trkpt><trkpt lat="44.61726665110263" lon="10.496206174058331"><ele>287.5</ele><time>2026-04-12T08:00:29Z</time></trkpt><trkpt lat="44.6172007567902" lon="10.496254353673873"><ele>285.0</ele><time>2026-04-12T08:00:30Z</time></trkpt><trkpt lat="44.61713066887277" lon="10.496279353085209"><ele>282.5</ele><time>2026-04-12T08:00:31Z</time></trkpt><trkpt lat="44.61706124510126" lon="10.496265025767652"><ele>280.0</ele><time>2026-04-12T08:00:32Z</time></trkpt><trkpt lat="44.61692562312628" lon="10.49599314065579"><ele>280.0</ele><time>2026-04-12T08:00:34Z</time></trkpt><trkpt lat="44.61686436425295" lon="10.49593944660746"><ele>280.0</ele><time>2026-04-12T08:00:36Z</time></trkpt><trkpt lat="44.61677464921675" lon="10.495744584036695"><ele>280.0</ele><time>2026-04-12T08:00:38Z</time></trkpt><trkpt lat="44.61672627116574" lon="10.49566900730435"><ele>280.0</ele><time>2026-04-12T08:00:39Z</time></trkpt><trkpt lat="44.61675743138096" lon="10.495502159909918"><ele>280.0</ele><time>2026-04-12T08:00:41Z</time></trkpt><trkpt lat="44.61679120664009" lon="10.49539117283848"><ele>280.5</ele><time>2026-04-12T08:00:42Z</time></trkpt><trkpt lat="44.61679787360776" lon="10.495289289765052"><ele>281.0</ele><time>2026-04-12T08:00:43Z</time></trkpt><trkpt lat="44.6168024497503" lon="10.495189672919564"><ele>281.5</ele><time>2026-04-12T08:00:44Z</time></trkpt><trkpt lat="44.61682933649949" lon="10.49508192616943"><ele>282.0</ele><time>2026-04-12T08:00:46Z</time></trkpt><trkpt lat="44.61684591871781" lon="10.494996224018093"><ele>282.5</ele><time>2026-04-12T08:00:48Z</time></trkpt><trkpt lat="44.61685653931071" lon="10.494896669704914"><ele>283.0</ele><time>2026-04-12T08:00:50Z</time></trkpt><trkpt lat="44.61694569199095" lon="10.494783485550759"><ele>287.0</ele><time>2026-04-12T08:00:52Z</time></trkpt><trkpt lat="44.61702411269909" lon="10.494705607069879"><ele>291.0</ele><time>2026-04-12T08:00:53Z</time></trkpt><trkpt lat="44.61711367949645" lon="10.494618303480534"><ele>295.0</ele><time>2026-04-12T08:00:54Z</time></trkpt><trkpt lat="44.617199864315154" lon="10.494530727094485"><ele>299.0</ele><time>2026-04-12T08:00:55Z</time></trkpt><trkpt lat="44.617257337821144" lon="10.49446532240724"><ele>303.0</ele><time>2026-04-12T08:00:56Z</time></trkpt><trkpt lat="44.617326287188575" lon="10.494435225571655"><ele>303.2</ele><time>2026-04-12T08:00:57Z</time></trkpt><trkpt lat="44.617441001129976" lon="10.494429654454493"><ele>303.4</ele><time>2026-04-12T08:00:58Z</time></trkpt><trkpt lat="44.61755346996617" lon="10.494423541284242"><ele>303.59999999999997</ele><time>2026-04-12T08:00:59Z</time></trkpt><trkpt lat="44.61761492771659" lon="10.49438963361073"><ele>303.8</ele><time>2026-04-12T08:01:00Z</time></trkpt><trkpt lat="44.61769247927299" lon="10.494322840642113"><ele>304.0</ele><time>2026-04-12T08:01:01Z</time></trkpt><trkpt lat="44.617782928964864" lon="10.494264045750848"><ele>306.2</ele><time>2026-04-12T08:01:02Z</time></trkpt><trkpt lat="44.61787481255985" lon="10.494231242946425"><ele>308.4</ele><time>2026-04-12T08:01:03Z</time></trkpt><trkpt lat="44.617970562586386" lon="10.494208618882272"><ele>310.6</ele><time>2026-04-12T08:01:04Z</time></trkpt><trkpt lat="44.61805708480827" lon="10.494178148211976"><ele>312.8</ele><time>2026-04-12T08:01:05Z</time></trkpt><trkpt lat="44.6181492500235" lon="10.49413690100326"><ele>315.0</ele><time>2026-04-12T08:01:06Z</time></trkpt><trkpt lat="44.61824575620372" lon="10.494119491229984"><ele>315.0</ele><time>2026-04-12T08:01:07Z</time></trkpt><trkpt lat="44.61832255338477" lon="10.494106457103287"><ele>315.0</ele><time>2026-04-12T08:01:08Z</time></trkpt><trkpt lat="44.61841585220203" lon="10.49405307960775"><ele>315.0</ele><time>2026-04-12T08:01:10Z</time></trkpt><trkpt lat="44.61843188864413" lon="10.493875670905938"><ele>315.0</ele><time>2026-04-12T08:01:12Z</time></trkpt><trkpt lat="44.6184196664921" lon="10.493737884130068"><ele>315.0</ele><time>2026-04-12T08:01:13Z</time></trkpt><trkpt lat="44.61841515625763" lon="10.493598930375313"><ele>318.0</ele><time>2026-04-12T08:01:14Z</time></trkpt><trkpt lat="44.61841612174768" lon="10.493472051045819"><ele>321.0</ele><time>2026-04-12T08:01:15Z</time></trkpt><trkpt lat="44.61841327556811" lon="10.49335218669983"><ele>324.0</ele><time>2026-04-12T08:01:16Z</time></trkpt><trkpt lat="44.6184173825811" lon="10.49320908467789"><ele>327.0</ele><time>2026-04-12T08:01:17Z</time></trkpt><trkpt lat="44.61841608535958" lon="10.493099325873947"><ele>330.0</ele><time>2026-04-12T08:01:18Z</time></trkpt><trkpt lat="44.618487854805544" lon="10.493054602410215"><ele>333.0</ele><time>2026-04-12T08:01:20Z</time></trkpt><trkpt lat="44.6184364896876" lon="10.49297540111971"><ele>333.0</ele><time>2026-04-12T08:01:23Z</time></trkpt><trkpt lat="44.618344459729165" lon="10.492931126656263"><ele>333.0</ele><time>2026-04-12T08:01:29Z</time></trkpt><trkpt lat="44.61826722949609" lon="10.492867557609936"><ele>333.0</ele><time>2026-04-12T08:01:30Z</time></trkpt><trkpt lat="44.61821862764713" lon="10.492778193124801"><ele>333.0</ele><time>2026-04-12T08:01:31Z</time></trkpt><trkpt lat="44.61824482496697" lon="10.492599195798423"><ele>333.0</ele><time>2026-04-12T08:01:33Z</time></trkpt><trkpt lat="44.61828092419359" lon="10.492494361530674"><ele>334.75</ele><time>2026-04-12T08:01:34Z</time></trkpt><trkpt lat="44.6183313226626" lon="10.492405939012839"><ele>336.5</ele><time>2026-04-12T08:01:35Z</time></trkpt><trkpt lat="44.61839978457129" lon="10.492302979006515"><ele>338.25</ele><time>2026-04-12T08:01:36Z</time></trkpt><trkpt lat="44.61849155734382" lon="10.492153940614559"><ele>340.0</ele><time>2026-04-12T08:01:37Z</time></trkpt><trkpt lat="44.61860327756168" lon="10.491970906049762"><ele>345.0</ele><time>2026-04-12T08:01:38Z</time></trkpt><trkpt lat="44.61873590353853" lon="10.491765263547062"><ele>350.0</ele><time>2026-04-12T08:01:39Z</time></trkpt><trkpt lat="44.618875537392235" lon="10.491558686441357"><ele>355.0</ele><time>2026-04-12T08:01:40Z</time></trkpt><trkpt lat="44.61899714518927" lon="10.491399947429787"><ele>354.0</ele><time>2026-04-12T08:01:41Z</time></trkpt><trkpt lat="44.61911688271428" lon="10.491223485440221"><ele>353.0</ele><time>2026-04-12T08:01:42Z</time></trkpt><trkpt lat="44.619238821913925" lon="10.491064074966026"><ele>352.0</ele><time>2026-04-12T08:01:43Z</time></trkpt><trkpt lat="44.61932011017055" lon="10.490955887144533"><ele>352.0</ele><time>2026-04-12T08:01:44Z</time></trkpt><trkpt lat="44.61940360200978" lon="10.49085508451427"><ele>352.0</ele><time>2026-04-12T08:01:45Z</time></trkpt><trkpt lat="44.61949495996567" lon="10.490745169840558"><ele>352.0</ele><time>2026-04-12T08:01:46Z</time></trkpt><trkpt lat="44.61959092151044" lon="10.49064368455264"><ele>352.0</ele><time>2026-04-12T08:01:47Z</time></trkpt><trkpt lat="44.61967617331393" lon="10.490531086295226"><ele>354.25</ele><time>2026-04-12T08:01:48Z</time></trkpt><trkpt lat="44.61976773329174" lon="10.490409804474853"><ele>356.5</ele><time>2026-04-12T08:01:49Z</time></trkpt><trkpt lat="44.61985328796922" lon="10.490284505281037"><ele>358.75</ele><time>2026-04-12T08:01:50Z</time></trkpt><trkpt lat="44.61992632513088" lon="10.490159402506999"><ele>361.0</ele><time>2026-04-12T08:01:51Z</time></trkpt><trkpt lat="44.61999580300743" lon="10.490038996322909"><ele>361.0</ele><time>2026-04-12T08:01:52Z</time></trkpt><trkpt lat="44.62006118172167" lon="10.48991270198295"><ele>361.0</ele><time>2026-04-12T08:01:53Z</time></trkpt><trkpt lat="44.62012415088852" lon="10.489788247880144"><ele>361.0</ele><time>2026-04-12T08:01:54Z</time></trkpt><trkpt lat="44.62018962522054" lon="10.489662095338941"><ele>361.0</ele><time>2026-04-12T08:01:55Z</time></trkpt><trkpt lat="44.62025683439149" lon="10.489546377580343"><ele>361.0</ele><time>2026-04-12T08:01:56Z</time></trkpt><trkpt lat="44.62033157836406" lon="10.489433644754161"><ele>363.20000000000005</ele><time>2026-04-12T08:01:57Z</time></trkpt><trkpt lat="44.62041440688868" lon="10.489316163363204"><ele>365.40000000000003</ele><time>2026-04-12T08:01:58Z</time></trkpt><trkpt lat="44.62049999481704" lon="10.489206496484071"><ele>367.6</ele><time>2026-04-12T08:01:59Z</time></trkpt><trkpt lat="44.62058654014175" lon="10.489105372168028"><ele>369.8</ele><time>2026-04-12T08:02:00Z</time></trkpt><trkpt lat="44.620650178966116" lon="10.489001673522006"><ele>372.0</ele><time>2026-04-12T08:02:01Z</time></trkpt><trkpt lat="44.6206796686105" lon="10.488880898162066"><ele>372.5</ele><time>2026-04-12T08:02:02Z</time></trkpt><trkpt lat="44.62070074079203" lon="10.488722759526421"><ele>373.0</ele><time>2026-04-12T08:02:03Z</time></trkpt><trkpt lat="44.620735044694676" lon="10.488566406760786"><ele>373.5</ele><time>2026-04-12T08:02:04Z</time></trkpt><trkpt lat="44.62077346096394" lon="10.488397525413028"><ele>374.0</ele><time>2026-04-12T08:02:05Z</time></trkpt><trkpt lat="44.62080599523095" lon="10.488232409989951"><ele>374.0</ele><time>2026-04-12T08:02:06Z</time></trkpt><trkpt lat="44.62082789261676" lon="10.488080554401568"><ele>374.0</ele><time>2026-04-12T08:02:07Z</time></trkpt><trkpt lat="44.620845218847855" lon="10.487952247228511"><ele>374.0</ele><time>2026-04-12T08:02:08Z</time></trkpt><trkpt lat="44.620841064863704" lon="10.487814209550352"><ele>374.0</ele><time>2026-04-12T08:02:09Z</time></trkpt><trkpt lat="44.620838282738696" lon="10.487644731057719"><ele>374.0</ele><time>2026-04-12T08:02:10Z</time></trkpt><trkpt lat="44.62083848068156" lon="10.487445668314725"><ele>373.79999999999995</ele><time>2026-04-12T08:02:11Z</time></trkpt><trkpt lat="44.62083928416623" lon="10.487284549994602"><ele>373.59999999999997</ele><time>2026-04-12T08:02:12Z</time></trkpt><trkpt lat="44.62084031015131" lon="10.487131877713411"><ele>373.4</ele><time>2026-04-12T08:02:13Z</time></trkpt><trkpt lat="44.6208476811706" lon="10.486984631535082"><ele>373.2</ele><time>2026-04-12T08:02:14Z</time></trkpt><trkpt lat="44.62085650817002" lon="10.486836085741675"><ele>373.0</ele><time>2026-04-12T08:02:15Z</time></trkpt><trkpt lat="44.620871077750266" lon="10.48670863560285"><ele>372.5</ele><time>2026-04-12T08:02:15.999Z</time></trkpt><trkpt lat="44.620901717462736" lon="10.486613565463113"><ele>372.0</ele><time>2026-04-12T08:02:16.999Z</time></trkpt><trkpt lat="44.62092742348139" lon="10.486527171141011"><ele>371.5</ele><time>2026-04-12T08:02:17.999Z</time></trkpt><trkpt lat="44.6209378998034" lon="10.48643203414879"><ele>371.0</ele><time>2026-04-12T08:02:18.999Z</time></trkpt><trkpt lat="44.62093409750698" lon="10.486338031794663"><ele>370.5</ele><time>2026-04-12T08:02:19.999Z</time></trkpt><trkpt lat="44.62092075938787" lon="10.486170331000324"><ele>370.0</ele><time>2026-04-12T08:02:21.999Z</time></trkpt><trkpt lat="44.62093288704078" lon="10.48599883235189"><ele>369.0</ele><time>2026-04-12T08:02:23.999Z</time></trkpt><trkpt lat="44.62097992542646" lon="10.485876496239216"><ele>368.0</ele><time>2026-04-12T08:02:25.999Z</time></trkpt><trkpt lat="44.62096853257427" lon="10.485721877676172"><ele>367.0</ele><time>2026-04-12T08:02:31.999Z</time></trkpt><trkpt lat="44.62092446525148" lon="10.485584954145967"><ele>366.0</ele><time>2026-04-12T08:02:32.999Z</time></trkpt><trkpt lat="44.62084602032658" lon="10.48544629808831"><ele>365.0</ele><time>2026-04-12T08:02:34Z</time></trkpt><trkpt lat="44.620784407451836" lon="10.48532463893613"><ele>364.5</ele><time>2026-04-12T08:02:35Z</time></trkpt><trkpt lat="44.62073210525317" lon="10.485193304567805"><ele>364.0</ele><time>2026-04-12T08:02:36Z</time></trkpt><trkpt lat="44.62067649440803" lon="10.48504803952737"><ele>363.5</ele><time>2026-04-12T08:02:37Z</time></trkpt><trkpt lat="44.62060450145029" lon="10.48492965605762"><ele>363.0</ele><time>2026-04-12T08:02:38Z</time></trkpt><trkpt lat="44.62050514262053" lon="10.484833666291735"><ele>363.0</ele><time>2026-04-12T08:02:39Z</time></trkpt><trkpt lat="44.620386667977904" lon="10.484718411262229"><ele>363.0</ele><time>2026-04-12T08:02:40Z</time></trkpt><trkpt lat="44.62026381918558" lon="10.48459845415585"><ele>363.0</ele><time>2026-04-12T08:02:41Z</time></trkpt><trkpt lat="44.62017798635803" lon="10.484514097008027"><ele>363.0</ele><time>2026-04-12T08:02:42Z</time></trkpt><trkpt lat="44.620122020529394" lon="10.484402876207204"><ele>363.8333333333333</ele><time>2026-04-12T08:02:43Z</time></trkpt><trkpt lat="44.62009603268849" lon="10.484293157721764"><ele>364.6666666666667</ele><time>2026-04-12T08:02:44Z</time></trkpt><trkpt lat="44.62009321484284" lon="10.484194847007993"><ele>365.5</ele><time>2026-04-12T08:02:45Z</time></trkpt><trkpt lat="44.62011154254408" lon="10.484103417127702"><ele>366.33333333333337</ele><time>2026-04-12T08:02:46Z</time></trkpt><trkpt lat="44.620155827113976" lon="10.484021353358724"><ele>367.1666666666667</ele><time>2026-04-12T08:02:47Z</time></trkpt><trkpt lat="44.620237861457824" lon="10.483856903231692"><ele>368.0</ele><time>2026-04-12T08:02:48Z</time></trkpt><trkpt lat="44.62032830502729" lon="10.483653764128803"><ele>369.75</ele><time>2026-04-12T08:02:49Z</time></trkpt><trkpt lat="44.62040043267461" lon="10.48348429186417"><ele>371.5</ele><time>2026-04-12T08:02:50Z</time></trkpt><trkpt lat="44.62042897917003" lon="10.483344170832318"><ele>373.25</ele><time>2026-04-12T08:02:51Z</time></trkpt><trkpt lat="44.620450611881694" lon="10.483165457149134"><ele>375.0</ele><time>2026-04-12T08:02:52Z</time></trkpt><trkpt lat="44.62049862551398" lon="10.482950553065837"><ele>376.5</ele><time>2026-04-12T08:02:53Z</time></trkpt><trkpt lat="44.62054084868184" lon="10.482759729640607"><ele>378.0</ele><time>2026-04-12T08:02:54Z</time></trkpt><trkpt lat="44.62059589376587" lon="10.482580942110108"><ele>379.5</ele><time>2026-04-12T08:02:55Z</time></trkpt><trkpt lat="44.62065859383845" lon="10.482412200784415"><ele>381.0</ele><time>2026-04-12T08:02:56Z</time></trkpt><trkpt lat="44.62070837457979" lon="10.482259130943511"><ele>381.0</ele><time>2026-04-12T08:02:57Z</time></trkpt><trkpt lat="44.62071109975782" lon="10.482135830519892"><ele>381.0</ele><time>2026-04-12T08:02:58Z</time></trkpt><trkpt lat="44.62068622910491" lon="10.481974882110512"><ele>381.0</ele><time>2026-04-12T08:02:59Z</time></trkpt><trkpt lat="44.620655644673505" lon="10.481760770565673"><ele>381.0</ele><time>2026-04-12T08:03:00Z</time></trkpt><trkpt lat="44.62062956960926" lon="10.481554169081374"><ele>380.75</ele><time>2026-04-12T08:03:01Z</time></trkpt><trkpt lat="44.62062139633572" lon="10.481394459745902"><ele>380.5</ele><time>2026-04-12T08:03:02Z</time></trkpt><trkpt lat="44.62062252316855" lon="10.481232727588635"><ele>380.25</ele><time>2026-04-12T08:03:03Z</time></trkpt><trkpt lat="44.620611604493156" lon="10.481072424514084"><ele>380.0</ele><time>2026-04-12T08:03:04Z</time></trkpt><trkpt lat="44.62057001373225" lon="10.480899187506765"><ele>377.0</ele><time>2026-04-12T08:03:06Z</time></trkpt><trkpt lat="44.62051743013637" lon="10.48066469668101"><ele>374.0</ele><time>2026-04-12T08:03:08Z</time></trkpt><trkpt lat="44.62047671808824" lon="10.480457064875697"><ele>371.0</ele><time>2026-04-12T08:03:09Z</time></trkpt><trkpt lat="44.62045120744696" lon="10.480221694816638"><ele>369.0</ele><time>2026-04-12T08:03:10Z</time></trkpt><trkpt lat="44.62041700828639" lon="10.48002032290731"><ele>367.0</ele><time>2026-04-12T08:03:11Z</time></trkpt><trkpt lat="44.62038814609044" lon="10.47987126263649"><ele>365.0</ele><time>2026-04-12T08:03:12Z</time></trkpt><trkpt lat="44.620355953815896" lon="10.479732087454007"><ele>363.0</ele><time>2026-04-12T08:03:13Z</time></trkpt><trkpt lat="44.62031721177341" lon="10.47960779214153"><ele>363.6666666666667</ele><time>2026-04-12T08:03:14Z</time></trkpt><trkpt lat="44.62026729687993" lon="10.479518392585938"><ele>364.3333333333333</ele><time>2026-04-12T08:03:15Z</time></trkpt><trkpt lat="44.620222610318855" lon="10.479435273844627"><ele>365.0</ele><time>2026-04-12T08:03:16Z</time></trkpt><trkpt lat="44.62017135341744" lon="10.47935258409565"><ele>365.66666666666663</ele><time>2026-04-12T08:03:17Z</time></trkpt><trkpt lat="44.62012050089521" lon="10.47927598895335"><ele>366.3333333333333</ele><time>2026-04-12T08:03:18Z</time></trkpt><trkpt lat="44.62009099147053" lon="10.479178661204717"><ele>367.0</ele><time>2026-04-12T08:03:19Z</time></trkpt><trkpt lat="44.6200791712875" lon="10.479048436418427"><ele>367.0</ele><time>2026-04-12T08:03:20Z</time></trkpt><trkpt lat="44.620082746500685" lon="10.47890144816038"><ele>367.0</ele><time>2026-04-12T08:03:21Z</time></trkpt><trkpt lat="44.62007415483675" lon="10.478754322828658"><ele>367.0</ele><time>2026-04-12T08:03:22Z</time></trkpt><trkpt lat="44.620028870269124" lon="10.478653278996795"><ele>367.0</ele><time>2026-04-12T08:03:23Z</time></trkpt><trkpt lat="44.61997235804222" lon="10.478564562759304"><ele>367.0</ele><time>2026-04-12T08:03:24Z</time></trkpt><trkpt lat="44.61989930779073" lon="10.478461242065231"><ele>366.0</ele><time>2026-04-12T08:03:25Z</time></trkpt><trkpt lat="44.61983681204557" lon="10.478343311830137"><ele>365.0</ele><time>2026-04-12T08:03:26Z</time></trkpt><trkpt lat="44.61981311142141" lon="10.47824994629658"><ele>364.0</ele><time>2026-04-12T08:03:28Z</time></trkpt><trkpt lat="44.61975470362184" lon="10.478191242004085"><ele>363.0</ele><time>2026-04-12T08:03:30Z</time></trkpt><trkpt lat="44.61971190999259" lon="10.47812192715378"><ele>362.0</ele><time>2026-04-12T08:03:31Z</time></trkpt><trkpt lat="44.61965733967341" lon="10.477994357624834"><ele>361.0</ele><time>2026-04-12T08:03:32Z</time></trkpt><trkpt lat="44.61960314966108" lon="10.477828238257377"><ele>358.25</ele><time>2026-04-12T08:03:33Z</time></trkpt><trkpt lat="44.61954797572923" lon="10.477654162977336"><ele>355.5</ele><time>2026-04-12T08:03:34Z</time></trkpt><trkpt lat="44.619509847777" lon="10.477472416927224"><ele>352.75</ele><time>2026-04-12T08:03:35Z</time></trkpt><trkpt lat="44.619484238898" lon="10.477280267855143"><ele>350.0</ele><time>2026-04-12T08:03:36Z</time></trkpt><trkpt lat="44.61947106871052" lon="10.477079474217991"><ele>350.0</ele><time>2026-04-12T08:03:37Z</time></trkpt><trkpt lat="44.61946415419989" lon="10.476886544830862"><ele>350.0</ele><time>2026-04-12T08:03:38Z</time></trkpt><trkpt lat="44.61946979018391" lon="10.476672512303205"><ele>350.0</ele><time>2026-04-12T08:03:39Z</time></trkpt><trkpt lat="44.61948759310402" lon="10.476445765997425"><ele>350.25</ele><time>2026-04-12T08:03:40Z</time></trkpt><trkpt lat="44.61949394657363" lon="10.476248923191898"><ele>350.5</ele><time>2026-04-12T08:03:41Z</time></trkpt><trkpt lat="44.61947945653667" lon="10.476086595014198"><ele>350.75</ele><time>2026-04-12T08:03:42Z</time></trkpt><trkpt lat="44.6194265208518" lon="10.475955144001832"><ele>351.0</ele><time>2026-04-12T08:03:43Z</time></trkpt><trkpt lat="44.61935728299215" lon="10.475844994751872"><ele>352.25</ele><time>2026-04-12T08:03:44Z</time></trkpt><trkpt lat="44.61927974332399" lon="10.475735803437919"><ele>353.5</ele><time>2026-04-12T08:03:45Z</time></trkpt><trkpt lat="44.619207203843395" lon="10.475611709296668"><ele>354.75</ele><time>2026-04-12T08:03:46Z</time></trkpt><trkpt lat="44.61913853935141" lon="10.475486868576548"><ele>356.0</ele><time>2026-04-12T08:03:47Z</time></trkpt><trkpt lat="44.619076294149934" lon="10.475352569139098"><ele>356.25</ele><time>2026-04-12T08:03:48Z</time></trkpt><trkpt lat="44.619033857760726" lon="10.475195132313686"><ele>356.5</ele><time>2026-04-12T08:03:49Z</time></trkpt><trkpt lat="44.61901441191313" lon="10.475031828811602"><ele>356.75</ele><time>2026-04-12T08:03:50Z</time></trkpt><trkpt lat="44.61902208586087" lon="10.474851790004964"><ele>357.0</ele><time>2026-04-12T08:03:51Z</time></trkpt><trkpt lat="44.61904861640128" lon="10.474666447479162"><ele>356.0</ele><time>2026-04-12T08:03:52Z</time></trkpt><trkpt lat="44.61907333464585" lon="10.47447488070701"><ele>355.0</ele><time>2026-04-12T08:03:53Z</time></trkpt><trkpt lat="44.619095236327965" lon="10.474274313144319"><ele>354.0</ele><time>2026-04-12T08:03:54Z</time></trkpt><trkpt lat="44.61911546519159" lon="10.474062988211294"><ele>353.0</ele><time>2026-04-12T08:03:55Z</time></trkpt><trkpt lat="44.61913597879511" lon="10.473863771671436"><ele>353.25</ele><time>2026-04-12T08:03:56Z</time></trkpt><trkpt lat="44.61915270878292" lon="10.473668839215279"><ele>353.5</ele><time>2026-04-12T08:03:57Z</time></trkpt><trkpt lat="44.61916600511807" lon="10.473478955164952"><ele>353.75</ele><time>2026-04-12T08:03:58Z</time></trkpt><trkpt lat="44.61919282161068" lon="10.47328864404689"><ele>354.0</ele><time>2026-04-12T08:03:59Z</time></trkpt><trkpt lat="44.619201341627516" lon="10.473108197219679"><ele>354.0</ele><time>2026-04-12T08:04:00Z</time></trkpt><trkpt lat="44.619217893500775" lon="10.47295245437229"><ele>354.0</ele><time>2026-04-12T08:04:01Z</time></trkpt><trkpt lat="44.619235066180956" lon="10.472824970728123"><ele>354.0</ele><time>2026-04-12T08:04:02Z</time></trkpt><trkpt lat="44.619251146874774" lon="10.472697834597433"><ele>354.0</ele><time>2026-04-12T08:04:03Z</time></trkpt><trkpt lat="44.61926270398647" lon="10.472576724483696"><ele>354.0</ele><time>2026-04-12T08:04:04Z</time></trkpt><trkpt lat="44.61927024713182" lon="10.472462759565762"><ele>354.5</ele><time>2026-04-12T08:04:05Z</time></trkpt><trkpt lat="44.6192781638452" lon="10.472364949300461"><ele>355.0</ele><time>2026-04-12T08:04:06Z</time></trkpt><trkpt lat="44.61928789134299" lon="10.472270708408901"><ele>355.5</ele><time>2026-04-12T08:04:07Z</time></trkpt><trkpt lat="44.61930072055032" lon="10.472183184676009"><ele>356.0</ele><time>2026-04-12T08:04:08Z</time></trkpt><trkpt lat="44.619319514324964" lon="10.4720491812573"><ele>356.5</ele><time>2026-04-12T08:04:10Z</time></trkpt><trkpt lat="44.61934462343921" lon="10.47192563646049"><ele>357.0</ele><time>2026-04-12T08:04:13Z</time></trkpt><trkpt lat="44.61931218434719" lon="10.471722323859217"><ele>357.25</ele><time>2026-04-12T08:04:15Z</time></trkpt><trkpt lat="44.61930721896666" lon="10.471562919530367"><ele>357.5</ele><time>2026-04-12T08:04:16Z</time></trkpt><trkpt lat="44.6193096141743" lon="10.471379576369282"><ele>357.75</ele><time>2026-04-12T08:04:17Z</time></trkpt><trkpt lat="44.619312690698095" lon="10.471181287334709"><ele>358.0</ele><time>2026-04-12T08:04:18Z</time></trkpt><trkpt lat="44.6193269955576" lon="10.470971722570699"><ele>359.75</ele><time>2026-04-12T08:04:19Z</time></trkpt><trkpt lat="44.61936111509954" lon="10.470746474606964"><ele>361.5</ele><time>2026-04-12T08:04:20Z</time></trkpt><trkpt lat="44.61941630398599" lon="10.470568070881532"><ele>363.25</ele><time>2026-04-12T08:04:21Z</time></trkpt><trkpt lat="44.61946438243638" lon="10.470436383888451"><ele>365.0</ele><time>2026-04-12T08:04:22Z</time></trkpt><trkpt lat="44.61949855805094" lon="10.47029196950251"><ele>366.0</ele><time>2026-04-12T08:04:23Z</time></trkpt><trkpt lat="44.619507273398455" lon="10.470172351329456"><ele>367.0</ele><time>2026-04-12T08:04:24Z</time></trkpt><trkpt lat="44.61948963449195" lon="10.470046084800028"><ele>368.0</ele><time>2026-04-12T08:04:25Z</time></trkpt><trkpt lat="44.61943307168307" lon="10.469925487093526"><ele>369.0</ele><time>2026-04-12T08:04:26Z</time></trkpt><trkpt lat="44.61937009654744" lon="10.469811958458692"><ele>370.0</ele><time>2026-04-12T08:04:27Z</time></trkpt><trkpt lat="44.61929135802685" lon="10.469720448278007"><ele>370.0</ele><time>2026-04-12T08:04:28Z</time></trkpt><trkpt lat="44.619206813150264" lon="10.469635995965488"><ele>370.0</ele><time>2026-04-12T08:04:29Z</time></trkpt><trkpt lat="44.61912527778429" lon="10.469564980606295"><ele>370.0</ele><time>2026-04-12T08:04:30Z</time></trkpt><trkpt lat="44.61905077151314" lon="10.46950737432999"><ele>370.0</ele><time>2026-04-12T08:04:31Z</time></trkpt><trkpt lat="44.618983914965796" lon="10.469449339250842"><ele>370.0</ele><time>2026-04-12T08:04:32Z</time></trkpt><trkpt lat="44.618929225261176" lon="10.469371596288527"><ele>370.0</ele><time>2026-04-12T08:04:33Z</time></trkpt><trkpt lat="44.618875217105774" lon="10.469281001821534"><ele>369.25</ele><time>2026-04-12T08:04:34Z</time></trkpt><trkpt lat="44.618814715762646" lon="10.469145698196975"><ele>368.5</ele><time>2026-04-12T08:04:35Z</time></trkpt><trkpt lat="44.61873984744087" lon="10.468993825720982"><ele>367.75</ele><time>2026-04-12T08:04:36Z</time></trkpt><trkpt lat="44.618682108406304" lon="10.468820740979613"><ele>367.0</ele><time>2026-04-12T08:04:37Z</time></trkpt><trkpt lat="44.61863382086967" lon="10.468688749953461"><ele>368.8</ele><time>2026-04-12T08:04:38Z</time></trkpt><trkpt lat="44.618594101122284" lon="10.468569673842195"><ele>370.6</ele><time>2026-04-12T08:04:39Z</time></trkpt><trkpt lat="44.61858374665447" lon="10.468433649190883"><ele>372.40000000000003</ele><time>2026-04-12T08:04:40Z</time></trkpt><trkpt lat="44.61857787325874" lon="10.468268852073477"><ele>374.20000000000005</ele><time>2026-04-12T08:04:41Z</time></trkpt><trkpt lat="44.61856460142278" lon="10.468075602097311"><ele>376.0</ele><time>2026-04-12T08:04:42Z</time></trkpt><trkpt lat="44.61856561587018" lon="10.46790792441045"><ele>376.0</ele><time>2026-04-12T08:04:43Z</time></trkpt><trkpt lat="44.618565371255514" lon="10.467777769534857"><ele>376.0</ele><time>2026-04-12T08:04:44Z</time></trkpt><trkpt lat="44.61854987393237" lon="10.467611161298233"><ele>376.0</ele><time>2026-04-12T08:04:45Z</time></trkpt><trkpt lat="44.61850995892526" lon="10.46748097651083"><ele>376.0</ele><time>2026-04-12T08:04:46Z</time></trkpt><trkpt lat="44.61844324375223" lon="10.467341146228181"><ele>376.0</ele><time>2026-04-12T08:04:47Z</time></trkpt><trkpt lat="44.618367424403054" lon="10.46721042022869"><ele>374.25</ele><time>2026-04-12T08:04:48Z</time></trkpt><trkpt lat="44.61829205150246" lon="10.467071169775817"><ele>372.5</ele><time>2026-04-12T08:04:49Z</time></trkpt><trkpt lat="44.618231497391804" lon="10.46692266795829"><ele>370.75</ele><time>2026-04-12T08:04:50Z</time></trkpt><trkpt lat="44.61818181022751" lon="10.466779989569813"><ele>369.0</ele><time>2026-04-12T08:04:51Z</time></trkpt><trkpt lat="44.61814121982765" lon="10.466653412044492"><ele>369.0</ele><time>2026-04-12T08:04:52Z</time></trkpt><trkpt lat="44.61810337250838" lon="10.46654606337632"><ele>369.0</ele><time>2026-04-12T08:04:53Z</time></trkpt><trkpt lat="44.6180711466289" lon="10.46644997942489"><ele>369.0</ele><time>2026-04-12T08:04:54Z</time></trkpt><trkpt lat="44.61801563353782" lon="10.466289989419156"><ele>369.0</ele><time>2026-04-12T08:04:56Z</time></trkpt><trkpt lat="44.61791525199756" lon="10.466198649080786"><ele>369.0</ele><time>2026-04-12T08:04:57Z</time></trkpt><trkpt lat="44.61781716093599" lon="10.466104176520197"><ele>369.0</ele><time>2026-04-12T08:04:58Z</time></trkpt><trkpt lat="44.61769636956853" lon="10.466023418123813"><ele>369.0</ele><time>2026-04-12T08:04:59Z</time></trkpt><trkpt lat="44.617596621288946" lon="10.465917706991986"><ele>369.0</ele><time>2026-04-12T08:05:00Z</time></trkpt><trkpt lat="44.61751991170372" lon="10.465791865072651"><ele>369.0</ele><time>2026-04-12T08:05:01Z</time></trkpt><trkpt lat="44.61743238684156" lon="10.465677196970631"><ele>369.0</ele><time>2026-04-12T08:05:02Z</time></trkpt><trkpt lat="44.617339711412264" lon="10.46558252902982"><ele>369.0</ele><time>2026-04-12T08:05:03Z</time></trkpt><trkpt lat="44.61726794901511" lon="10.465488443637556"><ele>369.0</ele><time>2026-04-12T08:05:04Z</time></trkpt><trkpt lat="44.61720219453604" lon="10.465404480013516"><ele>369.0</ele><time>2026-04-12T08:05:05Z</time></trkpt><trkpt lat="44.61713176119168" lon="10.465345808784539"><ele>369.0</ele><time>2026-04-12T08:05:06Z</time></trkpt><trkpt lat="44.617040017334055" lon="10.46531764653101"><ele>368.0</ele><time>2026-04-12T08:05:07Z</time></trkpt><trkpt lat="44.616941666513384" lon="10.4652958920014"><ele>367.0</ele><time>2026-04-12T08:05:08Z</time></trkpt><trkpt lat="44.61683822110887" lon="10.465338525704178"><ele>366.0</ele><time>2026-04-12T08:05:09Z</time></trkpt><trkpt lat="44.61674863896131" lon="10.465413288796986"><ele>365.0</ele><time>2026-04-12T08:05:10Z</time></trkpt><trkpt lat="44.61667860843918" lon="10.46553243526963"><ele>364.0</ele><time>2026-04-12T08:05:11Z</time></trkpt><trkpt lat="44.616658671589896" lon="10.465718942813563"><ele>363.25</ele><time>2026-04-12T08:05:12Z</time></trkpt><trkpt lat="44.6166392875729" lon="10.465901090766003"><ele>362.5</ele><time>2026-04-12T08:05:13Z</time></trkpt><trkpt lat="44.61660496681617" lon="10.466079814530175"><ele>361.75</ele><time>2026-04-12T08:05:14Z</time></trkpt><trkpt lat="44.61657261666656" lon="10.466253325209"><ele>361.0</ele><time>2026-04-12T08:05:15Z</time></trkpt><trkpt lat="44.6165243543914" lon="10.466422478682436"><ele>360.75</ele><time>2026-04-12T08:05:16Z</time></trkpt><trkpt lat="44.616463852582655" lon="10.466590028647238"><ele>360.5</ele><time>2026-04-12T08:05:17Z</time></trkpt><trkpt lat="44.616398851933894" lon="10.466761449417346"><ele>360.25</ele><time>2026-04-12T08:05:18Z</time></trkpt><trkpt lat="44.61632337856208" lon="10.466948106741059"><ele>360.0</ele><time>2026-04-12T08:05:19Z</time></trkpt><trkpt lat="44.616238952420424" lon="10.467146978800521"><ele>363.0</ele><time>2026-04-12T08:05:20Z</time></trkpt><trkpt lat="44.61615247901629" lon="10.467355752313752"><ele>366.0</ele><time>2026-04-12T08:05:21Z</time></trkpt><trkpt lat="44.61608306617485" lon="10.467575163857648"><ele>369.0</ele><time>2026-04-12T08:05:22Z</time></trkpt><trkpt lat="44.615995435212795" lon="10.467788093973017"><ele>367.3333333333333</ele><time>2026-04-12T08:05:23Z</time></trkpt><trkpt lat="44.61594681516874" lon="10.468023127174552"><ele>365.66666666666663</ele><time>2026-04-12T08:05:24Z</time></trkpt><trkpt lat="44.61593862368303" lon="10.468237281640501"><ele>364.0</ele><time>2026-04-12T08:05:25Z</time></trkpt><trkpt lat="44.61589022914959" lon="10.468408955726716"><ele>364.0</ele><time>2026-04-12T08:05:26Z</time></trkpt><trkpt lat="44.61584279388981" lon="10.468571644315592"><ele>364.0</ele><time>2026-04-12T08:05:27Z</time></trkpt><trkpt lat="44.61578180173005" lon="10.468723832116765"><ele>364.0</ele><time>2026-04-12T08:05:28Z</time></trkpt><trkpt lat="44.615706382534775" lon="10.468853122873467"><ele>364.0</ele><time>2026-04-12T08:05:29Z</time></trkpt><trkpt lat="44.615617811632596" lon="10.468955312872076"><ele>364.75</ele><time>2026-04-12T08:05:30Z</time></trkpt><trkpt lat="44.61551417791697" lon="10.469050238114045"><ele>365.5</ele><time>2026-04-12T08:05:31Z</time></trkpt><trkpt lat="44.61540208461539" lon="10.46913726469786"><ele>366.25</ele><time>2026-04-12T08:05:32Z</time></trkpt><trkpt lat="44.615300266651175" lon="10.469220831960294"><ele>367.0</ele><time>2026-04-12T08:05:33Z</time></trkpt><trkpt lat="44.61521806971456" lon="10.4692981424282"><ele>367.0</ele><time>2026-04-12T08:05:34Z</time></trkpt><trkpt lat="44.61516116740488" lon="10.469379240025015"><ele>367.0</ele><time>2026-04-12T08:05:35Z</time></trkpt><trkpt lat="44.61512813876772" lon="10.469455014600728"><ele>367.0</ele><time>2026-04-12T08:05:36Z</time></trkpt><trkpt lat="44.61500533410716" lon="10.469464410575208"><ele>367.0</ele><time>2026-04-12T08:05:38Z</time></trkpt><trkpt lat="44.614939079743124" lon="10.469495033874487"><ele>367.0</ele><time>2026-04-12T08:05:39Z</time></trkpt><trkpt lat="44.61486654089822" lon="10.469492199075187"><ele>367.0</ele><time>2026-04-12T08:05:40Z</time></trkpt><trkpt lat="44.61479103593765" lon="10.469483727271022"><ele>367.0</ele><time>2026-04-12T08:05:41Z</time></trkpt><trkpt lat="44.61471782038054" lon="10.469463854038517"><ele>367.0</ele><time>2026-04-12T08:05:42Z</time></trkpt><trkpt lat="44.61464639554068" lon="10.46943303140302"><ele>367.0</ele><time>2026-04-12T08:05:43Z</time></trkpt><trkpt lat="44.61457888034521" lon="10.469392985298791"><ele>367.0</ele><time>2026-04-12T08:05:44Z</time></trkpt><trkpt lat="44.61451328461954" lon="10.469347915667077"><ele>367.0</ele><time>2026-04-12T08:05:45Z</time></trkpt><trkpt lat="44.61444654051169" lon="10.469300774618233"><ele>367.0</ele><time>2026-04-12T08:05:46Z</time></trkpt><trkpt lat="44.61437708687069" lon="10.469253948990476"><ele>367.0</ele><time>2026-04-12T08:05:47Z</time></trkpt><trkpt lat="44.614307313671766" lon="10.469203284647628"><ele>364.4285714285714</ele><time>2026-04-12T08:05:48Z</time></trkpt><trkpt lat="44.6142361912096" lon="10.469152220727205"><ele>361.8571428571429</ele><time>2026-04-12T08:05:49Z</time></trkpt><trkpt lat="44.61416640758376" lon="10.469106910912565"><ele>359.2857142857143</ele><time>2026-04-12T08:05:50Z</time></trkpt><trkpt lat="44.6140973834544" lon="10.469073834276761"><ele>356.71428571428567</ele><time>2026-04-12T08:05:51Z</time></trkpt><trkpt lat="44.614039770030914" lon="10.469033566255339"><ele>354.1428571428571</ele><time>2026-04-12T08:05:52Z</time></trkpt><trkpt lat="44.61397725140409" lon="10.469019299221408"><ele>351.57142857142856</ele><time>2026-04-12T08:05:53Z</time></trkpt><trkpt lat="44.61391295948514" lon="10.469016294934741"><ele>349.0</ele><time>2026-04-12T08:05:54Z</time></trkpt><trkpt lat="44.61384115945359" lon="10.46902695857389"><ele>349.0</ele><time>2026-04-12T08:05:55Z</time></trkpt><trkpt lat="44.613770126027994" lon="10.469070784136756"><ele>349.0</ele><time>2026-04-12T08:05:56Z</time></trkpt><trkpt lat="44.61369381396939" lon="10.469088633082043"><ele>349.0</ele><time>2026-04-12T08:05:57Z</time></trkpt><trkpt lat="44.61366040667891" lon="10.469178240588077"><ele>349.0</ele><time>2026-04-12T08:05:58Z</time></trkpt><trkpt lat="44.613589971186684" lon="10.469291577183535"><ele>349.0</ele><time>2026-04-12T08:06:00Z</time></trkpt><trkpt lat="44.61352624476351" lon="10.46936764944228"><ele>349.0</ele><time>2026-04-12T08:06:01Z</time></trkpt><trkpt lat="44.6134625129773" lon="10.469433516405951"><ele>343.3333333333333</ele><time>2026-04-12T08:06:02Z</time></trkpt><trkpt lat="44.61321965086442" lon="10.469199598096953"><ele>337.6666666666667</ele><time>2026-04-12T08:06:03Z</time></trkpt><trkpt lat="44.613109249143" lon="10.469218667802435"><ele>332.0</ele><time>2026-04-12T08:06:04Z</time></trkpt><trkpt lat="44.61300530619307" lon="10.46926342376143"><ele>332.0</ele><time>2026-04-12T08:06:05Z</time></trkpt><trkpt lat="44.6129168170643" lon="10.469319150285974"><ele>332.0</ele><time>2026-04-12T08:06:06Z</time></trkpt><trkpt lat="44.61284139564913" lon="10.46937560459116"><ele>332.0</ele><time>2026-04-12T08:06:07Z</time></trkpt><trkpt lat="44.61276515382639" lon="10.46945264009999"><ele>332.0</ele><time>2026-04-12T08:06:08Z</time></trkpt><trkpt lat="44.612693132750366" lon="10.469532592300975"><ele>332.0</ele><time>2026-04-12T08:06:09Z</time></trkpt><trkpt lat="44.61262492301319" lon="10.469592659696934"><ele>332.0</ele><time>2026-04-12T08:06:10Z</time></trkpt><trkpt lat="44.61255462398363" lon="10.469613669346158"><ele>328.83333333333337</ele><time>2026-04-12T08:06:11Z</time></trkpt><trkpt lat="44.612480696519924" lon="10.46960274438265"><ele>325.6666666666667</ele><time>2026-04-12T08:06:12Z</time></trkpt><trkpt lat="44.61241458772358" lon="10.46956318062694"><ele>322.5</ele><time>2026-04-12T08:06:13Z</time></trkpt><trkpt lat="44.61234850459062" lon="10.469516129021224"><ele>319.3333333333333</ele><time>2026-04-12T08:06:14Z</time></trkpt><trkpt lat="44.61227965954429" lon="10.46946704670539"><ele>316.16666666666663</ele><time>2026-04-12T08:06:15Z</time></trkpt><trkpt lat="44.61222062792099" lon="10.469417417151801"><ele>313.0</ele><time>2026-04-12T08:06:16Z</time></trkpt><trkpt lat="44.612155255220394" lon="10.469286964082086"><ele>313.0</ele><time>2026-04-12T08:06:18Z</time></trkpt><trkpt lat="44.61207651003773" lon="10.469257700665892"><ele>313.0</ele><time>2026-04-12T08:06:20Z</time></trkpt><trkpt lat="44.612053402705044" lon="10.469394125473425"><ele>313.0</ele><time>2026-04-12T08:06:22Z</time></trkpt><trkpt lat="44.61208795132923" lon="10.469494984413783"><ele>313.0</ele><time>2026-04-12T08:06:23Z</time></trkpt><trkpt lat="44.61213514319979" lon="10.469630053192878"><ele>313.0</ele><time>2026-04-12T08:06:24Z</time></trkpt><trkpt lat="44.61217229602332" lon="10.46979258603621"><ele>310.8</ele><time>2026-04-12T08:06:25Z</time></trkpt><trkpt lat="44.61219035838343" lon="10.469946402245554"><ele>308.6</ele><time>2026-04-12T08:06:26Z</time></trkpt><trkpt lat="44.612209783545424" lon="10.470084834569361"><ele>306.4</ele><time>2026-04-12T08:06:27Z</time></trkpt><trkpt lat="44.61222687781835" lon="10.47022255968243"><ele>304.2</ele><time>2026-04-12T08:06:28Z</time></trkpt><trkpt lat="44.612255753598994" lon="10.470355740145937"><ele>302.0</ele><time>2026-04-12T08:06:28.999Z</time></trkpt><trkpt lat="44.6122786642869" lon="10.470497490312757"><ele>299.6666666666667</ele><time>2026-04-12T08:06:29.999Z</time></trkpt><trkpt lat="44.61230171934026" lon="10.470624462110393"><ele>297.33333333333337</ele><time>2026-04-12T08:06:30.999Z</time></trkpt><trkpt lat="44.61230946863585" lon="10.47075722877159"><ele>295.0</ele><time>2026-04-12T08:06:31.999Z</time></trkpt><trkpt lat="44.612323817587004" lon="10.470885565051393"><ele>292.6666666666667</ele><time>2026-04-12T08:06:32.999Z</time></trkpt><trkpt lat="44.61234067013491" lon="10.470994512125257"><ele>290.3333333333333</ele><time>2026-04-12T08:06:33.999Z</time></trkpt><trkpt lat="44.612349467257225" lon="10.471095056178031"><ele>288.0</ele><time>2026-04-12T08:06:34.999Z</time></trkpt><trkpt lat="44.61236487967838" lon="10.471244983527395"><ele>286.0</ele><time>2026-04-12T08:06:36.999Z</time></trkpt><trkpt lat="44.61236944128131" lon="10.471405180707444"><ele>284.0</ele><time>2026-04-12T08:06:38.999Z</time></trkpt><trkpt lat="44.612389034198536" lon="10.471561458287038"><ele>282.0</ele><time>2026-04-12T08:06:40.999Z</time></trkpt><trkpt lat="44.61240964049923" lon="10.471648770117017"><ele>280.0</ele><time>2026-04-12T08:06:41.999Z</time></trkpt><trkpt lat="44.61240716478903" lon="10.471808399582963"><ele>278.0</ele><time>2026-04-12T08:06:44Z</time></trkpt><trkpt lat="44.6124108988302" lon="10.471931282076296"><ele>278.0</ele><time>2026-04-12T08:06:46Z</time></trkpt><trkpt lat="44.61242146434763" lon="10.472038244197607"><ele>278.0</ele><time>2026-04-12T08:06:48Z</time></trkpt><trkpt lat="44.612426417502036" lon="10.472137420525733"><ele>278.0</ele><time>2026-04-12T08:06:52Z</time></trkpt><trkpt lat="44.61241926945828" lon="10.472225757215586"><ele>278.0</ele><time>2026-04-12T08:06:55Z</time></trkpt><trkpt lat="44.61237769803478" lon="10.472294597278411"><ele>278.0</ele><time>2026-04-12T08:06:58Z</time></trkpt><trkpt lat="44.6123223926386" lon="10.472353419183923"><ele>278.0</ele><time>2026-04-12T08:06:59Z</time></trkpt><trkpt lat="44.612252315485875" lon="10.472368455942911"><ele>278.0</ele><time>2026-04-12T08:07:00Z</time></trkpt><trkpt lat="44.61217752965877" lon="10.472354424831476"><ele>276.8</ele><time>2026-04-12T08:07:01Z</time></trkpt><trkpt lat="44.61211546205909" lon="10.472335109927952"><ele>275.6</ele><time>2026-04-12T08:07:02Z</time></trkpt><trkpt lat="44.61200331925963" lon="10.472279286269893"><ele>274.4</ele><time>2026-04-12T08:07:04Z</time></trkpt><trkpt lat="44.61191058689242" lon="10.472178939724595"><ele>273.2</ele><time>2026-04-12T08:07:06Z</time></trkpt><trkpt lat="44.611788859451316" lon="10.472112577003143"><ele>272.0</ele><time>2026-04-12T08:07:08Z</time></trkpt><trkpt lat="44.61170156307502" lon="10.472083786360685"><ele>269.5</ele><time>2026-04-12T08:07:09Z</time></trkpt><trkpt lat="44.6116230449536" lon="10.472059224693663"><ele>267.0</ele><time>2026-04-12T08:07:10Z</time></trkpt><trkpt lat="44.61155732106535" lon="10.47203719155022"><ele>264.5</ele><time>2026-04-12T08:07:11Z</time></trkpt><trkpt lat="44.611440758106895" lon="10.471980493654291"><ele>262.0</ele><time>2026-04-12T08:07:13Z</time></trkpt><trkpt lat="44.61137772377906" lon="10.47195651678826"><ele>259.5</ele><time>2026-04-12T08:07:14Z</time></trkpt><trkpt lat="44.611276696483785" lon="10.471899076139803"><ele>257.0</ele><time>2026-04-12T08:07:16Z</time></trkpt><trkpt lat="44.61120456748007" lon="10.471867199170658"><ele>255.2</ele><time>2026-04-12T08:07:17Z</time></trkpt><trkpt lat="44.61109077411843" lon="10.47181611040228"><ele>253.39999999999998</ele><time>2026-04-12T08:07:19Z</time></trkpt><trkpt lat="44.61098434434702" lon="10.471760610844857"><ele>251.60000000000002</ele><time>2026-04-12T08:07:21Z</time></trkpt><trkpt lat="44.6109146690084" lon="10.471735011346366"><ele>249.8</ele><time>2026-04-12T08:07:23Z</time></trkpt><trkpt lat="44.61085209121693" lon="10.471714930891913"><ele>248.0</ele><time>2026-04-12T08:07:46Z</time></trkpt><trkpt lat="44.6107573815413" lon="10.471630475388064"><ele>248.0</ele><time>2026-04-12T08:07:48Z</time></trkpt><trkpt lat="44.610691273746426" lon="10.471554786053035"><ele>248.0</ele><time>2026-04-12T08:07:49Z</time></trkpt><trkpt lat="44.61063186406634" lon="10.471436341572954"><ele>248.0</ele><time>2026-04-12T08:07:50Z</time></trkpt><trkpt lat="44.610599227037305" lon="10.471295929079929"><ele>248.0</ele><time>2026-04-12T08:07:51Z</time></trkpt><trkpt lat="44.610581703588416" lon="10.471139136884197"><ele>248.0</ele><time>2026-04-12T08:07:52Z</time></trkpt><trkpt lat="44.61056206724448" lon="10.471015378592337"><ele>248.25</ele><time>2026-04-12T08:07:53Z</time></trkpt><trkpt lat="44.61052091219247" lon="10.470883808977"><ele>248.5</ele><time>2026-04-12T08:07:55Z</time></trkpt><trkpt lat="44.61050126091055" lon="10.470764441338446"><ele>248.75</ele><time>2026-04-12T08:07:57Z</time></trkpt><trkpt lat="44.6104720321314" lon="10.470558465280948"><ele>249.0</ele><time>2026-04-12T08:07:59Z</time></trkpt><trkpt lat="44.61045261526404" lon="10.470401492445712"><ele>249.39999999999998</ele><time>2026-04-12T08:08:00Z</time></trkpt><trkpt lat="44.610438457890844" lon="10.470277495506714"><ele>249.79999999999998</ele><time>2026-04-12T08:08:01Z</time></trkpt><trkpt lat="44.6104323501648" lon="10.47012559429196"><ele>250.20000000000002</ele><time>2026-04-12T08:08:03Z</time></trkpt><trkpt lat="44.61043898258325" lon="10.469961673967997"><ele>250.60000000000002</ele><time>2026-04-12T08:08:05Z</time></trkpt><trkpt lat="44.61042426828377" lon="10.469835700183525"><ele>251.0</ele><time>2026-04-12T08:08:07Z</time></trkpt><trkpt lat="44.61038975419954" lon="10.469712603197756"><ele>251.4</ele><time>2026-04-12T08:08:09Z</time></trkpt><trkpt lat="44.610324411233144" lon="10.469621878367496"><ele>251.8</ele><time>2026-04-12T08:08:11Z</time></trkpt><trkpt lat="44.610213242252456" lon="10.469587425736618"><ele>252.20000000000002</ele><time>2026-04-12T08:08:13Z</time></trkpt><trkpt lat="44.61010517129445" lon="10.469687560777079"><ele>252.60000000000002</ele><time>2026-04-12T08:08:15Z</time></trkpt><trkpt lat="44.61005352931258" lon="10.469753330692473"><ele>253.0</ele><time>2026-04-12T08:08:15.999Z</time></trkpt><trkpt lat="44.60998520310537" lon="10.469791637162626"><ele>253.4</ele><time>2026-04-12T08:08:16.999Z</time></trkpt><trkpt lat="44.60989955487054" lon="10.469790821970495"><ele>253.8</ele><time>2026-04-12T08:08:17.999Z</time></trkpt><trkpt lat="44.6097759061986" lon="10.469766052295448"><ele>254.2</ele><time>2026-04-12T08:08:18.999Z</time></trkpt><trkpt lat="44.60966197241945" lon="10.469719359106675"><ele>254.6</ele><time>2026-04-12T08:08:19.999Z</time></trkpt><trkpt lat="44.609580908870974" lon="10.469649806710308"><ele>255.0</ele><time>2026-04-12T08:08:20.999Z</time></trkpt><trkpt lat="44.609484610047694" lon="10.469554865134837"><ele>257.5</ele><time>2026-04-12T08:08:21.999Z</time></trkpt><trkpt lat="44.6093554604066" lon="10.469445665584445"><ele>260.0</ele><time>2026-04-12T08:08:22.999Z</time></trkpt><trkpt lat="44.60922707975437" lon="10.469342534836953"><ele>262.5</ele><time>2026-04-12T08:08:23.999Z</time></trkpt><trkpt lat="44.60914520562125" lon="10.469268104972699"><ele>265.0</ele><time>2026-04-12T08:08:24.999Z</time></trkpt><trkpt lat="44.60906079282431" lon="10.46921138398569"><ele>265.0</ele><time>2026-04-12T08:08:26.999Z</time></trkpt><trkpt lat="44.6089917906751" lon="10.4691241738608"><ele>265.0</ele><time>2026-04-12T08:08:54Z</time></trkpt><trkpt lat="44.60892037713422" lon="10.469162431503191"><ele>265.0</ele><time>2026-04-12T08:08:58Z</time></trkpt><trkpt lat="44.60886908611327" lon="10.469259189605921"><ele>265.0</ele><time>2026-04-12T08:09:02Z</time></trkpt><trkpt lat="44.6088180393687" lon="10.469363244961116"><ele>265.0</ele><time>2026-04-12T08:09:03Z</time></trkpt><trkpt lat="44.60875181728172" lon="10.46943814215755"><ele>265.0</ele><time>2026-04-12T08:09:05Z</time></trkpt><trkpt lat="44.60868349610768" lon="10.46940221229954"><ele>265.3333333333333</ele><time>2026-04-12T08:09:08Z</time></trkpt><trkpt lat="44.60859307989822" lon="10.469382059369284"><ele>265.66666666666663</ele><time>2026-04-12T08:09:13Z</time></trkpt><trkpt lat="44.60852248927583" lon="10.469368444151247"><ele>266.0</ele><time>2026-04-12T08:09:17Z</time></trkpt><trkpt lat="44.60848359375473" lon="10.469288381603173"><ele>266.3333333333333</ele><time>2026-04-12T08:09:20Z</time></trkpt><trkpt lat="44.60842918373781" lon="10.4691967808071"><ele>266.6666666666667</ele><time>2026-04-12T08:09:25Z</time></trkpt><trkpt lat="44.60839787358969" lon="10.469080759778123"><ele>267.0</ele><time>2026-04-12T08:09:28Z</time></trkpt><trkpt lat="44.60835903106389" lon="10.468972335994422"><ele>270.75</ele><time>2026-04-12T08:09:31Z</time></trkpt><trkpt lat="44.60826395196184" lon="10.468705455757295"><ele>274.5</ele><time>2026-04-12T08:09:34Z</time></trkpt><trkpt lat="44.60814600928278" lon="10.468643525109556"><ele>278.25</ele><time>2026-04-12T08:09:36Z</time></trkpt><trkpt lat="44.6080576498011" lon="10.468614489652438"><ele>282.0</ele><time>2026-04-12T08:09:37Z</time></trkpt><trkpt lat="44.60797647399553" lon="10.468576606198354"><ele>282.0</ele><time>2026-04-12T08:09:38Z</time></trkpt><trkpt lat="44.60791696147597" lon="10.468528896639242"><ele>282.0</ele><time>2026-04-12T08:09:39Z</time></trkpt><trkpt lat="44.607859466935224" lon="10.468484367798595"><ele>282.0</ele><time>2026-04-12T08:09:40Z</time></trkpt><trkpt lat="44.607757079234666" lon="10.468397090773443"><ele>282.0</ele><time>2026-04-12T08:09:42Z</time></trkpt><trkpt lat="44.60766658143629" lon="10.468346757613856"><ele>282.0</ele><time>2026-04-12T08:09:44Z</time></trkpt><trkpt lat="44.60758116783834" lon="10.468359768104945"><ele>282.0</ele><time>2026-04-12T08:09:46Z</time></trkpt><trkpt lat="44.607485432970044" lon="10.468333493979316"><ele>280.6666666666667</ele><time>2026-04-12T08:09:48Z</time></trkpt><trkpt lat="44.60739993318154" lon="10.468309126023117"><ele>279.3333333333333</ele><time>2026-04-12T08:09:50Z</time></trkpt><trkpt lat="44.60732951480489" lon="10.468237363696483"><ele>278.0</ele><time>2026-04-12T08:09:52Z</time></trkpt><trkpt lat="44.60725028910545" lon="10.4681131536442"><ele>276.66666666666663</ele><time>2026-04-12T08:10:13Z</time></trkpt><trkpt lat="44.60720058038209" lon="10.468027531029978"><ele>275.3333333333333</ele><time>2026-04-12T08:10:14Z</time></trkpt><trkpt lat="44.607150600907524" lon="10.467972391349369"><ele>274.0</ele><time>2026-04-12T08:10:15Z</time></trkpt><trkpt lat="44.60709329854233" lon="10.467930960120093"><ele>275.16666666666663</ele><time>2026-04-12T08:10:15.999Z</time></trkpt><trkpt lat="44.607043814175626" lon="10.46784468873532"><ele>276.3333333333333</ele><time>2026-04-12T08:10:16.999Z</time></trkpt><trkpt lat="44.60700329572674" lon="10.467741905228557"><ele>277.5</ele><time>2026-04-12T08:10:17.999Z</time></trkpt><trkpt lat="44.60696557092565" lon="10.467628009579155"><ele>278.6666666666667</ele><time>2026-04-12T08:10:18.999Z</time></trkpt><trkpt lat="44.60693004861903" lon="10.467553558184106"><ele>279.83333333333337</ele><time>2026-04-12T08:10:19.999Z</time></trkpt><trkpt lat="44.60685415355974" lon="10.467454385338423"><ele>281.0</ele><time>2026-04-12T08:10:21.999Z</time></trkpt><trkpt lat="44.60679800525296" lon="10.467349008986396"><ele>281.0</ele><time>2026-04-12T08:10:23.999Z</time></trkpt><trkpt lat="44.606748085678674" lon="10.46727292817779"><ele>281.0</ele><time>2026-04-12T08:10:24.999Z</time></trkpt><trkpt lat="44.606711975087876" lon="10.467187532653494"><ele>281.0</ele><time>2026-04-12T08:10:25.999Z</time></trkpt><trkpt lat="44.606660421488336" lon="10.467046024062554"><ele>281.0</ele><time>2026-04-12T08:10:27.999Z</time></trkpt><trkpt lat="44.60659181325127" lon="10.466931491333805"><ele>281.0</ele><time>2026-04-12T08:10:29.999Z</time></trkpt><trkpt lat="44.60649860161368" lon="10.46689550319448"><ele>281.0</ele><time>2026-04-12T08:10:31.999Z</time></trkpt><trkpt lat="44.6064243584425" lon="10.466962897304409"><ele>281.0</ele><time>2026-04-12T08:10:42.999Z</time></trkpt><trkpt lat="44.60637498420415" lon="10.467022477974911"><ele>281.0</ele><time>2026-04-12T08:10:43.999Z</time></trkpt><trkpt lat="44.60638125967512" lon="10.467118470422337"><ele>281.0</ele><time>2026-04-12T08:10:48.999Z</time></trkpt><trkpt lat="44.6063759257696" lon="10.46721768166722"><ele>281.0</ele><time>2026-04-12T08:10:50.999Z</time></trkpt><trkpt lat="44.60635601323931" lon="10.467304453951334"><ele>281.0</ele><time>2026-04-12T08:11:02Z</time></trkpt><trkpt lat="44.60629239363267" lon="10.467195454437693"><ele>283.5</ele><time>2026-04-12T08:11:06Z</time></trkpt><trkpt lat="44.60624986042719" lon="10.467086350128316"><ele>286.0</ele><time>2026-04-12T08:11:12Z</time></trkpt><trkpt lat="44.606274127556006" lon="10.466959448747122"><ele>288.5</ele><time>2026-04-12T08:11:14Z</time></trkpt><trkpt lat="44.60628353375824" lon="10.46686748098544"><ele>291.0</ele><time>2026-04-12T08:11:16Z</time></trkpt><trkpt lat="44.60626385224808" lon="10.466775085772083"><ele>293.5</ele><time>2026-04-12T08:11:29Z</time></trkpt><trkpt lat="44.606234217229705" lon="10.466635063054373"><ele>296.0</ele><time>2026-04-12T08:11:31Z</time></trkpt><trkpt lat="44.6062127627794" lon="10.466512775790799"><ele>297.1666666666667</ele><time>2026-04-12T08:11:33Z</time></trkpt><trkpt lat="44.60611204938543" lon="10.466422456311447"><ele>298.33333333333337</ele><time>2026-04-12T08:11:35Z</time></trkpt><trkpt lat="44.60603841570248" lon="10.466405954945925"><ele>299.5</ele><time>2026-04-12T08:11:37Z</time></trkpt><trkpt lat="44.60597797634214" lon="10.466355863765902"><ele>300.6666666666667</ele><time>2026-04-12T08:11:41Z</time></trkpt><trkpt lat="44.60587307283728" lon="10.466344978084688"><ele>301.8333333333333</ele><time>2026-04-12T08:11:43Z</time></trkpt><trkpt lat="44.60581921979447" lon="10.466298509036674"><ele>303.0</ele><time>2026-04-12T08:11:45Z</time></trkpt><trkpt lat="44.60580741476577" lon="10.466209013309198"><ele>303.0</ele><time>2026-04-12T08:11:47Z</time></trkpt><trkpt lat="44.605850357270505" lon="10.4661056554882"><ele>303.0</ele><time>2026-04-12T08:11:49Z</time></trkpt><trkpt lat="44.60595597958024" lon="10.46609887627712"><ele>303.0</ele><time>2026-04-12T08:11:51Z</time></trkpt><trkpt lat="44.60601943994213" lon="10.466118418797612"><ele>303.0</ele><time>2026-04-12T08:11:52Z</time></trkpt><trkpt lat="44.60609325003315" lon="10.466160818084772"><ele>303.0</ele><time>2026-04-12T08:11:53Z</time></trkpt><trkpt lat="44.60614457851734" lon="10.466222060760847"><ele>303.0</ele><time>2026-04-12T08:11:54Z</time></trkpt><trkpt lat="44.60619851320869" lon="10.466353878965444"><ele>301.6</ele><time>2026-04-12T08:11:56Z</time></trkpt><trkpt lat="44.6062340976708" lon="10.466479244736739"><ele>300.20000000000005</ele><time>2026-04-12T08:11:58Z</time></trkpt><trkpt lat="44.60628612920068" lon="10.46657277498416"><ele>298.8</ele><time>2026-04-12T08:12:12.999Z</time></trkpt><trkpt lat="44.60623521502505" lon="10.466649332800399"><ele>297.40000000000003</ele><time>2026-04-12T08:12:14.999Z</time></trkpt><trkpt lat="44.60616338561938" lon="10.46684072208804"><ele>296.0</ele><time>2026-04-12T08:12:16.999Z</time></trkpt><trkpt lat="44.60612207840039" lon="10.466940148007977"><ele>294.6666666666667</ele><time>2026-04-12T08:12:17.999Z</time></trkpt><trkpt lat="44.60607675081485" lon="10.467006994155696"><ele>293.33333333333337</ele><time>2026-04-12T08:12:18.999Z</time></trkpt><trkpt lat="44.606054950695146" lon="10.467114807811635"><ele>292.0</ele><time>2026-04-12T08:12:20.999Z</time></trkpt><trkpt lat="44.60605409812393" lon="10.467206015956206"><ele>290.6666666666667</ele><time>2026-04-12T08:12:22.999Z</time></trkpt><trkpt lat="44.606040516252406" lon="10.467334874582017"><ele>289.3333333333333</ele><time>2026-04-12T08:12:25.999Z</time></trkpt><trkpt lat="44.606008524695675" lon="10.467447932997164"><ele>288.0</ele><time>2026-04-12T08:12:28.999Z</time></trkpt><trkpt lat="44.605993727555344" lon="10.46755033291504"><ele>286.8333333333333</ele><time>2026-04-12T08:12:30.999Z</time></trkpt><trkpt lat="44.60602511166474" lon="10.46764305608452"><ele>285.6666666666667</ele><time>2026-04-12T08:12:32.999Z</time></trkpt><trkpt lat="44.60612089758163" lon="10.467701866912092"><ele>284.5</ele><time>2026-04-12T08:12:34.999Z</time></trkpt><trkpt lat="44.60619364198534" lon="10.467721207336215"><ele>283.33333333333337</ele><time>2026-04-12T08:12:35.999Z</time></trkpt><trkpt lat="44.60624324494865" lon="10.46761959246527"><ele>282.1666666666667</ele><time>2026-04-12T08:12:37.999Z</time></trkpt><trkpt lat="44.60624447022554" lon="10.467504397182756"><ele>281.0</ele><time>2026-04-12T08:12:39.999Z</time></trkpt><trkpt lat="44.60625001476144" lon="10.467390249161527"><ele>281.0</ele><time>2026-04-12T08:12:41.999Z</time></trkpt><trkpt lat="44.606290767880395" lon="10.467282260737806"><ele>281.0</ele><time>2026-04-12T08:12:43.999Z</time></trkpt><trkpt lat="44.606317251011575" lon="10.467400070199208"><ele>281.0</ele><time>2026-04-12T08:12:46.999Z</time></trkpt><trkpt lat="44.60629935760586" lon="10.467597274873846"><ele>281.0</ele><time>2026-04-12T08:12:48.999Z</time></trkpt><trkpt lat="44.60630638241852" lon="10.467698138813569"><ele>281.0</ele><time>2026-04-12T08:12:50.999Z</time></trkpt><trkpt lat="44.60637705503644" lon="10.467741988754636"><ele>281.0</ele><time>2026-04-12T08:12:52.999Z</time></trkpt><trkpt lat="44.60645565722234" lon="10.467648664441697"><ele>281.0</ele><time>2026-04-12T08:12:54.999Z</time></trkpt><trkpt lat="44.60643627368679" lon="10.467496566690082"><ele>281.0</ele><time>2026-04-12T08:12:56.999Z</time></trkpt><trkpt lat="44.6063941200893" lon="10.467391097558535"><ele>281.0</ele><time>2026-04-12T08:12:57.999Z</time></trkpt><trkpt lat="44.60636402883551" lon="10.467262099348495"><ele>281.0</ele><time>2026-04-12T08:12:58.999Z</time></trkpt><trkpt lat="44.60636215412467" lon="10.467166342125724"><ele>281.0</ele><time>2026-04-12T08:12:59.999Z</time></trkpt><trkpt lat="44.606389009007664" lon="10.467075207717842"><ele>281.0</ele><time>2026-04-12T08:13:01Z</time></trkpt><trkpt lat="44.60644929717527" lon="10.467019474833611"><ele>281.0</ele><time>2026-04-12T08:13:02Z</time></trkpt><trkpt lat="44.606529525413144" lon="10.467080114543817"><ele>281.0</ele><time>2026-04-12T08:13:04Z</time></trkpt><trkpt lat="44.60656431318079" lon="10.467224428336575"><ele>281.0</ele><time>2026-04-12T08:13:06Z</time></trkpt><trkpt lat="44.606570268095" lon="10.467394647542054"><ele>281.0</ele><time>2026-04-12T08:13:08Z</time></trkpt><trkpt lat="44.60657365541032" lon="10.467488787040365"><ele>281.0</ele><time>2026-04-12T08:13:09Z</time></trkpt><trkpt lat="44.60657627998378" lon="10.46759618137564"><ele>281.0</ele><time>2026-04-12T08:13:10Z</time></trkpt><trkpt lat="44.606578994460854" lon="10.46769054020997"><ele>281.0</ele><time>2026-04-12T08:13:11Z</time></trkpt><trkpt lat="44.60657708182919" lon="10.467831141063096"><ele>281.0</ele><time>2026-04-12T08:13:13Z</time></trkpt><trkpt lat="44.606558595476855" lon="10.467976366287099"><ele>281.0</ele><time>2026-04-12T08:13:15Z</time></trkpt><trkpt lat="44.60654062288277" lon="10.468073847872384"><ele>279.0</ele><time>2026-04-12T08:13:17Z</time></trkpt><trkpt lat="44.606446138994684" lon="10.468098360168145"><ele>277.0</ele><time>2026-04-12T08:13:19Z</time></trkpt><trkpt lat="44.606371634563985" lon="10.468072040045945"><ele>275.0</ele><time>2026-04-12T08:13:20Z</time></trkpt><trkpt lat="44.606304422411235" lon="10.468052622044587"><ele>273.0</ele><time>2026-04-12T08:13:21Z</time></trkpt><trkpt lat="44.60622532953651" lon="10.468023935702838"><ele>271.0</ele><time>2026-04-12T08:13:22Z</time></trkpt><trkpt lat="44.60613923389091" lon="10.468004835306393"><ele>269.0</ele><time>2026-04-12T08:13:23Z</time></trkpt><trkpt lat="44.60607211867078" lon="10.468013652934188"><ele>269.0</ele><time>2026-04-12T08:13:24Z</time></trkpt><trkpt lat="44.60607957110408" lon="10.468110671208587"><ele>269.0</ele><time>2026-04-12T08:13:26Z</time></trkpt><trkpt lat="44.60613478441342" lon="10.46816917180754"><ele>269.0</ele><time>2026-04-12T08:13:28Z</time></trkpt><trkpt lat="44.60623649576131" lon="10.468156664728333"><ele>269.0</ele><time>2026-04-12T08:13:31Z</time></trkpt><trkpt lat="44.60630118689978" lon="10.468112803988797"><ele>269.0</ele><time>2026-04-12T08:13:32Z</time></trkpt><trkpt lat="44.60641441639273" lon="10.468135037469555"><ele>269.0</ele><time>2026-04-12T08:13:34Z</time></trkpt><trkpt lat="44.606506920207075" lon="10.468257235101449"><ele>268.4</ele><time>2026-04-12T08:13:36Z</time></trkpt><trkpt lat="44.60655098582372" lon="10.468322077051655"><ele>267.79999999999995</ele><time>2026-04-12T08:13:37Z</time></trkpt><trkpt lat="44.60661066793639" lon="10.468414774492638"><ele>267.20000000000005</ele><time>2026-04-12T08:13:39Z</time></trkpt><trkpt lat="44.606697445076755" lon="10.468460682388217"><ele>266.6</ele><time>2026-04-12T08:13:41Z</time></trkpt><trkpt lat="44.60675739230058" lon="10.468376226083363"><ele>266.0</ele><time>2026-04-12T08:13:43Z</time></trkpt><trkpt lat="44.60668420940298" lon="10.46817346177014"><ele>266.0</ele><time>2026-04-12T08:13:45Z</time></trkpt><trkpt lat="44.60664297296292" lon="10.468063499505892"><ele>266.0</ele><time>2026-04-12T08:13:46Z</time></trkpt><trkpt lat="44.606621770081674" lon="10.467939804372154"><ele>266.0</ele><time>2026-04-12T08:13:47Z</time></trkpt><trkpt lat="44.606596672117476" lon="10.467753648099878"><ele>266.0</ele><time>2026-04-12T08:13:48Z</time></trkpt><trkpt lat="44.606624503895965" lon="10.467648693208652"><ele>266.0</ele><time>2026-04-12T08:13:50Z</time></trkpt><trkpt lat="44.60664032301572" lon="10.46755622612294"><ele>268.5</ele><time>2026-04-12T08:13:51Z</time></trkpt><trkpt lat="44.60665755393005" lon="10.467428769911528"><ele>271.0</ele><time>2026-04-12T08:13:52Z</time></trkpt><trkpt lat="44.606637766411524" lon="10.467336478139135"><ele>273.5</ele><time>2026-04-12T08:13:53Z</time></trkpt><trkpt lat="44.606574986739474" lon="10.467183010864417"><ele>276.0</ele><time>2026-04-12T08:13:55Z</time></trkpt><trkpt lat="44.60662694641406" lon="10.467105381338548"><ele>278.5</ele><time>2026-04-12T08:13:57Z</time></trkpt><trkpt lat="44.60668632577141" lon="10.467152843663285"><ele>281.0</ele><time>2026-04-12T08:13:58Z</time></trkpt><trkpt lat="44.60672853845817" lon="10.46726571108102"><ele>281.0</ele><time>2026-04-12T08:13:59Z</time></trkpt><trkpt lat="44.60673339023555" lon="10.467370465647381"><ele>281.0</ele><time>2026-04-12T08:14:00Z</time></trkpt><trkpt lat="44.60672209479514" lon="10.467535039053786"><ele>281.0</ele><time>2026-04-12T08:14:02Z</time></trkpt><trkpt lat="44.60670500279444" lon="10.467621478998579"><ele>281.0</ele><time>2026-04-12T08:14:03Z</time></trkpt><trkpt lat="44.606710450038534" lon="10.46778215062948"><ele>281.0</ele><time>2026-04-12T08:14:05Z</time></trkpt><trkpt lat="44.60676180554288" lon="10.467883469425479"><ele>278.5</ele><time>2026-04-12T08:14:07Z</time></trkpt><trkpt lat="44.60678273716376" lon="10.468046134693624"><ele>276.0</ele><time>2026-04-12T08:14:09Z</time></trkpt><trkpt lat="44.6068049746775" lon="10.468144129950376"><ele>273.5</ele><time>2026-04-12T08:14:09.999Z</time></trkpt><trkpt lat="44.60682930058358" lon="10.468242515388729"><ele>271.0</ele><time>2026-04-12T08:14:10.999Z</time></trkpt><trkpt lat="44.60684971198355" lon="10.468329147855586"><ele>268.5</ele><time>2026-04-12T08:14:11.999Z</time></trkpt><trkpt lat="44.60691408890216" lon="10.468385885750479"><ele>266.0</ele><time>2026-04-12T08:14:13.999Z</time></trkpt><trkpt lat="44.60699099160002" lon="10.468356205269945"><ele>267.6</ele><time>2026-04-12T08:14:15.999Z</time></trkpt><trkpt lat="44.60707880252665" lon="10.468262866767471"><ele>269.20000000000005</ele><time>2026-04-12T08:14:17.999Z</time></trkpt><trkpt lat="44.60712899894331" lon="10.468160086118878"><ele>270.79999999999995</ele><time>2026-04-12T08:14:19.999Z</time></trkpt><trkpt lat="44.60714825110319" lon="10.468060281705087"><ele>272.4</ele><time>2026-04-12T08:14:40.999Z</time></trkpt><trkpt lat="44.607088163777945" lon="10.467898855573356"><ele>274.0</ele><time>2026-04-12T08:14:42.999Z</time></trkpt><trkpt lat="44.60704879088651" lon="10.467805825593503"><ele>275.4</ele><time>2026-04-12T08:14:43.999Z</time></trkpt><trkpt lat="44.607001189539325" lon="10.467720950119368"><ele>276.79999999999995</ele><time>2026-04-12T08:14:44.999Z</time></trkpt><trkpt lat="44.60693558509982" lon="10.46760493346966"><ele>278.20000000000005</ele><time>2026-04-12T08:14:46.999Z</time></trkpt><trkpt lat="44.606861598753156" lon="10.467488651743242"><ele>279.6</ele><time>2026-04-12T08:14:48.999Z</time></trkpt><trkpt lat="44.606794259462795" lon="10.46738360971422"><ele>281.0</ele><time>2026-04-12T08:14:50.999Z</time></trkpt><trkpt lat="44.6067569282627" lon="10.467304604836267"><ele>281.0</ele><time>2026-04-12T08:14:51.999Z</time></trkpt><trkpt lat="44.60672052753308" lon="10.467216162329514"><ele>281.0</ele><time>2026-04-12T08:14:52.999Z</time></trkpt><trkpt lat="44.60667193836925" lon="10.467081944389376"><ele>281.0</ele><time>2026-04-12T08:14:54.999Z</time></trkpt><trkpt lat="44.6066030013494" lon="10.46694633970587"><ele>281.0</ele><time>2026-04-12T08:14:56.999Z</time></trkpt><trkpt lat="44.60650152229932" lon="10.466901717384658"><ele>281.0</ele><time>2026-04-12T08:14:58.999Z</time></trkpt><trkpt lat="44.60640879445476" lon="10.466847502225937"><ele>282.1666666666667</ele><time>2026-04-12T08:15:00.999Z</time></trkpt><trkpt lat="44.60639615571335" lon="10.466683050790818"><ele>283.33333333333337</ele><time>2026-04-12T08:15:02.999Z</time></trkpt><trkpt lat="44.606346403668475" lon="10.466603290737122"><ele>284.5</ele><time>2026-04-12T08:15:03.999Z</time></trkpt><trkpt lat="44.606285667274456" lon="10.466554183352418"><ele>285.6666666666667</ele><time>2026-04-12T08:15:04.999Z</time></trkpt><trkpt lat="44.606226590946584" lon="10.466493777782533"><ele>286.8333333333333</ele><time>2026-04-12T08:15:05.999Z</time></trkpt><trkpt lat="44.606179464384" lon="10.466421463606011"><ele>288.0</ele><time>2026-04-12T08:15:07Z</time></trkpt><trkpt lat="44.60615195258055" lon="10.4663396377199"><ele>290.5</ele><time>2026-04-12T08:15:08Z</time></trkpt><trkpt lat="44.60612227573751" lon="10.466187396361361"><ele>293.0</ele><time>2026-04-12T08:15:10Z</time></trkpt><trkpt lat="44.606059912134974" lon="10.46613802188474"><ele>295.5</ele><time>2026-04-12T08:15:11Z</time></trkpt><trkpt lat="44.6059871856892" lon="10.466121345337443"><ele>298.0</ele><time>2026-04-12T08:15:12Z</time></trkpt><trkpt lat="44.60591251493097" lon="10.466090451540284"><ele>300.5</ele><time>2026-04-12T08:15:14Z</time></trkpt><trkpt lat="44.60583034589634" lon="10.466023437576203"><ele>303.0</ele><time>2026-04-12T08:15:20Z</time></trkpt><trkpt lat="44.60577889876715" lon="10.4659503096036"><ele>303.0</ele><time>2026-04-12T08:15:22Z</time></trkpt><trkpt lat="44.605685456872564" lon="10.465823804898443"><ele>303.0</ele><time>2026-04-12T08:15:24Z</time></trkpt><trkpt lat="44.605638709388366" lon="10.465723304348062"><ele>303.0</ele><time>2026-04-12T08:15:25Z</time></trkpt><trkpt lat="44.605592510669226" lon="10.465596059539212"><ele>303.0</ele><time>2026-04-12T08:15:26Z</time></trkpt><trkpt lat="44.60554763163799" lon="10.465469665381521"><ele>303.0</ele><time>2026-04-12T08:15:27Z</time></trkpt><trkpt lat="44.60549483637434" lon="10.465314193752254"><ele>306.2</ele><time>2026-04-12T08:15:28Z</time></trkpt><trkpt lat="44.605444614491105" lon="10.465184452812984"><ele>309.4</ele><time>2026-04-12T08:15:29Z</time></trkpt><trkpt lat="44.60541145651691" lon="10.465059673003646"><ele>312.59999999999997</ele><time>2026-04-12T08:15:30Z</time></trkpt><trkpt lat="44.60539011633698" lon="10.464959548807686"><ele>315.8</ele><time>2026-04-12T08:15:31Z</time></trkpt><trkpt lat="44.605385658457266" lon="10.464822630225376"><ele>319.0</ele><time>2026-04-12T08:15:33Z</time></trkpt><trkpt lat="44.60543541606264" lon="10.464687419016649"><ele>322.16666666666663</ele><time>2026-04-12T08:15:35Z</time></trkpt><trkpt lat="44.60548057514657" lon="10.464542445785582"><ele>325.3333333333333</ele><time>2026-04-12T08:15:37Z</time></trkpt><trkpt lat="44.605515654296745" lon="10.464356669240932"><ele>328.5</ele><time>2026-04-12T08:15:39Z</time></trkpt><trkpt lat="44.605526453070745" lon="10.464255195228398"><ele>331.6666666666667</ele><time>2026-04-12T08:15:40Z</time></trkpt><trkpt lat="44.605535680484486" lon="10.464167207258999"><ele>334.83333333333337</ele><time>2026-04-12T08:15:41Z</time></trkpt><trkpt lat="44.60554360958781" lon="10.464079478017231"><ele>338.0</ele><time>2026-04-12T08:15:42Z</time></trkpt><trkpt lat="44.60554425967569" lon="10.463986470095605"><ele>338.0</ele><time>2026-04-12T08:15:43Z</time></trkpt><trkpt lat="44.60554908597231" lon="10.463861421562658"><ele>338.0</ele><time>2026-04-12T08:15:44Z</time></trkpt><trkpt lat="44.605528511602046" lon="10.46375701419599"><ele>338.0</ele><time>2026-04-12T08:15:45Z</time></trkpt><trkpt lat="44.60546911004918" lon="10.463637289442646"><ele>338.0</ele><time>2026-04-12T08:15:46Z</time></trkpt><trkpt lat="44.60544976677708" lon="10.4635206550773"><ele>338.0</ele><time>2026-04-12T08:15:47Z</time></trkpt><trkpt lat="44.605432492649925" lon="10.463393257736248"><ele>338.0</ele><time>2026-04-12T08:15:48Z</time></trkpt><trkpt lat="44.60544022983038" lon="10.463258356465023"><ele>339.0</ele><time>2026-04-12T08:15:50.999Z</time></trkpt><trkpt lat="44.60537167981694" lon="10.463247714696589"><ele>340.0</ele><time>2026-04-12T08:17:39Z</time></trkpt><trkpt lat="44.60533600706583" lon="10.463170877309034"><ele>341.0</ele><time>2026-04-12T08:17:41Z</time></trkpt><trkpt lat="44.60528088380235" lon="10.463081233062175"><ele>342.0</ele><time>2026-04-12T08:17:44Z</time></trkpt><trkpt lat="44.605240796951605" lon="10.462958943866132"><ele>343.0</ele><time>2026-04-12T08:17:46Z</time></trkpt><trkpt lat="44.6052391717026" lon="10.46284366731132"><ele>344.0</ele><time>2026-04-12T08:17:48Z</time></trkpt><trkpt lat="44.605240768404926" lon="10.46271574230554"><ele>347.6666666666667</ele><time>2026-04-12T08:17:50Z</time></trkpt><trkpt lat="44.60519048661199" lon="10.46259452559313"><ele>351.33333333333337</ele><time>2026-04-12T08:17:52Z</time></trkpt><trkpt lat="44.60514987083483" lon="10.462518690801941"><ele>355.0</ele><time>2026-04-12T08:17:53Z</time></trkpt><trkpt lat="44.605097002753546" lon="10.462438560163964"><ele>358.6666666666667</ele><time>2026-04-12T08:17:54Z</time></trkpt><trkpt lat="44.60503822564501" lon="10.462322277026816"><ele>362.3333333333333</ele><time>2026-04-12T08:17:55Z</time></trkpt><trkpt lat="44.60497944518144" lon="10.462215799474029"><ele>366.0</ele><time>2026-04-12T08:17:56Z</time></trkpt><trkpt lat="44.60492503911776" lon="10.462117538297118"><ele>370.0</ele><time>2026-04-12T08:17:57Z</time></trkpt><trkpt lat="44.60485946115486" lon="10.462025632895275"><ele>374.0</ele><time>2026-04-12T08:17:58Z</time></trkpt><trkpt lat="44.60479890256447" lon="10.46189447069587"><ele>378.0</ele><time>2026-04-12T08:17:59Z</time></trkpt><trkpt lat="44.60474524344165" lon="10.461788713101477"><ele>382.0</ele><time>2026-04-12T08:18:00Z</time></trkpt><trkpt lat="44.60469136441289" lon="10.461687752196902"><ele>386.0</ele><time>2026-04-12T08:18:01Z</time></trkpt><trkpt lat="44.604631589814986" lon="10.461561873290162"><ele>386.0</ele><time>2026-04-12T08:18:02Z</time></trkpt><trkpt lat="44.60457819723004" lon="10.461415619110067"><ele>386.0</ele><time>2026-04-12T08:18:03Z</time></trkpt><trkpt lat="44.6045283849257" lon="10.461262436865582"><ele>386.0</ele><time>2026-04-12T08:18:04Z</time></trkpt><trkpt lat="44.60448319140298" lon="10.461093170580137"><ele>386.0</ele><time>2026-04-12T08:18:05Z</time></trkpt><trkpt lat="44.60444426369357" lon="10.460943954146057"><ele>389.0</ele><time>2026-04-12T08:18:05.999Z</time></trkpt><trkpt lat="44.60440115371813" lon="10.460853827301955"><ele>392.0</ele><time>2026-04-12T08:18:07.999Z</time></trkpt><trkpt lat="44.60432243724588" lon="10.460803647705267"><ele>395.0</ele><time>2026-04-12T08:18:09.999Z</time></trkpt><trkpt lat="44.60422657731574" lon="10.460798571994125"><ele>398.0</ele><time>2026-04-12T08:18:11.999Z</time></trkpt><trkpt lat="44.604050437537765" lon="10.460679496887137"><ele>398.0</ele><time>2026-04-12T08:18:14.999Z</time></trkpt><trkpt lat="44.60395079553043" lon="10.460651094536086"><ele>398.0</ele><time>2026-04-12T08:18:16.999Z</time></trkpt><trkpt lat="44.60388266608314" lon="10.46063055714253"><ele>398.0</ele><time>2026-04-12T08:18:17.999Z</time></trkpt><trkpt lat="44.60379865421214" lon="10.460602817367278"><ele>398.0</ele><time>2026-04-12T08:18:18.999Z</time></trkpt><trkpt lat="44.603699352583206" lon="10.460578542367356"><ele>398.0</ele><time>2026-04-12T08:18:19.999Z</time></trkpt><trkpt lat="44.603591388716055" lon="10.460542693542404"><ele>398.3333333333333</ele><time>2026-04-12T08:18:20.999Z</time></trkpt><trkpt lat="44.60350339927225" lon="10.460500386862268"><ele>398.66666666666663</ele><time>2026-04-12T08:18:21.999Z</time></trkpt><trkpt lat="44.60342392200842" lon="10.460447764115337"><ele>399.0</ele><time>2026-04-12T08:18:22.999Z</time></trkpt><trkpt lat="44.60335102733184" lon="10.46038829262816"><ele>399.33333333333337</ele><time>2026-04-12T08:18:23.999Z</time></trkpt><trkpt lat="44.60327149487" lon="10.460338162578763"><ele>399.6666666666667</ele><time>2026-04-12T08:18:24.999Z</time></trkpt><trkpt lat="44.60319650502658" lon="10.460292731276555"><ele>400.0</ele><time>2026-04-12T08:18:25.999Z</time></trkpt><trkpt lat="44.60312344847611" lon="10.460249676010834"><ele>400.4</ele><time>2026-04-12T08:18:26.999Z</time></trkpt><trkpt lat="44.60304031382385" lon="10.460200749198135"><ele>400.8</ele><time>2026-04-12T08:18:27.999Z</time></trkpt><trkpt lat="44.60295816961955" lon="10.460124538226514"><ele>401.20000000000005</ele><time>2026-04-12T08:18:28.999Z</time></trkpt><trkpt lat="44.60286820012109" lon="10.460038830355646"><ele>401.6</ele><time>2026-04-12T08:18:29.999Z</time></trkpt><trkpt lat="44.602769706105235" lon="10.459958572612278"><ele>402.0</ele><time>2026-04-12T08:18:30.999Z</time></trkpt><trkpt lat="44.60267278406074" lon="10.459891955915818"><ele>400.6</ele><time>2026-04-12T08:18:31.999Z</time></trkpt><trkpt lat="44.60258892226359" lon="10.459816062161233"><ele>399.20000000000005</ele><time>2026-04-12T08:18:32.999Z</time></trkpt><trkpt lat="44.60252222920333" lon="10.459739521556235"><ele>397.8</ele><time>2026-04-12T08:18:33.999Z</time></trkpt><trkpt lat="44.60245806690212" lon="10.459635423497454"><ele>396.4</ele><time>2026-04-12T08:18:34.999Z</time></trkpt><trkpt lat="44.60237960897298" lon="10.459508032616393"><ele>395.0</ele><time>2026-04-12T08:18:35.999Z</time></trkpt><trkpt lat="44.6022641018018" lon="10.459384462518729"><ele>395.0</ele><time>2026-04-12T08:18:36.999Z</time></trkpt><trkpt lat="44.602136203356515" lon="10.459265823079782"><ele>395.0</ele><time>2026-04-12T08:18:37.999Z</time></trkpt><trkpt lat="44.602043504608474" lon="10.459170168713428"><ele>395.0</ele><time>2026-04-12T08:18:38.999Z</time></trkpt><trkpt lat="44.601942742216266" lon="10.459117516457294"><ele>395.0</ele><time>2026-04-12T08:18:39.999Z</time></trkpt><trkpt lat="44.60179976366099" lon="10.459092263776142"><ele>396.5</ele><time>2026-04-12T08:18:40.999Z</time></trkpt><trkpt lat="44.601652021490395" lon="10.459075028350991"><ele>398.0</ele><time>2026-04-12T08:18:41.999Z</time></trkpt><trkpt lat="44.601538117516306" lon="10.459067230424845"><ele>399.5</ele><time>2026-04-12T08:18:42.999Z</time></trkpt><trkpt lat="44.60142957488487" lon="10.459099950386634"><ele>401.0</ele><time>2026-04-12T08:18:43.999Z</time></trkpt><trkpt lat="44.60131615859244" lon="10.459100027086194"><ele>401.0</ele><time>2026-04-12T08:18:44.999Z</time></trkpt><trkpt lat="44.60120201458787" lon="10.459044815336169"><ele>401.0</ele><time>2026-04-12T08:18:45.999Z</time></trkpt><trkpt lat="44.60108071863985" lon="10.458953943044378"><ele>401.0</ele><time>2026-04-12T08:18:46.999Z</time></trkpt><trkpt lat="44.60090688914194" lon="10.458881765292638"><ele>401.0</ele><time>2026-04-12T08:18:47.999Z</time></trkpt><trkpt lat="44.6007541340985" lon="10.458850921191846"><ele>404.3333333333333</ele><time>2026-04-12T08:18:48.999Z</time></trkpt><trkpt lat="44.60061710971498" lon="10.458824743617633"><ele>407.66666666666663</ele><time>2026-04-12T08:18:49.999Z</time></trkpt><trkpt lat="44.60046809941968" lon="10.45882443855745"><ele>411.0</ele><time>2026-04-12T08:18:50.999Z</time></trkpt><trkpt lat="44.60030627420282" lon="10.458850428880357"><ele>414.25</ele><time>2026-04-12T08:18:51.999Z</time></trkpt><trkpt lat="44.60013290293584" lon="10.458867687338774"><ele>417.5</ele><time>2026-04-12T08:18:52.999Z</time></trkpt><trkpt lat="44.599989801140616" lon="10.458877452159495"><ele>420.75</ele><time>2026-04-12T08:18:53.999Z</time></trkpt><trkpt lat="44.5998728029682" lon="10.458897840550488"><ele>424.0</ele><time>2026-04-12T08:18:54.999Z</time></trkpt><trkpt lat="44.59976932946973" lon="10.458901420764066"><ele>424.0</ele><time>2026-04-12T08:18:55.999Z</time></trkpt><trkpt lat="44.59966217179718" lon="10.458862916460188"><ele>424.0</ele><time>2026-04-12T08:18:56.999Z</time></trkpt><trkpt lat="44.59955520709783" lon="10.458792570422382"><ele>424.0</ele><time>2026-04-12T08:18:57.999Z</time></trkpt><trkpt lat="44.59945879072745" lon="10.458671860118335"><ele>424.0</ele><time>2026-04-12T08:18:58.999Z</time></trkpt><trkpt lat="44.59937879677571" lon="10.45857384277967"><ele>427.4</ele><time>2026-04-12T08:18:59.999Z</time></trkpt><trkpt lat="44.59929728936283" lon="10.458481925765517"><ele>430.79999999999995</ele><time>2026-04-12T08:19:00.999Z</time></trkpt><trkpt lat="44.599221511817404" lon="10.458383376881148"><ele>434.20000000000005</ele><time>2026-04-12T08:19:01.999Z</time></trkpt><trkpt lat="44.59914853055254" lon="10.458297952033758"><ele>437.6</ele><time>2026-04-12T08:19:02.999Z</time></trkpt><trkpt lat="44.599067161118775" lon="10.458228568760584"><ele>441.0</ele><time>2026-04-12T08:19:03.999Z</time></trkpt><trkpt lat="44.59898062149327" lon="10.458182276013865"><ele>441.0</ele><time>2026-04-12T08:19:04.999Z</time></trkpt><trkpt lat="44.59888674454894" lon="10.458144776071892"><ele>441.0</ele><time>2026-04-12T08:19:05.999Z</time></trkpt><trkpt lat="44.59880168701706" lon="10.458094947998875"><ele>441.0</ele><time>2026-04-12T08:19:06.999Z</time></trkpt><trkpt lat="44.59873874314537" lon="10.45805268121664"><ele>441.0</ele><time>2026-04-12T08:19:07.999Z</time></trkpt><trkpt lat="44.59867873500289" lon="10.45801888739"><ele>441.0</ele><time>2026-04-12T08:19:08.999Z</time></trkpt><trkpt lat="44.598569785491264" lon="10.457964235146878"><ele>441.0</ele><time>2026-04-12T08:19:10.999Z</time></trkpt><trkpt lat="44.598467930246976" lon="10.457879429848285"><ele>442.5</ele><time>2026-04-12T08:19:12.999Z</time></trkpt><trkpt lat="44.59836666422824" lon="10.457822468710914"><ele>444.0</ele><time>2026-04-12T08:19:14.999Z</time></trkpt><trkpt lat="44.59826878910741" lon="10.457766130395138"><ele>445.5</ele><time>2026-04-12T08:19:16.999Z</time></trkpt><trkpt lat="44.59813356692923" lon="10.45769760415072"><ele>447.0</ele><time>2026-04-12T08:19:19Z</time></trkpt><trkpt lat="44.59804401265715" lon="10.45758959907552"><ele>447.0</ele><time>2026-04-12T08:19:20Z</time></trkpt><trkpt lat="44.5979724417595" lon="10.457483554195823"><ele>447.0</ele><time>2026-04-12T08:19:21Z</time></trkpt><trkpt lat="44.59790403511395" lon="10.457423072694095"><ele>447.0</ele><time>2026-04-12T08:19:22Z</time></trkpt><trkpt lat="44.59778688109088" lon="10.457375578588385"><ele>447.0</ele><time>2026-04-12T08:19:23Z</time></trkpt><trkpt lat="44.59764836810834" lon="10.457319563486022"><ele>447.6</ele><time>2026-04-12T08:19:24Z</time></trkpt><trkpt lat="44.59753742770458" lon="10.457266231220625"><ele>448.20000000000005</ele><time>2026-04-12T08:19:25Z</time></trkpt><trkpt lat="44.59744369050222" lon="10.4572087797861"><ele>448.8</ele><time>2026-04-12T08:19:26Z</time></trkpt><trkpt lat="44.59735182606678" lon="10.457158596111485"><ele>449.4</ele><time>2026-04-12T08:19:27Z</time></trkpt><trkpt lat="44.59726560967534" lon="10.457115038628531"><ele>450.0</ele><time>2026-04-12T08:19:28Z</time></trkpt><trkpt lat="44.59717847065301" lon="10.457070339457424"><ele>448.6</ele><time>2026-04-12T08:19:29Z</time></trkpt><trkpt lat="44.59709245233544" lon="10.457019851297135"><ele>447.2</ele><time>2026-04-12T08:19:30Z</time></trkpt><trkpt lat="44.59701049907138" lon="10.456974551958867"><ele>445.79999999999995</ele><time>2026-04-12T08:19:31Z</time></trkpt><trkpt lat="44.59692353106668" lon="10.45694143943324"><ele>444.4</ele><time>2026-04-12T08:19:32Z</time></trkpt><trkpt lat="44.596836039209315" lon="10.456917256036677"><ele>443.0</ele><time>2026-04-12T08:19:33Z</time></trkpt><trkpt lat="44.59674508014475" lon="10.456909636140365"><ele>443.0</ele><time>2026-04-12T08:19:34Z</time></trkpt><trkpt lat="44.59665172543162" lon="10.45691596337381"><ele>442.99999999999994</ele><time>2026-04-12T08:19:35Z</time></trkpt><trkpt lat="44.59656422927337" lon="10.456924487385605"><ele>442.99999999999994</ele><time>2026-04-12T08:19:36Z</time></trkpt><trkpt lat="44.59647474368019" lon="10.456915100920572"><ele>443.0</ele><time>2026-04-12T08:19:37Z</time></trkpt><trkpt lat="44.59634981249785" lon="10.456873261165049"><ele>443.0</ele><time>2026-04-12T08:19:38Z</time></trkpt><trkpt lat="44.59619349656232" lon="10.456797073584887"><ele>444.66666666666663</ele><time>2026-04-12T08:19:39Z</time></trkpt><trkpt lat="44.596021579663834" lon="10.456725472112955"><ele>446.33333333333337</ele><time>2026-04-12T08:19:40Z</time></trkpt><trkpt lat="44.5958380628378" lon="10.456654941355083"><ele>448.0</ele><time>2026-04-12T08:19:41Z</time></trkpt><trkpt lat="44.59565718883676" lon="10.456544565205176"><ele>448.0</ele><time>2026-04-12T08:19:42Z</time></trkpt><trkpt lat="44.5954795732751" lon="10.456481668362427"><ele>448.0</ele><time>2026-04-12T08:19:43Z</time></trkpt><trkpt lat="44.59530353579208" lon="10.456419330346101"><ele>448.0</ele><time>2026-04-12T08:19:44Z</time></trkpt><trkpt lat="44.59513295509974" lon="10.456358955849753"><ele>449.0</ele><time>2026-04-12T08:19:45Z</time></trkpt><trkpt lat="44.594970136188486" lon="10.456301351180445"><ele>450.0</ele><time>2026-04-12T08:19:46Z</time></trkpt><trkpt lat="44.59482505530371" lon="10.456256711616106"><ele>451.0</ele><time>2026-04-12T08:19:47Z</time></trkpt><trkpt lat="44.59469845522381" lon="10.456237879366821"><ele>452.0</ele><time>2026-04-12T08:19:48Z</time></trkpt><trkpt lat="44.59457587316912" lon="10.456245469660896"><ele>456.0</ele><time>2026-04-12T08:19:49Z</time></trkpt><trkpt lat="44.594444547676346" lon="10.45627736250639"><ele>460.0</ele><time>2026-04-12T08:19:50Z</time></trkpt><trkpt lat="44.59431881731499" lon="10.4563463240098"><ele>464.0</ele><time>2026-04-12T08:19:51Z</time></trkpt><trkpt lat="44.59418124886397" lon="10.456339500833211"><ele>468.0</ele><time>2026-04-12T08:19:52Z</time></trkpt><trkpt lat="44.5940368987033" lon="10.45635043351435"><ele>468.0</ele><time>2026-04-12T08:19:53Z</time></trkpt><trkpt lat="44.59388314962354" lon="10.456363926458494"><ele>468.0</ele><time>2026-04-12T08:19:54Z</time></trkpt><trkpt lat="44.59372198113632" lon="10.456382845948742"><ele>468.0</ele><time>2026-04-12T08:19:55Z</time></trkpt><trkpt lat="44.59355729779674" lon="10.4564041739688"><ele>472.33333333333337</ele><time>2026-04-12T08:19:56Z</time></trkpt><trkpt lat="44.59338512488674" lon="10.456413986210764"><ele>476.6666666666667</ele><time>2026-04-12T08:19:57Z</time></trkpt><trkpt lat="44.5932125361845" lon="10.456415301593792"><ele>481.0</ele><time>2026-04-12T08:19:58Z</time></trkpt><trkpt lat="44.59306975877196" lon="10.456415301597401"><ele>481.0</ele><time>2026-04-12T08:19:59Z</time></trkpt><trkpt lat="44.592937767845115" lon="10.456414330116308"><ele>481.0</ele><time>2026-04-12T08:20:00Z</time></trkpt><trkpt lat="44.59282816271788" lon="10.456404027999161"><ele>481.0</ele><time>2026-04-12T08:20:01Z</time></trkpt><trkpt lat="44.5927260391186" lon="10.456376917195884"><ele>481.0</ele><time>2026-04-12T08:20:02Z</time></trkpt><trkpt lat="44.592617257722516" lon="10.456350131210664"><ele>481.20000000000005</ele><time>2026-04-12T08:20:03Z</time></trkpt><trkpt lat="44.59251009902378" lon="10.456332629134918"><ele>481.40000000000003</ele><time>2026-04-12T08:20:04Z</time></trkpt><trkpt lat="44.59240539304217" lon="10.45631802337523"><ele>481.6</ele><time>2026-04-12T08:20:05Z</time></trkpt><trkpt lat="44.59230278625583" lon="10.456305211508422"><ele>481.8</ele><time>2026-04-12T08:20:06Z</time></trkpt><trkpt lat="44.59220367352765" lon="10.456296102399218"><ele>482.0</ele><time>2026-04-12T08:20:07Z</time></trkpt><trkpt lat="44.592115489933306" lon="10.45629155071568"><ele>484.40000000000003</ele><time>2026-04-12T08:20:08Z</time></trkpt><trkpt lat="44.59200914833923" lon="10.456286061734891"><ele>486.80000000000007</ele><time>2026-04-12T08:20:09Z</time></trkpt><trkpt lat="44.591912175153105" lon="10.4562764588152"><ele>489.2</ele><time>2026-04-12T08:20:10Z</time></trkpt><trkpt lat="44.591818552843634" lon="10.456262946758958"><ele>491.6</ele><time>2026-04-12T08:20:11Z</time></trkpt><trkpt lat="44.59173489665603" lon="10.456238198182618"><ele>494.0</ele><time>2026-04-12T08:20:12Z</time></trkpt><trkpt lat="44.59165422129089" lon="10.456203875184093"><ele>494.4</ele><time>2026-04-12T08:20:13Z</time></trkpt><trkpt lat="44.59158757251329" lon="10.456153989908413"><ele>494.79999999999995</ele><time>2026-04-12T08:20:14Z</time></trkpt><trkpt lat="44.59153500345983" lon="10.456070970084566"><ele>495.20000000000005</ele><time>2026-04-12T08:20:15Z</time></trkpt><trkpt lat="44.59148088441545" lon="10.455968725814738"><ele>495.6</ele><time>2026-04-12T08:20:16Z</time></trkpt><trkpt lat="44.59141406146732" lon="10.455871904319125"><ele>496.0</ele><time>2026-04-12T08:20:17Z</time></trkpt><trkpt lat="44.59135094599786" lon="10.455729140413057"><ele>496.0</ele><time>2026-04-12T08:20:18Z</time></trkpt><trkpt lat="44.59127421142271" lon="10.455601772722671"><ele>496.0</ele><time>2026-04-12T08:20:19Z</time></trkpt><trkpt lat="44.591180556323714" lon="10.455464989681284"><ele>496.0</ele><time>2026-04-12T08:20:20Z</time></trkpt><trkpt lat="44.59105719026778" lon="10.455351044522967"><ele>496.0</ele><time>2026-04-12T08:20:21Z</time></trkpt><trkpt lat="44.590931701320464" lon="10.455274619074324"><ele>499.25</ele><time>2026-04-12T08:20:21.999Z</time></trkpt><trkpt lat="44.590808545920105" lon="10.455229315990202"><ele>502.5</ele><time>2026-04-12T08:20:22.999Z</time></trkpt><trkpt lat="44.590677419691495" lon="10.455210988590878"><ele>505.75</ele><time>2026-04-12T08:20:23.999Z</time></trkpt><trkpt lat="44.59054710210361" lon="10.455196305780783"><ele>509.0</ele><time>2026-04-12T08:20:24.999Z</time></trkpt><trkpt lat="44.59042179030286" lon="10.45515770049351"><ele>510.0</ele><time>2026-04-12T08:20:25.999Z</time></trkpt><trkpt lat="44.590296486815085" lon="10.455105082338127"><ele>511.0</ele><time>2026-04-12T08:20:26.999Z</time></trkpt><trkpt lat="44.59016542102389" lon="10.45505057177096"><ele>512.0</ele><time>2026-04-12T08:20:27.999Z</time></trkpt><trkpt lat="44.59003822676249" lon="10.454999534473416"><ele>513.0</ele><time>2026-04-12T08:20:28.999Z</time></trkpt><trkpt lat="44.58993367217178" lon="10.454962437785758"><ele>513.0</ele><time>2026-04-12T08:20:29.999Z</time></trkpt><trkpt lat="44.589856348926176" lon="10.454932423653947"><ele>513.0</ele><time>2026-04-12T08:20:30.999Z</time></trkpt><trkpt lat="44.589770891001116" lon="10.454877179498787"><ele>513.0</ele><time>2026-04-12T08:20:32.999Z</time></trkpt><trkpt lat="44.589719982643" lon="10.454820174232868"><ele>513.0</ele><time>2026-04-12T08:20:34.999Z</time></trkpt><trkpt lat="44.5896314427556" lon="10.454817664506178"><ele>513.0</ele><time>2026-04-12T08:20:35.999Z</time></trkpt><trkpt lat="44.58952341163923" lon="10.454810899904201"><ele>513.0</ele><time>2026-04-12T08:20:36.999Z</time></trkpt><trkpt lat="44.58941116921752" lon="10.454820548699413"><ele>512.5</ele><time>2026-04-12T08:20:37.999Z</time></trkpt><trkpt lat="44.58928772935864" lon="10.454817147426974"><ele>512.0</ele><time>2026-04-12T08:20:38.999Z</time></trkpt><trkpt lat="44.58917704715803" lon="10.454871917020153"><ele>511.5</ele><time>2026-04-12T08:20:39.999Z</time></trkpt><trkpt lat="44.589069163054575" lon="10.454916905997669"><ele>511.0</ele><time>2026-04-12T08:20:40.999Z</time></trkpt><trkpt lat="44.58896410159318" lon="10.454986548813112"><ele>511.0</ele><time>2026-04-12T08:20:41.999Z</time></trkpt><trkpt lat="44.588850180255655" lon="10.4550810984554"><ele>511.0</ele><time>2026-04-12T08:20:42.999Z</time></trkpt><trkpt lat="44.58874215239725" lon="10.455176711214454"><ele>511.0</ele><time>2026-04-12T08:20:43.999Z</time></trkpt><trkpt lat="44.58865071262023" lon="10.45526235463446"><ele>511.0</ele><time>2026-04-12T08:20:44.999Z</time></trkpt><trkpt lat="44.58857311015773" lon="10.455359057140814"><ele>508.25</ele><time>2026-04-12T08:20:45.999Z</time></trkpt><trkpt lat="44.58851309152016" lon="10.45548287230402"><ele>505.5</ele><time>2026-04-12T08:20:46.999Z</time></trkpt><trkpt lat="44.5884702184411" lon="10.455645248509946"><ele>502.75</ele><time>2026-04-12T08:20:47.999Z</time></trkpt><trkpt lat="44.588434994032774" lon="10.455842449423397"><ele>500.0</ele><time>2026-04-12T08:20:48.999Z</time></trkpt><trkpt lat="44.58839503865396" lon="10.45607246984428"><ele>499.66666666666663</ele><time>2026-04-12T08:20:49.999Z</time></trkpt><trkpt lat="44.588346479622444" lon="10.456319193684813"><ele>499.33333333333337</ele><time>2026-04-12T08:20:50.999Z</time></trkpt><trkpt lat="44.58830419360199" lon="10.456527851718722"><ele>499.0</ele><time>2026-04-12T08:20:51.999Z</time></trkpt><trkpt lat="44.58825781960033" lon="10.456732459100186"><ele>499.0</ele><time>2026-04-12T08:20:52.999Z</time></trkpt><trkpt lat="44.5882082982976" lon="10.45691709268649"><ele>499.0</ele><time>2026-04-12T08:20:53.999Z</time></trkpt><trkpt lat="44.588145470244825" lon="10.457081862172261"><ele>499.0</ele><time>2026-04-12T08:20:54.999Z</time></trkpt><trkpt lat="44.58806100299449" lon="10.457222615020033"><ele>499.0</ele><time>2026-04-12T08:20:55.999Z</time></trkpt><trkpt lat="44.58795363593621" lon="10.457362690272944"><ele>497.33333333333337</ele><time>2026-04-12T08:20:56.999Z</time></trkpt><trkpt lat="44.58784606784578" lon="10.457513213934792"><ele>495.66666666666663</ele><time>2026-04-12T08:20:57.999Z</time></trkpt><trkpt lat="44.587719400151954" lon="10.457665685978881"><ele>494.0</ele><time>2026-04-12T08:20:58.999Z</time></trkpt><trkpt lat="44.58760566682827" lon="10.45782950172051"><ele>494.66666666666663</ele><time>2026-04-12T08:20:59.999Z</time></trkpt><trkpt lat="44.587503257405245" lon="10.457986343056012"><ele>495.33333333333337</ele><time>2026-04-12T08:21:00.999Z</time></trkpt><trkpt lat="44.587428874839325" lon="10.458175668149416"><ele>496.0</ele><time>2026-04-12T08:21:01.999Z</time></trkpt><trkpt lat="44.587341398098644" lon="10.458372663802916"><ele>496.0</ele><time>2026-04-12T08:21:02.999Z</time></trkpt><trkpt lat="44.58725412467567" lon="10.458592237958081"><ele>496.0</ele><time>2026-04-12T08:21:03.999Z</time></trkpt><trkpt lat="44.587171543866965" lon="10.458784295899276"><ele>496.0</ele><time>2026-04-12T08:21:04.999Z</time></trkpt><trkpt lat="44.58709693516" lon="10.458952764511011"><ele>494.75</ele><time>2026-04-12T08:21:05.999Z</time></trkpt><trkpt lat="44.58702065655408" lon="10.459130005128719"><ele>493.5</ele><time>2026-04-12T08:21:06.999Z</time></trkpt><trkpt lat="44.58697969836767" lon="10.459338249968134"><ele>492.25</ele><time>2026-04-12T08:21:07.999Z</time></trkpt><trkpt lat="44.58697044339151" lon="10.459540937195003"><ele>491.0</ele><time>2026-04-12T08:21:08.999Z</time></trkpt><trkpt lat="44.58693200064255" lon="10.45971048292265"><ele>496.25</ele><time>2026-04-12T08:21:09.999Z</time></trkpt><trkpt lat="44.58684845370614" lon="10.459841685127643"><ele>501.5</ele><time>2026-04-12T08:21:10.999Z</time></trkpt><trkpt lat="44.58675396999258" lon="10.460003534292209"><ele>506.75</ele><time>2026-04-12T08:21:11.999Z</time></trkpt><trkpt lat="44.58665767317151" lon="10.460190236147021"><ele>512.0</ele><time>2026-04-12T08:21:12.999Z</time></trkpt><trkpt lat="44.5865469661982" lon="10.460361238048158"><ele>509.25</ele><time>2026-04-12T08:21:13.999Z</time></trkpt><trkpt lat="44.58645120387343" lon="10.460509476448985"><ele>506.5</ele><time>2026-04-12T08:21:14.999Z</time></trkpt><trkpt lat="44.586368355784664" lon="10.46063928724629"><ele>503.75</ele><time>2026-04-12T08:21:15.999Z</time></trkpt><trkpt lat="44.58629460159172" lon="10.460755128477995"><ele>501.0</ele><time>2026-04-12T08:21:16.999Z</time></trkpt><trkpt lat="44.58622906363906" lon="10.46084918421807"><ele>501.6666666666667</ele><time>2026-04-12T08:21:17.999Z</time></trkpt><trkpt lat="44.58616806608836" lon="10.460919098037394"><ele>502.33333333333337</ele><time>2026-04-12T08:21:18.999Z</time></trkpt><trkpt lat="44.58610888572749" lon="10.460964451985358"><ele>503.0</ele><time>2026-04-12T08:21:19.999Z</time></trkpt><trkpt lat="44.58599899687344" lon="10.460964520325046"><ele>503.6666666666667</ele><time>2026-04-12T08:21:21.999Z</time></trkpt><trkpt lat="44.585937507454084" lon="10.46091582653189"><ele>504.33333333333337</ele><time>2026-04-12T08:21:23.999Z</time></trkpt><trkpt lat="44.58586011434354" lon="10.461037891329287"><ele>505.0</ele><time>2026-04-12T08:21:26Z</time></trkpt><trkpt lat="44.58582982948749" lon="10.46116269851131"><ele>505.4</ele><time>2026-04-12T08:21:27Z</time></trkpt><trkpt lat="44.585787778520086" lon="10.46128832634429"><ele>505.8</ele><time>2026-04-12T08:21:28Z</time></trkpt><trkpt lat="44.58573582490593" lon="10.461419554929531"><ele>506.20000000000005</ele><time>2026-04-12T08:21:29Z</time></trkpt><trkpt lat="44.58573649879634" lon="10.461596241749888"><ele>506.6</ele><time>2026-04-12T08:21:30Z</time></trkpt><trkpt lat="44.585720194251806" lon="10.461715845230183"><ele>507.0</ele><time>2026-04-12T08:21:31Z</time></trkpt><trkpt lat="44.58569592291697" lon="10.461823160812807"><ele>507.0</ele><time>2026-04-12T08:21:32Z</time></trkpt><trkpt lat="44.5856577383897" lon="10.461925094989855"><ele>507.0</ele><time>2026-04-12T08:21:33Z</time></trkpt><trkpt lat="44.5856107910307" lon="10.46203912946185"><ele>507.0</ele><time>2026-04-12T08:21:34Z</time></trkpt><trkpt lat="44.585565788965006" lon="10.462152000503387"><ele>507.0</ele><time>2026-04-12T08:21:35Z</time></trkpt><trkpt lat="44.58553574227176" lon="10.462275137243608"><ele>507.0</ele><time>2026-04-12T08:21:36Z</time></trkpt><trkpt lat="44.58548270167771" lon="10.462371988435311"><ele>507.0</ele><time>2026-04-12T08:21:37Z</time></trkpt><trkpt lat="44.58545825089882" lon="10.462474908920065"><ele>506.8</ele><time>2026-04-12T08:21:38Z</time></trkpt><trkpt lat="44.585456653241025" lon="10.462578327896944"><ele>506.6</ele><time>2026-04-12T08:21:40Z</time></trkpt><trkpt lat="44.58538027567352" lon="10.462753549813065"><ele>506.40000000000003</ele><time>2026-04-12T08:22:51.999Z</time></trkpt><trkpt lat="44.58532717523397" lon="10.462839939429395"><ele>506.20000000000005</ele><time>2026-04-12T08:22:52.999Z</time></trkpt><trkpt lat="44.58527951926129" lon="10.462943768219484"><ele>506.0</ele><time>2026-04-12T08:22:54.999Z</time></trkpt><trkpt lat="44.58537169283184" lon="10.462992833772429"><ele>507.16666666666663</ele><time>2026-04-12T08:22:55.999Z</time></trkpt><trkpt lat="44.58539734621411" lon="10.462837143245325"><ele>508.3333333333333</ele><time>2026-04-12T08:23:02.999Z</time></trkpt><trkpt lat="44.585415725745605" lon="10.462726785710828"><ele>509.5</ele><time>2026-04-12T08:23:04.999Z</time></trkpt><trkpt lat="44.58544727323873" lon="10.462613657920581"><ele>510.66666666666663</ele><time>2026-04-12T08:23:06.999Z</time></trkpt><trkpt lat="44.58547575580432" lon="10.462533796926676"><ele>511.8333333333333</ele><time>2026-04-12T08:23:08.999Z</time></trkpt><trkpt lat="44.58547624766737" lon="10.462622694615163"><ele>513.0</ele><time>2026-04-12T08:25:03.999Z</time></trkpt><trkpt lat="44.58545451618299" lon="10.462719884155726"><ele>513.0000000000001</ele><time>2026-04-12T08:25:16.999Z</time></trkpt><trkpt lat="44.585436397263386" lon="10.462805306223554"><ele>513.0</ele><time>2026-04-12T08:25:22.999Z</time></trkpt><trkpt lat="44.58540998645172" lon="10.462899640478437"><ele>513.0</ele><time>2026-04-12T08:25:29.999Z</time></trkpt><trkpt lat="44.58538765325188" lon="10.462987477444727"><ele>513.0</ele><time>2026-04-12T08:25:34.999Z</time></trkpt><trkpt lat="44.58537978756769" lon="10.463086016721185"><ele>513.0</ele><time>2026-04-12T08:25:41Z</time></trkpt><trkpt lat="44.58535486420379" lon="10.463170221899944"><ele>513.0000000000001</ele><time>2026-04-12T08:25:45Z</time></trkpt><trkpt lat="44.58531798960455" lon="10.463263291405394"><ele>513.0</ele><time>2026-04-12T08:25:50Z</time></trkpt><trkpt lat="44.58526834382317" lon="10.463207959941476"><ele>513.0000000000001</ele><time>2026-04-12T08:25:54Z</time></trkpt><trkpt lat="44.585298338412315" lon="10.463119691657527"><ele>513.0</ele><time>2026-04-12T08:26:04Z</time></trkpt><trkpt lat="44.58528966574623" lon="10.46301694932279"><ele>513.0</ele><time>2026-04-12T08:26:10Z</time></trkpt><trkpt lat="44.58525252871714" lon="10.46293692459081"><ele>513.0</ele><time>2026-04-12T08:26:26Z</time></trkpt><trkpt lat="44.58529088268335" lon="10.462859602711584"><ele>513.0</ele><time>2026-04-12T08:26:33Z</time></trkpt><trkpt lat="44.58534249401838" lon="10.462769541057959"><ele>513.0000000000001</ele><time>2026-04-12T08:27:00.999Z</time></trkpt><trkpt lat="44.58539733103947" lon="10.462697287089606"><ele>513.0</ele><time>2026-04-12T08:27:10.999Z</time></trkpt><trkpt lat="44.585461073164005" lon="10.462653047346784"><ele>513.0</ele><time>2026-04-12T08:27:15.999Z</time></trkpt><trkpt lat="44.58550467717817" lon="10.462584561283752"><ele>513.0</ele><time>2026-04-12T08:27:26.999Z</time></trkpt><trkpt lat="44.58547220383611" lon="10.462471763887176"><ele>513.0</ele><time>2026-04-12T08:28:19Z</time></trkpt><trkpt lat="44.58551642213576" lon="10.462346479343575"><ele>513.0</ele><time>2026-04-12T08:28:20Z</time></trkpt><trkpt lat="44.585559155285814" lon="10.462234216460166"><ele>513.0</ele><time>2026-04-12T08:28:21Z</time></trkpt><trkpt lat="44.58560115627328" lon="10.462129848299297"><ele>513.0</ele><time>2026-04-12T08:28:22Z</time></trkpt><trkpt lat="44.58564332876654" lon="10.462023548588169"><ele>512.0</ele><time>2026-04-12T08:28:23Z</time></trkpt><trkpt lat="44.58568249604854" lon="10.46191899093617"><ele>511.0</ele><time>2026-04-12T08:28:24Z</time></trkpt><trkpt lat="44.58571866805893" lon="10.461823952854555"><ele>510.0</ele><time>2026-04-12T08:28:25Z</time></trkpt><trkpt lat="44.585739585518304" lon="10.461727607171957"><ele>509.0</ele><time>2026-04-12T08:28:26Z</time></trkpt><trkpt lat="44.585753328256516" lon="10.461620137469955"><ele>508.0</ele><time>2026-04-12T08:28:27Z</time></trkpt><trkpt lat="44.585766192781556" lon="10.461504686017378"><ele>507.0</ele><time>2026-04-12T08:28:28Z</time></trkpt><trkpt lat="44.58578044611185" lon="10.461403846077728"><ele>507.0</ele><time>2026-04-12T08:28:29Z</time></trkpt><trkpt lat="44.58579765881042" lon="10.46131595423635"><ele>507.0</ele><time>2026-04-12T08:28:30Z</time></trkpt><trkpt lat="44.585817445290616" lon="10.461229381641363"><ele>507.0</ele><time>2026-04-12T08:28:31Z</time></trkpt><trkpt lat="44.585857258739836" lon="10.461097539238056"><ele>507.0</ele><time>2026-04-12T08:28:33Z</time></trkpt><trkpt lat="44.58589452746324" lon="10.461005177212567"><ele>507.0</ele><time>2026-04-12T08:28:35.999Z</time></trkpt><trkpt lat="44.58588782471102" lon="10.460837593279436"><ele>507.0</ele><time>2026-04-12T08:28:59.999Z</time></trkpt><trkpt lat="44.585852017174275" lon="10.460712086707836"><ele>506.5</ele><time>2026-04-12T08:29:00.999Z</time></trkpt><trkpt lat="44.58579980274586" lon="10.46056391927611"><ele>506.0</ele><time>2026-04-12T08:29:01.999Z</time></trkpt><trkpt lat="44.58573710149425" lon="10.460369469886738"><ele>505.5</ele><time>2026-04-12T08:29:02.999Z</time></trkpt><trkpt lat="44.585671170920016" lon="10.460171637728974"><ele>505.0</ele><time>2026-04-12T08:29:03.999Z</time></trkpt><trkpt lat="44.58560411740652" lon="10.460013514625386"><ele>506.0</ele><time>2026-04-12T08:29:04.999Z</time></trkpt><trkpt lat="44.58553888324578" lon="10.459871795163561"><ele>507.0</ele><time>2026-04-12T08:29:05.999Z</time></trkpt><trkpt lat="44.58545464375969" lon="10.459755476894772"><ele>508.0</ele><time>2026-04-12T08:29:06.999Z</time></trkpt><trkpt lat="44.58535000636881" lon="10.45965217074524"><ele>509.0</ele><time>2026-04-12T08:29:07.999Z</time></trkpt><trkpt lat="44.585214216895196" lon="10.459555234002838"><ele>503.66666666666663</ele><time>2026-04-12T08:29:08.999Z</time></trkpt><trkpt lat="44.58505249232294" lon="10.459441489534225"><ele>498.33333333333337</ele><time>2026-04-12T08:29:09.999Z</time></trkpt><trkpt lat="44.58486447939099" lon="10.459301149444368"><ele>493.0</ele><time>2026-04-12T08:29:10.999Z</time></trkpt><trkpt lat="44.58469631945214" lon="10.45916908853922"><ele>493.0</ele><time>2026-04-12T08:29:11.999Z</time></trkpt><trkpt lat="44.58453258557956" lon="10.4590356935512"><ele>493.0</ele><time>2026-04-12T08:29:12.999Z</time></trkpt><trkpt lat="44.58438956228125" lon="10.458907001852939"><ele>493.0</ele><time>2026-04-12T08:29:13.999Z</time></trkpt><trkpt lat="44.58426653829363" lon="10.458769274978435"><ele>493.0</ele><time>2026-04-12T08:29:14.999Z</time></trkpt><trkpt lat="44.58415649255946" lon="10.458639721757429"><ele>493.0</ele><time>2026-04-12T08:29:15.999Z</time></trkpt><trkpt lat="44.58404264568746" lon="10.458543689353169"><ele>493.0</ele><time>2026-04-12T08:29:16.999Z</time></trkpt><trkpt lat="44.58391089596331" lon="10.458483407304907"><ele>493.0</ele><time>2026-04-12T08:29:17.999Z</time></trkpt><trkpt lat="44.58376559110654" lon="10.45843578524298"><ele>493.25</ele><time>2026-04-12T08:29:18.999Z</time></trkpt><trkpt lat="44.583624936361744" lon="10.458394733771645"><ele>493.5</ele><time>2026-04-12T08:29:19.999Z</time></trkpt><trkpt lat="44.58348726543487" lon="10.45834827083518"><ele>493.75</ele><time>2026-04-12T08:29:20.999Z</time></trkpt><trkpt lat="44.58335930634182" lon="10.458297248459642"><ele>494.0</ele><time>2026-04-12T08:29:21.999Z</time></trkpt><trkpt lat="44.583245233578005" lon="10.45824625332899"><ele>494.0</ele><time>2026-04-12T08:29:22.999Z</time></trkpt><trkpt lat="44.58314143447053" lon="10.458211621882192"><ele>494.0</ele><time>2026-04-12T08:29:23.999Z</time></trkpt><trkpt lat="44.58304552718688" lon="10.45821401791497"><ele>494.0</ele><time>2026-04-12T08:29:24.999Z</time></trkpt><trkpt lat="44.58294054096319" lon="10.458252164152066"><ele>494.0</ele><time>2026-04-12T08:29:25.999Z</time></trkpt><trkpt lat="44.58285495672565" lon="10.458275765053738"><ele>494.0</ele><time>2026-04-12T08:29:26.999Z</time></trkpt><trkpt lat="44.58274029226801" lon="10.45821474784998"><ele>493.79999999999995</ele><time>2026-04-12T08:29:28.999Z</time></trkpt><trkpt lat="44.58270672326335" lon="10.458120177553049"><ele>493.59999999999997</ele><time>2026-04-12T08:29:29.999Z</time></trkpt><trkpt lat="44.582697156071774" lon="10.45798646534522"><ele>493.4</ele><time>2026-04-12T08:29:30.999Z</time></trkpt><trkpt lat="44.58270366257944" lon="10.457838217288801"><ele>493.2</ele><time>2026-04-12T08:29:31.999Z</time></trkpt><trkpt lat="44.58270231387037" lon="10.457681906152994"><ele>493.0</ele><time>2026-04-12T08:29:32.999Z</time></trkpt><trkpt lat="44.582672662494005" lon="10.457532840943099"><ele>493.0</ele><time>2026-04-12T08:29:33.999Z</time></trkpt><trkpt lat="44.58261917540262" lon="10.457385693838688"><ele>492.99999999999994</ele><time>2026-04-12T08:29:34.999Z</time></trkpt><trkpt lat="44.5825543301749" lon="10.457254670126435"><ele>492.99999999999994</ele><time>2026-04-12T08:29:35.999Z</time></trkpt><trkpt lat="44.58247316130074" lon="10.457161411996713"><ele>493.0</ele><time>2026-04-12T08:29:36.999Z</time></trkpt><trkpt lat="44.58238180541837" lon="10.4570827679325"><ele>493.0</ele><time>2026-04-12T08:29:37.999Z</time></trkpt><trkpt lat="44.5822677505835" lon="10.456994969949633"><ele>492.75</ele><time>2026-04-12T08:29:38.999Z</time></trkpt><trkpt lat="44.582144662750146" lon="10.456893795553544"><ele>492.5</ele><time>2026-04-12T08:29:39.999Z</time></trkpt><trkpt lat="44.582042941376606" lon="10.45677693050108"><ele>492.25</ele><time>2026-04-12T08:29:40.999Z</time></trkpt><trkpt lat="44.58195986622985" lon="10.456622016600274"><ele>492.0</ele><time>2026-04-12T08:29:41.999Z</time></trkpt><trkpt lat="44.58187549675055" lon="10.456466283114707"><ele>492.0</ele><time>2026-04-12T08:29:42.999Z</time></trkpt><trkpt lat="44.58175779266728" lon="10.456342438522329"><ele>492.0</ele><time>2026-04-12T08:29:43.999Z</time></trkpt><trkpt lat="44.581621090151835" lon="10.45623583613355"><ele>492.0</ele><time>2026-04-12T08:29:44.999Z</time></trkpt><trkpt lat="44.5814691285396" lon="10.456135759421228"><ele>493.33333333333337</ele><time>2026-04-12T08:29:45.999Z</time></trkpt><trkpt lat="44.58130770718689" lon="10.45604586968678"><ele>494.6666666666667</ele><time>2026-04-12T08:29:46.999Z</time></trkpt><trkpt lat="44.581135919143364" lon="10.455975078150853"><ele>496.0</ele><time>2026-04-12T08:29:48Z</time></trkpt><trkpt lat="44.58094821150673" lon="10.455920104124612"><ele>496.0</ele><time>2026-04-12T08:29:49Z</time></trkpt><trkpt lat="44.580751443788266" lon="10.45586417066099"><ele>496.0</ele><time>2026-04-12T08:29:50Z</time></trkpt><trkpt lat="44.58057449333558" lon="10.455798473959966"><ele>496.0</ele><time>2026-04-12T08:29:51Z</time></trkpt><trkpt lat="44.58042864650775" lon="10.455738116228154"><ele>495.0</ele><time>2026-04-12T08:29:52Z</time></trkpt><trkpt lat="44.580297631381974" lon="10.455681752600226"><ele>494.0</ele><time>2026-04-12T08:29:53Z</time></trkpt><trkpt lat="44.58015990491433" lon="10.455619955305215"><ele>493.0</ele><time>2026-04-12T08:29:54Z</time></trkpt><trkpt lat="44.58002629909041" lon="10.455525053725523"><ele>492.0</ele><time>2026-04-12T08:29:55Z</time></trkpt><trkpt lat="44.579878771909826" lon="10.4554343985338"><ele>492.0</ele><time>2026-04-12T08:29:56Z</time></trkpt><trkpt lat="44.57972349045008" lon="10.455354092458261"><ele>492.0</ele><time>2026-04-12T08:29:57Z</time></trkpt><trkpt lat="44.57960043525294" lon="10.455271392311918"><ele>492.0</ele><time>2026-04-12T08:29:58Z</time></trkpt><trkpt lat="44.5794906390066" lon="10.455200740749513"><ele>492.0</ele><time>2026-04-12T08:29:59Z</time></trkpt><trkpt lat="44.579390784463776" lon="10.455138691733248"><ele>493.25</ele><time>2026-04-12T08:30:00Z</time></trkpt><trkpt lat="44.579294003239475" lon="10.455080440103771"><ele>494.5</ele><time>2026-04-12T08:30:01Z</time></trkpt><trkpt lat="44.579187176207725" lon="10.455082124080771"><ele>495.75</ele><time>2026-04-12T08:30:02Z</time></trkpt><trkpt lat="44.57907990561882" lon="10.455183304147269"><ele>497.0</ele><time>2026-04-12T08:30:03Z</time></trkpt><trkpt lat="44.57896700717404" lon="10.455271694397162"><ele>497.0</ele><time>2026-04-12T08:30:04Z</time></trkpt><trkpt lat="44.578841803592944" lon="10.455341370473294"><ele>497.0</ele><time>2026-04-12T08:30:05Z</time></trkpt><trkpt lat="44.578704862572465" lon="10.455380175835867"><ele>497.0</ele><time>2026-04-12T08:30:06Z</time></trkpt><trkpt lat="44.5785568914132" lon="10.455377993842554"><ele>497.0</ele><time>2026-04-12T08:30:07Z</time></trkpt><trkpt lat="44.57841868002864" lon="10.45537212763298"><ele>495.5</ele><time>2026-04-12T08:30:08Z</time></trkpt><trkpt lat="44.578289576115424" lon="10.455385088318325"><ele>494.0</ele><time>2026-04-12T08:30:09Z</time></trkpt><trkpt lat="44.57815935027343" lon="10.45543998356209"><ele>492.5</ele><time>2026-04-12T08:30:10Z</time></trkpt><trkpt lat="44.578024552020075" lon="10.455525756293904"><ele>491.0</ele><time>2026-04-12T08:30:11Z</time></trkpt><trkpt lat="44.57788948398117" lon="10.45563550727354"><ele>493.25</ele><time>2026-04-12T08:30:12Z</time></trkpt><trkpt lat="44.57776415774954" lon="10.455760906408011"><ele>495.5</ele><time>2026-04-12T08:30:13Z</time></trkpt><trkpt lat="44.577663251635215" lon="10.455870579679157"><ele>497.75</ele><time>2026-04-12T08:30:14Z</time></trkpt><trkpt lat="44.577577164817576" lon="10.455965712443533"><ele>500.0</ele><time>2026-04-12T08:30:15Z</time></trkpt><trkpt lat="44.57748734192944" lon="10.456029504539082"><ele>500.0</ele><time>2026-04-12T08:30:16Z</time></trkpt><trkpt lat="44.57737946806903" lon="10.456026923716202"><ele>500.0</ele><time>2026-04-12T08:30:17Z</time></trkpt><trkpt lat="44.577264205982324" lon="10.456061822839695"><ele>500.0</ele><time>2026-04-12T08:30:18Z</time></trkpt><trkpt lat="44.57713776104032" lon="10.45606839482603"><ele>500.0</ele><time>2026-04-12T08:30:19Z</time></trkpt><trkpt lat="44.57701687374459" lon="10.456096565210773"><ele>501.5</ele><time>2026-04-12T08:30:19.999Z</time></trkpt><trkpt lat="44.57688820596591" lon="10.456129293884276"><ele>503.0</ele><time>2026-04-12T08:30:20.999Z</time></trkpt><trkpt lat="44.57676941083311" lon="10.45624466330086"><ele>504.5</ele><time>2026-04-12T08:30:21.999Z</time></trkpt><trkpt lat="44.57665253415404" lon="10.456375498539646"><ele>506.0</ele><time>2026-04-12T08:30:22.999Z</time></trkpt><trkpt lat="44.576561664948365" lon="10.456471119751502"><ele>506.0</ele><time>2026-04-12T08:30:23.999Z</time></trkpt><trkpt lat="44.57649510525449" lon="10.45657215665594"><ele>506.0</ele><time>2026-04-12T08:30:24.999Z</time></trkpt><trkpt lat="44.57644839812835" lon="10.456700751178696"><ele>506.0</ele><time>2026-04-12T08:30:25.999Z</time></trkpt><trkpt lat="44.576416189175745" lon="10.456865902792082"><ele>506.0</ele><time>2026-04-12T08:30:26.999Z</time></trkpt><trkpt lat="44.576382192048634" lon="10.457023301284899"><ele>506.0</ele><time>2026-04-12T08:30:27.999Z</time></trkpt><trkpt lat="44.57633924477113" lon="10.457165342952448"><ele>506.49999999999994</ele><time>2026-04-12T08:30:28.999Z</time></trkpt><trkpt lat="44.57628661657607" lon="10.457279048196503"><ele>507.0</ele><time>2026-04-12T08:30:29.999Z</time></trkpt><trkpt lat="44.57621721178914" lon="10.457334783268173"><ele>507.5</ele><time>2026-04-12T08:30:30.999Z</time></trkpt><trkpt lat="44.57614083063759" lon="10.457351483663846"><ele>508.0</ele><time>2026-04-12T08:30:31.999Z</time></trkpt><trkpt lat="44.5760609958289" lon="10.457351142819716"><ele>508.49999999999994</ele><time>2026-04-12T08:30:32.999Z</time></trkpt><trkpt lat="44.575977482670964" lon="10.45731485934352"><ele>509.0</ele><time>2026-04-12T08:30:33.999Z</time></trkpt><trkpt lat="44.57587125011071" lon="10.457303055398103"><ele>509.0</ele><time>2026-04-12T08:30:34.999Z</time></trkpt><trkpt lat="44.57575656165598" lon="10.457266765455246"><ele>509.0</ele><time>2026-04-12T08:30:35.999Z</time></trkpt><trkpt lat="44.57563983435611" lon="10.457203562328273"><ele>509.0</ele><time>2026-04-12T08:30:36.999Z</time></trkpt><trkpt lat="44.575546023670086" lon="10.457139287237242"><ele>509.0</ele><time>2026-04-12T08:30:37.999Z</time></trkpt><trkpt lat="44.575467794729946" lon="10.457053584774489"><ele>509.0</ele><time>2026-04-12T08:30:38.999Z</time></trkpt><trkpt lat="44.57538764854201" lon="10.456938958669548"><ele>509.0</ele><time>2026-04-12T08:30:39.999Z</time></trkpt><trkpt lat="44.575322467514916" lon="10.456780189027215"><ele>509.0</ele><time>2026-04-12T08:30:40.999Z</time></trkpt><trkpt lat="44.57525386120798" lon="10.456585036744093"><ele>509.0</ele><time>2026-04-12T08:30:41.999Z</time></trkpt><trkpt lat="44.575180820429296" lon="10.456387660556414"><ele>509.0</ele><time>2026-04-12T08:30:42.999Z</time></trkpt><trkpt lat="44.575148905746765" lon="10.45620492793367"><ele>512.0</ele><time>2026-04-12T08:30:43.999Z</time></trkpt><trkpt lat="44.575092019096004" lon="10.456053162687457"><ele>515.0</ele><time>2026-04-12T08:30:44.999Z</time></trkpt><trkpt lat="44.575039463278486" lon="10.455908322685548"><ele>518.0</ele><time>2026-04-12T08:30:45.999Z</time></trkpt><trkpt lat="44.574939582558585" lon="10.455828160205908"><ele>521.0</ele><time>2026-04-12T08:30:46.999Z</time></trkpt><trkpt lat="44.574839622457134" lon="10.455703119107685"><ele>521.0</ele><time>2026-04-12T08:30:47.999Z</time></trkpt><trkpt lat="44.57470733789363" lon="10.45562227675283"><ele>521.0</ele><time>2026-04-12T08:30:48.999Z</time></trkpt><trkpt lat="44.57456315050542" lon="10.455552032178176"><ele>521.0</ele><time>2026-04-12T08:30:49.999Z</time></trkpt><trkpt lat="44.57443471211052" lon="10.455473520703935"><ele>521.0</ele><time>2026-04-12T08:30:50.999Z</time></trkpt><trkpt lat="44.57432430398882" lon="10.455397754532314"><ele>519.6</ele><time>2026-04-12T08:30:51.999Z</time></trkpt><trkpt lat="44.574220321192264" lon="10.455329370139111"><ele>518.2</ele><time>2026-04-12T08:30:52.999Z</time></trkpt><trkpt lat="44.57413478734106" lon="10.455273280092214"><ele>516.8</ele><time>2026-04-12T08:30:53.999Z</time></trkpt><trkpt lat="44.5740608156291" lon="10.455233346575078"><ele>515.4</ele><time>2026-04-12T08:30:54.999Z</time></trkpt><trkpt lat="44.5739913216756" lon="10.455193700450481"><ele>514.0</ele><time>2026-04-12T08:30:55.999Z</time></trkpt><trkpt lat="44.57389637632339" lon="10.455131181507369"><ele>514.0</ele><time>2026-04-12T08:30:56.999Z</time></trkpt><trkpt lat="44.57378408352169" lon="10.45505472514117"><ele>514.0</ele><time>2026-04-12T08:30:57.999Z</time></trkpt><trkpt lat="44.57367765979993" lon="10.454974981745268"><ele>514.0</ele><time>2026-04-12T08:30:58.999Z</time></trkpt><trkpt lat="44.57357692092296" lon="10.454899000969887"><ele>514.0</ele><time>2026-04-12T08:30:59.999Z</time></trkpt><trkpt lat="44.57348730887207" lon="10.454833464693895"><ele>511.50000000000006</ele><time>2026-04-12T08:31:00.999Z</time></trkpt><trkpt lat="44.57341482092252" lon="10.454782330592497"><ele>509.0</ele><time>2026-04-12T08:31:01.999Z</time></trkpt><trkpt lat="44.5733589324682" lon="10.45473926382195"><ele>506.5</ele><time>2026-04-12T08:31:02.999Z</time></trkpt><trkpt lat="44.573298055429746" lon="10.454638294656938"><ele>504.0</ele><time>2026-04-12T08:31:04.999Z</time></trkpt><trkpt lat="44.57328565114309" lon="10.454543891041398"><ele>501.50000000000006</ele><time>2026-04-12T08:31:05.999Z</time></trkpt><trkpt lat="44.573284884938076" lon="10.454418084409498"><ele>499.0</ele><time>2026-04-12T08:31:06.999Z</time></trkpt><trkpt lat="44.573276795258316" lon="10.454276031933272"><ele>499.0</ele><time>2026-04-12T08:31:07.999Z</time></trkpt><trkpt lat="44.57324324727995" lon="10.45413055171559"><ele>499.0</ele><time>2026-04-12T08:31:08.999Z</time></trkpt><trkpt lat="44.57318412082553" lon="10.453990222684924"><ele>499.0</ele><time>2026-04-12T08:31:09.999Z</time></trkpt><trkpt lat="44.57312047298076" lon="10.45385321362674"><ele>499.0</ele><time>2026-04-12T08:31:10.999Z</time></trkpt><trkpt lat="44.57307286624287" lon="10.453713148394637"><ele>497.79999999999995</ele><time>2026-04-12T08:31:11.999Z</time></trkpt><trkpt lat="44.57305801777155" lon="10.453557204800244"><ele>496.59999999999997</ele><time>2026-04-12T08:31:12.999Z</time></trkpt><trkpt lat="44.57303871101649" lon="10.453419414524918"><ele>495.4</ele><time>2026-04-12T08:31:13.999Z</time></trkpt><trkpt lat="44.57298135282463" lon="10.453305778978297"><ele>494.2</ele><time>2026-04-12T08:31:14.999Z</time></trkpt><trkpt lat="44.5728891181756" lon="10.453227386342821"><ele>493.0</ele><time>2026-04-12T08:31:15.999Z</time></trkpt><trkpt lat="44.57277989163384" lon="10.45313640260907"><ele>493.0</ele><time>2026-04-12T08:31:16.999Z</time></trkpt><trkpt lat="44.57265985171206" lon="10.453042127506722"><ele>493.0</ele><time>2026-04-12T08:31:17.999Z</time></trkpt><trkpt lat="44.57255283272074" lon="10.452944926018075"><ele>493.0</ele><time>2026-04-12T08:31:18.999Z</time></trkpt><trkpt lat="44.572467312942464" lon="10.45283578445365"><ele>493.0</ele><time>2026-04-12T08:31:19.999Z</time></trkpt><trkpt lat="44.57239734958526" lon="10.452693724075733"><ele>493.1666666666667</ele><time>2026-04-12T08:31:20.999Z</time></trkpt><trkpt lat="44.57233798557556" lon="10.452537966089707"><ele>493.33333333333337</ele><time>2026-04-12T08:31:21.999Z</time></trkpt><trkpt lat="44.572289828099926" lon="10.452410650848986"><ele>493.5</ele><time>2026-04-12T08:31:22.999Z</time></trkpt><trkpt lat="44.57224916764792" lon="10.452315588203613"><ele>493.66666666666663</ele><time>2026-04-12T08:31:23.999Z</time></trkpt><trkpt lat="44.57221463553163" lon="10.45223992489077"><ele>493.8333333333333</ele><time>2026-04-12T08:31:24.999Z</time></trkpt><trkpt lat="44.57217190407565" lon="10.452153029224684"><ele>494.0</ele><time>2026-04-12T08:31:25.999Z</time></trkpt><trkpt lat="44.57211889064579" lon="10.452078726332688"><ele>494.6</ele><time>2026-04-12T08:31:26.999Z</time></trkpt><trkpt lat="44.572081928697614" lon="10.451932177883512"><ele>495.2</ele><time>2026-04-12T08:31:28.999Z</time></trkpt><trkpt lat="44.57203051723546" lon="10.451844119594906"><ele>495.80000000000007</ele><time>2026-04-12T08:31:31.999Z</time></trkpt><trkpt lat="44.57200030673217" lon="10.451722919768299"><ele>496.40000000000003</ele><time>2026-04-12T08:31:34.999Z</time></trkpt><trkpt lat="44.57197371404333" lon="10.451611478362336"><ele>497.0</ele><time>2026-04-12T08:31:37.999Z</time></trkpt><trkpt lat="44.571968408987935" lon="10.451483561331013"><ele>500.99999999999994</ele><time>2026-04-12T08:31:40.999Z</time></trkpt><trkpt lat="44.57189779191747" lon="10.451374088879964"><ele>505.0</ele><time>2026-04-12T08:31:42.999Z</time></trkpt><trkpt lat="44.57183255434588" lon="10.451322328847708"><ele>509.0</ele><time>2026-04-12T08:32:45.999Z</time></trkpt><trkpt lat="44.57176756059745" lon="10.451230931838472"><ele>513.0</ele><time>2026-04-12T08:32:46.999Z</time></trkpt><trkpt lat="44.5717135961596" lon="10.451133717130727"><ele>517.0</ele><time>2026-04-12T08:32:47.999Z</time></trkpt><trkpt lat="44.571664367838764" lon="10.451058637288327"><ele>521.0</ele><time>2026-04-12T08:32:48.999Z</time></trkpt><trkpt lat="44.571597473024795" lon="10.450990833568074"><ele>522.3333333333333</ele><time>2026-04-12T08:32:50.999Z</time></trkpt><trkpt lat="44.571518625163776" lon="10.450945247119835"><ele>523.6666666666666</ele><time>2026-04-12T08:32:52.999Z</time></trkpt><trkpt lat="44.57145263432571" lon="10.45090326808877"><ele>525.0</ele><time>2026-04-12T08:32:53.999Z</time></trkpt><trkpt lat="44.57138475887334" lon="10.450866221051008"><ele>526.3333333333334</ele><time>2026-04-12T08:32:55.999Z</time></trkpt><trkpt lat="44.5712801039596" lon="10.450938019469493"><ele>527.6666666666667</ele><time>2026-04-12T08:32:58.999Z</time></trkpt><trkpt lat="44.57121518874535" lon="10.450979740101303"><ele>529.0</ele><time>2026-04-12T08:32:59.999Z</time></trkpt><trkpt lat="44.571137113166834" lon="10.451007215652234"><ele>531.6</ele><time>2026-04-12T08:33:00.999Z</time></trkpt><trkpt lat="44.57104632693819" lon="10.451039689354493"><ele>534.2</ele><time>2026-04-12T08:33:01.999Z</time></trkpt><trkpt lat="44.57097841282868" lon="10.451045228548521"><ele>536.8000000000001</ele><time>2026-04-12T08:33:02.999Z</time></trkpt><trkpt lat="44.570880410732656" lon="10.451060723636356"><ele>539.4</ele><time>2026-04-12T08:33:04.999Z</time></trkpt><trkpt lat="44.57078110305254" lon="10.451115025250324"><ele>542.0</ele><time>2026-04-12T08:33:06.999Z</time></trkpt><trkpt lat="44.5706819822643" lon="10.451213405660525"><ele>542.0</ele><time>2026-04-12T08:33:08.999Z</time></trkpt><trkpt lat="44.570622713104235" lon="10.451279841029944"><ele>542.0</ele><time>2026-04-12T08:33:09.999Z</time></trkpt><trkpt lat="44.570562457942806" lon="10.45132965951158"><ele>542.0</ele><time>2026-04-12T08:33:10.999Z</time></trkpt><trkpt lat="44.57045677702006" lon="10.451367364101568"><ele>542.0</ele><time>2026-04-12T08:33:12.999Z</time></trkpt><trkpt lat="44.57037292704" lon="10.451328142694502"><ele>542.0</ele><time>2026-04-12T08:33:14.999Z</time></trkpt><trkpt lat="44.5702991668612" lon="10.451278670946405"><ele>542.0</ele><time>2026-04-12T08:33:16.999Z</time></trkpt><trkpt lat="44.570236192539824" lon="10.451191692514529"><ele>544.0</ele><time>2026-04-12T08:33:18.999Z</time></trkpt><trkpt lat="44.57018339663965" lon="10.451137639217727"><ele>546.0</ele><time>2026-04-12T08:33:20.999Z</time></trkpt><trkpt lat="44.57009355251373" lon="10.451233212981963"><ele>548.0</ele><time>2026-04-12T08:33:22.999Z</time></trkpt><trkpt lat="44.57004638292119" lon="10.451296565624085"><ele>550.0</ele><time>2026-04-12T08:33:24.999Z</time></trkpt><trkpt lat="44.56996609819224" lon="10.451266299427706"><ele>552.0</ele><time>2026-04-12T08:34:31.999Z</time></trkpt><trkpt lat="44.569882981503255" lon="10.45120444885704"><ele>554.0</ele><time>2026-04-12T08:34:34.999Z</time></trkpt><trkpt lat="44.56983074159841" lon="10.451131988986429"><ele>555.0</ele><time>2026-04-12T08:34:36.999Z</time></trkpt><trkpt lat="44.56976494578303" lon="10.451073577378232"><ele>556.0</ele><time>2026-04-12T08:34:38.999Z</time></trkpt><trkpt lat="44.56968349791663" lon="10.451051673383542"><ele>557.0</ele><time>2026-04-12T08:34:41.999Z</time></trkpt><trkpt lat="44.569613381382794" lon="10.451070975827912"><ele>558.0</ele><time>2026-04-12T08:34:53.999Z</time></trkpt><trkpt lat="44.5695587507998" lon="10.451119189691871"><ele>559.0</ele><time>2026-04-12T08:34:55.999Z</time></trkpt><trkpt lat="44.56949387215185" lon="10.451144643206277"><ele>560.0</ele><time>2026-04-12T08:34:57.999Z</time></trkpt><trkpt lat="44.56941674065844" lon="10.451153767420744"><ele>561.0</ele><time>2026-04-12T08:34:59.999Z</time></trkpt><trkpt lat="44.56933583875031" lon="10.451089894756638"><ele>564.5</ele><time>2026-04-12T08:35:01.999Z</time></trkpt><trkpt lat="44.56923212677381" lon="10.451082621441607"><ele>568.0</ele><time>2026-04-12T08:35:03.999Z</time></trkpt><trkpt lat="44.56913766407452" lon="10.451037185892572"><ele>571.5</ele><time>2026-04-12T08:35:06.999Z</time></trkpt><trkpt lat="44.56907021200173" lon="10.451047534922012"><ele>575.0</ele><time>2026-04-12T08:35:09.999Z</time></trkpt><trkpt lat="44.56901056649241" lon="10.451086070549596"><ele>578.5</ele><time>2026-04-12T08:35:12.999Z</time></trkpt><trkpt lat="44.5689343369308" lon="10.45107805097113"><ele>582.0</ele><time>2026-04-12T08:35:17.999Z</time></trkpt><trkpt lat="44.56887500298143" lon="10.451047974842565"><ele>582.0</ele><time>2026-04-12T08:35:22.999Z</time></trkpt><trkpt lat="44.56880533630865" lon="10.451065220872609"><ele>582.0</ele><time>2026-04-12T08:35:32.999Z</time></trkpt><trkpt lat="44.56874163213843" lon="10.451089078846248"><ele>582.0</ele><time>2026-04-12T08:35:35.999Z</time></trkpt><trkpt lat="44.56865453511214" lon="10.45112433477608"><ele>582.0</ele><time>2026-04-12T08:35:39.999Z</time></trkpt><trkpt lat="44.56858307853557" lon="10.451108127250219"><ele>582.0</ele><time>2026-04-12T08:35:49.999Z</time></trkpt><trkpt lat="44.568638432751754" lon="10.451064291832274"><ele>582.0</ele><time>2026-04-12T08:36:19.999Z</time></trkpt><trkpt lat="44.56872145723499" lon="10.451055943079897"><ele>582.0</ele><time>2026-04-12T08:36:22.999Z</time></trkpt><trkpt lat="44.56878753701842" lon="10.451047850343508"><ele>582.0</ele><time>2026-04-12T08:36:27.999Z</time></trkpt><trkpt lat="44.56871135977168" lon="10.451063088972019"><ele>582.0</ele><time>2026-04-12T08:37:44.999Z</time></trkpt><trkpt lat="44.5686408690106" lon="10.45108986744779"><ele>582.0</ele><time>2026-04-12T08:37:50.999Z</time></trkpt><trkpt lat="44.56857922857921" lon="10.451115767708156"><ele>582.0</ele><time>2026-04-12T08:37:55.999Z</time></trkpt><trkpt lat="44.56849760518451" lon="10.451156867033353"><ele>582.0</ele><time>2026-04-12T08:46:33Z</time></trkpt><trkpt lat="44.568407876137265" lon="10.451161720820803"><ele>582.0</ele><time>2026-04-12T08:46:35Z</time></trkpt><trkpt lat="44.568323876109424" lon="10.451138720304531"><ele>585.4</ele><time>2026-04-12T08:46:37Z</time></trkpt><trkpt lat="44.568225465323636" lon="10.45119363768381"><ele>588.8000000000001</ele><time>2026-04-12T08:46:40Z</time></trkpt><trkpt lat="44.56823653697976" lon="10.451297526618044"><ele>592.2</ele><time>2026-04-12T08:46:43Z</time></trkpt><trkpt lat="44.56831751052994" lon="10.451323226175123"><ele>595.6</ele><time>2026-04-12T08:46:47Z</time></trkpt><trkpt lat="44.56841139326033" lon="10.451458036738739"><ele>599.0</ele><time>2026-04-12T08:46:50Z</time></trkpt><trkpt lat="44.568510746124524" lon="10.451605639321645"><ele>603.0</ele><time>2026-04-12T08:46:51Z</time></trkpt><trkpt lat="44.568538621028274" lon="10.451698743764204"><ele>607.0</ele><time>2026-04-12T08:46:53Z</time></trkpt><trkpt lat="44.56852113702436" lon="10.451787747358635"><ele>611.0</ele><time>2026-04-12T08:46:55Z</time></trkpt><trkpt lat="44.56845378633281" lon="10.45182641219133"><ele>615.0</ele><time>2026-04-12T08:46:57Z</time></trkpt><trkpt lat="44.56839075099619" lon="10.451827802318231"><ele>619.0</ele><time>2026-04-12T08:46:58Z</time></trkpt><trkpt lat="44.56832792570502" lon="10.45184821051773"><ele>623.0</ele><time>2026-04-12T08:46:59Z</time></trkpt><trkpt lat="44.56823802969645" lon="10.451885800958083"><ele>627.0</ele><time>2026-04-12T08:47:00Z</time></trkpt><trkpt lat="44.56814360390438" lon="10.451914793236295"><ele>627.0</ele><time>2026-04-12T08:47:01Z</time></trkpt><trkpt lat="44.56805042713049" lon="10.451941145269226"><ele>627.0</ele><time>2026-04-12T08:47:02Z</time></trkpt><trkpt lat="44.567954706571484" lon="10.451985398690997"><ele>627.0</ele><time>2026-04-12T08:47:03Z</time></trkpt><trkpt lat="44.5678528713833" lon="10.452013311276906"><ele>627.0</ele><time>2026-04-12T08:47:04Z</time></trkpt><trkpt lat="44.567784240790715" lon="10.452038993581915"><ele>627.0</ele><time>2026-04-12T08:47:05Z</time></trkpt><trkpt lat="44.567700339678055" lon="10.45203784565038"><ele>630.8</ele><time>2026-04-12T08:47:06Z</time></trkpt><trkpt lat="44.5676234162699" lon="10.452028611756221"><ele>634.6</ele><time>2026-04-12T08:47:07Z</time></trkpt><trkpt lat="44.56752709881489" lon="10.452061297912651"><ele>638.4</ele><time>2026-04-12T08:47:08Z</time></trkpt><trkpt lat="44.567451040920865" lon="10.452081556105435"><ele>642.1999999999999</ele><time>2026-04-12T08:47:09Z</time></trkpt><trkpt lat="44.56738386396807" lon="10.452127671583328"><ele>646.0</ele><time>2026-04-12T08:47:10Z</time></trkpt><trkpt lat="44.567226121421214" lon="10.452517529159651"><ele>645.5999999999999</ele><time>2026-04-12T08:47:11Z</time></trkpt><trkpt lat="44.56720093068068" lon="10.452620325508411"><ele>645.2</ele><time>2026-04-12T08:47:12Z</time></trkpt><trkpt lat="44.5672436650991" lon="10.452729298636678"><ele>644.8</ele><time>2026-04-12T08:47:13Z</time></trkpt><trkpt lat="44.56723752310785" lon="10.452829295746044"><ele>644.4000000000001</ele><time>2026-04-12T08:47:14Z</time></trkpt><trkpt lat="44.56714953840923" lon="10.452960846413152"><ele>644.0</ele><time>2026-04-12T08:47:16Z</time></trkpt><trkpt lat="44.567091194363385" lon="10.453067740237877"><ele>644.0</ele><time>2026-04-12T08:47:17Z</time></trkpt><trkpt lat="44.5670299077631" lon="10.453156291170869"><ele>644.0</ele><time>2026-04-12T08:47:18Z</time></trkpt><trkpt lat="44.566913018879085" lon="10.45319608782172"><ele>644.0</ele><time>2026-04-12T08:47:20Z</time></trkpt><trkpt lat="44.566815942908164" lon="10.453172768943757"><ele>644.0</ele><time>2026-04-12T08:47:21Z</time></trkpt><trkpt lat="44.56674837677062" lon="10.453209365075898"><ele>644.0</ele><time>2026-04-12T08:47:22Z</time></trkpt><trkpt lat="44.5667020334686" lon="10.453278184307937"><ele>644.0</ele><time>2026-04-12T08:47:23Z</time></trkpt><trkpt lat="44.56663284880478" lon="10.453316232497654"><ele>649.6</ele><time>2026-04-12T08:47:24Z</time></trkpt><trkpt lat="44.566514931179064" lon="10.453329111606864"><ele>655.2</ele><time>2026-04-12T08:47:25Z</time></trkpt><trkpt lat="44.566423468041485" lon="10.453406404868492"><ele>660.8000000000001</ele><time>2026-04-12T08:47:26Z</time></trkpt><trkpt lat="44.56633123938274" lon="10.453454092843627"><ele>666.4000000000001</ele><time>2026-04-12T08:47:27Z</time></trkpt><trkpt lat="44.56628375308177" lon="10.45352268689818"><ele>672.0</ele><time>2026-04-12T08:47:28Z</time></trkpt><trkpt lat="44.566224320150496" lon="10.45358307841606"><ele>672.2</ele><time>2026-04-12T08:47:29Z</time></trkpt><trkpt lat="44.56615294876773" lon="10.453627695185327"><ele>672.4000000000001</ele><time>2026-04-12T08:47:31Z</time></trkpt><trkpt lat="44.56608404890519" lon="10.453594151099916"><ele>672.5999999999999</ele><time>2026-04-12T08:48:26Z</time></trkpt><trkpt lat="44.5660647770735" lon="10.453435146455238"><ele>672.8</ele><time>2026-04-12T08:48:28Z</time></trkpt><trkpt lat="44.56603070326047" lon="10.453272953944726"><ele>673.0</ele><time>2026-04-12T08:48:29Z</time></trkpt><trkpt lat="44.56597045266642" lon="10.45308623079018"><ele>673.6666666666667</ele><time>2026-04-12T08:48:30Z</time></trkpt><trkpt lat="44.565915850335266" lon="10.452926808262882"><ele>674.3333333333334</ele><time>2026-04-12T08:48:31Z</time></trkpt><trkpt lat="44.56594494166457" lon="10.452806556175869"><ele>675.0</ele><time>2026-04-12T08:48:32Z</time></trkpt><trkpt lat="44.56598249076862" lon="10.45269995440196"><ele>675.6666666666666</ele><time>2026-04-12T08:48:34Z</time></trkpt><trkpt lat="44.56606249334407" lon="10.45268656828907"><ele>676.3333333333333</ele><time>2026-04-12T08:48:35Z</time></trkpt><trkpt lat="44.56611526517443" lon="10.4526288889556"><ele>677.0</ele><time>2026-04-12T08:48:36Z</time></trkpt><trkpt lat="44.56611729842114" lon="10.452448205428581"><ele>677.0</ele><time>2026-04-12T08:48:38Z</time></trkpt><trkpt lat="44.56605469316883" lon="10.452316247149257"><ele>677.0</ele><time>2026-04-12T08:48:40Z</time></trkpt><trkpt lat="44.56595772936097" lon="10.45233759192074"><ele>677.0</ele><time>2026-04-12T08:48:41Z</time></trkpt><trkpt lat="44.56581540266989" lon="10.452310720761087"><ele>677.0</ele><time>2026-04-12T08:48:42Z</time></trkpt><trkpt lat="44.56566839232465" lon="10.452305865392754"><ele>677.0</ele><time>2026-04-12T08:48:43Z</time></trkpt><trkpt lat="44.56553161504797" lon="10.452292589216658"><ele>677.0</ele><time>2026-04-12T08:48:44Z</time></trkpt><trkpt lat="44.56544183503874" lon="10.452283217910946"><ele>677.0</ele><time>2026-04-12T08:48:45Z</time></trkpt><trkpt lat="44.565336407282906" lon="10.452190084411706"><ele>677.0</ele><time>2026-04-12T08:48:47Z</time></trkpt><trkpt lat="44.56526791884546" lon="10.452138839373522"><ele>677.0</ele><time>2026-04-12T08:48:49Z</time></trkpt><trkpt lat="44.56521013228942" lon="10.45220871486438"><ele>675.0</ele><time>2026-04-12T08:48:51Z</time></trkpt><trkpt lat="44.56507983469766" lon="10.452399446164778"><ele>673.0</ele><time>2026-04-12T08:48:54Z</time></trkpt><trkpt lat="44.56499737186334" lon="10.452503725325341"><ele>671.0</ele><time>2026-04-12T08:48:55Z</time></trkpt><trkpt lat="44.56491704646983" lon="10.452589056278283"><ele>669.0</ele><time>2026-04-12T08:48:56Z</time></trkpt><trkpt lat="44.564852205544774" lon="10.452648790915566"><ele>669.0</ele><time>2026-04-12T08:48:57Z</time></trkpt><trkpt lat="44.564790513050575" lon="10.45266808296148"><ele>669.0</ele><time>2026-04-12T08:48:58Z</time></trkpt><trkpt lat="44.56470583431333" lon="10.452689242803677"><ele>669.0</ele><time>2026-04-12T08:48:59Z</time></trkpt><trkpt lat="44.56461444123436" lon="10.452719577399934"><ele>669.0</ele><time>2026-04-12T08:49:00Z</time></trkpt><trkpt lat="44.56451977312176" lon="10.452773904955"><ele>669.0</ele><time>2026-04-12T08:49:01Z</time></trkpt><trkpt lat="44.564434929325564" lon="10.452802656548112"><ele>669.0</ele><time>2026-04-12T08:49:02Z</time></trkpt><trkpt lat="44.564336383008246" lon="10.452757530312423"><ele>666.0</ele><time>2026-04-12T08:49:04Z</time></trkpt><trkpt lat="44.56428362879414" lon="10.452678992131414"><ele>663.0</ele><time>2026-04-12T08:49:06Z</time></trkpt><trkpt lat="44.564212804437524" lon="10.452610005212911"><ele>660.0</ele><time>2026-04-12T08:49:07Z</time></trkpt><trkpt lat="44.56420062634669" lon="10.452375615413647"><ele>657.0</ele><time>2026-04-12T08:49:08Z</time></trkpt><trkpt lat="44.56413597133617" lon="10.452336414819037"><ele>654.0</ele><time>2026-04-12T08:49:09Z</time></trkpt><trkpt lat="44.564069849135194" lon="10.452347870827937"><ele>654.0</ele><time>2026-04-12T08:49:10Z</time></trkpt><trkpt lat="44.564022788878574" lon="10.452482065531667"><ele>654.0</ele><time>2026-04-12T08:49:12Z</time></trkpt><trkpt lat="44.56396008815105" lon="10.452559173450926"><ele>654.0</ele><time>2026-04-12T08:49:15Z</time></trkpt><trkpt lat="44.56383989455732" lon="10.452652430494428"><ele>654.0</ele><time>2026-04-12T08:49:17Z</time></trkpt><trkpt lat="44.563775189961945" lon="10.452770334045942"><ele>654.0</ele><time>2026-04-12T08:49:18Z</time></trkpt><trkpt lat="44.5637135718058" lon="10.452849217938072"><ele>654.5</ele><time>2026-04-12T08:49:19Z</time></trkpt><trkpt lat="44.56365237283499" lon="10.452942090111062"><ele>655.0</ele><time>2026-04-12T08:49:21Z</time></trkpt><trkpt lat="44.56361703491085" lon="10.453018176074838"><ele>655.5</ele><time>2026-04-12T08:49:24Z</time></trkpt><trkpt lat="44.56354787228834" lon="10.453082744883348"><ele>656.0</ele><time>2026-04-12T08:49:26Z</time></trkpt><trkpt lat="44.56348463927992" lon="10.453147460936902"><ele>656.5</ele><time>2026-04-12T08:49:28Z</time></trkpt><trkpt lat="44.56337175724789" lon="10.453229780080445"><ele>657.0</ele><time>2026-04-12T08:49:30Z</time></trkpt><trkpt lat="44.56331065770557" lon="10.45325704883631"><ele>654.8</ele><time>2026-04-12T08:49:31Z</time></trkpt><trkpt lat="44.56319723219072" lon="10.453288616673593"><ele>652.6</ele><time>2026-04-12T08:49:33Z</time></trkpt><trkpt lat="44.5631278749349" lon="10.45330760838248"><ele>650.4</ele><time>2026-04-12T08:49:34Z</time></trkpt><trkpt lat="44.563050482646936" lon="10.45332730130837"><ele>648.1999999999999</ele><time>2026-04-12T08:49:35Z</time></trkpt><trkpt lat="44.56296472716871" lon="10.453349122294421"><ele>646.0</ele><time>2026-04-12T08:49:36Z</time></trkpt><trkpt lat="44.56286425307305" lon="10.453393183483962"><ele>646.0</ele><time>2026-04-12T08:49:37Z</time></trkpt><trkpt lat="44.562765995857525" lon="10.453404225517621"><ele>646.0</ele><time>2026-04-12T08:49:38Z</time></trkpt><trkpt lat="44.56266283196559" lon="10.453418777978865"><ele>646.0</ele><time>2026-04-12T08:49:39Z</time></trkpt><trkpt lat="44.56255889828103" lon="10.45346661075796"><ele>646.0</ele><time>2026-04-12T08:49:40Z</time></trkpt><trkpt lat="44.56244660081883" lon="10.45345870850636"><ele>646.0</ele><time>2026-04-12T08:49:41Z</time></trkpt><trkpt lat="44.562357135614455" lon="10.45347421984975"><ele>646.0</ele><time>2026-04-12T08:49:42Z</time></trkpt><trkpt lat="44.562254331038815" lon="10.45345450192872"><ele>646.0</ele><time>2026-04-12T08:49:43Z</time></trkpt><trkpt lat="44.56213511367845" lon="10.453432359425296"><ele>646.0</ele><time>2026-04-12T08:49:44Z</time></trkpt><trkpt lat="44.56199738087821" lon="10.453406500685647"><ele>646.0</ele><time>2026-04-12T08:49:45Z</time></trkpt><trkpt lat="44.5618483282975" lon="10.453401414216877"><ele>644.0</ele><time>2026-04-12T08:49:46Z</time></trkpt><trkpt lat="44.56173158572389" lon="10.4533832703353"><ele>642.0</ele><time>2026-04-12T08:49:47Z</time></trkpt><trkpt lat="44.561617897469766" lon="10.453406757245636"><ele>640.0</ele><time>2026-04-12T08:49:48Z</time></trkpt><trkpt lat="44.56149957971432" lon="10.453409114560625"><ele>638.0</ele><time>2026-04-12T08:49:49Z</time></trkpt><trkpt lat="44.561407206559906" lon="10.453455375141692"><ele>636.0</ele><time>2026-04-12T08:49:50Z</time></trkpt><trkpt lat="44.56131159553464" lon="10.453468646705545"><ele>636.0</ele><time>2026-04-12T08:49:51Z</time></trkpt><trkpt lat="44.561231661648996" lon="10.453535040393037"><ele>636.0</ele><time>2026-04-12T08:49:52Z</time></trkpt><trkpt lat="44.561176645233274" lon="10.453595073012032"><ele>636.0</ele><time>2026-04-12T08:49:53Z</time></trkpt><trkpt lat="44.56110682747417" lon="10.453662958636118"><ele>636.0</ele><time>2026-04-12T08:49:54Z</time></trkpt><trkpt lat="44.561036146096114" lon="10.453727426256686"><ele>636.0</ele><time>2026-04-12T08:49:55Z</time></trkpt><trkpt lat="44.560972275985655" lon="10.453781583514619"><ele>636.0</ele><time>2026-04-12T08:49:56Z</time></trkpt><trkpt lat="44.56091072901822" lon="10.453838047638644"><ele>632.4</ele><time>2026-04-12T08:49:57Z</time></trkpt><trkpt lat="44.56084446523074" lon="10.453856963270205"><ele>628.8</ele><time>2026-04-12T08:49:58Z</time></trkpt><trkpt lat="44.56073414694454" lon="10.453844866423252"><ele>625.1999999999999</ele><time>2026-04-12T08:50:00Z</time></trkpt><trkpt lat="44.56064699814327" lon="10.453828283205459"><ele>621.6</ele><time>2026-04-12T08:50:02Z</time></trkpt><trkpt lat="44.56056046653225" lon="10.453789487579522"><ele>618.0</ele><time>2026-04-12T08:50:04Z</time></trkpt><trkpt lat="44.56048701213795" lon="10.45370000435138"><ele>618.0000000000001</ele><time>2026-04-12T08:50:06Z</time></trkpt><trkpt lat="44.56043246337009" lon="10.453557317548068"><ele>618.0</ele><time>2026-04-12T08:50:08Z</time></trkpt><trkpt lat="44.56039968258187" lon="10.453477539015232"><ele>618.0</ele><time>2026-04-12T08:50:09Z</time></trkpt><trkpt lat="44.56037108208284" lon="10.453394140171497"><ele>618.0</ele><time>2026-04-12T08:50:10Z</time></trkpt><trkpt lat="44.56033087865143" lon="10.453324504705337"><ele>618.0</ele><time>2026-04-12T08:50:11Z</time></trkpt><trkpt lat="44.56028056882205" lon="10.453257412723035"><ele>618.0000000000001</ele><time>2026-04-12T08:50:12Z</time></trkpt><trkpt lat="44.56022994568996" lon="10.453202182728235"><ele>618.0</ele><time>2026-04-12T08:50:13Z</time></trkpt><trkpt lat="44.56017332188255" lon="10.45314966202959"><ele>614.8333333333334</ele><time>2026-04-12T08:50:14Z</time></trkpt><trkpt lat="44.560117972804335" lon="10.453097591428751"><ele>611.6666666666666</ele><time>2026-04-12T08:50:15Z</time></trkpt><trkpt lat="44.560060296951114" lon="10.4530491627197"><ele>608.5</ele><time>2026-04-12T08:50:16Z</time></trkpt><trkpt lat="44.55999375743287" lon="10.453008807789159"><ele>605.3333333333333</ele><time>2026-04-12T08:50:17Z</time></trkpt><trkpt lat="44.559862561467156" lon="10.453034422756149"><ele>602.1666666666666</ele><time>2026-04-12T08:50:19Z</time></trkpt><trkpt lat="44.55980463259537" lon="10.453097042113697"><ele>599.0</ele><time>2026-04-12T08:50:20Z</time></trkpt><trkpt lat="44.55975074335548" lon="10.453175998348026"><ele>599.0</ele><time>2026-04-12T08:50:21Z</time></trkpt><trkpt lat="44.5596939199809" lon="10.453286166740925"><ele>599.0</ele><time>2026-04-12T08:50:22Z</time></trkpt><trkpt lat="44.55961482820486" lon="10.453418114721424"><ele>599.0</ele><time>2026-04-12T08:50:23Z</time></trkpt><trkpt lat="44.559533355661465" lon="10.453511939503489"><ele>599.0</ele><time>2026-04-12T08:50:24Z</time></trkpt><trkpt lat="44.559454508901176" lon="10.453587487583388"><ele>599.0</ele><time>2026-04-12T08:50:25Z</time></trkpt><trkpt lat="44.55938217259603" lon="10.453664295884531"><ele>596.8333333333333</ele><time>2026-04-12T08:50:26Z</time></trkpt><trkpt lat="44.55932053207481" lon="10.453742842999548"><ele>594.6666666666666</ele><time>2026-04-12T08:50:27Z</time></trkpt><trkpt lat="44.55925964060271" lon="10.453834049721758"><ele>592.5</ele><time>2026-04-12T08:50:28Z</time></trkpt><trkpt lat="44.55920091671432" lon="10.453919596571575"><ele>590.3333333333334</ele><time>2026-04-12T08:50:29Z</time></trkpt><trkpt lat="44.55913480619456" lon="10.454006673150042"><ele>588.1666666666667</ele><time>2026-04-12T08:50:30Z</time></trkpt><trkpt lat="44.55905977675923" lon="10.454089414033831"><ele>586.0</ele><time>2026-04-12T08:50:31Z</time></trkpt><trkpt lat="44.558981695069875" lon="10.454179176631454"><ele>586.0</ele><time>2026-04-12T08:50:32Z</time></trkpt><trkpt lat="44.558900257362204" lon="10.454266423280991"><ele>586.0</ele><time>2026-04-12T08:50:33Z</time></trkpt><trkpt lat="44.55881212963233" lon="10.454327731274581"><ele>586.0</ele><time>2026-04-12T08:50:34Z</time></trkpt><trkpt lat="44.55870213754157" lon="10.454366493411547"><ele>586.0</ele><time>2026-04-12T08:50:35Z</time></trkpt><trkpt lat="44.55860311249941" lon="10.454403652802034"><ele>586.0</ele><time>2026-04-12T08:50:36Z</time></trkpt><trkpt lat="44.55852328116512" lon="10.45445233628818"><ele>586.1666666666667</ele><time>2026-04-12T08:50:37Z</time></trkpt><trkpt lat="44.558465490143696" lon="10.45449393532091"><ele>586.3333333333334</ele><time>2026-04-12T08:50:38Z</time></trkpt><trkpt lat="44.558383664326016" lon="10.454524930996866"><ele>586.5</ele><time>2026-04-12T08:50:40Z</time></trkpt><trkpt lat="44.558316523834996" lon="10.454498555746724"><ele>586.6666666666666</ele><time>2026-04-12T08:50:43Z</time></trkpt><trkpt lat="44.558245401007326" lon="10.454513095828702"><ele>586.8333333333333</ele><time>2026-04-12T08:50:46Z</time></trkpt><trkpt lat="44.55818804580542" lon="10.454558538561603"><ele>587.0</ele><time>2026-04-12T08:50:47Z</time></trkpt><trkpt lat="44.558111831081206" lon="10.454633140057615"><ele>587.0</ele><time>2026-04-12T08:50:48Z</time></trkpt><trkpt lat="44.558033607837935" lon="10.454713428594074"><ele>587.0</ele><time>2026-04-12T08:50:49Z</time></trkpt><trkpt lat="44.55795035822481" lon="10.454792359881411"><ele>587.0</ele><time>2026-04-12T08:50:50Z</time></trkpt><trkpt lat="44.55783597537418" lon="10.454891267098334"><ele>587.0</ele><time>2026-04-12T08:50:51Z</time></trkpt><trkpt lat="44.55769116075436" lon="10.454987330110828"><ele>586.5</ele><time>2026-04-12T08:50:52Z</time></trkpt><trkpt lat="44.55751769383903" lon="10.45505416367845"><ele>586.0</ele><time>2026-04-12T08:50:53Z</time></trkpt><trkpt lat="44.55737645800036" lon="10.455104716323344"><ele>585.5</ele><time>2026-04-12T08:50:54Z</time></trkpt><trkpt lat="44.557265483938714" lon="10.455133880274294"><ele>585.0</ele><time>2026-04-12T08:50:55Z</time></trkpt><trkpt lat="44.55717813831299" lon="10.455124344145043"><ele>585.0</ele><time>2026-04-12T08:50:56Z</time></trkpt><trkpt lat="44.55709669179943" lon="10.455080023416723"><ele>585.0</ele><time>2026-04-12T08:50:57Z</time></trkpt><trkpt lat="44.557021893545524" lon="10.45499234047218"><ele>585.0</ele><time>2026-04-12T08:50:58Z</time></trkpt><trkpt lat="44.55694637949666" lon="10.45487557686784"><ele>585.0</ele><time>2026-04-12T08:50:59Z</time></trkpt><trkpt lat="44.55686478777756" lon="10.454726617769797"><ele>585.0</ele><time>2026-04-12T08:51:00Z</time></trkpt><trkpt lat="44.556774411054846" lon="10.454562065660983"><ele>584.25</ele><time>2026-04-12T08:51:01Z</time></trkpt><trkpt lat="44.55667537929518" lon="10.454392012108972"><ele>583.5</ele><time>2026-04-12T08:51:02Z</time></trkpt><trkpt lat="44.55659718938724" lon="10.454229256248611"><ele>582.75</ele><time>2026-04-12T08:51:03Z</time></trkpt><trkpt lat="44.55653678795725" lon="10.45411037972636"><ele>582.0</ele><time>2026-04-12T08:51:04Z</time></trkpt><trkpt lat="44.55649840768636" lon="10.45401571897272"><ele>582.0</ele><time>2026-04-12T08:51:05Z</time></trkpt><trkpt lat="44.55648433282966" lon="10.453925970160773"><ele>582.0</ele><time>2026-04-12T08:51:06Z</time></trkpt><trkpt lat="44.556496922232284" lon="10.453823071313458"><ele>582.0</ele><time>2026-04-12T08:51:07Z</time></trkpt><trkpt lat="44.556531413041746" lon="10.453697634438136"><ele>582.0</ele><time>2026-04-12T08:51:08Z</time></trkpt><trkpt lat="44.55657601699206" lon="10.453555138106882"><ele>582.0</ele><time>2026-04-12T08:51:09Z</time></trkpt><trkpt lat="44.55660999167154" lon="10.453398938100587"><ele>583.2</ele><time>2026-04-12T08:51:10Z</time></trkpt><trkpt lat="44.55664171776632" lon="10.453243031327826"><ele>584.4000000000001</ele><time>2026-04-12T08:51:11Z</time></trkpt><trkpt lat="44.556678104597616" lon="10.453109280312503"><ele>585.5999999999999</ele><time>2026-04-12T08:51:12Z</time></trkpt><trkpt lat="44.55670773054123" lon="10.452992472575456"><ele>586.8</ele><time>2026-04-12T08:51:13Z</time></trkpt><trkpt lat="44.556737634504486" lon="10.452894840136185"><ele>588.0</ele><time>2026-04-12T08:51:14Z</time></trkpt><trkpt lat="44.556758671858084" lon="10.452803609297549"><ele>590.1999999999999</ele><time>2026-04-12T08:51:15Z</time></trkpt><trkpt lat="44.556784428157776" lon="10.452718182100048"><ele>592.4</ele><time>2026-04-12T08:51:16Z</time></trkpt><trkpt lat="44.55682505979692" lon="10.452563053882765"><ele>594.5999999999999</ele><time>2026-04-12T08:51:18Z</time></trkpt><trkpt lat="44.556848479679736" lon="10.452420481369263"><ele>596.8</ele><time>2026-04-12T08:51:20Z</time></trkpt><trkpt lat="44.556873910633385" lon="10.452280676333912"><ele>599.0</ele><time>2026-04-12T08:51:22Z</time></trkpt><trkpt lat="44.55687807085341" lon="10.452122037870991"><ele>599.0</ele><time>2026-04-12T08:51:24Z</time></trkpt><trkpt lat="44.55688102943203" lon="10.452010312662074"><ele>599.0</ele><time>2026-04-12T08:51:25Z</time></trkpt><trkpt lat="44.55688703742502" lon="10.451856228164292"><ele>599.0</ele><time>2026-04-12T08:51:26Z</time></trkpt><trkpt lat="44.55687678020769" lon="10.451677785894814"><ele>599.0</ele><time>2026-04-12T08:51:27Z</time></trkpt><trkpt lat="44.55689890250624" lon="10.451523440484145"><ele>599.0</ele><time>2026-04-12T08:51:28Z</time></trkpt><trkpt lat="44.556928530010644" lon="10.451397900545633"><ele>599.0</ele><time>2026-04-12T08:51:29Z</time></trkpt><trkpt lat="44.5569800875525" lon="10.451298039511828"><ele>599.0</ele><time>2026-04-12T08:51:30Z</time></trkpt><trkpt lat="44.5569985238201" lon="10.45118814534028"><ele>599.0</ele><time>2026-04-12T08:51:31Z</time></trkpt><trkpt lat="44.55704794578499" lon="10.451104490256862"><ele>599.0</ele><time>2026-04-12T08:51:32Z</time></trkpt><trkpt lat="44.55711515141949" lon="10.451052058661755"><ele>599.0</ele><time>2026-04-12T08:51:33Z</time></trkpt><trkpt lat="44.55716435845906" lon="10.45096783958583"><ele>599.0</ele><time>2026-04-12T08:51:34Z</time></trkpt><trkpt lat="44.557223891967176" lon="10.450898948002893"><ele>596.0</ele><time>2026-04-12T08:51:35Z</time></trkpt><trkpt lat="44.55728817176192" lon="10.450834816795245"><ele>593.0</ele><time>2026-04-12T08:51:36Z</time></trkpt><trkpt lat="44.557350448464504" lon="10.450769326718227"><ele>590.0</ele><time>2026-04-12T08:51:37Z</time></trkpt><trkpt lat="44.55742316449194" lon="10.450733079721429"><ele>587.0</ele><time>2026-04-12T08:51:38Z</time></trkpt><trkpt lat="44.55748409630092" lon="10.450674127562465"><ele>584.0</ele><time>2026-04-12T08:51:39Z</time></trkpt><trkpt lat="44.55753539252779" lon="10.450610484749454"><ele>581.0</ele><time>2026-04-12T08:51:40Z</time></trkpt><trkpt lat="44.557623823965535" lon="10.45050269157948"><ele>581.1666666666666</ele><time>2026-04-12T08:51:42Z</time></trkpt><trkpt lat="44.557715963334516" lon="10.4503915443441"><ele>581.3333333333333</ele><time>2026-04-12T08:51:44Z</time></trkpt><trkpt lat="44.55776022929172" lon="10.450305053241737"><ele>581.5</ele><time>2026-04-12T08:51:45Z</time></trkpt><trkpt lat="44.557823367276306" lon="10.450267302630452"><ele>581.6666666666666</ele><time>2026-04-12T08:51:46Z</time></trkpt><trkpt lat="44.55787910884435" lon="10.450204358824164"><ele>581.8333333333334</ele><time>2026-04-12T08:51:47Z</time></trkpt><trkpt lat="44.55794666761956" lon="10.450157104243495"><ele>582.0</ele><time>2026-04-12T08:51:48Z</time></trkpt><trkpt lat="44.5579969279487" lon="10.450091843374768"><ele>580.0</ele><time>2026-04-12T08:51:49Z</time></trkpt><trkpt lat="44.558027575802654" lon="10.449998356670784"><ele>578.0</ele><time>2026-04-12T08:51:50Z</time></trkpt><trkpt lat="44.55805029655183" lon="10.449896405715961"><ele>576.0</ele><time>2026-04-12T08:51:51Z</time></trkpt><trkpt lat="44.558076054321184" lon="10.449802076377717"><ele>574.0</ele><time>2026-04-12T08:51:52Z</time></trkpt><trkpt lat="44.55810117243858" lon="10.449705543604221"><ele>572.0</ele><time>2026-04-12T08:51:53Z</time></trkpt><trkpt lat="44.55812461155878" lon="10.449603340875061"><ele>570.0</ele><time>2026-04-12T08:51:54Z</time></trkpt><trkpt lat="44.5581667005692" lon="10.449511184578228"><ele>568.0</ele><time>2026-04-12T08:51:55Z</time></trkpt><trkpt lat="44.558192675049" lon="10.449412421283522"><ele>568.0</ele><time>2026-04-12T08:51:56Z</time></trkpt><trkpt lat="44.558216081271695" lon="10.449305522311326"><ele>568.0</ele><time>2026-04-12T08:51:57Z</time></trkpt><trkpt lat="44.5582223478669" lon="10.449196654227864"><ele>568.0</ele><time>2026-04-12T08:51:58Z</time></trkpt><trkpt lat="44.558259571728854" lon="10.449104214732614"><ele>568.0</ele><time>2026-04-12T08:51:59Z</time></trkpt><trkpt lat="44.558283390562664" lon="10.449006348092466"><ele>568.0</ele><time>2026-04-12T08:52:00Z</time></trkpt><trkpt lat="44.55829294606954" lon="10.448907481338678"><ele>568.0</ele><time>2026-04-12T08:52:01Z</time></trkpt><trkpt lat="44.55831950468426" lon="10.44881882202426"><ele>568.0</ele><time>2026-04-12T08:52:02Z</time></trkpt><trkpt lat="44.55835748214055" lon="10.448741198116487"><ele>567.4285714285714</ele><time>2026-04-12T08:52:03Z</time></trkpt><trkpt lat="44.558360748710115" lon="10.448647029831207"><ele>566.8571428571428</ele><time>2026-04-12T08:52:04Z</time></trkpt><trkpt lat="44.55837842197676" lon="10.44855794590901"><ele>566.2857142857142</ele><time>2026-04-12T08:52:05Z</time></trkpt><trkpt lat="44.55840138299435" lon="10.448466786137681"><ele>565.7142857142857</ele><time>2026-04-12T08:52:06Z</time></trkpt><trkpt lat="44.55840114671574" lon="10.448366042783546"><ele>565.1428571428571</ele><time>2026-04-12T08:52:07Z</time></trkpt><trkpt lat="44.55836164022166" lon="10.448263419320453"><ele>564.5714285714286</ele><time>2026-04-12T08:52:08Z</time></trkpt><trkpt lat="44.55833587303805" lon="10.448153436789482"><ele>564.0</ele><time>2026-04-12T08:52:09Z</time></trkpt><trkpt lat="44.558329437407615" lon="10.448035538230993"><ele>561.8333333333334</ele><time>2026-04-12T08:52:10Z</time></trkpt><trkpt lat="44.55830464471383" lon="10.447917146416827"><ele>559.6666666666666</ele><time>2026-04-12T08:52:11Z</time></trkpt><trkpt lat="44.55827232417714" lon="10.447804834041479"><ele>557.5</ele><time>2026-04-12T08:52:12Z</time></trkpt><trkpt lat="44.558231213470535" lon="10.447704179041244"><ele>555.3333333333333</ele><time>2026-04-12T08:52:13Z</time></trkpt><trkpt lat="44.55819423282263" lon="10.447609818204173"><ele>553.1666666666666</ele><time>2026-04-12T08:52:14Z</time></trkpt><trkpt lat="44.55814868973277" lon="10.44747693510833"><ele>551.0</ele><time>2026-04-12T08:52:16Z</time></trkpt><trkpt lat="44.558158036252486" lon="10.447352333832285"><ele>551.0</ele><time>2026-04-12T08:52:18Z</time></trkpt><trkpt lat="44.55815522004429" lon="10.447259917485544"><ele>551.0</ele><time>2026-04-12T08:52:19Z</time></trkpt><trkpt lat="44.558149258112266" lon="10.447164453573956"><ele>551.0</ele><time>2026-04-12T08:52:20Z</time></trkpt><trkpt lat="44.55812657719469" lon="10.447059821052443"><ele>551.0</ele><time>2026-04-12T08:52:21Z</time></trkpt><trkpt lat="44.55809166261565" lon="10.446962037982052"><ele>551.0</ele><time>2026-04-12T08:52:22Z</time></trkpt><trkpt lat="44.55805480586494" lon="10.44686783820348"><ele>551.0</ele><time>2026-04-12T08:52:23Z</time></trkpt><trkpt lat="44.55801901643563" lon="10.44672037522818"><ele>548.1666666666666</ele><time>2026-04-12T08:52:25Z</time></trkpt><trkpt lat="44.55802587889796" lon="10.446582322247764"><ele>545.3333333333333</ele><time>2026-04-12T08:52:27Z</time></trkpt><trkpt lat="44.55802312367115" lon="10.44646115274014"><ele>542.5</ele><time>2026-04-12T08:52:28Z</time></trkpt><trkpt lat="44.55807359868996" lon="10.446370023668784"><ele>539.6666666666666</ele><time>2026-04-12T08:52:29Z</time></trkpt><trkpt lat="44.55812780411753" lon="10.446265916608535"><ele>536.8333333333334</ele><time>2026-04-12T08:52:30Z</time></trkpt><trkpt lat="44.55815562975404" lon="10.44614921280979"><ele>534.0</ele><time>2026-04-12T08:52:31Z</time></trkpt><trkpt lat="44.55816682916976" lon="10.446027399064826"><ele>532.2</ele><time>2026-04-12T08:52:32Z</time></trkpt><trkpt lat="44.55815626054721" lon="10.445909037692324"><ele>530.4</ele><time>2026-04-12T08:52:33Z</time></trkpt><trkpt lat="44.55811761843914" lon="10.445762325149396"><ele>528.6</ele><time>2026-04-12T08:52:34Z</time></trkpt><trkpt lat="44.55808392296858" lon="10.445640840130157"><ele>526.8</ele><time>2026-04-12T08:52:35Z</time></trkpt><trkpt lat="44.55806716493368" lon="10.445545048828205"><ele>525.0</ele><time>2026-04-12T08:52:36Z</time></trkpt><trkpt lat="44.557950280256385" lon="10.445436435654262"><ele>523.6</ele><time>2026-04-12T08:52:38Z</time></trkpt><trkpt lat="44.55790010171034" lon="10.44535684969057"><ele>522.2</ele><time>2026-04-12T08:52:39Z</time></trkpt><trkpt lat="44.5578933200771" lon="10.445241038515544"><ele>520.8</ele><time>2026-04-12T08:52:40Z</time></trkpt><trkpt lat="44.557915617008625" lon="10.445085368440482"><ele>519.4</ele><time>2026-04-12T08:52:41Z</time></trkpt><trkpt lat="44.557949324519676" lon="10.444894181575648"><ele>518.0</ele><time>2026-04-12T08:52:42Z</time></trkpt><trkpt lat="44.55796079428386" lon="10.444689101146832"><ele>514.6</ele><time>2026-04-12T08:52:43Z</time></trkpt><trkpt lat="44.5579536108307" lon="10.44448398516366"><ele>511.19999999999993</ele><time>2026-04-12T08:52:44Z</time></trkpt><trkpt lat="44.557967390323086" lon="10.444342589725142"><ele>507.8</ele><time>2026-04-12T08:52:45Z</time></trkpt><trkpt lat="44.55797046473376" lon="10.44422365320199"><ele>504.4</ele><time>2026-04-12T08:52:46Z</time></trkpt><trkpt lat="44.55795258647393" lon="10.444115147103345"><ele>501.0</ele><time>2026-04-12T08:52:47Z</time></trkpt><trkpt lat="44.55791049959084" lon="10.444003780100957"><ele>500.4</ele><time>2026-04-12T08:52:48Z</time></trkpt><trkpt lat="44.55785563358899" lon="10.443881127548451"><ele>499.8</ele><time>2026-04-12T08:52:49Z</time></trkpt><trkpt lat="44.55779362285275" lon="10.44377704345532"><ele>499.19999999999993</ele><time>2026-04-12T08:52:50Z</time></trkpt><trkpt lat="44.55773897408558" lon="10.443700645571337"><ele>498.59999999999997</ele><time>2026-04-12T08:52:51Z</time></trkpt><trkpt lat="44.557680609536284" lon="10.443556595100342"><ele>498.0</ele><time>2026-04-12T08:52:53Z</time></trkpt><trkpt lat="44.55767990879514" lon="10.443465725172212"><ele>499.2</ele><time>2026-04-12T08:52:54Z</time></trkpt><trkpt lat="44.55770079063881" lon="10.44330491113605"><ele>500.4</ele><time>2026-04-12T08:52:56Z</time></trkpt><trkpt lat="44.557637538720755" lon="10.443296915953503"><ele>501.59999999999997</ele><time>2026-04-12T08:53:03Z</time></trkpt><trkpt lat="44.55769322633383" lon="10.443159422938372"><ele>502.79999999999995</ele><time>2026-04-12T08:53:42Z</time></trkpt><trkpt lat="44.55768396138023" lon="10.443036281556976"><ele>504.0</ele><time>2026-04-12T08:53:43Z</time></trkpt><trkpt lat="44.557658111527324" lon="10.442903331713026"><ele>507.0</ele><time>2026-04-12T08:53:44Z</time></trkpt><trkpt lat="44.557645089835674" lon="10.442749785458409"><ele>510.0</ele><time>2026-04-12T08:53:45Z</time></trkpt><trkpt lat="44.557674988498874" lon="10.442614519618107"><ele>513.0</ele><time>2026-04-12T08:53:46Z</time></trkpt><trkpt lat="44.55771864462412" lon="10.442456150575419"><ele>516.0</ele><time>2026-04-12T08:53:47Z</time></trkpt><trkpt lat="44.55774195363828" lon="10.442351965830678"><ele>519.0</ele><time>2026-04-12T08:53:48Z</time></trkpt><trkpt lat="44.55780183884252" lon="10.442257155073134"><ele>512.6</ele><time>2026-04-12T08:53:49Z</time></trkpt><trkpt lat="44.5578925396376" lon="10.442180244844812"><ele>506.2</ele><time>2026-04-12T08:53:50Z</time></trkpt><trkpt lat="44.55798273884537" lon="10.442117117819082"><ele>499.80000000000007</ele><time>2026-04-12T08:53:51Z</time></trkpt><trkpt lat="44.55806864765134" lon="10.44202320418121"><ele>493.40000000000003</ele><time>2026-04-12T08:53:52Z</time></trkpt><trkpt lat="44.55815616677311" lon="10.441950562527046"><ele>487.0</ele><time>2026-04-12T08:53:53Z</time></trkpt><trkpt lat="44.55821137180089" lon="10.441869125554968"><ele>487.00000000000006</ele><time>2026-04-12T08:53:54Z</time></trkpt><trkpt lat="44.5582310838314" lon="10.441766070489543"><ele>487.0</ele><time>2026-04-12T08:53:55Z</time></trkpt><trkpt lat="44.558214590179354" lon="10.441652038829064"><ele>487.0</ele><time>2026-04-12T08:53:56Z</time></trkpt><trkpt lat="44.55819946676577" lon="10.441541522772965"><ele>487.0</ele><time>2026-04-12T08:53:57Z</time></trkpt><trkpt lat="44.558158021045074" lon="10.441459058050874"><ele>487.00000000000006</ele><time>2026-04-12T08:53:58Z</time></trkpt><trkpt lat="44.55813654021619" lon="10.441341449099028"><ele>487.0</ele><time>2026-04-12T08:53:59Z</time></trkpt><trkpt lat="44.558122046823904" lon="10.441236723588942"><ele>486.20000000000005</ele><time>2026-04-12T08:54:00Z</time></trkpt><trkpt lat="44.55814253995089" lon="10.441084910565994"><ele>485.40000000000003</ele><time>2026-04-12T08:54:02Z</time></trkpt><trkpt lat="44.55817476528931" lon="10.440959192073748"><ele>484.59999999999997</ele><time>2026-04-12T08:54:03Z</time></trkpt><trkpt lat="44.558220264752556" lon="10.440839124126436"><ele>483.79999999999995</ele><time>2026-04-12T08:54:04Z</time></trkpt><trkpt lat="44.55827386006322" lon="10.440705415037202"><ele>483.0</ele><time>2026-04-12T08:54:05Z</time></trkpt><trkpt lat="44.558300503465595" lon="10.440576209824512"><ele>480.8333333333333</ele><time>2026-04-12T08:54:06Z</time></trkpt><trkpt lat="44.55833217773059" lon="10.440465155195922"><ele>478.66666666666663</ele><time>2026-04-12T08:54:07Z</time></trkpt><trkpt lat="44.558372029096184" lon="10.440359451370199"><ele>476.5</ele><time>2026-04-12T08:54:08Z</time></trkpt><trkpt lat="44.55838566494861" lon="10.440199606330502"><ele>474.3333333333333</ele><time>2026-04-12T08:54:09Z</time></trkpt><trkpt lat="44.55836586490983" lon="10.440073732682938"><ele>472.16666666666663</ele><time>2026-04-12T08:54:10Z</time></trkpt><trkpt lat="44.558354918293034" lon="10.43998063130239"><ele>470.0</ele><time>2026-04-12T08:54:11Z</time></trkpt><trkpt lat="44.5583142107576" lon="10.439882585560921"><ele>470.0</ele><time>2026-04-12T08:54:13Z</time></trkpt><trkpt lat="44.55832640830033" lon="10.439793438402575"><ele>470.0</ele><time>2026-04-12T08:54:15Z</time></trkpt><trkpt lat="44.55845603739716" lon="10.439536414817347"><ele>470.0</ele><time>2026-04-12T08:54:19Z</time></trkpt><trkpt lat="44.55853917820387" lon="10.439407338094423"><ele>470.0</ele><time>2026-04-12T08:54:21Z</time></trkpt><trkpt lat="44.55857865989696" lon="10.439336774879493"><ele>466.66666666666663</ele><time>2026-04-12T08:54:22Z</time></trkpt><trkpt lat="44.55862916285108" lon="10.439237980947697"><ele>463.3333333333333</ele><time>2026-04-12T08:54:23Z</time></trkpt><trkpt lat="44.55867794526864" lon="10.43913510337135"><ele>460.0</ele><time>2026-04-12T08:54:24Z</time></trkpt><trkpt lat="44.558720820019985" lon="10.43902608495889"><ele>456.66666666666663</ele><time>2026-04-12T08:54:25Z</time></trkpt><trkpt lat="44.558765773405824" lon="10.438948034430188"><ele>453.3333333333333</ele><time>2026-04-12T08:54:26Z</time></trkpt><trkpt lat="44.55880176735831" lon="10.438869202297465"><ele>450.0</ele><time>2026-04-12T08:54:27Z</time></trkpt><trkpt lat="44.5589333032961" lon="10.438742262708585"><ele>450.0</ele><time>2026-04-12T08:54:28Z</time></trkpt><trkpt lat="44.55893776536227" lon="10.438620935344431"><ele>450.0</ele><time>2026-04-12T08:54:30Z</time></trkpt><trkpt lat="44.55886360277621" lon="10.438624466657291"><ele>450.0</ele><time>2026-04-12T08:54:32Z</time></trkpt><trkpt lat="44.558820168115744" lon="10.43871019000082"><ele>450.0</ele><time>2026-04-12T08:54:34Z</time></trkpt><trkpt lat="44.55874286029966" lon="10.438790826259979"><ele>450.0</ele><time>2026-04-12T08:54:36Z</time></trkpt><trkpt lat="44.558650741913596" lon="10.438887702554322"><ele>450.0</ele><time>2026-04-12T08:54:38Z</time></trkpt><trkpt lat="44.55858335703205" lon="10.438948858692445"><ele>446.8333333333333</ele><time>2026-04-12T08:54:39Z</time></trkpt><trkpt lat="44.55856575426146" lon="10.438796836648963"><ele>443.66666666666663</ele><time>2026-04-12T08:54:41Z</time></trkpt><trkpt lat="44.558604107340685" lon="10.438668385385421"><ele>440.5</ele><time>2026-04-12T08:54:43Z</time></trkpt><trkpt lat="44.55863593925757" lon="10.43858492464943"><ele>437.3333333333333</ele><time>2026-04-12T08:54:44Z</time></trkpt><trkpt lat="44.55869187304336" lon="10.43846631668926"><ele>434.16666666666663</ele><time>2026-04-12T08:54:46Z</time></trkpt><trkpt lat="44.558715400728026" lon="10.438380507994603"><ele>431.0</ele><time>2026-04-12T08:54:48Z</time></trkpt><trkpt lat="44.55873002722959" lon="10.438273270336653"><ele>430.99999999999994</ele><time>2026-04-12T08:54:50Z</time></trkpt><trkpt lat="44.5588251054572" lon="10.438196877708066"><ele>431.0</ele><time>2026-04-12T08:54:52Z</time></trkpt><trkpt lat="44.558899801118514" lon="10.438178968743362"><ele>431.0</ele><time>2026-04-12T08:54:53Z</time></trkpt><trkpt lat="44.558964346552266" lon="10.438128765502908"><ele>431.0</ele><time>2026-04-12T08:54:54Z</time></trkpt><trkpt lat="44.5590278563081" lon="10.438049079011416"><ele>430.99999999999994</ele><time>2026-04-12T08:54:55Z</time></trkpt><trkpt lat="44.559088135578385" lon="10.437967912687938"><ele>431.0</ele><time>2026-04-12T08:54:56Z</time></trkpt><trkpt lat="44.559160873837456" lon="10.437894198647607"><ele>431.0</ele><time>2026-04-12T08:54:57Z</time></trkpt><trkpt lat="44.55921807913303" lon="10.437852931798034"><ele>431.0</ele><time>2026-04-12T08:54:58Z</time></trkpt><trkpt lat="44.559323450957486" lon="10.437854543671277"><ele>431.0</ele><time>2026-04-12T08:54:59.999Z</time></trkpt><trkpt lat="44.55940855704502" lon="10.43791623167684"><ele>431.0</ele><time>2026-04-12T08:55:01.999Z</time></trkpt><trkpt lat="44.55947135453613" lon="10.437981878256368"><ele>431.0</ele><time>2026-04-12T08:55:02.999Z</time></trkpt><trkpt lat="44.55956371033836" lon="10.438059849571477"><ele>428.49999999999994</ele><time>2026-04-12T08:55:03.999Z</time></trkpt><trkpt lat="44.559618376555974" lon="10.438111091980259"><ele>426.0</ele><time>2026-04-12T08:55:04.999Z</time></trkpt><trkpt lat="44.55969731762322" lon="10.438121596206583"><ele>423.5</ele><time>2026-04-12T08:55:06.999Z</time></trkpt><trkpt lat="44.55982509270674" lon="10.438088079376957"><ele>421.0</ele><time>2026-04-12T08:55:08.999Z</time></trkpt><trkpt lat="44.559909823628644" lon="10.438106305151646"><ele>418.49999999999994</ele><time>2026-04-12T08:55:09.999Z</time></trkpt><trkpt lat="44.55997339248986" lon="10.438108424913956"><ele>416.0</ele><time>2026-04-12T08:55:10.999Z</time></trkpt><trkpt lat="44.56008354518276" lon="10.438045712816361"><ele>416.0</ele><time>2026-04-12T08:55:12.999Z</time></trkpt><trkpt lat="44.56017763689615" lon="10.438053569102225"><ele>416.0</ele><time>2026-04-12T08:55:14.999Z</time></trkpt><trkpt lat="44.560274829753695" lon="10.4381118760577"><ele>416.0</ele><time>2026-04-12T08:55:16.999Z</time></trkpt><trkpt lat="44.56040364144563" lon="10.438160171018"><ele>416.0</ele><time>2026-04-12T08:55:18.999Z</time></trkpt><trkpt lat="44.56047456412735" lon="10.438179050163042"><ele>416.0</ele><time>2026-04-12T08:55:19.999Z</time></trkpt><trkpt lat="44.56059249454381" lon="10.438143274502796"><ele>413.57142857142856</ele><time>2026-04-12T08:55:21.999Z</time></trkpt><trkpt lat="44.560634418019404" lon="10.438075506864593"><ele>411.14285714285717</ele><time>2026-04-12T08:55:22.999Z</time></trkpt><trkpt lat="44.56067347488763" lon="10.437975896965094"><ele>408.7142857142857</ele><time>2026-04-12T08:55:23.999Z</time></trkpt><trkpt lat="44.56069558120907" lon="10.437873636917733"><ele>406.2857142857143</ele><time>2026-04-12T08:55:24.999Z</time></trkpt><trkpt lat="44.56070046148511" lon="10.437783359411943"><ele>403.8571428571429</ele><time>2026-04-12T08:55:25.999Z</time></trkpt><trkpt lat="44.560681771374355" lon="10.437693819510322"><ele>401.42857142857144</ele><time>2026-04-12T08:55:26.999Z</time></trkpt><trkpt lat="44.56065530660864" lon="10.437584746279962"><ele>399.0</ele><time>2026-04-12T08:55:27.999Z</time></trkpt><trkpt lat="44.56063044964963" lon="10.43749061866464"><ele>399.0</ele><time>2026-04-12T08:55:28.999Z</time></trkpt><trkpt lat="44.56060541449432" lon="10.437407503688432"><ele>399.0</ele><time>2026-04-12T08:55:29.999Z</time></trkpt><trkpt lat="44.560658926834904" lon="10.437300037616735"><ele>399.0</ele><time>2026-04-12T08:55:31.999Z</time></trkpt><trkpt lat="44.56074433503686" lon="10.437257109664301"><ele>399.0</ele><time>2026-04-12T08:55:33.999Z</time></trkpt><trkpt lat="44.560841266655196" lon="10.437237480835622"><ele>399.0</ele><time>2026-04-12T08:55:35.999Z</time></trkpt><trkpt lat="44.56092908880182" lon="10.437161233326188"><ele>395.6</ele><time>2026-04-12T08:55:37.999Z</time></trkpt><trkpt lat="44.56102832575134" lon="10.43702991698709"><ele>392.2</ele><time>2026-04-12T08:55:39.999Z</time></trkpt><trkpt lat="44.5611008189345" lon="10.436980155664013"><ele>388.8</ele><time>2026-04-12T08:55:40.999Z</time></trkpt><trkpt lat="44.561178169692326" lon="10.436922906758538"><ele>385.40000000000003</ele><time>2026-04-12T08:55:41.999Z</time></trkpt><trkpt lat="44.56126944743331" lon="10.436873273267613"><ele>382.0</ele><time>2026-04-12T08:55:42.999Z</time></trkpt><trkpt lat="44.56134403047629" lon="10.436818125005441"><ele>381.0</ele><time>2026-04-12T08:55:43.999Z</time></trkpt><trkpt lat="44.561437145519825" lon="10.436741231755814"><ele>380.0</ele><time>2026-04-12T08:55:45.999Z</time></trkpt><trkpt lat="44.56152074836803" lon="10.436683609284701"><ele>379.0</ele><time>2026-04-12T08:55:47.999Z</time></trkpt><trkpt lat="44.56149468281987" lon="10.43657259359108"><ele>378.0</ele><time>2026-04-12T08:55:49.999Z</time></trkpt><trkpt lat="44.56143554592888" lon="10.436518753055148"><ele>377.0</ele><time>2026-04-12T08:55:50.999Z</time></trkpt><trkpt lat="44.561366958611" lon="10.436487160927964"><ele>376.0</ele><time>2026-04-12T08:55:51.999Z</time></trkpt><trkpt lat="44.56128834072832" lon="10.436411571958248"><ele>376.0</ele><time>2026-04-12T08:55:53.999Z</time></trkpt><trkpt lat="44.561257081852595" lon="10.436332701307611"><ele>376.0</ele><time>2026-04-12T08:55:55.999Z</time></trkpt><trkpt lat="44.56122428768033" lon="10.436205411708404"><ele>376.0</ele><time>2026-04-12T08:55:57.999Z</time></trkpt><trkpt lat="44.561261343707535" lon="10.436071890784921"><ele>376.0</ele><time>2026-04-12T08:55:59.999Z</time></trkpt><trkpt lat="44.56120048498258" lon="10.43594813417091"><ele>376.0</ele><time>2026-04-12T08:56:01.999Z</time></trkpt><trkpt lat="44.561169456918094" lon="10.43583911085089"><ele>373.0</ele><time>2026-04-12T08:56:03.999Z</time></trkpt><trkpt lat="44.56117378078056" lon="10.43568816117056"><ele>370.0</ele><time>2026-04-12T08:56:05.999Z</time></trkpt><trkpt lat="44.561142525021936" lon="10.43554307082914"><ele>367.0</ele><time>2026-04-12T08:56:07.999Z</time></trkpt><trkpt lat="44.56124046997619" lon="10.435336493460392"><ele>364.0</ele><time>2026-04-12T08:56:10.999Z</time></trkpt><trkpt lat="44.56132930241559" lon="10.435303797404515"><ele>360.66666666666663</ele><time>2026-04-12T08:56:12.999Z</time></trkpt><trkpt lat="44.56139079687196" lon="10.435333203699036"><ele>357.3333333333333</ele><time>2026-04-12T08:56:14.999Z</time></trkpt><trkpt lat="44.56145844287988" lon="10.435326241148728"><ele>354.0</ele><time>2026-04-12T08:56:16.999Z</time></trkpt><trkpt lat="44.56156540545491" lon="10.43525811615259"><ele>350.6666666666667</ele><time>2026-04-12T08:56:18.999Z</time></trkpt><trkpt lat="44.56163139688548" lon="10.435208799274468"><ele>347.33333333333337</ele><time>2026-04-12T08:56:19.999Z</time></trkpt><trkpt lat="44.561738252816355" lon="10.435209904113563"><ele>344.0</ele><time>2026-04-12T08:56:21.999Z</time></trkpt><trkpt lat="44.56180883344341" lon="10.435182235779486"><ele>344.00000000000006</ele><time>2026-04-12T08:56:23.999Z</time></trkpt><trkpt lat="44.561892816941345" lon="10.435125223786327"><ele>344.0</ele><time>2026-04-12T08:56:25.999Z</time></trkpt><trkpt lat="44.561968062086514" lon="10.435111227051173"><ele>344.0</ele><time>2026-04-12T08:56:26.999Z</time></trkpt><trkpt lat="44.562031467654286" lon="10.435123155768494"><ele>344.0</ele><time>2026-04-12T08:56:27.999Z</time></trkpt><trkpt lat="44.56209202324605" lon="10.435157780321576"><ele>344.0</ele><time>2026-04-12T08:56:28.999Z</time></trkpt><trkpt lat="44.562166319941475" lon="10.435211309374077"><ele>344.00000000000006</ele><time>2026-04-12T08:56:30.999Z</time></trkpt><trkpt lat="44.56223107949813" lon="10.43520645945386"><ele>344.0</ele><time>2026-04-12T08:56:33.999Z</time></trkpt><trkpt lat="44.56229935244025" lon="10.435158447758061"><ele>343.6666666666667</ele><time>2026-04-12T08:56:39.999Z</time></trkpt><trkpt lat="44.562388480418505" lon="10.435138624043464"><ele>343.33333333333337</ele><time>2026-04-12T08:56:43.999Z</time></trkpt><trkpt lat="44.56246307424113" lon="10.435160977124907"><ele>343.0</ele><time>2026-04-12T08:56:45.999Z</time></trkpt><trkpt lat="44.562515331928765" lon="10.435083392425897"><ele>342.6666666666667</ele><time>2026-04-12T08:56:48.999Z</time></trkpt><trkpt lat="44.56255743649386" lon="10.43500761392476"><ele>342.3333333333333</ele><time>2026-04-12T08:56:49.999Z</time></trkpt><trkpt lat="44.56251207645104" lon="10.434928229516267"><ele>342.0</ele><time>2026-04-12T08:56:55.999Z</time></trkpt><trkpt lat="44.56245192950083" lon="10.434871539240444"><ele>342.0</ele><time>2026-04-12T08:56:58.999Z</time></trkpt><trkpt lat="44.562396995480974" lon="10.434793948643437"><ele>342.0</ele><time>2026-04-12T08:57:00.999Z</time></trkpt><trkpt lat="44.56231533288738" lon="10.434775216147939"><ele>342.0</ele><time>2026-04-12T08:57:04Z</time></trkpt><trkpt lat="44.562164604084394" lon="10.434649229581707"><ele>342.0</ele><time>2026-04-12T08:57:05Z</time></trkpt><trkpt lat="44.56209145255228" lon="10.434634861754141"><ele>342.0</ele><time>2026-04-12T08:57:06Z</time></trkpt><trkpt lat="44.56200336343023" lon="10.434630261631979"><ele>342.3333333333333</ele><time>2026-04-12T08:57:07Z</time></trkpt><trkpt lat="44.561939217544165" lon="10.434631376693531"><ele>342.6666666666667</ele><time>2026-04-12T08:57:08Z</time></trkpt><trkpt lat="44.561875845844746" lon="10.434626934894403"><ele>343.0</ele><time>2026-04-12T08:57:09Z</time></trkpt><trkpt lat="44.561814122990484" lon="10.434601619872938"><ele>343.33333333333337</ele><time>2026-04-12T08:57:11Z</time></trkpt><trkpt lat="44.56186113367411" lon="10.434672273805079"><ele>343.6666666666667</ele><time>2026-04-12T08:57:49Z</time></trkpt><trkpt lat="44.561748368182144" lon="10.434620702904024"><ele>344.0</ele><time>2026-04-12T08:57:51Z</time></trkpt><trkpt lat="44.5617336851351" lon="10.434489485699176"><ele>344.1666666666667</ele><time>2026-04-12T08:57:53Z</time></trkpt><trkpt lat="44.56177629943828" lon="10.434413695919085"><ele>344.33333333333337</ele><time>2026-04-12T08:57:54Z</time></trkpt><trkpt lat="44.56182081806196" lon="10.43433952083663"><ele>344.5</ele><time>2026-04-12T08:57:55Z</time></trkpt><trkpt lat="44.561806645503076" lon="10.434208717855775"><ele>344.6666666666667</ele><time>2026-04-12T08:57:57Z</time></trkpt><trkpt lat="44.561793908467045" lon="10.43410645302959"><ele>344.8333333333333</ele><time>2026-04-12T08:57:58Z</time></trkpt><trkpt lat="44.561820348516214" lon="10.43400412125848"><ele>345.0</ele><time>2026-04-12T08:57:59Z</time></trkpt><trkpt lat="44.56187706945571" lon="10.433925613569272"><ele>348.4</ele><time>2026-04-12T08:58:00Z</time></trkpt><trkpt lat="44.561932175439004" lon="10.43380361064102"><ele>351.8</ele><time>2026-04-12T08:58:02Z</time></trkpt><trkpt lat="44.562003201247755" lon="10.433705806748955"><ele>355.20000000000005</ele><time>2026-04-12T08:58:04Z</time></trkpt><trkpt lat="44.562040093211465" lon="10.433594033895977"><ele>358.6</ele><time>2026-04-12T08:58:06Z</time></trkpt><trkpt lat="44.562017478833894" lon="10.433446979000726"><ele>362.0</ele><time>2026-04-12T08:58:10Z</time></trkpt><trkpt lat="44.5620330841635" lon="10.43335127665541"><ele>362.1666666666667</ele><time>2026-04-12T08:58:12Z</time></trkpt><trkpt lat="44.562062828853485" lon="10.43324596825197"><ele>362.33333333333337</ele><time>2026-04-12T08:58:14Z</time></trkpt><trkpt lat="44.56206743426918" lon="10.433122530277453"><ele>362.5</ele><time>2026-04-12T08:58:16Z</time></trkpt><trkpt lat="44.56204465515538" lon="10.43303800961449"><ele>362.6666666666667</ele><time>2026-04-12T08:58:18Z</time></trkpt><trkpt lat="44.56204830550698" lon="10.432898775119028"><ele>362.8333333333333</ele><time>2026-04-12T08:58:20Z</time></trkpt><trkpt lat="44.5620558355307" lon="10.432797489721318"><ele>363.0</ele><time>2026-04-12T08:58:22Z</time></trkpt><trkpt lat="44.562033548164614" lon="10.432689745062925"><ele>366.6666666666667</ele><time>2026-04-12T08:58:27Z</time></trkpt><trkpt lat="44.562021905384135" lon="10.4325936069008"><ele>370.33333333333337</ele><time>2026-04-12T08:58:29Z</time></trkpt><trkpt lat="44.562002588009854" lon="10.432452530287453"><ele>374.0</ele><time>2026-04-12T08:58:31Z</time></trkpt><trkpt lat="44.56199472268454" lon="10.432340782470446"><ele>377.6666666666667</ele><time>2026-04-12T08:58:33Z</time></trkpt><trkpt lat="44.561975974901124" lon="10.432228702476129"><ele>381.33333333333337</ele><time>2026-04-12T08:58:35Z</time></trkpt><trkpt lat="44.5619688831984" lon="10.432106076350134"><ele>385.0</ele><time>2026-04-12T08:58:37Z</time></trkpt><trkpt lat="44.561953165341194" lon="10.431953175204756"><ele>387.33333333333337</ele><time>2026-04-12T08:58:39Z</time></trkpt><trkpt lat="44.561971062803195" lon="10.431850666690371"><ele>389.6666666666667</ele><time>2026-04-12T08:58:40Z</time></trkpt><trkpt lat="44.56198555924524" lon="10.431941685469676"><ele>392.0</ele><time>2026-04-12T08:59:11Z</time></trkpt><trkpt lat="44.56198699994811" lon="10.431849428133793"><ele>394.33333333333337</ele><time>2026-04-12T09:00:21Z</time></trkpt><trkpt lat="44.561972067305256" lon="10.431710018309465"><ele>396.6666666666667</ele><time>2026-04-12T09:00:30Z</time></trkpt><trkpt lat="44.56200258649416" lon="10.431614523449358"><ele>399.0</ele><time>2026-04-12T09:00:32Z</time></trkpt><trkpt lat="44.5621134421627" lon="10.431558300571762"><ele>399.0</ele><time>2026-04-12T09:06:48.999Z</time></trkpt><trkpt lat="44.562188684506765" lon="10.431453393226137"><ele>399.0</ele><time>2026-04-12T09:06:50.999Z</time></trkpt><trkpt lat="44.562239197819025" lon="10.431383547345655"><ele>399.0</ele><time>2026-04-12T09:06:51.999Z</time></trkpt><trkpt lat="44.562303734380315" lon="10.431299254853009"><ele>399.0</ele><time>2026-04-12T09:06:53.999Z</time></trkpt><trkpt lat="44.56230204853427" lon="10.431210548242687"><ele>399.0</ele><time>2026-04-12T09:06:55.999Z</time></trkpt><trkpt lat="44.5622442737906" lon="10.431131756469293"><ele>399.0</ele><time>2026-04-12T09:06:57.999Z</time></trkpt><trkpt lat="44.56216867416617" lon="10.431062013420659"><ele>400.1666666666667</ele><time>2026-04-12T09:06:59.999Z</time></trkpt><trkpt lat="44.562116716953" lon="10.431003295904238"><ele>401.33333333333337</ele><time>2026-04-12T09:07:00.999Z</time></trkpt><trkpt lat="44.56203953485165" lon="10.430938971575296"><ele>402.5</ele><time>2026-04-12T09:07:01.999Z</time></trkpt><trkpt lat="44.561961366869006" lon="10.430849892655878"><ele>403.6666666666667</ele><time>2026-04-12T09:07:02.999Z</time></trkpt><trkpt lat="44.561904623255344" lon="10.4307991237244"><ele>404.83333333333337</ele><time>2026-04-12T09:07:03.999Z</time></trkpt><trkpt lat="44.5617981316342" lon="10.430768762549246"><ele>406.0</ele><time>2026-04-12T09:07:05.999Z</time></trkpt><trkpt lat="44.56171936690406" lon="10.430719551418006"><ele>408.83333333333337</ele><time>2026-04-12T09:07:06.999Z</time></trkpt><trkpt lat="44.561629517042924" lon="10.43068172288706"><ele>411.6666666666667</ele><time>2026-04-12T09:07:07.999Z</time></trkpt><trkpt lat="44.56154295676907" lon="10.430663517252798"><ele>414.5</ele><time>2026-04-12T09:07:08.999Z</time></trkpt><trkpt lat="44.56147377502834" lon="10.43066011215271"><ele>417.33333333333337</ele><time>2026-04-12T09:07:09.999Z</time></trkpt><trkpt lat="44.56140989297818" lon="10.430640747313824"><ele>420.1666666666667</ele><time>2026-04-12T09:07:10.999Z</time></trkpt><trkpt lat="44.56133197080298" lon="10.430604012007523"><ele>423.0</ele><time>2026-04-12T09:07:11.999Z</time></trkpt><trkpt lat="44.561257882716895" lon="10.430557413349474"><ele>427.2</ele><time>2026-04-12T09:07:12.999Z</time></trkpt><trkpt lat="44.561147345412415" lon="10.430458014907652"><ele>431.4</ele><time>2026-04-12T09:07:14.999Z</time></trkpt><trkpt lat="44.56108477288911" lon="10.430363146237594"><ele>435.59999999999997</ele><time>2026-04-12T09:07:15.999Z</time></trkpt><trkpt lat="44.56105263246865" lon="10.430265136789494"><ele>439.79999999999995</ele><time>2026-04-12T09:07:16.999Z</time></trkpt><trkpt lat="44.561083133247685" lon="10.430167684242472"><ele>444.0</ele><time>2026-04-12T09:07:18.999Z</time></trkpt><trkpt lat="44.561056438264615" lon="10.430048924637694"><ele>444.0</ele><time>2026-04-12T09:07:20.999Z</time></trkpt><trkpt lat="44.56100041914126" lon="10.42994523333165"><ele>444.0</ele><time>2026-04-12T09:07:21.999Z</time></trkpt><trkpt lat="44.56095956760128" lon="10.429868115047245"><ele>444.0</ele><time>2026-04-12T09:07:22.999Z</time></trkpt><trkpt lat="44.56092838901904" lon="10.42978729183277"><ele>444.0</ele><time>2026-04-12T09:07:23.999Z</time></trkpt><trkpt lat="44.560906372757515" lon="10.42967364163491"><ele>444.0</ele><time>2026-04-12T09:07:25.999Z</time></trkpt><trkpt lat="44.56078774949334" lon="10.429629252941755"><ele>444.0</ele><time>2026-04-12T09:07:28.999Z</time></trkpt><trkpt lat="44.5606972598644" lon="10.429592774382266"><ele>445.2</ele><time>2026-04-12T09:07:29.999Z</time></trkpt><trkpt lat="44.560600954466935" lon="10.429549845489216"><ele>446.4</ele><time>2026-04-12T09:07:30.999Z</time></trkpt><trkpt lat="44.56052251471532" lon="10.429522377293678"><ele>447.6</ele><time>2026-04-12T09:07:31.999Z</time></trkpt><trkpt lat="44.56042680791355" lon="10.429424630336523"><ele>448.8</ele><time>2026-04-12T09:07:34Z</time></trkpt><trkpt lat="44.56038555936187" lon="10.42932042763027"><ele>450.0</ele><time>2026-04-12T09:07:35Z</time></trkpt><trkpt lat="44.560408072786814" lon="10.429181646100393"><ele>450.0</ele><time>2026-04-12T09:07:37Z</time></trkpt><trkpt lat="44.56048391205018" lon="10.429059447249069"><ele>450.0</ele><time>2026-04-12T09:07:38Z</time></trkpt><trkpt lat="44.56049057163259" lon="10.428923986916441"><ele>450.0</ele><time>2026-04-12T09:07:40Z</time></trkpt><trkpt lat="44.560428577866496" lon="10.42888363290332"><ele>450.0</ele><time>2026-04-12T09:07:44Z</time></trkpt><trkpt lat="44.56048504205227" lon="10.428967289451373"><ele>450.0</ele><time>2026-04-12T09:07:46Z</time></trkpt><trkpt lat="44.560503955338255" lon="10.42910896639671"><ele>450.0</ele><time>2026-04-12T09:07:54Z</time></trkpt><trkpt lat="44.56044063128833" lon="10.429102440443064"><ele>450.0</ele><time>2026-04-12T09:07:56Z</time></trkpt><trkpt lat="44.56036603864192" lon="10.429047604303223"><ele>450.0</ele><time>2026-04-12T09:07:57Z</time></trkpt><trkpt lat="44.56029533504684" lon="10.429011866737714"><ele>450.0</ele><time>2026-04-12T09:07:58Z</time></trkpt><trkpt lat="44.56023157439756" lon="10.428987048701515"><ele>450.0</ele><time>2026-04-12T09:07:59Z</time></trkpt><trkpt lat="44.560114252248674" lon="10.428938846913486"><ele>450.0</ele><time>2026-04-12T09:08:01Z</time></trkpt><trkpt lat="44.56004501768384" lon="10.429051592105505"><ele>451.3333333333333</ele><time>2026-04-12T09:08:03Z</time></trkpt><trkpt lat="44.559982846270444" lon="10.429153333268733"><ele>452.66666666666663</ele><time>2026-04-12T09:08:05Z</time></trkpt><trkpt lat="44.559946773882196" lon="10.429254837123649"><ele>454.0</ele><time>2026-04-12T09:08:07Z</time></trkpt><trkpt lat="44.55988090621094" lon="10.429348931678012"><ele>455.3333333333333</ele><time>2026-04-12T09:08:09Z</time></trkpt><trkpt lat="44.5597966547177" lon="10.429350606310795"><ele>456.66666666666663</ele><time>2026-04-12T09:08:10Z</time></trkpt><trkpt lat="44.55970844600853" lon="10.429321144922868"><ele>458.0</ele><time>2026-04-12T09:08:11Z</time></trkpt><trkpt lat="44.55961132608831" lon="10.429313279795817"><ele>459.0</ele><time>2026-04-12T09:08:12Z</time></trkpt><trkpt lat="44.559529213018855" lon="10.429317479220272"><ele>459.99999999999994</ele><time>2026-04-12T09:08:13Z</time></trkpt><trkpt lat="44.559450202657516" lon="10.429223858920718"><ele>460.99999999999994</ele><time>2026-04-12T09:08:15Z</time></trkpt><trkpt lat="44.559345393657914" lon="10.429160289199046"><ele>462.0</ele><time>2026-04-12T09:08:16Z</time></trkpt><trkpt lat="44.55924098529065" lon="10.429132211632924"><ele>463.0</ele><time>2026-04-12T09:08:17Z</time></trkpt><trkpt lat="44.55913924617155" lon="10.429115343895363"><ele>463.0</ele><time>2026-04-12T09:08:18Z</time></trkpt><trkpt lat="44.55904758346814" lon="10.429111547322714"><ele>462.99999999999994</ele><time>2026-04-12T09:08:19Z</time></trkpt><trkpt lat="44.5589607651525" lon="10.429107482338"><ele>462.99999999999994</ele><time>2026-04-12T09:08:20Z</time></trkpt><trkpt lat="44.558868629299624" lon="10.429042999248594"><ele>463.0</ele><time>2026-04-12T09:08:21Z</time></trkpt><trkpt lat="44.55875367736431" lon="10.428932283642363"><ele>463.0</ele><time>2026-04-12T09:08:22Z</time></trkpt><trkpt lat="44.55864606395566" lon="10.42885318464779"><ele>463.59999999999997</ele><time>2026-04-12T09:08:23Z</time></trkpt><trkpt lat="44.55854365748698" lon="10.428793129771794"><ele>464.19999999999993</ele><time>2026-04-12T09:08:24Z</time></trkpt><trkpt lat="44.55844086350399" lon="10.428722566594391"><ele>464.8</ele><time>2026-04-12T09:08:25Z</time></trkpt><trkpt lat="44.55835233466455" lon="10.428679328284705"><ele>465.4</ele><time>2026-04-12T09:08:26Z</time></trkpt><trkpt lat="44.558230649408486" lon="10.42869650658244"><ele>466.0</ele><time>2026-04-12T09:08:27.999Z</time></trkpt><trkpt lat="44.55815606642098" lon="10.428712334740112"><ele>466.00000000000006</ele><time>2026-04-12T09:08:28.999Z</time></trkpt><trkpt lat="44.55809312795023" lon="10.428690001777433"><ele>466.0</ele><time>2026-04-12T09:08:29.999Z</time></trkpt><trkpt lat="44.558026463824554" lon="10.428666587422901"><ele>466.0</ele><time>2026-04-12T09:08:30.999Z</time></trkpt><trkpt lat="44.557919255369384" lon="10.428611038793226"><ele>466.0</ele><time>2026-04-12T09:08:32.999Z</time></trkpt><trkpt lat="44.557796503895396" lon="10.428563249965427"><ele>466.00000000000006</ele><time>2026-04-12T09:08:34.999Z</time></trkpt><trkpt lat="44.557733534900734" lon="10.42853880277117"><ele>466.0</ele><time>2026-04-12T09:08:35.999Z</time></trkpt><trkpt lat="44.55766943645096" lon="10.42852024032257"><ele>466.1666666666667</ele><time>2026-04-12T09:08:36.999Z</time></trkpt><trkpt lat="44.55759629307902" lon="10.428505572085726"><ele>466.33333333333337</ele><time>2026-04-12T09:08:37.999Z</time></trkpt><trkpt lat="44.557528754309686" lon="10.428478861354938"><ele>466.5</ele><time>2026-04-12T09:08:38.999Z</time></trkpt><trkpt lat="44.55745393388138" lon="10.428446773179354"><ele>466.66666666666663</ele><time>2026-04-12T09:08:39.999Z</time></trkpt><trkpt lat="44.557361372390254" lon="10.428407578901952"><ele>466.8333333333333</ele><time>2026-04-12T09:08:40.999Z</time></trkpt><trkpt lat="44.557247431879546" lon="10.428365773427448"><ele>467.0</ele><time>2026-04-12T09:08:41.999Z</time></trkpt><trkpt lat="44.55711683498839" lon="10.4283084173619"><ele>470.25</ele><time>2026-04-12T09:08:42.999Z</time></trkpt><trkpt lat="44.55699327113271" lon="10.428264807515946"><ele>473.5</ele><time>2026-04-12T09:08:43.999Z</time></trkpt><trkpt lat="44.5568835280589" lon="10.428239403680786"><ele>476.75</ele><time>2026-04-12T09:08:44.999Z</time></trkpt><trkpt lat="44.55676288321091" lon="10.428229881290404"><ele>480.0</ele><time>2026-04-12T09:08:45.999Z</time></trkpt><trkpt lat="44.5566393987618" lon="10.42823487025024"><ele>480.0</ele><time>2026-04-12T09:08:46.999Z</time></trkpt><trkpt lat="44.55651547835515" lon="10.42824019050034"><ele>480.0</ele><time>2026-04-12T09:08:47.999Z</time></trkpt><trkpt lat="44.55639127001917" lon="10.428246596048163"><ele>480.0</ele><time>2026-04-12T09:08:48.999Z</time></trkpt><trkpt lat="44.55627886928607" lon="10.428250405215527"><ele>480.0</ele><time>2026-04-12T09:08:49.999Z</time></trkpt><trkpt lat="44.55616930336236" lon="10.428255167837175"><ele>481.2</ele><time>2026-04-12T09:08:50.999Z</time></trkpt><trkpt lat="44.5560571301687" lon="10.428244622842259"><ele>482.4</ele><time>2026-04-12T09:08:51.999Z</time></trkpt><trkpt lat="44.55593788061007" lon="10.428220765728657"><ele>483.6</ele><time>2026-04-12T09:08:52.999Z</time></trkpt><trkpt lat="44.55582192810122" lon="10.428200857634094"><ele>484.8</ele><time>2026-04-12T09:08:53.999Z</time></trkpt><trkpt lat="44.55572548533988" lon="10.428194503848424"><ele>486.0</ele><time>2026-04-12T09:08:54.999Z</time></trkpt><trkpt lat="44.55565782211331" lon="10.428195814859647"><ele>486.0</ele><time>2026-04-12T09:08:55.999Z</time></trkpt><trkpt lat="44.55557412435318" lon="10.428090713617989"><ele>486.0</ele><time>2026-04-12T09:08:57.999Z</time></trkpt><trkpt lat="44.55551888901574" lon="10.42799453869332"><ele>486.0</ele><time>2026-04-12T09:08:58.999Z</time></trkpt><trkpt lat="44.55545689050661" lon="10.42789626758341"><ele>486.0</ele><time>2026-04-12T09:08:59.999Z</time></trkpt><trkpt lat="44.55539075736895" lon="10.427802584154863"><ele>486.0</ele><time>2026-04-12T09:09:00.999Z</time></trkpt><trkpt lat="44.555325725953566" lon="10.427712865913309"><ele>485.8</ele><time>2026-04-12T09:09:01.999Z</time></trkpt><trkpt lat="44.5552763585551" lon="10.42764423308266"><ele>485.6</ele><time>2026-04-12T09:09:02.999Z</time></trkpt><trkpt lat="44.55522198266539" lon="10.427526166697296"><ele>485.4</ele><time>2026-04-12T09:10:16Z</time></trkpt><trkpt lat="44.5551570437832" lon="10.42740820430017"><ele>485.2</ele><time>2026-04-12T09:10:17Z</time></trkpt><trkpt lat="44.555093452788924" lon="10.427279478406208"><ele>485.0</ele><time>2026-04-12T09:10:18Z</time></trkpt><trkpt lat="44.555045723332384" lon="10.427190803702576"><ele>485.2</ele><time>2026-04-12T09:10:19Z</time></trkpt><trkpt lat="44.55499525206562" lon="10.427096386195416"><ele>485.4</ele><time>2026-04-12T09:10:21Z</time></trkpt><trkpt lat="44.55500443474578" lon="10.42697333035694"><ele>485.6</ele><time>2026-04-12T09:10:23.999Z</time></trkpt><trkpt lat="44.55506565404656" lon="10.426889578514311"><ele>485.8</ele><time>2026-04-12T09:10:24.999Z</time></trkpt><trkpt lat="44.55514611097796" lon="10.426750547430292"><ele>486.0</ele><time>2026-04-12T09:10:25.999Z</time></trkpt><trkpt lat="44.55523691520604" lon="10.42662859493686"><ele>486.0</ele><time>2026-04-12T09:10:26.999Z</time></trkpt><trkpt lat="44.555304576393546" lon="10.426512587922058"><ele>486.0</ele><time>2026-04-12T09:10:27.999Z</time></trkpt><trkpt lat="44.555358139054306" lon="10.426436063452167"><ele>486.0</ele><time>2026-04-12T09:10:28.999Z</time></trkpt><trkpt lat="44.555428936590474" lon="10.426341917740526"><ele>486.0</ele><time>2026-04-12T09:10:29.999Z</time></trkpt><trkpt lat="44.5554992429532" lon="10.426255623078672"><ele>486.0</ele><time>2026-04-12T09:10:30.999Z</time></trkpt><trkpt lat="44.55555792796898" lon="10.426171084424567"><ele>483.3333333333333</ele><time>2026-04-12T09:10:31.999Z</time></trkpt><trkpt lat="44.55561319529291" lon="10.42608968918516"><ele>480.66666666666663</ele><time>2026-04-12T09:10:32.999Z</time></trkpt><trkpt lat="44.55566093624912" lon="10.426029458077664"><ele>478.0</ele><time>2026-04-12T09:10:33.999Z</time></trkpt><trkpt lat="44.555688135364235" lon="10.425918524939362"><ele>475.3333333333333</ele><time>2026-04-12T09:10:35.999Z</time></trkpt><trkpt lat="44.55563113058613" lon="10.425757154034638"><ele>472.66666666666663</ele><time>2026-04-12T09:10:37.999Z</time></trkpt><trkpt lat="44.55558791107504" lon="10.425675569224452"><ele>470.0</ele><time>2026-04-12T09:10:38.999Z</time></trkpt><trkpt lat="44.555539615478544" lon="10.425576439472822"><ele>469.2</ele><time>2026-04-12T09:10:39.999Z</time></trkpt><trkpt lat="44.555485721573774" lon="10.42545698664731"><ele>468.4</ele><time>2026-04-12T09:10:40.999Z</time></trkpt><trkpt lat="44.55542902613074" lon="10.425338361032836"><ele>467.6</ele><time>2026-04-12T09:10:41.999Z</time></trkpt><trkpt lat="44.555373315043646" lon="10.425223967329165"><ele>466.8</ele><time>2026-04-12T09:10:42.999Z</time></trkpt><trkpt lat="44.55531540618816" lon="10.425118771509176"><ele>466.0</ele><time>2026-04-12T09:10:43.999Z</time></trkpt><trkpt lat="44.55525000090151" lon="10.425006082513306"><ele>466.8</ele><time>2026-04-12T09:10:44.999Z</time></trkpt><trkpt lat="44.55518395567056" lon="10.424895919653032"><ele>467.6</ele><time>2026-04-12T09:10:45.999Z</time></trkpt><trkpt lat="44.55511117547285" lon="10.42478217473739"><ele>468.4</ele><time>2026-04-12T09:10:46.999Z</time></trkpt><trkpt lat="44.55503849631484" lon="10.424676132096929"><ele>469.2</ele><time>2026-04-12T09:10:47.999Z</time></trkpt><trkpt lat="44.554969959086996" lon="10.42458065171798"><ele>470.0</ele><time>2026-04-12T09:10:48.999Z</time></trkpt><trkpt lat="44.5548906765426" lon="10.424500671016558"><ele>470.0</ele><time>2026-04-12T09:10:49.999Z</time></trkpt><trkpt lat="44.55482209664901" lon="10.424403784110071"><ele>470.0</ele><time>2026-04-12T09:10:50.999Z</time></trkpt><trkpt lat="44.55475180842957" lon="10.424312400400844"><ele>470.0</ele><time>2026-04-12T09:10:51.999Z</time></trkpt><trkpt lat="44.554639645501695" lon="10.424066357118539"><ele>470.0</ele><time>2026-04-12T09:10:52.999Z</time></trkpt><trkpt lat="44.55454706820434" lon="10.423940462382173"><ele>470.3333333333333</ele><time>2026-04-12T09:10:54.999Z</time></trkpt><trkpt lat="44.55449761949488" lon="10.423862900505336"><ele>470.66666666666663</ele><time>2026-04-12T09:10:55.999Z</time></trkpt><trkpt lat="44.55444707735407" lon="10.423792401023034"><ele>471.0</ele><time>2026-04-12T09:10:56.999Z</time></trkpt><trkpt lat="44.55438831491266" lon="10.423734382391524"><ele>471.33333333333337</ele><time>2026-04-12T09:10:57.999Z</time></trkpt><trkpt lat="44.55430919119225" lon="10.423643142667942"><ele>471.6666666666667</ele><time>2026-04-12T09:10:59.999Z</time></trkpt><trkpt lat="44.55430099246135" lon="10.423513374069122"><ele>472.0</ele><time>2026-04-12T09:11:01.999Z</time></trkpt><trkpt lat="44.554363819210394" lon="10.423421677579256"><ele>471.0</ele><time>2026-04-12T09:11:03.999Z</time></trkpt><trkpt lat="44.5544459620681" lon="10.423350946634242"><ele>470.00000000000006</ele><time>2026-04-12T09:11:04.999Z</time></trkpt><trkpt lat="44.554541690325905" lon="10.423260232412787"><ele>469.00000000000006</ele><time>2026-04-12T09:11:05.999Z</time></trkpt><trkpt lat="44.554637851752005" lon="10.423172699390125"><ele>468.0</ele><time>2026-04-12T09:11:06.999Z</time></trkpt><trkpt lat="44.55471531750677" lon="10.42310832284264"><ele>467.0</ele><time>2026-04-12T09:11:07.999Z</time></trkpt><trkpt lat="44.55478417408749" lon="10.42304125651582"><ele>465.99999999999994</ele><time>2026-04-12T09:11:08.999Z</time></trkpt><trkpt lat="44.554852008241944" lon="10.422977035124108"><ele>465.0</ele><time>2026-04-12T09:11:09.999Z</time></trkpt><trkpt lat="44.554917380176605" lon="10.422917589911986"><ele>464.0</ele><time>2026-04-12T09:11:10.999Z</time></trkpt><trkpt lat="44.55498314487984" lon="10.422852082549994"><ele>463.0</ele><time>2026-04-12T09:11:11.999Z</time></trkpt><trkpt lat="44.555058946423486" lon="10.422789324071097"><ele>461.99999999999994</ele><time>2026-04-12T09:11:12.999Z</time></trkpt><trkpt lat="44.555146713511775" lon="10.422714501192369"><ele>461.0</ele><time>2026-04-12T09:11:13.999Z</time></trkpt><trkpt lat="44.55524174062428" lon="10.422644120883623"><ele>460.99999999999994</ele><time>2026-04-12T09:11:14.999Z</time></trkpt><trkpt lat="44.55531759784945" lon="10.422587271368506"><ele>461.0</ele><time>2026-04-12T09:11:15.999Z</time></trkpt><trkpt lat="44.55539319281584" lon="10.422522645678184"><ele>461.0</ele><time>2026-04-12T09:11:16.999Z</time></trkpt><trkpt lat="44.55546507016207" lon="10.422460453427886"><ele>461.0</ele><time>2026-04-12T09:11:17.999Z</time></trkpt><trkpt lat="44.55553407783518" lon="10.422396747955839"><ele>460.99999999999994</ele><time>2026-04-12T09:11:18.999Z</time></trkpt><trkpt lat="44.55561127902273" lon="10.422340159426392"><ele>461.0</ele><time>2026-04-12T09:11:19.999Z</time></trkpt><trkpt lat="44.55567333461713" lon="10.422312451563979"><ele>460.4</ele><time>2026-04-12T09:11:20.999Z</time></trkpt><trkpt lat="44.55578405771353" lon="10.42227792157787"><ele>459.8</ele><time>2026-04-12T09:11:22.999Z</time></trkpt><trkpt lat="44.55584915254715" lon="10.42221967118899"><ele>459.19999999999993</ele><time>2026-04-12T09:11:24.999Z</time></trkpt><trkpt lat="44.55597621281143" lon="10.422182824193596"><ele>458.59999999999997</ele><time>2026-04-12T09:11:26.999Z</time></trkpt><trkpt lat="44.55606653090331" lon="10.422157693774752"><ele>458.0</ele><time>2026-04-12T09:11:27.999Z</time></trkpt><trkpt lat="44.55623013245329" lon="10.422103581909584"><ele>455.25</ele><time>2026-04-12T09:11:31.999Z</time></trkpt><trkpt lat="44.556335320544655" lon="10.421982994283656"><ele>452.5</ele><time>2026-04-12T09:11:32.999Z</time></trkpt><trkpt lat="44.55636350925978" lon="10.421829412549641"><ele>449.75</ele><time>2026-04-12T09:11:33.999Z</time></trkpt><trkpt lat="44.55634996369136" lon="10.421685884186315"><ele>447.0</ele><time>2026-04-12T09:11:34.999Z</time></trkpt><trkpt lat="44.5563015875641" lon="10.421528480326394"><ele>447.0</ele><time>2026-04-12T09:11:35.999Z</time></trkpt><trkpt lat="44.556240930362094" lon="10.421351641401301"><ele>447.0</ele><time>2026-04-12T09:11:36.999Z</time></trkpt><trkpt lat="44.556165335404344" lon="10.421130023670342"><ele>447.0</ele><time>2026-04-12T09:11:37.999Z</time></trkpt><trkpt lat="44.55607674023711" lon="10.420859349873794"><ele>447.0</ele><time>2026-04-12T09:11:38.999Z</time></trkpt><trkpt lat="44.555984183847805" lon="10.420555816253774"><ele>447.0</ele><time>2026-04-12T09:11:39.999Z</time></trkpt><trkpt lat="44.55587811474676" lon="10.420267133489139"><ele>447.25</ele><time>2026-04-12T09:11:40.999Z</time></trkpt><trkpt lat="44.55581612643217" lon="10.420057699565282"><ele>447.5</ele><time>2026-04-12T09:11:41.999Z</time></trkpt><trkpt lat="44.555786247907605" lon="10.41986676071116"><ele>447.75</ele><time>2026-04-12T09:11:42.999Z</time></trkpt><trkpt lat="44.55576144024737" lon="10.419681017873472"><ele>448.0</ele><time>2026-04-12T09:11:43.999Z</time></trkpt><trkpt lat="44.555734790076826" lon="10.419438398848358"><ele>448.2</ele><time>2026-04-12T09:11:45Z</time></trkpt><trkpt lat="44.55572193903805" lon="10.419207869954054"><ele>448.4</ele><time>2026-04-12T09:11:46Z</time></trkpt><trkpt lat="44.555723274224135" lon="10.419027344337573"><ele>448.59999999999997</ele><time>2026-04-12T09:11:47Z</time></trkpt><trkpt lat="44.55573011799969" lon="10.418935138597345"><ele>448.79999999999995</ele><time>2026-04-12T09:11:48Z</time></trkpt><trkpt lat="44.55574281578118" lon="10.418838091407796"><ele>449.0</ele><time>2026-04-12T09:11:51Z</time></trkpt><trkpt lat="44.555627027480114" lon="10.418799543285402"><ele>449.0</ele><time>2026-04-12T09:11:52Z</time></trkpt><trkpt lat="44.555461871727765" lon="10.41884358677618"><ele>449.0</ele><time>2026-04-12T09:11:54Z</time></trkpt><trkpt lat="44.55534161184367" lon="10.418856623302487"><ele>449.0</ele><time>2026-04-12T09:11:55Z</time></trkpt><trkpt lat="44.555221181781796" lon="10.418867999766096"><ele>449.0</ele><time>2026-04-12T09:11:56Z</time></trkpt><trkpt lat="44.55505876861589" lon="10.41889840615883"><ele>450.3333333333333</ele><time>2026-04-12T09:11:57Z</time></trkpt><trkpt lat="44.554887163003755" lon="10.418963188143115"><ele>451.66666666666663</ele><time>2026-04-12T09:11:58Z</time></trkpt><trkpt lat="44.55470075115043" lon="10.419048447933912"><ele>453.0</ele><time>2026-04-12T09:11:59Z</time></trkpt><trkpt lat="44.554517426942205" lon="10.419173028914482"><ele>454.0</ele><time>2026-04-12T09:12:00Z</time></trkpt><trkpt lat="44.55435492614912" lon="10.419275474729078"><ele>455.0</ele><time>2026-04-12T09:12:01Z</time></trkpt><trkpt lat="44.55417746814369" lon="10.419386840225819"><ele>456.0</ele><time>2026-04-12T09:12:02Z</time></trkpt><trkpt lat="44.55400636080051" lon="10.419494905000024"><ele>456.0</ele><time>2026-04-12T09:12:03Z</time></trkpt><trkpt lat="44.55383750376489" lon="10.419601863746603"><ele>456.0</ele><time>2026-04-12T09:12:04Z</time></trkpt><trkpt lat="44.55367158375877" lon="10.419706961998711"><ele>456.0</ele><time>2026-04-12T09:12:05Z</time></trkpt><trkpt lat="44.55350281300777" lon="10.419812033293791"><ele>459.33333333333337</ele><time>2026-04-12T09:12:06Z</time></trkpt><trkpt lat="44.55332449968784" lon="10.419918544863341"><ele>462.6666666666667</ele><time>2026-04-12T09:12:07Z</time></trkpt><trkpt lat="44.55313205480123" lon="10.420032372495386"><ele>466.0</ele><time>2026-04-12T09:12:08Z</time></trkpt><trkpt lat="44.552952714234216" lon="10.420142596166558"><ele>467.0</ele><time>2026-04-12T09:12:09Z</time></trkpt><trkpt lat="44.55280617448739" lon="10.420235325852653"><ele>468.0</ele><time>2026-04-12T09:12:10Z</time></trkpt><trkpt lat="44.55267652410853" lon="10.420317368016496"><ele>469.0</ele><time>2026-04-12T09:12:11Z</time></trkpt><trkpt lat="44.552558248522" lon="10.420392212134082"><ele>470.0</ele><time>2026-04-12T09:12:12Z</time></trkpt><trkpt lat="44.552437198910916" lon="10.420468812005447"><ele>470.5</ele><time>2026-04-12T09:12:13Z</time></trkpt><trkpt lat="44.55231250759415" lon="10.420547715952514"><ele>471.0</ele><time>2026-04-12T09:12:14Z</time></trkpt><trkpt lat="44.55218758748762" lon="10.420625445038018"><ele>471.5</ele><time>2026-04-12T09:12:15Z</time></trkpt><trkpt lat="44.55205817350488" lon="10.420702146936241"><ele>472.0</ele><time>2026-04-12T09:12:16Z</time></trkpt><trkpt lat="44.55192142992139" lon="10.420786428680655"><ele>472.0</ele><time>2026-04-12T09:12:17Z</time></trkpt><trkpt lat="44.551789359149446" lon="10.420870344387703"><ele>472.0</ele><time>2026-04-12T09:12:18Z</time></trkpt><trkpt lat="44.551656785469646" lon="10.420955071416607"><ele>472.0</ele><time>2026-04-12T09:12:19Z</time></trkpt><trkpt lat="44.551554611168406" lon="10.421023322453072"><ele>472.0</ele><time>2026-04-12T09:12:19.999Z</time></trkpt><trkpt lat="44.551443907922454" lon="10.42109537244211"><ele>472.0</ele><time>2026-04-12T09:12:20.999Z</time></trkpt><trkpt lat="44.55133985671372" lon="10.421131301708595"><ele>472.00000000000006</ele><time>2026-04-12T09:12:21.999Z</time></trkpt><trkpt lat="44.55123965575022" lon="10.421147722243571"><ele>472.00000000000006</ele><time>2026-04-12T09:12:22.999Z</time></trkpt><trkpt lat="44.551153587972685" lon="10.421123528274203"><ele>472.0</ele><time>2026-04-12T09:12:23.999Z</time></trkpt><trkpt lat="44.55109052560926" lon="10.42111614441388"><ele>472.0</ele><time>2026-04-12T09:12:24.999Z</time></trkpt><trkpt lat="44.55102565283027" lon="10.420896113763675"><ele>473.5</ele><time>2026-04-12T09:12:25.999Z</time></trkpt><trkpt lat="44.55096988764417" lon="10.420765957546402"><ele>475.0</ele><time>2026-04-12T09:12:26.999Z</time></trkpt><trkpt lat="44.550895075067466" lon="10.420641570760704"><ele>476.5</ele><time>2026-04-12T09:12:27.999Z</time></trkpt><trkpt lat="44.55080211379397" lon="10.42054009223923"><ele>478.0</ele><time>2026-04-12T09:12:28.999Z</time></trkpt><trkpt lat="44.550691832394826" lon="10.420450974194923"><ele>478.0</ele><time>2026-04-12T09:12:29.999Z</time></trkpt><trkpt lat="44.550574015233785" lon="10.420366269802534"><ele>478.0</ele><time>2026-04-12T09:12:30.999Z</time></trkpt><trkpt lat="44.550449906623676" lon="10.420278048805775"><ele>478.0</ele><time>2026-04-12T09:12:31.999Z</time></trkpt><trkpt lat="44.55032054475807" lon="10.42018884214753"><ele>478.0</ele><time>2026-04-12T09:12:32.999Z</time></trkpt><trkpt lat="44.55018972225531" lon="10.420089998198103"><ele>482.33333333333337</ele><time>2026-04-12T09:12:33.999Z</time></trkpt><trkpt lat="44.55005892556188" lon="10.419989526001402"><ele>486.66666666666663</ele><time>2026-04-12T09:12:34.999Z</time></trkpt><trkpt lat="44.54992808635602" lon="10.419882821926505"><ele>491.0</ele><time>2026-04-12T09:12:35.999Z</time></trkpt><trkpt lat="44.54979127774059" lon="10.419770228834041"><ele>491.0</ele><time>2026-04-12T09:12:36.999Z</time></trkpt><trkpt lat="44.54965528428062" lon="10.419657106526094"><ele>491.0</ele><time>2026-04-12T09:12:37.999Z</time></trkpt><trkpt lat="44.54951725374757" lon="10.419546345664488"><ele>491.0</ele><time>2026-04-12T09:12:38.999Z</time></trkpt><trkpt lat="44.549379218628225" lon="10.419435574803467"><ele>493.0</ele><time>2026-04-12T09:12:39.999Z</time></trkpt><trkpt lat="44.54923987970918" lon="10.419322845590912"><ele>495.0</ele><time>2026-04-12T09:12:40.999Z</time></trkpt><trkpt lat="44.54910092294161" lon="10.419211414913718"><ele>497.0</ele><time>2026-04-12T09:12:41.999Z</time></trkpt><trkpt lat="44.54896454936979" lon="10.41910208599958"><ele>497.0</ele><time>2026-04-12T09:12:42.999Z</time></trkpt><trkpt lat="44.54883375398517" lon="10.418999895791824"><ele>497.0</ele><time>2026-04-12T09:12:43.999Z</time></trkpt><trkpt lat="44.54870944280547" lon="10.418903648317153"><ele>497.0</ele><time>2026-04-12T09:12:44.999Z</time></trkpt><trkpt lat="44.54859205526361" lon="10.418813815983219"><ele>497.0</ele><time>2026-04-12T09:12:45.999Z</time></trkpt><trkpt lat="44.54848527688587" lon="10.418730876942787"><ele>499.0</ele><time>2026-04-12T09:12:46.999Z</time></trkpt><trkpt lat="44.548405876692485" lon="10.418629069106421"><ele>501.00000000000006</ele><time>2026-04-12T09:12:47.999Z</time></trkpt><trkpt lat="44.54835644061111" lon="10.418501798421769"><ele>503.00000000000006</ele><time>2026-04-12T09:12:48.999Z</time></trkpt><trkpt lat="44.54833488994133" lon="10.418348933349371"><ele>505.0</ele><time>2026-04-12T09:12:49.999Z</time></trkpt><trkpt lat="44.54833213986564" lon="10.41817732933673"><ele>507.0</ele><time>2026-04-12T09:12:50.999Z</time></trkpt><trkpt lat="44.54833466591756" lon="10.417994030401523"><ele>507.0</ele><time>2026-04-12T09:12:51.999Z</time></trkpt><trkpt lat="44.54833202205659" lon="10.417810651852177"><ele>507.00000000000006</ele><time>2026-04-12T09:12:52.999Z</time></trkpt><trkpt lat="44.54832903867537" lon="10.417647284477248"><ele>507.00000000000006</ele><time>2026-04-12T09:12:53.999Z</time></trkpt><trkpt lat="44.548321118499615" lon="10.417512720566382"><ele>507.0</ele><time>2026-04-12T09:12:54.999Z</time></trkpt><trkpt lat="44.548296449767676" lon="10.41739719090508"><ele>507.0</ele><time>2026-04-12T09:12:55.999Z</time></trkpt><trkpt lat="44.54824562244129" lon="10.417308638553711"><ele>507.0</ele><time>2026-04-12T09:12:56.999Z</time></trkpt><trkpt lat="44.54817088519747" lon="10.417239639707516"><ele>507.00000000000006</ele><time>2026-04-12T09:12:57.999Z</time></trkpt><trkpt lat="44.548080853362165" lon="10.417217202145434"><ele>507.00000000000006</ele><time>2026-04-12T09:12:58.999Z</time></trkpt><trkpt lat="44.54799029224078" lon="10.417245297674032"><ele>507.0</ele><time>2026-04-12T09:12:59.999Z</time></trkpt><trkpt lat="44.547908152004126" lon="10.417325825085468"><ele>507.0</ele><time>2026-04-12T09:13:00.999Z</time></trkpt><trkpt lat="44.54784275155729" lon="10.417443842512913"><ele>509.20000000000005</ele><time>2026-04-12T09:13:01.999Z</time></trkpt><trkpt lat="44.54777597506957" lon="10.417552895837483"><ele>511.40000000000003</ele><time>2026-04-12T09:13:02.999Z</time></trkpt><trkpt lat="44.54770126355924" lon="10.4176227787156"><ele>513.5999999999999</ele><time>2026-04-12T09:13:03.999Z</time></trkpt><trkpt lat="44.547605483422046" lon="10.417651963142422"><ele>515.8</ele><time>2026-04-12T09:13:04.999Z</time></trkpt><trkpt lat="44.54748648949694" lon="10.417645339112157"><ele>518.0</ele><time>2026-04-12T09:13:05.999Z</time></trkpt><trkpt lat="44.54736322327288" lon="10.417620789151734"><ele>518.0</ele><time>2026-04-12T09:13:06.999Z</time></trkpt><trkpt lat="44.54723912688845" lon="10.417594164232899"><ele>518.0</ele><time>2026-04-12T09:13:07.999Z</time></trkpt><trkpt lat="44.54711182189844" lon="10.417580290126917"><ele>518.0</ele><time>2026-04-12T09:13:08.999Z</time></trkpt><trkpt lat="44.5469771968467" lon="10.417574957095045"><ele>518.0</ele><time>2026-04-12T09:13:09.999Z</time></trkpt><trkpt lat="44.546834176944344" lon="10.417579930744083"><ele>518.25</ele><time>2026-04-12T09:13:10.999Z</time></trkpt><trkpt lat="44.54669208815041" lon="10.41759245430713"><ele>518.5</ele><time>2026-04-12T09:13:11.999Z</time></trkpt><trkpt lat="44.546552817664875" lon="10.41760507915252"><ele>518.75</ele><time>2026-04-12T09:13:12.999Z</time></trkpt><trkpt lat="44.546420812107925" lon="10.417595066548134"><ele>519.0</ele><time>2026-04-12T09:13:13.999Z</time></trkpt><trkpt lat="44.54629328043362" lon="10.417538092418052"><ele>519.75</ele><time>2026-04-12T09:13:14.999Z</time></trkpt><trkpt lat="44.546165638348604" lon="10.417460406081338"><ele>520.5</ele><time>2026-04-12T09:13:15.999Z</time></trkpt><trkpt lat="44.546039159008096" lon="10.417390459964615"><ele>521.25</ele><time>2026-04-12T09:13:16.999Z</time></trkpt><trkpt lat="44.54591153474943" lon="10.417320483810075"><ele>522.0</ele><time>2026-04-12T09:13:17.999Z</time></trkpt><trkpt lat="44.54578626455363" lon="10.417237415436572"><ele>522.0</ele><time>2026-04-12T09:13:18.999Z</time></trkpt><trkpt lat="44.54565677513545" lon="10.417164966757431"><ele>522.0</ele><time>2026-04-12T09:13:19.999Z</time></trkpt><trkpt lat="44.5455192373301" lon="10.417128339259675"><ele>522.0</ele><time>2026-04-12T09:13:20.999Z</time></trkpt><trkpt lat="44.54538116663991" lon="10.417111530779707"><ele>522.0</ele><time>2026-04-12T09:13:21.999Z</time></trkpt><trkpt lat="44.54526197415727" lon="10.417062228824117"><ele>527.0</ele><time>2026-04-12T09:13:22.999Z</time></trkpt><trkpt lat="44.54512252438059" lon="10.41699226189046"><ele>532.0</ele><time>2026-04-12T09:13:23.999Z</time></trkpt><trkpt lat="44.5449852193032" lon="10.41688490026856"><ele>537.0</ele><time>2026-04-12T09:13:24.999Z</time></trkpt><trkpt lat="44.54486320855626" lon="10.416768837184817"><ele>537.0</ele><time>2026-04-12T09:13:25.999Z</time></trkpt><trkpt lat="44.54476127583017" lon="10.416647765467166"><ele>537.0</ele><time>2026-04-12T09:13:26.999Z</time></trkpt><trkpt lat="44.544673166772554" lon="10.416519867388287"><ele>537.0</ele><time>2026-04-12T09:13:27.999Z</time></trkpt><trkpt lat="44.54458061333548" lon="10.416422653413441"><ele>537.0</ele><time>2026-04-12T09:13:28.999Z</time></trkpt><trkpt lat="44.544453409464175" lon="10.416361179286504"><ele>537.75</ele><time>2026-04-12T09:13:29.999Z</time></trkpt><trkpt lat="44.54430936098067" lon="10.416321904082743"><ele>538.5</ele><time>2026-04-12T09:13:30.999Z</time></trkpt><trkpt lat="44.54415733677652" lon="10.41629020989799"><ele>539.25</ele><time>2026-04-12T09:13:31.999Z</time></trkpt><trkpt lat="44.544012468861204" lon="10.416255196280122"><ele>540.0</ele><time>2026-04-12T09:13:32.999Z</time></trkpt><trkpt lat="44.54386140982017" lon="10.416210518606539"><ele>540.5</ele><time>2026-04-12T09:13:33.999Z</time></trkpt><trkpt lat="44.543703451942726" lon="10.41615464175343"><ele>541.0</ele><time>2026-04-12T09:13:34.999Z</time></trkpt><trkpt lat="44.54356644138571" lon="10.416113957150818"><ele>541.5</ele><time>2026-04-12T09:13:35.999Z</time></trkpt><trkpt lat="44.543441033365895" lon="10.416103493598548"><ele>542.0</ele><time>2026-04-12T09:13:36.999Z</time></trkpt><trkpt lat="44.54332205056405" lon="10.416133885230355"><ele>542.0</ele><time>2026-04-12T09:13:37.999Z</time></trkpt><trkpt lat="44.5432101930253" lon="10.416196254539482"><ele>542.0</ele><time>2026-04-12T09:13:38.999Z</time></trkpt><trkpt lat="44.5431068634727" lon="10.416280680473449"><ele>542.0</ele><time>2026-04-12T09:13:39.999Z</time></trkpt><trkpt lat="44.54300593387757" lon="10.416374899167332"><ele>542.0</ele><time>2026-04-12T09:13:40.999Z</time></trkpt><trkpt lat="44.54290144280955" lon="10.416469007266814"><ele>542.25</ele><time>2026-04-12T09:13:41.999Z</time></trkpt><trkpt lat="44.54278911070356" lon="10.416548753679388"><ele>542.5</ele><time>2026-04-12T09:13:42.999Z</time></trkpt><trkpt lat="44.54266687780416" lon="10.41661827982635"><ele>542.75</ele><time>2026-04-12T09:13:43.999Z</time></trkpt><trkpt lat="44.54253503918591" lon="10.416678574366736"><ele>543.0</ele><time>2026-04-12T09:13:44.999Z</time></trkpt><trkpt lat="44.5423949635193" lon="10.416724513488553"><ele>543.0</ele><time>2026-04-12T09:13:45.999Z</time></trkpt><trkpt lat="44.542258681078856" lon="10.416768788614252"><ele>543.0</ele><time>2026-04-12T09:13:46.999Z</time></trkpt><trkpt lat="44.5421450375985" lon="10.416796226821644"><ele>543.0</ele><time>2026-04-12T09:13:47.999Z</time></trkpt><trkpt lat="44.542041230226495" lon="10.416773782091154"><ele>543.0</ele><time>2026-04-12T09:13:48.999Z</time></trkpt><trkpt lat="44.54194943572563" lon="10.416708867943147"><ele>543.75</ele><time>2026-04-12T09:13:49.999Z</time></trkpt><trkpt lat="44.54185322981198" lon="10.416617114639454"><ele>544.5</ele><time>2026-04-12T09:13:51Z</time></trkpt><trkpt lat="44.54175592560908" lon="10.41650985571618"><ele>545.25</ele><time>2026-04-12T09:13:52Z</time></trkpt><trkpt lat="44.54165598868614" lon="10.416397519630603"><ele>546.0</ele><time>2026-04-12T09:13:53Z</time></trkpt><trkpt lat="44.54154370159535" lon="10.41630568924582"><ele>546.75</ele><time>2026-04-12T09:13:54Z</time></trkpt><trkpt lat="44.54141349801614" lon="10.416242211994259"><ele>547.5</ele><time>2026-04-12T09:13:55Z</time></trkpt><trkpt lat="44.54126983922782" lon="10.41619749202629"><ele>548.25</ele><time>2026-04-12T09:13:56Z</time></trkpt><trkpt lat="44.54112844880128" lon="10.416146740913554"><ele>549.0</ele><time>2026-04-12T09:13:57Z</time></trkpt><trkpt lat="44.540983830352154" lon="10.416089528171055"><ele>549.0</ele><time>2026-04-12T09:13:58Z</time></trkpt><trkpt lat="44.540838575631696" lon="10.41603725093542"><ele>549.0</ele><time>2026-04-12T09:13:59Z</time></trkpt><trkpt lat="44.54069094329972" lon="10.416008422639417"><ele>549.0</ele><time>2026-04-12T09:14:00Z</time></trkpt><trkpt lat="44.54053656350308" lon="10.416000339614184"><ele>550.0</ele><time>2026-04-12T09:14:01Z</time></trkpt><trkpt lat="44.540379970502386" lon="10.416001772476761"><ele>551.0</ele><time>2026-04-12T09:14:02Z</time></trkpt><trkpt lat="44.54022220849992" lon="10.416000327982955"><ele>552.0</ele><time>2026-04-12T09:14:03Z</time></trkpt><trkpt lat="44.54006367400545" lon="10.416006398017707"><ele>552.0</ele><time>2026-04-12T09:14:04Z</time></trkpt><trkpt lat="44.53990509616318" lon="10.416009100737664"><ele>552.0</ele><time>2026-04-12T09:14:05Z</time></trkpt><trkpt lat="44.539744606814324" lon="10.416016335638272"><ele>552.0</ele><time>2026-04-12T09:14:06Z</time></trkpt><trkpt lat="44.53957359524097" lon="10.416023230302326"><ele>552.6666666666666</ele><time>2026-04-12T09:14:07Z</time></trkpt><trkpt lat="44.539379575919845" lon="10.416033336541796"><ele>553.3333333333333</ele><time>2026-04-12T09:14:08Z</time></trkpt><trkpt lat="44.539171073395245" lon="10.416038883557745"><ele>554.0</ele><time>2026-04-12T09:14:09Z</time></trkpt><trkpt lat="44.53897823315078" lon="10.416054269385285"><ele>554.0</ele><time>2026-04-12T09:14:10Z</time></trkpt><trkpt lat="44.53880772321276" lon="10.416062693086753"><ele>554.0</ele><time>2026-04-12T09:14:10.999Z</time></trkpt><trkpt lat="44.53865514677514" lon="10.416045846721536"><ele>554.0</ele><time>2026-04-12T09:14:11.999Z</time></trkpt><trkpt lat="44.538511033204195" lon="10.41599229473683"><ele>555.75</ele><time>2026-04-12T09:14:12.999Z</time></trkpt><trkpt lat="44.53837160114262" lon="10.41591198316454"><ele>557.5</ele><time>2026-04-12T09:14:13.999Z</time></trkpt><trkpt lat="44.538235974620704" lon="10.415827840807426"><ele>559.25</ele><time>2026-04-12T09:14:14.999Z</time></trkpt><trkpt lat="44.538104002363475" lon="10.415745532093197"><ele>561.0</ele><time>2026-04-12T09:14:15.999Z</time></trkpt><trkpt lat="44.53796841059032" lon="10.41567073541757"><ele>562.6666666666666</ele><time>2026-04-12T09:14:16.999Z</time></trkpt><trkpt lat="44.53782342957109" lon="10.415613425300153"><ele>564.3333333333333</ele><time>2026-04-12T09:14:17.999Z</time></trkpt><trkpt lat="44.537673087295545" lon="10.41558793215687"><ele>566.0</ele><time>2026-04-12T09:14:18.999Z</time></trkpt><trkpt lat="44.53752101364014" lon="10.415583069438073"><ele>566.0</ele><time>2026-04-12T09:14:19.999Z</time></trkpt><trkpt lat="44.53736408855484" lon="10.415603299719141"><ele>566.0</ele><time>2026-04-12T09:14:20.999Z</time></trkpt><trkpt lat="44.537201757368486" lon="10.415648884801438"><ele>566.0</ele><time>2026-04-12T09:14:21.999Z</time></trkpt><trkpt lat="44.53703572367641" lon="10.41570435069925"><ele>566.6666666666666</ele><time>2026-04-12T09:14:22.999Z</time></trkpt><trkpt lat="44.536866293358585" lon="10.415752247138396"><ele>567.3333333333334</ele><time>2026-04-12T09:14:23.999Z</time></trkpt><trkpt lat="44.536693299550876" lon="10.415789973957732"><ele>568.0</ele><time>2026-04-12T09:14:24.999Z</time></trkpt><trkpt lat="44.536530252092795" lon="10.415827786231922"><ele>568.0</ele><time>2026-04-12T09:14:25.999Z</time></trkpt><trkpt lat="44.53638512672053" lon="10.415866531897116"><ele>568.0</ele><time>2026-04-12T09:14:26.999Z</time></trkpt><trkpt lat="44.53625681831649" lon="10.415899673250848"><ele>568.0</ele><time>2026-04-12T09:14:27.999Z</time></trkpt><trkpt lat="44.53614286641533" lon="10.415929573963849"><ele>568.0</ele><time>2026-04-12T09:14:28.999Z</time></trkpt><trkpt lat="44.536049651218654" lon="10.415948290400204"><ele>568.4</ele><time>2026-04-12T09:14:29.999Z</time></trkpt><trkpt lat="44.53596124064428" lon="10.415959283750851"><ele>568.8</ele><time>2026-04-12T09:14:30.999Z</time></trkpt><trkpt lat="44.53587051820717" lon="10.415969489240585"><ele>569.2</ele><time>2026-04-12T09:14:31.999Z</time></trkpt><trkpt lat="44.53577439044591" lon="10.415985233149781"><ele>569.6</ele><time>2026-04-12T09:14:32.999Z</time></trkpt><trkpt lat="44.535668406337436" lon="10.415993662752971"><ele>570.0</ele><time>2026-04-12T09:14:33.999Z</time></trkpt><trkpt lat="44.535545593915906" lon="10.4159865217752"><ele>570.0</ele><time>2026-04-12T09:14:34.999Z</time></trkpt><trkpt lat="44.53543584659643" lon="10.41596928511595"><ele>570.0</ele><time>2026-04-12T09:14:35.999Z</time></trkpt><trkpt lat="44.53533879815377" lon="10.415948915524435"><ele>570.0</ele><time>2026-04-12T09:14:36.999Z</time></trkpt><trkpt lat="44.5352530060448" lon="10.415926451355633"><ele>570.0</ele><time>2026-04-12T09:14:37.999Z</time></trkpt><trkpt lat="44.535174620573805" lon="10.415905328027462"><ele>570.0</ele><time>2026-04-12T09:14:38.999Z</time></trkpt><trkpt lat="44.535101031474916" lon="10.415885412419946"><ele>570.2857142857142</ele><time>2026-04-12T09:14:39.999Z</time></trkpt><trkpt lat="44.53503335847945" lon="10.415868030324157"><ele>570.5714285714286</ele><time>2026-04-12T09:14:40.999Z</time></trkpt><trkpt lat="44.53496571483715" lon="10.41585262610975"><ele>570.8571428571429</ele><time>2026-04-12T09:14:41.999Z</time></trkpt><trkpt lat="44.53489543229805" lon="10.415839693499645"><ele>571.1428571428571</ele><time>2026-04-12T09:14:42.999Z</time></trkpt><trkpt lat="44.53482443361169" lon="10.415823977026642"><ele>571.4285714285714</ele><time>2026-04-12T09:14:43.999Z</time></trkpt><trkpt lat="44.53475368152075" lon="10.415808822377802"><ele>571.7142857142857</ele><time>2026-04-12T09:14:44.999Z</time></trkpt><trkpt lat="44.53468272484346" lon="10.415796047441612"><ele>572.0</ele><time>2026-04-12T09:14:45.999Z</time></trkpt><trkpt lat="44.53461423097035" lon="10.4157825491102"><ele>572.2857142857142</ele><time>2026-04-12T09:14:46.999Z</time></trkpt><trkpt lat="44.534544927485655" lon="10.415767435048917"><ele>572.5714285714286</ele><time>2026-04-12T09:14:47.999Z</time></trkpt><trkpt lat="44.53447457239739" lon="10.415752981392227"><ele>572.8571428571429</ele><time>2026-04-12T09:14:48.999Z</time></trkpt><trkpt lat="44.53440431585767" lon="10.415741426114456"><ele>573.1428571428571</ele><time>2026-04-12T09:14:49.999Z</time></trkpt><trkpt lat="44.534326097134034" lon="10.415729292639805"><ele>573.4285714285714</ele><time>2026-04-12T09:14:50.999Z</time></trkpt><trkpt lat="44.53425297357998" lon="10.415691037520828"><ele>573.7142857142857</ele><time>2026-04-12T09:14:51.999Z</time></trkpt><trkpt lat="44.53418134112509" lon="10.415674983389168"><ele>574.0</ele><time>2026-04-12T09:14:52.999Z</time></trkpt><trkpt lat="44.53409156235621" lon="10.415654862340697"><ele>574.0</ele><time>2026-04-12T09:14:53.999Z</time></trkpt><trkpt lat="44.533992329966914" lon="10.41563262256458"><ele>574.0</ele><time>2026-04-12T09:14:54.999Z</time></trkpt><trkpt lat="44.53389982960848" lon="10.415611891557043"><ele>574.0</ele><time>2026-04-12T09:14:55.999Z</time></trkpt><trkpt lat="44.53380678336466" lon="10.41559103820946"><ele>574.0</ele><time>2026-04-12T09:14:56.999Z</time></trkpt><trkpt lat="44.53371001257889" lon="10.415569350123633"><ele>574.0</ele><time>2026-04-12T09:14:57.999Z</time></trkpt><trkpt lat="44.53360823973353" lon="10.415546540986346"><ele>573.8</ele><time>2026-04-12T09:14:58.999Z</time></trkpt><trkpt lat="44.53350743695343" lon="10.415523949257494"><ele>573.5999999999999</ele><time>2026-04-12T09:14:59.999Z</time></trkpt><trkpt lat="44.53341245830543" lon="10.41550266282273"><ele>573.4</ele><time>2026-04-12T09:15:00.999Z</time></trkpt><trkpt lat="44.53332600563218" lon="10.415483287212185"><ele>573.1999999999999</ele><time>2026-04-12T09:15:01.999Z</time></trkpt><trkpt lat="44.53323551475344" lon="10.415463052227212"><ele>573.0</ele><time>2026-04-12T09:15:02.999Z</time></trkpt><trkpt lat="44.53314731431343" lon="10.415444187592819"><ele>573.1999999999999</ele><time>2026-04-12T09:15:03.999Z</time></trkpt><trkpt lat="44.53305466187461" lon="10.41542437074882"><ele>573.4</ele><time>2026-04-12T09:15:04.999Z</time></trkpt><trkpt lat="44.532952816717554" lon="10.41540367529156"><ele>573.5999999999999</ele><time>2026-04-12T09:15:05.999Z</time></trkpt><trkpt lat="44.53284873998573" lon="10.415382948380614"><ele>573.8</ele><time>2026-04-12T09:15:07Z</time></trkpt><trkpt lat="44.532751904219886" lon="10.4153679743837"><ele>574.0</ele><time>2026-04-12T09:15:08Z</time></trkpt><trkpt lat="44.53265893465258" lon="10.415361122938751"><ele>574.0</ele><time>2026-04-12T09:15:09Z</time></trkpt><trkpt lat="44.53257567726226" lon="10.415361826227164"><ele>574.0</ele><time>2026-04-12T09:15:10Z</time></trkpt><trkpt lat="44.53250386036468" lon="10.415361826229796"><ele>574.0</ele><time>2026-04-12T09:15:11Z</time></trkpt><trkpt lat="44.532383473617884" lon="10.415367002961288"><ele>574.0</ele><time>2026-04-12T09:15:13Z</time></trkpt><trkpt lat="44.53231382788568" lon="10.415369717966362"><ele>574.0</ele><time>2026-04-12T09:15:14Z</time></trkpt><trkpt lat="44.53221176610389" lon="10.41537369664957"><ele>574.0</ele><time>2026-04-12T09:15:16Z</time></trkpt><trkpt lat="44.53216397419739" lon="10.41548266067729"><ele>574.0</ele><time>2026-04-12T09:15:23Z</time></trkpt><trkpt lat="44.53221103536854" lon="10.415419318784078"><ele>574.0</ele><time>2026-04-12T09:15:39Z</time></trkpt><trkpt lat="44.53233439204616" lon="10.415399850830894"><ele>574.0</ele><time>2026-04-12T09:15:41Z</time></trkpt><trkpt lat="44.532477714106" lon="10.415392125236561"><ele>574.0</ele><time>2026-04-12T09:15:42Z</time></trkpt><trkpt lat="44.53266888123088" lon="10.415389390351717"><ele>574.0</ele><time>2026-04-12T09:15:43Z</time></trkpt><trkpt lat="44.53282478123272" lon="10.415425648359653"><ele>574.0</ele><time>2026-04-12T09:15:44Z</time></trkpt><trkpt lat="44.53298577853169" lon="10.415457257052545"><ele>574.0</ele><time>2026-04-12T09:15:45Z</time></trkpt><trkpt lat="44.53322752286408" lon="10.415508431984458"><ele>573.5</ele><time>2026-04-12T09:15:46Z</time></trkpt><trkpt lat="44.53347300101083" lon="10.415563373361751"><ele>573.0</ele><time>2026-04-12T09:15:47Z</time></trkpt><trkpt lat="44.53370385859976" lon="10.415615112728533"><ele>573.3333333333334</ele><time>2026-04-12T09:15:48Z</time></trkpt><trkpt lat="44.53391185225828" lon="10.415661727873797"><ele>573.6666666666667</ele><time>2026-04-12T09:15:49Z</time></trkpt><trkpt lat="44.53411267970305" lon="10.415706736942862"><ele>574.0</ele><time>2026-04-12T09:15:50Z</time></trkpt><trkpt lat="44.53430894869101" lon="10.415750724379302"><ele>574.0</ele><time>2026-04-12T09:15:51Z</time></trkpt><trkpt lat="44.53450496569909" lon="10.415790133567356"><ele>574.0</ele><time>2026-04-12T09:15:52Z</time></trkpt><trkpt lat="44.53467715352308" lon="10.41582323027601"><ele>574.0</ele><time>2026-04-12T09:15:53Z</time></trkpt><trkpt lat="44.53484844606214" lon="10.415857991916278"><ele>573.5</ele><time>2026-04-12T09:15:54Z</time></trkpt><trkpt lat="44.534994254708316" lon="10.415889338001048"><ele>573.0</ele><time>2026-04-12T09:15:55Z</time></trkpt><trkpt lat="44.535147343931996" lon="10.415890712709936"><ele>572.5</ele><time>2026-04-12T09:15:56Z</time></trkpt><trkpt lat="44.53528158952985" lon="10.415928421131087"><ele>572.0</ele><time>2026-04-12T09:15:57Z</time></trkpt><trkpt lat="44.53540263247924" lon="10.41595518940732"><ele>571.6</ele><time>2026-04-12T09:15:58Z</time></trkpt><trkpt lat="44.53549323399922" lon="10.4159996106022"><ele>571.2</ele><time>2026-04-12T09:15:59Z</time></trkpt><trkpt lat="44.535590861685236" lon="10.416002211196593"><ele>570.8</ele><time>2026-04-12T09:16:00Z</time></trkpt><trkpt lat="44.535666618937235" lon="10.416013283258506"><ele>570.4</ele><time>2026-04-12T09:16:01Z</time></trkpt><trkpt lat="44.535781865235464" lon="10.416022413889722"><ele>570.0</ele><time>2026-04-12T09:16:03Z</time></trkpt><trkpt lat="44.53588406869002" lon="10.416031182621325"><ele>570.0</ele><time>2026-04-12T09:16:05Z</time></trkpt><trkpt lat="44.53582402221866" lon="10.415991554464046"><ele>570.0</ele><time>2026-04-12T09:17:01Z</time></trkpt><trkpt lat="44.535886715274394" lon="10.415953770607342"><ele>570.0</ele><time>2026-04-12T09:17:46Z</time></trkpt><trkpt lat="44.53592935676462" lon="10.415884895721595"><ele>570.0</ele><time>2026-04-12T09:17:56Z</time></trkpt><trkpt lat="44.53594054692449" lon="10.415974422278815"><ele>570.0</ele><time>2026-04-12T09:18:17Z</time></trkpt><trkpt lat="44.53591493102803" lon="10.415792889140828"><ele>570.0</ele><time>2026-04-12T09:18:31.037Z</time></trkpt><trkpt lat="44.53595618615017" lon="10.415897434995838"><ele>570.0</ele><time>2026-04-12T09:18:35.032Z</time></trkpt><trkpt lat="44.53590450701669" lon="10.415842908438274"><ele>570.0</ele><time>2026-04-12T09:18:50.028Z</time></trkpt><trkpt lat="44.53599352523426" lon="10.415927990834643"><ele>570.0</ele><time>2026-04-12T09:18:52.029Z</time></trkpt><trkpt lat="44.53594217517757" lon="10.415876520299122"><ele>570.0</ele><time>2026-04-12T09:19:01.03Z</time></trkpt><trkpt lat="44.53588988128867" lon="10.41581860449732"><ele>570.0</ele><time>2026-04-12T09:19:20.021Z</time></trkpt><trkpt lat="44.5358616125113" lon="10.415731166688328"><ele>570.0</ele><time>2026-04-12T09:19:51.01Z</time></trkpt><trkpt lat="44.536053248501446" lon="10.415774262357097"><ele>570.0</ele><time>2026-04-12T09:20:17.012Z</time></trkpt><trkpt lat="44.536025476551984" lon="10.415661632056505"><ele>570.0</ele><time>2026-04-12T09:21:23.011Z</time></trkpt><trkpt lat="44.53589774058855" lon="10.415699740331222"><ele>570.0</ele><time>2026-04-12T09:21:28.01Z</time></trkpt><trkpt lat="44.5359973858761" lon="10.415457866580752"><ele>570.0</ele><time>2026-04-12T09:21:32.012Z</time></trkpt><trkpt lat="44.53604734768183" lon="10.415345220842854"><ele>570.0</ele><time>2026-04-12T09:21:34.012Z</time></trkpt><trkpt lat="44.53599906694615" lon="10.415474264637947"><ele>570.0</ele><time>2026-04-12T09:21:38.011Z</time></trkpt><trkpt lat="44.535976084829265" lon="10.415573277498511"><ele>570.0</ele><time>2026-04-12T09:21:40.012Z</time></trkpt><trkpt lat="44.53600921598518" lon="10.415456012070628"><ele>570.0</ele><time>2026-04-12T09:21:48.012Z</time></trkpt><trkpt lat="44.53603647277616" lon="10.415341798383247"><ele>570.0</ele><time>2026-04-12T09:21:51.015Z</time></trkpt><trkpt lat="44.536007729616564" lon="10.415477837323833"><ele>570.0</ele><time>2026-04-12T09:21:55.016Z</time></trkpt><trkpt lat="44.535956914821966" lon="10.41570445814323"><ele>570.0</ele><time>2026-04-12T09:22:00.999Z</time></trkpt><trkpt lat="44.53595230156376" lon="10.415806968793907"><ele>570.0</ele><time>2026-04-12T09:22:03.999Z</time></trkpt><trkpt lat="44.53591294600725" lon="10.41595049382794"><ele>570.0</ele><time>2026-04-12T09:32:13.036Z</time></trkpt><trkpt lat="44.535931313617574" lon="10.416112955360816"><ele>570.0</ele><time>2026-04-12T09:32:14.037Z</time></trkpt><trkpt lat="44.53591965690779" lon="10.415970992456982"><ele>570.0</ele><time>2026-04-12T09:32:15.034Z</time></trkpt><trkpt lat="44.53591248319119" lon="10.415881017061494"><ele>570.0</ele><time>2026-04-12T09:32:18Z</time></trkpt><trkpt lat="44.53593850696541" lon="10.415774380203066"><ele>570.0</ele><time>2026-04-12T09:32:20Z</time></trkpt><trkpt lat="44.535928369492694" lon="10.415970474103673"><ele>570.0</ele><time>2026-04-12T09:32:24Z</time></trkpt><trkpt lat="44.53586480978144" lon="10.416028485844983"><ele>570.0</ele><time>2026-04-12T09:32:28Z</time></trkpt><trkpt lat="44.535815466966255" lon="10.415968420852547"><ele>570.0</ele><time>2026-04-12T09:34:07Z</time></trkpt><trkpt lat="44.53573275717898" lon="10.415988407010783"><ele>570.0</ele><time>2026-04-12T09:34:09Z</time></trkpt><trkpt lat="44.535672576184446" lon="10.416080083814833"><ele>570.0</ele><time>2026-04-12T09:34:12Z</time></trkpt><trkpt lat="44.53576963770241" lon="10.41618722294889"><ele>570.0</ele><time>2026-04-12T09:34:15Z</time></trkpt><trkpt lat="44.53589518164767" lon="10.416230489963786"><ele>570.0</ele><time>2026-04-12T09:34:16Z</time></trkpt><trkpt lat="44.53601703278586" lon="10.416283379279463"><ele>570.0</ele><time>2026-04-12T09:34:17Z</time></trkpt><trkpt lat="44.53613805249148" lon="10.41632422338108"><ele>570.0</ele><time>2026-04-12T09:34:18Z</time></trkpt><trkpt lat="44.5363376820176" lon="10.416348972493873"><ele>569.3333333333334</ele><time>2026-04-12T09:34:19Z</time></trkpt><trkpt lat="44.53654418508192" lon="10.416377647185335"><ele>568.6666666666667</ele><time>2026-04-12T09:34:20Z</time></trkpt><trkpt lat="44.536751753713396" lon="10.416433666553637"><ele>568.0</ele><time>2026-04-12T09:34:21Z</time></trkpt><trkpt lat="44.53701395958601" lon="10.416519650574259"><ele>568.0</ele><time>2026-04-12T09:34:22Z</time></trkpt><trkpt lat="44.53716646891476" lon="10.41657056948503"><ele>568.0</ele><time>2026-04-12T09:34:23Z</time></trkpt><trkpt lat="44.53731489167549" lon="10.416658689543366"><ele>568.0</ele><time>2026-04-12T09:34:24Z</time></trkpt><trkpt lat="44.53743836928463" lon="10.416727417703374"><ele>568.0</ele><time>2026-04-12T09:34:25Z</time></trkpt><trkpt lat="44.53757753160509" lon="10.41679350658268"><ele>568.0</ele><time>2026-04-12T09:34:26Z</time></trkpt><trkpt lat="44.53770585384567" lon="10.416862855397977"><ele>568.0</ele><time>2026-04-12T09:34:27Z</time></trkpt><trkpt lat="44.53783386995751" lon="10.416936459744967"><ele>568.0</ele><time>2026-04-12T09:34:28Z</time></trkpt><trkpt lat="44.53797127287631" lon="10.41702025595163"><ele>567.0</ele><time>2026-04-12T09:34:29Z</time></trkpt><trkpt lat="44.53808999689103" lon="10.417119676643782"><ele>566.0</ele><time>2026-04-12T09:34:30Z</time></trkpt><trkpt lat="44.538201399518854" lon="10.417191819998855"><ele>565.0</ele><time>2026-04-12T09:34:31Z</time></trkpt><trkpt lat="44.538293601460495" lon="10.417334010624565"><ele>564.0</ele><time>2026-04-12T09:34:32Z</time></trkpt><trkpt lat="44.538369796795905" lon="10.417470227718598"><ele>564.0</ele><time>2026-04-12T09:34:33Z</time></trkpt><trkpt lat="44.53842337359609" lon="10.417618935431705"><ele>564.0</ele><time>2026-04-12T09:34:34Z</time></trkpt><trkpt lat="44.538478805036775" lon="10.417773727892046"><ele>564.0</ele><time>2026-04-12T09:34:35Z</time></trkpt><trkpt lat="44.53853923806703" lon="10.417936730295866"><ele>564.0</ele><time>2026-04-12T09:34:36Z</time></trkpt><trkpt lat="44.53861633013671" lon="10.418066784957684"><ele>563.0</ele><time>2026-04-12T09:34:37Z</time></trkpt><trkpt lat="44.538684386101295" lon="10.418197780592873"><ele>562.0</ele><time>2026-04-12T09:34:38Z</time></trkpt><trkpt lat="44.538758413257554" lon="10.41832608417096"><ele>561.0</ele><time>2026-04-12T09:34:39Z</time></trkpt><trkpt lat="44.53879683544578" lon="10.418497505533946"><ele>560.0</ele><time>2026-04-12T09:34:40Z</time></trkpt><trkpt lat="44.538852571525425" lon="10.418689607648526"><ele>558.3333333333333</ele><time>2026-04-12T09:34:41Z</time></trkpt><trkpt lat="44.538927458023686" lon="10.418929690566605"><ele>556.6666666666666</ele><time>2026-04-12T09:34:42Z</time></trkpt><trkpt lat="44.53899183028589" lon="10.419129096268229"><ele>555.0</ele><time>2026-04-12T09:34:43Z</time></trkpt><trkpt lat="44.53903707434335" lon="10.419289116235088"><ele>555.0</ele><time>2026-04-12T09:34:44Z</time></trkpt><trkpt lat="44.53907209243677" lon="10.419441460808049"><ele>555.0</ele><time>2026-04-12T09:34:45Z</time></trkpt><trkpt lat="44.539104211871475" lon="10.419600451237347"><ele>555.0</ele><time>2026-04-12T09:34:46Z</time></trkpt><trkpt lat="44.53913699622353" lon="10.41976077253389"><ele>555.0</ele><time>2026-04-12T09:34:47Z</time></trkpt><trkpt lat="44.5391734031538" lon="10.419916046177972"><ele>555.0</ele><time>2026-04-12T09:34:48Z</time></trkpt><trkpt lat="44.539213830260785" lon="10.420032943023568"><ele>555.0</ele><time>2026-04-12T09:34:49Z</time></trkpt><trkpt lat="44.53926233649252" lon="10.42014057447743"><ele>555.0</ele><time>2026-04-12T09:34:50Z</time></trkpt><trkpt lat="44.539297942009966" lon="10.420264076708197"><ele>555.0</ele><time>2026-04-12T09:34:51Z</time></trkpt><trkpt lat="44.53931341337573" lon="10.4204199708049"><ele>555.0</ele><time>2026-04-12T09:34:52Z</time></trkpt><trkpt lat="44.539342358861774" lon="10.42056294056398"><ele>555.0</ele><time>2026-04-12T09:34:53Z</time></trkpt><trkpt lat="44.53938501554964" lon="10.420701640446042"><ele>555.0</ele><time>2026-04-12T09:34:54Z</time></trkpt><trkpt lat="44.53941083421552" lon="10.420852157796828"><ele>555.0</ele><time>2026-04-12T09:34:55Z</time></trkpt><trkpt lat="44.53943458850084" lon="10.421009020778294"><ele>555.0</ele><time>2026-04-12T09:34:56Z</time></trkpt><trkpt lat="44.5394602989628" lon="10.421173075959622"><ele>555.0</ele><time>2026-04-12T09:34:57Z</time></trkpt><trkpt lat="44.53948801995542" lon="10.42135375107103"><ele>555.0</ele><time>2026-04-12T09:34:58Z</time></trkpt><trkpt lat="44.53951695405161" lon="10.421534361972006"><ele>555.0</ele><time>2026-04-12T09:34:59Z</time></trkpt><trkpt lat="44.539552284759154" lon="10.42169763701476"><ele>555.0</ele><time>2026-04-12T09:35:00Z</time></trkpt><trkpt lat="44.539594144840414" lon="10.421854037452352"><ele>555.0</ele><time>2026-04-12T09:35:01Z</time></trkpt><trkpt lat="44.539643964419575" lon="10.421997400666577"><ele>555.0</ele><time>2026-04-12T09:35:02Z</time></trkpt><trkpt lat="44.53971021662603" lon="10.422141676598631"><ele>555.0</ele><time>2026-04-12T09:35:03Z</time></trkpt><trkpt lat="44.53978477944589" lon="10.422289364515256"><ele>555.0</ele><time>2026-04-12T09:35:04Z</time></trkpt><trkpt lat="44.539864107840664" lon="10.422445212118244"><ele>556.3333333333334</ele><time>2026-04-12T09:35:05Z</time></trkpt><trkpt lat="44.53994865230941" lon="10.422621612178077"><ele>557.6666666666667</ele><time>2026-04-12T09:35:06Z</time></trkpt><trkpt lat="44.5400332246452" lon="10.422792225452868"><ele>559.0</ele><time>2026-04-12T09:35:07Z</time></trkpt><trkpt lat="44.540119975555776" lon="10.422966116862778"><ele>559.3333333333334</ele><time>2026-04-12T09:35:08Z</time></trkpt><trkpt lat="44.54020813357617" lon="10.423138200878643"><ele>559.6666666666666</ele><time>2026-04-12T09:35:09Z</time></trkpt><trkpt lat="44.54030045339596" lon="10.423311037959298"><ele>560.0</ele><time>2026-04-12T09:35:10Z</time></trkpt><trkpt lat="44.5403989703764" lon="10.423474160637792"><ele>560.0</ele><time>2026-04-12T09:35:11Z</time></trkpt><trkpt lat="44.54050430606489" lon="10.423627588228804"><ele>560.0</ele><time>2026-04-12T09:35:12Z</time></trkpt><trkpt lat="44.540617800730544" lon="10.423777191967849"><ele>560.0</ele><time>2026-04-12T09:35:13Z</time></trkpt><trkpt lat="44.54073232869085" lon="10.423928917086752"><ele>560.0</ele><time>2026-04-12T09:35:14Z</time></trkpt><trkpt lat="44.54085557319642" lon="10.424093371067505"><ele>560.0</ele><time>2026-04-12T09:35:15Z</time></trkpt><trkpt lat="44.540978085980626" lon="10.424256109753333"><ele>560.0</ele><time>2026-04-12T09:35:16Z</time></trkpt><trkpt lat="44.5410956799943" lon="10.424423183744091"><ele>560.0</ele><time>2026-04-12T09:35:17Z</time></trkpt><trkpt lat="44.541205872426055" lon="10.4245965998247"><ele>560.0</ele><time>2026-04-12T09:35:18Z</time></trkpt><trkpt lat="44.54130986221941" lon="10.42475608553765"><ele>560.0</ele><time>2026-04-12T09:35:19Z</time></trkpt><trkpt lat="44.54140904517439" lon="10.42489818352223"><ele>560.5</ele><time>2026-04-12T09:35:20Z</time></trkpt><trkpt lat="44.54150328807444" lon="10.425010361973023"><ele>561.0</ele><time>2026-04-12T09:35:21Z</time></trkpt><trkpt lat="44.54160602110977" lon="10.425088926239898"><ele>561.5</ele><time>2026-04-12T09:35:22Z</time></trkpt><trkpt lat="44.541718459515366" lon="10.425158619619953"><ele>562.0</ele><time>2026-04-12T09:35:23Z</time></trkpt><trkpt lat="44.54182066021219" lon="10.4252511921272"><ele>562.0</ele><time>2026-04-12T09:35:24Z</time></trkpt><trkpt lat="44.54191284568061" lon="10.425373050793398"><ele>562.0</ele><time>2026-04-12T09:35:25Z</time></trkpt><trkpt lat="44.54198302523505" lon="10.425490821779285"><ele>562.0</ele><time>2026-04-12T09:35:26Z</time></trkpt><trkpt lat="44.542049473222065" lon="10.425601023995602"><ele>562.0</ele><time>2026-04-12T09:35:27Z</time></trkpt><trkpt lat="44.54211254044953" lon="10.425709757764153"><ele>562.0</ele><time>2026-04-12T09:35:28Z</time></trkpt><trkpt lat="44.54216364470639" lon="10.425844992425457"><ele>562.2</ele><time>2026-04-12T09:35:29Z</time></trkpt><trkpt lat="44.54224957129176" lon="10.425954736261547"><ele>562.4000000000001</ele><time>2026-04-12T09:35:30Z</time></trkpt><trkpt lat="44.54230878175273" lon="10.426085678975756"><ele>562.5999999999999</ele><time>2026-04-12T09:35:31Z</time></trkpt><trkpt lat="44.5423650646132" lon="10.426205307564635"><ele>562.8</ele><time>2026-04-12T09:35:32Z</time></trkpt><trkpt lat="44.54241939640829" lon="10.426273938988034"><ele>563.0</ele><time>2026-04-12T09:35:33Z</time></trkpt><trkpt lat="44.54249137683193" lon="10.426321472555315"><ele>563.0</ele><time>2026-04-12T09:35:34Z</time></trkpt><trkpt lat="44.542556532840386" lon="10.426442252708693"><ele>563.0</ele><time>2026-04-12T09:35:36Z</time></trkpt><trkpt lat="44.54259782081218" lon="10.426543805618877"><ele>563.0</ele><time>2026-04-12T09:35:37Z</time></trkpt><trkpt lat="44.542641993430095" lon="10.426640514365683"><ele>563.0</ele><time>2026-04-12T09:35:38Z</time></trkpt><trkpt lat="44.54269757762287" lon="10.426790831879428"><ele>563.0</ele><time>2026-04-12T09:35:40Z</time></trkpt><trkpt lat="44.54271937423632" lon="10.426916407651659"><ele>563.0</ele><time>2026-04-12T09:35:41Z</time></trkpt><trkpt lat="44.542753287597456" lon="10.427042913166085"><ele>563.0</ele><time>2026-04-12T09:35:42Z</time></trkpt><trkpt lat="44.542783599701224" lon="10.427165970179205"><ele>563.0</ele><time>2026-04-12T09:35:43Z</time></trkpt><trkpt lat="44.54281237346362" lon="10.427274779098"><ele>563.0</ele><time>2026-04-12T09:35:44Z</time></trkpt><trkpt lat="44.54283700446964" lon="10.427377155317556"><ele>563.0</ele><time>2026-04-12T09:35:45Z</time></trkpt><trkpt lat="44.542854356740555" lon="10.427470952155552"><ele>563.0</ele><time>2026-04-12T09:35:46Z</time></trkpt><trkpt lat="44.54283929716717" lon="10.427641006112948"><ele>562.1999999999999</ele><time>2026-04-12T09:35:48Z</time></trkpt><trkpt lat="44.54282364460538" lon="10.427771821580194"><ele>561.4</ele><time>2026-04-12T09:35:49Z</time></trkpt><trkpt lat="44.54282807763715" lon="10.42791833399594"><ele>560.5999999999999</ele><time>2026-04-12T09:35:50Z</time></trkpt><trkpt lat="44.54287972333084" lon="10.428066928293177"><ele>559.8</ele><time>2026-04-12T09:35:51Z</time></trkpt><trkpt lat="44.54294466626657" lon="10.428227631364928"><ele>559.0</ele><time>2026-04-12T09:35:52Z</time></trkpt><trkpt lat="44.54301202399373" lon="10.428387384877793"><ele>559.0</ele><time>2026-04-12T09:35:53Z</time></trkpt><trkpt lat="44.54306829254743" lon="10.428524147270677"><ele>559.0</ele><time>2026-04-12T09:35:54Z</time></trkpt><trkpt lat="44.543111641788144" lon="10.428633613436917"><ele>559.0</ele><time>2026-04-12T09:35:55Z</time></trkpt><trkpt lat="44.54312995168616" lon="10.428740490929808"><ele>559.0</ele><time>2026-04-12T09:35:56Z</time></trkpt><trkpt lat="44.543107557269835" lon="10.42884175069057"><ele>559.0</ele><time>2026-04-12T09:35:57Z</time></trkpt><trkpt lat="44.54305519577987" lon="10.4289487008399"><ele>559.0</ele><time>2026-04-12T09:35:58Z</time></trkpt><trkpt lat="44.54305265322127" lon="10.429068625443186"><ele>559.0</ele><time>2026-04-12T09:35:59Z</time></trkpt><trkpt lat="44.54305826951971" lon="10.429219761555812"><ele>559.0</ele><time>2026-04-12T09:36:00Z</time></trkpt><trkpt lat="44.543069743856385" lon="10.429405446268568"><ele>559.0</ele><time>2026-04-12T09:36:01Z</time></trkpt><trkpt lat="44.543078453224446" lon="10.42959634604182"><ele>559.0</ele><time>2026-04-12T09:36:02Z</time></trkpt><trkpt lat="44.543075335279994" lon="10.429778651304071"><ele>559.2</ele><time>2026-04-12T09:36:03Z</time></trkpt><trkpt lat="44.543082768969136" lon="10.42991831762678"><ele>559.4</ele><time>2026-04-12T09:36:04Z</time></trkpt><trkpt lat="44.54310666220325" lon="10.430070672890492"><ele>559.6</ele><time>2026-04-12T09:36:05Z</time></trkpt><trkpt lat="44.543094604971" lon="10.430229264168762"><ele>559.8</ele><time>2026-04-12T09:36:06Z</time></trkpt><trkpt lat="44.543113617808984" lon="10.430355055957362"><ele>560.0</ele><time>2026-04-12T09:36:07Z</time></trkpt><trkpt lat="44.54308039484505" lon="10.43046501219967"><ele>559.2</ele><time>2026-04-12T09:36:08Z</time></trkpt><trkpt lat="44.543059759468754" lon="10.43057042104878"><ele>558.4</ele><time>2026-04-12T09:36:09Z</time></trkpt><trkpt lat="44.5430494598101" lon="10.430697990585028"><ele>557.6</ele><time>2026-04-12T09:36:10Z</time></trkpt><trkpt lat="44.54306324295663" lon="10.430817061444843"><ele>556.8</ele><time>2026-04-12T09:36:11Z</time></trkpt><trkpt lat="44.54307035052566" lon="10.43097969169161"><ele>556.0</ele><time>2026-04-12T09:36:12Z</time></trkpt><trkpt lat="44.54304190808442" lon="10.431140964918383"><ele>556.0</ele><time>2026-04-12T09:36:13Z</time></trkpt><trkpt lat="44.543018769723744" lon="10.431280599687133"><ele>556.0</ele><time>2026-04-12T09:36:14Z</time></trkpt><trkpt lat="44.54299085750247" lon="10.431426036871692"><ele>556.0</ele><time>2026-04-12T09:36:15Z</time></trkpt><trkpt lat="44.54297275775558" lon="10.431605884683641"><ele>556.0</ele><time>2026-04-12T09:36:16Z</time></trkpt><trkpt lat="44.542989055260165" lon="10.431808960925823"><ele>554.5</ele><time>2026-04-12T09:36:17Z</time></trkpt><trkpt lat="44.54299502211571" lon="10.431979798076194"><ele>553.0</ele><time>2026-04-12T09:36:18Z</time></trkpt><trkpt lat="44.543019365044294" lon="10.432076338620979"><ele>551.5</ele><time>2026-04-12T09:36:19Z</time></trkpt><trkpt lat="44.542983058837116" lon="10.432181006815627"><ele>550.0</ele><time>2026-04-12T09:36:21Z</time></trkpt><trkpt lat="44.542944914902044" lon="10.432312408152477"><ele>548.5</ele><time>2026-04-12T09:36:23Z</time></trkpt><trkpt lat="44.542948259150336" lon="10.432409093346271"><ele>547.0</ele><time>2026-04-12T09:36:24Z</time></trkpt><trkpt lat="44.54297023320456" lon="10.432565498515382"><ele>546.4</ele><time>2026-04-12T09:36:26Z</time></trkpt><trkpt lat="44.5429720790259" lon="10.432706448502788"><ele>545.8000000000001</ele><time>2026-04-12T09:36:28Z</time></trkpt><trkpt lat="44.542970387494954" lon="10.432844159150706"><ele>545.2</ele><time>2026-04-12T09:36:30Z</time></trkpt><trkpt lat="44.54296511598137" lon="10.432989424918613"><ele>544.6</ele><time>2026-04-12T09:36:32Z</time></trkpt><trkpt lat="44.542992509954594" lon="10.433101228128892"><ele>544.0</ele><time>2026-04-12T09:36:35Z</time></trkpt><trkpt lat="44.54301282080045" lon="10.433196691929737"><ele>544.0</ele><time>2026-04-12T09:36:37Z</time></trkpt><trkpt lat="44.54301309601473" lon="10.433299179106676"><ele>544.0</ele><time>2026-04-12T09:36:40Z</time></trkpt><trkpt lat="44.542993692451894" lon="10.433402548112188"><ele>544.0</ele><time>2026-04-12T09:36:44Z</time></trkpt><trkpt lat="44.54298513657416" lon="10.433611420649562"><ele>544.0</ele><time>2026-04-12T09:37:01Z</time></trkpt><trkpt lat="44.54296327821301" lon="10.43372125163844"><ele>544.0</ele><time>2026-04-12T09:37:02Z</time></trkpt><trkpt lat="44.54294234490836" lon="10.433864729676852"><ele>544.25</ele><time>2026-04-12T09:37:03Z</time></trkpt><trkpt lat="44.54286828189592" lon="10.434018309620305"><ele>544.5</ele><time>2026-04-12T09:37:04Z</time></trkpt><trkpt lat="44.542843565963445" lon="10.434199140544138"><ele>544.75</ele><time>2026-04-12T09:37:05Z</time></trkpt><trkpt lat="44.54282246209827" lon="10.434363188105296"><ele>545.0</ele><time>2026-04-12T09:37:06Z</time></trkpt><trkpt lat="44.54277624707137" lon="10.434575656517168"><ele>546.5</ele><time>2026-04-12T09:37:07Z</time></trkpt><trkpt lat="44.542737134016775" lon="10.434785221426157"><ele>548.0</ele><time>2026-04-12T09:37:08Z</time></trkpt><trkpt lat="44.54271134038684" lon="10.434936707924898"><ele>549.5</ele><time>2026-04-12T09:37:09Z</time></trkpt><trkpt lat="44.54268273677438" lon="10.435134799237662"><ele>551.0</ele><time>2026-04-12T09:37:10Z</time></trkpt><trkpt lat="44.54265688688888" lon="10.435385523680742"><ele>551.3333333333333</ele><time>2026-04-12T09:37:11Z</time></trkpt><trkpt lat="44.54262786139339" lon="10.435609499480998"><ele>551.6666666666666</ele><time>2026-04-12T09:37:12Z</time></trkpt><trkpt lat="44.54259595931237" lon="10.435804428527586"><ele>552.0</ele><time>2026-04-12T09:37:13Z</time></trkpt><trkpt lat="44.542571596815186" lon="10.436032747526118"><ele>552.0</ele><time>2026-04-12T09:37:14Z</time></trkpt><trkpt lat="44.54252922850216" lon="10.436282993242095"><ele>552.0</ele><time>2026-04-12T09:37:15Z</time></trkpt><trkpt lat="44.54247131112263" lon="10.436509857342763"><ele>552.0</ele><time>2026-04-12T09:37:16Z</time></trkpt><trkpt lat="44.542438637778" lon="10.436678777207367"><ele>552.0</ele><time>2026-04-12T09:37:17Z</time></trkpt><trkpt lat="44.542424082000835" lon="10.436844182336946"><ele>552.0</ele><time>2026-04-12T09:37:18Z</time></trkpt><trkpt lat="44.54240139858354" lon="10.436993533713427"><ele>552.0</ele><time>2026-04-12T09:37:19Z</time></trkpt><trkpt lat="44.54240971815678" lon="10.437133889748218"><ele>552.0</ele><time>2026-04-12T09:37:20Z</time></trkpt><trkpt lat="44.54243731260684" lon="10.437265867440637"><ele>552.0</ele><time>2026-04-12T09:37:21Z</time></trkpt><trkpt lat="44.54247265131836" lon="10.437394806790689"><ele>551.6</ele><time>2026-04-12T09:37:22Z</time></trkpt><trkpt lat="44.54246308239098" lon="10.43752042422682"><ele>551.2</ele><time>2026-04-12T09:37:23Z</time></trkpt><trkpt lat="44.54245929994919" lon="10.437673168016488"><ele>550.8</ele><time>2026-04-12T09:37:24Z</time></trkpt><trkpt lat="44.542477195629985" lon="10.437782702460709"><ele>550.4</ele><time>2026-04-12T09:37:25Z</time></trkpt><trkpt lat="44.54249098101527" lon="10.437899296005861"><ele>550.0</ele><time>2026-04-12T09:37:26Z</time></trkpt><trkpt lat="44.542510923664516" lon="10.43805257050155"><ele>550.0</ele><time>2026-04-12T09:37:27Z</time></trkpt><trkpt lat="44.5425344752842" lon="10.438208531457972"><ele>550.0</ele><time>2026-04-12T09:37:28Z</time></trkpt><trkpt lat="44.54254456254621" lon="10.438372316021765"><ele>550.0</ele><time>2026-04-12T09:37:29Z</time></trkpt><trkpt lat="44.54256005720583" lon="10.438510229004521"><ele>550.0</ele><time>2026-04-12T09:37:30Z</time></trkpt><trkpt lat="44.54254704024215" lon="10.438651994962491"><ele>550.0</ele><time>2026-04-12T09:37:31Z</time></trkpt><trkpt lat="44.54255370775568" lon="10.438776689042644"><ele>550.0</ele><time>2026-04-12T09:37:32Z</time></trkpt><trkpt lat="44.54261427553942" lon="10.438872684566897"><ele>550.0</ele><time>2026-04-12T09:37:33Z</time></trkpt><trkpt lat="44.54265101565356" lon="10.438952071782417"><ele>550.0</ele><time>2026-04-12T09:37:34Z</time></trkpt><trkpt lat="44.54271598052011" lon="10.439080680253436"><ele>550.0</ele><time>2026-04-12T09:37:36Z</time></trkpt><trkpt lat="44.5427332437267" lon="10.439171578445308"><ele>550.0</ele><time>2026-04-12T09:37:37Z</time></trkpt><trkpt lat="44.54273787911322" lon="10.439275651942781"><ele>550.0</ele><time>2026-04-12T09:37:38Z</time></trkpt><trkpt lat="44.54274024781576" lon="10.439374897693394"><ele>550.0</ele><time>2026-04-12T09:37:39Z</time></trkpt><trkpt lat="44.54274028472694" lon="10.439479524841612"><ele>550.0</ele><time>2026-04-12T09:37:40Z</time></trkpt><trkpt lat="44.54273743713145" lon="10.43958648434761"><ele>550.0</ele><time>2026-04-12T09:37:41Z</time></trkpt><trkpt lat="44.54273154896998" lon="10.439694215149693"><ele>550.0</ele><time>2026-04-12T09:37:42Z</time></trkpt><trkpt lat="44.54271847088431" lon="10.439802813901517"><ele>550.0</ele><time>2026-04-12T09:37:43Z</time></trkpt><trkpt lat="44.5426914624723" lon="10.439899554979277"><ele>550.0</ele><time>2026-04-12T09:37:44Z</time></trkpt><trkpt lat="44.5426361660322" lon="10.440016554425545"><ele>551.75</ele><time>2026-04-12T09:37:45Z</time></trkpt><trkpt lat="44.54257856428871" lon="10.440176126858114"><ele>553.5</ele><time>2026-04-12T09:37:46Z</time></trkpt><trkpt lat="44.542506678963974" lon="10.44034885966978"><ele>555.25</ele><time>2026-04-12T09:37:47Z</time></trkpt><trkpt lat="44.542473139684994" lon="10.440526944150784"><ele>557.0</ele><time>2026-04-12T09:37:48Z</time></trkpt><trkpt lat="44.542440681892835" lon="10.440654795969891"><ele>559.4</ele><time>2026-04-12T09:37:49Z</time></trkpt><trkpt lat="44.54243482146262" lon="10.440791981976355"><ele>561.8000000000001</ele><time>2026-04-12T09:37:50Z</time></trkpt><trkpt lat="44.54244111748088" lon="10.440969882968382"><ele>564.2</ele><time>2026-04-12T09:37:51Z</time></trkpt><trkpt lat="44.54244844193813" lon="10.441138441124673"><ele>566.6</ele><time>2026-04-12T09:37:52Z</time></trkpt><trkpt lat="44.542444978455634" lon="10.441274731786137"><ele>569.0</ele><time>2026-04-12T09:37:53Z</time></trkpt><trkpt lat="44.54238594101593" lon="10.441382548296936"><ele>570.25</ele><time>2026-04-12T09:37:55Z</time></trkpt><trkpt lat="44.54232210169349" lon="10.441445799879956"><ele>571.5</ele><time>2026-04-12T09:37:57Z</time></trkpt><trkpt lat="44.542228150216374" lon="10.441591688573318"><ele>572.75</ele><time>2026-04-12T09:38:19Z</time></trkpt><trkpt lat="44.54214532285851" lon="10.441690739741524"><ele>574.0</ele><time>2026-04-12T09:38:20Z</time></trkpt><trkpt lat="44.54201117537275" lon="10.44177501267696"><ele>574.0</ele><time>2026-04-12T09:38:21Z</time></trkpt><trkpt lat="44.54187652529259" lon="10.441866391935998"><ele>574.0</ele><time>2026-04-12T09:38:22Z</time></trkpt><trkpt lat="44.54178567302786" lon="10.4420360831052"><ele>574.0</ele><time>2026-04-12T09:38:23Z</time></trkpt><trkpt lat="44.54171323028992" lon="10.442173142926498"><ele>574.0</ele><time>2026-04-12T09:38:24Z</time></trkpt><trkpt lat="44.54161576679047" lon="10.442319289937295"><ele>576.0</ele><time>2026-04-12T09:38:25Z</time></trkpt><trkpt lat="44.541536601127156" lon="10.44247137137049"><ele>578.0</ele><time>2026-04-12T09:38:26Z</time></trkpt><trkpt lat="44.541460331628535" lon="10.442612540663857"><ele>580.0</ele><time>2026-04-12T09:38:27Z</time></trkpt><trkpt lat="44.541371738992815" lon="10.442777071164944"><ele>582.0</ele><time>2026-04-12T09:38:28Z</time></trkpt><trkpt lat="44.54129798327327" lon="10.442918547378836"><ele>584.5</ele><time>2026-04-12T09:38:29Z</time></trkpt><trkpt lat="44.541207265664355" lon="10.443020358611651"><ele>587.0</ele><time>2026-04-12T09:38:30Z</time></trkpt><trkpt lat="44.54111963830285" lon="10.443107844481922"><ele>589.5</ele><time>2026-04-12T09:38:31Z</time></trkpt><trkpt lat="44.54102072275531" lon="10.443197598285439"><ele>592.0</ele><time>2026-04-12T09:38:32Z</time></trkpt><trkpt lat="44.540912092601204" lon="10.443305152859601"><ele>592.0</ele><time>2026-04-12T09:38:33Z</time></trkpt><trkpt lat="44.540821828159466" lon="10.443426660665365"><ele>592.0</ele><time>2026-04-12T09:38:34Z</time></trkpt><trkpt lat="44.540752482302196" lon="10.443561205750434"><ele>592.0</ele><time>2026-04-12T09:38:35Z</time></trkpt><trkpt lat="44.54067726357113" lon="10.443708167314185"><ele>592.0</ele><time>2026-04-12T09:38:36Z</time></trkpt><trkpt lat="44.540607372621075" lon="10.4438535763689"><ele>592.75</ele><time>2026-04-12T09:38:37Z</time></trkpt><trkpt lat="44.54051045375884" lon="10.44394260049144"><ele>593.5</ele><time>2026-04-12T09:38:38Z</time></trkpt><trkpt lat="44.54043118594992" lon="10.444073688193214"><ele>594.25</ele><time>2026-04-12T09:38:39Z</time></trkpt><trkpt lat="44.54036925574529" lon="10.444180179453726"><ele>595.0</ele><time>2026-04-12T09:38:40Z</time></trkpt><trkpt lat="44.540337372126885" lon="10.44434290962264"><ele>595.0</ele><time>2026-04-12T09:38:41Z</time></trkpt><trkpt lat="44.54029334829987" lon="10.444521055747412"><ele>595.0</ele><time>2026-04-12T09:38:42Z</time></trkpt><trkpt lat="44.540227907750804" lon="10.444713612888936"><ele>595.0</ele><time>2026-04-12T09:38:43Z</time></trkpt><trkpt lat="44.54014666249759" lon="10.444901228308643"><ele>595.0</ele><time>2026-04-12T09:38:44Z</time></trkpt><trkpt lat="44.54011048707608" lon="10.445061733435049"><ele>596.5</ele><time>2026-04-12T09:38:45Z</time></trkpt><trkpt lat="44.54007203318549" lon="10.445185604467872"><ele>598.0</ele><time>2026-04-12T09:38:46Z</time></trkpt><trkpt lat="44.54002770084217" lon="10.445284998872681"><ele>599.5</ele><time>2026-04-12T09:38:47Z</time></trkpt><trkpt lat="44.54000889055998" lon="10.445391637723548"><ele>601.0</ele><time>2026-04-12T09:38:48Z</time></trkpt><trkpt lat="44.54001996517346" lon="10.445486697712827"><ele>602.5</ele><time>2026-04-12T09:38:49Z</time></trkpt><trkpt lat="44.54004960786558" lon="10.445595121171246"><ele>604.0</ele><time>2026-04-12T09:38:50Z</time></trkpt><trkpt lat="44.54006915393078" lon="10.445731342620485"><ele>605.75</ele><time>2026-04-12T09:38:51Z</time></trkpt><trkpt lat="44.540057246237836" lon="10.44589491662005"><ele>607.5</ele><time>2026-04-12T09:38:52Z</time></trkpt><trkpt lat="44.54002781128145" lon="10.446041034431396"><ele>609.25</ele><time>2026-04-12T09:38:53Z</time></trkpt><trkpt lat="44.53998725209054" lon="10.446220061683563"><ele>611.0</ele><time>2026-04-12T09:38:54Z</time></trkpt><trkpt lat="44.539947326121926" lon="10.446380330554675"><ele>612.4</ele><time>2026-04-12T09:38:55Z</time></trkpt><trkpt lat="44.539927486502116" lon="10.44654402058446"><ele>613.8</ele><time>2026-04-12T09:38:56Z</time></trkpt><trkpt lat="44.53990100511146" lon="10.446703679220713"><ele>615.1999999999999</ele><time>2026-04-12T09:38:57Z</time></trkpt><trkpt lat="44.53987490683605" lon="10.446850494749121"><ele>616.6</ele><time>2026-04-12T09:38:58Z</time></trkpt><trkpt lat="44.5398718856135" lon="10.446981941369891"><ele>618.0</ele><time>2026-04-12T09:38:59Z</time></trkpt><trkpt lat="44.53987989643611" lon="10.447112384964402"><ele>619.8</ele><time>2026-04-12T09:39:00Z</time></trkpt><trkpt lat="44.53988137519409" lon="10.447250014978213"><ele>621.5999999999999</ele><time>2026-04-12T09:39:01Z</time></trkpt><trkpt lat="44.539889599521516" lon="10.447370770082872"><ele>623.4000000000001</ele><time>2026-04-12T09:39:02Z</time></trkpt><trkpt lat="44.53988532084044" lon="10.44747192708674"><ele>625.2</ele><time>2026-04-12T09:39:03Z</time></trkpt><trkpt lat="44.53986250850117" lon="10.447621731631175"><ele>627.0</ele><time>2026-04-12T09:39:04Z</time></trkpt><trkpt lat="44.53983640840512" lon="10.447753227441124"><ele>627.0</ele><time>2026-04-12T09:39:05Z</time></trkpt><trkpt lat="44.53980007059411" lon="10.447861121321484"><ele>627.0</ele><time>2026-04-12T09:39:06Z</time></trkpt><trkpt lat="44.539759797523686" lon="10.447988184239739"><ele>627.0</ele><time>2026-04-12T09:39:07Z</time></trkpt><trkpt lat="44.53970538690997" lon="10.448159059279455"><ele>627.0</ele><time>2026-04-12T09:39:08Z</time></trkpt><trkpt lat="44.5396601248405" lon="10.44832827402663"><ele>627.0</ele><time>2026-04-12T09:39:09Z</time></trkpt><trkpt lat="44.539623049344634" lon="10.448445472783142"><ele>627.8000000000001</ele><time>2026-04-12T09:39:10Z</time></trkpt><trkpt lat="44.53959540185394" lon="10.448552799222721"><ele>628.6</ele><time>2026-04-12T09:39:11Z</time></trkpt><trkpt lat="44.5395497113367" lon="10.448691158441337"><ele>629.4000000000001</ele><time>2026-04-12T09:39:13Z</time></trkpt><trkpt lat="44.53950053607827" lon="10.448853308997391"><ele>630.2</ele><time>2026-04-12T09:39:15Z</time></trkpt><trkpt lat="44.53947049026323" lon="10.448959177472684"><ele>631.0</ele><time>2026-04-12T09:39:16Z</time></trkpt><trkpt lat="44.539452219688144" lon="10.449055391937824"><ele>631.0</ele><time>2026-04-12T09:39:17Z</time></trkpt><trkpt lat="44.53944407397855" lon="10.449167993820529"><ele>631.0</ele><time>2026-04-12T09:39:18Z</time></trkpt><trkpt lat="44.53944025532025" lon="10.449293448208907"><ele>631.0</ele><time>2026-04-12T09:39:19Z</time></trkpt><trkpt lat="44.53943348912323" lon="10.449405544723067"><ele>631.0</ele><time>2026-04-12T09:39:20Z</time></trkpt><trkpt lat="44.53943098290588" lon="10.449513849183845"><ele>631.0</ele><time>2026-04-12T09:39:21Z</time></trkpt><trkpt lat="44.53943726485589" lon="10.449623371459307"><ele>631.0</ele><time>2026-04-12T09:39:22Z</time></trkpt><trkpt lat="44.53945932673779" lon="10.44973615541631"><ele>630.4</ele><time>2026-04-12T09:39:23Z</time></trkpt><trkpt lat="44.53947633711869" lon="10.449850644882556"><ele>629.8</ele><time>2026-04-12T09:39:24Z</time></trkpt><trkpt lat="44.53949558953246" lon="10.449984001804573"><ele>629.1999999999999</ele><time>2026-04-12T09:39:25Z</time></trkpt><trkpt lat="44.53950841617348" lon="10.450125408700886"><ele>628.6</ele><time>2026-04-12T09:39:26Z</time></trkpt><trkpt lat="44.5395165489711" lon="10.450283610131445"><ele>628.0</ele><time>2026-04-12T09:39:27Z</time></trkpt><trkpt lat="44.53952764764713" lon="10.45044546648111"><ele>629.4</ele><time>2026-04-12T09:39:28Z</time></trkpt><trkpt lat="44.539542675698854" lon="10.450608534620944"><ele>630.8</ele><time>2026-04-12T09:39:29Z</time></trkpt><trkpt lat="44.53956215813141" lon="10.450760967862212"><ele>632.2</ele><time>2026-04-12T09:39:30Z</time></trkpt><trkpt lat="44.5395913379263" lon="10.450904859070818"><ele>633.6</ele><time>2026-04-12T09:39:31Z</time></trkpt><trkpt lat="44.53964566002403" lon="10.451025593591432"><ele>635.0</ele><time>2026-04-12T09:39:32Z</time></trkpt><trkpt lat="44.53970973465169" lon="10.451126120561417"><ele>640.25</ele><time>2026-04-12T09:39:33Z</time></trkpt><trkpt lat="44.53972594749254" lon="10.451330942899009"><ele>645.5</ele><time>2026-04-12T09:39:35Z</time></trkpt><trkpt lat="44.539745994807234" lon="10.45147929094172"><ele>650.75</ele><time>2026-04-12T09:39:36Z</time></trkpt><trkpt lat="44.53975713942594" lon="10.451633774946302"><ele>656.0</ele><time>2026-04-12T09:39:37Z</time></trkpt><trkpt lat="44.53975948695813" lon="10.45179239743573"><ele>656.0</ele><time>2026-04-12T09:39:38Z</time></trkpt><trkpt lat="44.539786225179775" lon="10.45191705726758"><ele>656.0</ele><time>2026-04-12T09:39:39Z</time></trkpt><trkpt lat="44.53979923876024" lon="10.452047210737621"><ele>656.0</ele><time>2026-04-12T09:39:40Z</time></trkpt><trkpt lat="44.53981719500445" lon="10.452161608278914"><ele>656.0</ele><time>2026-04-12T09:39:41Z</time></trkpt><trkpt lat="44.539831789651714" lon="10.452264670746754"><ele>656.0</ele><time>2026-04-12T09:39:42Z</time></trkpt><trkpt lat="44.53986405701432" lon="10.452400612191687"><ele>656.0</ele><time>2026-04-12T09:39:44Z</time></trkpt><trkpt lat="44.539927660249646" lon="10.452431827651656"><ele>659.3333333333333</ele><time>2026-04-12T09:40:27Z</time></trkpt><trkpt lat="44.53997522935441" lon="10.452500269754037"><ele>662.6666666666666</ele><time>2026-04-12T09:40:49Z</time></trkpt><trkpt lat="44.540021962542376" lon="10.452564595323507"><ele>666.0</ele><time>2026-04-12T09:40:58Z</time></trkpt><trkpt lat="44.53996875128298" lon="10.45250075462697"><ele>669.3333333333334</ele><time>2026-04-12T09:43:56Z</time></trkpt><trkpt lat="44.53988726961898" lon="10.452406141586657"><ele>672.6666666666667</ele><time>2026-04-12T09:44:25Z</time></trkpt><trkpt lat="44.539889420572386" lon="10.452263887268066"><ele>676.0</ele><time>2026-04-12T09:49:00Z</time></trkpt><trkpt lat="44.539838594893475" lon="10.452192729232642"><ele>676.0</ele><time>2026-04-12T09:49:03Z</time></trkpt><trkpt lat="44.539846817219754" lon="10.452327711702265"><ele>676.0</ele><time>2026-04-12T09:56:06Z</time></trkpt><trkpt lat="44.53990737761968" lon="10.452403761407298"><ele>676.0</ele><time>2026-04-12T09:56:29Z</time></trkpt><trkpt lat="44.5399631205734" lon="10.452511873163271"><ele>676.0</ele><time>2026-04-12T09:56:31Z</time></trkpt><trkpt lat="44.53997019142721" lon="10.45265726243972"><ele>676.0</ele><time>2026-04-12T09:56:34Z</time></trkpt><trkpt lat="44.53996931220192" lon="10.45275182032524"><ele>676.0</ele><time>2026-04-12T09:56:36Z</time></trkpt><trkpt lat="44.53993245954791" lon="10.452868944142654"><ele>679.0</ele><time>2026-04-12T09:56:38Z</time></trkpt><trkpt lat="44.5398955210637" lon="10.452961831337847"><ele>682.0</ele><time>2026-04-12T09:56:40Z</time></trkpt><trkpt lat="44.539868150583835" lon="10.4531079333328"><ele>685.0</ele><time>2026-04-12T09:56:42Z</time></trkpt><trkpt lat="44.539848334323885" lon="10.453245569526022"><ele>688.0</ele><time>2026-04-12T09:56:44Z</time></trkpt><trkpt lat="44.539813069308636" lon="10.453354064556658"><ele>691.0</ele><time>2026-04-12T09:56:46Z</time></trkpt><trkpt lat="44.53975273186064" lon="10.453464714309876"><ele>691.0</ele><time>2026-04-12T09:56:48Z</time></trkpt><trkpt lat="44.5396756311766" lon="10.453567357557617"><ele>691.0</ele><time>2026-04-12T09:56:50Z</time></trkpt><trkpt lat="44.53959090902426" lon="10.453675489972907"><ele>691.0</ele><time>2026-04-12T09:56:52Z</time></trkpt><trkpt lat="44.539533605751885" lon="10.453797434512769"><ele>691.0</ele><time>2026-04-12T09:56:54Z</time></trkpt><trkpt lat="44.53948801714655" lon="10.453929078617383"><ele>691.0</ele><time>2026-04-12T09:56:56Z</time></trkpt><trkpt lat="44.5394539305211" lon="10.454008558427912"><ele>683.5</ele><time>2026-04-12T09:56:57Z</time></trkpt><trkpt lat="44.53940959654166" lon="10.454088463056232"><ele>676.0</ele><time>2026-04-12T09:56:58Z</time></trkpt><trkpt lat="44.53920559764251" lon="10.453978283813"><ele>668.5</ele><time>2026-04-12T09:56:59Z</time></trkpt><trkpt lat="44.53913574939255" lon="10.454111203381581"><ele>661.0</ele><time>2026-04-12T09:57:01Z</time></trkpt><trkpt lat="44.539121262927615" lon="10.45428874139857"><ele>661.0</ele><time>2026-04-12T09:57:03Z</time></trkpt><trkpt lat="44.53910241440988" lon="10.45437986579126"><ele>661.0</ele><time>2026-04-12T09:57:05Z</time></trkpt><trkpt lat="44.53908095821279" lon="10.45450751961657"><ele>661.0</ele><time>2026-04-12T09:57:07Z</time></trkpt><trkpt lat="44.539043816818484" lon="10.454589014189121"><ele>661.0</ele><time>2026-04-12T09:57:08Z</time></trkpt><trkpt lat="44.53902389974466" lon="10.454674766130418"><ele>661.0</ele><time>2026-04-12T09:57:09Z</time></trkpt><trkpt lat="44.538983747960316" lon="10.454775443857132"><ele>661.0</ele><time>2026-04-12T09:57:10Z</time></trkpt><trkpt lat="44.53897306421566" lon="10.454921339744265"><ele>663.0</ele><time>2026-04-12T09:57:11Z</time></trkpt><trkpt lat="44.538994014731514" lon="10.45505915694581"><ele>665.0</ele><time>2026-04-12T09:57:12Z</time></trkpt><trkpt lat="44.538975327616946" lon="10.455181271364728"><ele>667.0</ele><time>2026-04-12T09:57:13Z</time></trkpt><trkpt lat="44.53897333886802" lon="10.455322397493845"><ele>669.0</ele><time>2026-04-12T09:57:14Z</time></trkpt><trkpt lat="44.538959902568116" lon="10.455454525678366"><ele>671.0</ele><time>2026-04-12T09:57:15Z</time></trkpt><trkpt lat="44.53894019128136" lon="10.4555865870378"><ele>671.0</ele><time>2026-04-12T09:57:16Z</time></trkpt><trkpt lat="44.538922845401686" lon="10.455709990431725"><ele>671.0</ele><time>2026-04-12T09:57:17Z</time></trkpt><trkpt lat="44.538899026082426" lon="10.455848531230968"><ele>671.0</ele><time>2026-04-12T09:57:18Z</time></trkpt><trkpt lat="44.538866756537935" lon="10.455977512025017"><ele>671.0</ele><time>2026-04-12T09:57:19Z</time></trkpt><trkpt lat="44.53882588874971" lon="10.456084602992469"><ele>671.0</ele><time>2026-04-12T09:57:20Z</time></trkpt><trkpt lat="44.53876691688778" lon="10.456205088042806"><ele>664.4</ele><time>2026-04-12T09:57:21Z</time></trkpt><trkpt lat="44.53871073302059" lon="10.456307975540952"><ele>657.8</ele><time>2026-04-12T09:57:22Z</time></trkpt><trkpt lat="44.538646313703744" lon="10.45642371753783"><ele>651.1999999999999</ele><time>2026-04-12T09:57:23Z</time></trkpt><trkpt lat="44.53858817675533" lon="10.456530905196713"><ele>644.5999999999999</ele><time>2026-04-12T09:57:24Z</time></trkpt><trkpt lat="44.53853131790412" lon="10.456630115666185"><ele>638.0</ele><time>2026-04-12T09:57:25Z</time></trkpt><trkpt lat="44.53848541687019" lon="10.456709875575742"><ele>638.0</ele><time>2026-04-12T09:57:26Z</time></trkpt><trkpt lat="44.53843853030725" lon="10.456798887731702"><ele>638.0</ele><time>2026-04-12T09:57:27Z</time></trkpt><trkpt lat="44.53839101549368" lon="10.456946219715663"><ele>638.0</ele><time>2026-04-12T09:57:28Z</time></trkpt><trkpt lat="44.53836477038795" lon="10.457068762484395"><ele>638.0</ele><time>2026-04-12T09:57:29Z</time></trkpt><trkpt lat="44.53837503122923" lon="10.457207301369458"><ele>638.0</ele><time>2026-04-12T09:57:30Z</time></trkpt><trkpt lat="44.53837691197026" lon="10.457321037929807"><ele>640.8</ele><time>2026-04-12T09:57:31Z</time></trkpt><trkpt lat="44.53842952484719" lon="10.457419609504193"><ele>643.5999999999999</ele><time>2026-04-12T09:57:32Z</time></trkpt><trkpt lat="44.538422616606006" lon="10.457554268994269"><ele>646.4000000000001</ele><time>2026-04-12T09:57:33Z</time></trkpt><trkpt lat="44.53839480657345" lon="10.457701234435369"><ele>649.2</ele><time>2026-04-12T09:57:34Z</time></trkpt><trkpt lat="44.53835153796034" lon="10.457836510416106"><ele>652.0</ele><time>2026-04-12T09:57:35Z</time></trkpt><trkpt lat="44.538320560076116" lon="10.457958121797601"><ele>655.0</ele><time>2026-04-12T09:57:36Z</time></trkpt><trkpt lat="44.53828156589657" lon="10.458124065464984"><ele>658.0</ele><time>2026-04-12T09:57:37Z</time></trkpt><trkpt lat="44.53823813117438" lon="10.458316530002094"><ele>661.0</ele><time>2026-04-12T09:57:38Z</time></trkpt><trkpt lat="44.53819831199577" lon="10.458485430818005"><ele>664.0</ele><time>2026-04-12T09:57:39Z</time></trkpt><trkpt lat="44.53816521798821" lon="10.458623823935982"><ele>664.0</ele><time>2026-04-12T09:57:40Z</time></trkpt><trkpt lat="44.53813257816184" lon="10.45876006938612"><ele>664.0</ele><time>2026-04-12T09:57:41Z</time></trkpt><trkpt lat="44.53810833642592" lon="10.458857342054776"><ele>664.0</ele><time>2026-04-12T09:57:42Z</time></trkpt><trkpt lat="44.53806930267741" lon="10.45901083375939"><ele>664.0</ele><time>2026-04-12T09:57:44Z</time></trkpt><trkpt lat="44.53803968166154" lon="10.45911803882086"><ele>664.0</ele><time>2026-04-12T09:57:49Z</time></trkpt><trkpt lat="44.53815091423297" lon="10.459159321745702"><ele>665.3333333333334</ele><time>2026-04-12T09:57:51Z</time></trkpt><trkpt lat="44.5382040819465" lon="10.459213749677279"><ele>666.6666666666667</ele><time>2026-04-12T09:57:53Z</time></trkpt><trkpt lat="44.538239807852825" lon="10.459331385105079"><ele>668.0</ele><time>2026-04-12T09:57:57Z</time></trkpt><trkpt lat="44.53827147036758" lon="10.459409955509047"><ele>669.3333333333334</ele><time>2026-04-12T09:58:00Z</time></trkpt><trkpt lat="44.53835577610585" lon="10.459438969651867"><ele>670.6666666666666</ele><time>2026-04-12T09:58:04Z</time></trkpt><trkpt lat="44.53848446745267" lon="10.4594513779817"><ele>672.0</ele><time>2026-04-12T09:58:08Z</time></trkpt><trkpt lat="44.538557703381564" lon="10.459398555930738"><ele>672.0</ele><time>2026-04-12T09:58:09Z</time></trkpt><trkpt lat="44.538664226715106" lon="10.459389497456277"><ele>672.0</ele><time>2026-04-12T09:58:11Z</time></trkpt><trkpt lat="44.53872990670779" lon="10.459382037229913"><ele>672.0</ele><time>2026-04-12T09:58:12Z</time></trkpt><trkpt lat="44.53880181069229" lon="10.459363395434787"><ele>672.0</ele><time>2026-04-12T09:58:13Z</time></trkpt><trkpt lat="44.53884870954463" lon="10.459285111990475"><ele>672.0</ele><time>2026-04-12T09:58:14Z</time></trkpt><trkpt lat="44.5388912284166" lon="10.459099688948248"><ele>677.0</ele><time>2026-04-12T09:58:15Z</time></trkpt><trkpt lat="44.53897448948845" lon="10.458863760768269"><ele>682.0</ele><time>2026-04-12T09:58:16Z</time></trkpt><trkpt lat="44.5390476392954" lon="10.458651531828615"><ele>687.0</ele><time>2026-04-12T09:58:17Z</time></trkpt><trkpt lat="44.53911379050489" lon="10.458430443177711"><ele>688.75</ele><time>2026-04-12T09:58:18Z</time></trkpt><trkpt lat="44.53918454896504" lon="10.45823485499417"><ele>690.5</ele><time>2026-04-12T09:58:19Z</time></trkpt><trkpt lat="44.539261722895" lon="10.458136100648355"><ele>692.25</ele><time>2026-04-12T09:58:20Z</time></trkpt><trkpt lat="44.539369638005454" lon="10.457974359817738"><ele>694.0</ele><time>2026-04-12T09:58:21Z</time></trkpt><trkpt lat="44.53946020236512" lon="10.457838652084384"><ele>694.0</ele><time>2026-04-12T09:58:22Z</time></trkpt><trkpt lat="44.539494157695394" lon="10.457713348044777"><ele>694.0</ele><time>2026-04-12T09:58:23Z</time></trkpt><trkpt lat="44.538230351862616" lon="10.461115729985014"><ele>684.25</ele><time>2026-04-12T09:58:24Z</time></trkpt><trkpt lat="44.53833512545258" lon="10.460885552193107"><ele>674.5</ele><time>2026-04-12T09:58:31Z</time></trkpt><trkpt lat="44.53837736849896" lon="10.460753810319426"><ele>664.75</ele><time>2026-04-12T09:58:33Z</time></trkpt><trkpt lat="44.53839461778998" lon="10.46061263717608"><ele>655.0</ele><time>2026-04-12T09:58:36Z</time></trkpt><trkpt lat="44.53841079718728" lon="10.460488317041818"><ele>657.2</ele><time>2026-04-12T09:58:37Z</time></trkpt><trkpt lat="44.53840594346454" lon="10.460394136244293"><ele>659.4</ele><time>2026-04-12T09:58:38Z</time></trkpt><trkpt lat="44.53843348027761" lon="10.460264156637262"><ele>661.5999999999999</ele><time>2026-04-12T09:58:39Z</time></trkpt><trkpt lat="44.538460583520056" lon="10.460080066269063"><ele>663.8</ele><time>2026-04-12T09:58:41Z</time></trkpt><trkpt lat="44.538483054833065" lon="10.459978605700837"><ele>666.0</ele><time>2026-04-12T09:58:42Z</time></trkpt><trkpt lat="44.538501787611835" lon="10.459788217280698"><ele>666.0</ele><time>2026-04-12T09:58:44Z</time></trkpt><trkpt lat="44.53852028783171" lon="10.459655664502057"><ele>666.0</ele><time>2026-04-12T09:58:45Z</time></trkpt><trkpt lat="44.53854440167934" lon="10.459491861809228"><ele>666.0</ele><time>2026-04-12T09:58:46Z</time></trkpt><trkpt lat="44.53856898064563" lon="10.45933588691727"><ele>666.0</ele><time>2026-04-12T09:58:47Z</time></trkpt><trkpt lat="44.53860596743632" lon="10.459234209896678"><ele>666.0</ele><time>2026-04-12T09:58:48Z</time></trkpt><trkpt lat="44.538633557788344" lon="10.459061167718769"><ele>665.5999999999999</ele><time>2026-04-12T09:58:49Z</time></trkpt><trkpt lat="44.53864170018921" lon="10.458957538708535"><ele>665.2</ele><time>2026-04-12T09:58:50Z</time></trkpt><trkpt lat="44.53867025811026" lon="10.45879532254612"><ele>664.8</ele><time>2026-04-12T09:58:51Z</time></trkpt><trkpt lat="44.53868771572369" lon="10.458693167262958"><ele>664.4000000000001</ele><time>2026-04-12T09:58:52Z</time></trkpt><trkpt lat="44.538704330059865" lon="10.458512757722252"><ele>664.0</ele><time>2026-04-12T09:58:54Z</time></trkpt><trkpt lat="44.53876322988296" lon="10.458342106660393"><ele>667.5</ele><time>2026-04-12T09:58:56Z</time></trkpt><trkpt lat="44.53881849621055" lon="10.45825863958736"><ele>671.0</ele><time>2026-04-12T09:58:58Z</time></trkpt><trkpt lat="44.539507597671026" lon="10.456049341987574"><ele>671.0</ele><time>2026-04-12T09:58:59Z</time></trkpt><trkpt lat="44.5395296370541" lon="10.45590901760949"><ele>671.0</ele><time>2026-04-12T09:59:00Z</time></trkpt><trkpt lat="44.539583216885454" lon="10.455695757648392"><ele>671.0</ele><time>2026-04-12T09:59:01Z</time></trkpt><trkpt lat="44.539516342435675" lon="10.455978340821881"><ele>679.1999999999999</ele><time>2026-04-12T09:59:12Z</time></trkpt><trkpt lat="44.539564099032766" lon="10.455889085836404"><ele>687.4</ele><time>2026-04-12T09:59:14Z</time></trkpt><trkpt lat="44.539630234178986" lon="10.455759594078215"><ele>695.6</ele><time>2026-04-12T09:59:16Z</time></trkpt><trkpt lat="44.539667335394505" lon="10.45568346903553"><ele>703.8</ele><time>2026-04-12T09:59:18Z</time></trkpt><trkpt lat="44.539719845333124" lon="10.455550606741735"><ele>712.0</ele><time>2026-04-12T09:59:20Z</time></trkpt><trkpt lat="44.53976048778988" lon="10.455432441622012"><ele>712.0</ele><time>2026-04-12T09:59:21Z</time></trkpt><trkpt lat="44.53979937483329" lon="10.455323231166604"><ele>712.0</ele><time>2026-04-12T09:59:22Z</time></trkpt><trkpt lat="44.53983126787977" lon="10.455245486564264"><ele>712.0</ele><time>2026-04-12T09:59:23Z</time></trkpt><trkpt lat="44.53988167014539" lon="10.455140783945726"><ele>712.0</ele><time>2026-04-12T09:59:25Z</time></trkpt><trkpt lat="44.539941703042146" lon="10.455011388043003"><ele>712.0</ele><time>2026-04-12T09:59:27Z</time></trkpt><trkpt lat="44.54001198953309" lon="10.45477283963598"><ele>712.0</ele><time>2026-04-12T09:59:30Z</time></trkpt><trkpt lat="44.54005813474266" lon="10.45467228157779"><ele>712.0</ele><time>2026-04-12T09:59:31Z</time></trkpt><trkpt lat="44.54009693493425" lon="10.454578869081027"><ele>712.0</ele><time>2026-04-12T09:59:32Z</time></trkpt><trkpt lat="44.54015076336145" lon="10.454458023210291"><ele>712.0</ele><time>2026-04-12T09:59:34Z</time></trkpt><trkpt lat="44.540196766792675" lon="10.4543630310172"><ele>712.0</ele><time>2026-04-12T09:59:35Z</time></trkpt><trkpt lat="44.5402301820811" lon="10.45428207499174"><ele>712.0</ele><time>2026-04-12T09:59:36Z</time></trkpt><trkpt lat="44.540270601819344" lon="10.454171178043135"><ele>712.1666666666667</ele><time>2026-04-12T09:59:38Z</time></trkpt><trkpt lat="44.54032047859763" lon="10.454082832160148"><ele>712.3333333333334</ele><time>2026-04-12T09:59:39Z</time></trkpt><trkpt lat="44.54037590687862" lon="10.454000377433271"><ele>712.5</ele><time>2026-04-12T09:59:41Z</time></trkpt><trkpt lat="44.54044332736788" lon="10.453954104492514"><ele>712.6666666666666</ele><time>2026-04-12T09:59:44Z</time></trkpt><trkpt lat="44.54041550290637" lon="10.454089903018705"><ele>712.8333333333333</ele><time>2026-04-12T09:59:47Z</time></trkpt><trkpt lat="44.54038823193765" lon="10.45417615336504"><ele>713.0</ele><time>2026-04-12T09:59:48Z</time></trkpt><trkpt lat="44.54034955385483" lon="10.454255598505572"><ele>712.5999999999999</ele><time>2026-04-12T09:59:49Z</time></trkpt><trkpt lat="44.54032751312488" lon="10.454389184519268"><ele>712.1999999999999</ele><time>2026-04-12T09:59:51Z</time></trkpt><trkpt lat="44.54034170409289" lon="10.454552171763535"><ele>711.8</ele><time>2026-04-12T09:59:53Z</time></trkpt><trkpt lat="44.54038399298102" lon="10.454653323408287"><ele>711.4</ele><time>2026-04-12T09:59:54Z</time></trkpt><trkpt lat="44.5404481583786" lon="10.454741565540573"><ele>711.0</ele><time>2026-04-12T09:59:55Z</time></trkpt><trkpt lat="44.54048014456302" lon="10.454870717795787"><ele>711.0</ele><time>2026-04-12T09:59:57Z</time></trkpt><trkpt lat="44.54066012074183" lon="10.454893107315387"><ele>711.0</ele><time>2026-04-12T10:00:00Z</time></trkpt><trkpt lat="44.54076229937043" lon="10.454909544705918"><ele>711.0</ele><time>2026-04-12T10:00:01Z</time></trkpt><trkpt lat="44.54084185967243" lon="10.454956280149327"><ele>711.0</ele><time>2026-04-12T10:00:02Z</time></trkpt><trkpt lat="44.54097843931658" lon="10.454975305522712"><ele>711.0</ele><time>2026-04-12T10:00:04Z</time></trkpt><trkpt lat="44.54105039476709" lon="10.454940090864946"><ele>711.0</ele><time>2026-04-12T10:00:05Z</time></trkpt><trkpt lat="44.54111968193102" lon="10.454845246794811"><ele>711.0</ele><time>2026-04-12T10:00:06Z</time></trkpt><trkpt lat="44.54113663028824" lon="10.45475474576131"><ele>711.0</ele><time>2026-04-12T10:00:07Z</time></trkpt><trkpt lat="44.54115162343687" lon="10.45460209236596"><ele>711.0</ele><time>2026-04-12T10:00:09Z</time></trkpt><trkpt lat="44.541152497014295" lon="10.45451061833566"><ele>711.0</ele><time>2026-04-12T10:00:10Z</time></trkpt><trkpt lat="44.54115551861396" lon="10.45440781066115"><ele>711.2857142857143</ele><time>2026-04-12T10:00:11Z</time></trkpt><trkpt lat="44.54115262557114" lon="10.45431266412387"><ele>711.5714285714286</ele><time>2026-04-12T10:00:12Z</time></trkpt><trkpt lat="44.54113953996594" lon="10.454225738269242"><ele>711.8571428571429</ele><time>2026-04-12T10:00:13Z</time></trkpt><trkpt lat="44.54109566567909" lon="10.454117988612742"><ele>712.1428571428571</ele><time>2026-04-12T10:00:14Z</time></trkpt><trkpt lat="44.54107522952105" lon="10.454017714769336"><ele>712.4285714285714</ele><time>2026-04-12T10:00:15Z</time></trkpt><trkpt lat="44.54114204018739" lon="10.453997761499734"><ele>712.7142857142857</ele><time>2026-04-12T10:00:16Z</time></trkpt><trkpt lat="44.5411838764247" lon="10.453925215972419"><ele>713.0</ele><time>2026-04-12T10:00:17Z</time></trkpt><trkpt lat="44.54125034415739" lon="10.45388245838874"><ele>707.5999999999999</ele><time>2026-04-12T10:00:18Z</time></trkpt><trkpt lat="44.5413565621732" lon="10.453827686054586"><ele>702.1999999999999</ele><time>2026-04-12T10:00:19Z</time></trkpt><trkpt lat="44.54146303343641" lon="10.453788665810693"><ele>696.8</ele><time>2026-04-12T10:00:20Z</time></trkpt><trkpt lat="44.541543185755366" lon="10.453756729826551"><ele>691.4</ele><time>2026-04-12T10:00:21Z</time></trkpt><trkpt lat="44.54160098738711" lon="10.453705326147238"><ele>686.0</ele><time>2026-04-12T10:00:22Z</time></trkpt><trkpt lat="44.54169335764083" lon="10.453741952810885"><ele>684.8571428571429</ele><time>2026-04-12T10:00:27Z</time></trkpt><trkpt lat="44.54169455811269" lon="10.453830339360936"><ele>683.7142857142858</ele><time>2026-04-12T10:00:28Z</time></trkpt><trkpt lat="44.54168164732338" lon="10.453917864542056"><ele>682.5714285714286</ele><time>2026-04-12T10:00:29Z</time></trkpt><trkpt lat="44.54169487151166" lon="10.454021270209358"><ele>681.4285714285714</ele><time>2026-04-12T10:00:30Z</time></trkpt><trkpt lat="44.54174033668155" lon="10.454143734942525"><ele>680.2857142857143</ele><time>2026-04-12T10:00:31Z</time></trkpt><trkpt lat="44.54173151994444" lon="10.454257218587246"><ele>679.1428571428571</ele><time>2026-04-12T10:00:32Z</time></trkpt><trkpt lat="44.54172475323608" lon="10.454347136537265"><ele>678.0</ele><time>2026-04-12T10:00:33Z</time></trkpt><trkpt lat="44.54173919832083" lon="10.454473395887673"><ele>676.75</ele><time>2026-04-12T10:00:34Z</time></trkpt><trkpt lat="44.54172635493928" lon="10.45464610306187"><ele>675.5</ele><time>2026-04-12T10:00:35Z</time></trkpt><trkpt lat="44.5417228536871" lon="10.454838770786068"><ele>674.25</ele><time>2026-04-12T10:00:36Z</time></trkpt><trkpt lat="44.541719910707435" lon="10.454998284829372"><ele>673.0</ele><time>2026-04-12T10:00:37Z</time></trkpt><trkpt lat="44.54175535603816" lon="10.455132169346216"><ele>673.0</ele><time>2026-04-12T10:00:38Z</time></trkpt><trkpt lat="44.54177377583171" lon="10.455269245061215"><ele>673.0</ele><time>2026-04-12T10:00:39Z</time></trkpt><trkpt lat="44.5418270691053" lon="10.455402601160705"><ele>673.0</ele><time>2026-04-12T10:00:40Z</time></trkpt><trkpt lat="44.54185197315158" lon="10.455537279003536"><ele>673.0</ele><time>2026-04-12T10:00:41Z</time></trkpt><trkpt lat="44.54191615568045" lon="10.455676010204284"><ele>673.0</ele><time>2026-04-12T10:00:42Z</time></trkpt><trkpt lat="44.54195697100661" lon="10.455830756366275"><ele>671.5</ele><time>2026-04-12T10:00:44Z</time></trkpt><trkpt lat="44.54193437065842" lon="10.455951292537073"><ele>670.0</ele><time>2026-04-12T10:00:46Z</time></trkpt><trkpt lat="44.54183773349006" lon="10.455964557804014"><ele>668.5</ele><time>2026-04-12T10:00:47Z</time></trkpt><trkpt lat="44.541746591517004" lon="10.456021213059858"><ele>667.0</ele><time>2026-04-12T10:00:48Z</time></trkpt><trkpt lat="44.54169616912937" lon="10.456082716036715"><ele>665.5</ele><time>2026-04-12T10:00:49Z</time></trkpt><trkpt lat="44.541638997225334" lon="10.45615764021407"><ele>664.0</ele><time>2026-04-12T10:00:51Z</time></trkpt><trkpt lat="44.54162342960156" lon="10.456243696723433"><ele>661.0</ele><time>2026-04-12T10:00:52Z</time></trkpt><trkpt lat="44.54159747944094" lon="10.4563407202536"><ele>658.0</ele><time>2026-04-12T10:00:53Z</time></trkpt><trkpt lat="44.541584301894346" lon="10.456436167824085"><ele>655.0</ele><time>2026-04-12T10:00:54Z</time></trkpt><trkpt lat="44.541524453344415" lon="10.456513853963001"><ele>652.0</ele><time>2026-04-12T10:00:55Z</time></trkpt><trkpt lat="44.5414660315686" lon="10.456601866176884"><ele>649.0</ele><time>2026-04-12T10:00:58Z</time></trkpt><trkpt lat="44.54152670724657" lon="10.456680243491489"><ele>646.0</ele><time>2026-04-12T10:00:59Z</time></trkpt><trkpt lat="44.54162694864492" lon="10.456763020475607"><ele>646.0</ele><time>2026-04-12T10:01:00Z</time></trkpt><trkpt lat="44.54170763434686" lon="10.456900452528117"><ele>646.0</ele><time>2026-04-12T10:01:01Z</time></trkpt><trkpt lat="44.541736783038154" lon="10.457035728633171"><ele>646.0</ele><time>2026-04-12T10:01:02Z</time></trkpt><trkpt lat="44.54180722636302" lon="10.457120159748422"><ele>646.0</ele><time>2026-04-12T10:01:03Z</time></trkpt><trkpt lat="44.54179624123102" lon="10.457286311456556"><ele>646.0</ele><time>2026-04-12T10:01:05Z</time></trkpt><trkpt lat="44.541796002186075" lon="10.457398128217802"><ele>643.1666666666667</ele><time>2026-04-12T10:01:06Z</time></trkpt><trkpt lat="44.54178535201964" lon="10.457532953923874"><ele>640.3333333333334</ele><time>2026-04-12T10:01:07Z</time></trkpt><trkpt lat="44.54181968756668" lon="10.45764927220526"><ele>637.5</ele><time>2026-04-12T10:01:09Z</time></trkpt><trkpt lat="44.5419012335299" lon="10.457715014484219"><ele>634.6666666666666</ele><time>2026-04-12T10:01:12Z</time></trkpt><trkpt lat="44.54196980342417" lon="10.457737533191837"><ele>631.8333333333333</ele><time>2026-04-12T10:01:15Z</time></trkpt><trkpt lat="44.54197272740339" lon="10.457862251552221"><ele>629.0</ele><time>2026-04-12T10:01:19Z</time></trkpt><trkpt lat="44.541964341400515" lon="10.457950272909176"><ele>626.6666666666666</ele><time>2026-04-12T10:01:21Z</time></trkpt><trkpt lat="44.5420528418908" lon="10.458056628078456"><ele>624.3333333333334</ele><time>2026-04-12T10:01:22Z</time></trkpt><trkpt lat="44.54210832034091" lon="10.458173419599019"><ele>622.0</ele><time>2026-04-12T10:01:23Z</time></trkpt><trkpt lat="44.54222935757546" lon="10.458523641726963"><ele>622.0</ele><time>2026-04-12T10:01:24Z</time></trkpt><trkpt lat="44.542290820662224" lon="10.45864761919751"><ele>622.0</ele><time>2026-04-12T10:01:26Z</time></trkpt><trkpt lat="44.54233777996323" lon="10.45875341473036"><ele>622.0</ele><time>2026-04-12T10:01:28Z</time></trkpt><trkpt lat="44.54237158177106" lon="10.458832261951114"><ele>622.0</ele><time>2026-04-12T10:01:30Z</time></trkpt><trkpt lat="44.542429677091484" lon="10.458951886689821"><ele>622.0</ele><time>2026-04-12T10:01:32Z</time></trkpt><trkpt lat="44.54246408547749" lon="10.459029099575444"><ele>622.0</ele><time>2026-04-12T10:01:33Z</time></trkpt><trkpt lat="44.5424995453407" lon="10.459104197055224"><ele>623.6666666666667</ele><time>2026-04-12T10:01:34Z</time></trkpt><trkpt lat="44.542557606768376" lon="10.459216408745254"><ele>625.3333333333334</ele><time>2026-04-12T10:01:36Z</time></trkpt><trkpt lat="44.54263939177784" lon="10.459286087976938"><ele>627.0</ele><time>2026-04-12T10:01:38Z</time></trkpt><trkpt lat="44.54266573605684" lon="10.459204126895877"><ele>628.6666666666666</ele><time>2026-04-12T10:01:48Z</time></trkpt><trkpt lat="44.54273411033444" lon="10.459187689003382"><ele>630.3333333333333</ele><time>2026-04-12T10:01:59Z</time></trkpt><trkpt lat="44.542824496178405" lon="10.459199638494649"><ele>632.0</ele><time>2026-04-12T10:02:00Z</time></trkpt><trkpt lat="44.54291100366342" lon="10.459176856756647"><ele>632.0</ele><time>2026-04-12T10:02:01Z</time></trkpt><trkpt lat="44.54303258611752" lon="10.459278896601857"><ele>632.0</ele><time>2026-04-12T10:02:02Z</time></trkpt><trkpt lat="44.54312257268827" lon="10.45946653928303"><ele>632.0</ele><time>2026-04-12T10:02:03Z</time></trkpt><trkpt lat="44.543258101078834" lon="10.459516754030975"><ele>632.0</ele><time>2026-04-12T10:02:04Z</time></trkpt><trkpt lat="44.54340211472022" lon="10.459550797023152"><ele>632.0</ele><time>2026-04-12T10:02:05Z</time></trkpt><trkpt lat="44.54353240923471" lon="10.459597651966144"><ele>632.0</ele><time>2026-04-12T10:02:06Z</time></trkpt><trkpt lat="44.543650567133305" lon="10.459665980664877"><ele>632.0</ele><time>2026-04-12T10:02:07Z</time></trkpt><trkpt lat="44.54375746113769" lon="10.459707543441317"><ele>632.0</ele><time>2026-04-12T10:02:08Z</time></trkpt><trkpt lat="44.54390361911021" lon="10.459760473245899"><ele>634.4000000000001</ele><time>2026-04-12T10:02:09Z</time></trkpt><trkpt lat="44.54403183827058" lon="10.459785662169567"><ele>636.8000000000001</ele><time>2026-04-12T10:02:10Z</time></trkpt><trkpt lat="44.544121265566744" lon="10.459827219533068"><ele>639.2</ele><time>2026-04-12T10:02:11Z</time></trkpt><trkpt lat="44.544200096058816" lon="10.45987260122323"><ele>641.6</ele><time>2026-04-12T10:02:12Z</time></trkpt><trkpt lat="44.54426207556086" lon="10.459935895237308"><ele>644.0</ele><time>2026-04-12T10:02:13Z</time></trkpt><trkpt lat="44.54431140853573" lon="10.460013209392958"><ele>644.0</ele><time>2026-04-12T10:02:14Z</time></trkpt><trkpt lat="44.544341397871946" lon="10.460127446330118"><ele>644.0</ele><time>2026-04-12T10:02:15Z</time></trkpt><trkpt lat="44.544401847435964" lon="10.460229033242197"><ele>644.0</ele><time>2026-04-12T10:02:16Z</time></trkpt><trkpt lat="44.54443527411705" lon="10.460357441241083"><ele>644.0</ele><time>2026-04-12T10:02:17Z</time></trkpt><trkpt lat="44.54449484296793" lon="10.460454171697338"><ele>644.0</ele><time>2026-04-12T10:02:18Z</time></trkpt><trkpt lat="44.54453425120053" lon="10.46058052895175"><ele>643.5</ele><time>2026-04-12T10:02:19Z</time></trkpt><trkpt lat="44.54458439435081" lon="10.460683859789333"><ele>643.0</ele><time>2026-04-12T10:02:20Z</time></trkpt><trkpt lat="44.54462897326819" lon="10.460775724336015"><ele>642.5</ele><time>2026-04-12T10:02:21Z</time></trkpt><trkpt lat="44.54466778298487" lon="10.460876993303525"><ele>642.0</ele><time>2026-04-12T10:02:23Z</time></trkpt><trkpt lat="44.54470126495964" lon="10.460999014500057"><ele>641.5</ele><time>2026-04-12T10:02:26Z</time></trkpt><trkpt lat="44.544738351578474" lon="10.461135482839492"><ele>641.0</ele><time>2026-04-12T10:02:28Z</time></trkpt><trkpt lat="44.54477904539037" lon="10.461285224572894"><ele>641.0</ele><time>2026-04-12T10:02:31Z</time></trkpt><trkpt lat="44.544523188539614" lon="10.461184922957028"><ele>641.0</ele><time>2026-04-12T10:02:33Z</time></trkpt><trkpt lat="44.54449085308534" lon="10.461271685891717"><ele>641.0</ele><time>2026-04-12T10:02:34Z</time></trkpt><trkpt lat="44.54444889990369" lon="10.461383432931854"><ele>641.0</ele><time>2026-04-12T10:02:35Z</time></trkpt><trkpt lat="44.544405555038935" lon="10.461506283497313"><ele>641.25</ele><time>2026-04-12T10:02:36Z</time></trkpt><trkpt lat="44.544352478941605" lon="10.461656720456896"><ele>641.5</ele><time>2026-04-12T10:02:37Z</time></trkpt><trkpt lat="44.54430260921946" lon="10.461809397666233"><ele>641.75</ele><time>2026-04-12T10:02:38Z</time></trkpt><trkpt lat="44.54426581927104" lon="10.461940384379982"><ele>642.0</ele><time>2026-04-12T10:02:39Z</time></trkpt><trkpt lat="44.54423140056171" lon="10.462140531874658"><ele>642.0</ele><time>2026-04-12T10:02:40Z</time></trkpt><trkpt lat="44.5442170777578" lon="10.46224115917627"><ele>642.0</ele><time>2026-04-12T10:02:42Z</time></trkpt><trkpt lat="44.54469100764131" lon="10.4629481539128"><ele>649.0</ele><time>2026-04-12T10:02:48Z</time></trkpt><trkpt lat="44.54468055751857" lon="10.463066734424052"><ele>656.0</ele><time>2026-04-12T10:02:49Z</time></trkpt><trkpt lat="44.544728125291265" lon="10.463220188493253"><ele>663.0</ele><time>2026-04-12T10:02:51Z</time></trkpt><trkpt lat="44.54479407448527" lon="10.463320988119142"><ele>670.0</ele><time>2026-04-12T10:02:52Z</time></trkpt><trkpt lat="44.54485499085629" lon="10.463446698801823"><ele>677.0</ele><time>2026-04-12T10:02:53Z</time></trkpt><trkpt lat="44.54490277531053" lon="10.463572589747884"><ele>677.0</ele><time>2026-04-12T10:02:54Z</time></trkpt><trkpt lat="44.54496840865069" lon="10.46366850774594"><ele>677.0</ele><time>2026-04-12T10:02:55Z</time></trkpt><trkpt lat="44.54497228814322" lon="10.463772199982875"><ele>677.0</ele><time>2026-04-12T10:02:56Z</time></trkpt><trkpt lat="44.54501301682938" lon="10.463857720557884"><ele>677.0</ele><time>2026-04-12T10:02:57Z</time></trkpt><trkpt lat="44.5449536307764" lon="10.463923825387123"><ele>677.0</ele><time>2026-04-12T10:02:59Z</time></trkpt><trkpt lat="44.54494141724744" lon="10.464133492712032"><ele>676.8</ele><time>2026-04-12T10:03:01Z</time></trkpt><trkpt lat="44.54494408591247" lon="10.464242999790953"><ele>676.6</ele><time>2026-04-12T10:03:02Z</time></trkpt><trkpt lat="44.544950555429544" lon="10.46440819072239"><ele>676.4</ele><time>2026-04-12T10:03:03Z</time></trkpt><trkpt lat="44.54493767570363" lon="10.46453318595673"><ele>676.1999999999999</ele><time>2026-04-12T10:03:04Z</time></trkpt><trkpt lat="44.5449287555475" lon="10.464640101448152"><ele>676.0</ele><time>2026-04-12T10:03:05Z</time></trkpt><trkpt lat="44.54488666003446" lon="10.464787081502367"><ele>677.3333333333334</ele><time>2026-04-12T10:03:07Z</time></trkpt><trkpt lat="44.54488015188482" lon="10.464930181253951"><ele>678.6666666666667</ele><time>2026-04-12T10:03:09Z</time></trkpt><trkpt lat="44.544916441026196" lon="10.46501003182223"><ele>680.0</ele><time>2026-04-12T10:03:10Z</time></trkpt><trkpt lat="44.544925131419475" lon="10.465097706828614"><ele>681.3333333333334</ele><time>2026-04-12T10:03:11Z</time></trkpt><trkpt lat="44.54490161790326" lon="10.465192712657652"><ele>682.6666666666666</ele><time>2026-04-12T10:03:12Z</time></trkpt><trkpt lat="44.54490586300921" lon="10.465302101092751"><ele>684.0</ele><time>2026-04-12T10:03:13Z</time></trkpt><trkpt lat="44.54490520633749" lon="10.46541393621554"><ele>684.8333333333334</ele><time>2026-04-12T10:03:14Z</time></trkpt><trkpt lat="44.5448859402895" lon="10.465512394184406"><ele>685.6666666666666</ele><time>2026-04-12T10:03:15Z</time></trkpt><trkpt lat="44.544832739927934" lon="10.465562938533035"><ele>686.5</ele><time>2026-04-12T10:03:16Z</time></trkpt><trkpt lat="44.54479053932029" lon="10.465692604368144"><ele>687.3333333333333</ele><time>2026-04-12T10:03:18Z</time></trkpt><trkpt lat="44.54477320054927" lon="10.465778800491236"><ele>688.1666666666666</ele><time>2026-04-12T10:03:19Z</time></trkpt><trkpt lat="44.54475268860365" lon="10.465873976770638"><ele>689.0</ele><time>2026-04-12T10:03:20Z</time></trkpt><trkpt lat="44.54473359132108" lon="10.465979959813211"><ele>689.0</ele><time>2026-04-12T10:03:21Z</time></trkpt><trkpt lat="44.54471335568702" lon="10.466087511480115"><ele>689.0</ele><time>2026-04-12T10:03:22Z</time></trkpt><trkpt lat="44.54464668765731" lon="10.466217345013096"><ele>689.0</ele><time>2026-04-12T10:03:24Z</time></trkpt><trkpt lat="44.54457516055194" lon="10.466326022888312"><ele>689.0</ele><time>2026-04-12T10:03:26Z</time></trkpt><trkpt lat="44.544640371297874" lon="10.466337979566765"><ele>689.0</ele><time>2026-04-12T10:03:36Z</time></trkpt><trkpt lat="44.544725010907484" lon="10.46634940608101"><ele>689.0</ele><time>2026-04-12T10:03:40Z</time></trkpt><trkpt lat="44.54478887360817" lon="10.466257197821644"><ele>689.0</ele><time>2026-04-12T10:03:43Z</time></trkpt><trkpt lat="44.54486512994616" lon="10.466186481369999"><ele>689.0</ele><time>2026-04-12T10:03:46Z</time></trkpt><trkpt lat="44.54490455857096" lon="10.466098566192935"><ele>689.0</ele><time>2026-04-12T10:03:48Z</time></trkpt><trkpt lat="44.544966310799396" lon="10.466060530279902"><ele>689.0</ele><time>2026-04-12T10:03:50Z</time></trkpt><trkpt lat="44.54500914861617" lon="10.465994621040924"><ele>689.0</ele><time>2026-04-12T10:03:52Z</time></trkpt><trkpt lat="44.54506062537035" lon="10.465904557057396"><ele>689.0</ele><time>2026-04-12T10:03:54Z</time></trkpt><trkpt lat="44.545119974893666" lon="10.46579069884683"><ele>689.0</ele><time>2026-04-12T10:03:56Z</time></trkpt><trkpt lat="44.54516241834713" lon="10.465712852146408"><ele>689.0</ele><time>2026-04-12T10:03:58Z</time></trkpt><trkpt lat="44.545200477095584" lon="10.46562388289189"><ele>689.0</ele><time>2026-04-12T10:04:01Z</time></trkpt><trkpt lat="44.54522941644811" lon="10.465481712447493"><ele>689.0</ele><time>2026-04-12T10:04:03Z</time></trkpt><trkpt lat="44.545269096074215" lon="10.46536595820303"><ele>689.0</ele><time>2026-04-12T10:04:04Z</time></trkpt><trkpt lat="44.54532652811035" lon="10.465169950228775"><ele>688.0</ele><time>2026-04-12T10:04:06Z</time></trkpt><trkpt lat="44.54535237370326" lon="10.465084560015054"><ele>687.0</ele><time>2026-04-12T10:04:07Z</time></trkpt><trkpt lat="44.545388664294656" lon="10.464957861282947"><ele>686.0</ele><time>2026-04-12T10:04:09Z</time></trkpt><trkpt lat="44.54554494472421" lon="10.46489047397741"><ele>685.0</ele><time>2026-04-12T10:04:22Z</time></trkpt><trkpt lat="44.54555348561769" lon="10.464794986845853"><ele>684.0</ele><time>2026-04-12T10:04:50Z</time></trkpt><trkpt lat="44.54559901687705" lon="10.464707372896179"><ele>687.3333333333334</ele><time>2026-04-12T10:04:53Z</time></trkpt><trkpt lat="44.54562317407696" lon="10.464603115634098"><ele>690.6666666666666</ele><time>2026-04-12T10:04:55Z</time></trkpt><trkpt lat="44.54565208576944" lon="10.464524522415035"><ele>694.0</ele><time>2026-04-12T10:04:56Z</time></trkpt><trkpt lat="44.54568566137468" lon="10.464423250514795"><ele>697.3333333333333</ele><time>2026-04-12T10:04:57Z</time></trkpt><trkpt lat="44.54574232081143" lon="10.464269219548768"><ele>700.6666666666666</ele><time>2026-04-12T10:04:58Z</time></trkpt><trkpt lat="44.545771977495804" lon="10.46415303187223"><ele>704.0</ele><time>2026-04-12T10:04:59Z</time></trkpt><trkpt lat="44.545794866082424" lon="10.464064703946711"><ele>704.0</ele><time>2026-04-12T10:05:00Z</time></trkpt><trkpt lat="44.54577768237575" lon="10.463856059794246"><ele>704.0</ele><time>2026-04-12T10:05:02Z</time></trkpt><trkpt lat="44.54578479490765" lon="10.463732547227766"><ele>704.0</ele><time>2026-04-12T10:05:03Z</time></trkpt><trkpt lat="44.54578751640586" lon="10.463596696278701"><ele>704.0</ele><time>2026-04-12T10:05:05Z</time></trkpt><trkpt lat="44.545806006247176" lon="10.463504370046673"><ele>704.0</ele><time>2026-04-12T10:05:07Z</time></trkpt><trkpt lat="44.54579568993595" lon="10.463390185248826"><ele>704.4285714285714</ele><time>2026-04-12T10:05:09Z</time></trkpt><trkpt lat="44.5458054854237" lon="10.463278486203537"><ele>704.8571428571429</ele><time>2026-04-12T10:05:11Z</time></trkpt><trkpt lat="44.54582943573225" lon="10.46318355104144"><ele>705.2857142857142</ele><time>2026-04-12T10:05:15Z</time></trkpt><trkpt lat="44.545876545142015" lon="10.463114096785368"><ele>705.7142857142858</ele><time>2026-04-12T10:05:18Z</time></trkpt><trkpt lat="44.54591991342174" lon="10.46302068281526"><ele>706.1428571428571</ele><time>2026-04-12T10:05:21Z</time></trkpt><trkpt lat="44.545894203180815" lon="10.462914251494524"><ele>706.5714285714286</ele><time>2026-04-12T10:05:25Z</time></trkpt><trkpt lat="44.545921201725086" lon="10.462831905596964"><ele>707.0</ele><time>2026-04-12T10:05:27Z</time></trkpt><trkpt lat="44.54598056157766" lon="10.462768994051691"><ele>707.0</ele><time>2026-04-12T10:05:29Z</time></trkpt><trkpt lat="44.54604187112776" lon="10.462740704711743"><ele>707.0</ele><time>2026-04-12T10:05:31Z</time></trkpt><trkpt lat="44.546109409996234" lon="10.462678999613086"><ele>707.0</ele><time>2026-04-12T10:05:35Z</time></trkpt><trkpt lat="44.54617323254587" lon="10.462617814785851"><ele>707.0</ele><time>2026-04-12T10:05:39Z</time></trkpt><trkpt lat="44.54625663116625" lon="10.462586199647498"><ele>707.0</ele><time>2026-04-12T10:05:42Z</time></trkpt><trkpt lat="44.546319395926254" lon="10.462543659425563"><ele>707.0</ele><time>2026-04-12T10:05:46Z</time></trkpt><trkpt lat="44.5464005651381" lon="10.462503898260678"><ele>706.0</ele><time>2026-04-12T10:05:50Z</time></trkpt><trkpt lat="44.54648300973096" lon="10.462440842192247"><ele>705.0</ele><time>2026-04-12T10:05:53Z</time></trkpt><trkpt lat="44.54655230868833" lon="10.462388520972493"><ele>704.0</ele><time>2026-04-12T10:05:57Z</time></trkpt><trkpt lat="44.54663319614671" lon="10.462333428410648"><ele>703.0</ele><time>2026-04-12T10:06:00Z</time></trkpt><trkpt lat="44.54669699083785" lon="10.462291040114586"><ele>702.0</ele><time>2026-04-12T10:06:01Z</time></trkpt><trkpt lat="44.54678031199646" lon="10.462194520322091"><ele>701.0</ele><time>2026-04-12T10:06:03Z</time></trkpt><trkpt lat="44.5468621098635" lon="10.462136001027176"><ele>698.8</ele><time>2026-04-12T10:06:05Z</time></trkpt><trkpt lat="44.54692883783003" lon="10.462100629821608"><ele>696.5999999999999</ele><time>2026-04-12T10:06:08Z</time></trkpt><trkpt lat="44.5469827286939" lon="10.462043155266965"><ele>694.4</ele><time>2026-04-12T10:06:19Z</time></trkpt><trkpt lat="44.54705735342977" lon="10.462002620476808"><ele>692.2</ele><time>2026-04-12T10:06:22Z</time></trkpt><trkpt lat="44.54718707363863" lon="10.461918923375045"><ele>690.0</ele><time>2026-04-12T10:06:25Z</time></trkpt><trkpt lat="44.54727908822592" lon="10.461847413723534"><ele>694.3333333333334</ele><time>2026-04-12T10:06:27Z</time></trkpt><trkpt lat="44.54733298066135" lon="10.461763633601128"><ele>698.6666666666666</ele><time>2026-04-12T10:06:29Z</time></trkpt><trkpt lat="44.547392106328694" lon="10.46170955192222"><ele>703.0</ele><time>2026-04-12T10:06:31Z</time></trkpt><trkpt lat="44.54745946855522" lon="10.461629723661982"><ele>707.3333333333333</ele><time>2026-04-12T10:06:36Z</time></trkpt><trkpt lat="44.547504220719276" lon="10.461529663282105"><ele>711.6666666666666</ele><time>2026-04-12T10:06:40Z</time></trkpt><trkpt lat="44.54753778147403" lon="10.461404900149613"><ele>716.0</ele><time>2026-04-12T10:06:43Z</time></trkpt><trkpt lat="44.54757298765088" lon="10.461328679972342"><ele>716.25</ele><time>2026-04-12T10:07:27Z</time></trkpt><trkpt lat="44.54764767183158" lon="10.461065274006515"><ele>716.5</ele><time>2026-04-12T10:07:52Z</time></trkpt><trkpt lat="44.5477338310632" lon="10.4609629436623"><ele>716.75</ele><time>2026-04-12T10:07:54Z</time></trkpt><trkpt lat="44.547802475717724" lon="10.460891565953213"><ele>717.0</ele><time>2026-04-12T10:07:56Z</time></trkpt><trkpt lat="44.54785996564137" lon="10.460849872041306"><ele>717.1666666666666</ele><time>2026-04-12T10:07:58Z</time></trkpt><trkpt lat="44.547914444066016" lon="10.460713393104806"><ele>717.3333333333334</ele><time>2026-04-12T10:08:00Z</time></trkpt><trkpt lat="44.54796160750118" lon="10.46060052666897"><ele>717.5</ele><time>2026-04-12T10:08:02Z</time></trkpt><trkpt lat="44.54800122582373" lon="10.46050523527303"><ele>717.6666666666667</ele><time>2026-04-12T10:08:04Z</time></trkpt><trkpt lat="44.54799827808166" lon="10.460416945757238"><ele>717.8333333333334</ele><time>2026-04-12T10:08:10Z</time></trkpt><trkpt lat="44.54802411486431" lon="10.460320187766673"><ele>718.0</ele><time>2026-04-12T10:08:15Z</time></trkpt><trkpt lat="44.54805279340062" lon="10.460231729646686"><ele>718.0</ele><time>2026-04-12T10:08:40Z</time></trkpt><trkpt lat="44.5480855754035" lon="10.46014082200576"><ele>718.0</ele><time>2026-04-12T10:08:44Z</time></trkpt><trkpt lat="44.54806554265257" lon="10.460049034955773"><ele>718.0</ele><time>2026-04-12T10:08:48Z</time></trkpt><trkpt lat="44.54797777509205" lon="10.460001498502077"><ele>718.0</ele><time>2026-04-12T10:08:52Z</time></trkpt><trkpt lat="44.54789147642526" lon="10.459964311315018"><ele>718.0</ele><time>2026-04-12T10:08:55Z</time></trkpt><trkpt lat="44.54780370928882" lon="10.459933307510088"><ele>718.0</ele><time>2026-04-12T10:08:58Z</time></trkpt><trkpt lat="44.547740993124556" lon="10.459891547141256"><ele>715.5</ele><time>2026-04-12T10:09:01Z</time></trkpt><trkpt lat="44.54775139221196" lon="10.459765925624692"><ele>713.0</ele><time>2026-04-12T10:09:04Z</time></trkpt><trkpt lat="44.5477925420002" lon="10.459670425096943"><ele>710.5</ele><time>2026-04-12T10:09:07Z</time></trkpt><trkpt lat="44.54786161741095" lon="10.459598082110416"><ele>708.0</ele><time>2026-04-12T10:09:12Z</time></trkpt><trkpt lat="44.54792333299318" lon="10.459578204753033"><ele>705.5</ele><time>2026-04-12T10:09:14Z</time></trkpt><trkpt lat="44.54800015873082" lon="10.459513131666293"><ele>703.0</ele><time>2026-04-12T10:09:18Z</time></trkpt><trkpt lat="44.548064650038455" lon="10.459499707012785"><ele>701.0</ele><time>2026-04-12T10:09:20Z</time></trkpt><trkpt lat="44.54813481813542" lon="10.459471565720627"><ele>699.0</ele><time>2026-04-12T10:09:24Z</time></trkpt><trkpt lat="44.54819363482031" lon="10.459422000597831"><ele>697.0</ele><time>2026-04-12T10:09:26Z</time></trkpt><trkpt lat="44.548275631540456" lon="10.459311372280027"><ele>695.0</ele><time>2026-04-12T10:09:28Z</time></trkpt><trkpt lat="44.54836732018989" lon="10.459259792472807"><ele>693.0</ele><time>2026-04-12T10:09:31Z</time></trkpt><trkpt lat="44.54853974500384" lon="10.459255324274439"><ele>693.0</ele><time>2026-04-12T10:09:36Z</time></trkpt><trkpt lat="44.54862407984611" lon="10.45922089147715"><ele>693.0</ele><time>2026-04-12T10:09:38Z</time></trkpt><trkpt lat="44.54866165084799" lon="10.459496529551352"><ele>693.0</ele><time>2026-04-12T10:09:44Z</time></trkpt><trkpt lat="44.54869501081316" lon="10.459637810911426"><ele>693.0</ele><time>2026-04-12T10:09:45Z</time></trkpt><trkpt lat="44.548737152119635" lon="10.459801384997071"><ele>692.4</ele><time>2026-04-12T10:09:46Z</time></trkpt><trkpt lat="44.54879928544768" lon="10.45989789225439"><ele>691.8</ele><time>2026-04-12T10:09:47Z</time></trkpt><trkpt lat="44.54886680965745" lon="10.45997728800405"><ele>691.2</ele><time>2026-04-12T10:09:48Z</time></trkpt><trkpt lat="44.54893098616951" lon="10.460045171446701"><ele>690.6</ele><time>2026-04-12T10:09:49Z</time></trkpt><trkpt lat="44.54894481598478" lon="10.460164214392648"><ele>690.0</ele><time>2026-04-12T10:09:50Z</time></trkpt><trkpt lat="44.54904601527919" lon="10.460270990232559"><ele>690.0</ele><time>2026-04-12T10:09:51Z</time></trkpt><trkpt lat="44.54912653496548" lon="10.460391313390836"><ele>690.0</ele><time>2026-04-12T10:09:52Z</time></trkpt><trkpt lat="44.5491850807945" lon="10.460474925227244"><ele>690.0</ele><time>2026-04-12T10:09:53Z</time></trkpt><trkpt lat="44.549257804471566" lon="10.460558340420269"><ele>690.0</ele><time>2026-04-12T10:09:54Z</time></trkpt><trkpt lat="44.54935894479723" lon="10.460584158649345"><ele>690.0</ele><time>2026-04-12T10:09:56Z</time></trkpt><trkpt lat="44.54946285602486" lon="10.460607714723352"><ele>682.8</ele><time>2026-04-12T10:09:58Z</time></trkpt><trkpt lat="44.549543459064544" lon="10.460611181993137"><ele>675.6</ele><time>2026-04-12T10:10:00Z</time></trkpt><trkpt lat="44.54969376147775" lon="10.460612932863654"><ele>668.4000000000001</ele><time>2026-04-12T10:10:03Z</time></trkpt><trkpt lat="44.54977571410661" lon="10.460611532709054"><ele>661.2</ele><time>2026-04-12T10:10:04Z</time></trkpt><trkpt lat="44.549854085641826" lon="10.460612112184172"><ele>654.0</ele><time>2026-04-12T10:10:05Z</time></trkpt><trkpt lat="44.54993491419429" lon="10.460637600189468"><ele>654.0</ele><time>2026-04-12T10:10:06Z</time></trkpt><trkpt lat="44.55000929322389" lon="10.460675850024892"><ele>654.0</ele><time>2026-04-12T10:10:07Z</time></trkpt><trkpt lat="44.55007065604641" lon="10.460713185977042"><ele>654.0</ele><time>2026-04-12T10:10:08Z</time></trkpt><trkpt lat="44.550145291905366" lon="10.460725589716178"><ele>654.0</ele><time>2026-04-12T10:10:09Z</time></trkpt><trkpt lat="44.55024368806358" lon="10.460686816096759"><ele>654.0</ele><time>2026-04-12T10:10:10Z</time></trkpt><trkpt lat="44.550368087287445" lon="10.460637755504406"><ele>649.2</ele><time>2026-04-12T10:10:11Z</time></trkpt><trkpt lat="44.55047060688263" lon="10.460588573919406"><ele>644.4000000000001</ele><time>2026-04-12T10:10:12Z</time></trkpt><trkpt lat="44.5505644527682" lon="10.460575462609041"><ele>639.6</ele><time>2026-04-12T10:10:13Z</time></trkpt><trkpt lat="44.55066116529317" lon="10.460575666071383"><ele>634.8</ele><time>2026-04-12T10:10:14Z</time></trkpt><trkpt lat="44.550743564232135" lon="10.460575943026521"><ele>630.0</ele><time>2026-04-12T10:10:15Z</time></trkpt><trkpt lat="44.55081697363981" lon="10.460559819603757"><ele>630.0</ele><time>2026-04-12T10:10:16Z</time></trkpt><trkpt lat="44.55088290968236" lon="10.460576606406327"><ele>630.0</ele><time>2026-04-12T10:10:17Z</time></trkpt><trkpt lat="44.55094158002008" lon="10.460611469335403"><ele>630.0</ele><time>2026-04-12T10:10:18Z</time></trkpt><trkpt lat="44.55104369386597" lon="10.460629485944505"><ele>630.0</ele><time>2026-04-12T10:10:20Z</time></trkpt><trkpt lat="44.5511365253285" lon="10.460625385801208"><ele>630.0</ele><time>2026-04-12T10:10:22Z</time></trkpt><trkpt lat="44.5512164753311" lon="10.46063010413226"><ele>630.0</ele><time>2026-04-12T10:10:23Z</time></trkpt><trkpt lat="44.55128132713855" lon="10.460637732662066"><ele>629.3333333333334</ele><time>2026-04-12T10:10:24Z</time></trkpt><trkpt lat="44.551345667622044" lon="10.460670789176469"><ele>628.6666666666666</ele><time>2026-04-12T10:10:25Z</time></trkpt><trkpt lat="44.551462995207956" lon="10.460669396561846"><ele>628.0</ele><time>2026-04-12T10:10:27Z</time></trkpt><trkpt lat="44.551499570663324" lon="10.46059462750432"><ele>627.3333333333333</ele><time>2026-04-12T10:10:37Z</time></trkpt><trkpt lat="44.551582460223116" lon="10.460517211153524"><ele>626.6666666666666</ele><time>2026-04-12T10:10:39Z</time></trkpt><trkpt lat="44.55163510064888" lon="10.460442619219249"><ele>626.0</ele><time>2026-04-12T10:10:40Z</time></trkpt><trkpt lat="44.55168583787211" lon="10.460385937713452"><ele>625.1666666666666</ele><time>2026-04-12T10:10:41Z</time></trkpt><trkpt lat="44.551753684860415" lon="10.46032948497544"><ele>624.3333333333333</ele><time>2026-04-12T10:10:42Z</time></trkpt><trkpt lat="44.55181625747457" lon="10.460302361707278"><ele>623.5</ele><time>2026-04-12T10:10:43Z</time></trkpt><trkpt lat="44.551911590199744" lon="10.460246237163833"><ele>622.6666666666666</ele><time>2026-04-12T10:10:45Z</time></trkpt><trkpt lat="44.551994382458965" lon="10.460222770170002"><ele>621.8333333333334</ele><time>2026-04-12T10:10:47Z</time></trkpt><trkpt lat="44.55209190002513" lon="10.460206390189738"><ele>621.0</ele><time>2026-04-12T10:10:49Z</time></trkpt><trkpt lat="44.552130544122186" lon="10.460126593358185"><ele>616.0</ele><time>2026-04-12T10:10:52Z</time></trkpt><trkpt lat="44.55231537898779" lon="10.459802221586699"><ele>611.0</ele><time>2026-04-12T10:10:55Z</time></trkpt><trkpt lat="44.55237026153991" lon="10.459747828606249"><ele>606.0</ele><time>2026-04-12T10:10:56Z</time></trkpt><trkpt lat="44.55244281819278" lon="10.459676533344165"><ele>606.0</ele><time>2026-04-12T10:10:58Z</time></trkpt><trkpt lat="44.552511004316734" lon="10.45965495344821"><ele>606.0</ele><time>2026-04-12T10:11:00Z</time></trkpt><trkpt lat="44.55258747344396" lon="10.45958758986807"><ele>606.0</ele><time>2026-04-12T10:11:02Z</time></trkpt><trkpt lat="44.55267250747707" lon="10.4594468812757"><ele>606.0</ele><time>2026-04-12T10:11:04Z</time></trkpt><trkpt lat="44.5527451411195" lon="10.459349687538147"><ele>606.0</ele><time>2026-04-12T10:11:05Z</time></trkpt><trkpt lat="44.5528041512896" lon="10.459257108154208"><ele>604.75</ele><time>2026-04-12T10:11:06Z</time></trkpt><trkpt lat="44.552885488320825" lon="10.459139042807575"><ele>603.5</ele><time>2026-04-12T10:11:07Z</time></trkpt><trkpt lat="44.55298209664368" lon="10.45900990620969"><ele>602.25</ele><time>2026-04-12T10:11:08Z</time></trkpt><trkpt lat="44.55312221628277" lon="10.458882436744934"><ele>601.0</ele><time>2026-04-12T10:11:09Z</time></trkpt><trkpt lat="44.55325345749842" lon="10.458771432510412"><ele>598.6666666666667</ele><time>2026-04-12T10:11:10Z</time></trkpt><trkpt lat="44.55338870130983" lon="10.458661248090511"><ele>596.3333333333334</ele><time>2026-04-12T10:11:11Z</time></trkpt><trkpt lat="44.5535404831579" lon="10.458537585193792"><ele>594.0</ele><time>2026-04-12T10:11:12Z</time></trkpt><trkpt lat="44.553699451806" lon="10.458408389855654"><ele>594.0</ele><time>2026-04-12T10:11:13Z</time></trkpt><trkpt lat="44.55392551867852" lon="10.45822473389332"><ele>594.0</ele><time>2026-04-12T10:11:14Z</time></trkpt><trkpt lat="44.554237259226014" lon="10.457969109647735"><ele>591.5</ele><time>2026-04-12T10:11:15Z</time></trkpt><trkpt lat="44.55448681973893" lon="10.457763238377808"><ele>589.0</ele><time>2026-04-12T10:11:16Z</time></trkpt><trkpt lat="44.554719119738806" lon="10.457555098455694"><ele>589.0</ele><time>2026-04-12T10:11:17Z</time></trkpt><trkpt lat="44.55491758504845" lon="10.457394183477861"><ele>589.0</ele><time>2026-04-12T10:11:18Z</time></trkpt><trkpt lat="44.55509772217886" lon="10.45727127339876"><ele>589.0</ele><time>2026-04-12T10:11:19Z</time></trkpt><trkpt lat="44.55522515483099" lon="10.45714993546618"><ele>588.5</ele><time>2026-04-12T10:11:20Z</time></trkpt><trkpt lat="44.55534848343625" lon="10.456996983927755"><ele>588.0</ele><time>2026-04-12T10:11:21Z</time></trkpt><trkpt lat="44.55542525902532" lon="10.456878080948515"><ele>587.5</ele><time>2026-04-12T10:11:22Z</time></trkpt><trkpt lat="44.55550238622605" lon="10.456722190471819"><ele>587.0</ele><time>2026-04-12T10:11:23Z</time></trkpt><trkpt lat="44.55557278362503" lon="10.456571643466363"><ele>587.0</ele><time>2026-04-12T10:11:24Z</time></trkpt><trkpt lat="44.55564096797401" lon="10.456442802434598"><ele>587.0</ele><time>2026-04-12T10:11:25Z</time></trkpt><trkpt lat="44.55571216280598" lon="10.456320632193531"><ele>587.0</ele><time>2026-04-12T10:11:26Z</time></trkpt><trkpt lat="44.555788949535604" lon="10.456208330290849"><ele>587.0</ele><time>2026-04-12T10:11:27Z</time></trkpt><trkpt lat="44.55588966343959" lon="10.456129746389738"><ele>586.2</ele><time>2026-04-12T10:11:28Z</time></trkpt><trkpt lat="44.55598579144083" lon="10.456053776213826"><ele>585.4000000000001</ele><time>2026-04-12T10:11:29Z</time></trkpt><trkpt lat="44.55606935398161" lon="10.455990631776933"><ele>584.5999999999999</ele><time>2026-04-12T10:11:30Z</time></trkpt><trkpt lat="44.55615194823528" lon="10.45592328712844"><ele>583.8</ele><time>2026-04-12T10:11:31Z</time></trkpt><trkpt lat="44.556244759781734" lon="10.455842203941366"><ele>583.0</ele><time>2026-04-12T10:11:32Z</time></trkpt><trkpt lat="44.55633511552682" lon="10.455762144555157"><ele>582.75</ele><time>2026-04-12T10:11:33Z</time></trkpt><trkpt lat="44.556427267663004" lon="10.455656628905917"><ele>582.5</ele><time>2026-04-12T10:11:34Z</time></trkpt><trkpt lat="44.5565353289791" lon="10.455563911497922"><ele>582.25</ele><time>2026-04-12T10:11:35Z</time></trkpt><trkpt lat="44.55665105428388" lon="10.455494142717384"><ele>582.0</ele><time>2026-04-12T10:11:36Z</time></trkpt><trkpt lat="44.55674586942336" lon="10.455421204739435"><ele>582.75</ele><time>2026-04-12T10:11:37Z</time></trkpt><trkpt lat="44.55683790390983" lon="10.455352626844236"><ele>583.5</ele><time>2026-04-12T10:11:38Z</time></trkpt><trkpt lat="44.5569226112334" lon="10.455274242346585"><ele>584.25</ele><time>2026-04-12T10:11:39Z</time></trkpt><trkpt lat="44.55703207414213" lon="10.455223852726148"><ele>585.0</ele><time>2026-04-12T10:11:40Z</time></trkpt><trkpt lat="44.55715698862192" lon="10.45516069403143"><ele>585.0</ele><time>2026-04-12T10:11:41Z</time></trkpt><trkpt lat="44.55728571075229" lon="10.455103259150974"><ele>585.0</ele><time>2026-04-12T10:11:42Z</time></trkpt><trkpt lat="44.55742339437955" lon="10.455094202839787"><ele>585.0</ele><time>2026-04-12T10:11:43Z</time></trkpt><trkpt lat="44.55756292378768" lon="10.455047238273107"><ele>585.0</ele><time>2026-04-12T10:11:44Z</time></trkpt><trkpt lat="44.55769162003894" lon="10.454964190794575"><ele>585.0</ele><time>2026-04-12T10:11:45Z</time></trkpt><trkpt lat="44.55782764568808" lon="10.454887772696516"><ele>585.0</ele><time>2026-04-12T10:11:46Z</time></trkpt><trkpt lat="44.55794486894585" lon="10.454799149812187"><ele>585.0</ele><time>2026-04-12T10:11:47Z</time></trkpt><trkpt lat="44.558032736701584" lon="10.454703777981726"><ele>585.0</ele><time>2026-04-12T10:11:48Z</time></trkpt><trkpt lat="44.558118512498226" lon="10.454613186533884"><ele>584.0</ele><time>2026-04-12T10:11:49Z</time></trkpt><trkpt lat="44.5581932228184" lon="10.45456292727723"><ele>583.0</ele><time>2026-04-12T10:11:50Z</time></trkpt><trkpt lat="44.55825758691758" lon="10.454497933122642"><ele>582.0</ele><time>2026-04-12T10:11:51Z</time></trkpt><trkpt lat="44.55830215935566" lon="10.454432991105765"><ele>581.0</ele><time>2026-04-12T10:11:52Z</time></trkpt><trkpt lat="44.5584056517608" lon="10.454362874417004"><ele>580.0</ele><time>2026-04-12T10:11:54Z</time></trkpt><trkpt lat="44.558543363333044" lon="10.454397681387585"><ele>580.0</ele><time>2026-04-12T10:11:56Z</time></trkpt><trkpt lat="44.55861559704373" lon="10.45438149345692"><ele>580.0</ele><time>2026-04-12T10:11:57Z</time></trkpt><trkpt lat="44.558727881371944" lon="10.454358294740222"><ele>580.0</ele><time>2026-04-12T10:11:59Z</time></trkpt><trkpt lat="44.55880236530352" lon="10.454330702771902"><ele>580.0</ele><time>2026-04-12T10:12:00Z</time></trkpt><trkpt lat="44.55886976968151" lon="10.454292879690277"><ele>580.0</ele><time>2026-04-12T10:12:01Z</time></trkpt><trkpt lat="44.55897318557769" lon="10.454212122136973"><ele>581.0</ele><time>2026-04-12T10:12:03Z</time></trkpt><trkpt lat="44.559029891785855" lon="10.454146529218132"><ele>582.0</ele><time>2026-04-12T10:12:04Z</time></trkpt><trkpt lat="44.55908367799953" lon="10.454076925338224"><ele>583.0</ele><time>2026-04-12T10:12:05Z</time></trkpt><trkpt lat="44.55913868286608" lon="10.454015768216298"><ele>584.0</ele><time>2026-04-12T10:12:06Z</time></trkpt><trkpt lat="44.55919358128494" lon="10.453964654345148"><ele>585.0</ele><time>2026-04-12T10:12:07Z</time></trkpt><trkpt lat="44.559269843321424" lon="10.45386435876035"><ele>586.0</ele><time>2026-04-12T10:12:09Z</time></trkpt><trkpt lat="44.55934895252699" lon="10.453790833756615"><ele>585.3333333333334</ele><time>2026-04-12T10:12:11Z</time></trkpt><trkpt lat="44.559442078810655" lon="10.453678095877075"><ele>584.6666666666667</ele><time>2026-04-12T10:12:13Z</time></trkpt><trkpt lat="44.559477006458934" lon="10.453596783767356"><ele>584.0</ele><time>2026-04-12T10:12:14Z</time></trkpt><trkpt lat="44.55952580203627" lon="10.453532755815365"><ele>583.3333333333334</ele><time>2026-04-12T10:12:15Z</time></trkpt><trkpt lat="44.55957999134452" lon="10.453472810352393"><ele>582.6666666666666</ele><time>2026-04-12T10:12:16Z</time></trkpt><trkpt lat="44.55962431668657" lon="10.453407532430553"><ele>582.0</ele><time>2026-04-12T10:12:17Z</time></trkpt><trkpt lat="44.55966651507728" lon="10.453338057708883"><ele>585.4</ele><time>2026-04-12T10:12:18Z</time></trkpt><trkpt lat="44.55975419267908" lon="10.453192743048431"><ele>588.8000000000001</ele><time>2026-04-12T10:12:20Z</time></trkpt><trkpt lat="44.55981028153711" lon="10.453141162277358"><ele>592.2</ele><time>2026-04-12T10:12:21Z</time></trkpt><trkpt lat="44.55989474751786" lon="10.453032623999288"><ele>595.6</ele><time>2026-04-12T10:12:23Z</time></trkpt><trkpt lat="44.55999937032647" lon="10.453038982179244"><ele>599.0</ele><time>2026-04-12T10:12:25Z</time></trkpt><trkpt lat="44.56008966450345" lon="10.453085690457474"><ele>599.0</ele><time>2026-04-12T10:12:27Z</time></trkpt><trkpt lat="44.560173956796895" lon="10.453154048789006"><ele>599.0</ele><time>2026-04-12T10:12:29Z</time></trkpt><trkpt lat="44.560261921959935" lon="10.453248404267873"><ele>599.0</ele><time>2026-04-12T10:12:31Z</time></trkpt><trkpt lat="44.56030838562154" lon="10.453309021224788"><ele>599.0</ele><time>2026-04-12T10:12:32Z</time></trkpt><trkpt lat="44.5603800133376" lon="10.453404949914903"><ele>599.0</ele><time>2026-04-12T10:12:34Z</time></trkpt><trkpt lat="44.56043055556039" lon="10.453525526928448"><ele>599.6</ele><time>2026-04-12T10:12:36Z</time></trkpt><trkpt lat="44.56048114661018" lon="10.453642992301043"><ele>600.2</ele><time>2026-04-12T10:12:38Z</time></trkpt><trkpt lat="44.56053724572493" lon="10.453748193559958"><ele>600.8000000000001</ele><time>2026-04-12T10:12:40Z</time></trkpt><trkpt lat="44.56059538967094" lon="10.45383436380243"><ele>601.4</ele><time>2026-04-12T10:12:42Z</time></trkpt><trkpt lat="44.56066049416894" lon="10.45387053458649"><ele>602.0</ele><time>2026-04-12T10:12:44Z</time></trkpt><trkpt lat="44.56078107092347" lon="10.453925924497455"><ele>602.0</ele><time>2026-04-12T10:12:46Z</time></trkpt><trkpt lat="44.56083099804457" lon="10.453993698723751"><ele>602.0</ele><time>2026-04-12T10:12:47Z</time></trkpt><trkpt lat="44.560900116797" lon="10.453997163952797"><ele>602.0</ele><time>2026-04-12T10:12:48Z</time></trkpt><trkpt lat="44.56096709127723" lon="10.453999683187739"><ele>602.0</ele><time>2026-04-12T10:12:49Z</time></trkpt><trkpt lat="44.56104750087249" lon="10.453999864277213"><ele>602.0</ele><time>2026-04-12T10:12:50Z</time></trkpt><trkpt lat="44.56116265166296" lon="10.454001188197246"><ele>602.0</ele><time>2026-04-12T10:12:51Z</time></trkpt><trkpt lat="44.56128871976612" lon="10.453970970887262"><ele>603.25</ele><time>2026-04-12T10:12:52Z</time></trkpt><trkpt lat="44.56143572152285" lon="10.453946004094275"><ele>604.5</ele><time>2026-04-12T10:12:53Z</time></trkpt><trkpt lat="44.561576538685124" lon="10.453933314617549"><ele>605.75</ele><time>2026-04-12T10:12:54Z</time></trkpt><trkpt lat="44.56171129205227" lon="10.453948076996367"><ele>607.0</ele><time>2026-04-12T10:12:55Z</time></trkpt><trkpt lat="44.56182889546931" lon="10.453948192013772"><ele>607.0</ele><time>2026-04-12T10:12:56Z</time></trkpt><trkpt lat="44.56196534347061" lon="10.453973521199169"><ele>607.0</ele><time>2026-04-12T10:12:57Z</time></trkpt><trkpt lat="44.5620743968353" lon="10.454007112919399"><ele>607.0</ele><time>2026-04-12T10:12:58Z</time></trkpt><trkpt lat="44.562180631999844" lon="10.454030553008169"><ele>607.0</ele><time>2026-04-12T10:12:59Z</time></trkpt><trkpt lat="44.56223350931532" lon="10.454168394820996"><ele>607.0</ele><time>2026-04-12T10:13:00Z</time></trkpt><trkpt lat="44.562269920035185" lon="10.45440333823833"><ele>607.0</ele><time>2026-04-12T10:13:06Z</time></trkpt><trkpt lat="44.5620902133633" lon="10.454156144609835"><ele>607.0</ele><time>2026-04-12T10:13:08Z</time></trkpt><trkpt lat="44.56201826276578" lon="10.45430151620111"><ele>607.0</ele><time>2026-04-12T10:13:10Z</time></trkpt><trkpt lat="44.56188134964686" lon="10.45446066964005"><ele>607.0</ele><time>2026-04-12T10:13:11Z</time></trkpt><trkpt lat="44.56170268541641" lon="10.454550313937645"><ele>607.0</ele><time>2026-04-12T10:13:13Z</time></trkpt><trkpt lat="44.561544742611474" lon="10.454703484175726"><ele>610.0</ele><time>2026-04-12T10:13:14Z</time></trkpt><trkpt lat="44.56132357348904" lon="10.45492089437292"><ele>613.0</ele><time>2026-04-12T10:13:15Z</time></trkpt><trkpt lat="44.5611893616212" lon="10.455175752716968"><ele>604.3333333333334</ele><time>2026-04-12T10:13:16Z</time></trkpt><trkpt lat="44.561112379465754" lon="10.455398759096983"><ele>595.6666666666666</ele><time>2026-04-12T10:13:17Z</time></trkpt><trkpt lat="44.56102923250448" lon="10.455632868935227"><ele>587.0</ele><time>2026-04-12T10:13:18Z</time></trkpt><trkpt lat="44.56095348133061" lon="10.455871467662297"><ele>587.0</ele><time>2026-04-12T10:13:19Z</time></trkpt><trkpt lat="44.56090937506057" lon="10.456057290714387"><ele>587.0</ele><time>2026-04-12T10:13:20Z</time></trkpt><trkpt lat="44.5608927533831" lon="10.456269662694522"><ele>587.0</ele><time>2026-04-12T10:13:21Z</time></trkpt><trkpt lat="44.56090167829398" lon="10.456463642685083"><ele>587.0</ele><time>2026-04-12T10:13:22Z</time></trkpt><trkpt lat="44.56091380453893" lon="10.456604056436632"><ele>586.0</ele><time>2026-04-12T10:13:23Z</time></trkpt><trkpt lat="44.560929629359336" lon="10.456779525821561"><ele>585.0</ele><time>2026-04-12T10:13:24Z</time></trkpt><trkpt lat="44.56094741640597" lon="10.456954934918663"><ele>584.0</ele><time>2026-04-12T10:13:25Z</time></trkpt><trkpt lat="44.560980931283204" lon="10.457110574493155"><ele>583.0</ele><time>2026-04-12T10:13:26Z</time></trkpt><trkpt lat="44.561001281598735" lon="10.45723995998128"><ele>581.7142857142858</ele><time>2026-04-12T10:13:27Z</time></trkpt><trkpt lat="44.561021213644025" lon="10.457362814695584"><ele>580.4285714285714</ele><time>2026-04-12T10:13:28Z</time></trkpt><trkpt lat="44.5610555462831" lon="10.457442435942044"><ele>579.1428571428571</ele><time>2026-04-12T10:13:29Z</time></trkpt><trkpt lat="44.561104687829115" lon="10.457518693601488"><ele>577.8571428571429</ele><time>2026-04-12T10:13:30Z</time></trkpt><trkpt lat="44.56118010610699" lon="10.457536725221924"><ele>576.5714285714286</ele><time>2026-04-12T10:13:31Z</time></trkpt><trkpt lat="44.56124694296171" lon="10.457525921048086"><ele>575.2857142857143</ele><time>2026-04-12T10:13:32Z</time></trkpt><trkpt lat="44.561312520039" lon="10.457553341739118"><ele>574.0</ele><time>2026-04-12T10:13:33Z</time></trkpt><trkpt lat="44.561430992149866" lon="10.457544573212228"><ele>578.1666666666667</ele><time>2026-04-12T10:13:35Z</time></trkpt><trkpt lat="44.561497514448305" lon="10.45754962274765"><ele>582.3333333333334</ele><time>2026-04-12T10:13:36Z</time></trkpt><trkpt lat="44.561576953437324" lon="10.457556951164497"><ele>586.5</ele><time>2026-04-12T10:13:37Z</time></trkpt><trkpt lat="44.561669874596646" lon="10.457569700399644"><ele>590.6666666666666</ele><time>2026-04-12T10:13:38Z</time></trkpt><trkpt lat="44.561759054673296" lon="10.457583748807403"><ele>594.8333333333333</ele><time>2026-04-12T10:13:39Z</time></trkpt><trkpt lat="44.561869081250066" lon="10.457616157896094"><ele>599.0</ele><time>2026-04-12T10:13:40Z</time></trkpt><trkpt lat="44.561985165811954" lon="10.457622584512231"><ele>601.2</ele><time>2026-04-12T10:13:41Z</time></trkpt><trkpt lat="44.562089117847925" lon="10.457628437039583"><ele>603.4</ele><time>2026-04-12T10:13:42Z</time></trkpt><trkpt lat="44.562191112301626" lon="10.457648370141388"><ele>605.6</ele><time>2026-04-12T10:13:43Z</time></trkpt><trkpt lat="44.562296778726676" lon="10.457677624737832"><ele>607.8</ele><time>2026-04-12T10:13:44Z</time></trkpt><trkpt lat="44.562387340999884" lon="10.457728916465124"><ele>610.0</ele><time>2026-04-12T10:13:45Z</time></trkpt><trkpt lat="44.56247318479866" lon="10.457801343348764"><ele>610.0</ele><time>2026-04-12T10:13:46Z</time></trkpt><trkpt lat="44.56253289593901" lon="10.457885002558564"><ele>610.0</ele><time>2026-04-12T10:13:47Z</time></trkpt><trkpt lat="44.56256010885833" lon="10.457983346072824"><ele>610.0</ele><time>2026-04-12T10:13:48Z</time></trkpt><trkpt lat="44.56257945243243" lon="10.458079329456574"><ele>610.0</ele><time>2026-04-12T10:13:49Z</time></trkpt><trkpt lat="44.56261889797228" lon="10.458162464413899"><ele>610.0</ele><time>2026-04-12T10:13:50Z</time></trkpt><trkpt lat="44.562705262476705" lon="10.458238262492044"><ele>610.0</ele><time>2026-04-12T10:13:52Z</time></trkpt><trkpt lat="44.562830249781484" lon="10.458213894776863"><ele>608.1666666666667</ele><time>2026-04-12T10:13:54Z</time></trkpt><trkpt lat="44.56290734108106" lon="10.458218479069538"><ele>606.3333333333334</ele><time>2026-04-12T10:13:55Z</time></trkpt><trkpt lat="44.562989379392064" lon="10.458242762081497"><ele>604.5</ele><time>2026-04-12T10:13:56Z</time></trkpt><trkpt lat="44.56307860597179" lon="10.458263375383945"><ele>602.6666666666666</ele><time>2026-04-12T10:13:57Z</time></trkpt><trkpt lat="44.563178062654565" lon="10.458248447375924"><ele>600.8333333333333</ele><time>2026-04-12T10:13:58Z</time></trkpt><trkpt lat="44.56326401176796" lon="10.458227089783733"><ele>599.0</ele><time>2026-04-12T10:13:59Z</time></trkpt><trkpt lat="44.563317254005355" lon="10.458179377784887"><ele>599.0</ele><time>2026-04-12T10:14:00Z</time></trkpt><trkpt lat="44.56338434939537" lon="10.458162790238381"><ele>599.0</ele><time>2026-04-12T10:14:01Z</time></trkpt><trkpt lat="44.56346755031561" lon="10.458188184125126"><ele>599.0</ele><time>2026-04-12T10:14:02Z</time></trkpt><trkpt lat="44.563548232906044" lon="10.458189377165578"><ele>599.0</ele><time>2026-04-12T10:14:03Z</time></trkpt><trkpt lat="44.56363721119887" lon="10.458196665215768"><ele>599.0</ele><time>2026-04-12T10:14:04Z</time></trkpt><trkpt lat="44.56371631952961" lon="10.458218460502794"><ele>599.0</ele><time>2026-04-12T10:14:05Z</time></trkpt><trkpt lat="44.56378781710365" lon="10.45825614349821"><ele>600.6</ele><time>2026-04-12T10:14:06Z</time></trkpt><trkpt lat="44.563871418590935" lon="10.458287467054245"><ele>602.2</ele><time>2026-04-12T10:14:07Z</time></trkpt><trkpt lat="44.56396957332081" lon="10.458296089278132"><ele>603.8000000000001</ele><time>2026-04-12T10:14:08Z</time></trkpt><trkpt lat="44.564068898894476" lon="10.458291950531859"><ele>605.4</ele><time>2026-04-12T10:14:09Z</time></trkpt><trkpt lat="44.56416139927192" lon="10.45829287952636"><ele>607.0</ele><time>2026-04-12T10:14:10Z</time></trkpt><trkpt lat="44.56426251841169" lon="10.458333352810833"><ele>607.0</ele><time>2026-04-12T10:14:12Z</time></trkpt><trkpt lat="44.56433468496723" lon="10.458434470205408"><ele>607.0</ele><time>2026-04-12T10:14:14Z</time></trkpt><trkpt lat="44.56439443974739" lon="10.458526243589786"><ele>607.0</ele><time>2026-04-12T10:14:16Z</time></trkpt><trkpt lat="44.56446416076293" lon="10.458625566720853"><ele>607.0</ele><time>2026-04-12T10:14:18Z</time></trkpt><trkpt lat="44.56454719159404" lon="10.458728594192632"><ele>607.0</ele><time>2026-04-12T10:14:20Z</time></trkpt><trkpt lat="44.56460288053951" lon="10.45877943099282"><ele>604.2</ele><time>2026-04-12T10:14:22Z</time></trkpt><trkpt lat="44.56472474530955" lon="10.458878416851137"><ele>601.4000000000001</ele><time>2026-04-12T10:14:24Z</time></trkpt><trkpt lat="44.56478606683489" lon="10.458918960535087"><ele>598.5999999999999</ele><time>2026-04-12T10:14:25Z</time></trkpt><trkpt lat="44.56484647288878" lon="10.458949013909992"><ele>595.8</ele><time>2026-04-12T10:14:26Z</time></trkpt><trkpt lat="44.564936776896985" lon="10.458975646540335"><ele>593.0</ele><time>2026-04-12T10:14:28Z</time></trkpt><trkpt lat="44.56502239908157" lon="10.459008921092243"><ele>593.0</ele><time>2026-04-12T10:14:30Z</time></trkpt><trkpt lat="44.56512735278503" lon="10.45905239452757"><ele>593.0</ele><time>2026-04-12T10:14:32Z</time></trkpt><trkpt lat="44.56521359816724" lon="10.459095889661254"><ele>593.0</ele><time>2026-04-12T10:14:34Z</time></trkpt><trkpt lat="44.565286088947126" lon="10.45913293113251"><ele>593.0</ele><time>2026-04-12T10:14:36Z</time></trkpt><trkpt lat="44.565352401279846" lon="10.459166815317431"><ele>593.0</ele><time>2026-04-12T10:14:39Z</time></trkpt><trkpt lat="44.565490317421386" lon="10.458942453685012"><ele>590.4</ele><time>2026-04-12T10:14:43Z</time></trkpt><trkpt lat="44.56553932539687" lon="10.45882387133378"><ele>587.8</ele><time>2026-04-12T10:14:45Z</time></trkpt><trkpt lat="44.56554222372166" lon="10.458688853013058"><ele>585.2</ele><time>2026-04-12T10:14:46Z</time></trkpt><trkpt lat="44.565537946659795" lon="10.45854716133585"><ele>582.6</ele><time>2026-04-12T10:14:47Z</time></trkpt><trkpt lat="44.56554062319344" lon="10.458422052035703"><ele>580.0</ele><time>2026-04-12T10:14:48Z</time></trkpt><trkpt lat="44.5655490940186" lon="10.458276798003968"><ele>580.0</ele><time>2026-04-12T10:14:49Z</time></trkpt><trkpt lat="44.56557112296919" lon="10.45813052423455"><ele>580.0</ele><time>2026-04-12T10:14:50Z</time></trkpt><trkpt lat="44.56560507133519" lon="10.458002569822664"><ele>580.0</ele><time>2026-04-12T10:14:51Z</time></trkpt><trkpt lat="44.56565789614171" lon="10.457878881014173"><ele>580.0</ele><time>2026-04-12T10:14:52Z</time></trkpt><trkpt lat="44.56576131200717" lon="10.45777529604917"><ele>580.0</ele><time>2026-04-12T10:14:53Z</time></trkpt><trkpt lat="44.56589573030401" lon="10.457655765519048"><ele>575.6666666666667</ele><time>2026-04-12T10:14:54Z</time></trkpt><trkpt lat="44.566030151013265" lon="10.457527974034754"><ele>571.3333333333334</ele><time>2026-04-12T10:14:55Z</time></trkpt><trkpt lat="44.566167226818145" lon="10.457399792640617"><ele>567.0</ele><time>2026-04-12T10:14:56Z</time></trkpt><trkpt lat="44.56628619460104" lon="10.457305044969472"><ele>567.0</ele><time>2026-04-12T10:14:57Z</time></trkpt><trkpt lat="44.56637980806005" lon="10.457273663443345"><ele>567.0</ele><time>2026-04-12T10:14:58Z</time></trkpt><trkpt lat="44.56648408903073" lon="10.457242265110414"><ele>567.0</ele><time>2026-04-12T10:14:59Z</time></trkpt><trkpt lat="44.566612031666224" lon="10.457223944926486"><ele>567.0</ele><time>2026-04-12T10:15:00Z</time></trkpt><trkpt lat="44.56672481082116" lon="10.457172923276625"><ele>573.25</ele><time>2026-04-12T10:15:01Z</time></trkpt><trkpt lat="44.566833518576594" lon="10.457098678081438"><ele>579.5</ele><time>2026-04-12T10:15:02Z</time></trkpt><trkpt lat="44.56694149842015" lon="10.456959268421185"><ele>585.75</ele><time>2026-04-12T10:15:03Z</time></trkpt><trkpt lat="44.567047108202324" lon="10.456805373853669"><ele>592.0</ele><time>2026-04-12T10:15:04Z</time></trkpt><trkpt lat="44.56706939697231" lon="10.45667505115587"><ele>596.25</ele><time>2026-04-12T10:15:05Z</time></trkpt><trkpt lat="44.56704751646481" lon="10.45650378318711"><ele>600.5</ele><time>2026-04-12T10:15:06Z</time></trkpt><trkpt lat="44.56705535463069" lon="10.456405562541692"><ele>604.75</ele><time>2026-04-12T10:15:07Z</time></trkpt><trkpt lat="44.56701152209051" lon="10.456164240857273"><ele>609.0</ele><time>2026-04-12T10:15:09Z</time></trkpt><trkpt lat="44.56698140897803" lon="10.455996204075726"><ele>609.0</ele><time>2026-04-12T10:15:10Z</time></trkpt><trkpt lat="44.56696555713426" lon="10.455888448216257"><ele>609.0</ele><time>2026-04-12T10:15:11Z</time></trkpt><trkpt lat="44.56698180776384" lon="10.45574674510728"><ele>609.0</ele><time>2026-04-12T10:15:13Z</time></trkpt><trkpt lat="44.56699530792637" lon="10.455649653317627"><ele>609.0</ele><time>2026-04-12T10:15:14Z</time></trkpt><trkpt lat="44.567037392336985" lon="10.455531593390953"><ele>609.0</ele><time>2026-04-12T10:15:15Z</time></trkpt><trkpt lat="44.567124786329174" lon="10.455393973544561"><ele>602.1666666666666</ele><time>2026-04-12T10:15:16Z</time></trkpt><trkpt lat="44.56718995775054" lon="10.455295537211184"><ele>595.3333333333334</ele><time>2026-04-12T10:15:17Z</time></trkpt><trkpt lat="44.567251840061594" lon="10.455225198752743"><ele>588.5</ele><time>2026-04-12T10:15:18Z</time></trkpt><trkpt lat="44.567325122588144" lon="10.455221361730002"><ele>581.6666666666667</ele><time>2026-04-12T10:15:19Z</time></trkpt><trkpt lat="44.56739041000732" lon="10.455260284712045"><ele>574.8333333333334</ele><time>2026-04-12T10:15:20Z</time></trkpt><trkpt lat="44.5674921172561" lon="10.455243679355645"><ele>568.0</ele><time>2026-04-12T10:15:22Z</time></trkpt><trkpt lat="44.56756783287785" lon="10.455171171167294"><ele>568.0</ele><time>2026-04-12T10:15:23Z</time></trkpt><trkpt lat="44.56763555311714" lon="10.45509016277204"><ele>568.0</ele><time>2026-04-12T10:15:24Z</time></trkpt><trkpt lat="44.56768405813523" lon="10.45501236704177"><ele>568.0</ele><time>2026-04-12T10:15:25Z</time></trkpt><trkpt lat="44.567743858271854" lon="10.454854068504087"><ele>568.0</ele><time>2026-04-12T10:15:26Z</time></trkpt><trkpt lat="44.5678049382256" lon="10.454719336249864"><ele>568.0</ele><time>2026-04-12T10:15:27Z</time></trkpt><trkpt lat="44.56786983949475" lon="10.454594408791577"><ele>567.1999999999999</ele><time>2026-04-12T10:15:28Z</time></trkpt><trkpt lat="44.56794580678421" lon="10.45450346918478"><ele>566.4</ele><time>2026-04-12T10:15:29Z</time></trkpt><trkpt lat="44.56801984200384" lon="10.45442192108927"><ele>565.5999999999999</ele><time>2026-04-12T10:15:30Z</time></trkpt><trkpt lat="44.5681091219951" lon="10.454357414722761"><ele>564.8</ele><time>2026-04-12T10:15:31Z</time></trkpt><trkpt lat="44.568218245339864" lon="10.454343428576502"><ele>564.0</ele><time>2026-04-12T10:15:32Z</time></trkpt><trkpt lat="44.568297705090565" lon="10.454295824664706"><ele>564.0</ele><time>2026-04-12T10:15:33Z</time></trkpt><trkpt lat="44.56838618352022" lon="10.454267896165668"><ele>564.0</ele><time>2026-04-12T10:15:34Z</time></trkpt><trkpt lat="44.56846995441505" lon="10.4542346299669"><ele>564.0</ele><time>2026-04-12T10:15:35Z</time></trkpt><trkpt lat="44.56855173413668" lon="10.45421288115155"><ele>564.0</ele><time>2026-04-12T10:15:36Z</time></trkpt><trkpt lat="44.568628871135886" lon="10.45420044490235"><ele>564.0</ele><time>2026-04-12T10:15:37Z</time></trkpt><trkpt lat="44.56870671451981" lon="10.454194782643372"><ele>564.0</ele><time>2026-04-12T10:15:38Z</time></trkpt><trkpt lat="44.56877894205048" lon="10.454196835817388"><ele>559.8333333333334</ele><time>2026-04-12T10:15:39Z</time></trkpt><trkpt lat="44.56885039307704" lon="10.454198809061644"><ele>555.6666666666666</ele><time>2026-04-12T10:15:40Z</time></trkpt><trkpt lat="44.56892340388924" lon="10.454197883156054"><ele>551.5</ele><time>2026-04-12T10:15:41Z</time></trkpt><trkpt lat="44.569003291961714" lon="10.454177108849105"><ele>547.3333333333333</ele><time>2026-04-12T10:15:42Z</time></trkpt><trkpt lat="44.56907211081187" lon="10.454140751511527"><ele>543.1666666666666</ele><time>2026-04-12T10:15:43Z</time></trkpt><trkpt lat="44.56913907349299" lon="10.454083786660092"><ele>539.0</ele><time>2026-04-12T10:15:44Z</time></trkpt><trkpt lat="44.56919797644294" lon="10.454010427984063"><ele>539.0</ele><time>2026-04-12T10:15:45Z</time></trkpt><trkpt lat="44.56922149476032" lon="10.453902774787924"><ele>539.0</ele><time>2026-04-12T10:15:46Z</time></trkpt><trkpt lat="44.569241860934234" lon="10.453748675244276"><ele>539.0</ele><time>2026-04-12T10:15:47Z</time></trkpt><trkpt lat="44.56925947059071" lon="10.453555035390444"><ele>539.0</ele><time>2026-04-12T10:15:48Z</time></trkpt><trkpt lat="44.56927644898098" lon="10.453383584243422"><ele>538.6</ele><time>2026-04-12T10:15:49Z</time></trkpt><trkpt lat="44.5693120551117" lon="10.453244078128062"><ele>538.2</ele><time>2026-04-12T10:15:50Z</time></trkpt><trkpt lat="44.569364007264205" lon="10.453122631364518"><ele>537.8000000000001</ele><time>2026-04-12T10:15:51Z</time></trkpt><trkpt lat="44.56942446355992" lon="10.453017039218249"><ele>537.4</ele><time>2026-04-12T10:15:52Z</time></trkpt><trkpt lat="44.56951803356436" lon="10.452959339789416"><ele>537.0</ele><time>2026-04-12T10:15:53Z</time></trkpt><trkpt lat="44.56959292870911" lon="10.452879570111714"><ele>537.0</ele><time>2026-04-12T10:15:54Z</time></trkpt><trkpt lat="44.56962898814331" lon="10.452788616191576"><ele>537.0</ele><time>2026-04-12T10:15:55Z</time></trkpt><trkpt lat="44.56967341721385" lon="10.452673509982372"><ele>537.0</ele><time>2026-04-12T10:15:56Z</time></trkpt><trkpt lat="44.56971690167385" lon="10.452530880623698"><ele>537.0</ele><time>2026-04-12T10:15:57Z</time></trkpt><trkpt lat="44.56977619415947" lon="10.452364531138214"><ele>537.0</ele><time>2026-04-12T10:15:58Z</time></trkpt><trkpt lat="44.569844826869506" lon="10.452233666694388"><ele>540.4</ele><time>2026-04-12T10:15:59Z</time></trkpt><trkpt lat="44.56992049054824" lon="10.452109781441036"><ele>543.8000000000001</ele><time>2026-04-12T10:16:00Z</time></trkpt><trkpt lat="44.569988355186666" lon="10.452064208097948"><ele>547.2</ele><time>2026-04-12T10:16:01Z</time></trkpt><trkpt lat="44.570101956896885" lon="10.452006712740996"><ele>550.6</ele><time>2026-04-12T10:16:03Z</time></trkpt><trkpt lat="44.57016907271468" lon="10.451968795758093"><ele>554.0</ele><time>2026-04-12T10:16:04Z</time></trkpt><trkpt lat="44.570235853558486" lon="10.451909919194849"><ele>554.0</ele><time>2026-04-12T10:16:05Z</time></trkpt><trkpt lat="44.570321762649286" lon="10.451939067888981"><ele>554.0</ele><time>2026-04-12T10:16:06Z</time></trkpt><trkpt lat="44.570394897950464" lon="10.452048265308413"><ele>554.0</ele><time>2026-04-12T10:16:07Z</time></trkpt><trkpt lat="44.570491076406974" lon="10.452117479724356"><ele>554.0</ele><time>2026-04-12T10:16:08Z</time></trkpt><trkpt lat="44.570581754982705" lon="10.452156586645515"><ele>554.0</ele><time>2026-04-12T10:16:09Z</time></trkpt><trkpt lat="44.57067659621747" lon="10.452189581986321"><ele>545.75</ele><time>2026-04-12T10:16:10Z</time></trkpt><trkpt lat="44.570796962896914" lon="10.452280921984428"><ele>537.5</ele><time>2026-04-12T10:16:11Z</time></trkpt><trkpt lat="44.57091560550758" lon="10.452239238889764"><ele>529.25</ele><time>2026-04-12T10:16:12Z</time></trkpt><trkpt lat="44.57102264744326" lon="10.452193712866473"><ele>521.0</ele><time>2026-04-12T10:16:13Z</time></trkpt><trkpt lat="44.57112902895227" lon="10.45214564071076"><ele>521.0</ele><time>2026-04-12T10:16:14Z</time></trkpt><trkpt lat="44.571226360721994" lon="10.452101163294403"><ele>521.0</ele><time>2026-04-12T10:16:15Z</time></trkpt><trkpt lat="44.57134842975575" lon="10.452043536168741"><ele>521.0</ele><time>2026-04-12T10:16:16Z</time></trkpt><trkpt lat="44.571464126232414" lon="10.451988889876809"><ele>521.0</ele><time>2026-04-12T10:16:17Z</time></trkpt><trkpt lat="44.571581226487034" lon="10.451934993492246"><ele>521.0</ele><time>2026-04-12T10:16:18Z</time></trkpt><trkpt lat="44.57168992045022" lon="10.451888558648763"><ele>521.0</ele><time>2026-04-12T10:16:19Z</time></trkpt><trkpt lat="44.57176190067258" lon="10.451866539923346"><ele>521.0</ele><time>2026-04-12T10:16:20Z</time></trkpt><trkpt lat="44.57183738147104" lon="10.451881955266128"><ele>521.0</ele><time>2026-04-12T10:16:21Z</time></trkpt><trkpt lat="44.571908537741514" lon="10.451957492207262"><ele>521.0</ele><time>2026-04-12T10:16:22Z</time></trkpt><trkpt lat="44.57199825984962" lon="10.452045837651148"><ele>515.6</ele><time>2026-04-12T10:16:23Z</time></trkpt><trkpt lat="44.57209467165237" lon="10.452145724723591"><ele>510.20000000000005</ele><time>2026-04-12T10:16:24Z</time></trkpt><trkpt lat="44.57217821496152" lon="10.452254826194197"><ele>504.79999999999995</ele><time>2026-04-12T10:16:25Z</time></trkpt><trkpt lat="44.572228667174684" lon="10.452351657573672"><ele>499.4</ele><time>2026-04-12T10:16:26Z</time></trkpt><trkpt lat="44.572286002507326" lon="10.452483292796812"><ele>494.0</ele><time>2026-04-12T10:16:27Z</time></trkpt><trkpt lat="44.572351548939494" lon="10.45263645128289"><ele>494.0</ele><time>2026-04-12T10:16:28Z</time></trkpt><trkpt lat="44.57240716967916" lon="10.452763188723987"><ele>494.0</ele><time>2026-04-12T10:16:29Z</time></trkpt><trkpt lat="44.572474803807594" lon="10.45289026907955"><ele>494.0</ele><time>2026-04-12T10:16:30Z</time></trkpt><trkpt lat="44.57257069659518" lon="10.452946482555369"><ele>494.0</ele><time>2026-04-12T10:16:31Z</time></trkpt><trkpt lat="44.57263433975707" lon="10.453035829967614"><ele>494.0</ele><time>2026-04-12T10:16:32Z</time></trkpt><trkpt lat="44.57271033093" lon="10.453110476141042"><ele>493.79999999999995</ele><time>2026-04-12T10:16:33Z</time></trkpt><trkpt lat="44.572793796064445" lon="10.45317569991837"><ele>493.59999999999997</ele><time>2026-04-12T10:16:34Z</time></trkpt><trkpt lat="44.572866011359906" lon="10.453253608908359"><ele>493.4</ele><time>2026-04-12T10:16:35Z</time></trkpt><trkpt lat="44.57297317036982" lon="10.453356886739918"><ele>493.2</ele><time>2026-04-12T10:16:37Z</time></trkpt><trkpt lat="44.57303067936275" lon="10.453451205168141"><ele>493.0</ele><time>2026-04-12T10:16:39Z</time></trkpt><trkpt lat="44.573133383051854" lon="10.45332179198548"><ele>492.0</ele><time>2026-04-12T10:16:59Z</time></trkpt><trkpt lat="44.57308149334344" lon="10.453372219772229"><ele>490.99999999999994</ele><time>2026-04-12T10:18:06Z</time></trkpt><trkpt lat="44.57301452901423" lon="10.453451827974563"><ele>489.99999999999994</ele><time>2026-04-12T10:28:17Z</time></trkpt><trkpt lat="44.573043642745716" lon="10.453585501838782"><ele>489.0</ele><time>2026-04-12T10:28:19Z</time></trkpt><trkpt lat="44.57306504244168" lon="10.45377028724297"><ele>488.0</ele><time>2026-04-12T10:28:21Z</time></trkpt><trkpt lat="44.57309625230882" lon="10.453891492356158"><ele>490.75</ele><time>2026-04-12T10:28:22Z</time></trkpt><trkpt lat="44.57315412002414" lon="10.454030679035357"><ele>493.5</ele><time>2026-04-12T10:28:23Z</time></trkpt><trkpt lat="44.573224511400525" lon="10.454183886495185"><ele>496.25</ele><time>2026-04-12T10:28:24Z</time></trkpt><trkpt lat="44.57326766819094" lon="10.45435171111968"><ele>499.0</ele><time>2026-04-12T10:28:25Z</time></trkpt><trkpt lat="44.57328150957581" lon="10.454506866163449"><ele>499.00000000000006</ele><time>2026-04-12T10:28:26Z</time></trkpt><trkpt lat="44.573281841602366" lon="10.454643304812121"><ele>499.0</ele><time>2026-04-12T10:28:27Z</time></trkpt><trkpt lat="44.573287301000455" lon="10.454767511026215"><ele>499.0</ele><time>2026-04-12T10:28:28Z</time></trkpt><trkpt lat="44.57330073821548" lon="10.454882886461744"><ele>499.0</ele><time>2026-04-12T10:28:28.999Z</time></trkpt><trkpt lat="44.573331028382604" lon="10.454991675225228"><ele>499.00000000000006</ele><time>2026-04-12T10:28:29.999Z</time></trkpt><trkpt lat="44.57338268602895" lon="10.455095582662873"><ele>499.0</ele><time>2026-04-12T10:28:30.999Z</time></trkpt><trkpt lat="44.573451548048595" lon="10.455187924175052"><ele>499.0</ele><time>2026-04-12T10:28:31.999Z</time></trkpt><trkpt lat="44.57351851408022" lon="10.455260790424672"><ele>499.0</ele><time>2026-04-12T10:28:32.999Z</time></trkpt><trkpt lat="44.5735736434933" lon="10.45532165735148"><ele>499.0</ele><time>2026-04-12T10:28:33.999Z</time></trkpt><trkpt lat="44.57366936602415" lon="10.455442911880057"><ele>499.0</ele><time>2026-04-12T10:28:35.999Z</time></trkpt><trkpt lat="44.57374555870931" lon="10.455543945186747"><ele>499.0</ele><time>2026-04-12T10:28:36.999Z</time></trkpt><trkpt lat="44.5738293936939" lon="10.455629811607661"><ele>500.75</ele><time>2026-04-12T10:28:37.999Z</time></trkpt><trkpt lat="44.57391661508782" lon="10.455676474163178"><ele>502.5</ele><time>2026-04-12T10:28:38.999Z</time></trkpt><trkpt lat="44.574023121808835" lon="10.455692618497821"><ele>504.25</ele><time>2026-04-12T10:28:39.999Z</time></trkpt><trkpt lat="44.574152716423605" lon="10.45569054649882"><ele>506.0</ele><time>2026-04-12T10:28:40.999Z</time></trkpt><trkpt lat="44.57431065158434" lon="10.455691421994661"><ele>506.0</ele><time>2026-04-12T10:28:41.999Z</time></trkpt><trkpt lat="44.57445630779055" lon="10.455704095715697"><ele>506.0</ele><time>2026-04-12T10:28:42.999Z</time></trkpt><trkpt lat="44.57457978226382" lon="10.455729339810638"><ele>506.0</ele><time>2026-04-12T10:28:43.999Z</time></trkpt><trkpt lat="44.574702384452465" lon="10.455767298588624"><ele>506.0</ele><time>2026-04-12T10:28:44.999Z</time></trkpt><trkpt lat="44.57482680229237" lon="10.455825313655392"><ele>506.6</ele><time>2026-04-12T10:28:45.999Z</time></trkpt><trkpt lat="44.57494136891442" lon="10.455902953935928"><ele>507.20000000000005</ele><time>2026-04-12T10:28:46.999Z</time></trkpt><trkpt lat="44.57502720590119" lon="10.455986409758566"><ele>507.79999999999995</ele><time>2026-04-12T10:28:47.999Z</time></trkpt><trkpt lat="44.57508809480214" lon="10.456079130349066"><ele>508.4</ele><time>2026-04-12T10:28:48.999Z</time></trkpt><trkpt lat="44.575128373497144" lon="10.456201965514138"><ele>509.0</ele><time>2026-04-12T10:28:49.999Z</time></trkpt><trkpt lat="44.57515692166418" lon="10.456344426487508"><ele>509.0</ele><time>2026-04-12T10:28:50.999Z</time></trkpt><trkpt lat="44.575193797611846" lon="10.456512408886459"><ele>509.0</ele><time>2026-04-12T10:28:51.999Z</time></trkpt><trkpt lat="44.57525104506685" lon="10.456682028744693"><ele>509.0</ele><time>2026-04-12T10:28:52.999Z</time></trkpt><trkpt lat="44.57529887022196" lon="10.456826478174742"><ele>509.0</ele><time>2026-04-12T10:28:53.999Z</time></trkpt><trkpt lat="44.57533523802892" lon="10.456930045406102"><ele>509.0</ele><time>2026-04-12T10:28:54.999Z</time></trkpt><trkpt lat="44.57536583724792" lon="10.457021494761516"><ele>509.0</ele><time>2026-04-12T10:28:56.999Z</time></trkpt><trkpt lat="44.57541875872794" lon="10.457083608417307"><ele>509.0</ele><time>2026-04-12T10:30:23Z</time></trkpt><trkpt lat="44.57552494453543" lon="10.457165065479048"><ele>509.0</ele><time>2026-04-12T10:30:25Z</time></trkpt><trkpt lat="44.57561257077551" lon="10.45723612278102"><ele>509.0</ele><time>2026-04-12T10:30:26Z</time></trkpt><trkpt lat="44.57572492461399" lon="10.457284791192484"><ele>509.0</ele><time>2026-04-12T10:30:27Z</time></trkpt><trkpt lat="44.57584364985202" lon="10.457319152189019"><ele>509.0</ele><time>2026-04-12T10:30:28Z</time></trkpt><trkpt lat="44.575949883619785" lon="10.457355039714157"><ele>509.0</ele><time>2026-04-12T10:30:29Z</time></trkpt><trkpt lat="44.57603702617246" lon="10.45738367135233"><ele>509.0</ele><time>2026-04-12T10:30:30Z</time></trkpt><trkpt lat="44.57611565269281" lon="10.457402138037102"><ele>509.0</ele><time>2026-04-12T10:30:31Z</time></trkpt><trkpt lat="44.57619286162179" lon="10.457389116981465"><ele>508.4</ele><time>2026-04-12T10:30:32Z</time></trkpt><trkpt lat="44.57626024462094" lon="10.45733202083232"><ele>507.79999999999995</ele><time>2026-04-12T10:30:33Z</time></trkpt><trkpt lat="44.5763206419415" lon="10.457232362681864"><ele>507.20000000000005</ele><time>2026-04-12T10:30:34Z</time></trkpt><trkpt lat="44.57637536733778" lon="10.457102800436422"><ele>506.6</ele><time>2026-04-12T10:30:35Z</time></trkpt><trkpt lat="44.576415659526646" lon="10.456955167445873"><ele>506.0</ele><time>2026-04-12T10:30:36Z</time></trkpt><trkpt lat="44.57646627513479" lon="10.45677649278785"><ele>506.0</ele><time>2026-04-12T10:30:37Z</time></trkpt><trkpt lat="44.576477249090075" lon="10.456637962384388"><ele>506.0</ele><time>2026-04-12T10:30:38Z</time></trkpt><trkpt lat="44.57652053036844" lon="10.456530998213422"><ele>506.0</ele><time>2026-04-12T10:30:39Z</time></trkpt><trkpt lat="44.576586570442224" lon="10.45643220631014"><ele>506.0</ele><time>2026-04-12T10:30:40Z</time></trkpt><trkpt lat="44.57669534540069" lon="10.456322879720958"><ele>506.0</ele><time>2026-04-12T10:30:41Z</time></trkpt><trkpt lat="44.576815507909394" lon="10.45622741612202"><ele>504.5</ele><time>2026-04-12T10:30:42Z</time></trkpt><trkpt lat="44.576928306848124" lon="10.456140145118916"><ele>503.0</ele><time>2026-04-12T10:30:43Z</time></trkpt><trkpt lat="44.577063812436684" lon="10.456106467865645"><ele>501.5</ele><time>2026-04-12T10:30:44Z</time></trkpt><trkpt lat="44.57721864802895" lon="10.456089664848736"><ele>500.0</ele><time>2026-04-12T10:30:45Z</time></trkpt><trkpt lat="44.577356044617666" lon="10.456060696738792"><ele>500.0</ele><time>2026-04-12T10:30:46Z</time></trkpt><trkpt lat="44.57746655221705" lon="10.45605020873477"><ele>500.0</ele><time>2026-04-12T10:30:47Z</time></trkpt><trkpt lat="44.57756097463054" lon="10.45601160314247"><ele>500.0</ele><time>2026-04-12T10:30:48Z</time></trkpt><trkpt lat="44.577644616651064" lon="10.45592876655988"><ele>500.0</ele><time>2026-04-12T10:30:49Z</time></trkpt><trkpt lat="44.57774253735167" lon="10.455811745891177"><ele>500.0</ele><time>2026-04-12T10:30:50Z</time></trkpt><trkpt lat="44.57785484668578" lon="10.455687878017459"><ele>501.75</ele><time>2026-04-12T10:30:51Z</time></trkpt><trkpt lat="44.57798287622876" lon="10.455574442399127"><ele>503.5</ele><time>2026-04-12T10:30:52Z</time></trkpt><trkpt lat="44.57812245492417" lon="10.455476587194742"><ele>505.25</ele><time>2026-04-12T10:30:53Z</time></trkpt><trkpt lat="44.5782522517911" lon="10.455408684739243"><ele>507.0</ele><time>2026-04-12T10:30:54Z</time></trkpt><trkpt lat="44.57837705020443" lon="10.455375657378523"><ele>507.0</ele><time>2026-04-12T10:30:55Z</time></trkpt><trkpt lat="44.57850858166976" lon="10.455384961781116"><ele>507.0</ele><time>2026-04-12T10:30:56Z</time></trkpt><trkpt lat="44.57864210487912" lon="10.455405213558192"><ele>507.0</ele><time>2026-04-12T10:30:57Z</time></trkpt><trkpt lat="44.57878930584265" lon="10.455393284118369"><ele>507.0</ele><time>2026-04-12T10:30:58Z</time></trkpt><trkpt lat="44.578889558273474" lon="10.455360907962424"><ele>504.5</ele><time>2026-04-12T10:30:59Z</time></trkpt><trkpt lat="44.57900042870066" lon="10.455285049477768"><ele>502.0</ele><time>2026-04-12T10:31:00Z</time></trkpt><trkpt lat="44.57910245043476" lon="10.455192653768533"><ele>499.5</ele><time>2026-04-12T10:31:01Z</time></trkpt><trkpt lat="44.57920006038691" lon="10.455122648276715"><ele>497.0</ele><time>2026-04-12T10:31:01.999Z</time></trkpt><trkpt lat="44.579298432381634" lon="10.455106326991181"><ele>497.0</ele><time>2026-04-12T10:31:02.999Z</time></trkpt><trkpt lat="44.5794027447096" lon="10.45515154059922"><ele>497.0</ele><time>2026-04-12T10:31:03.999Z</time></trkpt><trkpt lat="44.57950875870978" lon="10.455244583812716"><ele>497.0</ele><time>2026-04-12T10:31:04.999Z</time></trkpt><trkpt lat="44.579634701924334" lon="10.455313588065694"><ele>497.0</ele><time>2026-04-12T10:31:05.999Z</time></trkpt><trkpt lat="44.57975949184825" lon="10.455404775745754"><ele>495.5</ele><time>2026-04-12T10:31:06.999Z</time></trkpt><trkpt lat="44.57987623682604" lon="10.455485189080177"><ele>494.0</ele><time>2026-04-12T10:31:07.999Z</time></trkpt><trkpt lat="44.579980085763985" lon="10.455550972806344"><ele>492.5</ele><time>2026-04-12T10:31:08.999Z</time></trkpt><trkpt lat="44.58008580434438" lon="10.455602825400838"><ele>491.0</ele><time>2026-04-12T10:31:09.999Z</time></trkpt><trkpt lat="44.580210308501336" lon="10.45565580253636"><ele>492.66666666666663</ele><time>2026-04-12T10:31:10.999Z</time></trkpt><trkpt lat="44.58036824148742" lon="10.455723095408391"><ele>494.33333333333337</ele><time>2026-04-12T10:31:11.999Z</time></trkpt><trkpt lat="44.580561461380924" lon="10.455800972907655"><ele>496.0</ele><time>2026-04-12T10:31:12.999Z</time></trkpt><trkpt lat="44.58077941141236" lon="10.45588037982708"><ele>496.0</ele><time>2026-04-12T10:31:13.999Z</time></trkpt><trkpt lat="44.58100141782912" lon="10.455965308199945"><ele>496.0</ele><time>2026-04-12T10:31:14.999Z</time></trkpt><trkpt lat="44.58120704288646" lon="10.456034982025379"><ele>496.0</ele><time>2026-04-12T10:31:15.999Z</time></trkpt><trkpt lat="44.58139470428879" lon="10.45611963229567"><ele>497.33333333333337</ele><time>2026-04-12T10:31:16.999Z</time></trkpt><trkpt lat="44.58156070696636" lon="10.456220711157302"><ele>498.66666666666663</ele><time>2026-04-12T10:31:17.999Z</time></trkpt><trkpt lat="44.58170357769574" lon="10.456337160275307"><ele>500.0</ele><time>2026-04-12T10:31:18.999Z</time></trkpt><trkpt lat="44.58183377458297" lon="10.456458469863518"><ele>498.75</ele><time>2026-04-12T10:31:20Z</time></trkpt><trkpt lat="44.581945285121584" lon="10.456582392991175"><ele>497.5</ele><time>2026-04-12T10:31:21Z</time></trkpt><trkpt lat="44.582016571971806" lon="10.456742074123431"><ele>496.25</ele><time>2026-04-12T10:31:22Z</time></trkpt><trkpt lat="44.58210420281363" lon="10.456874545603661"><ele>495.0</ele><time>2026-04-12T10:31:23Z</time></trkpt><trkpt lat="44.58219570974123" lon="10.456987019625752"><ele>495.0</ele><time>2026-04-12T10:31:24Z</time></trkpt><trkpt lat="44.58231934125407" lon="10.457071658285365"><ele>495.0</ele><time>2026-04-12T10:31:25Z</time></trkpt><trkpt lat="44.58245295363256" lon="10.457168338135483"><ele>495.0</ele><time>2026-04-12T10:31:26Z</time></trkpt><trkpt lat="44.582553469122" lon="10.457280682946715"><ele>495.0</ele><time>2026-04-12T10:31:27Z</time></trkpt><trkpt lat="44.582621772069075" lon="10.457414890523715"><ele>494.5</ele><time>2026-04-12T10:31:28Z</time></trkpt><trkpt lat="44.58266986850855" lon="10.457583067374417"><ele>494.0</ele><time>2026-04-12T10:31:29Z</time></trkpt><trkpt lat="44.58269181565696" lon="10.45776165486793"><ele>493.5</ele><time>2026-04-12T10:31:30Z</time></trkpt><trkpt lat="44.58268972938388" lon="10.457946497322157"><ele>493.0</ele><time>2026-04-12T10:31:31Z</time></trkpt><trkpt lat="44.58268517109659" lon="10.458104634921277"><ele>493.1666666666667</ele><time>2026-04-12T10:31:32Z</time></trkpt><trkpt lat="44.582700781460346" lon="10.4582173638585"><ele>493.33333333333337</ele><time>2026-04-12T10:31:33Z</time></trkpt><trkpt lat="44.58275226554603" lon="10.458298959963132"><ele>493.5</ele><time>2026-04-12T10:31:34Z</time></trkpt><trkpt lat="44.58282723103293" lon="10.458320889720548"><ele>493.66666666666663</ele><time>2026-04-12T10:31:35Z</time></trkpt><trkpt lat="44.582919053453054" lon="10.458313460221998"><ele>493.8333333333333</ele><time>2026-04-12T10:31:36Z</time></trkpt><trkpt lat="44.58302175069258" lon="10.45827603854044"><ele>494.0</ele><time>2026-04-12T10:31:37Z</time></trkpt><trkpt lat="44.58314167692586" lon="10.458254710749673"><ele>494.0</ele><time>2026-04-12T10:31:38Z</time></trkpt><trkpt lat="44.5832830765427" lon="10.458275878201462"><ele>494.0</ele><time>2026-04-12T10:31:39Z</time></trkpt><trkpt lat="44.583442345447466" lon="10.458337441308883"><ele>494.0</ele><time>2026-04-12T10:31:40Z</time></trkpt><trkpt lat="44.58361158887014" lon="10.45841167439456"><ele>493.66666666666663</ele><time>2026-04-12T10:31:41Z</time></trkpt><trkpt lat="44.58380170678191" lon="10.458483497378046"><ele>493.33333333333337</ele><time>2026-04-12T10:31:42Z</time></trkpt><trkpt lat="44.58399120579709" lon="10.458559948840678"><ele>493.0</ele><time>2026-04-12T10:31:43Z</time></trkpt><trkpt lat="44.58415093951626" lon="10.4586499605907"><ele>493.0</ele><time>2026-04-12T10:31:44Z</time></trkpt><trkpt lat="44.58428237404215" lon="10.458797650713796"><ele>493.0</ele><time>2026-04-12T10:31:45Z</time></trkpt><trkpt lat="44.58442806731155" lon="10.458959163039731"><ele>493.0</ele><time>2026-04-12T10:31:46Z</time></trkpt><trkpt lat="44.58459748612541" lon="10.459105781632406"><ele>493.0</ele><time>2026-04-12T10:31:47Z</time></trkpt><trkpt lat="44.58477537841323" lon="10.459262461508652"><ele>493.0</ele><time>2026-04-12T10:31:48Z</time></trkpt><trkpt lat="44.58497248342022" lon="10.459404097757208"><ele>493.0</ele><time>2026-04-12T10:31:49Z</time></trkpt><trkpt lat="44.58515991818648" lon="10.459538519823123"><ele>492.0</ele><time>2026-04-12T10:31:50Z</time></trkpt><trkpt lat="44.58530385534834" lon="10.459652715814109"><ele>491.0</ele><time>2026-04-12T10:31:51Z</time></trkpt><trkpt lat="44.58542059231184" lon="10.45975134969429"><ele>490.0</ele><time>2026-04-12T10:31:52Z</time></trkpt><trkpt lat="44.58551772300228" lon="10.459847173579577"><ele>489.0</ele><time>2026-04-12T10:31:53Z</time></trkpt><trkpt lat="44.585600123251425" lon="10.459974592778753"><ele>494.33333333333337</ele><time>2026-04-12T10:31:54Z</time></trkpt><trkpt lat="44.5856497407406" lon="10.46016616975511"><ele>499.6666666666667</ele><time>2026-04-12T10:31:55Z</time></trkpt><trkpt lat="44.58572411025494" lon="10.460360525806182"><ele>505.0</ele><time>2026-04-12T10:31:56Z</time></trkpt><trkpt lat="44.58578054790137" lon="10.460559431649523"><ele>505.0</ele><time>2026-04-12T10:31:57Z</time></trkpt><trkpt lat="44.58582026853084" lon="10.460718461074071"><ele>505.0</ele><time>2026-04-12T10:31:58Z</time></trkpt><trkpt lat="44.58584818019345" lon="10.460840181090209"><ele>505.0</ele><time>2026-04-12T10:31:59Z</time></trkpt><trkpt lat="44.58587499150187" lon="10.460932757949548"><ele>505.0</ele><time>2026-04-12T10:32:00Z</time></trkpt><trkpt lat="44.585927172692784" lon="10.46103238279817"><ele>505.0</ele><time>2026-04-12T10:32:02Z</time></trkpt><trkpt lat="44.585827575250065" lon="10.461157220936581"><ele>505.6666666666667</ele><time>2026-04-12T10:32:03Z</time></trkpt><trkpt lat="44.58577666280583" lon="10.461323506449046"><ele>506.33333333333337</ele><time>2026-04-12T10:32:04Z</time></trkpt><trkpt lat="44.58569938349617" lon="10.461494586740104"><ele>507.0</ele><time>2026-04-12T10:32:05Z</time></trkpt><trkpt lat="44.58572559108127" lon="10.461742078846473"><ele>507.0</ele><time>2026-04-12T10:32:06Z</time></trkpt><trkpt lat="44.585674880432286" lon="10.461883159380974"><ele>507.00000000000006</ele><time>2026-04-12T10:32:07Z</time></trkpt><trkpt lat="44.585623942572326" lon="10.46200614375087"><ele>507.00000000000006</ele><time>2026-04-12T10:32:08Z</time></trkpt><trkpt lat="44.585572197607945" lon="10.462135926956716"><ele>507.0</ele><time>2026-04-12T10:32:09Z</time></trkpt><trkpt lat="44.58554078883753" lon="10.462253466036262"><ele>507.0</ele><time>2026-04-12T10:32:10Z</time></trkpt><trkpt lat="44.58550120924708" lon="10.462348863765452"><ele>508.0</ele><time>2026-04-12T10:32:11Z</time></trkpt><trkpt lat="44.5854519849561" lon="10.46243433614798"><ele>509.0</ele><time>2026-04-12T10:32:12Z</time></trkpt><trkpt lat="44.58545390705633" lon="10.462535181858268"><ele>510.0</ele><time>2026-04-12T10:32:13Z</time></trkpt><trkpt lat="44.58546411606467" lon="10.46263374273482"><ele>511.0</ele><time>2026-04-12T10:32:14Z</time></trkpt><trkpt lat="44.58550516340676" lon="10.46275185990968"><ele>512.0</ele><time>2026-04-12T10:32:15Z</time></trkpt><trkpt lat="44.585564198064944" lon="10.462889505388567"><ele>513.0</ele><time>2026-04-12T10:32:16Z</time></trkpt><trkpt lat="44.58563773474516" lon="10.463037177202132"><ele>514.6</ele><time>2026-04-12T10:32:17Z</time></trkpt><trkpt lat="44.58571058802443" lon="10.463177762462202"><ele>516.1999999999999</ele><time>2026-04-12T10:32:18Z</time></trkpt><trkpt lat="44.58578457741068" lon="10.46329598277859"><ele>517.8</ele><time>2026-04-12T10:32:19Z</time></trkpt><trkpt lat="44.58584635312474" lon="10.463418849740226"><ele>519.4</ele><time>2026-04-12T10:32:20Z</time></trkpt><trkpt lat="44.58588283601777" lon="10.463541646713635"><ele>521.0</ele><time>2026-04-12T10:32:21Z</time></trkpt><trkpt lat="44.585886763187325" lon="10.463687295007174"><ele>522.0</ele><time>2026-04-12T10:32:22Z</time></trkpt><trkpt lat="44.58584182950639" lon="10.463838949628796"><ele>523.0</ele><time>2026-04-12T10:32:23Z</time></trkpt><trkpt lat="44.58583582212902" lon="10.46398593360797"><ele>524.0</ele><time>2026-04-12T10:32:24Z</time></trkpt><trkpt lat="44.58582107378094" lon="10.464137583248608"><ele>525.0</ele><time>2026-04-12T10:32:25Z</time></trkpt><trkpt lat="44.58581847304216" lon="10.464293767104506"><ele>526.0</ele><time>2026-04-12T10:32:26Z</time></trkpt><trkpt lat="44.5858172376254" lon="10.4644465706552"><ele>526.0</ele><time>2026-04-12T10:32:27Z</time></trkpt><trkpt lat="44.585816958873295" lon="10.464589020945908"><ele>526.0</ele><time>2026-04-12T10:32:28Z</time></trkpt><trkpt lat="44.5858203679419" lon="10.46470685947941"><ele>526.0</ele><time>2026-04-12T10:32:29Z</time></trkpt><trkpt lat="44.58581921814438" lon="10.464810582735709"><ele>526.0</ele><time>2026-04-12T10:32:30Z</time></trkpt><trkpt lat="44.585809619367154" lon="10.464915242847768"><ele>526.0</ele><time>2026-04-12T10:32:31Z</time></trkpt><trkpt lat="44.585792406020246" lon="10.465031540662535"><ele>526.0</ele><time>2026-04-12T10:32:32Z</time></trkpt><trkpt lat="44.585753935187014" lon="10.465127441879938"><ele>526.3333333333334</ele><time>2026-04-12T10:32:33Z</time></trkpt><trkpt lat="44.58573810151691" lon="10.46524451475569"><ele>526.6666666666667</ele><time>2026-04-12T10:32:34Z</time></trkpt><trkpt lat="44.58570444931033" lon="10.465356704579792"><ele>527.0</ele><time>2026-04-12T10:32:35Z</time></trkpt><trkpt lat="44.58566025455065" lon="10.465453739052924"><ele>527.3333333333334</ele><time>2026-04-12T10:32:36Z</time></trkpt><trkpt lat="44.5856497314909" lon="10.465572400121053"><ele>527.6666666666666</ele><time>2026-04-12T10:32:37Z</time></trkpt><trkpt lat="44.58561150852251" lon="10.465682991415688"><ele>528.0</ele><time>2026-04-12T10:32:38Z</time></trkpt><trkpt lat="44.58559361248195" lon="10.465799823415134"><ele>528.0</ele><time>2026-04-12T10:32:39Z</time></trkpt><trkpt lat="44.585592670302354" lon="10.465921353101278"><ele>528.0</ele><time>2026-04-12T10:32:40Z</time></trkpt><trkpt lat="44.58557370979979" lon="10.46603853401763"><ele>528.0</ele><time>2026-04-12T10:32:41Z</time></trkpt><trkpt lat="44.585557369137625" lon="10.466151479515302"><ele>528.0</ele><time>2026-04-12T10:32:42Z</time></trkpt><trkpt lat="44.58554115793464" lon="10.46626358789889"><ele>528.0</ele><time>2026-04-12T10:32:43Z</time></trkpt><trkpt lat="44.585497652209405" lon="10.466361143332781"><ele>528.0</ele><time>2026-04-12T10:32:44Z</time></trkpt><trkpt lat="44.58545973200891" lon="10.466462627114478"><ele>528.1666666666666</ele><time>2026-04-12T10:32:45Z</time></trkpt><trkpt lat="44.585446899692855" lon="10.466578603309618"><ele>528.3333333333334</ele><time>2026-04-12T10:32:46Z</time></trkpt><trkpt lat="44.58540073866434" lon="10.466659813481371"><ele>528.5</ele><time>2026-04-12T10:32:47Z</time></trkpt><trkpt lat="44.58537065364849" lon="10.466754750424862"><ele>528.6666666666667</ele><time>2026-04-12T10:32:48Z</time></trkpt><trkpt lat="44.58531628150283" lon="10.466829469422382"><ele>528.8333333333334</ele><time>2026-04-12T10:32:49Z</time></trkpt><trkpt lat="44.58526947051819" lon="10.46690090903"><ele>529.0</ele><time>2026-04-12T10:32:50Z</time></trkpt><trkpt lat="44.58518849832624" lon="10.467018561357532"><ele>528.2</ele><time>2026-04-12T10:32:52Z</time></trkpt><trkpt lat="44.585122923304034" lon="10.467127726624273"><ele>527.4</ele><time>2026-04-12T10:32:54Z</time></trkpt><trkpt lat="44.5850428092018" lon="10.467181408947543"><ele>526.6</ele><time>2026-04-12T10:32:56Z</time></trkpt><trkpt lat="44.58495689384695" lon="10.467274257028574"><ele>525.8</ele><time>2026-04-12T10:32:58Z</time></trkpt><trkpt lat="44.584944694303715" lon="10.467160410751664"><ele>525.0</ele><time>2026-04-12T10:33:00Z</time></trkpt><trkpt lat="44.58500804403055" lon="10.468047537482374"><ele>524.0</ele><time>2026-04-12T10:33:03Z</time></trkpt><trkpt lat="44.585001382407484" lon="10.468138460176936"><ele>523.0</ele><time>2026-04-12T10:33:04Z</time></trkpt><trkpt lat="44.585002477673136" lon="10.468229402312664"><ele>522.0</ele><time>2026-04-12T10:33:05Z</time></trkpt><trkpt lat="44.585017947148124" lon="10.468385092254511"><ele>521.0</ele><time>2026-04-12T10:33:07Z</time></trkpt><trkpt lat="44.58505404319147" lon="10.468460972098873"><ele>520.0</ele><time>2026-04-12T10:33:08Z</time></trkpt><trkpt lat="44.58508299071737" lon="10.468577347221135"><ele>519.0</ele><time>2026-04-12T10:33:09Z</time></trkpt><trkpt lat="44.58509654877965" lon="10.468726452921647"><ele>517.0</ele><time>2026-04-12T10:33:10Z</time></trkpt><trkpt lat="44.58512370393884" lon="10.468888040106778"><ele>515.0</ele><time>2026-04-12T10:33:10.999Z</time></trkpt><trkpt lat="44.585167316708144" lon="10.469027332655465"><ele>513.0</ele><time>2026-04-12T10:33:11.999Z</time></trkpt><trkpt lat="44.58518813192589" lon="10.469166931710568"><ele>511.0</ele><time>2026-04-12T10:33:12.999Z</time></trkpt><trkpt lat="44.585179702669635" lon="10.469303114869541"><ele>509.0</ele><time>2026-04-12T10:33:13.999Z</time></trkpt><trkpt lat="44.58517274967671" lon="10.469450574173901"><ele>508.6</ele><time>2026-04-12T10:33:14.999Z</time></trkpt><trkpt lat="44.58516625239437" lon="10.469616763469551"><ele>508.2</ele><time>2026-04-12T10:33:15.999Z</time></trkpt><trkpt lat="44.58516402352033" lon="10.469771895075334"><ele>507.80000000000007</ele><time>2026-04-12T10:33:16.999Z</time></trkpt><trkpt lat="44.58515834812077" lon="10.469881993399177"><ele>507.40000000000003</ele><time>2026-04-12T10:33:17.999Z</time></trkpt><trkpt lat="44.58514356764578" lon="10.470001327495792"><ele>507.0</ele><time>2026-04-12T10:33:18.999Z</time></trkpt><trkpt lat="44.58515641980779" lon="10.470124637601717"><ele>507.0</ele><time>2026-04-12T10:33:19.999Z</time></trkpt><trkpt lat="44.58517933634329" lon="10.470261060564807"><ele>507.0</ele><time>2026-04-12T10:33:20.999Z</time></trkpt><trkpt lat="44.58520108118922" lon="10.470378192826281"><ele>507.0</ele><time>2026-04-12T10:33:21.999Z</time></trkpt><trkpt lat="44.585211254903385" lon="10.470470085232295"><ele>507.0</ele><time>2026-04-12T10:33:22.999Z</time></trkpt><trkpt lat="44.5852289902171" lon="10.47057517602899"><ele>507.0</ele><time>2026-04-12T10:33:23.999Z</time></trkpt><trkpt lat="44.585254686239566" lon="10.470672828031509"><ele>507.0</ele><time>2026-04-12T10:33:24.999Z</time></trkpt><trkpt lat="44.58528676202799" lon="10.47081617264685"><ele>506.1666666666667</ele><time>2026-04-12T10:33:26Z</time></trkpt><trkpt lat="44.58531052825025" lon="10.470946654608216"><ele>505.33333333333337</ele><time>2026-04-12T10:33:27Z</time></trkpt><trkpt lat="44.585303401598736" lon="10.471055676892508"><ele>504.5</ele><time>2026-04-12T10:33:28Z</time></trkpt><trkpt lat="44.58528303076902" lon="10.47115427299582"><ele>503.6666666666667</ele><time>2026-04-12T10:33:29Z</time></trkpt><trkpt lat="44.58523511008859" lon="10.471266023172376"><ele>502.83333333333337</ele><time>2026-04-12T10:33:31Z</time></trkpt><trkpt lat="44.58521682916801" lon="10.471360422644542"><ele>502.0</ele><time>2026-04-12T10:33:33Z</time></trkpt><trkpt lat="44.585202744634685" lon="10.471525148734468"><ele>499.6</ele><time>2026-04-12T10:34:47Z</time></trkpt><trkpt lat="44.5851685100187" lon="10.47164347056999"><ele>497.20000000000005</ele><time>2026-04-12T10:34:48Z</time></trkpt><trkpt lat="44.58512618129491" lon="10.471787397965816"><ele>494.8</ele><time>2026-04-12T10:34:49Z</time></trkpt><trkpt lat="44.58509672430688" lon="10.471921950248092"><ele>492.4</ele><time>2026-04-12T10:34:50Z</time></trkpt><trkpt lat="44.58509156542162" lon="10.472045823964752"><ele>490.0</ele><time>2026-04-12T10:34:51Z</time></trkpt><trkpt lat="44.585104906499275" lon="10.472174058866253"><ele>488.2</ele><time>2026-04-12T10:34:52Z</time></trkpt><trkpt lat="44.585100461819096" lon="10.472327352613197"><ele>486.4</ele><time>2026-04-12T10:34:53Z</time></trkpt><trkpt lat="44.58508562180322" lon="10.472473884273375"><ele>484.6</ele><time>2026-04-12T10:34:54Z</time></trkpt><trkpt lat="44.58505723946442" lon="10.472604024031833"><ele>482.8</ele><time>2026-04-12T10:34:55Z</time></trkpt><trkpt lat="44.58505069960637" lon="10.472721002880734"><ele>481.0</ele><time>2026-04-12T10:34:56Z</time></trkpt><trkpt lat="44.585083959635725" lon="10.472813885238114"><ele>481.0</ele><time>2026-04-12T10:34:57Z</time></trkpt><trkpt lat="44.58512291510315" lon="10.472902674902864"><ele>481.0</ele><time>2026-04-12T10:34:58Z</time></trkpt><trkpt lat="44.585138460234525" lon="10.47301584978322"><ele>481.0</ele><time>2026-04-12T10:34:59Z</time></trkpt><trkpt lat="44.58512166709823" lon="10.47314981343076"><ele>481.0</ele><time>2026-04-12T10:35:00Z</time></trkpt><trkpt lat="44.58509647938568" lon="10.473303028956808"><ele>481.0</ele><time>2026-04-12T10:35:01Z</time></trkpt><trkpt lat="44.58507470794189" lon="10.473466939043265"><ele>481.8</ele><time>2026-04-12T10:35:02Z</time></trkpt><trkpt lat="44.58505880857727" lon="10.473629135754313"><ele>482.6</ele><time>2026-04-12T10:35:03Z</time></trkpt><trkpt lat="44.58504157407424" lon="10.473766825225871"><ele>483.4</ele><time>2026-04-12T10:35:04Z</time></trkpt><trkpt lat="44.58503256776303" lon="10.473860161230283"><ele>484.2</ele><time>2026-04-12T10:35:05Z</time></trkpt><trkpt lat="44.58503343896675" lon="10.474019514628381"><ele>485.0</ele><time>2026-04-12T10:35:07Z</time></trkpt><trkpt lat="44.58506108274067" lon="10.474159596517746"><ele>486.99999999999994</ele><time>2026-04-12T10:35:09Z</time></trkpt><trkpt lat="44.58510348406594" lon="10.474225706999476"><ele>489.0</ele><time>2026-04-12T10:35:10Z</time></trkpt><trkpt lat="44.58514774302158" lon="10.474310295351817"><ele>491.0</ele><time>2026-04-12T10:35:11Z</time></trkpt><trkpt lat="44.58517395066025" lon="10.474395960744506"><ele>493.0</ele><time>2026-04-12T10:35:12Z</time></trkpt><trkpt lat="44.58518569025874" lon="10.474504543147637"><ele>494.99999999999994</ele><time>2026-04-12T10:35:13Z</time></trkpt><trkpt lat="44.585183263979566" lon="10.474631981527075"><ele>497.0</ele><time>2026-04-12T10:35:13.999Z</time></trkpt><trkpt lat="44.5851716548178" lon="10.474784825993066"><ele>500.5</ele><time>2026-04-12T10:35:14.999Z</time></trkpt><trkpt lat="44.58515910312213" lon="10.47496630492859"><ele>504.0</ele><time>2026-04-12T10:35:15.999Z</time></trkpt><trkpt lat="44.585143431626435" lon="10.475170903240173"><ele>507.5</ele><time>2026-04-12T10:35:16.999Z</time></trkpt><trkpt lat="44.585121141585084" lon="10.475390879132297"><ele>511.0</ele><time>2026-04-12T10:35:17.999Z</time></trkpt><trkpt lat="44.58509908059265" lon="10.47558728354718"><ele>514.0</ele><time>2026-04-12T10:35:18.999Z</time></trkpt><trkpt lat="44.585072195395895" lon="10.47573501856245"><ele>517.0</ele><time>2026-04-12T10:35:19.999Z</time></trkpt><trkpt lat="44.58503357789527" lon="10.475897825538912"><ele>520.0</ele><time>2026-04-12T10:35:20.999Z</time></trkpt><trkpt lat="44.58499478206068" lon="10.476029436561308"><ele>523.0</ele><time>2026-04-12T10:35:21.999Z</time></trkpt><trkpt lat="44.58495501329029" lon="10.47612716742044"><ele>526.0</ele><time>2026-04-12T10:35:23.999Z</time></trkpt><trkpt lat="44.5848802752818" lon="10.476096342731617"><ele>526.0</ele><time>2026-04-12T10:35:59Z</time></trkpt><trkpt lat="44.58477946443079" lon="10.476055718540522"><ele>526.0</ele><time>2026-04-12T10:36:01Z</time></trkpt><trkpt lat="44.58470906934388" lon="10.476065520082361"><ele>526.0</ele><time>2026-04-12T10:36:02Z</time></trkpt><trkpt lat="44.584607725650336" lon="10.476056708010411"><ele>526.0</ele><time>2026-04-12T10:36:03Z</time></trkpt><trkpt lat="44.58451741396134" lon="10.47607745598011"><ele>526.0</ele><time>2026-04-12T10:36:04Z</time></trkpt><trkpt lat="44.584437293685134" lon="10.476118451372514"><ele>524.2</ele><time>2026-04-12T10:36:05Z</time></trkpt><trkpt lat="44.58436370202136" lon="10.476157161693978"><ele>522.4000000000001</ele><time>2026-04-12T10:36:06Z</time></trkpt><trkpt lat="44.5842846505172" lon="10.476195446052282"><ele>520.6</ele><time>2026-04-12T10:36:07Z</time></trkpt><trkpt lat="44.58421552304253" lon="10.476227531147964"><ele>518.8000000000001</ele><time>2026-04-12T10:36:08Z</time></trkpt><trkpt lat="44.58409308787128" lon="10.476318686199392"><ele>517.0</ele><time>2026-04-12T10:36:10Z</time></trkpt><trkpt lat="44.584020108911076" lon="10.476381903095769"><ele>516.6</ele><time>2026-04-12T10:36:11Z</time></trkpt><trkpt lat="44.58388820971941" lon="10.476441885074802"><ele>516.2</ele><time>2026-04-12T10:36:13Z</time></trkpt><trkpt lat="44.58381140512751" lon="10.476474259347654"><ele>515.8</ele><time>2026-04-12T10:36:14Z</time></trkpt><trkpt lat="44.58372649815355" lon="10.47650206757866"><ele>515.4</ele><time>2026-04-12T10:36:15Z</time></trkpt><trkpt lat="44.58360834330094" lon="10.476530023784663"><ele>515.0</ele><time>2026-04-12T10:36:16Z</time></trkpt><trkpt lat="44.58345355140514" lon="10.476545141525811"><ele>513.8333333333333</ele><time>2026-04-12T10:36:17Z</time></trkpt><trkpt lat="44.583360118329836" lon="10.476552753059323"><ele>512.6666666666666</ele><time>2026-04-12T10:36:18Z</time></trkpt><trkpt lat="44.583296268123156" lon="10.476553260543069"><ele>511.5</ele><time>2026-04-12T10:36:19Z</time></trkpt><trkpt lat="44.58322063013301" lon="10.47654389858534"><ele>510.33333333333337</ele><time>2026-04-12T10:36:20Z</time></trkpt><trkpt lat="44.58314525572755" lon="10.476546570635529"><ele>509.1666666666667</ele><time>2026-04-12T10:36:21Z</time></trkpt><trkpt lat="44.583068084617814" lon="10.476545382419294"><ele>508.0</ele><time>2026-04-12T10:36:22Z</time></trkpt><trkpt lat="44.58297543450476" lon="10.476557284535117"><ele>508.00000000000006</ele><time>2026-04-12T10:36:23Z</time></trkpt><trkpt lat="44.58286871730025" lon="10.476579291807564"><ele>508.0</ele><time>2026-04-12T10:36:24Z</time></trkpt><trkpt lat="44.582785772187414" lon="10.476589561651492"><ele>508.0</ele><time>2026-04-12T10:36:25Z</time></trkpt><trkpt lat="44.582713839407695" lon="10.476595323993466"><ele>508.0</ele><time>2026-04-12T10:36:26Z</time></trkpt><trkpt lat="44.582645832424944" lon="10.476626139479285"><ele>508.00000000000006</ele><time>2026-04-12T10:36:27Z</time></trkpt><trkpt lat="44.582570890555694" lon="10.47669387690125"><ele>508.0</ele><time>2026-04-12T10:36:28Z</time></trkpt><trkpt lat="44.5825104703145" lon="10.47676120732207"><ele>507.00000000000006</ele><time>2026-04-12T10:36:29Z</time></trkpt><trkpt lat="44.58245571804726" lon="10.476833664374759"><ele>506.0</ele><time>2026-04-12T10:36:30Z</time></trkpt><trkpt lat="44.582356240771176" lon="10.476944465341814"><ele>505.0</ele><time>2026-04-12T10:36:32Z</time></trkpt><trkpt lat="44.58229245148993" lon="10.476989597110718"><ele>504.0</ele><time>2026-04-12T10:36:33Z</time></trkpt><trkpt lat="44.58221888848395" lon="10.477058935815286"><ele>503.00000000000006</ele><time>2026-04-12T10:36:34Z</time></trkpt><trkpt lat="44.58216361365234" lon="10.477139611612724"><ele>502.0</ele><time>2026-04-12T10:36:35Z</time></trkpt><trkpt lat="44.58212847625838" lon="10.477232984620997"><ele>500.6</ele><time>2026-04-12T10:36:36Z</time></trkpt><trkpt lat="44.58210122183525" lon="10.477320788166725"><ele>499.20000000000005</ele><time>2026-04-12T10:36:37Z</time></trkpt><trkpt lat="44.58205596079307" lon="10.477438318660965"><ele>497.8</ele><time>2026-04-12T10:36:39Z</time></trkpt><trkpt lat="44.582010534674616" lon="10.477573814416761"><ele>496.4</ele><time>2026-04-12T10:36:41Z</time></trkpt><trkpt lat="44.581974457320825" lon="10.477769570357532"><ele>495.0</ele><time>2026-04-12T10:36:43Z</time></trkpt><trkpt lat="44.581961626567825" lon="10.477859086864408"><ele>492.5</ele><time>2026-04-12T10:36:44Z</time></trkpt><trkpt lat="44.58193074404087" lon="10.477983413678524"><ele>490.0</ele><time>2026-04-12T10:36:45.999Z</time></trkpt><trkpt lat="44.581872556888705" lon="10.47814314971453"><ele>487.5</ele><time>2026-04-12T10:36:47.999Z</time></trkpt><trkpt lat="44.58180658797715" lon="10.478280024317348"><ele>485.0</ele><time>2026-04-12T10:36:49.999Z</time></trkpt><trkpt lat="44.58175011616506" lon="10.478424392155997"><ele>484.99999999999994</ele><time>2026-04-12T10:36:51.999Z</time></trkpt><trkpt lat="44.58172268560615" lon="10.478504293927562"><ele>485.0</ele><time>2026-04-12T10:36:52.999Z</time></trkpt><trkpt lat="44.58167578896237" lon="10.478574191831799"><ele>485.0</ele><time>2026-04-12T10:36:53.999Z</time></trkpt><trkpt lat="44.58161591631927" lon="10.478626472431701"><ele>485.0</ele><time>2026-04-12T10:36:54.999Z</time></trkpt><trkpt lat="44.58157256674418" lon="10.478695112967936"><ele>484.99999999999994</ele><time>2026-04-12T10:36:55.999Z</time></trkpt><trkpt lat="44.581490842626195" lon="10.478840182451522"><ele>485.0</ele><time>2026-04-12T10:36:57.999Z</time></trkpt><trkpt lat="44.58145390755651" lon="10.478918770167759"><ele>483.2</ele><time>2026-04-12T10:36:58.999Z</time></trkpt><trkpt lat="44.58141903495013" lon="10.4789944992646"><ele>481.4</ele><time>2026-04-12T10:36:59.999Z</time></trkpt><trkpt lat="44.58136392711704" lon="10.47913296534857"><ele>479.6</ele><time>2026-04-12T10:37:01.999Z</time></trkpt><trkpt lat="44.58132710166464" lon="10.47923483081123"><ele>477.8</ele><time>2026-04-12T10:37:02.999Z</time></trkpt><trkpt lat="44.581269372448986" lon="10.479425766377414"><ele>476.0</ele><time>2026-04-12T10:37:03.999Z</time></trkpt><trkpt lat="44.581252342266325" lon="10.479534631333129"><ele>474.20000000000005</ele><time>2026-04-12T10:37:04.999Z</time></trkpt><trkpt lat="44.5812106541496" lon="10.479644532356728"><ele>472.40000000000003</ele><time>2026-04-12T10:37:07.999Z</time></trkpt><trkpt lat="44.581148634067716" lon="10.47974686447511"><ele>470.6</ele><time>2026-04-12T10:37:09.999Z</time></trkpt><trkpt lat="44.58111077844687" lon="10.479836652146107"><ele>468.8</ele><time>2026-04-12T10:37:11.999Z</time></trkpt><trkpt lat="44.58102882084518" lon="10.479981624927687"><ele>467.0</ele><time>2026-04-12T10:37:15.999Z</time></trkpt><trkpt lat="44.580958744883006" lon="10.480096838938527"><ele>467.0</ele><time>2026-04-12T10:37:17.999Z</time></trkpt><trkpt lat="44.58091069748644" lon="10.480169344390115"><ele>467.00000000000006</ele><time>2026-04-12T10:37:18.999Z</time></trkpt><trkpt lat="44.58083294622429" lon="10.480256417235257"><ele>467.00000000000006</ele><time>2026-04-12T10:37:20.999Z</time></trkpt><trkpt lat="44.58075783515761" lon="10.480361293332987"><ele>467.0</ele><time>2026-04-12T10:37:23.999Z</time></trkpt><trkpt lat="44.580703254491105" lon="10.480444764972699"><ele>467.0</ele><time>2026-04-12T10:37:25.999Z</time></trkpt><trkpt lat="44.58054830849894" lon="10.480606991678101"><ele>465.49999999999994</ele><time>2026-04-12T10:37:28.999Z</time></trkpt><trkpt lat="44.58051980632458" lon="10.480717824574455"><ele>464.0</ele><time>2026-04-12T10:37:31.999Z</time></trkpt><trkpt lat="44.58045770452142" lon="10.480799097353051"><ele>462.5</ele><time>2026-04-12T10:37:35.999Z</time></trkpt><trkpt lat="44.580397822741425" lon="10.48085011718192"><ele>461.0</ele><time>2026-04-12T10:37:37Z</time></trkpt><trkpt lat="44.58031772253507" lon="10.480914063068855"><ele>459.49999999999994</ele><time>2026-04-12T10:37:39Z</time></trkpt><trkpt lat="44.58027271425811" lon="10.480994808454836"><ele>458.0</ele><time>2026-04-12T10:37:41Z</time></trkpt><trkpt lat="44.580238102803584" lon="10.481071861358986"><ele>455.66666666666663</ele><time>2026-04-12T10:37:43Z</time></trkpt><trkpt lat="44.58020657733033" lon="10.48115419666115"><ele>453.3333333333333</ele><time>2026-04-12T10:37:46Z</time></trkpt><trkpt lat="44.58018879435875" lon="10.481295002866826"><ele>451.0</ele><time>2026-04-12T10:37:48Z</time></trkpt><trkpt lat="44.58015793809535" lon="10.481425806183353"><ele>448.66666666666663</ele><time>2026-04-12T10:37:50Z</time></trkpt><trkpt lat="44.58011550720742" lon="10.481510413256826"><ele>446.3333333333333</ele><time>2026-04-12T10:37:53Z</time></trkpt><trkpt lat="44.580050201697084" lon="10.481601553109137"><ele>444.0</ele><time>2026-04-12T10:37:55Z</time></trkpt><trkpt lat="44.57999372083642" lon="10.481704546015422"><ele>443.3333333333333</ele><time>2026-04-12T10:37:58Z</time></trkpt><trkpt lat="44.5799399138394" lon="10.481795824574037"><ele>442.66666666666663</ele><time>2026-04-12T10:38:00Z</time></trkpt><trkpt lat="44.579899810405834" lon="10.48192192657309"><ele>442.0</ele><time>2026-04-12T10:38:02Z</time></trkpt><trkpt lat="44.57983100565943" lon="10.482024805549457"><ele>441.3333333333333</ele><time>2026-04-12T10:38:04Z</time></trkpt><trkpt lat="44.57976960917283" lon="10.48210521225391"><ele>440.66666666666663</ele><time>2026-04-12T10:38:06Z</time></trkpt><trkpt lat="44.57971229628941" lon="10.482183371421595"><ele>440.0</ele><time>2026-04-12T10:38:08Z</time></trkpt><trkpt lat="44.57967173060092" lon="10.482281959981464"><ele>436.8</ele><time>2026-04-12T10:38:10Z</time></trkpt><trkpt lat="44.57966679266548" lon="10.482412230913557"><ele>433.6</ele><time>2026-04-12T10:38:13Z</time></trkpt><trkpt lat="44.57966161590313" lon="10.482503971175005"><ele>430.4</ele><time>2026-04-12T10:38:15Z</time></trkpt><trkpt lat="44.579642797086855" lon="10.482588770211366"><ele>427.2</ele><time>2026-04-12T10:38:18Z</time></trkpt><trkpt lat="44.579611369667724" lon="10.482839995224742"><ele>424.0</ele><time>2026-04-12T10:38:21Z</time></trkpt><trkpt lat="44.57960189945811" lon="10.482928788844973"><ele>420.79999999999995</ele><time>2026-04-12T10:38:22Z</time></trkpt><trkpt lat="44.57957821104722" lon="10.483067968336753"><ele>417.59999999999997</ele><time>2026-04-12T10:38:24Z</time></trkpt><trkpt lat="44.579550426695576" lon="10.483222878088482"><ele>414.4</ele><time>2026-04-12T10:38:26Z</time></trkpt><trkpt lat="44.57952043155344" lon="10.483376452669967"><ele>411.2</ele><time>2026-04-12T10:38:28Z</time></trkpt><trkpt lat="44.579492558687186" lon="10.483512567539721"><ele>408.0</ele><time>2026-04-12T10:38:30Z</time></trkpt><trkpt lat="44.579457873242696" lon="10.48366028322128"><ele>404.25</ele><time>2026-04-12T10:38:32Z</time></trkpt><trkpt lat="44.57941294193242" lon="10.4837909331237"><ele>400.5</ele><time>2026-04-12T10:38:34Z</time></trkpt><trkpt lat="44.57935735567274" lon="10.483945399778737"><ele>396.75</ele><time>2026-04-12T10:38:36Z</time></trkpt><trkpt lat="44.5793029912617" lon="10.484095866144335"><ele>393.0</ele><time>2026-04-12T10:38:38Z</time></trkpt><trkpt lat="44.57924680799752" lon="10.484241176168856"><ele>393.0</ele><time>2026-04-12T10:38:40Z</time></trkpt><trkpt lat="44.57922844508101" lon="10.484343294605276"><ele>393.0</ele><time>2026-04-12T10:38:41Z</time></trkpt><trkpt lat="44.579175624535" lon="10.484466737848999"><ele>393.0</ele><time>2026-04-12T10:38:43Z</time></trkpt><trkpt lat="44.579125977282985" lon="10.484597508308124"><ele>393.0</ele><time>2026-04-12T10:38:45Z</time></trkpt><trkpt lat="44.57907683045017" lon="10.484725271274735"><ele>393.0</ele><time>2026-04-12T10:38:47Z</time></trkpt><trkpt lat="44.57905027239826" lon="10.48483550226533"><ele>390.79999999999995</ele><time>2026-04-12T10:38:49Z</time></trkpt><trkpt lat="44.57902499656787" lon="10.484956633041447"><ele>388.6</ele><time>2026-04-12T10:38:51Z</time></trkpt><trkpt lat="44.5789538024007" lon="10.485086097504517"><ele>386.4</ele><time>2026-04-12T10:38:53Z</time></trkpt><trkpt lat="44.578872579697396" lon="10.485231226110626"><ele>384.20000000000005</ele><time>2026-04-12T10:38:55Z</time></trkpt><trkpt lat="44.57884907239217" lon="10.48532088452518"><ele>382.0</ele><time>2026-04-12T10:38:56Z</time></trkpt><trkpt lat="44.57884695149552" lon="10.48546751305471"><ele>379.20000000000005</ele><time>2026-04-12T10:38:58Z</time></trkpt><trkpt lat="44.57879253040245" lon="10.485592268223934"><ele>376.4</ele><time>2026-04-12T10:39:01Z</time></trkpt><trkpt lat="44.57875250470441" lon="10.48566235499924"><ele>373.6</ele><time>2026-04-12T10:39:03Z</time></trkpt><trkpt lat="44.578699140019445" lon="10.485737744996765"><ele>370.79999999999995</ele><time>2026-04-12T10:39:04Z</time></trkpt><trkpt lat="44.578556148573966" lon="10.485860908854"><ele>368.0</ele><time>2026-04-12T10:39:07Z</time></trkpt><trkpt lat="44.5785078836978" lon="10.485925898023979"><ele>366.1666666666667</ele><time>2026-04-12T10:39:08.999Z</time></trkpt><trkpt lat="44.57844504524596" lon="10.485995879229243"><ele>364.33333333333337</ele><time>2026-04-12T10:39:10.999Z</time></trkpt><trkpt lat="44.57841135955016" lon="10.486090392820582"><ele>362.5</ele><time>2026-04-12T10:39:12.999Z</time></trkpt><trkpt lat="44.5783859173442" lon="10.486176778026083"><ele>360.6666666666667</ele><time>2026-04-12T10:39:15.999Z</time></trkpt><trkpt lat="44.578364924421976" lon="10.486261271181393"><ele>358.8333333333333</ele><time>2026-04-12T10:39:18.999Z</time></trkpt><trkpt lat="44.578328768339766" lon="10.486371710976139"><ele>357.0</ele><time>2026-04-12T10:39:20.999Z</time></trkpt><trkpt lat="44.5782950717556" lon="10.48648062241676"><ele>355.8333333333333</ele><time>2026-04-12T10:39:22.999Z</time></trkpt><trkpt lat="44.57824437593502" lon="10.486599745835607"><ele>354.6666666666667</ele><time>2026-04-12T10:39:24.999Z</time></trkpt><trkpt lat="44.5781795280677" lon="10.48671110261075"><ele>353.5</ele><time>2026-04-12T10:39:26.999Z</time></trkpt><trkpt lat="44.57812785967928" lon="10.486790608434207"><ele>352.33333333333337</ele><time>2026-04-12T10:39:29.999Z</time></trkpt><trkpt lat="44.57808220208399" lon="10.486855396173087"><ele>351.1666666666667</ele><time>2026-04-12T10:39:30.999Z</time></trkpt><trkpt lat="44.577987147259535" lon="10.486892988838981"><ele>350.0</ele><time>2026-04-12T10:39:32.999Z</time></trkpt><trkpt lat="44.57790099713594" lon="10.486862642428187"><ele>346.5</ele><time>2026-04-12T10:39:34.999Z</time></trkpt><trkpt lat="44.577829946836914" lon="10.48679964960696"><ele>343.0</ele><time>2026-04-12T10:39:35.999Z</time></trkpt><trkpt lat="44.57777057433165" lon="10.486727004579016"><ele>339.5</ele><time>2026-04-12T10:39:36.999Z</time></trkpt><trkpt lat="44.57774358706734" lon="10.486636801528622"><ele>336.0</ele><time>2026-04-12T10:39:37.999Z</time></trkpt><trkpt lat="44.57768885697042" lon="10.486492238353053"><ele>332.5</ele><time>2026-04-12T10:39:39.999Z</time></trkpt><trkpt lat="44.577694000570766" lon="10.486402126177387"><ele>329.0</ele><time>2026-04-12T10:39:40.999Z</time></trkpt><trkpt lat="44.577691960528384" lon="10.486302275036111"><ele>329.33333333333337</ele><time>2026-04-12T10:39:41.999Z</time></trkpt><trkpt lat="44.57768839434619" lon="10.486207889180413"><ele>329.6666666666667</ele><time>2026-04-12T10:39:43Z</time></trkpt><trkpt lat="44.577677520420515" lon="10.48611941234887"><ele>330.0</ele><time>2026-04-12T10:39:44Z</time></trkpt><trkpt lat="44.57764259310776" lon="10.485946509554669"><ele>330.3333333333333</ele><time>2026-04-12T10:39:46Z</time></trkpt><trkpt lat="44.577613752217445" lon="10.48580705611836"><ele>330.66666666666663</ele><time>2026-04-12T10:39:48Z</time></trkpt><trkpt lat="44.5775804564621" lon="10.485725525060188"><ele>331.0</ele><time>2026-04-12T10:39:50Z</time></trkpt><trkpt lat="44.57748534057297" lon="10.48565049006485"><ele>331.0</ele><time>2026-04-12T10:39:53Z</time></trkpt><trkpt lat="44.57739274481713" lon="10.485583831119737"><ele>331.0</ele><time>2026-04-12T10:39:55Z</time></trkpt><trkpt lat="44.577338269484656" lon="10.485535419419673"><ele>331.0</ele><time>2026-04-12T10:39:57Z</time></trkpt><trkpt lat="44.57727302503438" lon="10.485480603204726"><ele>331.0</ele><time>2026-04-12T10:40:01Z</time></trkpt><trkpt lat="44.577212709876775" lon="10.485431368300308"><ele>331.0</ele><time>2026-04-12T10:40:06Z</time></trkpt><trkpt lat="44.577131188110215" lon="10.48542156513118"><ele>331.0</ele><time>2026-04-12T10:40:09Z</time></trkpt><trkpt lat="44.5770534957829" lon="10.485440698099618"><ele>327.0</ele><time>2026-04-12T10:40:11Z</time></trkpt><trkpt lat="44.57699068114612" lon="10.485474674711169"><ele>323.0</ele><time>2026-04-12T10:40:13Z</time></trkpt><trkpt lat="44.576928309912084" lon="10.485522733464766"><ele>319.0</ele><time>2026-04-12T10:40:15Z</time></trkpt><trkpt lat="44.57687844375108" lon="10.48558727889042"><ele>315.0</ele><time>2026-04-12T10:40:18Z</time></trkpt><trkpt lat="44.57681686901288" lon="10.485642438007245"><ele>311.0</ele><time>2026-04-12T10:40:19Z</time></trkpt><trkpt lat="44.576750979992475" lon="10.485705307710075"><ele>307.0</ele><time>2026-04-12T10:40:21Z</time></trkpt><trkpt lat="44.576663378689815" lon="10.485769807920232"><ele>307.0</ele><time>2026-04-12T10:40:23Z</time></trkpt><trkpt lat="44.576599538077545" lon="10.485798584719948"><ele>307.0</ele><time>2026-04-12T10:40:24Z</time></trkpt><trkpt lat="44.57653333604361" lon="10.485815155862829"><ele>307.0</ele><time>2026-04-12T10:40:25Z</time></trkpt><trkpt lat="44.57646603980676" lon="10.485815935798634"><ele>307.0</ele><time>2026-04-12T10:40:26Z</time></trkpt><trkpt lat="44.57644670103635" lon="10.485712792098838"><ele>307.0</ele><time>2026-04-12T10:40:30Z</time></trkpt><trkpt lat="44.57640980823241" lon="10.485639221086394"><ele>307.0</ele><time>2026-04-12T10:40:32Z</time></trkpt><trkpt lat="44.5763011226449" lon="10.485541845362716"><ele>307.0</ele><time>2026-04-12T10:40:34Z</time></trkpt><trkpt lat="44.57618693893738" lon="10.485502816318004"><ele>307.0</ele><time>2026-04-12T10:40:36Z</time></trkpt><trkpt lat="44.57607728768699" lon="10.485582495110306"><ele>307.0</ele><time>2026-04-12T10:40:38Z</time></trkpt><trkpt lat="44.57596658565262" lon="10.48565991659187"><ele>307.0</ele><time>2026-04-12T10:40:40Z</time></trkpt><trkpt lat="44.575912198549055" lon="10.485720655284165"><ele>307.0</ele><time>2026-04-12T10:40:41Z</time></trkpt><trkpt lat="44.57584993981245" lon="10.48579129227254"><ele>303.66666666666663</ele><time>2026-04-12T10:40:42Z</time></trkpt><trkpt lat="44.57578855859822" lon="10.485851275722805"><ele>300.3333333333333</ele><time>2026-04-12T10:40:43Z</time></trkpt><trkpt lat="44.57572287173013" lon="10.48591286899732"><ele>297.0</ele><time>2026-04-12T10:40:44Z</time></trkpt><trkpt lat="44.57566534704792" lon="10.48597680344186"><ele>293.6666666666667</ele><time>2026-04-12T10:40:45Z</time></trkpt><trkpt lat="44.57560586270091" lon="10.486100763030826"><ele>290.33333333333337</ele><time>2026-04-12T10:40:47Z</time></trkpt><trkpt lat="44.57558338597684" lon="10.486207413516457"><ele>287.0</ele><time>2026-04-12T10:40:49Z</time></trkpt><trkpt lat="44.575566436054075" lon="10.486293285358602"><ele>287.0</ele><time>2026-04-12T10:40:51Z</time></trkpt><trkpt lat="44.575469591214485" lon="10.486179078744447"><ele>287.0</ele><time>2026-04-12T10:41:36Z</time></trkpt><trkpt lat="44.57541460212817" lon="10.486044543288557"><ele>287.0</ele><time>2026-04-12T10:41:37Z</time></trkpt><trkpt lat="44.57533601469916" lon="10.485881224198286"><ele>287.0</ele><time>2026-04-12T10:41:38Z</time></trkpt><trkpt lat="44.57525712131546" lon="10.485704476899752"><ele>286.75</ele><time>2026-04-12T10:41:39Z</time></trkpt><trkpt lat="44.575188799405865" lon="10.485520370221888"><ele>286.5</ele><time>2026-04-12T10:41:40Z</time></trkpt><trkpt lat="44.57512899486122" lon="10.485355464223973"><ele>286.25</ele><time>2026-04-12T10:41:41Z</time></trkpt><trkpt lat="44.575092748985675" lon="10.485179936913068"><ele>286.0</ele><time>2026-04-12T10:41:42Z</time></trkpt><trkpt lat="44.57505530071915" lon="10.484975998412848"><ele>286.0</ele><time>2026-04-12T10:41:43Z</time></trkpt><trkpt lat="44.575004321914776" lon="10.484756462413289"><ele>286.0</ele><time>2026-04-12T10:41:44Z</time></trkpt><trkpt lat="44.57496056559291" lon="10.484499000761447"><ele>286.0</ele><time>2026-04-12T10:41:45Z</time></trkpt><trkpt lat="44.57491097638918" lon="10.484202925178634"><ele>287.3333333333333</ele><time>2026-04-12T10:41:46Z</time></trkpt><trkpt lat="44.574856633830414" lon="10.483896558248022"><ele>288.6666666666667</ele><time>2026-04-12T10:41:47Z</time></trkpt><trkpt lat="44.574816881126274" lon="10.483636662335568"><ele>290.0</ele><time>2026-04-12T10:41:48Z</time></trkpt><trkpt lat="44.57478352172547" lon="10.483406113267803"><ele>290.0</ele><time>2026-04-12T10:41:49Z</time></trkpt><trkpt lat="44.57475389871992" lon="10.483207782951922"><ele>290.0</ele><time>2026-04-12T10:41:50Z</time></trkpt><trkpt lat="44.5747275324963" lon="10.483036821146602"><ele>290.0</ele><time>2026-04-12T10:41:51Z</time></trkpt><trkpt lat="44.57470286656057" lon="10.482883390674756"><ele>290.0</ele><time>2026-04-12T10:41:52Z</time></trkpt><trkpt lat="44.574666295394515" lon="10.482748657814568"><ele>290.33333333333337</ele><time>2026-04-12T10:41:53Z</time></trkpt><trkpt lat="44.57462099644433" lon="10.482632661511689"><ele>290.6666666666667</ele><time>2026-04-12T10:41:54Z</time></trkpt><trkpt lat="44.57456197042709" lon="10.482542009650679"><ele>291.0</ele><time>2026-04-12T10:41:55Z</time></trkpt><trkpt lat="44.57449576023507" lon="10.482473286025732"><ele>291.3333333333333</ele><time>2026-04-12T10:41:56Z</time></trkpt><trkpt lat="44.57443687839337" lon="10.482407720646556"><ele>291.66666666666663</ele><time>2026-04-12T10:41:57Z</time></trkpt><trkpt lat="44.57437709386383" lon="10.482351101093537"><ele>292.0</ele><time>2026-04-12T10:41:58Z</time></trkpt><trkpt lat="44.57432000581156" lon="10.482295057780268"><ele>292.2</ele><time>2026-04-12T10:41:59Z</time></trkpt><trkpt lat="44.57422308050805" lon="10.482213981671459"><ele>292.4</ele><time>2026-04-12T10:42:01Z</time></trkpt><trkpt lat="44.57417907901344" lon="10.482147118322962"><ele>292.6</ele><time>2026-04-12T10:42:02Z</time></trkpt><trkpt lat="44.5741122023563" lon="10.482051497025743"><ele>292.8</ele><time>2026-04-12T10:42:03Z</time></trkpt><trkpt lat="44.57403357062409" lon="10.481910309852958"><ele>293.0</ele><time>2026-04-12T10:42:04Z</time></trkpt><trkpt lat="44.57395583943167" lon="10.48174144363538"><ele>293.0</ele><time>2026-04-12T10:42:05Z</time></trkpt><trkpt lat="44.57387269793418" lon="10.481556732806526"><ele>293.0</ele><time>2026-04-12T10:42:06Z</time></trkpt><trkpt lat="44.573788248188976" lon="10.48136868913937"><ele>293.0</ele><time>2026-04-12T10:42:07Z</time></trkpt><trkpt lat="44.573723003333825" lon="10.48117434115403"><ele>294.75</ele><time>2026-04-12T10:42:08Z</time></trkpt><trkpt lat="44.573641145196845" lon="10.48102655099382"><ele>296.5</ele><time>2026-04-12T10:42:09Z</time></trkpt><trkpt lat="44.57357543001997" lon="10.480872643922904"><ele>298.25</ele><time>2026-04-12T10:42:10Z</time></trkpt><trkpt lat="44.573514226807156" lon="10.480728851061482"><ele>300.0</ele><time>2026-04-12T10:42:11Z</time></trkpt><trkpt lat="44.57345866631327" lon="10.48059414244754"><ele>300.0</ele><time>2026-04-12T10:42:12Z</time></trkpt><trkpt lat="44.57339685322386" lon="10.480480813114477"><ele>300.0</ele><time>2026-04-12T10:42:13Z</time></trkpt><trkpt lat="44.57333259467484" lon="10.480349414299729"><ele>300.0</ele><time>2026-04-12T10:42:14Z</time></trkpt><trkpt lat="44.573254341659386" lon="10.480260062074331"><ele>300.0</ele><time>2026-04-12T10:42:15Z</time></trkpt><trkpt lat="44.57316401713956" lon="10.480182655140274"><ele>300.0</ele><time>2026-04-12T10:42:16Z</time></trkpt><trkpt lat="44.57306803874831" lon="10.48010632757708"><ele>300.75</ele><time>2026-04-12T10:42:17Z</time></trkpt><trkpt lat="44.572978161283636" lon="10.4800167775068"><ele>301.5</ele><time>2026-04-12T10:42:18Z</time></trkpt><trkpt lat="44.572879437775796" lon="10.4799355573186"><ele>302.25</ele><time>2026-04-12T10:42:19Z</time></trkpt><trkpt lat="44.57277624895222" lon="10.479848934995218"><ele>303.0</ele><time>2026-04-12T10:42:20Z</time></trkpt><trkpt lat="44.572667152716924" lon="10.479777055092157"><ele>303.0</ele><time>2026-04-12T10:42:21Z</time></trkpt><trkpt lat="44.57256572024009" lon="10.47968487698507"><ele>303.0</ele><time>2026-04-12T10:42:22Z</time></trkpt><trkpt lat="44.57246194315719" lon="10.479593609410655"><ele>303.0</ele><time>2026-04-12T10:42:23Z</time></trkpt><trkpt lat="44.572378049932354" lon="10.479491822251033"><ele>303.0</ele><time>2026-04-12T10:42:24Z</time></trkpt><trkpt lat="44.572286675514" lon="10.479438154079677"><ele>303.0</ele><time>2026-04-12T10:42:25Z</time></trkpt><trkpt lat="44.57222194634568" lon="10.479360741402234"><ele>303.0</ele><time>2026-04-12T10:42:26Z</time></trkpt><trkpt lat="44.572166327328915" lon="10.479316167014172"><ele>303.0</ele><time>2026-04-12T10:42:27Z</time></trkpt><trkpt lat="44.572096122657705" lon="10.479258451996955"><ele>303.0</ele><time>2026-04-12T10:42:29Z</time></trkpt><trkpt lat="44.572001589252054" lon="10.47927350340239"><ele>303.0</ele><time>2026-04-12T10:42:55Z</time></trkpt><trkpt lat="44.57192512549128" lon="10.479226713507458"><ele>303.0</ele><time>2026-04-12T10:42:56Z</time></trkpt><trkpt lat="44.571830067671605" lon="10.479163235881572"><ele>303.3333333333333</ele><time>2026-04-12T10:42:57Z</time></trkpt><trkpt lat="44.57175198910384" lon="10.479117914533957"><ele>303.6666666666667</ele><time>2026-04-12T10:42:58Z</time></trkpt><trkpt lat="44.57168029477163" lon="10.479107784294015"><ele>304.0</ele><time>2026-04-12T10:42:59Z</time></trkpt><trkpt lat="44.571609383987486" lon="10.479102610357556"><ele>304.33333333333337</ele><time>2026-04-12T10:43:00Z</time></trkpt><trkpt lat="44.57154653328752" lon="10.479082183765522"><ele>304.6666666666667</ele><time>2026-04-12T10:43:01Z</time></trkpt><trkpt lat="44.57146705861137" lon="10.47901551796536"><ele>305.0</ele><time>2026-04-12T10:43:03Z</time></trkpt><trkpt lat="44.571402882042165" lon="10.47893062179646"><ele>305.0</ele><time>2026-04-12T10:43:05Z</time></trkpt><trkpt lat="44.57137318029432" lon="10.478824515026636"><ele>305.0</ele><time>2026-04-12T10:43:07Z</time></trkpt><trkpt lat="44.571342551229755" lon="10.478728069175945"><ele>305.0</ele><time>2026-04-12T10:43:08Z</time></trkpt><trkpt lat="44.571290946279525" lon="10.478644403829769"><ele>305.0</ele><time>2026-04-12T10:43:09Z</time></trkpt><trkpt lat="44.571239416130666" lon="10.478587088490752"><ele>305.0</ele><time>2026-04-12T10:43:10Z</time></trkpt><trkpt lat="44.57116681433282" lon="10.478528516880868"><ele>305.0</ele><time>2026-04-12T10:43:12Z</time></trkpt><trkpt lat="44.571083280998536" lon="10.47844600533206"><ele>305.6666666666667</ele><time>2026-04-12T10:43:16Z</time></trkpt><trkpt lat="44.571018103156575" lon="10.478458847646767"><ele>306.33333333333337</ele><time>2026-04-12T10:43:19Z</time></trkpt><trkpt lat="44.57098466664024" lon="10.478536579834694"><ele>307.0</ele><time>2026-04-12T10:43:21Z</time></trkpt><trkpt lat="44.57088106067724" lon="10.478499476044352"><ele>307.6666666666667</ele><time>2026-04-12T10:43:23Z</time></trkpt><trkpt lat="44.57079420774773" lon="10.478439048981194"><ele>308.3333333333333</ele><time>2026-04-12T10:43:24Z</time></trkpt><trkpt lat="44.570722760794126" lon="10.478358498348792"><ele>309.0</ele><time>2026-04-12T10:43:25Z</time></trkpt><trkpt lat="44.57060887080514" lon="10.47826947473337"><ele>309.0</ele><time>2026-04-12T10:43:27Z</time></trkpt><trkpt lat="44.57056729863363" lon="10.478199722873793"><ele>309.0</ele><time>2026-04-12T10:43:30Z</time></trkpt><trkpt lat="44.57057986323117" lon="10.478304370007546"><ele>309.0</ele><time>2026-04-12T10:43:34Z</time></trkpt><trkpt lat="44.57054803144949" lon="10.478391546846504"><ele>309.0</ele><time>2026-04-12T10:43:36Z</time></trkpt><trkpt lat="44.570458202657136" lon="10.478443426637627"><ele>309.0</ele><time>2026-04-12T10:43:38Z</time></trkpt><trkpt lat="44.57039729077358" lon="10.478483128239896"><ele>309.0</ele><time>2026-04-12T10:43:39Z</time></trkpt><trkpt lat="44.57031424878632" lon="10.478512230929452"><ele>310.3333333333333</ele><time>2026-04-12T10:43:41Z</time></trkpt><trkpt lat="44.57023875672932" lon="10.478525227929262"><ele>311.6666666666667</ele><time>2026-04-12T10:43:42Z</time></trkpt><trkpt lat="44.57017663938829" lon="10.478548740682452"><ele>313.0</ele><time>2026-04-12T10:43:43Z</time></trkpt><trkpt lat="44.570109486504975" lon="10.478668768591142"><ele>314.33333333333337</ele><time>2026-04-12T10:43:45Z</time></trkpt><trkpt lat="44.57005210832838" lon="10.478755105632274"><ele>315.6666666666667</ele><time>2026-04-12T10:43:46Z</time></trkpt><trkpt lat="44.56999727766647" lon="10.478863604266362"><ele>317.0</ele><time>2026-04-12T10:43:47Z</time></trkpt><trkpt lat="44.569923097606356" lon="10.478944955957628"><ele>318.8</ele><time>2026-04-12T10:43:48Z</time></trkpt><trkpt lat="44.569875049429285" lon="10.479017265960836"><ele>320.6</ele><time>2026-04-12T10:43:49Z</time></trkpt><trkpt lat="44.56982170042864" lon="10.479103165647416"><ele>322.40000000000003</ele><time>2026-04-12T10:43:50Z</time></trkpt><trkpt lat="44.56972819866104" lon="10.479257330400289"><ele>324.2</ele><time>2026-04-12T10:43:51Z</time></trkpt><trkpt lat="44.56963289355665" lon="10.479385244238832"><ele>326.0</ele><time>2026-04-12T10:43:52Z</time></trkpt><trkpt lat="44.56954401380632" lon="10.479510538702957"><ele>330.6</ele><time>2026-04-12T10:43:53Z</time></trkpt><trkpt lat="44.56947487403008" lon="10.47964718958893"><ele>335.20000000000005</ele><time>2026-04-12T10:43:54Z</time></trkpt><trkpt lat="44.56942815247833" lon="10.47973643942965"><ele>339.79999999999995</ele><time>2026-04-12T10:43:55Z</time></trkpt><trkpt lat="44.56937276274257" lon="10.479803609820765"><ele>344.4</ele><time>2026-04-12T10:43:57Z</time></trkpt><trkpt lat="44.56932069629166" lon="10.479862351914797"><ele>349.0</ele><time>2026-04-12T10:44:09Z</time></trkpt><trkpt lat="44.56922066128648" lon="10.480068791325206"><ele>349.0</ele><time>2026-04-12T10:44:17Z</time></trkpt><trkpt lat="44.56914910040417" lon="10.480084380016073"><ele>349.0</ele><time>2026-04-12T10:44:20Z</time></trkpt><trkpt lat="44.56909129064323" lon="10.480178234673426"><ele>349.0</ele><time>2026-04-12T10:44:22Z</time></trkpt><trkpt lat="44.569023029793996" lon="10.480294236344449"><ele>349.0</ele><time>2026-04-12T10:44:24Z</time></trkpt><trkpt lat="44.56894430105828" lon="10.480419299827417"><ele>349.0</ele><time>2026-04-12T10:44:26Z</time></trkpt><trkpt lat="44.56886493368741" lon="10.48053668164279"><ele>351.0</ele><time>2026-04-12T10:44:28Z</time></trkpt><trkpt lat="44.56882442373717" lon="10.48060775961568"><ele>353.0</ele><time>2026-04-12T10:44:29Z</time></trkpt><trkpt lat="44.5687697938711" lon="10.480689765529558"><ele>355.0</ele><time>2026-04-12T10:44:30Z</time></trkpt><trkpt lat="44.56869024536285" lon="10.480752777459434"><ele>357.0</ele><time>2026-04-12T10:44:31Z</time></trkpt><trkpt lat="44.56861453255774" lon="10.480826104281897"><ele>359.0</ele><time>2026-04-12T10:44:32Z</time></trkpt><trkpt lat="44.568551809413734" lon="10.480891033103882"><ele>361.0</ele><time>2026-04-12T10:44:33Z</time></trkpt><trkpt lat="44.56847358380175" lon="10.48096435648566"><ele>364.5</ele><time>2026-04-12T10:44:34Z</time></trkpt><trkpt lat="44.568371720869465" lon="10.481068473974727"><ele>368.0</ele><time>2026-04-12T10:44:35Z</time></trkpt><trkpt lat="44.568272466947604" lon="10.481177669093622"><ele>371.5</ele><time>2026-04-12T10:44:36Z</time></trkpt><trkpt lat="44.5681808023372" lon="10.481263108289616"><ele>375.0</ele><time>2026-04-12T10:44:37Z</time></trkpt><trkpt lat="44.5680751062744" lon="10.481338222038598"><ele>377.0</ele><time>2026-04-12T10:44:38Z</time></trkpt><trkpt lat="44.5679863373897" lon="10.481398702501505"><ele>379.0</ele><time>2026-04-12T10:44:39Z</time></trkpt><trkpt lat="44.56791354249694" lon="10.48145365600016"><ele>381.0</ele><time>2026-04-12T10:44:40Z</time></trkpt><trkpt lat="44.567845477899965" lon="10.4814981688785"><ele>383.0</ele><time>2026-04-12T10:44:41Z</time></trkpt><trkpt lat="44.567743661334525" lon="10.481529533361597"><ele>385.0</ele><time>2026-04-12T10:44:43Z</time></trkpt><trkpt lat="44.56765289857898" lon="10.481533708996432"><ele>389.0</ele><time>2026-04-12T10:44:45Z</time></trkpt><trkpt lat="44.56754304976635" lon="10.481566850724604"><ele>393.0</ele><time>2026-04-12T10:44:47Z</time></trkpt><trkpt lat="44.567459726400216" lon="10.481610539722597"><ele>397.0</ele><time>2026-04-12T10:44:49Z</time></trkpt><trkpt lat="44.56731306450843" lon="10.481663400087577"><ele>401.0</ele><time>2026-04-12T10:44:53Z</time></trkpt><trkpt lat="44.567164164644225" lon="10.481711995839143"><ele>400.99999999999994</ele><time>2026-04-12T10:44:54Z</time></trkpt><trkpt lat="44.56709424531645" lon="10.481722372137076"><ele>401.0</ele><time>2026-04-12T10:44:55Z</time></trkpt><trkpt lat="44.56701874346805" lon="10.481724548102253"><ele>401.0</ele><time>2026-04-12T10:44:56Z</time></trkpt><trkpt lat="44.56695350192402" lon="10.481713259889418"><ele>401.0</ele><time>2026-04-12T10:44:57Z</time></trkpt><trkpt lat="44.566848789124585" lon="10.48165517789227"><ele>400.99999999999994</ele><time>2026-04-12T10:44:59Z</time></trkpt><trkpt lat="44.566794990003615" lon="10.481605201328462"><ele>401.0</ele><time>2026-04-12T10:45:00Z</time></trkpt><trkpt lat="44.56671879573442" lon="10.48156581932159"><ele>402.8</ele><time>2026-04-12T10:45:01Z</time></trkpt><trkpt lat="44.566627196374284" lon="10.481518490218084"><ele>404.6</ele><time>2026-04-12T10:45:02Z</time></trkpt><trkpt lat="44.56650282850598" lon="10.481464253932117"><ele>406.4</ele><time>2026-04-12T10:45:03Z</time></trkpt><trkpt lat="44.56640304004556" lon="10.481426557007241"><ele>408.2</ele><time>2026-04-12T10:45:04Z</time></trkpt><trkpt lat="44.56630371335454" lon="10.481403480629051"><ele>410.0</ele><time>2026-04-12T10:45:05Z</time></trkpt><trkpt lat="44.566195092704426" lon="10.4813867256175"><ele>409.8333333333333</ele><time>2026-04-12T10:45:06Z</time></trkpt><trkpt lat="44.56610424305378" lon="10.481400521510045"><ele>409.66666666666663</ele><time>2026-04-12T10:45:07Z</time></trkpt><trkpt lat="44.56602532666329" lon="10.481443585287707"><ele>409.5</ele><time>2026-04-12T10:45:08Z</time></trkpt><trkpt lat="44.565954376559176" lon="10.481487508823378"><ele>409.33333333333337</ele><time>2026-04-12T10:45:09Z</time></trkpt><trkpt lat="44.56588027781922" lon="10.48153378991486"><ele>409.1666666666667</ele><time>2026-04-12T10:45:10Z</time></trkpt><trkpt lat="44.565813265961005" lon="10.481538050359013"><ele>409.0</ele><time>2026-04-12T10:45:11Z</time></trkpt><trkpt lat="44.565750139881175" lon="10.481518544438954"><ele>409.0</ele><time>2026-04-12T10:45:12Z</time></trkpt><trkpt lat="44.565629046763576" lon="10.481517429948232"><ele>409.0</ele><time>2026-04-12T10:45:15Z</time></trkpt><trkpt lat="44.56553506266214" lon="10.4816582147862"><ele>409.0</ele><time>2026-04-12T10:45:17Z</time></trkpt><trkpt lat="44.5654778008392" lon="10.481764698707748"><ele>409.0</ele><time>2026-04-12T10:45:18Z</time></trkpt><trkpt lat="44.56542491567037" lon="10.481831981500715"><ele>409.0</ele><time>2026-04-12T10:45:19Z</time></trkpt><trkpt lat="44.565332249833226" lon="10.481968497255815"><ele>409.1666666666667</ele><time>2026-04-12T10:45:21Z</time></trkpt><trkpt lat="44.56528533338091" lon="10.482051925911662"><ele>409.33333333333337</ele><time>2026-04-12T10:45:22Z</time></trkpt><trkpt lat="44.56524199246598" lon="10.48213861384747"><ele>409.5</ele><time>2026-04-12T10:45:23Z</time></trkpt><trkpt lat="44.565202027308054" lon="10.482245977818742"><ele>409.66666666666663</ele><time>2026-04-12T10:45:24Z</time></trkpt><trkpt lat="44.56513748958423" lon="10.48230372475465"><ele>409.8333333333333</ele><time>2026-04-12T10:45:26Z</time></trkpt><trkpt lat="44.565051152933634" lon="10.48230829550418"><ele>410.0</ele><time>2026-04-12T10:45:27Z</time></trkpt><trkpt lat="44.56495951680325" lon="10.482291704564332"><ele>409.99999999999994</ele><time>2026-04-12T10:45:28Z</time></trkpt><trkpt lat="44.56488811077139" lon="10.482294942185876"><ele>410.0</ele><time>2026-04-12T10:45:29Z</time></trkpt><trkpt lat="44.56478581876262" lon="10.482253463996551"><ele>410.0</ele><time>2026-04-12T10:45:31Z</time></trkpt><trkpt lat="44.56470444299732" lon="10.482259785466173"><ele>410.0</ele><time>2026-04-12T10:45:32Z</time></trkpt><trkpt lat="44.56460740435088" lon="10.48224154859642"><ele>409.99999999999994</ele><time>2026-04-12T10:45:33Z</time></trkpt><trkpt lat="44.56452009170004" lon="10.48222220648053"><ele>410.0</ele><time>2026-04-12T10:45:34Z</time></trkpt><trkpt lat="44.5644237819296" lon="10.482168995849937"><ele>410.0</ele><time>2026-04-12T10:45:36Z</time></trkpt><trkpt lat="44.56435573650581" lon="10.482186908073372"><ele>410.0</ele><time>2026-04-12T10:45:37Z</time></trkpt><trkpt lat="44.56425460192916" lon="10.482233015645312"><ele>410.0</ele><time>2026-04-12T10:45:38Z</time></trkpt><trkpt lat="44.564122848083954" lon="10.482290738129338"><ele>410.0</ele><time>2026-04-12T10:45:39Z</time></trkpt><trkpt lat="44.564050502412975" lon="10.482352589632624"><ele>410.0</ele><time>2026-04-12T10:45:40Z</time></trkpt><trkpt lat="44.563955352529014" lon="10.482407312145627"><ele>410.0</ele><time>2026-04-12T10:45:42Z</time></trkpt><trkpt lat="44.563885133657536" lon="10.482466148630818"><ele>410.0</ele><time>2026-04-12T10:45:43Z</time></trkpt><trkpt lat="44.56379257791083" lon="10.482516450477872"><ele>410.0</ele><time>2026-04-12T10:45:44Z</time></trkpt><trkpt lat="44.56365875332013" lon="10.482625287428402"><ele>410.0</ele><time>2026-04-12T10:45:45Z</time></trkpt><trkpt lat="44.563537407928216" lon="10.48267414598802"><ele>410.0</ele><time>2026-04-12T10:45:46Z</time></trkpt><trkpt lat="44.56339723129991" lon="10.482753281454336"><ele>410.0</ele><time>2026-04-12T10:45:47Z</time></trkpt><trkpt lat="44.5633186666416" lon="10.482803169238203"><ele>410.0</ele><time>2026-04-12T10:45:48Z</time></trkpt><trkpt lat="44.56324573000127" lon="10.482856961335573"><ele>410.0</ele><time>2026-04-12T10:45:49Z</time></trkpt><trkpt lat="44.56316305642778" lon="10.48295222185283"><ele>410.0</ele><time>2026-04-12T10:45:50Z</time></trkpt><trkpt lat="44.563110334375466" lon="10.483057902909477"><ele>412.6</ele><time>2026-04-12T10:45:51Z</time></trkpt><trkpt lat="44.56306705939907" lon="10.483151217137035"><ele>415.2</ele><time>2026-04-12T10:45:52Z</time></trkpt><trkpt lat="44.56300733235153" lon="10.483265425992478"><ele>417.79999999999995</ele><time>2026-04-12T10:45:53Z</time></trkpt><trkpt lat="44.562971614339446" lon="10.483416162372112"><ele>420.4</ele><time>2026-04-12T10:45:54Z</time></trkpt><trkpt lat="44.56292743316142" lon="10.483543195440483"><ele>423.0</ele><time>2026-04-12T10:45:55Z</time></trkpt><trkpt lat="44.56286870181372" lon="10.483705717536608"><ele>422.25</ele><time>2026-04-12T10:45:56Z</time></trkpt><trkpt lat="44.56278649623894" lon="10.483904099451864"><ele>421.5</ele><time>2026-04-12T10:45:57Z</time></trkpt><trkpt lat="44.56274403727477" lon="10.484033397276132"><ele>420.75</ele><time>2026-04-12T10:45:58Z</time></trkpt><trkpt lat="44.56271847043369" lon="10.484161992234633"><ele>420.0</ele><time>2026-04-12T10:45:59Z</time></trkpt><trkpt lat="44.56268450301165" lon="10.484318197429012"><ele>420.0</ele><time>2026-04-12T10:46:00Z</time></trkpt><trkpt lat="44.56264575491609" lon="10.484484936898978"><ele>420.0</ele><time>2026-04-12T10:46:01Z</time></trkpt><trkpt lat="44.56262117947399" lon="10.48460907923583"><ele>420.0</ele><time>2026-04-12T10:46:02Z</time></trkpt><trkpt lat="44.56258437000638" lon="10.484732255825499"><ele>420.0</ele><time>2026-04-12T10:46:04Z</time></trkpt><trkpt lat="44.562652777074845" lon="10.484825047410553"><ele>420.0</ele><time>2026-04-12T10:46:38Z</time></trkpt><trkpt lat="44.56275062229391" lon="10.484779664515882"><ele>421.4</ele><time>2026-04-12T10:46:39Z</time></trkpt><trkpt lat="44.5628725767114" lon="10.484706488856588"><ele>422.8</ele><time>2026-04-12T10:46:40Z</time></trkpt><trkpt lat="44.5629631883703" lon="10.484672622989583"><ele>424.20000000000005</ele><time>2026-04-12T10:46:41Z</time></trkpt><trkpt lat="44.56305862541062" lon="10.48469422735574"><ele>425.6</ele><time>2026-04-12T10:46:42Z</time></trkpt><trkpt lat="44.5631437073566" lon="10.48477227332262"><ele>427.0</ele><time>2026-04-12T10:46:43Z</time></trkpt><trkpt lat="44.5632276831225" lon="10.484906230314952"><ele>427.0</ele><time>2026-04-12T10:46:44Z</time></trkpt><trkpt lat="44.5632993081383" lon="10.48507291922575"><ele>427.0</ele><time>2026-04-12T10:46:45Z</time></trkpt><trkpt lat="44.56338722258291" lon="10.485280939899008"><ele>427.0</ele><time>2026-04-12T10:46:46Z</time></trkpt><trkpt lat="44.56347613565863" lon="10.485482829119862"><ele>424.33333333333337</ele><time>2026-04-12T10:46:47Z</time></trkpt><trkpt lat="44.56354178511104" lon="10.485676704051624"><ele>421.66666666666663</ele><time>2026-04-12T10:46:48Z</time></trkpt><trkpt lat="44.5635955928681" lon="10.485881371995792"><ele>419.0</ele><time>2026-04-12T10:46:49Z</time></trkpt><trkpt lat="44.56361744373061" lon="10.48610273059705"><ele>417.75</ele><time>2026-04-12T10:46:50Z</time></trkpt><trkpt lat="44.563615533472586" lon="10.48629621682987"><ele>416.5</ele><time>2026-04-12T10:46:51Z</time></trkpt><trkpt lat="44.563608572411376" lon="10.486490521829026"><ele>415.25</ele><time>2026-04-12T10:46:52Z</time></trkpt><trkpt lat="44.56361505241038" lon="10.486668788637841"><ele>414.0</ele><time>2026-04-12T10:46:53Z</time></trkpt><trkpt lat="44.56361745087748" lon="10.486828642834995"><ele>414.0</ele><time>2026-04-12T10:46:54Z</time></trkpt><trkpt lat="44.56363280166137" lon="10.48697444303039"><ele>414.0</ele><time>2026-04-12T10:46:55Z</time></trkpt><trkpt lat="44.56369677553" lon="10.487089101715213"><ele>414.0</ele><time>2026-04-12T10:46:56Z</time></trkpt><trkpt lat="44.5637709898279" lon="10.487186279116717"><ele>414.0</ele><time>2026-04-12T10:46:57Z</time></trkpt><trkpt lat="44.56386227324149" lon="10.487287388114275"><ele>414.0</ele><time>2026-04-12T10:46:58Z</time></trkpt><trkpt lat="44.56396263634275" lon="10.487399478854309"><ele>413.5</ele><time>2026-04-12T10:46:59Z</time></trkpt><trkpt lat="44.564086102165405" lon="10.487493799745875"><ele>413.0</ele><time>2026-04-12T10:47:00Z</time></trkpt><trkpt lat="44.56418946911085" lon="10.487629110963509"><ele>412.5</ele><time>2026-04-12T10:47:01Z</time></trkpt><trkpt lat="44.56425625315395" lon="10.487790066120976"><ele>412.0</ele><time>2026-04-12T10:47:02Z</time></trkpt><trkpt lat="44.56429820488296" lon="10.487976239082242"><ele>412.0</ele><time>2026-04-12T10:47:03Z</time></trkpt><trkpt lat="44.564339145947464" lon="10.488165284025657"><ele>412.0</ele><time>2026-04-12T10:47:04Z</time></trkpt><trkpt lat="44.56438164078816" lon="10.488307092102405"><ele>412.0</ele><time>2026-04-12T10:47:05Z</time></trkpt><trkpt lat="44.564427701171105" lon="10.488429696555178"><ele>412.0</ele><time>2026-04-12T10:47:06Z</time></trkpt><trkpt lat="44.56451790152777" lon="10.488496615903406"><ele>415.5</ele><time>2026-04-12T10:47:07Z</time></trkpt><trkpt lat="44.564609176638896" lon="10.48855267988323"><ele>419.0</ele><time>2026-04-12T10:47:08Z</time></trkpt><trkpt lat="44.56473176088379" lon="10.488610664344975"><ele>422.5</ele><time>2026-04-12T10:47:09Z</time></trkpt><trkpt lat="44.56487491277499" lon="10.488656424344374"><ele>426.0</ele><time>2026-04-12T10:47:10Z</time></trkpt><trkpt lat="44.56499615219528" lon="10.488731203643773"><ele>422.5</ele><time>2026-04-12T10:47:11Z</time></trkpt><trkpt lat="44.56507334988106" lon="10.488906496220293"><ele>419.0</ele><time>2026-04-12T10:47:12Z</time></trkpt><trkpt lat="44.56517424320588" lon="10.489023500706892"><ele>415.5</ele><time>2026-04-12T10:47:13Z</time></trkpt><trkpt lat="44.565262398821574" lon="10.489132601928645"><ele>412.0</ele><time>2026-04-12T10:47:14Z</time></trkpt><trkpt lat="44.56535947625472" lon="10.489224073327637"><ele>413.20000000000005</ele><time>2026-04-12T10:47:15Z</time></trkpt><trkpt lat="44.56547372805187" lon="10.489243830052208"><ele>414.4</ele><time>2026-04-12T10:47:16Z</time></trkpt><trkpt lat="44.56557582942752" lon="10.489245812339831"><ele>415.6</ele><time>2026-04-12T10:47:17Z</time></trkpt><trkpt lat="44.56568469783262" lon="10.48920587557591"><ele>416.79999999999995</ele><time>2026-04-12T10:47:18Z</time></trkpt><trkpt lat="44.565787271837316" lon="10.489138663758416"><ele>418.0</ele><time>2026-04-12T10:47:19Z</time></trkpt><trkpt lat="44.56587893568355" lon="10.489084137179498"><ele>418.0</ele><time>2026-04-12T10:47:20Z</time></trkpt><trkpt lat="44.56596918070976" lon="10.489082756921405"><ele>418.0</ele><time>2026-04-12T10:47:21Z</time></trkpt><trkpt lat="44.566066261971" lon="10.489161340665307"><ele>418.0</ele><time>2026-04-12T10:47:22Z</time></trkpt><trkpt lat="44.56617898908308" lon="10.489280606074422"><ele>418.0</ele><time>2026-04-12T10:47:23Z</time></trkpt><trkpt lat="44.56626435742075" lon="10.489384312508173"><ele>419.59999999999997</ele><time>2026-04-12T10:47:24Z</time></trkpt><trkpt lat="44.56630882408692" lon="10.489490441308302"><ele>421.2</ele><time>2026-04-12T10:47:25Z</time></trkpt><trkpt lat="44.56629186979707" lon="10.489632102695063"><ele>422.8</ele><time>2026-04-12T10:47:26Z</time></trkpt><trkpt lat="44.566267292791494" lon="10.48978917401391"><ele>424.4</ele><time>2026-04-12T10:47:27Z</time></trkpt><trkpt lat="44.56620569484895" lon="10.489950429253023"><ele>426.0</ele><time>2026-04-12T10:47:28Z</time></trkpt><trkpt lat="44.56611724585062" lon="10.490110737818064"><ele>422.20000000000005</ele><time>2026-04-12T10:47:29Z</time></trkpt><trkpt lat="44.56605799853597" lon="10.49026836619264"><ele>418.40000000000003</ele><time>2026-04-12T10:47:30Z</time></trkpt><trkpt lat="44.565996485646544" lon="10.490397213081039"><ele>414.6</ele><time>2026-04-12T10:47:31Z</time></trkpt><trkpt lat="44.56594794640803" lon="10.490525167648567"><ele>410.8</ele><time>2026-04-12T10:47:32Z</time></trkpt><trkpt lat="44.56591395590112" lon="10.4906491299889"><ele>407.0</ele><time>2026-04-12T10:47:33Z</time></trkpt><trkpt lat="44.565903763653736" lon="10.490769121599053"><ele>407.0</ele><time>2026-04-12T10:47:34Z</time></trkpt><trkpt lat="44.56593543758141" lon="10.490897142752225"><ele>407.0</ele><time>2026-04-12T10:47:35Z</time></trkpt><trkpt lat="44.56599988181854" lon="10.49102607013162"><ele>407.0</ele><time>2026-04-12T10:47:36Z</time></trkpt><trkpt lat="44.56609331826212" lon="10.491145200933515"><ele>407.0</ele><time>2026-04-12T10:47:37Z</time></trkpt><trkpt lat="44.56619290984354" lon="10.491262930823464"><ele>405.3333333333333</ele><time>2026-04-12T10:47:38Z</time></trkpt><trkpt lat="44.56633071680081" lon="10.491359531025859"><ele>403.66666666666663</ele><time>2026-04-12T10:47:39Z</time></trkpt><trkpt lat="44.56650384726112" lon="10.491455131676402"><ele>402.0</ele><time>2026-04-12T10:47:40Z</time></trkpt><trkpt lat="44.566690466462866" lon="10.491557217065228"><ele>402.0</ele><time>2026-04-12T10:47:41Z</time></trkpt><trkpt lat="44.566852085726424" lon="10.491672998654707"><ele>402.0</ele><time>2026-04-12T10:47:42Z</time></trkpt><trkpt lat="44.5669903047281" lon="10.491797993132101"><ele>402.0</ele><time>2026-04-12T10:47:43Z</time></trkpt><trkpt lat="44.56709796966813" lon="10.491914789419546"><ele>401.5</ele><time>2026-04-12T10:47:44Z</time></trkpt><trkpt lat="44.567194156374406" lon="10.492026859226211"><ele>401.0</ele><time>2026-04-12T10:47:45Z</time></trkpt><trkpt lat="44.567243047158925" lon="10.492176210084363"><ele>400.5</ele><time>2026-04-12T10:47:46Z</time></trkpt><trkpt lat="44.56725884430306" lon="10.492338317800987"><ele>400.0</ele><time>2026-04-12T10:47:47Z</time></trkpt><trkpt lat="44.56728595831072" lon="10.492513558701257"><ele>400.0</ele><time>2026-04-12T10:47:48Z</time></trkpt><trkpt lat="44.56729108544651" lon="10.492678665478739"><ele>400.0</ele><time>2026-04-12T10:47:49Z</time></trkpt><trkpt lat="44.567334149596945" lon="10.492858624538254"><ele>400.0</ele><time>2026-04-12T10:47:50Z</time></trkpt><trkpt lat="44.56739772403577" lon="10.493081350959791"><ele>400.0</ele><time>2026-04-12T10:47:51Z</time></trkpt><trkpt lat="44.56745108565952" lon="10.493328989815003"><ele>399.0</ele><time>2026-04-12T10:47:52Z</time></trkpt><trkpt lat="44.56749207990003" lon="10.493581044117091"><ele>398.0</ele><time>2026-04-12T10:47:53Z</time></trkpt><trkpt lat="44.567525439185125" lon="10.493780892976746"><ele>397.0</ele><time>2026-04-12T10:47:54Z</time></trkpt><trkpt lat="44.567532548879804" lon="10.493944206423661"><ele>396.0</ele><time>2026-04-12T10:47:55Z</time></trkpt><trkpt lat="44.567538587242204" lon="10.494077770271652"><ele>396.0</ele><time>2026-04-12T10:47:56Z</time></trkpt><trkpt lat="44.567575624469164" lon="10.4941759030688"><ele>396.0</ele><time>2026-04-12T10:47:57Z</time></trkpt><trkpt lat="44.56765016292059" lon="10.49425472820723"><ele>396.0</ele><time>2026-04-12T10:47:58Z</time></trkpt><trkpt lat="44.56775667686021" lon="10.494324943749914"><ele>396.0</ele><time>2026-04-12T10:47:59Z</time></trkpt><trkpt lat="44.56784762746168" lon="10.494411914865328"><ele>396.0</ele><time>2026-04-12T10:48:00Z</time></trkpt><trkpt lat="44.567908502856234" lon="10.49453706647204"><ele>395.25</ele><time>2026-04-12T10:48:01Z</time></trkpt><trkpt lat="44.56795372679585" lon="10.494704730846035"><ele>394.5</ele><time>2026-04-12T10:48:02Z</time></trkpt><trkpt lat="44.56798700835258" lon="10.494894316170765"><ele>393.75</ele><time>2026-04-12T10:48:03Z</time></trkpt><trkpt lat="44.5680219932816" lon="10.495087738539768"><ele>393.0</ele><time>2026-04-12T10:48:04Z</time></trkpt><trkpt lat="44.56806145310442" lon="10.495296492217456"><ele>393.66666666666663</ele><time>2026-04-12T10:48:05Z</time></trkpt><trkpt lat="44.56810498663579" lon="10.495509609779166"><ele>394.3333333333333</ele><time>2026-04-12T10:48:06Z</time></trkpt><trkpt lat="44.5681576465473" lon="10.495731122056"><ele>395.0</ele><time>2026-04-12T10:48:07Z</time></trkpt><trkpt lat="44.568223679340896" lon="10.495981856382697"><ele>395.0</ele><time>2026-04-12T10:48:08Z</time></trkpt><trkpt lat="44.568299485180745" lon="10.496236105686574"><ele>395.0</ele><time>2026-04-12T10:48:09Z</time></trkpt><trkpt lat="44.568370660862755" lon="10.496469990985416"><ele>395.0</ele><time>2026-04-12T10:48:10Z</time></trkpt><trkpt lat="44.568434815293585" lon="10.496680745374155"><ele>393.3333333333333</ele><time>2026-04-12T10:48:11Z</time></trkpt><trkpt lat="44.56850015021941" lon="10.496889231597317"><ele>391.66666666666663</ele><time>2026-04-12T10:48:12Z</time></trkpt><trkpt lat="44.56856232243915" lon="10.497088169269356"><ele>390.0</ele><time>2026-04-12T10:48:13Z</time></trkpt><trkpt lat="44.56861202327675" lon="10.497279194187895"><ele>389.0</ele><time>2026-04-12T10:48:14Z</time></trkpt><trkpt lat="44.56865059237705" lon="10.497453946671245"><ele>388.0</ele><time>2026-04-12T10:48:15Z</time></trkpt><trkpt lat="44.56863558204221" lon="10.497621057877957"><ele>387.0</ele><time>2026-04-12T10:48:16Z</time></trkpt><trkpt lat="44.56859868099003" lon="10.497776037838316"><ele>386.0</ele><time>2026-04-12T10:48:17Z</time></trkpt><trkpt lat="44.56852680143415" lon="10.497895221162551"><ele>387.8</ele><time>2026-04-12T10:48:18Z</time></trkpt><trkpt lat="44.5684341853333" lon="10.497998014680642"><ele>389.6</ele><time>2026-04-12T10:48:19Z</time></trkpt><trkpt lat="44.56836684410726" lon="10.498094711380055"><ele>391.4</ele><time>2026-04-12T10:48:20Z</time></trkpt><trkpt lat="44.56833647261076" lon="10.498231337972644"><ele>393.2</ele><time>2026-04-12T10:48:22Z</time></trkpt><trkpt lat="44.56841052334411" lon="10.498318621610636"><ele>395.0</ele><time>2026-04-12T10:48:24Z</time></trkpt><trkpt lat="44.56853583434952" lon="10.49821610306192"><ele>395.0</ele><time>2026-04-12T10:48:25Z</time></trkpt><trkpt lat="44.56863112489" lon="10.498132273400145"><ele>395.0</ele><time>2026-04-12T10:48:26Z</time></trkpt><trkpt lat="44.5687466979144" lon="10.498099258909509"><ele>395.0</ele><time>2026-04-12T10:48:27Z</time></trkpt><trkpt lat="44.568851409474796" lon="10.498129736081285"><ele>395.0</ele><time>2026-04-12T10:48:28Z</time></trkpt><trkpt lat="44.56894754946975" lon="10.498223504832728"><ele>394.3333333333333</ele><time>2026-04-12T10:48:29Z</time></trkpt><trkpt lat="44.56905585164712" lon="10.498361513745634"><ele>393.66666666666663</ele><time>2026-04-12T10:48:30Z</time></trkpt><trkpt lat="44.56918713798128" lon="10.498545086891658"><ele>393.0</ele><time>2026-04-12T10:48:31Z</time></trkpt><trkpt lat="44.56931777402715" lon="10.498750237388975"><ele>393.0</ele><time>2026-04-12T10:48:32Z</time></trkpt><trkpt lat="44.569421048942814" lon="10.498879700130502"><ele>393.0</ele><time>2026-04-12T10:48:33Z</time></trkpt><trkpt lat="44.569497727638336" lon="10.498979895808981"><ele>393.0</ele><time>2026-04-12T10:48:34Z</time></trkpt><trkpt lat="44.56956311029711" lon="10.499156125358157"><ele>393.0</ele><time>2026-04-12T10:48:35Z</time></trkpt><trkpt lat="44.56961197008438" lon="10.499312912748886"><ele>393.0</ele><time>2026-04-12T10:48:36Z</time></trkpt><trkpt lat="44.56966693695114" lon="10.499474718349061"><ele>393.0</ele><time>2026-04-12T10:48:37Z</time></trkpt><trkpt lat="44.56972941302763" lon="10.499634700284105"><ele>393.0</ele><time>2026-04-12T10:48:38Z</time></trkpt><trkpt lat="44.56979907079504" lon="10.499769718748595"><ele>393.0</ele><time>2026-04-12T10:48:39Z</time></trkpt><trkpt lat="44.569874761197525" lon="10.499938825992421"><ele>396.66666666666663</ele><time>2026-04-12T10:48:40Z</time></trkpt><trkpt lat="44.569975768927115" lon="10.500095512894331"><ele>400.3333333333333</ele><time>2026-04-12T10:48:41Z</time></trkpt><trkpt lat="44.57007006018069" lon="10.500259770407547"><ele>404.0</ele><time>2026-04-12T10:48:42Z</time></trkpt><trkpt lat="44.570162881473905" lon="10.500431765338536"><ele>404.0</ele><time>2026-04-12T10:48:43Z</time></trkpt><trkpt lat="44.57025259483235" lon="10.500607951670661"><ele>404.0</ele><time>2026-04-12T10:48:44Z</time></trkpt><trkpt lat="44.570332809682874" lon="10.500789964090606"><ele>404.0</ele><time>2026-04-12T10:48:45Z</time></trkpt><trkpt lat="44.570404029340565" lon="10.500981050383244"><ele>403.3333333333333</ele><time>2026-04-12T10:48:46Z</time></trkpt><trkpt lat="44.57046658664328" lon="10.501182874041753"><ele>402.66666666666663</ele><time>2026-04-12T10:48:47Z</time></trkpt><trkpt lat="44.570512946123074" lon="10.501402043762615"><ele>402.0</ele><time>2026-04-12T10:48:48Z</time></trkpt><trkpt lat="44.57053614521733" lon="10.501625694280408"><ele>405.66666666666663</ele><time>2026-04-12T10:48:49Z</time></trkpt><trkpt lat="44.570550714480284" lon="10.501836682290296"><ele>409.3333333333333</ele><time>2026-04-12T10:48:50Z</time></trkpt><trkpt lat="44.570583713230654" lon="10.502042987209721"><ele>413.0</ele><time>2026-04-12T10:48:51Z</time></trkpt><trkpt lat="44.57060285808728" lon="10.502269173579739"><ele>413.0</ele><time>2026-04-12T10:48:52Z</time></trkpt><trkpt lat="44.57060087670295" lon="10.502480018451116"><ele>413.0</ele><time>2026-04-12T10:48:53Z</time></trkpt><trkpt lat="44.5705877781964" lon="10.502689203432784"><ele>413.0</ele><time>2026-04-12T10:48:54Z</time></trkpt><trkpt lat="44.570560502885634" lon="10.502883396514694"><ele>413.0</ele><time>2026-04-12T10:48:55Z</time></trkpt><trkpt lat="44.57050296337315" lon="10.50307128192815"><ele>410.66666666666663</ele><time>2026-04-12T10:48:56Z</time></trkpt><trkpt lat="44.57042703049622" lon="10.503248423928124"><ele>408.33333333333337</ele><time>2026-04-12T10:48:57Z</time></trkpt><trkpt lat="44.57033037866303" lon="10.503435045863808"><ele>406.0</ele><time>2026-04-12T10:48:58Z</time></trkpt><trkpt lat="44.57023013906939" lon="10.503610989286182"><ele>409.0</ele><time>2026-04-12T10:48:59Z</time></trkpt><trkpt lat="44.570150133540636" lon="10.503771989764097"><ele>412.0</ele><time>2026-04-12T10:49:00Z</time></trkpt><trkpt lat="44.570080141228516" lon="10.503914606722127"><ele>415.0</ele><time>2026-04-12T10:49:01Z</time></trkpt><trkpt lat="44.570021908399234" lon="10.504057224020887"><ele>418.0</ele><time>2026-04-12T10:49:02Z</time></trkpt><trkpt lat="44.56996982725784" lon="10.50420792251335"><ele>418.0</ele><time>2026-04-12T10:49:03Z</time></trkpt><trkpt lat="44.56994126681104" lon="10.504367129303798"><ele>418.0</ele><time>2026-04-12T10:49:04Z</time></trkpt><trkpt lat="44.5699292456906" lon="10.50453315736851"><ele>418.0</ele><time>2026-04-12T10:49:05Z</time></trkpt><trkpt lat="44.56994527593515" lon="10.50469501866081"><ele>418.0</ele><time>2026-04-12T10:49:06Z</time></trkpt><trkpt lat="44.569971225950965" lon="10.50484201705613"><ele>418.4</ele><time>2026-04-12T10:49:07Z</time></trkpt><trkpt lat="44.57001539309986" lon="10.504987316528483"><ele>418.79999999999995</ele><time>2026-04-12T10:49:08Z</time></trkpt><trkpt lat="44.57007731470936" lon="10.505114951689475"><ele>419.2</ele><time>2026-04-12T10:49:09Z</time></trkpt><trkpt lat="44.57014233438161" lon="10.505228188241507"><ele>419.6</ele><time>2026-04-12T10:49:10Z</time></trkpt><trkpt lat="44.57019496392906" lon="10.505333422273178"><ele>420.0</ele><time>2026-04-12T10:49:11Z</time></trkpt><trkpt lat="44.57021219919133" lon="10.505442602635965"><ele>420.0</ele><time>2026-04-12T10:49:12Z</time></trkpt><trkpt lat="44.57023768833919" lon="10.505545900690679"><ele>420.0</ele><time>2026-04-12T10:49:13Z</time></trkpt><trkpt lat="44.57026788992976" lon="10.50566704278604"><ele>420.0</ele><time>2026-04-12T10:49:14Z</time></trkpt><trkpt lat="44.57026995984438" lon="10.505810715442752"><ele>420.0</ele><time>2026-04-12T10:49:15Z</time></trkpt><trkpt lat="44.57026402117923" lon="10.5059494199423"><ele>420.0</ele><time>2026-04-12T10:49:16Z</time></trkpt><trkpt lat="44.57026692339156" lon="10.506077366280673"><ele>420.0</ele><time>2026-04-12T10:49:17Z</time></trkpt><trkpt lat="44.570278211547695" lon="10.506196607835205"><ele>420.0</ele><time>2026-04-12T10:49:18Z</time></trkpt><trkpt lat="44.57030107820733" lon="10.506307601694605"><ele>420.0</ele><time>2026-04-12T10:49:19Z</time></trkpt><trkpt lat="44.57033727411228" lon="10.506384083826052"><ele>420.0</ele><time>2026-04-12T10:49:20Z</time></trkpt><trkpt lat="44.57034258022818" lon="10.506501029462395"><ele>420.0</ele><time>2026-04-12T10:49:22Z</time></trkpt><trkpt lat="44.57025814165691" lon="10.50653143428274"><ele>420.0</ele><time>2026-04-12T10:49:24Z</time></trkpt><trkpt lat="44.57019398273278" lon="10.5065537241728"><ele>417.6</ele><time>2026-04-12T10:49:25Z</time></trkpt><trkpt lat="44.57007747377144" lon="10.506604321809034"><ele>415.2</ele><time>2026-04-12T10:49:27Z</time></trkpt><trkpt lat="44.570014410096114" lon="10.506631270956099"><ele>412.79999999999995</ele><time>2026-04-12T10:49:28Z</time></trkpt><trkpt lat="44.56991181673289" lon="10.50667490034932"><ele>410.4</ele><time>2026-04-12T10:49:30Z</time></trkpt><trkpt lat="44.569829675105495" lon="10.506714247073011"><ele>408.0</ele><time>2026-04-12T10:49:32Z</time></trkpt><trkpt lat="44.56974687302918" lon="10.506784515942696"><ele>408.0</ele><time>2026-04-12T10:49:35Z</time></trkpt><trkpt lat="44.569683943646915" lon="10.506805698874052"><ele>408.0</ele><time>2026-04-12T10:49:36Z</time></trkpt><trkpt lat="44.56961065275695" lon="10.506834651440885"><ele>408.0</ele><time>2026-04-12T10:49:37Z</time></trkpt><trkpt lat="44.569551144071994" lon="10.50686877379146"><ele>408.0</ele><time>2026-04-12T10:49:38Z</time></trkpt><trkpt lat="44.569458924202394" lon="10.506930128392927"><ele>408.0</ele><time>2026-04-12T10:49:40Z</time></trkpt><trkpt lat="44.569389336154195" lon="10.506946083267922"><ele>408.0</ele><time>2026-04-12T10:49:41Z</time></trkpt><trkpt lat="44.56932219866834" lon="10.506944353087828"><ele>408.0</ele><time>2026-04-12T10:49:42Z</time></trkpt><trkpt lat="44.569254871708836" lon="10.506936279426732"><ele>406.8333333333333</ele><time>2026-04-12T10:49:43Z</time></trkpt><trkpt lat="44.5691357951512" lon="10.50694610340621"><ele>405.66666666666663</ele><time>2026-04-12T10:49:45Z</time></trkpt><trkpt lat="44.56907265920189" lon="10.50698980514435"><ele>404.5</ele><time>2026-04-12T10:49:46Z</time></trkpt><trkpt lat="44.56901732291823" lon="10.507039412651036"><ele>403.3333333333333</ele><time>2026-04-12T10:49:47Z</time></trkpt><trkpt lat="44.568956485746284" lon="10.507089537946458"><ele>402.16666666666663</ele><time>2026-04-12T10:49:48Z</time></trkpt><trkpt lat="44.56888324146969" lon="10.50709725821748"><ele>401.0</ele><time>2026-04-12T10:49:49Z</time></trkpt><trkpt lat="44.568810840874846" lon="10.50708066693277"><ele>397.3333333333333</ele><time>2026-04-12T10:49:50Z</time></trkpt><trkpt lat="44.56871933023576" lon="10.507084548706956"><ele>393.66666666666663</ele><time>2026-04-12T10:49:51Z</time></trkpt><trkpt lat="44.568655400819296" lon="10.507046412611752"><ele>390.0</ele><time>2026-04-12T10:49:52Z</time></trkpt><trkpt lat="44.56862670146128" lon="10.506964566549527"><ele>386.3333333333333</ele><time>2026-04-12T10:49:53Z</time></trkpt><trkpt lat="44.56860950821225" lon="10.506863716085787"><ele>382.66666666666663</ele><time>2026-04-12T10:49:54Z</time></trkpt><trkpt lat="44.56857101108027" lon="10.506764253391296"><ele>379.0</ele><time>2026-04-12T10:49:55Z</time></trkpt><trkpt lat="44.568528327638155" lon="10.506684053156906"><ele>379.0</ele><time>2026-04-12T10:49:57Z</time></trkpt><trkpt lat="44.56845205471678" lon="10.506720862335726"><ele>379.0</ele><time>2026-04-12T10:49:59Z</time></trkpt><trkpt lat="44.568418123746156" lon="10.50684823422229"><ele>379.0</ele><time>2026-04-12T10:50:06Z</time></trkpt><trkpt lat="44.568376028595424" lon="10.506969827656969"><ele>379.0</ele><time>2026-04-12T10:50:08Z</time></trkpt><trkpt lat="44.56836842524457" lon="10.507072084244184"><ele>379.0</ele><time>2026-04-12T10:50:10Z</time></trkpt><trkpt lat="44.56839934032041" lon="10.507217534885752"><ele>376.2</ele><time>2026-04-12T10:50:11Z</time></trkpt><trkpt lat="44.56845507606366" lon="10.507407100323421"><ele>373.4</ele><time>2026-04-12T10:50:12Z</time></trkpt><trkpt lat="44.568485199852354" lon="10.507539137261206"><ele>370.6</ele><time>2026-04-12T10:50:13Z</time></trkpt><trkpt lat="44.56852014365596" lon="10.50761661880875"><ele>367.8</ele><time>2026-04-12T10:50:14Z</time></trkpt><trkpt lat="44.56859599803856" lon="10.507674575398775"><ele>365.0</ele><time>2026-04-12T10:50:16Z</time></trkpt><trkpt lat="44.56866157884486" lon="10.507691586963762"><ele>367.8</ele><time>2026-04-12T10:50:17Z</time></trkpt><trkpt lat="44.568744789497416" lon="10.507728017014731"><ele>370.6</ele><time>2026-04-12T10:50:18Z</time></trkpt><trkpt lat="44.56887355415771" lon="10.50775145675075"><ele>373.4</ele><time>2026-04-12T10:50:19Z</time></trkpt><trkpt lat="44.56898959361339" lon="10.507822634754723"><ele>376.2</ele><time>2026-04-12T10:50:21Z</time></trkpt><trkpt lat="44.56908908616084" lon="10.507844000312621"><ele>379.0</ele><time>2026-04-12T10:50:22Z</time></trkpt><trkpt lat="44.569173436217255" lon="10.50784310719563"><ele>379.0</ele><time>2026-04-12T10:50:23Z</time></trkpt><trkpt lat="44.569239008258315" lon="10.507827472661058"><ele>379.0</ele><time>2026-04-12T10:50:24Z</time></trkpt><trkpt lat="44.56930384103446" lon="10.507866600458176"><ele>379.0</ele><time>2026-04-12T10:50:25Z</time></trkpt><trkpt lat="44.56938481757876" lon="10.5079393103078"><ele>379.0</ele><time>2026-04-12T10:50:26Z</time></trkpt><trkpt lat="44.56948527447166" lon="10.508029846067204"><ele>379.0</ele><time>2026-04-12T10:50:28Z</time></trkpt><trkpt lat="44.56944536211061" lon="10.508231912551782"><ele>374.4</ele><time>2026-04-12T10:50:31Z</time></trkpt><trkpt lat="44.5693959799033" lon="10.50839563088746"><ele>369.79999999999995</ele><time>2026-04-12T10:50:32Z</time></trkpt><trkpt lat="44.569366789112976" lon="10.508535800013437"><ele>365.20000000000005</ele><time>2026-04-12T10:50:33Z</time></trkpt><trkpt lat="44.5693296691991" lon="10.508670589423833"><ele>360.6</ele><time>2026-04-12T10:50:34Z</time></trkpt><trkpt lat="44.56928912498736" lon="10.508810924753897"><ele>356.0</ele><time>2026-04-12T10:50:35Z</time></trkpt><trkpt lat="44.569257807627544" lon="10.50895578395669"><ele>356.0</ele><time>2026-04-12T10:50:36Z</time></trkpt><trkpt lat="44.569231527751754" lon="10.509093569616049"><ele>356.0</ele><time>2026-04-12T10:50:37Z</time></trkpt><trkpt lat="44.56919187734366" lon="10.509194981391815"><ele>356.0</ele><time>2026-04-12T10:50:38Z</time></trkpt><trkpt lat="44.56913041260772" lon="10.509312258120701"><ele>356.0</ele><time>2026-04-12T10:50:39Z</time></trkpt><trkpt lat="44.569037373984735" lon="10.50948417639643"><ele>356.0</ele><time>2026-04-12T10:50:40Z</time></trkpt><trkpt lat="44.5689359553731" lon="10.5096228964383"><ele>357.6</ele><time>2026-04-12T10:50:41Z</time></trkpt><trkpt lat="44.56889045674447" lon="10.509719575143494"><ele>359.20000000000005</ele><time>2026-04-12T10:50:42Z</time></trkpt><trkpt lat="44.56890380610769" lon="10.50982601567359"><ele>360.79999999999995</ele><time>2026-04-12T10:50:44Z</time></trkpt><trkpt lat="44.56892702979314" lon="10.509969865984932"><ele>362.4</ele><time>2026-04-12T10:50:45Z</time></trkpt><trkpt lat="44.56894870255316" lon="10.510162280320365"><ele>364.0</ele><time>2026-04-12T10:50:46Z</time></trkpt><trkpt lat="44.56896200122309" lon="10.510303901734847"><ele>364.0</ele><time>2026-04-12T10:50:48Z</time></trkpt><trkpt lat="44.56896430249769" lon="10.510466881428666"><ele>364.0</ele><time>2026-04-12T10:50:49Z</time></trkpt><trkpt lat="44.56891887595591" lon="10.510640592757746"><ele>364.0</ele><time>2026-04-12T10:50:50Z</time></trkpt><trkpt lat="44.56887921670611" lon="10.510724967993212"><ele>364.0</ele><time>2026-04-12T10:50:51Z</time></trkpt><trkpt lat="44.56889137184249" lon="10.510819300099447"><ele>364.0</ele><time>2026-04-12T10:50:52Z</time></trkpt><trkpt lat="44.568917785575216" lon="10.510931001967265"><ele>364.0</ele><time>2026-04-12T10:50:53Z</time></trkpt><trkpt lat="44.56897298432202" lon="10.511024032370164"><ele>364.0</ele><time>2026-04-12T10:50:54Z</time></trkpt><trkpt lat="44.56905637225031" lon="10.511083986230833"><ele>364.0</ele><time>2026-04-12T10:50:55Z</time></trkpt><trkpt lat="44.56916095440597" lon="10.51112858618789"><ele>364.0</ele><time>2026-04-12T10:50:56Z</time></trkpt><trkpt lat="44.569256428605655" lon="10.511219519140605"><ele>364.0</ele><time>2026-04-12T10:50:57Z</time></trkpt><trkpt lat="44.569357813499124" lon="10.511281016877492"><ele>363.79999999999995</ele><time>2026-04-12T10:50:58Z</time></trkpt><trkpt lat="44.56943649935665" lon="10.511331292310606"><ele>363.59999999999997</ele><time>2026-04-12T10:50:59Z</time></trkpt><trkpt lat="44.569508024708334" lon="10.511456757306968"><ele>363.4</ele><time>2026-04-12T10:51:01Z</time></trkpt><trkpt lat="44.56951975215025" lon="10.511568108454236"><ele>363.2</ele><time>2026-04-12T10:51:02Z</time></trkpt><trkpt lat="44.56962970342775" lon="10.51172059866659"><ele>363.0</ele><time>2026-04-12T10:51:03Z</time></trkpt><trkpt lat="44.569682149811065" lon="10.511786326052478"><ele>363.0</ele><time>2026-04-12T10:51:04Z</time></trkpt><trkpt lat="44.56971869632808" lon="10.511861464214109"><ele>363.0</ele><time>2026-04-12T10:51:05Z</time></trkpt><trkpt lat="44.56981853900116" lon="10.511912180068862"><ele>363.0</ele><time>2026-04-12T10:51:06Z</time></trkpt><trkpt lat="44.56991962560627" lon="10.511969084697583"><ele>363.0</ele><time>2026-04-12T10:51:07Z</time></trkpt><trkpt lat="44.569973661302264" lon="10.512150010186382"><ele>363.0</ele><time>2026-04-12T10:51:09Z</time></trkpt><trkpt lat="44.570027453100764" lon="10.512319762428614"><ele>359.25</ele><time>2026-04-12T10:51:10Z</time></trkpt><trkpt lat="44.57009680986152" lon="10.512522023188374"><ele>355.5</ele><time>2026-04-12T10:51:11Z</time></trkpt><trkpt lat="44.570166306962214" lon="10.51263214723926"><ele>351.75</ele><time>2026-04-12T10:51:12Z</time></trkpt><trkpt lat="44.57022772230666" lon="10.512765158563537"><ele>348.0</ele><time>2026-04-12T10:51:13Z</time></trkpt><trkpt lat="44.57033423973771" lon="10.512926794731575"><ele>353.0</ele><time>2026-04-12T10:51:14Z</time></trkpt><trkpt lat="44.57041250349046" lon="10.513092088799866"><ele>358.0</ele><time>2026-04-12T10:51:15Z</time></trkpt><trkpt lat="44.57048396055089" lon="10.51323175585484"><ele>363.0</ele><time>2026-04-12T10:51:16Z</time></trkpt><trkpt lat="44.57053973028836" lon="10.513370124051617"><ele>368.0</ele><time>2026-04-12T10:51:17Z</time></trkpt><trkpt lat="44.5705567240144" lon="10.513479162316393"><ele>368.0</ele><time>2026-04-12T10:51:18Z</time></trkpt><trkpt lat="44.5705782356592" lon="10.51361249707931"><ele>368.0</ele><time>2026-04-12T10:51:19Z</time></trkpt><trkpt lat="44.57062108421175" lon="10.513720787113787"><ele>368.0</ele><time>2026-04-12T10:51:20Z</time></trkpt><trkpt lat="44.57065910631946" lon="10.513895104207666"><ele>368.0</ele><time>2026-04-12T10:51:21Z</time></trkpt><trkpt lat="44.5706909749005" lon="10.51405768515806"><ele>368.0</ele><time>2026-04-12T10:51:22Z</time></trkpt><trkpt lat="44.570735475593615" lon="10.514218145205142"><ele>366.59999999999997</ele><time>2026-04-12T10:51:23Z</time></trkpt><trkpt lat="44.57075240434354" lon="10.514367300540934"><ele>365.2</ele><time>2026-04-12T10:51:24Z</time></trkpt><trkpt lat="44.57074075890679" lon="10.51447174866423"><ele>363.8</ele><time>2026-04-12T10:51:25Z</time></trkpt><trkpt lat="44.57066018980184" lon="10.51465011285476"><ele>362.4</ele><time>2026-04-12T10:51:26Z</time></trkpt><trkpt lat="44.570615811117726" lon="10.514771096661974"><ele>361.0</ele><time>2026-04-12T10:51:27Z</time></trkpt><trkpt lat="44.57063843056264" lon="10.514875463223872"><ele>360.75</ele><time>2026-04-12T10:51:28Z</time></trkpt><trkpt lat="44.57060190449347" lon="10.51501487198694"><ele>360.5</ele><time>2026-04-12T10:51:30Z</time></trkpt><trkpt lat="44.570547968299685" lon="10.515137878370524"><ele>360.25</ele><time>2026-04-12T10:51:31Z</time></trkpt><trkpt lat="44.57050379366189" lon="10.515319216383357"><ele>360.0</ele><time>2026-04-12T10:51:32Z</time></trkpt><trkpt lat="44.57047089593865" lon="10.515488912689232"><ele>362.0</ele><time>2026-04-12T10:51:33Z</time></trkpt><trkpt lat="44.5704317612901" lon="10.515571531855027"><ele>364.0</ele><time>2026-04-12T10:51:34Z</time></trkpt><trkpt lat="44.57039278116149" lon="10.515654972206182"><ele>366.0</ele><time>2026-04-12T10:51:35Z</time></trkpt><trkpt lat="44.57039758067725" lon="10.515796089253893"><ele>368.0</ele><time>2026-04-12T10:51:36Z</time></trkpt><trkpt lat="44.57041533655429" lon="10.51596168904673"><ele>370.0</ele><time>2026-04-12T10:51:37Z</time></trkpt><trkpt lat="44.57043696243965" lon="10.516127171640896"><ele>373.5</ele><time>2026-04-12T10:51:38Z</time></trkpt><trkpt lat="44.570428061970425" lon="10.516338690281875"><ele>377.0</ele><time>2026-04-12T10:51:39Z</time></trkpt><trkpt lat="44.570417969894855" lon="10.516536300495178"><ele>380.5</ele><time>2026-04-12T10:51:40Z</time></trkpt><trkpt lat="44.57042059305677" lon="10.516712990627642"><ele>384.0</ele><time>2026-04-12T10:51:41Z</time></trkpt><trkpt lat="44.57040559533248" lon="10.516813254200413"><ele>381.79999999999995</ele><time>2026-04-12T10:51:42Z</time></trkpt><trkpt lat="44.570351965654574" lon="10.516863158711844"><ele>379.59999999999997</ele><time>2026-04-12T10:51:59Z</time></trkpt><trkpt lat="44.57030461051304" lon="10.517007153278435"><ele>377.4</ele><time>2026-04-12T10:52:06.999Z</time></trkpt><trkpt lat="44.57025154690319" lon="10.517140231978786"><ele>375.2</ele><time>2026-04-12T10:52:07.999Z</time></trkpt><trkpt lat="44.57017387047107" lon="10.517335835924719"><ele>373.0</ele><time>2026-04-12T10:52:08.999Z</time></trkpt><trkpt lat="44.57010491758074" lon="10.517491708560573"><ele>373.0</ele><time>2026-04-12T10:52:09.999Z</time></trkpt><trkpt lat="44.57004905809166" lon="10.517620937096723"><ele>373.0</ele><time>2026-04-12T10:52:10.999Z</time></trkpt><trkpt lat="44.570005311925215" lon="10.517736222158566"><ele>373.0</ele><time>2026-04-12T10:52:11.999Z</time></trkpt><trkpt lat="44.569971965616986" lon="10.517833290414355"><ele>373.0</ele><time>2026-04-12T10:52:12.999Z</time></trkpt><trkpt lat="44.56995463498122" lon="10.517923260621215"><ele>373.0</ele><time>2026-04-12T10:52:13.999Z</time></trkpt><trkpt lat="44.57001127642714" lon="10.51811656900567"><ele>372.25</ele><time>2026-04-12T10:52:15.999Z</time></trkpt><trkpt lat="44.57009589267406" lon="10.518229063508302"><ele>371.5</ele><time>2026-04-12T10:52:16.999Z</time></trkpt><trkpt lat="44.57022582054178" lon="10.518356707222098"><ele>370.75</ele><time>2026-04-12T10:52:18Z</time></trkpt><trkpt lat="44.570362900575574" lon="10.518486469608828"><ele>370.0</ele><time>2026-04-12T10:52:19Z</time></trkpt><trkpt lat="44.57047301339443" lon="10.518572199330215"><ele>370.8</ele><time>2026-04-12T10:52:20Z</time></trkpt><trkpt lat="44.57054423284131" lon="10.518666128752663"><ele>371.6</ele><time>2026-04-12T10:52:21Z</time></trkpt><trkpt lat="44.57062191771764" lon="10.518764908951567"><ele>372.4</ele><time>2026-04-12T10:52:22Z</time></trkpt><trkpt lat="44.57065095362525" lon="10.51888554409947"><ele>373.2</ele><time>2026-04-12T10:52:23Z</time></trkpt><trkpt lat="44.57064224071114" lon="10.519021573190848"><ele>374.0</ele><time>2026-04-12T10:52:24Z</time></trkpt><trkpt lat="44.570601081291386" lon="10.519133488407427"><ele>374.0</ele><time>2026-04-12T10:52:25Z</time></trkpt><trkpt lat="44.570533745734345" lon="10.519219591421187"><ele>374.0</ele><time>2026-04-12T10:52:26Z</time></trkpt><trkpt lat="44.57043767227094" lon="10.519270436656473"><ele>374.0</ele><time>2026-04-12T10:52:27Z</time></trkpt><trkpt lat="44.57032775647386" lon="10.519249202344202"><ele>374.0</ele><time>2026-04-12T10:52:28Z</time></trkpt><trkpt lat="44.570242367086365" lon="10.519278190662732"><ele>374.0</ele><time>2026-04-12T10:52:29Z</time></trkpt><trkpt lat="44.57016496995176" lon="10.519307669602473"><ele>371.83333333333337</ele><time>2026-04-12T10:52:30Z</time></trkpt><trkpt lat="44.57010133434375" lon="10.51937513717289"><ele>369.6666666666667</ele><time>2026-04-12T10:52:31Z</time></trkpt><trkpt lat="44.57004398900493" lon="10.519453522134933"><ele>367.5</ele><time>2026-04-12T10:52:32Z</time></trkpt><trkpt lat="44.5699866672437" lon="10.519535758609761"><ele>365.3333333333333</ele><time>2026-04-12T10:52:33Z</time></trkpt><trkpt lat="44.56992144430253" lon="10.519618929686981"><ele>363.16666666666663</ele><time>2026-04-12T10:52:34Z</time></trkpt><trkpt lat="44.56983938648456" lon="10.519689043237266"><ele>361.0</ele><time>2026-04-12T10:52:35Z</time></trkpt><trkpt lat="44.56975424977628" lon="10.519754572515168"><ele>361.0</ele><time>2026-04-12T10:52:36Z</time></trkpt><trkpt lat="44.569678472634706" lon="10.51982377520495"><ele>361.0</ele><time>2026-04-12T10:52:37Z</time></trkpt><trkpt lat="44.56959316804354" lon="10.519886554759237"><ele>361.0</ele><time>2026-04-12T10:52:38Z</time></trkpt><trkpt lat="44.56950894442453" lon="10.51995087125902"><ele>361.0</ele><time>2026-04-12T10:52:39Z</time></trkpt><trkpt lat="44.569427910944775" lon="10.520030334850068"><ele>361.0</ele><time>2026-04-12T10:52:40Z</time></trkpt><trkpt lat="44.569363659356924" lon="10.520145741750015"><ele>356.0</ele><time>2026-04-12T10:52:41Z</time></trkpt><trkpt lat="44.569314250548935" lon="10.520288080135028"><ele>351.0</ele><time>2026-04-12T10:52:42Z</time></trkpt><trkpt lat="44.56927415628123" lon="10.520427373211835"><ele>346.0</ele><time>2026-04-12T10:52:43Z</time></trkpt><trkpt lat="44.56924612235497" lon="10.52054901105082"><ele>341.0</ele><time>2026-04-12T10:52:44Z</time></trkpt><trkpt lat="44.5692452747515" lon="10.520658624276287"><ele>336.0</ele><time>2026-04-12T10:52:45Z</time></trkpt><trkpt lat="44.569266578041706" lon="10.520741905611048"><ele>335.4</ele><time>2026-04-12T10:52:46Z</time></trkpt><trkpt lat="44.56930982837816" lon="10.520840781794881"><ele>334.8</ele><time>2026-04-12T10:52:47Z</time></trkpt><trkpt lat="44.56936730968705" lon="10.52092148126734"><ele>334.2</ele><time>2026-04-12T10:52:48Z</time></trkpt><trkpt lat="44.56940131024091" lon="10.521044887593487"><ele>333.59999999999997</ele><time>2026-04-12T10:52:49Z</time></trkpt><trkpt lat="44.569450416565324" lon="10.521186299581865"><ele>333.0</ele><time>2026-04-12T10:52:50Z</time></trkpt><trkpt lat="44.569474336254096" lon="10.52131794306117"><ele>330.59999999999997</ele><time>2026-04-12T10:52:51Z</time></trkpt><trkpt lat="44.56949216986907" lon="10.521412023664338"><ele>328.2</ele><time>2026-04-12T10:52:52Z</time></trkpt><trkpt lat="44.569474058609956" lon="10.5215395767915"><ele>325.8</ele><time>2026-04-12T10:52:54Z</time></trkpt><trkpt lat="44.56935823238532" lon="10.521502508512194"><ele>323.4</ele><time>2026-04-12T10:52:56Z</time></trkpt><trkpt lat="44.56933681193449" lon="10.521391031875217"><ele>321.0</ele><time>2026-04-12T10:52:57Z</time></trkpt><trkpt lat="44.569283159566126" lon="10.52128802098542"><ele>321.0</ele><time>2026-04-12T10:52:58Z</time></trkpt><trkpt lat="44.56926202203358" lon="10.521202461734216"><ele>321.0</ele><time>2026-04-12T10:52:59Z</time></trkpt><trkpt lat="44.56916554122646" lon="10.52109671313042"><ele>321.0</ele><time>2026-04-12T10:53:01Z</time></trkpt><trkpt lat="44.569092419708014" lon="10.521124628623213"><ele>321.0</ele><time>2026-04-12T10:53:02Z</time></trkpt><trkpt lat="44.56904839940669" lon="10.521207045306221"><ele>321.0</ele><time>2026-04-12T10:53:03Z</time></trkpt><trkpt lat="44.56907231450022" lon="10.521330020875066"><ele>321.0</ele><time>2026-04-12T10:53:04Z</time></trkpt><trkpt lat="44.56910522552724" lon="10.521429355555634"><ele>321.0</ele><time>2026-04-12T10:53:05Z</time></trkpt><trkpt lat="44.569133312107176" lon="10.521579778143773"><ele>321.0</ele><time>2026-04-12T10:53:06Z</time></trkpt><trkpt lat="44.56919471795624" lon="10.521745889977304"><ele>321.0</ele><time>2026-04-12T10:53:07Z</time></trkpt><trkpt lat="44.56924567409855" lon="10.521876135203541"><ele>321.0</ele><time>2026-04-12T10:53:08Z</time></trkpt><trkpt lat="44.569291719482216" lon="10.521967223070572"><ele>321.0</ele><time>2026-04-12T10:53:09Z</time></trkpt><trkpt lat="44.56932231298023" lon="10.522053594401916"><ele>317.6</ele><time>2026-04-12T10:53:10Z</time></trkpt><trkpt lat="44.569339754134575" lon="10.522146894564447"><ele>314.20000000000005</ele><time>2026-04-12T10:53:11Z</time></trkpt><trkpt lat="44.56931461762886" lon="10.522252984254585"><ele>310.79999999999995</ele><time>2026-04-12T10:53:12Z</time></trkpt><trkpt lat="44.56922427116905" lon="10.522346511756803"><ele>307.4</ele><time>2026-04-12T10:53:13Z</time></trkpt><trkpt lat="44.56913541642435" lon="10.522470876027377"><ele>304.0</ele><time>2026-04-12T10:53:14Z</time></trkpt><trkpt lat="44.569043530924944" lon="10.522631393315384"><ele>304.0</ele><time>2026-04-12T10:53:15Z</time></trkpt><trkpt lat="44.568931930117586" lon="10.522800701225966"><ele>304.0</ele><time>2026-04-12T10:53:16Z</time></trkpt><trkpt lat="44.56881706359743" lon="10.52297272312932"><ele>304.0</ele><time>2026-04-12T10:53:17Z</time></trkpt><trkpt lat="44.56869908475061" lon="10.52315034580599"><ele>298.3333333333333</ele><time>2026-04-12T10:53:18Z</time></trkpt><trkpt lat="44.568565527751474" lon="10.523319771897043"><ele>292.6666666666667</ele><time>2026-04-12T10:53:19Z</time></trkpt><trkpt lat="44.56845240119638" lon="10.523485864322568"><ele>287.0</ele><time>2026-04-12T10:53:20Z</time></trkpt><trkpt lat="44.5683648306376" lon="10.52364494857438"><ele>285.2</ele><time>2026-04-12T10:53:21Z</time></trkpt><trkpt lat="44.5682764222797" lon="10.523776510147906"><ele>283.4</ele><time>2026-04-12T10:53:22Z</time></trkpt><trkpt lat="44.56819891445802" lon="10.523899227613333"><ele>281.6</ele><time>2026-04-12T10:53:23Z</time></trkpt><trkpt lat="44.56813369253436" lon="10.524012802111312"><ele>279.8</ele><time>2026-04-12T10:53:24Z</time></trkpt><trkpt lat="44.56808686319188" lon="10.524130435254065"><ele>278.0</ele><time>2026-04-12T10:53:25Z</time></trkpt><trkpt lat="44.56805777131501" lon="10.524275080358342"><ele>278.0</ele><time>2026-04-12T10:53:26Z</time></trkpt><trkpt lat="44.56803251586386" lon="10.52444071474624"><ele>278.0</ele><time>2026-04-12T10:53:27Z</time></trkpt><trkpt lat="44.568025001226" lon="10.524599138578173"><ele>278.0</ele><time>2026-04-12T10:53:28Z</time></trkpt><trkpt lat="44.56802650768306" lon="10.524759415873056"><ele>278.0</ele><time>2026-04-12T10:53:29Z</time></trkpt><trkpt lat="44.56803847762739" lon="10.524921272147035"><ele>276.5</ele><time>2026-04-12T10:53:30Z</time></trkpt><trkpt lat="44.56805091197866" lon="10.525063154916442"><ele>275.0</ele><time>2026-04-12T10:53:31Z</time></trkpt><trkpt lat="44.568064509446856" lon="10.525187474311533"><ele>273.5</ele><time>2026-04-12T10:53:32Z</time></trkpt><trkpt lat="44.56808512853549" lon="10.525301475062733"><ele>272.0</ele><time>2026-04-12T10:53:33Z</time></trkpt><trkpt lat="44.56812873582143" lon="10.525399817340881"><ele>270.5</ele><time>2026-04-12T10:53:34Z</time></trkpt><trkpt lat="44.56819515611904" lon="10.525467006696095"><ele>269.0</ele><time>2026-04-12T10:53:35Z</time></trkpt><trkpt lat="44.568286881589664" lon="10.525491490954408"><ele>267.1666666666667</ele><time>2026-04-12T10:53:36Z</time></trkpt><trkpt lat="44.568344785827534" lon="10.5255339556629"><ele>265.33333333333337</ele><time>2026-04-12T10:53:37Z</time></trkpt><trkpt lat="44.56838441261888" lon="10.525659693971022"><ele>263.5</ele><time>2026-04-12T10:53:39Z</time></trkpt><trkpt lat="44.56834222935782" lon="10.525732737740972"><ele>261.6666666666667</ele><time>2026-04-12T10:53:40Z</time></trkpt><trkpt lat="44.568246284528534" lon="10.525761172961014"><ele>259.8333333333333</ele><time>2026-04-12T10:53:41Z</time></trkpt><trkpt lat="44.56814567356089" lon="10.525820962690362"><ele>258.0</ele><time>2026-04-12T10:53:42Z</time></trkpt><trkpt lat="44.56803153034116" lon="10.52586424231962"><ele>258.0</ele><time>2026-04-12T10:53:43Z</time></trkpt><trkpt lat="44.56792166137166" lon="10.525861842776553"><ele>258.0</ele><time>2026-04-12T10:53:44Z</time></trkpt><trkpt lat="44.567845731063386" lon="10.525885049108213"><ele>258.0</ele><time>2026-04-12T10:53:45Z</time></trkpt><trkpt lat="44.567782216199966" lon="10.525904261127046"><ele>258.0</ele><time>2026-04-12T10:53:46Z</time></trkpt><trkpt lat="44.567738978010766" lon="10.526068869835829"><ele>258.0</ele><time>2026-04-12T10:53:48Z</time></trkpt><trkpt lat="44.56776806991921" lon="10.526167657091124"><ele>256.2</ele><time>2026-04-12T10:53:49Z</time></trkpt><trkpt lat="44.56783706179377" lon="10.526246527054528"><ele>254.4</ele><time>2026-04-12T10:53:50Z</time></trkpt><trkpt lat="44.56793908686825" lon="10.52632004100578"><ele>252.59999999999997</ele><time>2026-04-12T10:53:51Z</time></trkpt><trkpt lat="44.56803259899632" lon="10.526400464292694"><ele>250.79999999999998</ele><time>2026-04-12T10:53:52Z</time></trkpt><trkpt lat="44.568092082132345" lon="10.526496984147773"><ele>249.0</ele><time>2026-04-12T10:53:53Z</time></trkpt><trkpt lat="44.568124003047274" lon="10.52663350832373"><ele>249.0</ele><time>2026-04-12T10:53:54Z</time></trkpt><trkpt lat="44.56812642537303" lon="10.52681025481653"><ele>249.0</ele><time>2026-04-12T10:53:55Z</time></trkpt><trkpt lat="44.56811129139755" lon="10.527002250830288"><ele>249.0</ele><time>2026-04-12T10:53:56Z</time></trkpt><trkpt lat="44.56810487129287" lon="10.527191557914815"><ele>249.0</ele><time>2026-04-12T10:53:57Z</time></trkpt><trkpt lat="44.56809555485113" lon="10.527369577542567"><ele>247.2</ele><time>2026-04-12T10:53:57.999Z</time></trkpt><trkpt lat="44.56808789153324" lon="10.527535410037824"><ele>245.39999999999998</ele><time>2026-04-12T10:53:58.999Z</time></trkpt><trkpt lat="44.56808199641439" lon="10.52768440880665"><ele>243.6</ele><time>2026-04-12T10:53:59.999Z</time></trkpt><trkpt lat="44.5680736546284" lon="10.527823973815154"><ele>241.8</ele><time>2026-04-12T10:54:00.999Z</time></trkpt><trkpt lat="44.568064835452304" lon="10.527952213756407"><ele>240.0</ele><time>2026-04-12T10:54:01.999Z</time></trkpt><trkpt lat="44.56805556908956" lon="10.52806690931131"><ele>238.6</ele><time>2026-04-12T10:54:02.999Z</time></trkpt><trkpt lat="44.56804869761536" lon="10.528170904226082"><ele>237.2</ele><time>2026-04-12T10:54:03.999Z</time></trkpt><trkpt lat="44.56804128007145" lon="10.528259866742827"><ele>235.8</ele><time>2026-04-12T10:54:04.999Z</time></trkpt><trkpt lat="44.568036104752416" lon="10.528387336297039"><ele>234.4</ele><time>2026-04-12T10:54:06.999Z</time></trkpt><trkpt lat="44.56803802428326" lon="10.528477863443777"><ele>233.0</ele><time>2026-04-12T10:54:10.999Z</time></trkpt><trkpt lat="44.56819679892008" lon="10.528551218601828"><ele>233.0</ele><time>2026-04-12T10:54:13.999Z</time></trkpt><trkpt lat="44.568309361227364" lon="10.528533219164128"><ele>233.0</ele><time>2026-04-12T10:54:14.999Z</time></trkpt><trkpt lat="44.56845508959994" lon="10.528502818619385"><ele>233.0</ele><time>2026-04-12T10:54:15.999Z</time></trkpt><trkpt lat="44.56862177734927" lon="10.528463287424053"><ele>233.0</ele><time>2026-04-12T10:54:16.999Z</time></trkpt><trkpt lat="44.56879565371741" lon="10.528404790586533"><ele>231.33333333333334</ele><time>2026-04-12T10:54:17.999Z</time></trkpt><trkpt lat="44.568969101757894" lon="10.528319000779"><ele>229.66666666666669</ele><time>2026-04-12T10:54:18.999Z</time></trkpt><trkpt lat="44.56914384591645" lon="10.528207331531645"><ele>228.0</ele><time>2026-04-12T10:54:19.999Z</time></trkpt><trkpt lat="44.56931438362475" lon="10.528080625909068"><ele>228.0</ele><time>2026-04-12T10:54:20.999Z</time></trkpt><trkpt lat="44.56949972597355" lon="10.527937060080882"><ele>228.0</ele><time>2026-04-12T10:54:21.999Z</time></trkpt><trkpt lat="44.56969471223316" lon="10.5277880794832"><ele>228.0</ele><time>2026-04-12T10:54:23Z</time></trkpt><trkpt lat="44.56986392289991" lon="10.527658115977705"><ele>226.66666666666669</ele><time>2026-04-12T10:54:24Z</time></trkpt><trkpt lat="44.57000863041787" lon="10.527547464274125"><ele>225.33333333333334</ele><time>2026-04-12T10:54:25Z</time></trkpt><trkpt lat="44.570150131094024" lon="10.527455811401428"><ele>224.0</ele><time>2026-04-12T10:54:26Z</time></trkpt><trkpt lat="44.570299839742326" lon="10.527406524630218"><ele>224.33333333333334</ele><time>2026-04-12T10:54:27Z</time></trkpt><trkpt lat="44.5704631024682" lon="10.52739967463683"><ele>224.66666666666669</ele><time>2026-04-12T10:54:28Z</time></trkpt><trkpt lat="44.570645782995854" lon="10.527428239731073"><ele>225.0</ele><time>2026-04-12T10:54:29Z</time></trkpt><trkpt lat="44.570850255509924" lon="10.527476526425566"><ele>225.0</ele><time>2026-04-12T10:54:30Z</time></trkpt><trkpt lat="44.5710773595075" lon="10.52752031322691"><ele>225.0</ele><time>2026-04-12T10:54:31Z</time></trkpt><trkpt lat="44.571286956055395" lon="10.527553187305578"><ele>225.0</ele><time>2026-04-12T10:54:32Z</time></trkpt><trkpt lat="44.571470210358164" lon="10.52758830624602"><ele>225.0</ele><time>2026-04-12T10:54:33Z</time></trkpt><trkpt lat="44.57164409203796" lon="10.527617383443198"><ele>225.0</ele><time>2026-04-12T10:54:34Z</time></trkpt><trkpt lat="44.571803226835385" lon="10.527648524341751"><ele>225.0</ele><time>2026-04-12T10:54:35Z</time></trkpt><trkpt lat="44.571949758964145" lon="10.527676584542254"><ele>225.0</ele><time>2026-04-12T10:54:36Z</time></trkpt><trkpt lat="44.572089228321545" lon="10.527706601017835"><ele>225.0</ele><time>2026-04-12T10:54:37Z</time></trkpt><trkpt lat="44.57223218431866" lon="10.52774037452627"><ele>225.0</ele><time>2026-04-12T10:54:38Z</time></trkpt><trkpt lat="44.57235884938609" lon="10.527787499121796"><ele>225.0</ele><time>2026-04-12T10:54:39Z</time></trkpt><trkpt lat="44.57248116294169" lon="10.527863017120433"><ele>223.75</ele><time>2026-04-12T10:54:40Z</time></trkpt><trkpt lat="44.57258979415614" lon="10.527954186928262"><ele>222.5</ele><time>2026-04-12T10:54:41Z</time></trkpt><trkpt lat="44.572690755711285" lon="10.528069099681455"><ele>221.25</ele><time>2026-04-12T10:54:42Z</time></trkpt><trkpt lat="44.57278161210857" lon="10.52820904619564"><ele>220.0</ele><time>2026-04-12T10:54:43Z</time></trkpt><trkpt lat="44.572864366941566" lon="10.528360872861839"><ele>220.0</ele><time>2026-04-12T10:54:44Z</time></trkpt><trkpt lat="44.572944041783174" lon="10.528523494665437"><ele>220.0</ele><time>2026-04-12T10:54:45Z</time></trkpt><trkpt lat="44.573023699830905" lon="10.528676401884535"><ele>220.0</ele><time>2026-04-12T10:54:46Z</time></trkpt><trkpt lat="44.573113763084336" lon="10.528821274607063"><ele>220.0</ele><time>2026-04-12T10:54:47Z</time></trkpt><trkpt lat="44.573210282223535" lon="10.528950259678464"><ele>220.0</ele><time>2026-04-12T10:54:48Z</time></trkpt><trkpt lat="44.57332497260507" lon="10.529067006441284"><ele>220.0</ele><time>2026-04-12T10:54:49Z</time></trkpt><trkpt lat="44.5734481159188" lon="10.529156430788218"><ele>220.0</ele><time>2026-04-12T10:54:50Z</time></trkpt><trkpt lat="44.573579555306154" lon="10.529221907861155"><ele>220.0</ele><time>2026-04-12T10:54:51Z</time></trkpt><trkpt lat="44.573720715714494" lon="10.529263191172209"><ele>220.0</ele><time>2026-04-12T10:54:52Z</time></trkpt><trkpt lat="44.5738749898735" lon="10.529291008317152"><ele>220.0</ele><time>2026-04-12T10:54:53Z</time></trkpt><trkpt lat="44.57403259707502" lon="10.529313705574683"><ele>220.0</ele><time>2026-04-12T10:54:54Z</time></trkpt><trkpt lat="44.574183512539925" lon="10.529340598979154"><ele>220.0</ele><time>2026-04-12T10:54:55Z</time></trkpt><trkpt lat="44.574322863340065" lon="10.529360467003436"><ele>220.0</ele><time>2026-04-12T10:54:56Z</time></trkpt><trkpt lat="44.57446274456174" lon="10.529377813047839"><ele>220.0</ele><time>2026-04-12T10:54:57Z</time></trkpt><trkpt lat="44.57459959239024" lon="10.529392789778603"><ele>220.0</ele><time>2026-04-12T10:54:58Z</time></trkpt><trkpt lat="44.57473411546817" lon="10.52940771398156"><ele>219.5</ele><time>2026-04-12T10:54:59Z</time></trkpt><trkpt lat="44.574868156958935" lon="10.529420600516938"><ele>219.0</ele><time>2026-04-12T10:55:00Z</time></trkpt><trkpt lat="44.57500058316698" lon="10.529431277459038"><ele>218.5</ele><time>2026-04-12T10:55:01Z</time></trkpt><trkpt lat="44.57513860471722" lon="10.529431633278206"><ele>218.0</ele><time>2026-04-12T10:55:02Z</time></trkpt><trkpt lat="44.57527096849762" lon="10.529409843536289"><ele>218.25</ele><time>2026-04-12T10:55:03Z</time></trkpt><trkpt lat="44.57539753684194" lon="10.52934987984042"><ele>218.5</ele><time>2026-04-12T10:55:04Z</time></trkpt><trkpt lat="44.57551880748958" lon="10.529269063204145"><ele>218.75</ele><time>2026-04-12T10:55:05Z</time></trkpt><trkpt lat="44.57563295577928" lon="10.529165603393109"><ele>219.0</ele><time>2026-04-12T10:55:06Z</time></trkpt><trkpt lat="44.57574849433527" lon="10.529040075877989"><ele>219.0</ele><time>2026-04-12T10:55:07Z</time></trkpt><trkpt lat="44.575862514108564" lon="10.528904863136571"><ele>219.0</ele><time>2026-04-12T10:55:08Z</time></trkpt><trkpt lat="44.57597532455103" lon="10.528767257006761"><ele>219.0</ele><time>2026-04-12T10:55:09Z</time></trkpt><trkpt lat="44.57608578927131" lon="10.528633489584248"><ele>219.0</ele><time>2026-04-12T10:55:10Z</time></trkpt><trkpt lat="44.576194598887895" lon="10.5285092448053"><ele>218.0</ele><time>2026-04-12T10:55:11Z</time></trkpt><trkpt lat="44.57631106941865" lon="10.528373858398718"><ele>217.0</ele><time>2026-04-12T10:55:12Z</time></trkpt><trkpt lat="44.57642141186125" lon="10.52824848617169"><ele>216.0</ele><time>2026-04-12T10:55:13Z</time></trkpt><trkpt lat="44.576540405606764" lon="10.52812864435461"><ele>215.0</ele><time>2026-04-12T10:55:14Z</time></trkpt><trkpt lat="44.576670500087296" lon="10.528031333293775"><ele>215.0</ele><time>2026-04-12T10:55:15Z</time></trkpt><trkpt lat="44.576798737594125" lon="10.527959212158173"><ele>215.0</ele><time>2026-04-12T10:55:16Z</time></trkpt><trkpt lat="44.57692736016094" lon="10.527908973612057"><ele>215.0</ele><time>2026-04-12T10:55:17Z</time></trkpt><trkpt lat="44.57705312852745" lon="10.527878354102121"><ele>215.0</ele><time>2026-04-12T10:55:18Z</time></trkpt><trkpt lat="44.577172173717166" lon="10.52786955809636"><ele>215.25</ele><time>2026-04-12T10:55:19Z</time></trkpt><trkpt lat="44.57728945650736" lon="10.527880832351906"><ele>215.5</ele><time>2026-04-12T10:55:20Z</time></trkpt><trkpt lat="44.57740635855608" lon="10.527905267218207"><ele>215.75</ele><time>2026-04-12T10:55:21Z</time></trkpt><trkpt lat="44.57752087719009" lon="10.527947123867875"><ele>216.0</ele><time>2026-04-12T10:55:22Z</time></trkpt><trkpt lat="44.57763443075067" lon="10.528000003536587"><ele>216.0</ele><time>2026-04-12T10:55:23Z</time></trkpt><trkpt lat="44.57774851167083" lon="10.528049710049807"><ele>216.0</ele><time>2026-04-12T10:55:24Z</time></trkpt><trkpt lat="44.577858527194905" lon="10.528104201613434"><ele>216.0</ele><time>2026-04-12T10:55:25Z</time></trkpt><trkpt lat="44.577965537107985" lon="10.52815744191685"><ele>216.0</ele><time>2026-04-12T10:55:26Z</time></trkpt><trkpt lat="44.57807239503192" lon="10.528212702107975"><ele>216.8</ele><time>2026-04-12T10:55:27Z</time></trkpt><trkpt lat="44.57817569726412" lon="10.52826325055402"><ele>217.60000000000002</ele><time>2026-04-12T10:55:27.999Z</time></trkpt><trkpt lat="44.57827858871393" lon="10.528319185673572"><ele>218.4</ele><time>2026-04-12T10:55:28.999Z</time></trkpt><trkpt lat="44.57837058645617" lon="10.528377628054836"><ele>219.2</ele><time>2026-04-12T10:55:29.999Z</time></trkpt><trkpt lat="44.578450996563895" lon="10.5284329353395"><ele>220.0</ele><time>2026-04-12T10:55:30.999Z</time></trkpt><trkpt lat="44.57852943897685" lon="10.528485930175487"><ele>220.0</ele><time>2026-04-12T10:55:31.999Z</time></trkpt><trkpt lat="44.57859392166081" lon="10.52853120035577"><ele>220.0</ele><time>2026-04-12T10:55:32.999Z</time></trkpt><trkpt lat="44.57867409058538" lon="10.528601557132859"><ele>220.0</ele><time>2026-04-12T10:55:34.999Z</time></trkpt><trkpt lat="44.578680722678385" lon="10.528709525947365"><ele>220.0</ele><time>2026-04-12T10:55:37.999Z</time></trkpt><trkpt lat="44.57871975528009" lon="10.528521805700143"><ele>220.0</ele><time>2026-04-12T10:55:55.999Z</time></trkpt><trkpt lat="44.57879815774254" lon="10.52839574840146"><ele>222.0</ele><time>2026-04-12T10:55:57.999Z</time></trkpt><trkpt lat="44.57886288883737" lon="10.528313577149056"><ele>224.0</ele><time>2026-04-12T10:55:58.999Z</time></trkpt><trkpt lat="44.57892877785869" lon="10.528233090818716"><ele>226.0</ele><time>2026-04-12T10:55:59.999Z</time></trkpt><trkpt lat="44.57899354780966" lon="10.528129189950393"><ele>228.0</ele><time>2026-04-12T10:56:00.999Z</time></trkpt><trkpt lat="44.57906031698393" lon="10.528021706447893"><ele>230.0</ele><time>2026-04-12T10:56:01.999Z</time></trkpt><trkpt lat="44.579130326542014" lon="10.527909006640204"><ele>230.0</ele><time>2026-04-12T10:56:03.999Z</time></trkpt><trkpt lat="44.57918217501961" lon="10.527825542132385"><ele>230.0</ele><time>2026-04-12T10:56:05.999Z</time></trkpt><trkpt lat="44.57934970565099" lon="10.527951639805261"><ele>230.0</ele><time>2026-04-12T10:56:06.999Z</time></trkpt><trkpt lat="44.57944864367168" lon="10.528000098204947"><ele>230.0</ele><time>2026-04-12T10:56:08.999Z</time></trkpt><trkpt lat="44.579559628190104" lon="10.528067110442874"><ele>233.16666666666669</ele><time>2026-04-12T10:56:10.999Z</time></trkpt><trkpt lat="44.5796508791473" lon="10.528151281462039"><ele>236.33333333333334</ele><time>2026-04-12T10:56:12.999Z</time></trkpt><trkpt lat="44.5797360266102" lon="10.528195514129212"><ele>239.5</ele><time>2026-04-12T10:56:14.999Z</time></trkpt><trkpt lat="44.57980250250353" lon="10.528200539808413"><ele>242.66666666666669</ele><time>2026-04-12T10:56:15.999Z</time></trkpt><trkpt lat="44.57979034275515" lon="10.528089609596785"><ele>245.83333333333334</ele><time>2026-04-12T10:56:17.999Z</time></trkpt><trkpt lat="44.57975480094826" lon="10.528006419181386"><ele>249.0</ele><time>2026-04-12T10:56:18.999Z</time></trkpt><trkpt lat="44.57975126693853" lon="10.527874518879608"><ele>249.5</ele><time>2026-04-12T10:56:20.999Z</time></trkpt><trkpt lat="44.579805292396244" lon="10.527726665586764"><ele>250.0</ele><time>2026-04-12T10:56:22.999Z</time></trkpt><trkpt lat="44.57984252914342" lon="10.527632441598676"><ele>250.5</ele><time>2026-04-12T10:56:23.999Z</time></trkpt><trkpt lat="44.57988533947753" lon="10.527518703871085"><ele>251.0</ele><time>2026-04-12T10:56:24.999Z</time></trkpt><trkpt lat="44.57991911047316" lon="10.527409744868722"><ele>251.5</ele><time>2026-04-12T10:56:25.999Z</time></trkpt><trkpt lat="44.57995291686016" lon="10.52732812624632"><ele>252.0</ele><time>2026-04-12T10:56:26.999Z</time></trkpt><trkpt lat="44.58001651877712" lon="10.52724094919271"><ele>252.0</ele><time>2026-04-12T10:56:29Z</time></trkpt><trkpt lat="44.580109817452055" lon="10.527246196649925"><ele>252.0</ele><time>2026-04-12T10:56:31Z</time></trkpt><trkpt lat="44.580204313054324" lon="10.527292676412578"><ele>252.0</ele><time>2026-04-12T10:56:33Z</time></trkpt><trkpt lat="44.580296688615114" lon="10.527338763082353"><ele>252.0</ele><time>2026-04-12T10:56:35Z</time></trkpt><trkpt lat="44.58038676072009" lon="10.527389751606156"><ele>252.0</ele><time>2026-04-12T10:56:37Z</time></trkpt><trkpt lat="44.58048102216457" lon="10.527371685198029"><ele>257.0</ele><time>2026-04-12T10:56:39Z</time></trkpt><trkpt lat="44.580550122920286" lon="10.52734585048172"><ele>262.0</ele><time>2026-04-12T10:56:40Z</time></trkpt><trkpt lat="44.580632265072815" lon="10.527319942972024"><ele>267.0</ele><time>2026-04-12T10:56:41Z</time></trkpt><trkpt lat="44.58071870043846" lon="10.527299627727306"><ele>272.0</ele><time>2026-04-12T10:56:42Z</time></trkpt><trkpt lat="44.580818128422635" lon="10.527295568762765"><ele>277.0</ele><time>2026-04-12T10:56:43Z</time></trkpt><trkpt lat="44.58096820610789" lon="10.527341507089837"><ele>277.0</ele><time>2026-04-12T10:56:44Z</time></trkpt><trkpt lat="44.58107952280453" lon="10.527360490464627"><ele>277.0</ele><time>2026-04-12T10:56:45Z</time></trkpt><trkpt lat="44.58120143118609" lon="10.527377546660574"><ele>277.0</ele><time>2026-04-12T10:56:46Z</time></trkpt><trkpt lat="44.58131923068827" lon="10.52740112828558"><ele>277.0</ele><time>2026-04-12T10:56:47Z</time></trkpt><trkpt lat="44.581434295136454" lon="10.527447696334884"><ele>280.66666666666663</ele><time>2026-04-12T10:56:48Z</time></trkpt><trkpt lat="44.58151551272341" lon="10.527488827210252"><ele>284.3333333333333</ele><time>2026-04-12T10:56:49Z</time></trkpt><trkpt lat="44.58158905536052" lon="10.527477614720093"><ele>288.0</ele><time>2026-04-12T10:56:51Z</time></trkpt><trkpt lat="44.581668200423934" lon="10.527467021554376"><ele>291.6666666666667</ele><time>2026-04-12T10:56:52Z</time></trkpt><trkpt lat="44.58175083546317" lon="10.52743663929994"><ele>295.33333333333337</ele><time>2026-04-12T10:56:53Z</time></trkpt><trkpt lat="44.58183957013956" lon="10.52745291850986"><ele>299.0</ele><time>2026-04-12T10:56:54Z</time></trkpt><trkpt lat="44.581965699534855" lon="10.52752141149235"><ele>302.1666666666667</ele><time>2026-04-12T10:56:56Z</time></trkpt><trkpt lat="44.58207543855368" lon="10.52755765544632"><ele>305.33333333333337</ele><time>2026-04-12T10:56:58Z</time></trkpt><trkpt lat="44.58215762619003" lon="10.527601980959144"><ele>308.5</ele><time>2026-04-12T10:57:00Z</time></trkpt><trkpt lat="44.58222075813952" lon="10.527594563566444"><ele>311.6666666666667</ele><time>2026-04-12T10:57:01Z</time></trkpt><trkpt lat="44.582284679189605" lon="10.527590746070961"><ele>314.8333333333333</ele><time>2026-04-12T10:57:02Z</time></trkpt><trkpt lat="44.58235649193956" lon="10.527592373119306"><ele>318.0</ele><time>2026-04-12T10:57:03Z</time></trkpt><trkpt lat="44.5824598869299" lon="10.527585907265493"><ele>318.0</ele><time>2026-04-12T10:57:04Z</time></trkpt><trkpt lat="44.582582857807566" lon="10.527570687949163"><ele>318.0</ele><time>2026-04-12T10:57:05Z</time></trkpt><trkpt lat="44.58269439242079" lon="10.527551670404875"><ele>318.0</ele><time>2026-04-12T10:57:06Z</time></trkpt><trkpt lat="44.582804070862736" lon="10.527516983586164"><ele>318.0</ele><time>2026-04-12T10:57:07Z</time></trkpt><trkpt lat="44.58291297515551" lon="10.5275046622945"><ele>323.0</ele><time>2026-04-12T10:57:08Z</time></trkpt><trkpt lat="44.58303389578791" lon="10.527527550278807"><ele>328.0</ele><time>2026-04-12T10:57:09Z</time></trkpt><trkpt lat="44.583165876708755" lon="10.527542483289533"><ele>333.0</ele><time>2026-04-12T10:57:10Z</time></trkpt><trkpt lat="44.58330244689607" lon="10.527587967474748"><ele>338.0</ele><time>2026-04-12T10:57:11Z</time></trkpt><trkpt lat="44.58342488399192" lon="10.527613228131857"><ele>338.0</ele><time>2026-04-12T10:57:12Z</time></trkpt><trkpt lat="44.58351724182685" lon="10.527641385059308"><ele>338.0</ele><time>2026-04-12T10:57:13Z</time></trkpt><trkpt lat="44.58358019062531" lon="10.527659729584228"><ele>338.0</ele><time>2026-04-12T10:57:14Z</time></trkpt><trkpt lat="44.58372137132106" lon="10.527634725277991"><ele>338.0</ele><time>2026-04-12T10:57:16Z</time></trkpt><trkpt lat="44.583809780660815" lon="10.527601808058417"><ele>338.0</ele><time>2026-04-12T10:57:18Z</time></trkpt><trkpt lat="44.58387730575991" lon="10.527579317429698"><ele>341.0</ele><time>2026-04-12T10:57:19Z</time></trkpt><trkpt lat="44.58395903756316" lon="10.527544416249508"><ele>344.0</ele><time>2026-04-12T10:57:20Z</time></trkpt><trkpt lat="44.58403171573647" lon="10.527475794643637"><ele>347.0</ele><time>2026-04-12T10:57:21Z</time></trkpt><trkpt lat="44.58412892276817" lon="10.527356305038897"><ele>350.0</ele><time>2026-04-12T10:57:22Z</time></trkpt><trkpt lat="44.58426202733866" lon="10.527216687506096"><ele>350.0</ele><time>2026-04-12T10:57:23Z</time></trkpt><trkpt lat="44.58438147917187" lon="10.527071950746972"><ele>350.0</ele><time>2026-04-12T10:57:24Z</time></trkpt><trkpt lat="44.58447647599324" lon="10.526996820343285"><ele>350.0</ele><time>2026-04-12T10:57:25Z</time></trkpt><trkpt lat="44.58455520821257" lon="10.526925901185168"><ele>350.0</ele><time>2026-04-12T10:57:26Z</time></trkpt><trkpt lat="44.584615597166724" lon="10.526870751252284"><ele>350.0</ele><time>2026-04-12T10:57:27Z</time></trkpt><trkpt lat="44.58467568017964" lon="10.526810396812625"><ele>351.2</ele><time>2026-04-12T10:57:28Z</time></trkpt><trkpt lat="44.584756604531464" lon="10.526703710904759"><ele>352.4</ele><time>2026-04-12T10:57:30Z</time></trkpt><trkpt lat="44.58483093013626" lon="10.526602960032944"><ele>353.6</ele><time>2026-04-12T10:57:32Z</time></trkpt><trkpt lat="44.58490780147692" lon="10.526503136136668"><ele>354.8</ele><time>2026-04-12T10:57:34Z</time></trkpt><trkpt lat="44.584973484407165" lon="10.526390251321152"><ele>356.0</ele><time>2026-04-12T10:57:36Z</time></trkpt><trkpt lat="44.585039920050306" lon="10.5262942964636"><ele>355.8</ele><time>2026-04-12T10:57:38Z</time></trkpt><trkpt lat="44.58510364982927" lon="10.526190915668916"><ele>355.6</ele><time>2026-04-12T10:57:40Z</time></trkpt><trkpt lat="44.585187167455636" lon="10.526078602369886"><ele>355.4</ele><time>2026-04-12T10:57:42Z</time></trkpt><trkpt lat="44.58526010294886" lon="10.525954274898938"><ele>355.2</ele><time>2026-04-12T10:57:44Z</time></trkpt><trkpt lat="44.585306040384076" lon="10.52585658194824"><ele>355.0</ele><time>2026-04-12T10:57:45Z</time></trkpt><trkpt lat="44.58539507125404" lon="10.525712664682294"><ele>356.0</ele><time>2026-04-12T10:57:46Z</time></trkpt><trkpt lat="44.585492686546196" lon="10.525576714512072"><ele>357.0</ele><time>2026-04-12T10:57:47Z</time></trkpt><trkpt lat="44.58555515604605" lon="10.525445960442195"><ele>358.0</ele><time>2026-04-12T10:57:47.999Z</time></trkpt><trkpt lat="44.585609584598764" lon="10.525372928455914"><ele>359.0</ele><time>2026-04-12T10:57:48.999Z</time></trkpt><trkpt lat="44.58567977060777" lon="10.525363134695889"><ele>360.0</ele><time>2026-04-12T10:57:49.999Z</time></trkpt><trkpt lat="44.58574343968075" lon="10.525333297657156"><ele>361.4</ele><time>2026-04-12T10:57:50.999Z</time></trkpt><trkpt lat="44.58581468534524" lon="10.525248050764466"><ele>362.8</ele><time>2026-04-12T10:57:52.999Z</time></trkpt><trkpt lat="44.58586773138282" lon="10.525184268242509"><ele>364.20000000000005</ele><time>2026-04-12T10:57:53.999Z</time></trkpt><trkpt lat="44.58592338639069" lon="10.525087632126308"><ele>365.6</ele><time>2026-04-12T10:57:54.999Z</time></trkpt><trkpt lat="44.585989845278036" lon="10.524968108100975"><ele>367.0</ele><time>2026-04-12T10:57:55.999Z</time></trkpt><trkpt lat="44.586053997513666" lon="10.524844079037251"><ele>367.0</ele><time>2026-04-12T10:57:56.999Z</time></trkpt><trkpt lat="44.58609277746735" lon="10.524743515130329"><ele>367.0</ele><time>2026-04-12T10:57:57.999Z</time></trkpt><trkpt lat="44.58615640686861" lon="10.524641486119874"><ele>367.0</ele><time>2026-04-12T10:57:58.999Z</time></trkpt><trkpt lat="44.58623184486885" lon="10.524533944580526"><ele>367.0</ele><time>2026-04-12T10:57:59.999Z</time></trkpt><trkpt lat="44.58630947349176" lon="10.524441225938117"><ele>367.0</ele><time>2026-04-12T10:58:00.999Z</time></trkpt><trkpt lat="44.58639868354169" lon="10.52437154468119"><ele>370.3333333333333</ele><time>2026-04-12T10:58:01.999Z</time></trkpt><trkpt lat="44.5864736634527" lon="10.5243095219281"><ele>373.66666666666663</ele><time>2026-04-12T10:58:02.999Z</time></trkpt><trkpt lat="44.58652832566867" lon="10.524229018457055"><ele>377.0</ele><time>2026-04-12T10:58:03.999Z</time></trkpt><trkpt lat="44.58660445486915" lon="10.524111828680955"><ele>380.3333333333333</ele><time>2026-04-12T10:58:04.999Z</time></trkpt><trkpt lat="44.5866601838979" lon="10.524009571867433"><ele>383.6666666666667</ele><time>2026-04-12T10:58:05.999Z</time></trkpt><trkpt lat="44.58668599963853" lon="10.523923408992252"><ele>387.0</ele><time>2026-04-12T10:58:06.999Z</time></trkpt><trkpt lat="44.5867092855497" lon="10.52381588889021"><ele>388.0</ele><time>2026-04-12T10:58:08.999Z</time></trkpt><trkpt lat="44.58674522689683" lon="10.523643853205071"><ele>389.0</ele><time>2026-04-12T10:58:10.999Z</time></trkpt><trkpt lat="44.58678669044252" lon="10.523544176709448"><ele>390.0</ele><time>2026-04-12T10:58:11.999Z</time></trkpt><trkpt lat="44.586815683938404" lon="10.52342909121473"><ele>391.0</ele><time>2026-04-12T10:58:13.999Z</time></trkpt><trkpt lat="44.58691475462595" lon="10.523327637399229"><ele>392.0</ele><time>2026-04-12T10:58:15.999Z</time></trkpt><trkpt lat="44.58699601987658" lon="10.523289709336273"><ele>393.49999999999994</ele><time>2026-04-12T10:58:17.999Z</time></trkpt><trkpt lat="44.58705462202335" lon="10.523238655654117"><ele>395.0</ele><time>2026-04-12T10:58:19.999Z</time></trkpt><trkpt lat="44.58713647187884" lon="10.523235687604364"><ele>396.5</ele><time>2026-04-12T10:58:34Z</time></trkpt><trkpt lat="44.58724258519631" lon="10.523246619770433"><ele>398.0</ele><time>2026-04-12T10:58:35Z</time></trkpt><trkpt lat="44.5873467166007" lon="10.523291484124606"><ele>399.49999999999994</ele><time>2026-04-12T10:58:36Z</time></trkpt><trkpt lat="44.58741854597602" lon="10.523333244202174"><ele>401.0</ele><time>2026-04-12T10:58:37Z</time></trkpt><trkpt lat="44.587499062331894" lon="10.523330264719432"><ele>401.0</ele><time>2026-04-12T10:58:38Z</time></trkpt><trkpt lat="44.58758239396274" lon="10.523317127074858"><ele>401.0</ele><time>2026-04-12T10:58:39Z</time></trkpt><trkpt lat="44.587665791971844" lon="10.52333142340346"><ele>401.0</ele><time>2026-04-12T10:58:40Z</time></trkpt><trkpt lat="44.58773245900052" lon="10.523346686193765"><ele>401.0</ele><time>2026-04-12T10:58:41Z</time></trkpt><trkpt lat="44.58788194678437" lon="10.523423198297383"><ele>401.0</ele><time>2026-04-12T10:58:54Z</time></trkpt><trkpt lat="44.58800368460467" lon="10.523482280251564"><ele>401.6</ele><time>2026-04-12T10:58:55Z</time></trkpt><trkpt lat="44.58811860088814" lon="10.523532958490701"><ele>402.20000000000005</ele><time>2026-04-12T10:58:56Z</time></trkpt><trkpt lat="44.58823193487786" lon="10.523551995613607"><ele>402.79999999999995</ele><time>2026-04-12T10:58:57Z</time></trkpt><trkpt lat="44.58830048124446" lon="10.523562140230531"><ele>403.4</ele><time>2026-04-12T10:58:58Z</time></trkpt><trkpt lat="44.588390054330446" lon="10.523620742891914"><ele>404.0</ele><time>2026-04-12T10:59:00Z</time></trkpt><trkpt lat="44.58849214145621" lon="10.523669074200459"><ele>404.0</ele><time>2026-04-12T10:59:02Z</time></trkpt><trkpt lat="44.588554723686165" lon="10.52369331571466"><ele>404.0</ele><time>2026-04-12T10:59:03Z</time></trkpt><trkpt lat="44.58866042189228" lon="10.523703066132299"><ele>404.0</ele><time>2026-04-12T10:59:05Z</time></trkpt><trkpt lat="44.588778341853185" lon="10.523644609888938"><ele>404.0</ele><time>2026-04-12T10:59:07Z</time></trkpt><trkpt lat="44.58886519699364" lon="10.523608521719249"><ele>404.0</ele><time>2026-04-12T10:59:09Z</time></trkpt><trkpt lat="44.588900520977376" lon="10.523506315228031"><ele>403.99999999999994</ele><time>2026-04-12T10:59:12Z</time></trkpt><trkpt lat="44.58894442932388" lon="10.52337476847044"><ele>404.0</ele><time>2026-04-12T10:59:15Z</time></trkpt><trkpt lat="44.58897171080688" lon="10.523281744146"><ele>404.0</ele><time>2026-04-12T10:59:16Z</time></trkpt><trkpt lat="44.58898391924621" lon="10.52317098099839"><ele>404.0</ele><time>2026-04-12T10:59:17Z</time></trkpt><trkpt lat="44.58898301013053" lon="10.52307796601456"><ele>403.99999999999994</ele><time>2026-04-12T10:59:18Z</time></trkpt><trkpt lat="44.589085478378806" lon="10.52300955596124"><ele>404.0</ele><time>2026-04-12T10:59:20Z</time></trkpt><trkpt lat="44.58917084803431" lon="10.522940971052181"><ele>404.0</ele><time>2026-04-12T10:59:21Z</time></trkpt><trkpt lat="44.58924125724808" lon="10.522884977173764"><ele>404.0</ele><time>2026-04-12T10:59:22Z</time></trkpt><trkpt lat="44.589325139412466" lon="10.522858806116231"><ele>404.0</ele><time>2026-04-12T10:59:23Z</time></trkpt><trkpt lat="44.58942672792564" lon="10.522830356570667"><ele>404.0</ele><time>2026-04-12T10:59:24Z</time></trkpt><trkpt lat="44.58954172646605" lon="10.522767947841558"><ele>404.0</ele><time>2026-04-12T10:59:25Z</time></trkpt><trkpt lat="44.58964447308291" lon="10.522700730600821"><ele>405.5</ele><time>2026-04-12T10:59:26Z</time></trkpt><trkpt lat="44.58972531867309" lon="10.522600763123952"><ele>407.0</ele><time>2026-04-12T10:59:27Z</time></trkpt><trkpt lat="44.58980559560821" lon="10.522483397339684"><ele>408.5</ele><time>2026-04-12T10:59:28Z</time></trkpt><trkpt lat="44.589888492428514" lon="10.522366967786159"><ele>410.0</ele><time>2026-04-12T10:59:29Z</time></trkpt><trkpt lat="44.58996689744984" lon="10.522254206308157"><ele>410.0</ele><time>2026-04-12T10:59:30Z</time></trkpt><trkpt lat="44.59003557787199" lon="10.522122961855871"><ele>410.0</ele><time>2026-04-12T10:59:31Z</time></trkpt><trkpt lat="44.5900830006676" lon="10.521987690645698"><ele>410.0</ele><time>2026-04-12T10:59:32Z</time></trkpt><trkpt lat="44.59012204314768" lon="10.52183996507494"><ele>410.0</ele><time>2026-04-12T10:59:33Z</time></trkpt><trkpt lat="44.590165810359096" lon="10.521704508756134"><ele>410.0</ele><time>2026-04-12T10:59:34Z</time></trkpt><trkpt lat="44.590231995408644" lon="10.521545613475082"><ele>410.2</ele><time>2026-04-12T10:59:35Z</time></trkpt><trkpt lat="44.59030173532348" lon="10.521390569677253"><ele>410.4</ele><time>2026-04-12T10:59:35.999Z</time></trkpt><trkpt lat="44.590372331235834" lon="10.521275498891093"><ele>410.6</ele><time>2026-04-12T10:59:36.999Z</time></trkpt><trkpt lat="44.59045238254474" lon="10.521189572473606"><ele>410.8</ele><time>2026-04-12T10:59:37.999Z</time></trkpt><trkpt lat="44.590543448656845" lon="10.52112082302117"><ele>411.0</ele><time>2026-04-12T10:59:38.999Z</time></trkpt><trkpt lat="44.590634328865676" lon="10.521058457620683"><ele>411.8333333333333</ele><time>2026-04-12T10:59:39.999Z</time></trkpt><trkpt lat="44.590725507671785" lon="10.521009160996467"><ele>412.66666666666663</ele><time>2026-04-12T10:59:40.999Z</time></trkpt><trkpt lat="44.59080125164844" lon="10.52097548488363"><ele>413.5</ele><time>2026-04-12T10:59:41.999Z</time></trkpt><trkpt lat="44.590880401509146" lon="10.52094103099584"><ele>414.3333333333333</ele><time>2026-04-12T10:59:42.999Z</time></trkpt><trkpt lat="44.590949109787196" lon="10.52090427766859"><ele>415.16666666666663</ele><time>2026-04-12T10:59:43.999Z</time></trkpt><trkpt lat="44.59101133076463" lon="10.520854869960827"><ele>416.0</ele><time>2026-04-12T10:59:44.999Z</time></trkpt><trkpt lat="44.59108144857768" lon="10.520790024136716"><ele>415.99999999999994</ele><time>2026-04-12T10:59:45.999Z</time></trkpt><trkpt lat="44.591143366961795" lon="10.520702460244811"><ele>416.0</ele><time>2026-04-12T10:59:46.999Z</time></trkpt><trkpt lat="44.591197756205084" lon="10.520591763315817"><ele>416.0</ele><time>2026-04-12T10:59:47.999Z</time></trkpt><trkpt lat="44.59125464893125" lon="10.520493162418193"><ele>416.0</ele><time>2026-04-12T10:59:48.999Z</time></trkpt><trkpt lat="44.59131786721628" lon="10.520424323516002"><ele>415.99999999999994</ele><time>2026-04-12T10:59:49.999Z</time></trkpt><trkpt lat="44.59138072189683" lon="10.520386244835503"><ele>416.0</ele><time>2026-04-12T10:59:50.999Z</time></trkpt><trkpt lat="44.5914719040494" lon="10.520374429493971"><ele>416.8</ele><time>2026-04-12T10:59:52.999Z</time></trkpt><trkpt lat="44.59153829536852" lon="10.520375821804647"><ele>417.6</ele><time>2026-04-12T10:59:56.999Z</time></trkpt><trkpt lat="44.59163686270944" lon="10.520397672767146"><ele>418.4</ele><time>2026-04-12T11:00:03.999Z</time></trkpt><trkpt lat="44.591759623379204" lon="10.520469443114514"><ele>419.2</ele><time>2026-04-12T11:00:04.999Z</time></trkpt><trkpt lat="44.591813014302346" lon="10.52051717280683"><ele>420.0</ele><time>2026-04-12T11:00:05.999Z</time></trkpt><trkpt lat="44.59188215106719" lon="10.52070531660923"><ele>420.0</ele><time>2026-04-12T11:00:07.999Z</time></trkpt><trkpt lat="44.59192317197762" lon="10.520806278162581"><ele>420.0</ele><time>2026-04-12T11:00:08.999Z</time></trkpt><trkpt lat="44.59196256645318" lon="10.52088315109026"><ele>420.0</ele><time>2026-04-12T11:00:09.999Z</time></trkpt><trkpt lat="44.5920353102804" lon="10.520962368674365"><ele>420.0</ele><time>2026-04-12T11:00:10.999Z</time></trkpt><trkpt lat="44.59210053989777" lon="10.521048517501438"><ele>420.0</ele><time>2026-04-12T11:00:11.999Z</time></trkpt><trkpt lat="44.59216091201358" lon="10.52111757449703"><ele>420.0</ele><time>2026-04-12T11:00:12.999Z</time></trkpt><trkpt lat="44.59221903554869" lon="10.521168287445802"><ele>416.6</ele><time>2026-04-12T11:00:13.999Z</time></trkpt><trkpt lat="44.592272501463654" lon="10.521257965066724"><ele>413.2</ele><time>2026-04-12T11:00:14.999Z</time></trkpt><trkpt lat="44.59233742854702" lon="10.521344413519191"><ele>409.79999999999995</ele><time>2026-04-12T11:00:15.999Z</time></trkpt><trkpt lat="44.59241103026559" lon="10.521420332321258"><ele>406.4</ele><time>2026-04-12T11:00:16.999Z</time></trkpt><trkpt lat="44.59249921990804" lon="10.521485026000322"><ele>403.0</ele><time>2026-04-12T11:00:17.999Z</time></trkpt><trkpt lat="44.5925625118841" lon="10.521570607428876"><ele>403.00000000000006</ele><time>2026-04-12T11:00:18.999Z</time></trkpt><trkpt lat="44.592585067829795" lon="10.521677834363409"><ele>403.0</ele><time>2026-04-12T11:00:19.999Z</time></trkpt><trkpt lat="44.59257606471322" lon="10.521791630292745"><ele>403.0</ele><time>2026-04-12T11:00:20.999Z</time></trkpt><trkpt lat="44.592587101606334" lon="10.521883723337252"><ele>403.0</ele><time>2026-04-12T11:00:21.999Z</time></trkpt><trkpt lat="44.59263177027517" lon="10.521972978341516"><ele>403.00000000000006</ele><time>2026-04-12T11:00:22.999Z</time></trkpt><trkpt lat="44.592687445523254" lon="10.522051392785388"><ele>403.0</ele><time>2026-04-12T11:00:23.999Z</time></trkpt><trkpt lat="44.59272054705589" lon="10.522145876436243"><ele>399.5</ele><time>2026-04-12T11:00:24.999Z</time></trkpt><trkpt lat="44.592765470303895" lon="10.522286677863011"><ele>396.0</ele><time>2026-04-12T11:00:25.999Z</time></trkpt><trkpt lat="44.59284424910973" lon="10.52243707116171"><ele>392.5</ele><time>2026-04-12T11:00:26.999Z</time></trkpt><trkpt lat="44.59292181934051" lon="10.52257403535342"><ele>389.0</ele><time>2026-04-12T11:00:27.999Z</time></trkpt><trkpt lat="44.59298607248738" lon="10.522687574291803"><ele>388.49999999999994</ele><time>2026-04-12T11:00:28.999Z</time></trkpt><trkpt lat="44.59304905079336" lon="10.5227940715291"><ele>388.0</ele><time>2026-04-12T11:00:29.999Z</time></trkpt><trkpt lat="44.59310809345369" lon="10.522888819663953"><ele>387.5</ele><time>2026-04-12T11:00:30.999Z</time></trkpt><trkpt lat="44.59316258021308" lon="10.522971198012097"><ele>387.0</ele><time>2026-04-12T11:00:31.999Z</time></trkpt><trkpt lat="44.593214801553" lon="10.523044443044093"><ele>386.49999999999994</ele><time>2026-04-12T11:00:32.999Z</time></trkpt><trkpt lat="44.5932758255318" lon="10.52310630661095"><ele>386.0</ele><time>2026-04-12T11:00:33.999Z</time></trkpt><trkpt lat="44.59334266137961" lon="10.52315783651632"><ele>384.20000000000005</ele><time>2026-04-12T11:00:34.999Z</time></trkpt><trkpt lat="44.59342577707746" lon="10.523207149248147"><ele>382.40000000000003</ele><time>2026-04-12T11:00:35.999Z</time></trkpt><trkpt lat="44.593518186588405" lon="10.52325296186556"><ele>380.6</ele><time>2026-04-12T11:00:36.999Z</time></trkpt><trkpt lat="44.59360554413264" lon="10.523324976034187"><ele>378.8</ele><time>2026-04-12T11:00:37.999Z</time></trkpt><trkpt lat="44.59367600828006" lon="10.523403155362246"><ele>377.0</ele><time>2026-04-12T11:00:38.999Z</time></trkpt><trkpt lat="44.5937131599918" lon="10.52350758166697"><ele>376.40000000000003</ele><time>2026-04-12T11:00:40Z</time></trkpt><trkpt lat="44.59376715822317" lon="10.523629283550559"><ele>375.8</ele><time>2026-04-12T11:00:41Z</time></trkpt><trkpt lat="44.59383788848105" lon="10.523741584086878"><ele>375.2</ele><time>2026-04-12T11:00:42Z</time></trkpt><trkpt lat="44.59389220062177" lon="10.523851024012048"><ele>374.6</ele><time>2026-04-12T11:00:43Z</time></trkpt><trkpt lat="44.59393223934706" lon="10.523978375056135"><ele>374.0</ele><time>2026-04-12T11:00:44Z</time></trkpt><trkpt lat="44.59398402425689" lon="10.5241104435984"><ele>373.79999999999995</ele><time>2026-04-12T11:00:45Z</time></trkpt><trkpt lat="44.594052051385155" lon="10.524234791485073"><ele>373.59999999999997</ele><time>2026-04-12T11:00:46Z</time></trkpt><trkpt lat="44.59411025642292" lon="10.52435046303511"><ele>373.4</ele><time>2026-04-12T11:00:47Z</time></trkpt><trkpt lat="44.59415172604644" lon="10.524468086469703"><ele>373.2</ele><time>2026-04-12T11:00:48Z</time></trkpt><trkpt lat="44.594188899056206" lon="10.524577507966635"><ele>373.0</ele><time>2026-04-12T11:00:49Z</time></trkpt><trkpt lat="44.59422861424065" lon="10.524675814953063"><ele>371.66666666666663</ele><time>2026-04-12T11:00:50Z</time></trkpt><trkpt lat="44.59427550050084" lon="10.524775803122742"><ele>370.3333333333333</ele><time>2026-04-12T11:00:51Z</time></trkpt><trkpt lat="44.59433156511556" lon="10.524861533384449"><ele>369.0</ele><time>2026-04-12T11:00:52Z</time></trkpt><trkpt lat="44.59439381827956" lon="10.524938436159339"><ele>367.6666666666667</ele><time>2026-04-12T11:00:53Z</time></trkpt><trkpt lat="44.59446239000079" lon="10.52500356753965"><ele>366.33333333333337</ele><time>2026-04-12T11:00:54Z</time></trkpt><trkpt lat="44.594529039242104" lon="10.525051046568835"><ele>365.0</ele><time>2026-04-12T11:00:55Z</time></trkpt><trkpt lat="44.59458750264054" lon="10.525099047844902"><ele>365.0</ele><time>2026-04-12T11:00:56Z</time></trkpt><trkpt lat="44.59463866471889" lon="10.52519158486891"><ele>365.0</ele><time>2026-04-12T11:00:57Z</time></trkpt><trkpt lat="44.594675877965955" lon="10.525293779935165"><ele>365.0</ele><time>2026-04-12T11:00:58Z</time></trkpt><trkpt lat="44.59469981846957" lon="10.525397021263096"><ele>365.0</ele><time>2026-04-12T11:00:59Z</time></trkpt><trkpt lat="44.59472125356231" lon="10.525499743167002"><ele>365.0</ele><time>2026-04-12T11:01:00Z</time></trkpt><trkpt lat="44.59474804672314" lon="10.525608923358114"><ele>365.0</ele><time>2026-04-12T11:01:01Z</time></trkpt><trkpt lat="44.5947832424873" lon="10.525724666669792"><ele>365.25</ele><time>2026-04-12T11:01:02Z</time></trkpt><trkpt lat="44.59482653652538" lon="10.52585570368877"><ele>365.5</ele><time>2026-04-12T11:01:03Z</time></trkpt><trkpt lat="44.594868019820325" lon="10.526006921047921"><ele>365.75</ele><time>2026-04-12T11:01:04Z</time></trkpt><trkpt lat="44.594901016941265" lon="10.526163062522754"><ele>366.0</ele><time>2026-04-12T11:01:05Z</time></trkpt><trkpt lat="44.594929802152606" lon="10.526320123091367"><ele>366.0</ele><time>2026-04-12T11:01:06Z</time></trkpt><trkpt lat="44.59494790576212" lon="10.52648750015439"><ele>366.0</ele><time>2026-04-12T11:01:07Z</time></trkpt><trkpt lat="44.59499456613043" lon="10.526645866125364"><ele>366.0</ele><time>2026-04-12T11:01:08Z</time></trkpt><trkpt lat="44.59505570306757" lon="10.526762241288173"><ele>366.0</ele><time>2026-04-12T11:01:09Z</time></trkpt><trkpt lat="44.59513871199468" lon="10.526867945308362"><ele>366.0</ele><time>2026-04-12T11:01:10Z</time></trkpt><trkpt lat="44.595237156680376" lon="10.526969597040368"><ele>366.0</ele><time>2026-04-12T11:01:11Z</time></trkpt><trkpt lat="44.59529910449568" lon="10.527072788466828"><ele>366.0</ele><time>2026-04-12T11:01:12Z</time></trkpt><trkpt lat="44.595339595259105" lon="10.52717503946533"><ele>366.0</ele><time>2026-04-12T11:01:13Z</time></trkpt><trkpt lat="44.595368479002545" lon="10.527315367631727"><ele>366.0</ele><time>2026-04-12T11:01:14Z</time></trkpt><trkpt lat="44.595398033353504" lon="10.52745922041139"><ele>365.4</ele><time>2026-04-12T11:01:15Z</time></trkpt><trkpt lat="44.59542592283581" lon="10.52757568384085"><ele>364.8</ele><time>2026-04-12T11:01:16Z</time></trkpt><trkpt lat="44.595458063811336" lon="10.527689902101606"><ele>364.2</ele><time>2026-04-12T11:01:17Z</time></trkpt><trkpt lat="44.59548893718634" lon="10.527814517555292"><ele>363.59999999999997</ele><time>2026-04-12T11:01:18Z</time></trkpt><trkpt lat="44.59551877992631" lon="10.527940980159535"><ele>363.0</ele><time>2026-04-12T11:01:19Z</time></trkpt><trkpt lat="44.59552538140607" lon="10.528064649174924"><ele>363.0</ele><time>2026-04-12T11:01:20Z</time></trkpt><trkpt lat="44.59552383024108" lon="10.528196393647203"><ele>363.0</ele><time>2026-04-12T11:01:21Z</time></trkpt><trkpt lat="44.59553426882521" lon="10.528320141468566"><ele>363.0</ele><time>2026-04-12T11:01:22Z</time></trkpt><trkpt lat="44.595551487970916" lon="10.528415520849173"><ele>363.0</ele><time>2026-04-12T11:01:23Z</time></trkpt><trkpt lat="44.59556543844362" lon="10.528518268987371"><ele>363.0</ele><time>2026-04-12T11:01:24Z</time></trkpt><trkpt lat="44.59558347891168" lon="10.528619875382526"><ele>363.0</ele><time>2026-04-12T11:01:25Z</time></trkpt><trkpt lat="44.59561715209123" lon="10.528739530997301"><ele>362.0</ele><time>2026-04-12T11:01:26Z</time></trkpt><trkpt lat="44.59565262456108" lon="10.528863758206851"><ele>361.0</ele><time>2026-04-12T11:01:27Z</time></trkpt><trkpt lat="44.59568268117964" lon="10.529002643308868"><ele>360.0</ele><time>2026-04-12T11:01:28Z</time></trkpt><trkpt lat="44.5956986028538" lon="10.52911747731099"><ele>359.0</ele><time>2026-04-12T11:01:29Z</time></trkpt><trkpt lat="44.595708405901455" lon="10.529232536211271"><ele>358.0</ele><time>2026-04-12T11:01:30Z</time></trkpt><trkpt lat="44.595718011440454" lon="10.529350562878427"><ele>357.0</ele><time>2026-04-12T11:01:31Z</time></trkpt><trkpt lat="44.59574272579452" lon="10.529457257245484"><ele>357.0</ele><time>2026-04-12T11:01:32Z</time></trkpt><trkpt lat="44.59578861166359" lon="10.529547015510275"><ele>357.0</ele><time>2026-04-12T11:01:33Z</time></trkpt><trkpt lat="44.59585851670896" lon="10.529633355556479"><ele>357.0</ele><time>2026-04-12T11:01:34Z</time></trkpt><trkpt lat="44.595937590519455" lon="10.52972091015449"><ele>357.0</ele><time>2026-04-12T11:01:35Z</time></trkpt><trkpt lat="44.59601346100306" lon="10.529825923224788"><ele>357.0</ele><time>2026-04-12T11:01:36Z</time></trkpt><trkpt lat="44.59608255328881" lon="10.529947208055864"><ele>354.6</ele><time>2026-04-12T11:01:37Z</time></trkpt><trkpt lat="44.596142314713454" lon="10.530073600956104"><ele>352.20000000000005</ele><time>2026-04-12T11:01:37.999Z</time></trkpt><trkpt lat="44.59619907172167" lon="10.530203048748904"><ele>349.8</ele><time>2026-04-12T11:01:38.999Z</time></trkpt><trkpt lat="44.596270276036485" lon="10.530335353503656"><ele>347.4</ele><time>2026-04-12T11:01:39.999Z</time></trkpt><trkpt lat="44.5963278643988" lon="10.530462049200418"><ele>345.0</ele><time>2026-04-12T11:01:40.999Z</time></trkpt><trkpt lat="44.59637126846632" lon="10.530569937953596"><ele>344.6666666666667</ele><time>2026-04-12T11:01:41.999Z</time></trkpt><trkpt lat="44.59640385069351" lon="10.530656197532942"><ele>344.3333333333333</ele><time>2026-04-12T11:01:42.999Z</time></trkpt><trkpt lat="44.59646817305557" lon="10.530789131782052"><ele>344.0</ele><time>2026-04-12T11:01:44.999Z</time></trkpt><trkpt lat="44.59655428410109" lon="10.530887428034406"><ele>343.66666666666663</ele><time>2026-04-12T11:01:46.999Z</time></trkpt><trkpt lat="44.59662008714453" lon="10.530938416506187"><ele>343.3333333333333</ele><time>2026-04-12T11:01:47.999Z</time></trkpt><trkpt lat="44.596679366221395" lon="10.530994579860273"><ele>343.0</ele><time>2026-04-12T11:01:48.999Z</time></trkpt><trkpt lat="44.59674113303498" lon="10.531086710666012"><ele>343.0</ele><time>2026-04-12T11:01:49.999Z</time></trkpt><trkpt lat="44.59680980587583" lon="10.531209179881875"><ele>343.0</ele><time>2026-04-12T11:01:50.999Z</time></trkpt><trkpt lat="44.5968738090256" lon="10.531331051594261"><ele>343.0</ele><time>2026-04-12T11:01:51.999Z</time></trkpt><trkpt lat="44.59687442611853" lon="10.531508781870125"><ele>343.0</ele><time>2026-04-12T11:01:53.999Z</time></trkpt><trkpt lat="44.59685616187925" lon="10.531686414596305"><ele>342.2</ele><time>2026-04-12T11:01:54.999Z</time></trkpt><trkpt lat="44.59682433337757" lon="10.53187065943047"><ele>341.4</ele><time>2026-04-12T11:01:55.999Z</time></trkpt><trkpt lat="44.596808375065834" lon="10.532030260495244"><ele>340.59999999999997</ele><time>2026-04-12T11:01:56.999Z</time></trkpt><trkpt lat="44.59681430016396" lon="10.532123360170912"><ele>339.79999999999995</ele><time>2026-04-12T11:01:57.999Z</time></trkpt><trkpt lat="44.596910591542446" lon="10.532157978463344"><ele>339.0</ele><time>2026-04-12T11:02:00.999Z</time></trkpt><trkpt lat="44.5970114175995" lon="10.532134425262306"><ele>341.0</ele><time>2026-04-12T11:02:02.999Z</time></trkpt><trkpt lat="44.59707130971271" lon="10.532186674816037"><ele>343.0</ele><time>2026-04-12T11:02:04.999Z</time></trkpt><trkpt lat="44.59720814359862" lon="10.532321638682381"><ele>345.0</ele><time>2026-04-12T11:02:05.999Z</time></trkpt><trkpt lat="44.59727159622853" lon="10.532423003581934"><ele>347.0</ele><time>2026-04-12T11:02:06.999Z</time></trkpt><trkpt lat="44.59736764435958" lon="10.532606140686596"><ele>347.0</ele><time>2026-04-12T11:02:07.999Z</time></trkpt><trkpt lat="44.59745778610774" lon="10.532752855081636"><ele>347.0</ele><time>2026-04-12T11:02:08.999Z</time></trkpt><trkpt lat="44.59756238177398" lon="10.532921951723406"><ele>347.0</ele><time>2026-04-12T11:02:09.999Z</time></trkpt><trkpt lat="44.59766513688623" lon="10.533077986995782"><ele>347.0</ele><time>2026-04-12T11:02:10.999Z</time></trkpt><trkpt lat="44.59776764522802" lon="10.53320558446995"><ele>343.0</ele><time>2026-04-12T11:02:11.999Z</time></trkpt><trkpt lat="44.59786652291065" lon="10.533334984636328"><ele>339.0</ele><time>2026-04-12T11:02:12.999Z</time></trkpt><trkpt lat="44.597953881341084" lon="10.533462871136486"><ele>335.0</ele><time>2026-04-12T11:02:13.999Z</time></trkpt><trkpt lat="44.59800296650418" lon="10.533526158054075"><ele>331.0</ele><time>2026-04-12T11:02:14.999Z</time></trkpt><trkpt lat="44.59807287495909" lon="10.533610860852738"><ele>327.0</ele><time>2026-04-12T11:02:15.999Z</time></trkpt><trkpt lat="44.5981443529162" lon="10.533703141300938"><ele>327.8</ele><time>2026-04-12T11:02:16.999Z</time></trkpt><trkpt lat="44.598169989793966" lon="10.533823065390118"><ele>328.6</ele><time>2026-04-12T11:02:17.999Z</time></trkpt><trkpt lat="44.5982019284839" lon="10.533937161840894"><ele>329.40000000000003</ele><time>2026-04-12T11:02:18.999Z</time></trkpt><trkpt lat="44.598145816067536" lon="10.534060051993114"><ele>330.20000000000005</ele><time>2026-04-12T11:02:19.999Z</time></trkpt><trkpt lat="44.59815011485388" lon="10.534169671204682"><ele>331.0</ele><time>2026-04-12T11:02:20.999Z</time></trkpt><trkpt lat="44.59819158130992" lon="10.534285648893919"><ele>331.0</ele><time>2026-04-12T11:02:22.999Z</time></trkpt><trkpt lat="44.598302261483475" lon="10.534332046540499"><ele>331.0</ele><time>2026-04-12T11:02:24.999Z</time></trkpt><trkpt lat="44.59839430014497" lon="10.534326599253657"><ele>331.0</ele><time>2026-04-12T11:02:25.999Z</time></trkpt><trkpt lat="44.598479603615424" lon="10.534317600513663"><ele>331.0</ele><time>2026-04-12T11:02:26.999Z</time></trkpt><trkpt lat="44.59863820710199" lon="10.534304147518613"><ele>327.2</ele><time>2026-04-12T11:02:27.999Z</time></trkpt><trkpt lat="44.59874239111213" lon="10.534275261719264"><ele>323.40000000000003</ele><time>2026-04-12T11:02:28.999Z</time></trkpt><trkpt lat="44.59881798963015" lon="10.53427482154084"><ele>319.6</ele><time>2026-04-12T11:02:29.999Z</time></trkpt><trkpt lat="44.59889347095627" lon="10.53428509223208"><ele>315.8</ele><time>2026-04-12T11:02:30.999Z</time></trkpt><trkpt lat="44.598951597280276" lon="10.534391661358038"><ele>312.0</ele><time>2026-04-12T11:02:32.999Z</time></trkpt><trkpt lat="44.598943872812455" lon="10.534590624588096"><ele>310.8333333333333</ele><time>2026-04-12T11:02:34.999Z</time></trkpt><trkpt lat="44.598929325284196" lon="10.534735451784472"><ele>309.6666666666667</ele><time>2026-04-12T11:02:35.999Z</time></trkpt><trkpt lat="44.59892367320539" lon="10.534886785649189"><ele>308.5</ele><time>2026-04-12T11:02:36.999Z</time></trkpt><trkpt lat="44.598913003405606" lon="10.534979636531995"><ele>307.33333333333337</ele><time>2026-04-12T11:02:37.999Z</time></trkpt><trkpt lat="44.59892834208485" lon="10.535079670498888"><ele>306.1666666666667</ele><time>2026-04-12T11:02:38.999Z</time></trkpt><trkpt lat="44.59896702151235" lon="10.535168874345043"><ele>305.0</ele><time>2026-04-12T11:02:39.999Z</time></trkpt><trkpt lat="44.59903484871195" lon="10.535295345205977"><ele>303.6</ele><time>2026-04-12T11:02:40.999Z</time></trkpt><trkpt lat="44.59910503911476" lon="10.535424943488403"><ele>302.2</ele><time>2026-04-12T11:02:41.999Z</time></trkpt><trkpt lat="44.59916214535907" lon="10.535520352640141"><ele>300.8</ele><time>2026-04-12T11:02:42.999Z</time></trkpt><trkpt lat="44.59921740208391" lon="10.535574354078236"><ele>299.4</ele><time>2026-04-12T11:02:43.999Z</time></trkpt><trkpt lat="44.59933612436303" lon="10.535573217333445"><ele>298.0</ele><time>2026-04-12T11:02:46Z</time></trkpt><trkpt lat="44.59941102349244" lon="10.535521649212907"><ele>298.0</ele><time>2026-04-12T11:02:47Z</time></trkpt><trkpt lat="44.59948492500096" lon="10.535463015015747"><ele>298.0</ele><time>2026-04-12T11:02:48Z</time></trkpt><trkpt lat="44.59955448662049" lon="10.535434590749029"><ele>298.0</ele><time>2026-04-12T11:02:50Z</time></trkpt><trkpt lat="44.599778122656176" lon="10.535485821479973"><ele>298.0</ele><time>2026-04-12T11:02:53Z</time></trkpt><trkpt lat="44.59978634719893" lon="10.535632612196117"><ele>295.2</ele><time>2026-04-12T11:02:55Z</time></trkpt><trkpt lat="44.59981107102707" lon="10.535757643881116"><ele>292.4</ele><time>2026-04-12T11:02:58Z</time></trkpt><trkpt lat="44.59982310500543" lon="10.535873604466733"><ele>289.59999999999997</ele><time>2026-04-12T11:03:00Z</time></trkpt><trkpt lat="44.59989683881414" lon="10.536019856634626"><ele>286.8</ele><time>2026-04-12T11:03:02Z</time></trkpt><trkpt lat="44.59997374135252" lon="10.536157122244795"><ele>284.0</ele><time>2026-04-12T11:03:04Z</time></trkpt><trkpt lat="44.6000569627933" lon="10.536252722676196"><ele>283.25</ele><time>2026-04-12T11:03:05Z</time></trkpt><trkpt lat="44.60015561738153" lon="10.536377622995044"><ele>282.5</ele><time>2026-04-12T11:03:06Z</time></trkpt><trkpt lat="44.600244468728256" lon="10.53650184126956"><ele>281.75</ele><time>2026-04-12T11:03:07Z</time></trkpt><trkpt lat="44.60033065633969" lon="10.536639372705425"><ele>281.0</ele><time>2026-04-12T11:03:08Z</time></trkpt><trkpt lat="44.60046866057008" lon="10.536800772825062"><ele>275.6666666666667</ele><time>2026-04-12T11:03:09Z</time></trkpt><trkpt lat="44.60061607762148" lon="10.537015193598835"><ele>270.3333333333333</ele><time>2026-04-12T11:03:10Z</time></trkpt><trkpt lat="44.60074815159382" lon="10.537209094645734"><ele>265.0</ele><time>2026-04-12T11:03:11Z</time></trkpt><trkpt lat="44.600868442132445" lon="10.537387086570934"><ele>265.0</ele><time>2026-04-12T11:03:12Z</time></trkpt><trkpt lat="44.60099680046458" lon="10.537571959821884"><ele>265.0</ele><time>2026-04-12T11:03:13Z</time></trkpt><trkpt lat="44.60114648711161" lon="10.537804356388573"><ele>265.0</ele><time>2026-04-12T11:03:14Z</time></trkpt><trkpt lat="44.60127950485329" lon="10.538015418000949"><ele>265.3333333333333</ele><time>2026-04-12T11:03:15Z</time></trkpt><trkpt lat="44.60138044542543" lon="10.538198551341425"><ele>265.6666666666667</ele><time>2026-04-12T11:03:16Z</time></trkpt><trkpt lat="44.60147447180097" lon="10.538398278572817"><ele>266.0</ele><time>2026-04-12T11:03:17Z</time></trkpt><trkpt lat="44.6015754711376" lon="10.538654614119633"><ele>267.0</ele><time>2026-04-12T11:03:18Z</time></trkpt><trkpt lat="44.60166628889188" lon="10.53892834748746"><ele>268.0</ele><time>2026-04-12T11:03:19Z</time></trkpt><trkpt lat="44.60171988570443" lon="10.539121724970503"><ele>269.0</ele><time>2026-04-12T11:03:20Z</time></trkpt><trkpt lat="44.60176985521854" lon="10.539290434127652"><ele>269.0</ele><time>2026-04-12T11:03:21Z</time></trkpt><trkpt lat="44.60182126096461" lon="10.539459354817387"><ele>269.0</ele><time>2026-04-12T11:03:22Z</time></trkpt><trkpt lat="44.601878352068724" lon="10.539621272416344"><ele>269.0</ele><time>2026-04-12T11:03:23Z</time></trkpt><trkpt lat="44.60192392573214" lon="10.539756509187383"><ele>269.0</ele><time>2026-04-12T11:03:24Z</time></trkpt><trkpt lat="44.60198786555149" lon="10.539827491261748"><ele>269.0</ele><time>2026-04-12T11:03:25Z</time></trkpt><trkpt lat="44.602019296147084" lon="10.539941462169343"><ele>267.2</ele><time>2026-04-12T11:03:26Z</time></trkpt><trkpt lat="44.60205786358484" lon="10.54004302142158"><ele>265.4</ele><time>2026-04-12T11:03:27Z</time></trkpt><trkpt lat="44.60210352453604" lon="10.540164523480886"><ele>263.6</ele><time>2026-04-12T11:03:28Z</time></trkpt><trkpt lat="44.60215024160715" lon="10.540291170889544"><ele>261.8</ele><time>2026-04-12T11:03:29Z</time></trkpt><trkpt lat="44.60219515101683" lon="10.540413012506034"><ele>260.0</ele><time>2026-04-12T11:03:30Z</time></trkpt><trkpt lat="44.60225133706918" lon="10.540528673764154"><ele>260.0</ele><time>2026-04-12T11:03:31Z</time></trkpt><trkpt lat="44.60229457277736" lon="10.540658440939056"><ele>260.0</ele><time>2026-04-12T11:03:32Z</time></trkpt><trkpt lat="44.60233771508967" lon="10.540784739016425"><ele>260.0</ele><time>2026-04-12T11:03:33Z</time></trkpt><trkpt lat="44.60237935708411" lon="10.54090980365757"><ele>260.0</ele><time>2026-04-12T11:03:34Z</time></trkpt><trkpt lat="44.602422101636655" lon="10.541042149924222"><ele>260.0</ele><time>2026-04-12T11:03:35Z</time></trkpt><trkpt lat="44.60247075680195" lon="10.541179925918021"><ele>258.6</ele><time>2026-04-12T11:03:36Z</time></trkpt><trkpt lat="44.602519701055826" lon="10.541320715778593"><ele>257.2</ele><time>2026-04-12T11:03:37Z</time></trkpt><trkpt lat="44.60256947918302" lon="10.541452683698637"><ele>255.8</ele><time>2026-04-12T11:03:38Z</time></trkpt><trkpt lat="44.602611173074195" lon="10.541588166883862"><ele>254.4</ele><time>2026-04-12T11:03:39Z</time></trkpt><trkpt lat="44.60264917090938" lon="10.541725363014796"><ele>253.0</ele><time>2026-04-12T11:03:40Z</time></trkpt><trkpt lat="44.60269151901386" lon="10.541851761158982"><ele>253.0</ele><time>2026-04-12T11:03:41Z</time></trkpt><trkpt lat="44.60273924350461" lon="10.541967258592544"><ele>253.0</ele><time>2026-04-12T11:03:42Z</time></trkpt><trkpt lat="44.60278597840911" lon="10.542080836169616"><ele>253.0</ele><time>2026-04-12T11:03:43Z</time></trkpt><trkpt lat="44.60284319030687" lon="10.542199806698154"><ele>253.0</ele><time>2026-04-12T11:03:44Z</time></trkpt><trkpt lat="44.602923107351586" lon="10.542327193870424"><ele>253.0</ele><time>2026-04-12T11:03:45Z</time></trkpt><trkpt lat="44.60302277707795" lon="10.54246761229485"><ele>248.66666666666666</ele><time>2026-04-12T11:03:46Z</time></trkpt><trkpt lat="44.60313217332043" lon="10.542623693098301"><ele>244.33333333333331</ele><time>2026-04-12T11:03:47Z</time></trkpt><trkpt lat="44.603249195656076" lon="10.542791168073391"><ele>240.0</ele><time>2026-04-12T11:03:48Z</time></trkpt><trkpt lat="44.603363867591774" lon="10.542954209565426"><ele>238.0</ele><time>2026-04-12T11:03:49Z</time></trkpt><trkpt lat="44.6034690756352" lon="10.54309931976878"><ele>236.0</ele><time>2026-04-12T11:03:50Z</time></trkpt><trkpt lat="44.60355955251468" lon="10.543231532657929"><ele>234.0</ele><time>2026-04-12T11:03:51Z</time></trkpt><trkpt lat="44.60364917056703" lon="10.543354504030447"><ele>232.0</ele><time>2026-04-12T11:03:52Z</time></trkpt><trkpt lat="44.60373613386206" lon="10.543466313489331"><ele>230.8</ele><time>2026-04-12T11:03:53Z</time></trkpt><trkpt lat="44.603812736474886" lon="10.543567178000266"><ele>229.6</ele><time>2026-04-12T11:03:54Z</time></trkpt><trkpt lat="44.603877590280895" lon="10.543665658628047"><ele>228.40000000000003</ele><time>2026-04-12T11:03:55Z</time></trkpt><trkpt lat="44.603911153213126" lon="10.54379817597791"><ele>227.20000000000002</ele><time>2026-04-12T11:03:56Z</time></trkpt><trkpt lat="44.60395671614926" lon="10.543931365101757"><ele>226.0</ele><time>2026-04-12T11:03:57Z</time></trkpt><trkpt lat="44.603998950708316" lon="10.54406292604787"><ele>225.60000000000002</ele><time>2026-04-12T11:03:58Z</time></trkpt><trkpt lat="44.60404771769814" lon="10.544186085883691"><ele>225.20000000000002</ele><time>2026-04-12T11:03:59Z</time></trkpt><trkpt lat="44.604079215040535" lon="10.544320037544612"><ele>224.79999999999998</ele><time>2026-04-12T11:04:00Z</time></trkpt><trkpt lat="44.60411541830132" lon="10.544454661018591"><ele>224.39999999999998</ele><time>2026-04-12T11:04:01Z</time></trkpt><trkpt lat="44.60414637666389" lon="10.544578134531589"><ele>224.0</ele><time>2026-04-12T11:04:02Z</time></trkpt><trkpt lat="44.60417815233387" lon="10.544692618056288"><ele>221.79999999999998</ele><time>2026-04-12T11:04:03Z</time></trkpt><trkpt lat="44.604224013527705" lon="10.544799742224793"><ele>219.59999999999997</ele><time>2026-04-12T11:04:04Z</time></trkpt><trkpt lat="44.604286292775555" lon="10.544883414641143"><ele>217.4</ele><time>2026-04-12T11:04:05Z</time></trkpt><trkpt lat="44.60438053654709" lon="10.544977528081585"><ele>215.2</ele><time>2026-04-12T11:04:06Z</time></trkpt><trkpt lat="44.604486821636996" lon="10.545090292782836"><ele>213.0</ele><time>2026-04-12T11:04:07Z</time></trkpt><trkpt lat="44.60457711079735" lon="10.545203152017892"><ele>209.75</ele><time>2026-04-12T11:04:08Z</time></trkpt><trkpt lat="44.60467537757643" lon="10.545363962550468"><ele>206.5</ele><time>2026-04-12T11:04:09Z</time></trkpt><trkpt lat="44.60470726349689" lon="10.545457342141287"><ele>203.25</ele><time>2026-04-12T11:04:10Z</time></trkpt><trkpt lat="44.60472466455029" lon="10.545624734801365"><ele>200.0</ele><time>2026-04-12T11:04:11Z</time></trkpt><trkpt lat="44.604765532048575" lon="10.54578748968472"><ele>198.0</ele><time>2026-04-12T11:04:12Z</time></trkpt><trkpt lat="44.604800824960975" lon="10.545945763066896"><ele>196.0</ele><time>2026-04-12T11:04:13Z</time></trkpt><trkpt lat="44.60485657454091" lon="10.546105515326248"><ele>194.0</ele><time>2026-04-12T11:04:14Z</time></trkpt><trkpt lat="44.60491959871903" lon="10.546260946216975"><ele>192.0</ele><time>2026-04-12T11:04:15Z</time></trkpt><trkpt lat="44.604980910769065" lon="10.546398008784205"><ele>190.8</ele><time>2026-04-12T11:04:16Z</time></trkpt><trkpt lat="44.60503515696262" lon="10.546524254740232"><ele>189.6</ele><time>2026-04-12T11:04:17Z</time></trkpt><trkpt lat="44.6050847454866" lon="10.546646540399458"><ele>188.4</ele><time>2026-04-12T11:04:18Z</time></trkpt><trkpt lat="44.6051286852373" lon="10.546764888733637"><ele>187.20000000000002</ele><time>2026-04-12T11:04:19Z</time></trkpt><trkpt lat="44.60516804113743" lon="10.546878046609049"><ele>186.0</ele><time>2026-04-12T11:04:20Z</time></trkpt><trkpt lat="44.60520302678866" lon="10.54698730668555"><ele>183.5</ele><time>2026-04-12T11:04:21Z</time></trkpt><trkpt lat="44.605236539378005" lon="10.547108478058753"><ele>181.0</ele><time>2026-04-12T11:04:22Z</time></trkpt><trkpt lat="44.60528615393896" lon="10.547252356128682"><ele>178.5</ele><time>2026-04-12T11:04:23Z</time></trkpt><trkpt lat="44.605356351257775" lon="10.547416412590707"><ele>176.0</ele><time>2026-04-12T11:04:24Z</time></trkpt><trkpt lat="44.60543784614034" lon="10.547566436542116"><ele>173.25</ele><time>2026-04-12T11:04:25Z</time></trkpt><trkpt lat="44.605529756154425" lon="10.547700121172008"><ele>170.5</ele><time>2026-04-12T11:04:26Z</time></trkpt><trkpt lat="44.60562291980866" lon="10.547818875071394"><ele>167.75</ele><time>2026-04-12T11:04:27Z</time></trkpt><trkpt lat="44.6057048121819" lon="10.547912486664574"><ele>165.0</ele><time>2026-04-12T11:04:28Z</time></trkpt><trkpt lat="44.605769630641895" lon="10.548002601892902"><ele>164.83333333333334</ele><time>2026-04-12T11:04:28.999Z</time></trkpt><trkpt lat="44.60581915731179" lon="10.548093222281196"><ele>164.66666666666666</ele><time>2026-04-12T11:04:29.999Z</time></trkpt><trkpt lat="44.605862546733725" lon="10.548198607714811"><ele>164.5</ele><time>2026-04-12T11:04:30.999Z</time></trkpt><trkpt lat="44.6059031697421" lon="10.54830477971366"><ele>164.33333333333331</ele><time>2026-04-12T11:04:31.999Z</time></trkpt><trkpt lat="44.60594336184802" lon="10.548400108363259"><ele>164.16666666666666</ele><time>2026-04-12T11:04:32.999Z</time></trkpt><trkpt lat="44.60597344158834" lon="10.548485412728636"><ele>164.0</ele><time>2026-04-12T11:04:33.999Z</time></trkpt><trkpt lat="44.60599496335905" lon="10.54857618754583"><ele>164.0</ele><time>2026-04-12T11:04:34.999Z</time></trkpt><trkpt lat="44.60600867185979" lon="10.548666194394366"><ele>164.0</ele><time>2026-04-12T11:04:35.999Z</time></trkpt><trkpt lat="44.60600027437414" lon="10.548757928596524"><ele>164.0</ele><time>2026-04-12T11:04:36.999Z</time></trkpt><trkpt lat="44.605991098870014" lon="10.548853185323317"><ele>164.0</ele><time>2026-04-12T11:04:37.999Z</time></trkpt><trkpt lat="44.60598034040547" lon="10.54896458665356"><ele>164.0</ele><time>2026-04-12T11:04:39.999Z</time></trkpt><trkpt lat="44.60603156147851" lon="10.549091295560975"><ele>164.0</ele><time>2026-04-12T11:04:44.999Z</time></trkpt><trkpt lat="44.60612176975148" lon="10.549116640626226"><ele>162.5</ele><time>2026-04-12T11:04:45.999Z</time></trkpt><trkpt lat="44.60622719203264" lon="10.549123308171527"><ele>161.0</ele><time>2026-04-12T11:04:46.999Z</time></trkpt><trkpt lat="44.6063537787397" lon="10.549137997824122"><ele>159.5</ele><time>2026-04-12T11:04:47.999Z</time></trkpt><trkpt lat="44.606487936330375" lon="10.549162494685834"><ele>158.0</ele><time>2026-04-12T11:04:48.999Z</time></trkpt><trkpt lat="44.606625135300135" lon="10.549198843700289"><ele>158.0</ele><time>2026-04-12T11:04:49.999Z</time></trkpt><trkpt lat="44.60680163985016" lon="10.549237065542554"><ele>158.0</ele><time>2026-04-12T11:04:50.999Z</time></trkpt><trkpt lat="44.607014319897075" lon="10.549274250863771"><ele>158.0</ele><time>2026-04-12T11:04:52Z</time></trkpt><trkpt lat="44.60718913929914" lon="10.549309141696922"><ele>157.8</ele><time>2026-04-12T11:04:53Z</time></trkpt><trkpt lat="44.60732648831703" lon="10.549339189001396"><ele>157.60000000000002</ele><time>2026-04-12T11:04:54Z</time></trkpt><trkpt lat="44.60743842309641" lon="10.549363113613799"><ele>157.39999999999998</ele><time>2026-04-12T11:04:55Z</time></trkpt><trkpt lat="44.607525922323774" lon="10.549385882217784"><ele>157.2</ele><time>2026-04-12T11:04:56Z</time></trkpt><trkpt lat="44.6076009227401" lon="10.549423932968594"><ele>157.0</ele><time>2026-04-12T11:04:57Z</time></trkpt><trkpt lat="44.60767377383758" lon="10.549489690927738"><ele>156.79999999999998</ele><time>2026-04-12T11:04:58Z</time></trkpt><trkpt lat="44.607750903293955" lon="10.54955267649709"><ele>156.6</ele><time>2026-04-12T11:04:59Z</time></trkpt><trkpt lat="44.60784912558109" lon="10.549575222627626"><ele>156.39999999999998</ele><time>2026-04-12T11:05:00Z</time></trkpt><trkpt lat="44.607960612171745" lon="10.549545293849533"><ele>156.2</ele><time>2026-04-12T11:05:01Z</time></trkpt><trkpt lat="44.60808894124079" lon="10.549510484537803"><ele>156.0</ele><time>2026-04-12T11:05:02Z</time></trkpt><trkpt lat="44.608228721928256" lon="10.5495368882876"><ele>156.66666666666666</ele><time>2026-04-12T11:05:03Z</time></trkpt><trkpt lat="44.60836177576743" lon="10.549607505757992"><ele>157.33333333333331</ele><time>2026-04-12T11:05:04Z</time></trkpt><trkpt lat="44.60849486610686" lon="10.54972295601251"><ele>158.0</ele><time>2026-04-12T11:05:05Z</time></trkpt><trkpt lat="44.608628328241856" lon="10.549885487530469"><ele>158.0</ele><time>2026-04-12T11:05:06Z</time></trkpt><trkpt lat="44.60878011418353" lon="10.550100822033569"><ele>158.0</ele><time>2026-04-12T11:05:07Z</time></trkpt><trkpt lat="44.60895166759601" lon="10.550355579626544"><ele>157.0</ele><time>2026-04-12T11:05:08Z</time></trkpt><trkpt lat="44.60913360170293" lon="10.550609457846418"><ele>156.0</ele><time>2026-04-12T11:05:09Z</time></trkpt><trkpt lat="44.60930891925073" lon="10.550855905073796"><ele>156.0</ele><time>2026-04-12T11:05:10Z</time></trkpt><trkpt lat="44.60945899915709" lon="10.551065801723423"><ele>156.0</ele><time>2026-04-12T11:05:11Z</time></trkpt><trkpt lat="44.60960692447743" lon="10.551264495421165"><ele>156.0</ele><time>2026-04-12T11:05:12Z</time></trkpt><trkpt lat="44.60974023103805" lon="10.551453238283878"><ele>156.33333333333334</ele><time>2026-04-12T11:05:13Z</time></trkpt><trkpt lat="44.60986834721595" lon="10.551627282008672"><ele>156.66666666666669</ele><time>2026-04-12T11:05:14Z</time></trkpt><trkpt lat="44.61000007354424" lon="10.551798665897435"><ele>157.0</ele><time>2026-04-12T11:05:15Z</time></trkpt><trkpt lat="44.61013459778136" lon="10.551951599420926"><ele>156.66666666666669</ele><time>2026-04-12T11:05:16Z</time></trkpt><trkpt lat="44.61028303598732" lon="10.552090322061746"><ele>156.33333333333334</ele><time>2026-04-12T11:05:17Z</time></trkpt><trkpt lat="44.61044875851576" lon="10.552217962873717"><ele>156.0</ele><time>2026-04-12T11:05:18Z</time></trkpt><trkpt lat="44.61064039236064" lon="10.552365700546783"><ele>156.0</ele><time>2026-04-12T11:05:19Z</time></trkpt><trkpt lat="44.61085154886598" lon="10.55252968748791"><ele>156.0</ele><time>2026-04-12T11:05:20Z</time></trkpt><trkpt lat="44.61108419426366" lon="10.552703219065679"><ele>155.5</ele><time>2026-04-12T11:05:21Z</time></trkpt><trkpt lat="44.61131669754005" lon="10.55286310153477"><ele>155.0</ele><time>2026-04-12T11:05:22Z</time></trkpt><trkpt lat="44.61156085926264" lon="10.553023317167577"><ele>155.0</ele><time>2026-04-12T11:05:23Z</time></trkpt><trkpt lat="44.611773752330436" lon="10.553153549784893"><ele>155.0</ele><time>2026-04-12T11:05:24Z</time></trkpt><trkpt lat="44.611971424540684" lon="10.553278398554454"><ele>155.0</ele><time>2026-04-12T11:05:25Z</time></trkpt><trkpt lat="44.612153044184495" lon="10.553404052908455"><ele>155.0</ele><time>2026-04-12T11:05:26Z</time></trkpt><trkpt lat="44.61234231519436" lon="10.553507256553964"><ele>155.0</ele><time>2026-04-12T11:05:27Z</time></trkpt><trkpt lat="44.61253963324216" lon="10.553625490732744"><ele>155.0</ele><time>2026-04-12T11:05:28Z</time></trkpt><trkpt lat="44.61272150744221" lon="10.553746383190905"><ele>154.33333333333331</ele><time>2026-04-12T11:05:29Z</time></trkpt><trkpt lat="44.61295924555779" lon="10.553893507181897"><ele>153.66666666666666</ele><time>2026-04-12T11:05:30Z</time></trkpt><trkpt lat="44.61312323532645" lon="10.553987722105937"><ele>153.0</ele><time>2026-04-12T11:05:31Z</time></trkpt><trkpt lat="44.61327787516269" lon="10.554081674257143"><ele>153.0</ele><time>2026-04-12T11:05:32Z</time></trkpt><trkpt lat="44.61342272988452" lon="10.554177095874834"><ele>153.0</ele><time>2026-04-12T11:05:33Z</time></trkpt><trkpt lat="44.61356531250658" lon="10.554277304213848"><ele>153.0</ele><time>2026-04-12T11:05:34Z</time></trkpt><trkpt lat="44.61370016489604" lon="10.554342657054871"><ele>153.0</ele><time>2026-04-12T11:05:35Z</time></trkpt><trkpt lat="44.61384254415747" lon="10.554396462918923"><ele>153.0</ele><time>2026-04-12T11:05:36Z</time></trkpt><trkpt lat="44.61398984712664" lon="10.5544190382283"><ele>153.0</ele><time>2026-04-12T11:05:37Z</time></trkpt><trkpt lat="44.61414918293334" lon="10.55440518727589"><ele>153.0</ele><time>2026-04-12T11:05:38Z</time></trkpt><trkpt lat="44.61432326073584" lon="10.55435609953341"><ele>153.0</ele><time>2026-04-12T11:05:39Z</time></trkpt><trkpt lat="44.61450769869921" lon="10.554295694575567"><ele>153.0</ele><time>2026-04-12T11:05:40Z</time></trkpt><trkpt lat="44.61469990660425" lon="10.554237888454166"><ele>152.66666666666666</ele><time>2026-04-12T11:05:41Z</time></trkpt><trkpt lat="44.61490456267596" lon="10.55418514001196"><ele>152.33333333333331</ele><time>2026-04-12T11:05:42Z</time></trkpt><trkpt lat="44.61510276839732" lon="10.554137425196014"><ele>152.0</ele><time>2026-04-12T11:05:43Z</time></trkpt><trkpt lat="44.61528036423568" lon="10.554098120100564"><ele>151.66666666666666</ele><time>2026-04-12T11:05:44Z</time></trkpt><trkpt lat="44.615452344750274" lon="10.554066447313968"><ele>151.33333333333334</ele><time>2026-04-12T11:05:45Z</time></trkpt><trkpt lat="44.61563082478214" lon="10.5540660509205"><ele>151.0</ele><time>2026-04-12T11:05:46Z</time></trkpt><trkpt lat="44.61580839687298" lon="10.554087251204267"><ele>151.0</ele><time>2026-04-12T11:05:47Z</time></trkpt><trkpt lat="44.61597860237829" lon="10.554159822565001"><ele>151.0</ele><time>2026-04-12T11:05:48Z</time></trkpt><trkpt lat="44.61615935677836" lon="10.554213436036251"><ele>151.0</ele><time>2026-04-12T11:05:49Z</time></trkpt><trkpt lat="44.61633922440598" lon="10.554301915005038"><ele>151.33333333333334</ele><time>2026-04-12T11:05:50Z</time></trkpt><trkpt lat="44.616538826286636" lon="10.554388172115413"><ele>151.66666666666666</ele><time>2026-04-12T11:05:51Z</time></trkpt><trkpt lat="44.61673188358265" lon="10.554467855770577"><ele>152.0</ele><time>2026-04-12T11:05:52Z</time></trkpt><trkpt lat="44.616897636581115" lon="10.554532848312418"><ele>151.33333333333331</ele><time>2026-04-12T11:05:53Z</time></trkpt><trkpt lat="44.61705871626243" lon="10.554599625872932"><ele>150.66666666666666</ele><time>2026-04-12T11:05:54Z</time></trkpt><trkpt lat="44.61721548505077" lon="10.554651658904538"><ele>150.0</ele><time>2026-04-12T11:05:55Z</time></trkpt><trkpt lat="44.61734664366211" lon="10.554723476555644"><ele>150.0</ele><time>2026-04-12T11:05:56Z</time></trkpt><trkpt lat="44.61746518248695" lon="10.554817864252358"><ele>150.0</ele><time>2026-04-12T11:05:57Z</time></trkpt><trkpt lat="44.61756525301895" lon="10.55493202484757"><ele>150.0</ele><time>2026-04-12T11:05:58Z</time></trkpt><trkpt lat="44.6176561203762" lon="10.55507441203867"><ele>150.0</ele><time>2026-04-12T11:05:59Z</time></trkpt><trkpt lat="44.617728151866295" lon="10.555224606013535"><ele>148.75</ele><time>2026-04-12T11:06:00Z</time></trkpt><trkpt lat="44.61777889978084" lon="10.555385036558269"><ele>147.5</ele><time>2026-04-12T11:06:01Z</time></trkpt><trkpt lat="44.61781481469598" lon="10.555538136397805"><ele>146.25</ele><time>2026-04-12T11:06:02Z</time></trkpt><trkpt lat="44.617815504076795" lon="10.55569957613621"><ele>145.0</ele><time>2026-04-12T11:06:03Z</time></trkpt><trkpt lat="44.617794094615014" lon="10.55584780949493"><ele>145.0</ele><time>2026-04-12T11:06:04Z</time></trkpt><trkpt lat="44.61774809552721" lon="10.55598919997934"><ele>145.0</ele><time>2026-04-12T11:06:05Z</time></trkpt><trkpt lat="44.61772954811326" lon="10.556126815004372"><ele>145.0</ele><time>2026-04-12T11:06:06Z</time></trkpt><trkpt lat="44.61773618047576" lon="10.556251146908744"><ele>145.0</ele><time>2026-04-12T11:06:07Z</time></trkpt><trkpt lat="44.61776735387627" lon="10.556379864187651"><ele>145.0</ele><time>2026-04-12T11:06:08Z</time></trkpt><trkpt lat="44.61781723264473" lon="10.556528831385803"><ele>145.0</ele><time>2026-04-12T11:06:09Z</time></trkpt><trkpt lat="44.617869205858206" lon="10.556694920441455"><ele>145.0</ele><time>2026-04-12T11:06:10Z</time></trkpt><trkpt lat="44.617898939281375" lon="10.556892893463841"><ele>145.0</ele><time>2026-04-12T11:06:11Z</time></trkpt><trkpt lat="44.61790670331785" lon="10.557111116271864"><ele>145.0</ele><time>2026-04-12T11:06:12Z</time></trkpt><trkpt lat="44.61791706372625" lon="10.557347844024711"><ele>144.33333333333334</ele><time>2026-04-12T11:06:13Z</time></trkpt><trkpt lat="44.61794584916402" lon="10.557593594641194"><ele>143.66666666666666</ele><time>2026-04-12T11:06:14Z</time></trkpt><trkpt lat="44.61799105793362" lon="10.557843013067556"><ele>143.0</ele><time>2026-04-12T11:06:15Z</time></trkpt><trkpt lat="44.618052834817824" lon="10.55809295027753"><ele>141.66666666666666</ele><time>2026-04-12T11:06:16Z</time></trkpt><trkpt lat="44.61813370320365" lon="10.558346671731577"><ele>140.33333333333334</ele><time>2026-04-12T11:06:17Z</time></trkpt><trkpt lat="44.61823390459439" lon="10.558591723081312"><ele>139.0</ele><time>2026-04-12T11:06:18Z</time></trkpt><trkpt lat="44.61834968622427" lon="10.558841579170842"><ele>138.66666666666669</ele><time>2026-04-12T11:06:19Z</time></trkpt><trkpt lat="44.61847990720438" lon="10.559088250641949"><ele>138.33333333333334</ele><time>2026-04-12T11:06:20Z</time></trkpt><trkpt lat="44.618616281869606" lon="10.559335565632438"><ele>138.0</ele><time>2026-04-12T11:06:20.999Z</time></trkpt><trkpt lat="44.61875264950689" lon="10.55958094037732"><ele>137.5</ele><time>2026-04-12T11:06:21.999Z</time></trkpt><trkpt lat="44.61889240862381" lon="10.559836771081963"><ele>137.0</ele><time>2026-04-12T11:06:22.999Z</time></trkpt><trkpt lat="44.619035489575" lon="10.56009740640215"><ele>137.0</ele><time>2026-04-12T11:06:23.999Z</time></trkpt><trkpt lat="44.61917581183552" lon="10.56035472499849"><ele>137.0</ele><time>2026-04-12T11:06:24.999Z</time></trkpt><trkpt lat="44.619309146347966" lon="10.560608239547363"><ele>137.5</ele><time>2026-04-12T11:06:25.999Z</time></trkpt><trkpt lat="44.61944399138035" lon="10.56086137964352"><ele>138.0</ele><time>2026-04-12T11:06:26.999Z</time></trkpt><trkpt lat="44.61958235183557" lon="10.561112148255688"><ele>136.66666666666666</ele><time>2026-04-12T11:06:27.999Z</time></trkpt><trkpt lat="44.61972360289892" lon="10.56136391309237"><ele>135.33333333333331</ele><time>2026-04-12T11:06:28.999Z</time></trkpt><trkpt lat="44.61986050871352" lon="10.561608071710253"><ele>134.0</ele><time>2026-04-12T11:06:29.999Z</time></trkpt><trkpt lat="44.619998801067716" lon="10.561851343839935"><ele>133.66666666666666</ele><time>2026-04-12T11:06:30.999Z</time></trkpt><trkpt lat="44.62013328593083" lon="10.562091951241722"><ele>133.33333333333334</ele><time>2026-04-12T11:06:31.999Z</time></trkpt><trkpt lat="44.6202655867855" lon="10.562328317859759"><ele>133.0</ele><time>2026-04-12T11:06:32.999Z</time></trkpt><trkpt lat="44.62040235421059" lon="10.562567379038178"><ele>133.33333333333334</ele><time>2026-04-12T11:06:33.999Z</time></trkpt><trkpt lat="44.62054495664248" lon="10.562805986696182"><ele>133.66666666666666</ele><time>2026-04-12T11:06:34.999Z</time></trkpt><trkpt lat="44.6206909870738" lon="10.563038921368348"><ele>134.0</ele><time>2026-04-12T11:06:35.999Z</time></trkpt><trkpt lat="44.62083910533975" lon="10.563266435406076"><ele>134.0</ele><time>2026-04-12T11:06:36.999Z</time></trkpt><trkpt lat="44.620995524406695" lon="10.563494397429563"><ele>134.0</ele><time>2026-04-12T11:06:37.999Z</time></trkpt><trkpt lat="44.621165498589065" lon="10.563714353862254"><ele>132.0</ele><time>2026-04-12T11:06:38.999Z</time></trkpt><trkpt lat="44.62134297418503" lon="10.563928402395863"><ele>130.0</ele><time>2026-04-12T11:06:39.999Z</time></trkpt><trkpt lat="44.621531165661715" lon="10.564138491878483"><ele>130.0</ele><time>2026-04-12T11:06:40.999Z</time></trkpt><trkpt lat="44.62172624336122" lon="10.564337704268778"><ele>130.0</ele><time>2026-04-12T11:06:41.999Z</time></trkpt><trkpt lat="44.62193811226219" lon="10.564523781398227"><ele>131.0</ele><time>2026-04-12T11:06:42.999Z</time></trkpt><trkpt lat="44.62214996018204" lon="10.564703453076408"><ele>132.0</ele><time>2026-04-12T11:06:43.999Z</time></trkpt><trkpt lat="44.622362836551396" lon="10.564873668971659"><ele>132.0</ele><time>2026-04-12T11:06:44.999Z</time></trkpt><trkpt lat="44.62256137735983" lon="10.565026178048196"><ele>132.0</ele><time>2026-04-12T11:06:45.999Z</time></trkpt><trkpt lat="44.6227410727954" lon="10.565171466578924"><ele>132.0</ele><time>2026-04-12T11:06:46.999Z</time></trkpt><trkpt lat="44.62291820335827" lon="10.56529778455271"><ele>132.33333333333334</ele><time>2026-04-12T11:06:47.999Z</time></trkpt><trkpt lat="44.623075054225026" lon="10.565419314162702"><ele>132.66666666666669</ele><time>2026-04-12T11:06:48.999Z</time></trkpt><trkpt lat="44.623229675202424" lon="10.565537845606013"><ele>133.0</ele><time>2026-04-12T11:06:49.999Z</time></trkpt><trkpt lat="44.62337245777929" lon="10.565647594559772"><ele>133.0</ele><time>2026-04-12T11:06:50.999Z</time></trkpt><trkpt lat="44.62350562213165" lon="10.56574778496099"><ele>133.0</ele><time>2026-04-12T11:06:51.999Z</time></trkpt><trkpt lat="44.62363426555791" lon="10.565841805056687"><ele>133.0</ele><time>2026-04-12T11:06:52.999Z</time></trkpt><trkpt lat="44.623755643068684" lon="10.565934820960033"><ele>133.0</ele><time>2026-04-12T11:06:53.999Z</time></trkpt><trkpt lat="44.623865377600694" lon="10.566017576422865"><ele>132.8</ele><time>2026-04-12T11:06:54.999Z</time></trkpt><trkpt lat="44.62396464782158" lon="10.566089477870715"><ele>132.60000000000002</ele><time>2026-04-12T11:06:55.999Z</time></trkpt><trkpt lat="44.62405647348269" lon="10.566157763980092"><ele>132.39999999999998</ele><time>2026-04-12T11:06:56.999Z</time></trkpt><trkpt lat="44.62414126414508" lon="10.56622438263237"><ele>132.2</ele><time>2026-04-12T11:06:58Z</time></trkpt><trkpt lat="44.62421630356961" lon="10.566287814402484"><ele>132.0</ele><time>2026-04-12T11:06:59Z</time></trkpt><trkpt lat="44.624285578371676" lon="10.566355874489176"><ele>131.83333333333334</ele><time>2026-04-12T11:07:00Z</time></trkpt><trkpt lat="44.624355233987906" lon="10.566411021946246"><ele>131.66666666666666</ele><time>2026-04-12T11:07:01Z</time></trkpt><trkpt lat="44.62441450091356" lon="10.56648771451444"><ele>131.5</ele><time>2026-04-12T11:07:02Z</time></trkpt><trkpt lat="44.62446983393629" lon="10.566571965249016"><ele>131.33333333333331</ele><time>2026-04-12T11:07:03Z</time></trkpt><trkpt lat="44.62449054486969" lon="10.56670886359841"><ele>131.16666666666666</ele><time>2026-04-12T11:07:04Z</time></trkpt><trkpt lat="44.624538118039794" lon="10.56681687760272"><ele>131.0</ele><time>2026-04-12T11:07:05Z</time></trkpt><trkpt lat="44.624573493355896" lon="10.566923855939866"><ele>130.0</ele><time>2026-04-12T11:07:06Z</time></trkpt><trkpt lat="44.62445288760176" lon="10.567093064272626"><ele>129.0</ele><time>2026-04-12T11:07:07Z</time></trkpt><trkpt lat="44.62437755349738" lon="10.567248336410545"><ele>128.0</ele><time>2026-04-12T11:07:08Z</time></trkpt><trkpt lat="44.62427481143892" lon="10.567452371793511"><ele>128.0</ele><time>2026-04-12T11:07:09Z</time></trkpt><trkpt lat="44.62417426462152" lon="10.567682071935492"><ele>128.0</ele><time>2026-04-12T11:07:10Z</time></trkpt><trkpt lat="44.6240689483077" lon="10.567863567341243"><ele>128.0</ele><time>2026-04-12T11:07:11Z</time></trkpt><trkpt lat="44.62398354240472" lon="10.568021699228296"><ele>128.0</ele><time>2026-04-12T11:07:12Z</time></trkpt><trkpt lat="44.623899648659716" lon="10.568183785699787"><ele>128.0</ele><time>2026-04-12T11:07:13Z</time></trkpt><trkpt lat="44.623818093114075" lon="10.568346869854606"><ele>128.0</ele><time>2026-04-12T11:07:14Z</time></trkpt><trkpt lat="44.62373524820241" lon="10.568507473168504"><ele>128.0</ele><time>2026-04-12T11:07:15Z</time></trkpt><trkpt lat="44.623653106688614" lon="10.568670286558723"><ele>129.25</ele><time>2026-04-12T11:07:16Z</time></trkpt><trkpt lat="44.623572999191964" lon="10.568828083192196"><ele>130.5</ele><time>2026-04-12T11:07:17Z</time></trkpt><trkpt lat="44.62349381967947" lon="10.568984083772657"><ele>131.75</ele><time>2026-04-12T11:07:18Z</time></trkpt><trkpt lat="44.623416628689995" lon="10.569143193148582"><ele>133.0</ele><time>2026-04-12T11:07:19Z</time></trkpt><trkpt lat="44.623344402508565" lon="10.56930945525378"><ele>133.0</ele><time>2026-04-12T11:07:20Z</time></trkpt><trkpt lat="44.623273569602546" lon="10.569487736596779"><ele>133.0</ele><time>2026-04-12T11:07:21Z</time></trkpt><trkpt lat="44.62321617431985" lon="10.569668719434324"><ele>133.0</ele><time>2026-04-12T11:07:22Z</time></trkpt><trkpt lat="44.62318134837837" lon="10.569887030102029"><ele>133.0</ele><time>2026-04-12T11:07:23Z</time></trkpt><trkpt lat="44.623113597645904" lon="10.570060580517671"><ele>133.0</ele><time>2026-04-12T11:07:24Z</time></trkpt><trkpt lat="44.623066064058825" lon="10.570224400440475"><ele>133.0</ele><time>2026-04-12T11:07:25Z</time></trkpt><trkpt lat="44.62302140584018" lon="10.570378310580915"><ele>133.0</ele><time>2026-04-12T11:07:26Z</time></trkpt><trkpt lat="44.62298814165196" lon="10.570492952320745"><ele>133.0</ele><time>2026-04-12T11:07:27Z</time></trkpt><trkpt lat="44.6229685621565" lon="10.570619739907686"><ele>133.0</ele><time>2026-04-12T11:07:28Z</time></trkpt><trkpt lat="44.6228953919476" lon="10.570848475871495"><ele>133.0</ele><time>2026-04-12T11:07:29Z</time></trkpt><trkpt lat="44.62282223723736" lon="10.571033287830968"><ele>133.0</ele><time>2026-04-12T11:07:30Z</time></trkpt><trkpt lat="44.62276304380585" lon="10.571233746662868"><ele>133.0</ele><time>2026-04-12T11:07:31Z</time></trkpt><trkpt lat="44.62270695529452" lon="10.571414607874457"><ele>133.0</ele><time>2026-04-12T11:07:32Z</time></trkpt><trkpt lat="44.62265604780353" lon="10.571577816024593"><ele>133.75</ele><time>2026-04-12T11:07:33Z</time></trkpt><trkpt lat="44.62260360121342" lon="10.571753493471324"><ele>134.5</ele><time>2026-04-12T11:07:34Z</time></trkpt><trkpt lat="44.622554276364646" lon="10.571934148650529"><ele>135.25</ele><time>2026-04-12T11:07:35Z</time></trkpt><trkpt lat="44.622506964776115" lon="10.572093750858196"><ele>136.0</ele><time>2026-04-12T11:07:36Z</time></trkpt><trkpt lat="44.62246374732513" lon="10.57225149572101"><ele>136.5</ele><time>2026-04-12T11:07:37Z</time></trkpt><trkpt lat="44.62242238890942" lon="10.572400043323208"><ele>137.0</ele><time>2026-04-12T11:07:38Z</time></trkpt><trkpt lat="44.62237403060111" lon="10.572561086168875"><ele>137.5</ele><time>2026-04-12T11:07:39Z</time></trkpt><trkpt lat="44.622327667532254" lon="10.572709733354882"><ele>138.0</ele><time>2026-04-12T11:07:40Z</time></trkpt><trkpt lat="44.62228402293011" lon="10.572855506721355"><ele>137.8</ele><time>2026-04-12T11:07:41Z</time></trkpt><trkpt lat="44.62224227072723" lon="10.573006858894729"><ele>137.60000000000002</ele><time>2026-04-12T11:07:42Z</time></trkpt><trkpt lat="44.62219929172163" lon="10.5731499492344"><ele>137.39999999999998</ele><time>2026-04-12T11:07:43Z</time></trkpt><trkpt lat="44.62216424336112" lon="10.573269930489117"><ele>137.2</ele><time>2026-04-12T11:07:44Z</time></trkpt><trkpt lat="44.62213248417691" lon="10.57338432909146"><ele>137.0</ele><time>2026-04-12T11:07:45Z</time></trkpt><trkpt lat="44.62211352028245" lon="10.573473448012413"><ele>137.0</ele><time>2026-04-12T11:07:46Z</time></trkpt><trkpt lat="44.622089068568776" lon="10.573582432885594"><ele>137.0</ele><time>2026-04-12T11:07:47Z</time></trkpt><trkpt lat="44.62206744523467" lon="10.573714287408881"><ele>137.0</ele><time>2026-04-12T11:07:48Z</time></trkpt><trkpt lat="44.62199223956424" lon="10.573931057563872"><ele>137.0</ele><time>2026-04-12T11:07:50Z</time></trkpt><trkpt lat="44.621908172813875" lon="10.574163870100136"><ele>137.5</ele><time>2026-04-12T11:07:51Z</time></trkpt><trkpt lat="44.62183925675499" lon="10.574335023408775"><ele>138.0</ele><time>2026-04-12T11:07:52Z</time></trkpt><trkpt lat="44.6217959673845" lon="10.574489733719682"><ele>138.5</ele><time>2026-04-12T11:07:53Z</time></trkpt><trkpt lat="44.62175472291257" lon="10.57465260818402"><ele>139.0</ele><time>2026-04-12T11:07:54Z</time></trkpt><trkpt lat="44.62170481867945" lon="10.574822087611757"><ele>139.25</ele><time>2026-04-12T11:07:55Z</time></trkpt><trkpt lat="44.62166344098756" lon="10.574986924880864"><ele>139.5</ele><time>2026-04-12T11:07:56Z</time></trkpt><trkpt lat="44.62162005129225" lon="10.575152502417396"><ele>139.75</ele><time>2026-04-12T11:07:57Z</time></trkpt><trkpt lat="44.6215774994435" lon="10.575322714141453"><ele>140.0</ele><time>2026-04-12T11:07:58Z</time></trkpt><trkpt lat="44.62155909948427" lon="10.575483962817785"><ele>140.0</ele><time>2026-04-12T11:07:59Z</time></trkpt><trkpt lat="44.621558292230695" lon="10.575681055106985"><ele>140.0</ele><time>2026-04-12T11:08:00Z</time></trkpt><trkpt lat="44.62155365903231" lon="10.575874703111646"><ele>140.0</ele><time>2026-04-12T11:08:01Z</time></trkpt><trkpt lat="44.62155145414952" lon="10.576062953959298"><ele>140.0</ele><time>2026-04-12T11:08:02Z</time></trkpt><trkpt lat="44.62154952610811" lon="10.576245092722912"><ele>140.0</ele><time>2026-04-12T11:08:03Z</time></trkpt><trkpt lat="44.62154759000616" lon="10.576427989771076"><ele>140.0</ele><time>2026-04-12T11:08:04Z</time></trkpt><trkpt lat="44.62153763701148" lon="10.576588027456252"><ele>140.0</ele><time>2026-04-12T11:08:05Z</time></trkpt><trkpt lat="44.621530298124355" lon="10.576741068934126"><ele>140.0</ele><time>2026-04-12T11:08:06Z</time></trkpt><trkpt lat="44.621548777740706" lon="10.576948160319485"><ele>140.25</ele><time>2026-04-12T11:08:07Z</time></trkpt><trkpt lat="44.62153628863009" lon="10.577154793407127"><ele>140.5</ele><time>2026-04-12T11:08:07.999Z</time></trkpt><trkpt lat="44.62154939320689" lon="10.577342638799225"><ele>140.75</ele><time>2026-04-12T11:08:08.999Z</time></trkpt><trkpt lat="44.6215428842604" lon="10.577537121907033"><ele>141.0</ele><time>2026-04-12T11:08:09.999Z</time></trkpt><trkpt lat="44.62152023560026" lon="10.577741088255367"><ele>141.66666666666666</ele><time>2026-04-12T11:08:10.999Z</time></trkpt><trkpt lat="44.621510276329076" lon="10.577950031335448"><ele>142.33333333333331</ele><time>2026-04-12T11:08:11.999Z</time></trkpt><trkpt lat="44.621500508403614" lon="10.578156339432233"><ele>143.0</ele><time>2026-04-12T11:08:12.999Z</time></trkpt><trkpt lat="44.62152360434926" lon="10.578391391380416"><ele>143.0</ele><time>2026-04-12T11:08:13.999Z</time></trkpt><trkpt lat="44.62151443075615" lon="10.578593324411703"><ele>143.0</ele><time>2026-04-12T11:08:14.999Z</time></trkpt><trkpt lat="44.621518283825225" lon="10.578795477628818"><ele>143.0</ele><time>2026-04-12T11:08:15.999Z</time></trkpt><trkpt lat="44.62151441105621" lon="10.578990444660622"><ele>143.0</ele><time>2026-04-12T11:08:16.999Z</time></trkpt><trkpt lat="44.62150756458492" lon="10.57917585945405"><ele>142.75</ele><time>2026-04-12T11:08:17.999Z</time></trkpt><trkpt lat="44.621510500757836" lon="10.579357465889627"><ele>142.5</ele><time>2026-04-12T11:08:18.999Z</time></trkpt><trkpt lat="44.62150325837872" lon="10.579540137714908"><ele>142.25</ele><time>2026-04-12T11:08:19.999Z</time></trkpt><trkpt lat="44.621504603846056" lon="10.579721148852494"><ele>142.0</ele><time>2026-04-12T11:08:20.999Z</time></trkpt><trkpt lat="44.621502012858926" lon="10.579903926547477"><ele>141.5</ele><time>2026-04-12T11:08:21.999Z</time></trkpt><trkpt lat="44.62149820944064" lon="10.580090281836949"><ele>141.0</ele><time>2026-04-12T11:08:22.999Z</time></trkpt><trkpt lat="44.621494386730035" lon="10.580276050004876"><ele>140.5</ele><time>2026-04-12T11:08:23.999Z</time></trkpt><trkpt lat="44.62149213059096" lon="10.580459887706034"><ele>140.0</ele><time>2026-04-12T11:08:24.999Z</time></trkpt><trkpt lat="44.62148677215529" lon="10.580650461148402"><ele>140.0</ele><time>2026-04-12T11:08:25.999Z</time></trkpt><trkpt lat="44.62148191804773" lon="10.580857112732376"><ele>140.0</ele><time>2026-04-12T11:08:26.999Z</time></trkpt><trkpt lat="44.62147767601444" lon="10.581078266569143"><ele>140.0</ele><time>2026-04-12T11:08:27.999Z</time></trkpt><trkpt lat="44.62147696533308" lon="10.581323265906532"><ele>140.75</ele><time>2026-04-12T11:08:28.999Z</time></trkpt><trkpt lat="44.621475896257735" lon="10.581520707410888"><ele>141.5</ele><time>2026-04-12T11:08:29.999Z</time></trkpt><trkpt lat="44.621485012198605" lon="10.581715816938717"><ele>142.25</ele><time>2026-04-12T11:08:30.999Z</time></trkpt><trkpt lat="44.62150518579957" lon="10.581911158900022"><ele>143.0</ele><time>2026-04-12T11:08:31.999Z</time></trkpt><trkpt lat="44.62154520790851" lon="10.58211648788888"><ele>143.25</ele><time>2026-04-12T11:08:32.999Z</time></trkpt><trkpt lat="44.62158671167839" lon="10.582315521495113"><ele>143.5</ele><time>2026-04-12T11:08:33.999Z</time></trkpt><trkpt lat="44.62162356239394" lon="10.582506714522758"><ele>143.75</ele><time>2026-04-12T11:08:34.999Z</time></trkpt><trkpt lat="44.6216597572909" lon="10.58268038249705"><ele>144.0</ele><time>2026-04-12T11:08:35.999Z</time></trkpt><trkpt lat="44.62169642813878" lon="10.582857667835437"><ele>144.0</ele><time>2026-04-12T11:08:36.999Z</time></trkpt><trkpt lat="44.62173407478272" lon="10.583040930692732"><ele>144.0</ele><time>2026-04-12T11:08:37.999Z</time></trkpt><trkpt lat="44.62177047485098" lon="10.583209589557331"><ele>144.0</ele><time>2026-04-12T11:08:38.999Z</time></trkpt><trkpt lat="44.621809941060754" lon="10.583386126975277"><ele>144.0</ele><time>2026-04-12T11:08:39.999Z</time></trkpt><trkpt lat="44.62184888939348" lon="10.583560437668195"><ele>143.75</ele><time>2026-04-12T11:08:40.999Z</time></trkpt><trkpt lat="44.621888056735735" lon="10.58375274713365"><ele>143.5</ele><time>2026-04-12T11:08:41.999Z</time></trkpt><trkpt lat="44.62192642335636" lon="10.583926022434648"><ele>143.25</ele><time>2026-04-12T11:08:42.999Z</time></trkpt><trkpt lat="44.62196181249949" lon="10.584089301652813"><ele>143.0</ele><time>2026-04-12T11:08:43.999Z</time></trkpt><trkpt lat="44.62200031643576" lon="10.584249007918315"><ele>142.0</ele><time>2026-04-12T11:08:44.999Z</time></trkpt><trkpt lat="44.622035994117255" lon="10.584419626803944"><ele>141.0</ele><time>2026-04-12T11:08:45.999Z</time></trkpt><trkpt lat="44.62206941404868" lon="10.584592601577544"><ele>140.0</ele><time>2026-04-12T11:08:46.999Z</time></trkpt><trkpt lat="44.622105833373006" lon="10.58477469090363"><ele>139.0</ele><time>2026-04-12T11:08:47.999Z</time></trkpt><trkpt lat="44.622136765849035" lon="10.58497123554185"><ele>139.0</ele><time>2026-04-12T11:08:48.999Z</time></trkpt><trkpt lat="44.62217672764383" lon="10.585110404456607"><ele>139.0</ele><time>2026-04-12T11:08:49.999Z</time></trkpt><trkpt lat="44.622209425077166" lon="10.585268172106788"><ele>139.0</ele><time>2026-04-12T11:08:50.999Z</time></trkpt><trkpt lat="44.62224979037815" lon="10.585429195665121"><ele>139.0</ele><time>2026-04-12T11:08:51.999Z</time></trkpt><trkpt lat="44.622279924721255" lon="10.585579540527952"><ele>139.25</ele><time>2026-04-12T11:08:52.999Z</time></trkpt><trkpt lat="44.62231281331256" lon="10.5857473979774"><ele>139.5</ele><time>2026-04-12T11:08:53.999Z</time></trkpt><trkpt lat="44.622348901157324" lon="10.58589660684307"><ele>139.75</ele><time>2026-04-12T11:08:54.999Z</time></trkpt><trkpt lat="44.62238238582795" lon="10.586055542795794"><ele>140.0</ele><time>2026-04-12T11:08:55.999Z</time></trkpt><trkpt lat="44.622417490822656" lon="10.586215105267218"><ele>140.25</ele><time>2026-04-12T11:08:56.999Z</time></trkpt><trkpt lat="44.622458766147076" lon="10.58636450545826"><ele>140.5</ele><time>2026-04-12T11:08:57.999Z</time></trkpt><trkpt lat="44.622511171932366" lon="10.586517415331109"><ele>140.75</ele><time>2026-04-12T11:08:58.999Z</time></trkpt><trkpt lat="44.622577195657136" lon="10.5866533980718"><ele>141.0</ele><time>2026-04-12T11:08:59.999Z</time></trkpt><trkpt lat="44.6226574242587" lon="10.586786228460966"><ele>141.0</ele><time>2026-04-12T11:09:00.999Z</time></trkpt><trkpt lat="44.622750086249624" lon="10.586899012865691"><ele>141.0</ele><time>2026-04-12T11:09:01.999Z</time></trkpt><trkpt lat="44.62285716573965" lon="10.587002886435329"><ele>141.0</ele><time>2026-04-12T11:09:02.999Z</time></trkpt><trkpt lat="44.622972285236116" lon="10.587079097908635"><ele>141.0</ele><time>2026-04-12T11:09:04Z</time></trkpt><trkpt lat="44.62309841844838" lon="10.587135403393162"><ele>141.75</ele><time>2026-04-12T11:09:05Z</time></trkpt><trkpt lat="44.623230367431404" lon="10.587176384430096"><ele>142.5</ele><time>2026-04-12T11:09:06Z</time></trkpt><trkpt lat="44.623356387689185" lon="10.587207944056415"><ele>143.25</ele><time>2026-04-12T11:09:07Z</time></trkpt><trkpt lat="44.62346303404822" lon="10.587254077433535"><ele>144.0</ele><time>2026-04-12T11:09:08Z</time></trkpt><trkpt lat="44.62359589160175" lon="10.58729642864211"><ele>142.5</ele><time>2026-04-12T11:09:09Z</time></trkpt><trkpt lat="44.62371684960936" lon="10.587362488306518"><ele>141.0</ele><time>2026-04-12T11:09:10Z</time></trkpt><trkpt lat="44.6238164171468" lon="10.587492959457718"><ele>139.5</ele><time>2026-04-12T11:09:11Z</time></trkpt><trkpt lat="44.623909901887366" lon="10.587538282496679"><ele>138.0</ele><time>2026-04-12T11:09:12Z</time></trkpt><trkpt lat="44.62398549512288" lon="10.587646865524036"><ele>138.0</ele><time>2026-04-12T11:09:13Z</time></trkpt><trkpt lat="44.62405852731387" lon="10.587771300466297"><ele>138.0</ele><time>2026-04-12T11:09:14Z</time></trkpt><trkpt lat="44.62412166311452" lon="10.587902471558564"><ele>138.0</ele><time>2026-04-12T11:09:15Z</time></trkpt><trkpt lat="44.624172669748035" lon="10.588052450935868"><ele>138.0</ele><time>2026-04-12T11:09:16Z</time></trkpt><trkpt lat="44.624212808157644" lon="10.588217148309434"><ele>139.20000000000002</ele><time>2026-04-12T11:09:17Z</time></trkpt><trkpt lat="44.62424470045937" lon="10.588373630695568"><ele>140.4</ele><time>2026-04-12T11:09:18Z</time></trkpt><trkpt lat="44.624278030466286" lon="10.588515188259139"><ele>141.60000000000002</ele><time>2026-04-12T11:09:19Z</time></trkpt><trkpt lat="44.62430955703953" lon="10.588652685843057"><ele>142.8</ele><time>2026-04-12T11:09:20Z</time></trkpt><trkpt lat="44.62434152651973" lon="10.588798800264339"><ele>144.0</ele><time>2026-04-12T11:09:21Z</time></trkpt><trkpt lat="44.62437618211899" lon="10.588952142280032"><ele>144.0</ele><time>2026-04-12T11:09:22Z</time></trkpt><trkpt lat="44.6244108710509" lon="10.589106304003726"><ele>144.0</ele><time>2026-04-12T11:09:23Z</time></trkpt><trkpt lat="44.62444473536059" lon="10.589264532769391"><ele>144.0</ele><time>2026-04-12T11:09:24Z</time></trkpt><trkpt lat="44.62448311647708" lon="10.589425645653767"><ele>144.0</ele><time>2026-04-12T11:09:25Z</time></trkpt><trkpt lat="44.624514094650706" lon="10.589590809093343"><ele>143.0</ele><time>2026-04-12T11:09:26Z</time></trkpt><trkpt lat="44.62453793433381" lon="10.58976859086944"><ele>142.0</ele><time>2026-04-12T11:09:27Z</time></trkpt><trkpt lat="44.62458925931752" lon="10.589893884485102"><ele>141.0</ele><time>2026-04-12T11:09:28Z</time></trkpt><trkpt lat="44.624621806744756" lon="10.590063530417513"><ele>140.0</ele><time>2026-04-12T11:09:29Z</time></trkpt><trkpt lat="44.62466028621271" lon="10.590223271288806"><ele>141.0</ele><time>2026-04-12T11:09:30Z</time></trkpt><trkpt lat="44.62469145513478" lon="10.590395265861009"><ele>142.0</ele><time>2026-04-12T11:09:31Z</time></trkpt><trkpt lat="44.624708894149954" lon="10.590552941043862"><ele>143.0</ele><time>2026-04-12T11:09:32Z</time></trkpt><trkpt lat="44.62471793814523" lon="10.590723680474502"><ele>144.0</ele><time>2026-04-12T11:09:33Z</time></trkpt><trkpt lat="44.624713368746875" lon="10.5908768528682"><ele>144.0</ele><time>2026-04-12T11:09:34Z</time></trkpt><trkpt lat="44.624698360218225" lon="10.591030487300145"><ele>144.0</ele><time>2026-04-12T11:09:35Z</time></trkpt><trkpt lat="44.62467379370179" lon="10.59117866017657"><ele>144.0</ele><time>2026-04-12T11:09:36Z</time></trkpt><trkpt lat="44.624643021657455" lon="10.59131767631671"><ele>144.0</ele><time>2026-04-12T11:09:37Z</time></trkpt><trkpt lat="44.62461340152911" lon="10.591447350626796"><ele>144.0</ele><time>2026-04-12T11:09:38Z</time></trkpt><trkpt lat="44.62457872296704" lon="10.591562082788032"><ele>144.25</ele><time>2026-04-12T11:09:39Z</time></trkpt><trkpt lat="44.62454793475716" lon="10.591654779460995"><ele>144.5</ele><time>2026-04-12T11:09:40Z</time></trkpt><trkpt lat="44.62450163625761" lon="10.59179861242241"><ele>144.75</ele><time>2026-04-12T11:09:42Z</time></trkpt><trkpt lat="44.624448040534936" lon="10.591946803225868"><ele>145.0</ele><time>2026-04-12T11:09:44Z</time></trkpt><trkpt lat="44.62437651903338" lon="10.592161365391755"><ele>145.2</ele><time>2026-04-12T11:09:46Z</time></trkpt><trkpt lat="44.624331591321884" lon="10.592295067556398"><ele>145.4</ele><time>2026-04-12T11:09:47Z</time></trkpt><trkpt lat="44.62427424868895" lon="10.592417135685933"><ele>145.6</ele><time>2026-04-12T11:09:48Z</time></trkpt><trkpt lat="44.62420661647825" lon="10.592544447881652"><ele>145.8</ele><time>2026-04-12T11:09:49Z</time></trkpt><trkpt lat="44.62413793693274" lon="10.59268569847796"><ele>146.0</ele><time>2026-04-12T11:09:50Z</time></trkpt><trkpt lat="44.624070801294906" lon="10.592823797932228"><ele>146.25</ele><time>2026-04-12T11:09:51Z</time></trkpt><trkpt lat="44.62400073401019" lon="10.59295273920057"><ele>146.5</ele><time>2026-04-12T11:09:52Z</time></trkpt><trkpt lat="44.623929406959604" lon="10.59308985575448"><ele>146.75</ele><time>2026-04-12T11:09:53Z</time></trkpt><trkpt lat="44.623853353528034" lon="10.59323594714446"><ele>147.0</ele><time>2026-04-12T11:09:54Z</time></trkpt><trkpt lat="44.623777049069126" lon="10.593384688364505"><ele>147.0</ele><time>2026-04-12T11:09:55Z</time></trkpt><trkpt lat="44.6236952891306" lon="10.593545593112863"><ele>147.0</ele><time>2026-04-12T11:09:56Z</time></trkpt><trkpt lat="44.62361765913827" lon="10.593694652482961"><ele>147.0</ele><time>2026-04-12T11:09:57Z</time></trkpt><trkpt lat="44.62354814930121" lon="10.593838726882382"><ele>147.0</ele><time>2026-04-12T11:09:58Z</time></trkpt><trkpt lat="44.623475050422016" lon="10.593986601525026"><ele>147.25</ele><time>2026-04-12T11:09:59Z</time></trkpt><trkpt lat="44.62339310301882" lon="10.594134725981384"><ele>147.5</ele><time>2026-04-12T11:10:00Z</time></trkpt><trkpt lat="44.623319207999664" lon="10.59427645570242"><ele>147.75</ele><time>2026-04-12T11:10:01Z</time></trkpt><trkpt lat="44.62324442714613" lon="10.594422567551621"><ele>148.0</ele><time>2026-04-12T11:10:02Z</time></trkpt><trkpt lat="44.623175680267074" lon="10.594567709053946"><ele>147.5</ele><time>2026-04-12T11:10:03Z</time></trkpt><trkpt lat="44.6231172651456" lon="10.594703025602243"><ele>147.0</ele><time>2026-04-12T11:10:04Z</time></trkpt><trkpt lat="44.62305345894002" lon="10.59487437126744"><ele>146.5</ele><time>2026-04-12T11:10:04.999Z</time></trkpt><trkpt lat="44.62299604807719" lon="10.595048213088287"><ele>146.0</ele><time>2026-04-12T11:10:05.999Z</time></trkpt><trkpt lat="44.62295215149659" lon="10.595237410105858"><ele>146.0</ele><time>2026-04-12T11:10:06.999Z</time></trkpt><trkpt lat="44.6229172180124" lon="10.595428788019072"><ele>146.0</ele><time>2026-04-12T11:10:07.999Z</time></trkpt><trkpt lat="44.62289203597791" lon="10.595623746638868"><ele>146.0</ele><time>2026-04-12T11:10:08.999Z</time></trkpt><trkpt lat="44.622879323000625" lon="10.595807427025221"><ele>146.0</ele><time>2026-04-12T11:10:09.999Z</time></trkpt><trkpt lat="44.62287753695698" lon="10.595996108494102"><ele>145.75</ele><time>2026-04-12T11:10:10.999Z</time></trkpt><trkpt lat="44.62287662432" lon="10.596200088227327"><ele>145.5</ele><time>2026-04-12T11:10:11.999Z</time></trkpt><trkpt lat="44.622876583353076" lon="10.596409808266028"><ele>145.25</ele><time>2026-04-12T11:10:12.999Z</time></trkpt><trkpt lat="44.62287747388593" lon="10.59661287695037"><ele>145.0</ele><time>2026-04-12T11:10:13.999Z</time></trkpt><trkpt lat="44.62287590185111" lon="10.596803068953292"><ele>145.0</ele><time>2026-04-12T11:10:14.999Z</time></trkpt><trkpt lat="44.62287714828282" lon="10.596992093353604"><ele>145.0</ele><time>2026-04-12T11:10:15.999Z</time></trkpt><trkpt lat="44.62287926090513" lon="10.597187305530296"><ele>145.0</ele><time>2026-04-12T11:10:16.999Z</time></trkpt><trkpt lat="44.62287995485328" lon="10.597381269792354"><ele>145.0</ele><time>2026-04-12T11:10:17.999Z</time></trkpt><trkpt lat="44.622882950523795" lon="10.59756897531485"><ele>144.0</ele><time>2026-04-12T11:10:18.999Z</time></trkpt><trkpt lat="44.62288541956574" lon="10.597756506855546"><ele>143.0</ele><time>2026-04-12T11:10:19.999Z</time></trkpt><trkpt lat="44.622885866730854" lon="10.597946684658007"><ele>142.0</ele><time>2026-04-12T11:10:20.999Z</time></trkpt><trkpt lat="44.622886298885916" lon="10.598130042024339"><ele>141.0</ele><time>2026-04-12T11:10:21.999Z</time></trkpt><trkpt lat="44.622887088774846" lon="10.59832151482798"><ele>140.5</ele><time>2026-04-12T11:10:22.999Z</time></trkpt><trkpt lat="44.622887105417874" lon="10.598517404563347"><ele>140.0</ele><time>2026-04-12T11:10:23.999Z</time></trkpt><trkpt lat="44.622881942899866" lon="10.598715808040703"><ele>139.5</ele><time>2026-04-12T11:10:24.999Z</time></trkpt><trkpt lat="44.622862623401474" lon="10.598908442707465"><ele>139.0</ele><time>2026-04-12T11:10:25.999Z</time></trkpt><trkpt lat="44.622829168648536" lon="10.599105594074874"><ele>139.66666666666669</ele><time>2026-04-12T11:10:26.999Z</time></trkpt><trkpt lat="44.62278197397184" lon="10.599304182210808"><ele>140.33333333333334</ele><time>2026-04-12T11:10:27.999Z</time></trkpt><trkpt lat="44.62271699020799" lon="10.599503369345763"><ele>141.0</ele><time>2026-04-12T11:10:28.999Z</time></trkpt><trkpt lat="44.62264991014011" lon="10.599688030581586"><ele>142.25</ele><time>2026-04-12T11:10:29.999Z</time></trkpt><trkpt lat="44.62258330088018" lon="10.599856009539891"><ele>143.5</ele><time>2026-04-12T11:10:30.999Z</time></trkpt><trkpt lat="44.622513076262386" lon="10.600036624390066"><ele>144.75</ele><time>2026-04-12T11:10:31.999Z</time></trkpt><trkpt lat="44.62244545660032" lon="10.600211062431828"><ele>146.0</ele><time>2026-04-12T11:10:32.999Z</time></trkpt><trkpt lat="44.622384165568334" lon="10.600367691766024"><ele>148.0</ele><time>2026-04-12T11:10:33.999Z</time></trkpt><trkpt lat="44.62232622423815" lon="10.600521003147295"><ele>150.0</ele><time>2026-04-12T11:10:34.999Z</time></trkpt><trkpt lat="44.62227011826094" lon="10.60067212742959"><ele>152.0</ele><time>2026-04-12T11:10:35.999Z</time></trkpt><trkpt lat="44.62221814309103" lon="10.600825893973074"><ele>154.0</ele><time>2026-04-12T11:10:36.999Z</time></trkpt><trkpt lat="44.62215979215487" lon="10.600990423594581"><ele>154.0</ele><time>2026-04-12T11:10:37.999Z</time></trkpt><trkpt lat="44.62209641945834" lon="10.601160284602512"><ele>154.0</ele><time>2026-04-12T11:10:38.999Z</time></trkpt><trkpt lat="44.62203649687287" lon="10.60131778724893"><ele>154.0</ele><time>2026-04-12T11:10:39.999Z</time></trkpt><trkpt lat="44.62197706600844" lon="10.601471170452855"><ele>154.0</ele><time>2026-04-12T11:10:40.999Z</time></trkpt><trkpt lat="44.62191820395334" lon="10.60162681339317"><ele>154.6</ele><time>2026-04-12T11:10:41.999Z</time></trkpt><trkpt lat="44.62186006559185" lon="10.601776579748503"><ele>155.2</ele><time>2026-04-12T11:10:42.999Z</time></trkpt><trkpt lat="44.62180587866552" lon="10.60191548881456"><ele>155.79999999999998</ele><time>2026-04-12T11:10:43.999Z</time></trkpt><trkpt lat="44.62175684581119" lon="10.6020508064137"><ele>156.4</ele><time>2026-04-12T11:10:44.999Z</time></trkpt><trkpt lat="44.6217130217786" lon="10.602169807206533"><ele>157.0</ele><time>2026-04-12T11:10:45.999Z</time></trkpt><trkpt lat="44.62167259540191" lon="10.602275421970345"><ele>157.0</ele><time>2026-04-12T11:10:46.999Z</time></trkpt><trkpt lat="44.62163239561412" lon="10.602376264807551"><ele>157.0</ele><time>2026-04-12T11:10:47.999Z</time></trkpt><trkpt lat="44.621595980783574" lon="10.602473997025871"><ele>157.0</ele><time>2026-04-12T11:10:48.999Z</time></trkpt><trkpt lat="44.62156396654774" lon="10.602562011039755"><ele>157.0</ele><time>2026-04-12T11:10:49.999Z</time></trkpt><trkpt lat="44.62153392072109" lon="10.602655170334709"><ele>157.0</ele><time>2026-04-12T11:10:50.999Z</time></trkpt><trkpt lat="44.62149918650766" lon="10.602749763396696"><ele>157.0</ele><time>2026-04-12T11:10:51.999Z</time></trkpt><trkpt lat="44.62145849617046" lon="10.602850783970338"><ele>156.79999999999998</ele><time>2026-04-12T11:10:52.999Z</time></trkpt><trkpt lat="44.62141862318118" lon="10.602940054286442"><ele>156.6</ele><time>2026-04-12T11:10:53.999Z</time></trkpt><trkpt lat="44.62136650168034" lon="10.603075682634442"><ele>156.39999999999998</ele><time>2026-04-12T11:10:55.999Z</time></trkpt><trkpt lat="44.621323311899864" lon="10.603175189461945"><ele>156.2</ele><time>2026-04-12T11:10:57.999Z</time></trkpt><trkpt lat="44.62124375379746" lon="10.60331353332935"><ele>156.0</ele><time>2026-04-12T11:10:59.999Z</time></trkpt><trkpt lat="44.62120834698178" lon="10.603386881195993"><ele>156.0</ele><time>2026-04-12T11:11:00.999Z</time></trkpt><trkpt lat="44.62118317099428" lon="10.603488175423047"><ele>156.0</ele><time>2026-04-12T11:11:01.999Z</time></trkpt><trkpt lat="44.62116016902429" lon="10.603619859160455"><ele>156.0</ele><time>2026-04-12T11:11:02.999Z</time></trkpt><trkpt lat="44.621113849844264" lon="10.60377124275322"><ele>156.0</ele><time>2026-04-12T11:11:03.999Z</time></trkpt><trkpt lat="44.621063993202725" lon="10.60389746934331"><ele>156.0</ele><time>2026-04-12T11:11:04.999Z</time></trkpt><trkpt lat="44.62100960560712" lon="10.60403264985011"><ele>156.5</ele><time>2026-04-12T11:11:05.999Z</time></trkpt><trkpt lat="44.620955547663556" lon="10.604172749872502"><ele>157.0</ele><time>2026-04-12T11:11:06.999Z</time></trkpt><trkpt lat="44.62089576116619" lon="10.604330277643065"><ele>157.5</ele><time>2026-04-12T11:11:07.999Z</time></trkpt><trkpt lat="44.62083850976747" lon="10.604473871110907"><ele>158.0</ele><time>2026-04-12T11:11:08.999Z</time></trkpt><trkpt lat="44.62078469577817" lon="10.6046092609141"><ele>158.0</ele><time>2026-04-12T11:11:10Z</time></trkpt><trkpt lat="44.62072915582408" lon="10.60474289621847"><ele>158.0</ele><time>2026-04-12T11:11:11Z</time></trkpt><trkpt lat="44.620677193276855" lon="10.604876844749553"><ele>158.0</ele><time>2026-04-12T11:11:12Z</time></trkpt><trkpt lat="44.620635912382326" lon="10.60501555516074"><ele>158.0</ele><time>2026-04-12T11:11:13Z</time></trkpt><trkpt lat="44.62056795550853" lon="10.60517056714517"><ele>158.0</ele><time>2026-04-12T11:11:14Z</time></trkpt><trkpt lat="44.62051594336131" lon="10.605313536173272"><ele>158.0</ele><time>2026-04-12T11:11:15Z</time></trkpt><trkpt lat="44.62047039828458" lon="10.60545354651397"><ele>158.0</ele><time>2026-04-12T11:11:16Z</time></trkpt><trkpt lat="44.62043084718757" lon="10.605579845214526"><ele>158.0</ele><time>2026-04-12T11:11:17Z</time></trkpt><trkpt lat="44.620380176881" lon="10.605683326120452"><ele>158.0</ele><time>2026-04-12T11:11:18Z</time></trkpt><trkpt lat="44.620332829612224" lon="10.605804112673306"><ele>158.20000000000002</ele><time>2026-04-12T11:11:19Z</time></trkpt><trkpt lat="44.620288928298706" lon="10.605933798663402"><ele>158.4</ele><time>2026-04-12T11:11:20Z</time></trkpt><trkpt lat="44.62023862518643" lon="10.606063316400972"><ele>158.60000000000002</ele><time>2026-04-12T11:11:21Z</time></trkpt><trkpt lat="44.62018854205673" lon="10.606191050648368"><ele>158.8</ele><time>2026-04-12T11:11:22Z</time></trkpt><trkpt lat="44.620139499076544" lon="10.606328204857222"><ele>159.0</ele><time>2026-04-12T11:11:23Z</time></trkpt><trkpt lat="44.62008730956531" lon="10.606476156843115"><ele>158.5</ele><time>2026-04-12T11:11:24Z</time></trkpt><trkpt lat="44.62003194000427" lon="10.606610516831799"><ele>158.0</ele><time>2026-04-12T11:11:25Z</time></trkpt><trkpt lat="44.619977467172184" lon="10.606745797286752"><ele>157.5</ele><time>2026-04-12T11:11:26Z</time></trkpt><trkpt lat="44.61991201655794" lon="10.606885855187818"><ele>157.0</ele><time>2026-04-12T11:11:27Z</time></trkpt><trkpt lat="44.61984499359305" lon="10.607017160147407"><ele>156.25</ele><time>2026-04-12T11:11:28Z</time></trkpt><trkpt lat="44.6197789592969" lon="10.607149550786644"><ele>155.5</ele><time>2026-04-12T11:11:29Z</time></trkpt><trkpt lat="44.61970807955389" lon="10.607284372247435"><ele>154.75</ele><time>2026-04-12T11:11:30Z</time></trkpt><trkpt lat="44.61963582426041" lon="10.607423150582074"><ele>154.0</ele><time>2026-04-12T11:11:31Z</time></trkpt><trkpt lat="44.6195611935623" lon="10.607559084361986"><ele>154.0</ele><time>2026-04-12T11:11:32Z</time></trkpt><trkpt lat="44.61948781248929" lon="10.607693038175363"><ele>154.0</ele><time>2026-04-12T11:11:33Z</time></trkpt><trkpt lat="44.619420021550965" lon="10.60782328863507"><ele>154.0</ele><time>2026-04-12T11:11:34Z</time></trkpt><trkpt lat="44.61935036215925" lon="10.607962246218019"><ele>154.0</ele><time>2026-04-12T11:11:35Z</time></trkpt><trkpt lat="44.61927147456493" lon="10.608106324346194"><ele>154.0</ele><time>2026-04-12T11:11:36Z</time></trkpt><trkpt lat="44.61919797759685" lon="10.608237103894952"><ele>154.0</ele><time>2026-04-12T11:11:37Z</time></trkpt><trkpt lat="44.619137040971864" lon="10.60835953734205"><ele>154.0</ele><time>2026-04-12T11:11:38Z</time></trkpt><trkpt lat="44.61906557756589" lon="10.60846132834185"><ele>154.0</ele><time>2026-04-12T11:11:39Z</time></trkpt><trkpt lat="44.61904265195315" lon="10.608598317675943"><ele>154.0</ele><time>2026-04-12T11:11:40Z</time></trkpt><trkpt lat="44.6190154848521" lon="10.608735146689666"><ele>153.66666666666669</ele><time>2026-04-12T11:11:41Z</time></trkpt><trkpt lat="44.618981408989185" lon="10.608889210785497"><ele>153.33333333333334</ele><time>2026-04-12T11:11:42Z</time></trkpt><trkpt lat="44.61895121783283" lon="10.609015769276317"><ele>153.0</ele><time>2026-04-12T11:11:43Z</time></trkpt><trkpt lat="44.61894081048216" lon="10.609129741959334"><ele>152.66666666666666</ele><time>2026-04-12T11:11:44Z</time></trkpt><trkpt lat="44.618937811777265" lon="10.609219410419152"><ele>152.33333333333331</ele><time>2026-04-12T11:11:45Z</time></trkpt><trkpt lat="44.61899563389715" lon="10.609280815624178"><ele>152.0</ele><time>2026-04-12T11:11:47Z</time></trkpt><trkpt lat="44.61905763348124" lon="10.6092402997536"><ele>152.0</ele><time>2026-04-12T11:12:36.999Z</time></trkpt><trkpt lat="44.61909714266781" lon="10.609073517226912"><ele>152.0</ele><time>2026-04-12T11:27:23.999Z</time></trkpt><trkpt lat="44.619124420531215" lon="10.608991020310672"><ele>152.0</ele><time>2026-04-12T11:27:24.999Z</time></trkpt><trkpt lat="44.619134226229946" lon="10.608876526515818"><ele>152.0</ele><time>2026-04-12T11:27:26.999Z</time></trkpt><trkpt lat="44.61907835920055" lon="10.608736228090475"><ele>152.0</ele><time>2026-04-12T11:27:28.999Z</time></trkpt><trkpt lat="44.61906368519316" lon="10.608645795265092"><ele>152.5</ele><time>2026-04-12T11:27:31.999Z</time></trkpt><trkpt lat="44.61911253101746" lon="10.60845784972046"><ele>153.0</ele><time>2026-04-12T11:27:33.999Z</time></trkpt><trkpt lat="44.61918288619823" lon="10.608297606481763"><ele>153.5</ele><time>2026-04-12T11:27:34.999Z</time></trkpt><trkpt lat="44.61928174511001" lon="10.608123029674708"><ele>154.0</ele><time>2026-04-12T11:27:35.999Z</time></trkpt><trkpt lat="44.61937093495444" lon="10.607977089383253"><ele>154.0</ele><time>2026-04-12T11:27:36.999Z</time></trkpt><trkpt lat="44.619460727411635" lon="10.6078193292249"><ele>154.0</ele><time>2026-04-12T11:27:37.999Z</time></trkpt><trkpt lat="44.61955713958255" lon="10.60763885080808"><ele>154.0</ele><time>2026-04-12T11:27:38.999Z</time></trkpt><trkpt lat="44.619648480890326" lon="10.607467359195644"><ele>154.0</ele><time>2026-04-12T11:27:39.999Z</time></trkpt><trkpt lat="44.619739544563274" lon="10.607303714918018"><ele>154.0</ele><time>2026-04-12T11:27:40.999Z</time></trkpt><trkpt lat="44.61981932011868" lon="10.607159795351048"><ele>154.0</ele><time>2026-04-12T11:27:41.999Z</time></trkpt><trkpt lat="44.61988696145656" lon="10.607030370780185"><ele>154.0</ele><time>2026-04-12T11:27:42.999Z</time></trkpt><trkpt lat="44.61994518263502" lon="10.606915205076815"><ele>154.5</ele><time>2026-04-12T11:27:43.999Z</time></trkpt><trkpt lat="44.619995083833274" lon="10.60681392759081"><ele>155.0</ele><time>2026-04-12T11:27:44.999Z</time></trkpt><trkpt lat="44.620041194924326" lon="10.60671778418586"><ele>155.5</ele><time>2026-04-12T11:27:45.999Z</time></trkpt><trkpt lat="44.62008390524746" lon="10.606629983621978"><ele>156.0</ele><time>2026-04-12T11:27:46.999Z</time></trkpt><trkpt lat="44.620119980021144" lon="10.60655076762364"><ele>156.5</ele><time>2026-04-12T11:27:47.999Z</time></trkpt><trkpt lat="44.620172451780434" lon="10.606415685696424"><ele>157.0</ele><time>2026-04-12T11:27:49.999Z</time></trkpt><trkpt lat="44.62022297542185" lon="10.606289044610225"><ele>157.0</ele><time>2026-04-12T11:27:51.999Z</time></trkpt><trkpt lat="44.62025441048684" lon="10.606202648700139"><ele>157.0</ele><time>2026-04-12T11:27:52.999Z</time></trkpt><trkpt lat="44.620282656612225" lon="10.606113114419086"><ele>157.0</ele><time>2026-04-12T11:27:53.999Z</time></trkpt><trkpt lat="44.62031135879244" lon="10.606028744130278"><ele>157.0</ele><time>2026-04-12T11:27:54.999Z</time></trkpt><trkpt lat="44.62035151339616" lon="10.605920147929854"><ele>157.0</ele><time>2026-04-12T11:27:56Z</time></trkpt><trkpt lat="44.620398628696165" lon="10.605806876475727"><ele>157.0</ele><time>2026-04-12T11:27:57Z</time></trkpt><trkpt lat="44.62044442107993" lon="10.605676752790421"><ele>157.0</ele><time>2026-04-12T11:27:58.001Z</time></trkpt><trkpt lat="44.620511370849414" lon="10.60548830198899"><ele>157.0</ele><time>2026-04-12T11:27:59.001Z</time></trkpt><trkpt lat="44.62058938321985" lon="10.60527265151701"><ele>157.0</ele><time>2026-04-12T11:28:00.001Z</time></trkpt><trkpt lat="44.62065460857931" lon="10.605101413325928"><ele>157.33333333333334</ele><time>2026-04-12T11:28:01.001Z</time></trkpt><trkpt lat="44.62071968223541" lon="10.604926682767667"><ele>157.66666666666666</ele><time>2026-04-12T11:28:02.001Z</time></trkpt><trkpt lat="44.62079930505186" lon="10.604717813315146"><ele>158.0</ele><time>2026-04-12T11:28:03.001Z</time></trkpt><trkpt lat="44.62088012791666" lon="10.604505321334354"><ele>158.0</ele><time>2026-04-12T11:28:04.001Z</time></trkpt><trkpt lat="44.620947823904224" lon="10.604332065735155"><ele>158.0</ele><time>2026-04-12T11:28:05.001Z</time></trkpt><trkpt lat="44.621000604993085" lon="10.604159765709431"><ele>158.0</ele><time>2026-04-12T11:28:06.001Z</time></trkpt><trkpt lat="44.621065460304585" lon="10.604023612421484"><ele>158.0</ele><time>2026-04-12T11:28:07.001Z</time></trkpt><trkpt lat="44.6211167813004" lon="10.603891886153319"><ele>157.66666666666666</ele><time>2026-04-12T11:28:08.001Z</time></trkpt><trkpt lat="44.621162222556435" lon="10.60378398233083"><ele>157.33333333333331</ele><time>2026-04-12T11:28:09.001Z</time></trkpt><trkpt lat="44.62119593017487" lon="10.603708751325506"><ele>157.0</ele><time>2026-04-12T11:28:10.001Z</time></trkpt><trkpt lat="44.62126227051194" lon="10.603584326418222"><ele>156.66666666666666</ele><time>2026-04-12T11:28:12.001Z</time></trkpt><trkpt lat="44.62131253044028" lon="10.6034998385364"><ele>156.33333333333334</ele><time>2026-04-12T11:28:13.001Z</time></trkpt><trkpt lat="44.62135257323808" lon="10.603396825599791"><ele>156.0</ele><time>2026-04-12T11:28:14.001Z</time></trkpt><trkpt lat="44.62137940122984" lon="10.603250009133427"><ele>156.0</ele><time>2026-04-12T11:28:15.001Z</time></trkpt><trkpt lat="44.62142057971982" lon="10.603055628835909"><ele>156.0</ele><time>2026-04-12T11:28:16.001Z</time></trkpt><trkpt lat="44.62149710904101" lon="10.602826236421203"><ele>156.0</ele><time>2026-04-12T11:28:17.001Z</time></trkpt><trkpt lat="44.62159622909032" lon="10.602576503307702"><ele>156.5</ele><time>2026-04-12T11:28:18.001Z</time></trkpt><trkpt lat="44.62171768323499" lon="10.602297380702883"><ele>157.0</ele><time>2026-04-12T11:28:19.001Z</time></trkpt><trkpt lat="44.62182619177923" lon="10.601998074090686"><ele>158.0</ele><time>2026-04-12T11:28:20.001Z</time></trkpt><trkpt lat="44.62194966166366" lon="10.60167122571529"><ele>159.0</ele><time>2026-04-12T11:28:21.001Z</time></trkpt><trkpt lat="44.622073204586194" lon="10.6013799135776"><ele>157.33333333333334</ele><time>2026-04-12T11:28:22.001Z</time></trkpt><trkpt lat="44.622169042729176" lon="10.601102772679267"><ele>155.66666666666669</ele><time>2026-04-12T11:28:23.001Z</time></trkpt><trkpt lat="44.62224918029991" lon="10.600872205438284"><ele>154.0</ele><time>2026-04-12T11:28:24.001Z</time></trkpt><trkpt lat="44.62231433509885" lon="10.600657445095244"><ele>154.0</ele><time>2026-04-12T11:28:25.001Z</time></trkpt><trkpt lat="44.6224080547627" lon="10.600452562852952"><ele>154.0</ele><time>2026-04-12T11:28:26.001Z</time></trkpt><trkpt lat="44.622491498863674" lon="10.600229232049637"><ele>154.0</ele><time>2026-04-12T11:28:27.001Z</time></trkpt><trkpt lat="44.62257822671391" lon="10.599998133725078"><ele>151.33333333333334</ele><time>2026-04-12T11:28:28.001Z</time></trkpt><trkpt lat="44.6226589434419" lon="10.599774202178041"><ele>148.66666666666666</ele><time>2026-04-12T11:28:29.001Z</time></trkpt><trkpt lat="44.622742590648244" lon="10.599560082641458"><ele>146.0</ele><time>2026-04-12T11:28:30.001Z</time></trkpt><trkpt lat="44.62281436581903" lon="10.59933705855843"><ele>143.66666666666666</ele><time>2026-04-12T11:28:31.001Z</time></trkpt><trkpt lat="44.62287042968201" lon="10.599122034004559"><ele>141.33333333333334</ele><time>2026-04-12T11:28:32.001Z</time></trkpt><trkpt lat="44.62290168686624" lon="10.598891536688301"><ele>139.0</ele><time>2026-04-12T11:28:33.001Z</time></trkpt><trkpt lat="44.62292238851855" lon="10.598641826108878"><ele>139.0</ele><time>2026-04-12T11:28:34.001Z</time></trkpt><trkpt lat="44.62292708856968" lon="10.598369704867677"><ele>139.0</ele><time>2026-04-12T11:28:35.001Z</time></trkpt><trkpt lat="44.62292251907011" lon="10.598062913017293"><ele>139.0</ele><time>2026-04-12T11:28:36.001Z</time></trkpt><trkpt lat="44.62292102505199" lon="10.597738800992357"><ele>140.0</ele><time>2026-04-12T11:28:37.001Z</time></trkpt><trkpt lat="44.62291974817773" lon="10.597398273619277"><ele>141.0</ele><time>2026-04-12T11:28:38.001Z</time></trkpt><trkpt lat="44.62291880830526" lon="10.5970740725438"><ele>143.0</ele><time>2026-04-12T11:28:39.001Z</time></trkpt><trkpt lat="44.62291673372374" lon="10.596750687876629"><ele>145.0</ele><time>2026-04-12T11:28:40.001Z</time></trkpt><trkpt lat="44.62291730455864" lon="10.596415579180668"><ele>145.33333333333334</ele><time>2026-04-12T11:28:41.001Z</time></trkpt><trkpt lat="44.62291804836515" lon="10.596122015101692"><ele>145.66666666666666</ele><time>2026-04-12T11:28:42.001Z</time></trkpt><trkpt lat="44.622921109757854" lon="10.59585772504199"><ele>146.0</ele><time>2026-04-12T11:28:43.001Z</time></trkpt><trkpt lat="44.622930585036656" lon="10.59561637157295"><ele>146.0</ele><time>2026-04-12T11:28:44.001Z</time></trkpt><trkpt lat="44.622960882858635" lon="10.595390908248412"><ele>146.0</ele><time>2026-04-12T11:28:45.001Z</time></trkpt><trkpt lat="44.623014872638784" lon="10.595157358082883"><ele>146.0</ele><time>2026-04-12T11:28:46.001Z</time></trkpt><trkpt lat="44.623083576793775" lon="10.594927102761567"><ele>146.0</ele><time>2026-04-12T11:28:47.001Z</time></trkpt><trkpt lat="44.6231695317491" lon="10.59469540289469"><ele>146.0</ele><time>2026-04-12T11:28:48.001Z</time></trkpt><trkpt lat="44.62327353943288" lon="10.594462244620624"><ele>146.0</ele><time>2026-04-12T11:28:49.001Z</time></trkpt><trkpt lat="44.623400073235715" lon="10.59422629814852"><ele>146.5</ele><time>2026-04-12T11:28:50.001Z</time></trkpt><trkpt lat="44.62353817165363" lon="10.593977464292022"><ele>147.0</ele><time>2026-04-12T11:28:51.001Z</time></trkpt><trkpt lat="44.62367394489545" lon="10.593708266380268"><ele>147.0</ele><time>2026-04-12T11:28:52.001Z</time></trkpt><trkpt lat="44.623813795707164" lon="10.593425785224996"><ele>147.0</ele><time>2026-04-12T11:28:53.001Z</time></trkpt><trkpt lat="44.62394062182779" lon="10.593179455168837"><ele>147.0</ele><time>2026-04-12T11:28:54.001Z</time></trkpt><trkpt lat="44.62404506297859" lon="10.59297705843845"><ele>147.0</ele><time>2026-04-12T11:28:55.001Z</time></trkpt><trkpt lat="44.62413095102689" lon="10.592800055053509"><ele>147.0</ele><time>2026-04-12T11:28:56.001Z</time></trkpt><trkpt lat="44.62421400749871" lon="10.592634422833397"><ele>146.79999999999998</ele><time>2026-04-12T11:28:57Z</time></trkpt><trkpt lat="44.62428792377143" lon="10.592490826227499"><ele>146.6</ele><time>2026-04-12T11:28:58Z</time></trkpt><trkpt lat="44.6243427740016" lon="10.592383657732295"><ele>146.39999999999998</ele><time>2026-04-12T11:28:59Z</time></trkpt><trkpt lat="44.624394243932386" lon="10.592291108797443"><ele>146.2</ele><time>2026-04-12T11:29:00Z</time></trkpt><trkpt lat="44.62444628175202" lon="10.592203691548056"><ele>146.0</ele><time>2026-04-12T11:29:01Z</time></trkpt><trkpt lat="44.62450938255132" lon="10.592112122972408"><ele>145.75</ele><time>2026-04-12T11:29:02Z</time></trkpt><trkpt lat="44.62453302095739" lon="10.591948542826772"><ele>145.5</ele><time>2026-04-12T11:29:03Z</time></trkpt><trkpt lat="44.62457299637739" lon="10.591765001395967"><ele>145.25</ele><time>2026-04-12T11:29:04Z</time></trkpt><trkpt lat="44.624627778478775" lon="10.591556497682518"><ele>145.0</ele><time>2026-04-12T11:29:05Z</time></trkpt><trkpt lat="44.62468238134604" lon="10.591320524753195"><ele>144.66666666666669</ele><time>2026-04-12T11:29:06Z</time></trkpt><trkpt lat="44.62473069104439" lon="10.591066551693181"><ele>144.33333333333334</ele><time>2026-04-12T11:29:07Z</time></trkpt><trkpt lat="44.624756296210805" lon="10.590836703236587"><ele>144.0</ele><time>2026-04-12T11:29:08Z</time></trkpt><trkpt lat="44.6247588433695" lon="10.590602957685048"><ele>144.0</ele><time>2026-04-12T11:29:09Z</time></trkpt><trkpt lat="44.62473999053186" lon="10.590353826595544"><ele>144.0</ele><time>2026-04-12T11:29:10Z</time></trkpt><trkpt lat="44.62469791793018" lon="10.590095441320713"><ele>144.0</ele><time>2026-04-12T11:29:11Z</time></trkpt><trkpt lat="44.62463353819768" lon="10.589817384338904"><ele>144.0</ele><time>2026-04-12T11:29:12Z</time></trkpt><trkpt lat="44.62455069347639" lon="10.589509395622242"><ele>144.0</ele><time>2026-04-12T11:29:13Z</time></trkpt><trkpt lat="44.624467511065205" lon="10.589180162511369"><ele>144.0</ele><time>2026-04-12T11:29:14Z</time></trkpt><trkpt lat="44.62440655978785" lon="10.588895384609176"><ele>144.0</ele><time>2026-04-12T11:29:15Z</time></trkpt><trkpt lat="44.624347242995555" lon="10.58862596687986"><ele>144.0</ele><time>2026-04-12T11:29:16Z</time></trkpt><trkpt lat="44.62428948040311" lon="10.588368441336112"><ele>144.0</ele><time>2026-04-12T11:29:17Z</time></trkpt><trkpt lat="44.62423506083302" lon="10.588133309276909"><ele>144.0</ele><time>2026-04-12T11:29:18Z</time></trkpt><trkpt lat="44.62417514647544" lon="10.587936126023349"><ele>144.0</ele><time>2026-04-12T11:29:19Z</time></trkpt><trkpt lat="44.624110219505425" lon="10.58773844732955"><ele>142.0</ele><time>2026-04-12T11:29:20Z</time></trkpt><trkpt lat="44.62402655622944" lon="10.587573084516654"><ele>140.0</ele><time>2026-04-12T11:29:21Z</time></trkpt><trkpt lat="44.623909502215334" lon="10.587435043786941"><ele>138.0</ele><time>2026-04-12T11:29:22Z</time></trkpt><trkpt lat="44.62376310618932" lon="10.587312604957129"><ele>140.0</ele><time>2026-04-12T11:29:23Z</time></trkpt><trkpt lat="44.62360359219744" lon="10.587221849014965"><ele>142.0</ele><time>2026-04-12T11:29:24Z</time></trkpt><trkpt lat="44.62341954353451" lon="10.587158579495187"><ele>144.0</ele><time>2026-04-12T11:29:25Z</time></trkpt><trkpt lat="44.623220068280034" lon="10.587102912458242"><ele>144.0</ele><time>2026-04-12T11:29:26Z</time></trkpt><trkpt lat="44.62304410081754" lon="10.587039160690981"><ele>144.0</ele><time>2026-04-12T11:29:27Z</time></trkpt><trkpt lat="44.62288670973081" lon="10.586945697825337"><ele>144.0</ele><time>2026-04-12T11:29:28Z</time></trkpt><trkpt lat="44.622747129872955" lon="10.586810926029132"><ele>143.0</ele><time>2026-04-12T11:29:29Z</time></trkpt><trkpt lat="44.62262441374253" lon="10.586637129067869"><ele>142.0</ele><time>2026-04-12T11:29:30Z</time></trkpt><trkpt lat="44.62252077853697" lon="10.58643197096067"><ele>141.0</ele><time>2026-04-12T11:29:31Z</time></trkpt><trkpt lat="44.62244137132282" lon="10.586198354354595"><ele>140.66666666666666</ele><time>2026-04-12T11:29:32Z</time></trkpt><trkpt lat="44.62238521979007" lon="10.585938205367848"><ele>140.33333333333331</ele><time>2026-04-12T11:29:33Z</time></trkpt><trkpt lat="44.62233186255208" lon="10.585656071780518"><ele>140.0</ele><time>2026-04-12T11:29:34Z</time></trkpt><trkpt lat="44.62227292825061" lon="10.585348429479053"><ele>139.5</ele><time>2026-04-12T11:29:35Z</time></trkpt><trkpt lat="44.62219774554317" lon="10.585009909791498"><ele>139.0</ele><time>2026-04-12T11:29:36Z</time></trkpt><trkpt lat="44.62213220290427" lon="10.58469918204231"><ele>138.66666666666669</ele><time>2026-04-12T11:29:37Z</time></trkpt><trkpt lat="44.62207719100958" lon="10.584419003977803"><ele>138.33333333333334</ele><time>2026-04-12T11:29:38Z</time></trkpt><trkpt lat="44.62202166601547" lon="10.584152833219553"><ele>138.0</ele><time>2026-04-12T11:29:39Z</time></trkpt><trkpt lat="44.6219664260119" lon="10.583907726071915"><ele>140.0</ele><time>2026-04-12T11:29:40Z</time></trkpt><trkpt lat="44.62190891709598" lon="10.583643500484044"><ele>142.0</ele><time>2026-04-12T11:29:41Z</time></trkpt><trkpt lat="44.621850578116344" lon="10.583386835900429"><ele>144.0</ele><time>2026-04-12T11:29:42Z</time></trkpt><trkpt lat="44.62180207527747" lon="10.583144622482763"><ele>144.0</ele><time>2026-04-12T11:29:43Z</time></trkpt><trkpt lat="44.62175568860114" lon="10.582917540454071"><ele>144.0</ele><time>2026-04-12T11:29:44Z</time></trkpt><trkpt lat="44.62171233986326" lon="10.582695401456263"><ele>144.0</ele><time>2026-04-12T11:29:45Z</time></trkpt><trkpt lat="44.621661398581736" lon="10.582460020382529"><ele>144.0</ele><time>2026-04-12T11:29:46Z</time></trkpt><trkpt lat="44.62161252680078" lon="10.582229498776051"><ele>144.0</ele><time>2026-04-12T11:29:47Z</time></trkpt><trkpt lat="44.62156994877205" lon="10.582000728269596"><ele>144.0</ele><time>2026-04-12T11:29:48Z</time></trkpt><trkpt lat="44.62153507525238" lon="10.58175401248991"><ele>143.66666666666666</ele><time>2026-04-12T11:29:49Z</time></trkpt><trkpt lat="44.621515488623565" lon="10.5814878369226"><ele>143.33333333333331</ele><time>2026-04-12T11:29:50Z</time></trkpt><trkpt lat="44.6215135175717" lon="10.581206689672738"><ele>143.0</ele><time>2026-04-12T11:29:51Z</time></trkpt><trkpt lat="44.62152148487569" lon="10.580918056826391"><ele>142.0</ele><time>2026-04-12T11:29:52Z</time></trkpt><trkpt lat="44.62152770756905" lon="10.580655531720753"><ele>141.0</ele><time>2026-04-12T11:29:53Z</time></trkpt><trkpt lat="44.62153066488624" lon="10.580398315235533"><ele>140.0</ele><time>2026-04-12T11:29:54Z</time></trkpt><trkpt lat="44.62153150415458" lon="10.58012635537967"><ele>139.66666666666666</ele><time>2026-04-12T11:29:55Z</time></trkpt><trkpt lat="44.6215321326226" lon="10.579831957155804"><ele>139.33333333333334</ele><time>2026-04-12T11:29:56Z</time></trkpt><trkpt lat="44.621534034472745" lon="10.579521329001858"><ele>139.0</ele><time>2026-04-12T11:29:57Z</time></trkpt><trkpt lat="44.62153816007788" lon="10.579204302945685"><ele>140.0</ele><time>2026-04-12T11:29:58Z</time></trkpt><trkpt lat="44.621542919199655" lon="10.578914499102792"><ele>141.0</ele><time>2026-04-12T11:29:59Z</time></trkpt><trkpt lat="44.62154820584078" lon="10.578644960388091"><ele>142.0</ele><time>2026-04-12T11:30:00Z</time></trkpt><trkpt lat="44.62155067021321" lon="10.57837951415093"><ele>142.33333333333334</ele><time>2026-04-12T11:30:01Z</time></trkpt><trkpt lat="44.62155607678958" lon="10.578092024423459"><ele>142.66666666666666</ele><time>2026-04-12T11:30:02Z</time></trkpt><trkpt lat="44.62156071882334" lon="10.577802350337503"><ele>143.0</ele><time>2026-04-12T11:30:03Z</time></trkpt><trkpt lat="44.62156242702475" lon="10.577520679457768"><ele>142.33333333333331</ele><time>2026-04-12T11:30:04.001Z</time></trkpt><trkpt lat="44.621564955292165" lon="10.577255899863669"><ele>141.66666666666666</ele><time>2026-04-12T11:30:05.001Z</time></trkpt><trkpt lat="44.62157060923281" lon="10.576998890676798"><ele>141.0</ele><time>2026-04-12T11:30:06.001Z</time></trkpt><trkpt lat="44.62157643613379" lon="10.576722547795473"><ele>140.66666666666666</ele><time>2026-04-12T11:30:07.001Z</time></trkpt><trkpt lat="44.62158223305863" lon="10.576428786807512"><ele>140.33333333333331</ele><time>2026-04-12T11:30:08.001Z</time></trkpt><trkpt lat="44.621588640620125" lon="10.57616392687308"><ele>140.0</ele><time>2026-04-12T11:30:09.001Z</time></trkpt><trkpt lat="44.62159182733392" lon="10.575901315123385"><ele>140.0</ele><time>2026-04-12T11:30:10.001Z</time></trkpt><trkpt lat="44.62159626006884" lon="10.575646574742938"><ele>140.0</ele><time>2026-04-12T11:30:11.001Z</time></trkpt><trkpt lat="44.621613398302415" lon="10.575406929059199"><ele>140.0</ele><time>2026-04-12T11:30:12.001Z</time></trkpt><trkpt lat="44.62165105033574" lon="10.575162676287599"><ele>140.0</ele><time>2026-04-12T11:30:13.001Z</time></trkpt><trkpt lat="44.62171169318891" lon="10.57492797088174"><ele>140.0</ele><time>2026-04-12T11:30:14.001Z</time></trkpt><trkpt lat="44.6217784567142" lon="10.574710221039984"><ele>140.0</ele><time>2026-04-12T11:30:15.001Z</time></trkpt><trkpt lat="44.62183488310213" lon="10.574519933015768"><ele>139.8</ele><time>2026-04-12T11:30:16.001Z</time></trkpt><trkpt lat="44.62188412772583" lon="10.574356006987642"><ele>139.6</ele><time>2026-04-12T11:30:17.001Z</time></trkpt><trkpt lat="44.62193309120215" lon="10.574218977560308"><ele>139.4</ele><time>2026-04-12T11:30:18.001Z</time></trkpt><trkpt lat="44.62198544013319" lon="10.57411798174239"><ele>139.2</ele><time>2026-04-12T11:30:19.001Z</time></trkpt><trkpt lat="44.62204704161419" lon="10.57404902939451"><ele>139.0</ele><time>2026-04-12T11:30:20.001Z</time></trkpt><trkpt lat="44.622102877446466" lon="10.573995357687444"><ele>138.6</ele><time>2026-04-12T11:30:21.001Z</time></trkpt><trkpt lat="44.62213746230915" lon="10.573916304761584"><ele>138.2</ele><time>2026-04-12T11:30:22.001Z</time></trkpt><trkpt lat="44.622150124768865" lon="10.57381871614118"><ele>137.79999999999998</ele><time>2026-04-12T11:30:23.001Z</time></trkpt><trkpt lat="44.622147392841455" lon="10.573680017461145"><ele>137.4</ele><time>2026-04-12T11:30:24.001Z</time></trkpt><trkpt lat="44.62215716182076" lon="10.573501563574428"><ele>137.0</ele><time>2026-04-12T11:30:25.001Z</time></trkpt><trkpt lat="44.62218627096027" lon="10.57333139981155"><ele>137.0</ele><time>2026-04-12T11:30:26.001Z</time></trkpt><trkpt lat="44.62223365259211" lon="10.573159626826186"><ele>137.0</ele><time>2026-04-12T11:30:27.001Z</time></trkpt><trkpt lat="44.622294067707706" lon="10.572970113445228"><ele>137.0</ele><time>2026-04-12T11:30:28.001Z</time></trkpt><trkpt lat="44.622352837514924" lon="10.572762738947027"><ele>137.0</ele><time>2026-04-12T11:30:29.001Z</time></trkpt><trkpt lat="44.622412767397094" lon="10.5725565154081"><ele>137.33333333333331</ele><time>2026-04-12T11:30:30.001Z</time></trkpt><trkpt lat="44.622475776562744" lon="10.572341819664908"><ele>137.66666666666666</ele><time>2026-04-12T11:30:31.001Z</time></trkpt><trkpt lat="44.622539327774845" lon="10.572133266078328"><ele>138.0</ele><time>2026-04-12T11:30:32.001Z</time></trkpt><trkpt lat="44.62260338663312" lon="10.571916037644778"><ele>137.33333333333334</ele><time>2026-04-12T11:30:33.001Z</time></trkpt><trkpt lat="44.62266442501429" lon="10.5716932419984"><ele>136.66666666666669</ele><time>2026-04-12T11:30:34.001Z</time></trkpt><trkpt lat="44.62272721624997" lon="10.571476674239822"><ele>136.0</ele><time>2026-04-12T11:30:35.001Z</time></trkpt><trkpt lat="44.62278922014573" lon="10.571259765574665"><ele>135.0</ele><time>2026-04-12T11:30:36.001Z</time></trkpt><trkpt lat="44.622852261175446" lon="10.57105207503998"><ele>134.0</ele><time>2026-04-12T11:30:37.001Z</time></trkpt><trkpt lat="44.6229165703141" lon="10.570847203102247"><ele>133.0</ele><time>2026-04-12T11:30:38.001Z</time></trkpt><trkpt lat="44.622979190834165" lon="10.570654090564748"><ele>133.0</ele><time>2026-04-12T11:30:39.001Z</time></trkpt><trkpt lat="44.62304151229398" lon="10.570457126925765"><ele>133.0</ele><time>2026-04-12T11:30:40.001Z</time></trkpt><trkpt lat="44.623103113495475" lon="10.570243676846895"><ele>133.0</ele><time>2026-04-12T11:30:41.001Z</time></trkpt><trkpt lat="44.6231671300083" lon="10.570013908291731"><ele>133.0</ele><time>2026-04-12T11:30:42Z</time></trkpt><trkpt lat="44.623229464139236" lon="10.569799042184743"><ele>133.0</ele><time>2026-04-12T11:30:43Z</time></trkpt><trkpt lat="44.62329813365449" lon="10.569588126305284"><ele>133.0</ele><time>2026-04-12T11:30:44Z</time></trkpt><trkpt lat="44.62336742130309" lon="10.569372077342365"><ele>133.0</ele><time>2026-04-12T11:30:45Z</time></trkpt><trkpt lat="44.623448539413445" lon="10.569165448007299"><ele>133.0</ele><time>2026-04-12T11:30:46Z</time></trkpt><trkpt lat="44.623543148475086" lon="10.568979029720055"><ele>133.0</ele><time>2026-04-12T11:30:47Z</time></trkpt><trkpt lat="44.6236272939657" lon="10.568808196153293"><ele>131.75</ele><time>2026-04-12T11:30:48Z</time></trkpt><trkpt lat="44.62370635832989" lon="10.568647510878414"><ele>130.5</ele><time>2026-04-12T11:30:49Z</time></trkpt><trkpt lat="44.62379405815799" lon="10.568480208102546"><ele>129.25</ele><time>2026-04-12T11:30:50Z</time></trkpt><trkpt lat="44.623880930077014" lon="10.568316302299248"><ele>128.0</ele><time>2026-04-12T11:30:51Z</time></trkpt><trkpt lat="44.62394825373214" lon="10.56818331920181"><ele>127.99999999999999</ele><time>2026-04-12T11:30:52Z</time></trkpt><trkpt lat="44.62400846401594" lon="10.568066054745419"><ele>128.0</ele><time>2026-04-12T11:30:53Z</time></trkpt><trkpt lat="44.62406015802673" lon="10.567964273247304"><ele>128.0</ele><time>2026-04-12T11:30:54Z</time></trkpt><trkpt lat="44.624108531155606" lon="10.567867209991796"><ele>128.0</ele><time>2026-04-12T11:30:55Z</time></trkpt><trkpt lat="44.62415603136726" lon="10.567769707625004"><ele>127.99999999999999</ele><time>2026-04-12T11:30:56Z</time></trkpt><trkpt lat="44.6242075932724" lon="10.567669054682224"><ele>128.0</ele><time>2026-04-12T11:30:57Z</time></trkpt><trkpt lat="44.62425718340673" lon="10.567573380809012"><ele>127.99999999999999</ele><time>2026-04-12T11:30:58Z</time></trkpt><trkpt lat="44.62429856614599" lon="10.567498050405002"><ele>128.0</ele><time>2026-04-12T11:30:59Z</time></trkpt><trkpt lat="44.6243449354695" lon="10.56741390617402"><ele>128.0</ele><time>2026-04-12T11:31:02Z</time></trkpt><trkpt lat="44.62438532769482" lon="10.56733187748009"><ele>128.0</ele><time>2026-04-12T11:31:04Z</time></trkpt><trkpt lat="44.62442913588194" lon="10.567246886330159"><ele>127.99999999999999</ele><time>2026-04-12T11:31:06Z</time></trkpt><trkpt lat="44.624493648696664" lon="10.567120268474877"><ele>128.0</ele><time>2026-04-12T11:31:08Z</time></trkpt><trkpt lat="44.62456491593107" lon="10.5669956266444"><ele>128.33333333333331</ele><time>2026-04-12T11:31:10Z</time></trkpt><trkpt lat="44.624689562236384" lon="10.566937660242614"><ele>128.66666666666666</ele><time>2026-04-12T11:31:12Z</time></trkpt><trkpt lat="44.6247760112914" lon="10.566918092880105"><ele>129.0</ele><time>2026-04-12T11:31:13Z</time></trkpt><trkpt lat="44.62484923196687" lon="10.566884413354739"><ele>129.33333333333334</ele><time>2026-04-12T11:31:14Z</time></trkpt><trkpt lat="44.62490125438074" lon="10.566818410206114"><ele>129.66666666666669</ele><time>2026-04-12T11:31:15Z</time></trkpt><trkpt lat="44.62494886888696" lon="10.566738686690945"><ele>130.0</ele><time>2026-04-12T11:31:16Z</time></trkpt><trkpt lat="44.62496307554657" lon="10.566613195198455"><ele>130.0</ele><time>2026-04-12T11:31:17Z</time></trkpt><trkpt lat="44.62495804412814" lon="10.566477336789491"><ele>130.0</ele><time>2026-04-12T11:31:18Z</time></trkpt><trkpt lat="44.624950168268995" lon="10.56634640251897"><ele>130.0</ele><time>2026-04-12T11:31:19Z</time></trkpt><trkpt lat="44.62495890066892" lon="10.566242451993201"><ele>130.0</ele><time>2026-04-12T11:31:20Z</time></trkpt><trkpt lat="44.62501733432832" lon="10.566084124975186"><ele>130.0</ele><time>2026-04-12T11:31:22Z</time></trkpt><trkpt lat="44.625058846685114" lon="10.5660023914915"><ele>130.5</ele><time>2026-04-12T11:31:23Z</time></trkpt><trkpt lat="44.625096292084926" lon="10.565919396179519"><ele>131.0</ele><time>2026-04-12T11:31:24Z</time></trkpt><trkpt lat="44.62516921219229" lon="10.565773855748128"><ele>131.5</ele><time>2026-04-12T11:31:26Z</time></trkpt><trkpt lat="44.62521262937009" lon="10.565686266597119"><ele>132.0</ele><time>2026-04-12T11:31:27Z</time></trkpt><trkpt lat="44.62525437729709" lon="10.565607187655374"><ele>132.5</ele><time>2026-04-12T11:31:28Z</time></trkpt><trkpt lat="44.6252881436629" lon="10.56552349504744"><ele>133.0</ele><time>2026-04-12T11:31:29Z</time></trkpt><trkpt lat="44.625329675741256" lon="10.565445843393261"><ele>133.57142857142858</ele><time>2026-04-12T11:31:30Z</time></trkpt><trkpt lat="44.62536908830497" lon="10.56537601337091"><ele>134.14285714285714</ele><time>2026-04-12T11:31:31Z</time></trkpt><trkpt lat="44.625408308768556" lon="10.565303049855048"><ele>134.71428571428572</ele><time>2026-04-12T11:31:32Z</time></trkpt><trkpt lat="44.6254403773415" lon="10.565221138235843"><ele>135.28571428571428</ele><time>2026-04-12T11:31:33Z</time></trkpt><trkpt lat="44.62548911493396" lon="10.565135794455971"><ele>135.85714285714286</ele><time>2026-04-12T11:31:34Z</time></trkpt><trkpt lat="44.62554746050903" lon="10.565002573725158"><ele>136.42857142857144</ele><time>2026-04-12T11:31:36Z</time></trkpt><trkpt lat="44.62558949293695" lon="10.564935421784028"><ele>137.0</ele><time>2026-04-12T11:31:37Z</time></trkpt><trkpt lat="44.625630614111884" lon="10.564868411533201"><ele>137.6</ele><time>2026-04-12T11:31:38Z</time></trkpt><trkpt lat="44.62569233316386" lon="10.564730595305196"><ele>138.2</ele><time>2026-04-12T11:31:40Z</time></trkpt><trkpt lat="44.625750590232364" lon="10.56462527864637"><ele>138.8</ele><time>2026-04-12T11:31:42Z</time></trkpt><trkpt lat="44.62580794861592" lon="10.564548253166993"><ele>139.4</ele><time>2026-04-12T11:31:44Z</time></trkpt><trkpt lat="44.62590785876928" lon="10.564473908214614"><ele>140.0</ele><time>2026-04-12T11:31:48Z</time></trkpt><trkpt lat="44.62595748665436" lon="10.564409941458473"><ele>140.0</ele><time>2026-04-12T11:31:49Z</time></trkpt><trkpt lat="44.62599329390847" lon="10.564311072827397"><ele>140.0</ele><time>2026-04-12T11:31:50Z</time></trkpt><trkpt lat="44.62601727835358" lon="10.564203126130725"><ele>140.0</ele><time>2026-04-12T11:31:51Z</time></trkpt><trkpt lat="44.626035152226486" lon="10.564112578774779"><ele>140.0</ele><time>2026-04-12T11:31:52Z</time></trkpt><trkpt lat="44.62606139919058" lon="10.56402973826865"><ele>140.0</ele><time>2026-04-12T11:31:53Z</time></trkpt><trkpt lat="44.62610267457364" lon="10.563942063811014"><ele>140.0</ele><time>2026-04-12T11:31:54Z</time></trkpt><trkpt lat="44.6261470021729" lon="10.56385902112029"><ele>140.0</ele><time>2026-04-12T11:31:55Z</time></trkpt><trkpt lat="44.62621977580771" lon="10.56373128910097"><ele>140.57142857142858</ele><time>2026-04-12T11:31:57Z</time></trkpt><trkpt lat="44.62625859439982" lon="10.563661471227082"><ele>141.14285714285714</ele><time>2026-04-12T11:32:01Z</time></trkpt><trkpt lat="44.62630349107963" lon="10.563589426175128"><ele>141.71428571428572</ele><time>2026-04-12T11:32:07Z</time></trkpt><trkpt lat="44.62634154842772" lon="10.563506474033053"><ele>142.28571428571428</ele><time>2026-04-12T11:32:11.001Z</time></trkpt><trkpt lat="44.62639052039275" lon="10.563399291575754"><ele>142.85714285714286</ele><time>2026-04-12T11:32:13.001Z</time></trkpt><trkpt lat="44.62643678194845" lon="10.563307439128216"><ele>143.42857142857144</ele><time>2026-04-12T11:32:15.001Z</time></trkpt><trkpt lat="44.626478971868856" lon="10.563233817328799"><ele>144.0</ele><time>2026-04-12T11:32:19.001Z</time></trkpt><trkpt lat="44.626529712339476" lon="10.563133393717987"><ele>144.0</ele><time>2026-04-12T11:32:21.001Z</time></trkpt><trkpt lat="44.62660317670012" lon="10.562996539056638"><ele>144.0</ele><time>2026-04-12T11:32:23.001Z</time></trkpt><trkpt lat="44.62666613722552" lon="10.562862283172317"><ele>144.0</ele><time>2026-04-12T11:32:25.001Z</time></trkpt><trkpt lat="44.62673572123765" lon="10.562735905118453"><ele>144.0</ele><time>2026-04-12T11:32:27.001Z</time></trkpt><trkpt lat="44.62681405241328" lon="10.562657073313693"><ele>144.0</ele><time>2026-04-12T11:32:29.001Z</time></trkpt><trkpt lat="44.62687649438444" lon="10.562585652669858"><ele>144.2</ele><time>2026-04-12T11:32:31.001Z</time></trkpt><trkpt lat="44.62691541946735" lon="10.562476251490077"><ele>144.4</ele><time>2026-04-12T11:34:57Z</time></trkpt><trkpt lat="44.62689252254731" lon="10.562337265805803"><ele>144.6</ele><time>2026-04-12T11:34:59Z</time></trkpt><trkpt lat="44.62687364968461" lon="10.56218294636023"><ele>144.8</ele><time>2026-04-12T11:35:01Z</time></trkpt><trkpt lat="44.62689248617197" lon="10.562033136379355"><ele>145.0</ele><time>2026-04-12T11:35:02Z</time></trkpt><trkpt lat="44.626948835071985" lon="10.561828839508665"><ele>145.66666666666669</ele><time>2026-04-12T11:35:03Z</time></trkpt><trkpt lat="44.62702073335588" lon="10.561588370823314"><ele>146.33333333333334</ele><time>2026-04-12T11:35:04Z</time></trkpt><trkpt lat="44.62710768569936" lon="10.561300524935639"><ele>147.0</ele><time>2026-04-12T11:35:05Z</time></trkpt><trkpt lat="44.62718256194759" lon="10.56099123151062"><ele>147.0</ele><time>2026-04-12T11:35:06Z</time></trkpt><trkpt lat="44.62727450355511" lon="10.560657208250392"><ele>147.0</ele><time>2026-04-12T11:35:07Z</time></trkpt><trkpt lat="44.62736284634891" lon="10.560377220022373"><ele>146.66666666666666</ele><time>2026-04-12T11:35:08Z</time></trkpt><trkpt lat="44.62743444619319" lon="10.560127726269005"><ele>146.33333333333331</ele><time>2026-04-12T11:35:09Z</time></trkpt><trkpt lat="44.62750821283483" lon="10.559894849872112"><ele>146.0</ele><time>2026-04-12T11:35:10Z</time></trkpt><trkpt lat="44.627594824098736" lon="10.559659246594057"><ele>145.33333333333331</ele><time>2026-04-12T11:35:11Z</time></trkpt><trkpt lat="44.62768835641317" lon="10.559465915410135"><ele>144.66666666666666</ele><time>2026-04-12T11:35:12Z</time></trkpt><trkpt lat="44.627795252778164" lon="10.559296730121634"><ele>144.0</ele><time>2026-04-12T11:35:13Z</time></trkpt><trkpt lat="44.627930437032376" lon="10.559142466368682"><ele>144.0</ele><time>2026-04-12T11:35:14Z</time></trkpt><trkpt lat="44.62806396487734" lon="10.55895596495326"><ele>144.0</ele><time>2026-04-12T11:35:15Z</time></trkpt><trkpt lat="44.62821370074519" lon="10.55878130678556"><ele>144.0</ele><time>2026-04-12T11:35:16Z</time></trkpt><trkpt lat="44.62835992822316" lon="10.558587403301562"><ele>145.0</ele><time>2026-04-12T11:35:17Z</time></trkpt><trkpt lat="44.62848332510065" lon="10.558409211427072"><ele>146.0</ele><time>2026-04-12T11:35:18Z</time></trkpt><trkpt lat="44.62859833237249" lon="10.55824052997316"><ele>147.0</ele><time>2026-04-12T11:35:19Z</time></trkpt><trkpt lat="44.62870070331916" lon="10.558058315694868"><ele>149.0</ele><time>2026-04-12T11:35:20Z</time></trkpt><trkpt lat="44.62878284000691" lon="10.557867860028974"><ele>151.0</ele><time>2026-04-12T11:35:21Z</time></trkpt><trkpt lat="44.62885607556654" lon="10.557666186906868"><ele>153.0</ele><time>2026-04-12T11:35:22Z</time></trkpt><trkpt lat="44.6289157748873" lon="10.557475707716748"><ele>153.0</ele><time>2026-04-12T11:35:23Z</time></trkpt><trkpt lat="44.62896274522673" lon="10.557294852799311"><ele>153.0</ele><time>2026-04-12T11:35:24Z</time></trkpt><trkpt lat="44.62899548762272" lon="10.557115166003182"><ele>153.0</ele><time>2026-04-12T11:35:25Z</time></trkpt><trkpt lat="44.629021057185994" lon="10.556939701613677"><ele>153.0</ele><time>2026-04-12T11:35:26Z</time></trkpt><trkpt lat="44.629035085332134" lon="10.55677680452047"><ele>153.0</ele><time>2026-04-12T11:35:27Z</time></trkpt><trkpt lat="44.62904366880411" lon="10.55663434156167"><ele>153.0</ele><time>2026-04-12T11:35:28Z</time></trkpt><trkpt lat="44.62904531137878" lon="10.556519924952896"><ele>153.0</ele><time>2026-04-12T11:35:29Z</time></trkpt><trkpt lat="44.629048913060025" lon="10.556378109306324"><ele>153.0</ele><time>2026-04-12T11:35:31Z</time></trkpt><trkpt lat="44.6290498562587" lon="10.55625405439847"><ele>153.0</ele><time>2026-04-12T11:35:34Z</time></trkpt><trkpt lat="44.62893163070617" lon="10.556185155128686"><ele>153.0</ele><time>2026-04-12T11:35:35Z</time></trkpt><trkpt lat="44.62882940343033" lon="10.55611992423558"><ele>153.0</ele><time>2026-04-12T11:35:36Z</time></trkpt><trkpt lat="44.628699584278735" lon="10.556029056025132"><ele>153.0</ele><time>2026-04-12T11:35:37Z</time></trkpt><trkpt lat="44.628580697479535" lon="10.555902723742228"><ele>153.0</ele><time>2026-04-12T11:35:38Z</time></trkpt><trkpt lat="44.62848193823043" lon="10.555809905222423"><ele>153.0</ele><time>2026-04-12T11:35:39Z</time></trkpt><trkpt lat="44.62841578008764" lon="10.555746189279494"><ele>153.0</ele><time>2026-04-12T11:35:40Z</time></trkpt><trkpt lat="44.62846331256725" lon="10.55558755545113"><ele>153.0</ele><time>2026-04-12T11:35:43Z</time></trkpt><trkpt lat="44.628522646176165" lon="10.555448656706"><ele>153.0</ele><time>2026-04-12T11:35:44Z</time></trkpt><trkpt lat="44.62857231311806" lon="10.55534089679144"><ele>153.0</ele><time>2026-04-12T11:35:45Z</time></trkpt><trkpt lat="44.628622763653034" lon="10.555285258215346"><ele>153.0</ele><time>2026-04-12T11:35:49Z</time></trkpt><trkpt lat="44.62869468024149" lon="10.55538605705796"><ele>153.0</ele><time>2026-04-12T11:35:51Z</time></trkpt></trkseg></trk></gpx>